<?xml version='1.0' encoding='UTF-8'?><gpx version="1.1" creator="JPX - https://github.com/jenetics/jpx" xmlns="http://www.topografix.com/GPX/1/1"><trk><trkseg><trkpt lat="44.32601816701031" lon="11.907028981036925"><ele>21.0</ele><time>2026-04-04T08:01:06Z</time></trkpt><trkpt lat="44.32608075666461" lon="11.906976137567622"><ele>21.0</ele><time>2026-04-04T08:03:47.998Z</time></trkpt><trkpt lat="44.326157547559006" lon="11.907020227713753"><ele>21.0</ele><time>2026-04-04T08:03:49.998Z</time></trkpt><trkpt lat="44.32624781393476" lon="11.907091425381862"><ele>21.0</ele><time>2026-04-04T08:03:51.998Z</time></trkpt><trkpt lat="44.32633795955274" lon="11.9071946718712"><ele>21.0</ele><time>2026-04-04T08:03:53.998Z</time></trkpt><trkpt lat="44.32642465962552" lon="11.907312648614393"><ele>21.0</ele><time>2026-04-04T08:03:55.998Z</time></trkpt><trkpt lat="44.326510895814735" lon="11.90740068651166"><ele>21.0</ele><time>2026-04-04T08:03:57.998Z</time></trkpt><trkpt lat="44.326593346465586" lon="11.907482301280924"><ele>21.0</ele><time>2026-04-04T08:03:59.998Z</time></trkpt><trkpt lat="44.32665942306857" lon="11.90758487996958"><ele>21.0</ele><time>2026-04-04T08:04:01.998Z</time></trkpt><trkpt lat="44.32670136353506" lon="11.907719731201064"><ele>21.0</ele><time>2026-04-04T08:04:03.998Z</time></trkpt><trkpt lat="44.326697126052544" lon="11.907808470189748"><ele>20.857142857142858</ele><time>2026-04-04T08:04:04.998Z</time></trkpt><trkpt lat="44.32670024797444" lon="11.907897316272635"><ele>20.714285714285715</ele><time>2026-04-04T08:04:05.999Z</time></trkpt><trkpt lat="44.326690864917" lon="11.907987982400652"><ele>20.57142857142857</ele><time>2026-04-04T08:04:06.999Z</time></trkpt><trkpt lat="44.32668237766783" lon="11.90807973400247"><ele>20.42857142857143</ele><time>2026-04-04T08:04:07.999Z</time></trkpt><trkpt lat="44.326673107666295" lon="11.908171007932264"><ele>20.285714285714285</ele><time>2026-04-04T08:04:08.999Z</time></trkpt><trkpt lat="44.32665579735423" lon="11.908261435545729"><ele>20.142857142857142</ele><time>2026-04-04T08:04:09.999Z</time></trkpt><trkpt lat="44.32662057179086" lon="11.908340559685763"><ele>20.0</ele><time>2026-04-04T08:04:10.999Z</time></trkpt><trkpt lat="44.32657643377894" lon="11.908407940602054"><ele>20.142857142857142</ele><time>2026-04-04T08:04:11.999Z</time></trkpt><trkpt lat="44.32651822041275" lon="11.908456270259453"><ele>20.285714285714285</ele><time>2026-04-04T08:04:12.999Z</time></trkpt><trkpt lat="44.326457399341464" lon="11.908489740808438"><ele>20.42857142857143</ele><time>2026-04-04T08:04:13.999Z</time></trkpt><trkpt lat="44.3263898273591" lon="11.908510800974884"><ele>20.57142857142857</ele><time>2026-04-04T08:04:14.999Z</time></trkpt><trkpt lat="44.32631769639401" lon="11.908515850673304"><ele>20.714285714285715</ele><time>2026-04-04T08:04:15.999Z</time></trkpt><trkpt lat="44.32624215874801" lon="11.908510821017147"><ele>20.857142857142858</ele><time>2026-04-04T08:04:16.999Z</time></trkpt><trkpt lat="44.32617119140763" lon="11.908503662502548"><ele>21.0</ele><time>2026-04-04T08:04:17.999Z</time></trkpt><trkpt lat="44.32610012833896" lon="11.908486882336373"><ele>21.0</ele><time>2026-04-04T08:04:18.999Z</time></trkpt><trkpt lat="44.32603454242254" lon="11.90846734737239"><ele>21.0</ele><time>2026-04-04T08:04:19.999Z</time></trkpt><trkpt lat="44.32591998175737" lon="11.908409557037562"><ele>21.0</ele><time>2026-04-04T08:04:21.999Z</time></trkpt><trkpt lat="44.32581638207494" lon="11.90832404845174"><ele>21.0</ele><time>2026-04-04T08:04:23.999Z</time></trkpt><trkpt lat="44.32571910667083" lon="11.908228922514162"><ele>21.0</ele><time>2026-04-04T08:04:25.999Z</time></trkpt><trkpt lat="44.32562305692078" lon="11.908151934961632"><ele>20.833333333333332</ele><time>2026-04-04T08:04:27.999Z</time></trkpt><trkpt lat="44.32553767086877" lon="11.908082276254623"><ele>20.666666666666668</ele><time>2026-04-04T08:04:30Z</time></trkpt><trkpt lat="44.32548078624628" lon="11.908034066570062"><ele>20.5</ele><time>2026-04-04T08:05:19.001Z</time></trkpt><trkpt lat="44.32541582712617" lon="11.907986297689801"><ele>20.333333333333336</ele><time>2026-04-04T08:05:21.001Z</time></trkpt><trkpt lat="44.32531100670802" lon="11.90789903096263"><ele>20.166666666666668</ele><time>2026-04-04T08:05:23.001Z</time></trkpt><trkpt lat="44.32524919771513" lon="11.90785081568859"><ele>20.0</ele><time>2026-04-04T08:05:24.001Z</time></trkpt><trkpt lat="44.3251790931846" lon="11.907793446610842"><ele>20.0</ele><time>2026-04-04T08:05:25.001Z</time></trkpt><trkpt lat="44.32509750848347" lon="11.90773932019319"><ele>20.0</ele><time>2026-04-04T08:05:26.001Z</time></trkpt><trkpt lat="44.32500325017866" lon="11.907672252507147"><ele>20.0</ele><time>2026-04-04T08:05:27.001Z</time></trkpt><trkpt lat="44.32491474528565" lon="11.907607635493022"><ele>20.0</ele><time>2026-04-04T08:05:28.001Z</time></trkpt><trkpt lat="44.32481718057365" lon="11.907531690624527"><ele>20.0</ele><time>2026-04-04T08:05:29.001Z</time></trkpt><trkpt lat="44.324712070979416" lon="11.907455843032029"><ele>20.5</ele><time>2026-04-04T08:05:30.001Z</time></trkpt><trkpt lat="44.32460233851534" lon="11.907369617166356"><ele>21.0</ele><time>2026-04-04T08:05:31.001Z</time></trkpt><trkpt lat="44.32448623319314" lon="11.907283303036236"><ele>21.5</ele><time>2026-04-04T08:05:32.001Z</time></trkpt><trkpt lat="44.324366300290315" lon="11.907193034221548"><ele>22.0</ele><time>2026-04-04T08:05:33.001Z</time></trkpt><trkpt lat="44.32424519096759" lon="11.907100013377379"><ele>22.0</ele><time>2026-04-04T08:05:34.001Z</time></trkpt><trkpt lat="44.324138039880694" lon="11.907016892585528"><ele>22.0</ele><time>2026-04-04T08:05:35.001Z</time></trkpt><trkpt lat="44.32403541492962" lon="11.906937495368055"><ele>22.0</ele><time>2026-04-04T08:05:36.001Z</time></trkpt><trkpt lat="44.32394143392727" lon="11.906869490256467"><ele>22.0</ele><time>2026-04-04T08:05:37.001Z</time></trkpt><trkpt lat="44.323853939674855" lon="11.906804464407292"><ele>22.0</ele><time>2026-04-04T08:05:38.001Z</time></trkpt><trkpt lat="44.32376983787083" lon="11.906745639916867"><ele>22.166666666666664</ele><time>2026-04-04T08:05:39.001Z</time></trkpt><trkpt lat="44.323695974541636" lon="11.906689205797832"><ele>22.333333333333332</ele><time>2026-04-04T08:05:40.001Z</time></trkpt><trkpt lat="44.32362511107102" lon="11.906639363087455"><ele>22.5</ele><time>2026-04-04T08:05:41.001Z</time></trkpt><trkpt lat="44.32355720514191" lon="11.906579956473545"><ele>22.666666666666668</ele><time>2026-04-04T08:05:42.001Z</time></trkpt><trkpt lat="44.323480707582206" lon="11.906522009277934"><ele>22.833333333333336</ele><time>2026-04-04T08:05:43.001Z</time></trkpt><trkpt lat="44.32340084414807" lon="11.906455189642937"><ele>23.0</ele><time>2026-04-04T08:05:44.001Z</time></trkpt><trkpt lat="44.32331770212209" lon="11.90638846245096"><ele>23.0</ele><time>2026-04-04T08:05:45.001Z</time></trkpt><trkpt lat="44.32322747063997" lon="11.90632044722605"><ele>23.0</ele><time>2026-04-04T08:05:46.001Z</time></trkpt><trkpt lat="44.32313257212928" lon="11.906241697957686"><ele>23.0</ele><time>2026-04-04T08:05:47.001Z</time></trkpt><trkpt lat="44.32302544040609" lon="11.906163497364005"><ele>23.0</ele><time>2026-04-04T08:05:48.001Z</time></trkpt><trkpt lat="44.322909501182025" lon="11.906082291175023"><ele>23.0</ele><time>2026-04-04T08:05:49.001Z</time></trkpt><trkpt lat="44.322785536202396" lon="11.905993402341334"><ele>23.0</ele><time>2026-04-04T08:05:50.001Z</time></trkpt><trkpt lat="44.322659249942106" lon="11.905905322796153"><ele>23.0</ele><time>2026-04-04T08:05:51.001Z</time></trkpt><trkpt lat="44.32252896146993" lon="11.905811767597518"><ele>23.0</ele><time>2026-04-04T08:05:52.001Z</time></trkpt><trkpt lat="44.32240689468358" lon="11.90572300995058"><ele>23.0</ele><time>2026-04-04T08:05:52.999Z</time></trkpt><trkpt lat="44.32228245083897" lon="11.905628463107755"><ele>23.0</ele><time>2026-04-04T08:05:53.999Z</time></trkpt><trkpt lat="44.32216556722687" lon="11.905518535206626"><ele>23.0</ele><time>2026-04-04T08:05:54.999Z</time></trkpt><trkpt lat="44.32204224613265" lon="11.90542408831122"><ele>23.0</ele><time>2026-04-04T08:05:55.999Z</time></trkpt><trkpt lat="44.32191375876274" lon="11.905324480666565"><ele>23.0</ele><time>2026-04-04T08:05:56.999Z</time></trkpt><trkpt lat="44.321785184709206" lon="11.905227689573325"><ele>23.0</ele><time>2026-04-04T08:05:57.999Z</time></trkpt><trkpt lat="44.32165705613626" lon="11.905131403600187"><ele>23.0</ele><time>2026-04-04T08:05:58.999Z</time></trkpt><trkpt lat="44.32152602713965" lon="11.905038562394525"><ele>23.0</ele><time>2026-04-04T08:05:59.999Z</time></trkpt><trkpt lat="44.32139948191708" lon="11.904942338525432"><ele>22.75</ele><time>2026-04-04T08:06:00.999Z</time></trkpt><trkpt lat="44.32127268442844" lon="11.904848352413456"><ele>22.5</ele><time>2026-04-04T08:06:01.999Z</time></trkpt><trkpt lat="44.32114556649703" lon="11.904757918442877"><ele>22.25</ele><time>2026-04-04T08:06:02.999Z</time></trkpt><trkpt lat="44.32102301329362" lon="11.904674957131725"><ele>22.0</ele><time>2026-04-04T08:06:03.999Z</time></trkpt><trkpt lat="44.32090238950899" lon="11.904591586257972"><ele>22.0</ele><time>2026-04-04T08:06:04.999Z</time></trkpt><trkpt lat="44.32078639685627" lon="11.904513068394003"><ele>22.0</ele><time>2026-04-04T08:06:05.999Z</time></trkpt><trkpt lat="44.32067085670824" lon="11.904433536307305"><ele>22.0</ele><time>2026-04-04T08:06:06.999Z</time></trkpt><trkpt lat="44.32056420772686" lon="11.904354305907784"><ele>22.0</ele><time>2026-04-04T08:06:07.999Z</time></trkpt><trkpt lat="44.32046331050877" lon="11.904267868130955"><ele>22.200000000000003</ele><time>2026-04-04T08:06:08.999Z</time></trkpt><trkpt lat="44.32036895213598" lon="11.90417778183175"><ele>22.4</ele><time>2026-04-04T08:06:09.999Z</time></trkpt><trkpt lat="44.32028434013128" lon="11.904072224397934"><ele>22.6</ele><time>2026-04-04T08:06:10.999Z</time></trkpt><trkpt lat="44.32021997545142" lon="11.90395498924385"><ele>22.799999999999997</ele><time>2026-04-04T08:06:11.999Z</time></trkpt><trkpt lat="44.320171594929036" lon="11.903835523468553"><ele>23.0</ele><time>2026-04-04T08:06:12.999Z</time></trkpt><trkpt lat="44.3201792458411" lon="11.903704696383949"><ele>23.0</ele><time>2026-04-04T08:06:13.999Z</time></trkpt><trkpt lat="44.320210062065755" lon="11.903582063951156"><ele>23.0</ele><time>2026-04-04T08:06:14.999Z</time></trkpt><trkpt lat="44.3202619856526" lon="11.903457240280478"><ele>23.0</ele><time>2026-04-04T08:06:15.999Z</time></trkpt><trkpt lat="44.32030685337146" lon="11.90333023441503"><ele>23.0</ele><time>2026-04-04T08:06:16.999Z</time></trkpt><trkpt lat="44.32032124166227" lon="11.903189335811838"><ele>23.0</ele><time>2026-04-04T08:06:17.999Z</time></trkpt><trkpt lat="44.32030891674997" lon="11.903045004786481"><ele>23.2</ele><time>2026-04-04T08:06:18.999Z</time></trkpt><trkpt lat="44.32027268341469" lon="11.902908166801012"><ele>23.4</ele><time>2026-04-04T08:06:20Z</time></trkpt><trkpt lat="44.32021637625594" lon="11.902785314943284"><ele>23.599999999999998</ele><time>2026-04-04T08:06:21Z</time></trkpt><trkpt lat="44.320157272373066" lon="11.902662720819505"><ele>23.799999999999997</ele><time>2026-04-04T08:06:22Z</time></trkpt><trkpt lat="44.320069470115094" lon="11.902581414793739"><ele>24.0</ele><time>2026-04-04T08:06:23Z</time></trkpt><trkpt lat="44.31996641550572" lon="11.902529709330674"><ele>23.799999999999997</ele><time>2026-04-04T08:06:24Z</time></trkpt><trkpt lat="44.319864286831596" lon="11.902515650722048"><ele>23.599999999999998</ele><time>2026-04-04T08:06:25Z</time></trkpt><trkpt lat="44.31975208916485" lon="11.902537977071612"><ele>23.4</ele><time>2026-04-04T08:06:26Z</time></trkpt><trkpt lat="44.31964772330721" lon="11.902591068141081"><ele>23.2</ele><time>2026-04-04T08:06:27Z</time></trkpt><trkpt lat="44.31955560895448" lon="11.902691274482333"><ele>23.0</ele><time>2026-04-04T08:06:28Z</time></trkpt><trkpt lat="44.319494816513654" lon="11.902822412998468"><ele>23.0</ele><time>2026-04-04T08:06:29Z</time></trkpt><trkpt lat="44.31942751264091" lon="11.90293625855732"><ele>23.0</ele><time>2026-04-04T08:06:30Z</time></trkpt><trkpt lat="44.319369263695634" lon="11.90305097407548"><ele>23.0</ele><time>2026-04-04T08:06:31Z</time></trkpt><trkpt lat="44.31929619517684" lon="11.903147807930512"><ele>23.0</ele><time>2026-04-04T08:06:32Z</time></trkpt><trkpt lat="44.31919979937394" lon="11.903206188506674"><ele>23.0</ele><time>2026-04-04T08:06:33Z</time></trkpt><trkpt lat="44.31909501904155" lon="11.903207851752118"><ele>23.0</ele><time>2026-04-04T08:06:34Z</time></trkpt><trkpt lat="44.31899090500507" lon="11.903223451852929"><ele>23.0</ele><time>2026-04-04T08:06:35Z</time></trkpt><trkpt lat="44.31888571263899" lon="11.903182289330097"><ele>23.0</ele><time>2026-04-04T08:06:36Z</time></trkpt><trkpt lat="44.318785356434056" lon="11.903131387477012"><ele>23.0</ele><time>2026-04-04T08:06:37Z</time></trkpt><trkpt lat="44.318682413669706" lon="11.90307122668215"><ele>23.0</ele><time>2026-04-04T08:06:38Z</time></trkpt><trkpt lat="44.31857521370838" lon="11.90300293402062"><ele>23.0</ele><time>2026-04-04T08:06:39Z</time></trkpt><trkpt lat="44.31846324814616" lon="11.902930119934338"><ele>23.0</ele><time>2026-04-04T08:06:40Z</time></trkpt><trkpt lat="44.31835122130579" lon="11.902847769707394"><ele>23.0</ele><time>2026-04-04T08:06:41Z</time></trkpt><trkpt lat="44.31823485165477" lon="11.902766879426096"><ele>23.0</ele><time>2026-04-04T08:06:42Z</time></trkpt><trkpt lat="44.31811823373903" lon="11.90269081379777"><ele>23.0</ele><time>2026-04-04T08:06:43Z</time></trkpt><trkpt lat="44.31799657842526" lon="11.902616774839684"><ele>23.0</ele><time>2026-04-04T08:06:44Z</time></trkpt><trkpt lat="44.31787225974202" lon="11.902540548929247"><ele>23.0</ele><time>2026-04-04T08:06:45Z</time></trkpt><trkpt lat="44.317746121061234" lon="11.902461776029531"><ele>23.0</ele><time>2026-04-04T08:06:46Z</time></trkpt><trkpt lat="44.31761812721327" lon="11.902379797988939"><ele>23.0</ele><time>2026-04-04T08:06:47Z</time></trkpt><trkpt lat="44.31748785242621" lon="11.90229950165117"><ele>23.0</ele><time>2026-04-04T08:06:48Z</time></trkpt><trkpt lat="44.31735966332128" lon="11.902218537238875"><ele>23.0</ele><time>2026-04-04T08:06:49Z</time></trkpt><trkpt lat="44.317226820304604" lon="11.902133969706322"><ele>23.0</ele><time>2026-04-04T08:06:50Z</time></trkpt><trkpt lat="44.31709351665806" lon="11.902046020278505"><ele>22.333333333333336</ele><time>2026-04-04T08:06:51Z</time></trkpt><trkpt lat="44.31695883634605" lon="11.901957575009426"><ele>21.666666666666668</ele><time>2026-04-04T08:06:52Z</time></trkpt><trkpt lat="44.31682161620396" lon="11.901870223644972"><ele>21.0</ele><time>2026-04-04T08:06:53.001Z</time></trkpt><trkpt lat="44.31668491872064" lon="11.901783356133308"><ele>21.333333333333332</ele><time>2026-04-04T08:06:54.001Z</time></trkpt><trkpt lat="44.31654526824242" lon="11.901692268088285"><ele>21.666666666666664</ele><time>2026-04-04T08:06:55.001Z</time></trkpt><trkpt lat="44.31640917516104" lon="11.901602583338162"><ele>22.0</ele><time>2026-04-04T08:06:56.001Z</time></trkpt><trkpt lat="44.316271913045085" lon="11.901511905369674"><ele>22.333333333333332</ele><time>2026-04-04T08:06:57.001Z</time></trkpt><trkpt lat="44.31613517962121" lon="11.901421658837636"><ele>22.666666666666668</ele><time>2026-04-04T08:06:58.001Z</time></trkpt><trkpt lat="44.315997529603784" lon="11.901328677100228"><ele>23.0</ele><time>2026-04-04T08:06:59.001Z</time></trkpt><trkpt lat="44.31585994440167" lon="11.901236666466884"><ele>23.0</ele><time>2026-04-04T08:07:00.001Z</time></trkpt><trkpt lat="44.31572204927653" lon="11.901147013357075"><ele>23.0</ele><time>2026-04-04T08:07:01.001Z</time></trkpt><trkpt lat="44.31558431957005" lon="11.901060544488324"><ele>23.0</ele><time>2026-04-04T08:07:02.001Z</time></trkpt><trkpt lat="44.31544471421563" lon="11.900974474681004"><ele>23.0</ele><time>2026-04-04T08:07:03.001Z</time></trkpt><trkpt lat="44.31530728116715" lon="11.90088083279575"><ele>23.0</ele><time>2026-04-04T08:07:04.001Z</time></trkpt><trkpt lat="44.31517033276709" lon="11.90078931032572"><ele>23.0</ele><time>2026-04-04T08:07:05.001Z</time></trkpt><trkpt lat="44.315031913771165" lon="11.900697288158424"><ele>23.0</ele><time>2026-04-04T08:07:06.001Z</time></trkpt><trkpt lat="44.31489350062446" lon="11.900606297930816"><ele>23.0</ele><time>2026-04-04T08:07:07.001Z</time></trkpt><trkpt lat="44.314756815005" lon="11.900516866103267"><ele>23.0</ele><time>2026-04-04T08:07:08.001Z</time></trkpt><trkpt lat="44.31461999273321" lon="11.900428264012232"><ele>23.75</ele><time>2026-04-04T08:07:09.001Z</time></trkpt><trkpt lat="44.314487964337445" lon="11.900342817262343"><ele>24.5</ele><time>2026-04-04T08:07:10.001Z</time></trkpt><trkpt lat="44.31436243145348" lon="11.90026169391949"><ele>25.25</ele><time>2026-04-04T08:07:11.001Z</time></trkpt><trkpt lat="44.31424863448564" lon="11.900184219493688"><ele>26.0</ele><time>2026-04-04T08:07:12.001Z</time></trkpt><trkpt lat="44.31414419527675" lon="11.900107775132645"><ele>25.833333333333332</ele><time>2026-04-04T08:07:13.001Z</time></trkpt><trkpt lat="44.314057725877234" lon="11.900024269042303"><ele>25.666666666666664</ele><time>2026-04-04T08:07:14.001Z</time></trkpt><trkpt lat="44.31399456759758" lon="11.899931075887423"><ele>25.5</ele><time>2026-04-04T08:07:15.001Z</time></trkpt><trkpt lat="44.31394182375601" lon="11.899837389659245"><ele>25.333333333333336</ele><time>2026-04-04T08:07:16.001Z</time></trkpt><trkpt lat="44.313885350712546" lon="11.89976190528942"><ele>25.166666666666668</ele><time>2026-04-04T08:07:17.001Z</time></trkpt><trkpt lat="44.31381818247244" lon="11.899717355933475"><ele>25.0</ele><time>2026-04-04T08:07:18.001Z</time></trkpt><trkpt lat="44.31374434278219" lon="11.899721967683119"><ele>25.000000000000004</ele><time>2026-04-04T08:07:19.001Z</time></trkpt><trkpt lat="44.3136866773252" lon="11.899762011663922"><ele>25.0</ele><time>2026-04-04T08:07:20.001Z</time></trkpt><trkpt lat="44.31362367861948" lon="11.89978305743867"><ele>25.0</ele><time>2026-04-04T08:07:21.001Z</time></trkpt><trkpt lat="44.31363199860462" lon="11.899927591807321"><ele>25.0</ele><time>2026-04-04T08:07:22.001Z</time></trkpt><trkpt lat="44.313632926776236" lon="11.900029520561679"><ele>25.000000000000004</ele><time>2026-04-04T08:07:23.001Z</time></trkpt><trkpt lat="44.313658020156026" lon="11.900120290796627"><ele>25.0</ele><time>2026-04-04T08:07:24.001Z</time></trkpt><trkpt lat="44.313623622961266" lon="11.900237240015285"><ele>24.8</ele><time>2026-04-04T08:07:25.001Z</time></trkpt><trkpt lat="44.31359674053109" lon="11.900348742841492"><ele>24.6</ele><time>2026-04-04T08:07:26.001Z</time></trkpt><trkpt lat="44.31353971379231" lon="11.900443775366297"><ele>24.4</ele><time>2026-04-04T08:07:27.001Z</time></trkpt><trkpt lat="44.31349442469152" lon="11.900551719592643"><ele>24.2</ele><time>2026-04-04T08:07:28.001Z</time></trkpt><trkpt lat="44.313444667754624" lon="11.900670169666197"><ele>24.0</ele><time>2026-04-04T08:07:29.001Z</time></trkpt><trkpt lat="44.31340706192072" lon="11.9008018372114"><ele>23.799999999999997</ele><time>2026-04-04T08:07:30.001Z</time></trkpt><trkpt lat="44.31335300655713" lon="11.900923810895137"><ele>23.599999999999998</ele><time>2026-04-04T08:07:31.001Z</time></trkpt><trkpt lat="44.31329988761221" lon="11.90105174886991"><ele>23.4</ele><time>2026-04-04T08:07:32.001Z</time></trkpt><trkpt lat="44.31324855590781" lon="11.901178479833744"><ele>23.2</ele><time>2026-04-04T08:07:33.001Z</time></trkpt><trkpt lat="44.31318174201593" lon="11.90129734737489"><ele>23.0</ele><time>2026-04-04T08:07:34.001Z</time></trkpt><trkpt lat="44.31312507285004" lon="11.901432805107945"><ele>22.75</ele><time>2026-04-04T08:07:35.002Z</time></trkpt><trkpt lat="44.3130696120433" lon="11.901565374467184"><ele>22.5</ele><time>2026-04-04T08:07:36.002Z</time></trkpt><trkpt lat="44.313012725809244" lon="11.901701351060344"><ele>22.25</ele><time>2026-04-04T08:07:37.002Z</time></trkpt><trkpt lat="44.312955485094456" lon="11.901838174976596"><ele>22.0</ele><time>2026-04-04T08:07:38.002Z</time></trkpt><trkpt lat="44.31289590050812" lon="11.901980601504828"><ele>22.0</ele><time>2026-04-04T08:07:39.002Z</time></trkpt><trkpt lat="44.312835743014894" lon="11.902124397469098"><ele>22.0</ele><time>2026-04-04T08:07:40.002Z</time></trkpt><trkpt lat="44.31277357797774" lon="11.902272991814428"><ele>22.0</ele><time>2026-04-04T08:07:41.002Z</time></trkpt><trkpt lat="44.312712394511976" lon="11.902419481171082"><ele>22.0</ele><time>2026-04-04T08:07:42.002Z</time></trkpt><trkpt lat="44.31264887249698" lon="11.902571492281332"><ele>21.75</ele><time>2026-04-04T08:07:43.002Z</time></trkpt><trkpt lat="44.31258557748603" lon="11.90272288601802"><ele>21.5</ele><time>2026-04-04T08:07:44.002Z</time></trkpt><trkpt lat="44.312521983522835" lon="11.902875014123287"><ele>21.25</ele><time>2026-04-04T08:07:45.002Z</time></trkpt><trkpt lat="44.31245584324192" lon="11.90303323346086"><ele>21.0</ele><time>2026-04-04T08:07:46.002Z</time></trkpt><trkpt lat="44.312391643864295" lon="11.903186932372494"><ele>21.0</ele><time>2026-04-04T08:07:47.002Z</time></trkpt><trkpt lat="44.31232695605625" lon="11.903343008766294"><ele>21.0</ele><time>2026-04-04T08:07:48.002Z</time></trkpt><trkpt lat="44.31226177642588" lon="11.903500271816174"><ele>21.0</ele><time>2026-04-04T08:07:49.002Z</time></trkpt><trkpt lat="44.312199315578" lon="11.903650975100318"><ele>21.0</ele><time>2026-04-04T08:07:50.002Z</time></trkpt><trkpt lat="44.31213946917037" lon="11.90379537034995"><ele>21.200000000000003</ele><time>2026-04-04T08:07:51.002Z</time></trkpt><trkpt lat="44.31209275243142" lon="11.903941657681118"><ele>21.400000000000002</ele><time>2026-04-04T08:07:52.002Z</time></trkpt><trkpt lat="44.31204176897451" lon="11.904071211225268"><ele>21.6</ele><time>2026-04-04T08:07:53.002Z</time></trkpt><trkpt lat="44.31198988998456" lon="11.90418379589056"><ele>21.8</ele><time>2026-04-04T08:07:54.002Z</time></trkpt><trkpt lat="44.31193720847758" lon="11.904275510602472"><ele>22.0</ele><time>2026-04-04T08:07:55.002Z</time></trkpt><trkpt lat="44.31187556025204" lon="11.90434024104983"><ele>22.0</ele><time>2026-04-04T08:07:56.002Z</time></trkpt><trkpt lat="44.31181062889873" lon="11.904389199422184"><ele>22.0</ele><time>2026-04-04T08:07:57.002Z</time></trkpt><trkpt lat="44.31175630025418" lon="11.904445067910308"><ele>22.0</ele><time>2026-04-04T08:07:58.002Z</time></trkpt><trkpt lat="44.31171985379333" lon="11.904522105349614"><ele>22.0</ele><time>2026-04-04T08:07:58.999Z</time></trkpt><trkpt lat="44.31168547174957" lon="11.904605720437683"><ele>22.0</ele><time>2026-04-04T08:07:59.999Z</time></trkpt><trkpt lat="44.31170835759482" lon="11.90470976891073"><ele>22.0</ele><time>2026-04-04T08:08:00.999Z</time></trkpt><trkpt lat="44.31170548283614" lon="11.904815662626634"><ele>22.0</ele><time>2026-04-04T08:08:01.999Z</time></trkpt><trkpt lat="44.3116649871508" lon="11.90490797354289"><ele>22.0</ele><time>2026-04-04T08:08:02.999Z</time></trkpt><trkpt lat="44.31162366260161" lon="11.9050069046845"><ele>22.0</ele><time>2026-04-04T08:08:03.999Z</time></trkpt><trkpt lat="44.31159636545397" lon="11.905121576227051"><ele>22.0</ele><time>2026-04-04T08:08:04.999Z</time></trkpt><trkpt lat="44.31155364088922" lon="11.905222085939233"><ele>22.0</ele><time>2026-04-04T08:08:05.999Z</time></trkpt><trkpt lat="44.311523765119354" lon="11.905307359885144"><ele>22.0</ele><time>2026-04-04T08:08:06.999Z</time></trkpt><trkpt lat="44.311452855012185" lon="11.905413451679566"><ele>22.0</ele><time>2026-04-04T08:08:08.999Z</time></trkpt><trkpt lat="44.311461155907345" lon="11.905502482618767"><ele>22.0</ele><time>2026-04-04T08:08:10.999Z</time></trkpt><trkpt lat="44.311524840557304" lon="11.905523032722012"><ele>22.0</ele><time>2026-04-04T08:10:48Z</time></trkpt><trkpt lat="44.31159141374176" lon="11.905563135629517"><ele>22.0</ele><time>2026-04-04T08:10:52Z</time></trkpt><trkpt lat="44.311753857594724" lon="11.90515432770501"><ele>22.0</ele><time>2026-04-04T08:11:03.001Z</time></trkpt><trkpt lat="44.311726909994874" lon="11.905054624596012"><ele>22.0</ele><time>2026-04-04T08:11:05.001Z</time></trkpt><trkpt lat="44.31181897625003" lon="11.905006346568324"><ele>22.0</ele><time>2026-04-04T08:11:08.001Z</time></trkpt><trkpt lat="44.31174531949565" lon="11.904893008331252"><ele>22.0</ele><time>2026-04-04T08:11:09.001Z</time></trkpt><trkpt lat="44.311828958872276" lon="11.904808307169416"><ele>22.0</ele><time>2026-04-04T08:11:11.001Z</time></trkpt><trkpt lat="44.31191344619841" lon="11.904746439279583"><ele>22.0</ele><time>2026-04-04T08:11:13.001Z</time></trkpt><trkpt lat="44.31196358875337" lon="11.904623084974851"><ele>22.0</ele><time>2026-04-04T08:11:15.001Z</time></trkpt><trkpt lat="44.31195884797812" lon="11.904477993557233"><ele>22.0</ele><time>2026-04-04T08:11:17.001Z</time></trkpt><trkpt lat="44.311943627946775" lon="11.904343548254033"><ele>22.0</ele><time>2026-04-04T08:11:19.001Z</time></trkpt><trkpt lat="44.311999146081355" lon="11.904253937382515"><ele>22.0</ele><time>2026-04-04T08:11:20.001Z</time></trkpt><trkpt lat="44.31202862554112" lon="11.90417154368318"><ele>22.0</ele><time>2026-04-04T08:11:21.001Z</time></trkpt><trkpt lat="44.3120656575308" lon="11.904089505123084"><ele>22.0</ele><time>2026-04-04T08:11:22.001Z</time></trkpt><trkpt lat="44.312102710123355" lon="11.904012707468759"><ele>22.0</ele><time>2026-04-04T08:11:23.001Z</time></trkpt><trkpt lat="44.312142323934594" lon="11.903930926807428"><ele>22.0</ele><time>2026-04-04T08:11:24.001Z</time></trkpt><trkpt lat="44.31217988118615" lon="11.90384635578261"><ele>22.0</ele><time>2026-04-04T08:11:25.001Z</time></trkpt><trkpt lat="44.31221479999468" lon="11.903764882364841"><ele>22.0</ele><time>2026-04-04T08:11:26.001Z</time></trkpt><trkpt lat="44.31224896731809" lon="11.90368359968472"><ele>22.0</ele><time>2026-04-04T08:11:27.001Z</time></trkpt><trkpt lat="44.31228246114985" lon="11.903603049578539"><ele>21.857142857142858</ele><time>2026-04-04T08:11:28.001Z</time></trkpt><trkpt lat="44.31231565260227" lon="11.903521579042218"><ele>21.714285714285715</ele><time>2026-04-04T08:11:29.001Z</time></trkpt><trkpt lat="44.3123503462509" lon="11.903440516094753"><ele>21.57142857142857</ele><time>2026-04-04T08:11:30.001Z</time></trkpt><trkpt lat="44.31238255748783" lon="11.903356469448472"><ele>21.42857142857143</ele><time>2026-04-04T08:11:31.001Z</time></trkpt><trkpt lat="44.31241733912879" lon="11.903266137811963"><ele>21.285714285714285</ele><time>2026-04-04T08:11:32.002Z</time></trkpt><trkpt lat="44.31245779274998" lon="11.903168926204108"><ele>21.142857142857142</ele><time>2026-04-04T08:11:33.002Z</time></trkpt><trkpt lat="44.312500874648485" lon="11.903072467252462"><ele>21.0</ele><time>2026-04-04T08:11:34.002Z</time></trkpt><trkpt lat="44.31254285073197" lon="11.902972953613153"><ele>21.0</ele><time>2026-04-04T08:11:35.002Z</time></trkpt><trkpt lat="44.31258642667655" lon="11.90286553315256"><ele>21.0</ele><time>2026-04-04T08:11:36.002Z</time></trkpt><trkpt lat="44.3126356673304" lon="11.902754201097787"><ele>21.0</ele><time>2026-04-04T08:11:37.002Z</time></trkpt><trkpt lat="44.312685204783755" lon="11.902639469087218"><ele>21.0</ele><time>2026-04-04T08:11:38.002Z</time></trkpt><trkpt lat="44.31273278997577" lon="11.902520273269568"><ele>21.0</ele><time>2026-04-04T08:11:39.002Z</time></trkpt><trkpt lat="44.31278295210197" lon="11.90239982207339"><ele>21.200000000000003</ele><time>2026-04-04T08:11:40.002Z</time></trkpt><trkpt lat="44.312833728705165" lon="11.9022773394981"><ele>21.400000000000002</ele><time>2026-04-04T08:11:41.002Z</time></trkpt><trkpt lat="44.3128864819592" lon="11.902152720402652"><ele>21.6</ele><time>2026-04-04T08:11:42.002Z</time></trkpt><trkpt lat="44.31293908841524" lon="11.90202830268536"><ele>21.8</ele><time>2026-04-04T08:11:43.002Z</time></trkpt><trkpt lat="44.31299270320973" lon="11.901905620536022"><ele>22.0</ele><time>2026-04-04T08:11:44.002Z</time></trkpt><trkpt lat="44.313047515046584" lon="11.90178059011333"><ele>22.200000000000003</ele><time>2026-04-04T08:11:45.002Z</time></trkpt><trkpt lat="44.31310389949312" lon="11.90165366787398"><ele>22.4</ele><time>2026-04-04T08:11:46.002Z</time></trkpt><trkpt lat="44.313158164833226" lon="11.90151778492877"><ele>22.6</ele><time>2026-04-04T08:11:47.002Z</time></trkpt><trkpt lat="44.31321453395822" lon="11.901380377814837"><ele>22.799999999999997</ele><time>2026-04-04T08:11:48.002Z</time></trkpt><trkpt lat="44.31327085543714" lon="11.901240635401596"><ele>23.0</ele><time>2026-04-04T08:11:49.002Z</time></trkpt><trkpt lat="44.31332823094953" lon="11.901096589166773"><ele>23.0</ele><time>2026-04-04T08:11:50.002Z</time></trkpt><trkpt lat="44.3133868921338" lon="11.90095268070323"><ele>23.0</ele><time>2026-04-04T08:11:51.002Z</time></trkpt><trkpt lat="44.31344697637925" lon="11.900809328139875"><ele>23.0</ele><time>2026-04-04T08:11:52.002Z</time></trkpt><trkpt lat="44.313503588026514" lon="11.900674179482577"><ele>23.0</ele><time>2026-04-04T08:11:53.002Z</time></trkpt><trkpt lat="44.31355618914668" lon="11.900550307618223"><ele>23.166666666666668</ele><time>2026-04-04T08:11:54.002Z</time></trkpt><trkpt lat="44.313605385923935" lon="11.90043751407288"><ele>23.333333333333336</ele><time>2026-04-04T08:11:55.002Z</time></trkpt><trkpt lat="44.31364793587044" lon="11.900344849455585"><ele>23.5</ele><time>2026-04-04T08:11:56.002Z</time></trkpt><trkpt lat="44.31369013716792" lon="11.9002709953489"><ele>23.666666666666668</ele><time>2026-04-04T08:11:57.002Z</time></trkpt><trkpt lat="44.31377199585788" lon="11.900149818369439"><ele>23.833333333333332</ele><time>2026-04-04T08:11:59.002Z</time></trkpt><trkpt lat="44.31384090574909" lon="11.900141787571034"><ele>24.0</ele><time>2026-04-04T08:12:00.002Z</time></trkpt><trkpt lat="44.313963763235755" lon="11.900092638624926"><ele>24.4</ele><time>2026-04-04T08:12:02.002Z</time></trkpt><trkpt lat="44.31410109620985" lon="11.900164970391218"><ele>24.799999999999997</ele><time>2026-04-04T08:12:04.002Z</time></trkpt><trkpt lat="44.31416788119069" lon="11.900204291062606"><ele>25.200000000000003</ele><time>2026-04-04T08:12:05.003Z</time></trkpt><trkpt lat="44.314242888316535" lon="11.9002024924238"><ele>25.6</ele><time>2026-04-04T08:12:06.003Z</time></trkpt><trkpt lat="44.31431693066948" lon="11.900304648216316"><ele>26.0</ele><time>2026-04-04T08:12:07.003Z</time></trkpt><trkpt lat="44.314399922660094" lon="11.900362334923233"><ele>26.0</ele><time>2026-04-04T08:12:08.003Z</time></trkpt><trkpt lat="44.314486308382165" lon="11.900420912950926"><ele>26.0</ele><time>2026-04-04T08:12:09.003Z</time></trkpt><trkpt lat="44.314577098072796" lon="11.900478807315546"><ele>26.0</ele><time>2026-04-04T08:12:10.003Z</time></trkpt><trkpt lat="44.31466707489313" lon="11.90053590451796"><ele>26.0</ele><time>2026-04-04T08:12:11Z</time></trkpt><trkpt lat="44.31476119931136" lon="11.900596636139191"><ele>26.0</ele><time>2026-04-04T08:12:12Z</time></trkpt><trkpt lat="44.31485838296285" lon="11.900662793241887"><ele>25.25</ele><time>2026-04-04T08:12:13Z</time></trkpt><trkpt lat="44.314959236113" lon="11.900729729477572"><ele>24.5</ele><time>2026-04-04T08:12:14Z</time></trkpt><trkpt lat="44.315064532469016" lon="11.900794565512136"><ele>23.75</ele><time>2026-04-04T08:12:15Z</time></trkpt><trkpt lat="44.31517163183872" lon="11.900865438251783"><ele>23.0</ele><time>2026-04-04T08:12:16Z</time></trkpt><trkpt lat="44.31528348489418" lon="11.900939046057362"><ele>23.0</ele><time>2026-04-04T08:12:17Z</time></trkpt><trkpt lat="44.315398448946745" lon="11.901012235073532"><ele>23.0</ele><time>2026-04-04T08:12:18Z</time></trkpt><trkpt lat="44.31551558233937" lon="11.901086279032327"><ele>23.0</ele><time>2026-04-04T08:12:19Z</time></trkpt><trkpt lat="44.31563451122737" lon="11.901164232407206"><ele>23.0</ele><time>2026-04-04T08:12:20Z</time></trkpt><trkpt lat="44.31575332459293" lon="11.901241352237127"><ele>23.0</ele><time>2026-04-04T08:12:21Z</time></trkpt><trkpt lat="44.31587565000997" lon="11.901317838766333"><ele>23.0</ele><time>2026-04-04T08:12:22Z</time></trkpt><trkpt lat="44.315998086081265" lon="11.901398293673653"><ele>23.0</ele><time>2026-04-04T08:12:23Z</time></trkpt><trkpt lat="44.3161235480209" lon="11.901479637431374"><ele>23.0</ele><time>2026-04-04T08:12:24Z</time></trkpt><trkpt lat="44.31624872514209" lon="11.901562443531086"><ele>23.0</ele><time>2026-04-04T08:12:25Z</time></trkpt><trkpt lat="44.316378044703406" lon="11.901651023796456"><ele>23.0</ele><time>2026-04-04T08:12:26Z</time></trkpt><trkpt lat="44.31650676554967" lon="11.901737265712184"><ele>23.0</ele><time>2026-04-04T08:12:27Z</time></trkpt><trkpt lat="44.31663668851102" lon="11.901822669944059"><ele>23.0</ele><time>2026-04-04T08:12:28Z</time></trkpt><trkpt lat="44.31676267132415" lon="11.901901706158634"><ele>23.0</ele><time>2026-04-04T08:12:29Z</time></trkpt><trkpt lat="44.316892750056425" lon="11.901981924956436"><ele>23.0</ele><time>2026-04-04T08:12:30Z</time></trkpt><trkpt lat="44.31702028781455" lon="11.902061915337418"><ele>23.0</ele><time>2026-04-04T08:12:31Z</time></trkpt><trkpt lat="44.31714874353842" lon="11.902146424526697"><ele>23.0</ele><time>2026-04-04T08:12:32Z</time></trkpt><trkpt lat="44.31727832095181" lon="11.90223270241408"><ele>23.0</ele><time>2026-04-04T08:12:33Z</time></trkpt><trkpt lat="44.31740672876841" lon="11.902318131674654"><ele>23.0</ele><time>2026-04-04T08:12:34Z</time></trkpt><trkpt lat="44.31753607384252" lon="11.902404472256457"><ele>23.0</ele><time>2026-04-04T08:12:35Z</time></trkpt><trkpt lat="44.31766540052299" lon="11.902487287185217"><ele>23.0</ele><time>2026-04-04T08:12:36Z</time></trkpt><trkpt lat="44.31779353143995" lon="11.902568508326997"><ele>23.0</ele><time>2026-04-04T08:12:37Z</time></trkpt><trkpt lat="44.31791922327011" lon="11.902649947066214"><ele>23.0</ele><time>2026-04-04T08:12:38Z</time></trkpt><trkpt lat="44.31804489227547" lon="11.902728561254301"><ele>23.0</ele><time>2026-04-04T08:12:39Z</time></trkpt><trkpt lat="44.31817105463912" lon="11.902811683355912"><ele>23.0</ele><time>2026-04-04T08:12:40Z</time></trkpt><trkpt lat="44.31829759477207" lon="11.90289746362068"><ele>23.0</ele><time>2026-04-04T08:12:41Z</time></trkpt><trkpt lat="44.318416544624164" lon="11.902978348354893"><ele>23.0</ele><time>2026-04-04T08:12:42.001Z</time></trkpt><trkpt lat="44.31853146312011" lon="11.903055220825872"><ele>23.0</ele><time>2026-04-04T08:12:43.001Z</time></trkpt><trkpt lat="44.31864655903363" lon="11.90312652967603"><ele>23.0</ele><time>2026-04-04T08:12:44.001Z</time></trkpt><trkpt lat="44.31875904733114" lon="11.903194015794332"><ele>23.0</ele><time>2026-04-04T08:12:45.001Z</time></trkpt><trkpt lat="44.31887429754617" lon="11.903246857188963"><ele>23.0</ele><time>2026-04-04T08:12:46.001Z</time></trkpt><trkpt lat="44.318990452597916" lon="11.903278370527639"><ele>23.0</ele><time>2026-04-04T08:12:47.001Z</time></trkpt><trkpt lat="44.31910202974734" lon="11.903288994719627"><ele>23.0</ele><time>2026-04-04T08:12:48.001Z</time></trkpt><trkpt lat="44.31921178502193" lon="11.903297894737143"><ele>23.0</ele><time>2026-04-04T08:12:49.001Z</time></trkpt><trkpt lat="44.31931671721968" lon="11.903323535272825"><ele>23.0</ele><time>2026-04-04T08:12:50.001Z</time></trkpt><trkpt lat="44.31941189048489" lon="11.90339059926216"><ele>23.0</ele><time>2026-04-04T08:12:51.001Z</time></trkpt><trkpt lat="44.31948725181415" lon="11.903487372114451"><ele>23.0</ele><time>2026-04-04T08:12:52.001Z</time></trkpt><trkpt lat="44.31955801586617" lon="11.903593121078588"><ele>23.0</ele><time>2026-04-04T08:12:53.001Z</time></trkpt><trkpt lat="44.31964567866675" lon="11.903684685972255"><ele>23.0</ele><time>2026-04-04T08:12:54.001Z</time></trkpt><trkpt lat="44.319747821325684" lon="11.903757077373387"><ele>23.0</ele><time>2026-04-04T08:12:55.001Z</time></trkpt><trkpt lat="44.3198568427664" lon="11.903810749095408"><ele>23.0</ele><time>2026-04-04T08:12:56.001Z</time></trkpt><trkpt lat="44.31996627840377" lon="11.90380822504692"><ele>23.0</ele><time>2026-04-04T08:12:57.001Z</time></trkpt><trkpt lat="44.32007730186075" lon="11.903902837875565"><ele>23.0</ele><time>2026-04-04T08:12:58.001Z</time></trkpt><trkpt lat="44.320178846849686" lon="11.90397058867915"><ele>23.0</ele><time>2026-04-04T08:12:59.001Z</time></trkpt><trkpt lat="44.32024097849153" lon="11.904149625074172"><ele>23.0</ele><time>2026-04-04T08:13:00.001Z</time></trkpt><trkpt lat="44.32033022822119" lon="11.9042622023468"><ele>23.0</ele><time>2026-04-04T08:13:01.001Z</time></trkpt><trkpt lat="44.32043343180784" lon="11.904364758254681"><ele>22.75</ele><time>2026-04-04T08:13:02.001Z</time></trkpt><trkpt lat="44.32054715930796" lon="11.904459902506614"><ele>22.5</ele><time>2026-04-04T08:13:03.001Z</time></trkpt><trkpt lat="44.320664065921555" lon="11.904550531111838"><ele>22.25</ele><time>2026-04-04T08:13:04.001Z</time></trkpt><trkpt lat="44.320786011456335" lon="11.90463713015275"><ele>22.0</ele><time>2026-04-04T08:13:05.001Z</time></trkpt><trkpt lat="44.32090604269647" lon="11.904721804930592"><ele>22.0</ele><time>2026-04-04T08:13:06.001Z</time></trkpt><trkpt lat="44.32102420926247" lon="11.904803563908743"><ele>22.0</ele><time>2026-04-04T08:13:07.001Z</time></trkpt><trkpt lat="44.32113499277447" lon="11.904877445183581"><ele>22.0</ele><time>2026-04-04T08:13:08.001Z</time></trkpt><trkpt lat="44.32124173873198" lon="11.904947910965493"><ele>22.0</ele><time>2026-04-04T08:13:09.001Z</time></trkpt><trkpt lat="44.321340652287304" lon="11.905021177261998"><ele>22.200000000000003</ele><time>2026-04-04T08:13:10.001Z</time></trkpt><trkpt lat="44.32143375950032" lon="11.905097909505264"><ele>22.4</ele><time>2026-04-04T08:13:11.001Z</time></trkpt><trkpt lat="44.321531428400064" lon="11.905162055315122"><ele>22.6</ele><time>2026-04-04T08:13:12.001Z</time></trkpt><trkpt lat="44.32162886512106" lon="11.905222442675962"><ele>22.799999999999997</ele><time>2026-04-04T08:13:13.001Z</time></trkpt><trkpt lat="44.3217104375302" lon="11.90526957734469"><ele>23.0</ele><time>2026-04-04T08:13:14.001Z</time></trkpt><trkpt lat="44.32178272047859" lon="11.905316029988379"><ele>23.0</ele><time>2026-04-04T08:13:15.002Z</time></trkpt><trkpt lat="44.32184960287689" lon="11.90536682307635"><ele>23.0</ele><time>2026-04-04T08:13:16.002Z</time></trkpt><trkpt lat="44.32189579857371" lon="11.905438991788778"><ele>23.0</ele><time>2026-04-04T08:13:17.002Z</time></trkpt><trkpt lat="44.321871536744915" lon="11.905581562825146"><ele>23.0</ele><time>2026-04-04T08:13:19.002Z</time></trkpt><trkpt lat="44.32183929430713" lon="11.905666791514125"><ele>23.0</ele><time>2026-04-04T08:13:20.002Z</time></trkpt><trkpt lat="44.321800537446975" lon="11.905769133879765"><ele>23.0</ele><time>2026-04-04T08:13:21.002Z</time></trkpt><trkpt lat="44.32176850876571" lon="11.905894287948264"><ele>22.599999999999998</ele><time>2026-04-04T08:13:22.002Z</time></trkpt><trkpt lat="44.3217214188153" lon="11.906015461391085"><ele>22.2</ele><time>2026-04-04T08:13:23.002Z</time></trkpt><trkpt lat="44.32166537517541" lon="11.906149161038371"><ele>21.8</ele><time>2026-04-04T08:13:24.002Z</time></trkpt><trkpt lat="44.32160218886733" lon="11.90629029216002"><ele>21.4</ele><time>2026-04-04T08:13:25.002Z</time></trkpt><trkpt lat="44.321515722787254" lon="11.906402769083611"><ele>21.0</ele><time>2026-04-04T08:13:26.002Z</time></trkpt><trkpt lat="44.321431511459956" lon="11.906527470801258"><ele>21.0</ele><time>2026-04-04T08:13:27.002Z</time></trkpt><trkpt lat="44.32134473198029" lon="11.906657105207081"><ele>21.0</ele><time>2026-04-04T08:13:28.002Z</time></trkpt><trkpt lat="44.32125621568165" lon="11.906789240716126"><ele>21.0</ele><time>2026-04-04T08:13:29.002Z</time></trkpt><trkpt lat="44.32116280435332" lon="11.90691839585512"><ele>21.0</ele><time>2026-04-04T08:13:30.002Z</time></trkpt><trkpt lat="44.321064935908794" lon="11.907041005234609"><ele>21.0</ele><time>2026-04-04T08:13:31.002Z</time></trkpt><trkpt lat="44.32096028617509" lon="11.907162135346402"><ele>21.0</ele><time>2026-04-04T08:13:32.002Z</time></trkpt><trkpt lat="44.32085427494222" lon="11.907278683094564"><ele>21.0</ele><time>2026-04-04T08:13:33.002Z</time></trkpt><trkpt lat="44.3207535551331" lon="11.907404066427187"><ele>21.0</ele><time>2026-04-04T08:13:34.002Z</time></trkpt><trkpt lat="44.320634316025014" lon="11.90747907538803"><ele>21.25</ele><time>2026-04-04T08:13:35.002Z</time></trkpt><trkpt lat="44.32051666721558" lon="11.907553563671287"><ele>21.5</ele><time>2026-04-04T08:13:36.002Z</time></trkpt><trkpt lat="44.320394235172216" lon="11.907614409739757"><ele>21.75</ele><time>2026-04-04T08:13:37.002Z</time></trkpt><trkpt lat="44.32027353368819" lon="11.907679622472847"><ele>22.0</ele><time>2026-04-04T08:13:38.002Z</time></trkpt><trkpt lat="44.32015016163684" lon="11.907755149873461"><ele>22.0</ele><time>2026-04-04T08:13:39.002Z</time></trkpt><trkpt lat="44.32003469087188" lon="11.90784046818955"><ele>22.0</ele><time>2026-04-04T08:13:40.002Z</time></trkpt><trkpt lat="44.31991762585329" lon="11.907922953415506"><ele>22.0</ele><time>2026-04-04T08:13:41.002Z</time></trkpt><trkpt lat="44.31979713353237" lon="11.908006500120269"><ele>22.0</ele><time>2026-04-04T08:13:42.002Z</time></trkpt><trkpt lat="44.31967322378632" lon="11.90808628883489"><ele>22.25</ele><time>2026-04-04T08:13:43.002Z</time></trkpt><trkpt lat="44.31954916426619" lon="11.908164332727344"><ele>22.5</ele><time>2026-04-04T08:13:44.002Z</time></trkpt><trkpt lat="44.31943118934741" lon="11.908240195710471"><ele>22.75</ele><time>2026-04-04T08:13:45.002Z</time></trkpt><trkpt lat="44.319323130886794" lon="11.90833706034078"><ele>23.0</ele><time>2026-04-04T08:13:46.002Z</time></trkpt><trkpt lat="44.319200969759024" lon="11.908402358871573"><ele>22.75</ele><time>2026-04-04T08:13:47.002Z</time></trkpt><trkpt lat="44.31907614504497" lon="11.90851520726171"><ele>22.5</ele><time>2026-04-04T08:13:48.003Z</time></trkpt><trkpt lat="44.31897417542094" lon="11.908626037419712"><ele>22.25</ele><time>2026-04-04T08:13:49.003Z</time></trkpt><trkpt lat="44.318876552604685" lon="11.908741189233645"><ele>22.0</ele><time>2026-04-04T08:13:50.003Z</time></trkpt><trkpt lat="44.31878369539747" lon="11.908863700840929"><ele>21.75</ele><time>2026-04-04T08:13:51.003Z</time></trkpt><trkpt lat="44.3186958108677" lon="11.908988912745253"><ele>21.5</ele><time>2026-04-04T08:13:52.003Z</time></trkpt><trkpt lat="44.31861870742207" lon="11.909136265287355"><ele>21.25</ele><time>2026-04-04T08:13:53.003Z</time></trkpt><trkpt lat="44.318559885250004" lon="11.909293628353504"><ele>21.0</ele><time>2026-04-04T08:13:54.003Z</time></trkpt><trkpt lat="44.31852401114388" lon="11.909465918528268"><ele>21.0</ele><time>2026-04-04T08:13:55.003Z</time></trkpt><trkpt lat="44.31847650246134" lon="11.909627646311995"><ele>21.0</ele><time>2026-04-04T08:13:56.003Z</time></trkpt><trkpt lat="44.31842815012783" lon="11.909790243528729"><ele>21.0</ele><time>2026-04-04T08:13:57.003Z</time></trkpt><trkpt lat="44.318370861711585" lon="11.909953018252425"><ele>21.0</ele><time>2026-04-04T08:13:58.003Z</time></trkpt><trkpt lat="44.318319843378596" lon="11.910121114321566"><ele>21.0</ele><time>2026-04-04T08:13:59.003Z</time></trkpt><trkpt lat="44.31826846686093" lon="11.91028500118147"><ele>21.0</ele><time>2026-04-04T08:14:00.003Z</time></trkpt><trkpt lat="44.3182141724725" lon="11.91045281067974"><ele>21.0</ele><time>2026-04-04T08:14:01.003Z</time></trkpt><trkpt lat="44.31816250604138" lon="11.910614463088942"><ele>21.0</ele><time>2026-04-04T08:14:02.003Z</time></trkpt><trkpt lat="44.31811374977275" lon="11.910765075060391"><ele>21.0</ele><time>2026-04-04T08:14:03.003Z</time></trkpt><trkpt lat="44.318070720239525" lon="11.910906498054505"><ele>21.0</ele><time>2026-04-04T08:14:04.003Z</time></trkpt><trkpt lat="44.318030874070075" lon="11.911031827015098"><ele>21.0</ele><time>2026-04-04T08:14:05.003Z</time></trkpt><trkpt lat="44.31799289279359" lon="11.911152355837299"><ele>21.0</ele><time>2026-04-04T08:14:06.003Z</time></trkpt><trkpt lat="44.31795826222609" lon="11.91126765321382"><ele>21.0</ele><time>2026-04-04T08:14:07.003Z</time></trkpt><trkpt lat="44.31792253240547" lon="11.911385393838547"><ele>21.0</ele><time>2026-04-04T08:14:08.003Z</time></trkpt><trkpt lat="44.317880621737906" lon="11.911510944016982"><ele>21.0</ele><time>2026-04-04T08:14:09.003Z</time></trkpt><trkpt lat="44.31783478723642" lon="11.91164599630015"><ele>21.0</ele><time>2026-04-04T08:14:10.003Z</time></trkpt><trkpt lat="44.31779085195834" lon="11.911782023373929"><ele>21.0</ele><time>2026-04-04T08:14:11.003Z</time></trkpt><trkpt lat="44.3177508900091" lon="11.91191648299689"><ele>21.0</ele><time>2026-04-04T08:14:12.003Z</time></trkpt><trkpt lat="44.31771103038434" lon="11.91204770957413"><ele>21.0</ele><time>2026-04-04T08:14:13.003Z</time></trkpt><trkpt lat="44.31767118681693" lon="11.912167286212975"><ele>21.0</ele><time>2026-04-04T08:14:14.003Z</time></trkpt><trkpt lat="44.31763556844535" lon="11.912269758497427"><ele>21.0</ele><time>2026-04-04T08:14:15.003Z</time></trkpt><trkpt lat="44.31760630627836" lon="11.912362514778838"><ele>21.0</ele><time>2026-04-04T08:14:16.003Z</time></trkpt><trkpt lat="44.31757162816401" lon="11.912438370566168"><ele>21.0</ele><time>2026-04-04T08:14:17Z</time></trkpt><trkpt lat="44.31764723147951" lon="11.91259682858475"><ele>21.0</ele><time>2026-04-04T08:14:19Z</time></trkpt><trkpt lat="44.317709421976836" lon="11.912643398018245"><ele>21.0</ele><time>2026-04-04T08:14:20Z</time></trkpt><trkpt lat="44.3177851984465" lon="11.912688052983787"><ele>21.0</ele><time>2026-04-04T08:14:21Z</time></trkpt><trkpt lat="44.31786132270066" lon="11.912747957189028"><ele>21.0</ele><time>2026-04-04T08:14:22Z</time></trkpt><trkpt lat="44.31794382551523" lon="11.912811317696262"><ele>21.0</ele><time>2026-04-04T08:14:23Z</time></trkpt><trkpt lat="44.31803047574147" lon="11.912884610353878"><ele>21.0</ele><time>2026-04-04T08:14:24Z</time></trkpt><trkpt lat="44.318114543788106" lon="11.912967419679813"><ele>20.8</ele><time>2026-04-04T08:14:25Z</time></trkpt><trkpt lat="44.31819807642179" lon="11.913060993774218"><ele>20.6</ele><time>2026-04-04T08:14:26Z</time></trkpt><trkpt lat="44.31828476515897" lon="11.913163482946073"><ele>20.4</ele><time>2026-04-04T08:14:27Z</time></trkpt><trkpt lat="44.318367877007084" lon="11.91326690273168"><ele>20.2</ele><time>2026-04-04T08:14:28Z</time></trkpt><trkpt lat="44.31844676306305" lon="11.913371433824954"><ele>20.0</ele><time>2026-04-04T08:14:29Z</time></trkpt><trkpt lat="44.31852366630925" lon="11.913476920938765"><ele>20.0</ele><time>2026-04-04T08:14:30Z</time></trkpt><trkpt lat="44.31859352344844" lon="11.913574607838944"><ele>20.0</ele><time>2026-04-04T08:14:31Z</time></trkpt><trkpt lat="44.318654833112504" lon="11.913677076072558"><ele>20.0</ele><time>2026-04-04T08:14:32Z</time></trkpt><trkpt lat="44.31870342227087" lon="11.913798868526797"><ele>20.0</ele><time>2026-04-04T08:14:33Z</time></trkpt><trkpt lat="44.31873483974512" lon="11.913926449201071"><ele>20.0</ele><time>2026-04-04T08:14:34Z</time></trkpt><trkpt lat="44.318759971297105" lon="11.914053331096513"><ele>20.0</ele><time>2026-04-04T08:14:35Z</time></trkpt><trkpt lat="44.31877600925592" lon="11.914178010554417"><ele>20.0</ele><time>2026-04-04T08:14:36Z</time></trkpt><trkpt lat="44.31880659126354" lon="11.914290151764307"><ele>20.0</ele><time>2026-04-04T08:14:37Z</time></trkpt><trkpt lat="44.31886202380702" lon="11.914390586500753"><ele>20.0</ele><time>2026-04-04T08:14:38Z</time></trkpt><trkpt lat="44.31893995306473" lon="11.914467103845157"><ele>20.0</ele><time>2026-04-04T08:14:39Z</time></trkpt><trkpt lat="44.319025043361414" lon="11.914531817272985"><ele>19.75</ele><time>2026-04-04T08:14:40Z</time></trkpt><trkpt lat="44.319115699399646" lon="11.914602443676886"><ele>19.5</ele><time>2026-04-04T08:14:41Z</time></trkpt><trkpt lat="44.31921041624111" lon="11.914675834273197"><ele>19.25</ele><time>2026-04-04T08:14:42Z</time></trkpt><trkpt lat="44.3193097799384" lon="11.914748615761658"><ele>19.0</ele><time>2026-04-04T08:14:43Z</time></trkpt><trkpt lat="44.31942170763612" lon="11.914834855266605"><ele>19.0</ele><time>2026-04-04T08:14:44Z</time></trkpt><trkpt lat="44.31953368861859" lon="11.914919080391552"><ele>19.0</ele><time>2026-04-04T08:14:45Z</time></trkpt><trkpt lat="44.31964332189224" lon="11.915002490008186"><ele>19.0</ele><time>2026-04-04T08:14:46Z</time></trkpt><trkpt lat="44.31974075630112" lon="11.915073840809583"><ele>19.0</ele><time>2026-04-04T08:14:47.001Z</time></trkpt><trkpt lat="44.31983234953488" lon="11.915136052638179"><ele>19.333333333333332</ele><time>2026-04-04T08:14:48.001Z</time></trkpt><trkpt lat="44.319902896174156" lon="11.915196676412679"><ele>19.666666666666664</ele><time>2026-04-04T08:14:49.001Z</time></trkpt><trkpt lat="44.31995060197003" lon="11.915274049526985"><ele>20.0</ele><time>2026-04-04T08:14:50.001Z</time></trkpt><trkpt lat="44.31997531901606" lon="11.915366636982434"><ele>20.333333333333332</ele><time>2026-04-04T08:14:51.001Z</time></trkpt><trkpt lat="44.319945049726286" lon="11.915453201415604"><ele>20.666666666666668</ele><time>2026-04-04T08:14:52.001Z</time></trkpt><trkpt lat="44.319905360853355" lon="11.915548601120877"><ele>21.0</ele><time>2026-04-04T08:14:53.001Z</time></trkpt><trkpt lat="44.319859810888104" lon="11.9156621715473"><ele>21.0</ele><time>2026-04-04T08:14:54.001Z</time></trkpt><trkpt lat="44.31980739461596" lon="11.915784993587348"><ele>21.0</ele><time>2026-04-04T08:14:55.001Z</time></trkpt><trkpt lat="44.319748908869975" lon="11.915915677729183"><ele>21.0</ele><time>2026-04-04T08:14:56.001Z</time></trkpt><trkpt lat="44.31970177498483" lon="11.916059108045593"><ele>21.0</ele><time>2026-04-04T08:14:57.001Z</time></trkpt><trkpt lat="44.319637601161396" lon="11.916188617895758"><ele>21.0</ele><time>2026-04-04T08:14:58.001Z</time></trkpt><trkpt lat="44.319580834109736" lon="11.916321572017274"><ele>21.0</ele><time>2026-04-04T08:14:59.001Z</time></trkpt><trkpt lat="44.319544396608954" lon="11.916453237355693"><ele>21.0</ele><time>2026-04-04T08:15:00.001Z</time></trkpt><trkpt lat="44.319537717103884" lon="11.916586990992087"><ele>21.0</ele><time>2026-04-04T08:15:01.001Z</time></trkpt><trkpt lat="44.31956783803023" lon="11.916717778499526"><ele>21.0</ele><time>2026-04-04T08:15:02.001Z</time></trkpt><trkpt lat="44.31962480165745" lon="11.916836880336295"><ele>21.0</ele><time>2026-04-04T08:15:03.001Z</time></trkpt><trkpt lat="44.31969250621204" lon="11.91695664507219"><ele>20.6</ele><time>2026-04-04T08:15:04.001Z</time></trkpt><trkpt lat="44.319757256768526" lon="11.91707941917147"><ele>20.200000000000003</ele><time>2026-04-04T08:15:05.001Z</time></trkpt><trkpt lat="44.31982498815817" lon="11.917194431915636"><ele>19.799999999999997</ele><time>2026-04-04T08:15:06.001Z</time></trkpt><trkpt lat="44.31989216230202" lon="11.917298230170474"><ele>19.4</ele><time>2026-04-04T08:15:07.001Z</time></trkpt><trkpt lat="44.31992919627604" lon="11.917413542915044"><ele>19.0</ele><time>2026-04-04T08:15:08.001Z</time></trkpt><trkpt lat="44.319936515005715" lon="11.917546783903363"><ele>19.2</ele><time>2026-04-04T08:15:09.001Z</time></trkpt><trkpt lat="44.31988664702508" lon="11.917677657117757"><ele>19.4</ele><time>2026-04-04T08:15:10.001Z</time></trkpt><trkpt lat="44.31982817555392" lon="11.917804972401443"><ele>19.6</ele><time>2026-04-04T08:15:11.001Z</time></trkpt><trkpt lat="44.31977932485313" lon="11.917944557683128"><ele>19.8</ele><time>2026-04-04T08:15:12.001Z</time></trkpt><trkpt lat="44.319711380775" lon="11.91806984670369"><ele>20.0</ele><time>2026-04-04T08:15:13.001Z</time></trkpt><trkpt lat="44.3196156264776" lon="11.91815766833354"><ele>19.5</ele><time>2026-04-04T08:15:14.001Z</time></trkpt><trkpt lat="44.3195093139199" lon="11.918226461384315"><ele>19.0</ele><time>2026-04-04T08:15:15.001Z</time></trkpt><trkpt lat="44.3193930408925" lon="11.918286553305897"><ele>18.5</ele><time>2026-04-04T08:15:16.001Z</time></trkpt><trkpt lat="44.31927520192028" lon="11.918339559886931"><ele>18.0</ele><time>2026-04-04T08:15:17.001Z</time></trkpt><trkpt lat="44.319157514746685" lon="11.918399113493269"><ele>18.25</ele><time>2026-04-04T08:15:18.001Z</time></trkpt><trkpt lat="44.31904448667959" lon="11.91847426178718"><ele>18.5</ele><time>2026-04-04T08:15:19.001Z</time></trkpt><trkpt lat="44.318944204621125" lon="11.918593947821028"><ele>18.75</ele><time>2026-04-04T08:15:20.002Z</time></trkpt><trkpt lat="44.31887145760076" lon="11.918739321801866"><ele>19.0</ele><time>2026-04-04T08:15:21.002Z</time></trkpt><trkpt lat="44.318823685580526" lon="11.918905524433944"><ele>19.0</ele><time>2026-04-04T08:15:22.002Z</time></trkpt><trkpt lat="44.31876160881935" lon="11.919066524446565"><ele>19.0</ele><time>2026-04-04T08:15:23.002Z</time></trkpt><trkpt lat="44.31868500387804" lon="11.919213819401175"><ele>19.0</ele><time>2026-04-04T08:15:24.002Z</time></trkpt><trkpt lat="44.3186216219418" lon="11.919374532851887"><ele>19.0</ele><time>2026-04-04T08:15:25.002Z</time></trkpt><trkpt lat="44.31855603620723" lon="11.919539232012447"><ele>18.75</ele><time>2026-04-04T08:15:26.002Z</time></trkpt><trkpt lat="44.318485362640146" lon="11.919711378752831"><ele>18.5</ele><time>2026-04-04T08:15:27.002Z</time></trkpt><trkpt lat="44.31841324882671" lon="11.91988703374274"><ele>18.25</ele><time>2026-04-04T08:15:28.002Z</time></trkpt><trkpt lat="44.318338955473045" lon="11.92006799737179"><ele>18.0</ele><time>2026-04-04T08:15:29.002Z</time></trkpt><trkpt lat="44.31826493989761" lon="11.920249159511876"><ele>18.0</ele><time>2026-04-04T08:15:30.002Z</time></trkpt><trkpt lat="44.31818875223772" lon="11.920436468340291"><ele>18.0</ele><time>2026-04-04T08:15:31.002Z</time></trkpt><trkpt lat="44.31811141717955" lon="11.92062659833992"><ele>18.0</ele><time>2026-04-04T08:15:32.002Z</time></trkpt><trkpt lat="44.31803617904485" lon="11.920811572461375"><ele>18.0</ele><time>2026-04-04T08:15:33.002Z</time></trkpt><trkpt lat="44.31795927138714" lon="11.921001034579099"><ele>18.0</ele><time>2026-04-04T08:15:34.002Z</time></trkpt><trkpt lat="44.31788129272037" lon="11.921195669723518"><ele>18.0</ele><time>2026-04-04T08:15:35.002Z</time></trkpt><trkpt lat="44.31780302995362" lon="11.921391013612878"><ele>18.0</ele><time>2026-04-04T08:15:36.002Z</time></trkpt><trkpt lat="44.31772401959222" lon="11.921588223768314"><ele>18.0</ele><time>2026-04-04T08:15:37.002Z</time></trkpt><trkpt lat="44.3176454622453" lon="11.921784303114881"><ele>18.0</ele><time>2026-04-04T08:15:38.002Z</time></trkpt><trkpt lat="44.317566248351966" lon="11.921982021033783"><ele>18.0</ele><time>2026-04-04T08:15:39.002Z</time></trkpt><trkpt lat="44.31748669373714" lon="11.92217880378389"><ele>18.0</ele><time>2026-04-04T08:15:40.002Z</time></trkpt><trkpt lat="44.31740834369508" lon="11.922372369995069"><ele>18.0</ele><time>2026-04-04T08:15:41.002Z</time></trkpt><trkpt lat="44.31733139177256" lon="11.922562476949551"><ele>18.25</ele><time>2026-04-04T08:15:42.002Z</time></trkpt><trkpt lat="44.31725740980965" lon="11.92274769107805"><ele>18.5</ele><time>2026-04-04T08:15:43.002Z</time></trkpt><trkpt lat="44.317183648361286" lon="11.922931562673527"><ele>18.75</ele><time>2026-04-04T08:15:44.002Z</time></trkpt><trkpt lat="44.31711189620594" lon="11.923110425801315"><ele>19.0</ele><time>2026-04-04T08:15:45.002Z</time></trkpt><trkpt lat="44.317040204599905" lon="11.92328913770212"><ele>18.75</ele><time>2026-04-04T08:15:46.002Z</time></trkpt><trkpt lat="44.316969901643084" lon="11.923465654522653"><ele>18.5</ele><time>2026-04-04T08:15:47.002Z</time></trkpt><trkpt lat="44.31690078588096" lon="11.923640929354358"><ele>18.25</ele><time>2026-04-04T08:15:48.002Z</time></trkpt><trkpt lat="44.31683260513309" lon="11.92381383296134"><ele>18.0</ele><time>2026-04-04T08:15:49.002Z</time></trkpt><trkpt lat="44.31676675604444" lon="11.923980823597235"><ele>18.0</ele><time>2026-04-04T08:15:50.002Z</time></trkpt><trkpt lat="44.31669897925362" lon="11.924152702690067"><ele>18.0</ele><time>2026-04-04T08:15:51.002Z</time></trkpt><trkpt lat="44.31663202532388" lon="11.924322495170834"><ele>18.0</ele><time>2026-04-04T08:15:52.002Z</time></trkpt><trkpt lat="44.31656411081909" lon="11.924495499746202"><ele>18.0</ele><time>2026-04-04T08:15:53.002Z</time></trkpt><trkpt lat="44.316495079939195" lon="11.924671847837718"><ele>18.25</ele><time>2026-04-04T08:15:54.003Z</time></trkpt><trkpt lat="44.31642735808466" lon="11.924844851792603"><ele>18.5</ele><time>2026-04-04T08:15:55.003Z</time></trkpt><trkpt lat="44.31636198851707" lon="11.925011677073945"><ele>18.75</ele><time>2026-04-04T08:15:56.003Z</time></trkpt><trkpt lat="44.31629838868899" lon="11.925171913387517"><ele>19.0</ele><time>2026-04-04T08:15:57.003Z</time></trkpt><trkpt lat="44.316236271683934" lon="11.925328413995105"><ele>19.0</ele><time>2026-04-04T08:15:58.003Z</time></trkpt><trkpt lat="44.316179583563816" lon="11.925479398347798"><ele>19.0</ele><time>2026-04-04T08:15:59.003Z</time></trkpt><trkpt lat="44.316141440491286" lon="11.925626645512436"><ele>19.0</ele><time>2026-04-04T08:16:00.003Z</time></trkpt><trkpt lat="44.316073997331806" lon="11.925743888166913"><ele>19.0</ele><time>2026-04-04T08:16:01.003Z</time></trkpt><trkpt lat="44.31599095755594" lon="11.925834911168197"><ele>19.0</ele><time>2026-04-04T08:16:02.003Z</time></trkpt><trkpt lat="44.3159198009706" lon="11.925941238898018"><ele>19.2</ele><time>2026-04-04T08:16:03.003Z</time></trkpt><trkpt lat="44.31584895300664" lon="11.926042758225258"><ele>19.4</ele><time>2026-04-04T08:16:04.003Z</time></trkpt><trkpt lat="44.31577733056779" lon="11.92614632003846"><ele>19.6</ele><time>2026-04-04T08:16:05.003Z</time></trkpt><trkpt lat="44.31570610674541" lon="11.926249305591913"><ele>19.8</ele><time>2026-04-04T08:16:06.003Z</time></trkpt><trkpt lat="44.31563357528854" lon="11.926354181697498"><ele>20.0</ele><time>2026-04-04T08:16:07.003Z</time></trkpt><trkpt lat="44.315561274811245" lon="11.926459450908489"><ele>20.0</ele><time>2026-04-04T08:16:08.003Z</time></trkpt><trkpt lat="44.315497763558575" lon="11.926583344020566"><ele>20.0</ele><time>2026-04-04T08:16:09.003Z</time></trkpt><trkpt lat="44.31541331035526" lon="11.926674913296734"><ele>20.0</ele><time>2026-04-04T08:16:10.003Z</time></trkpt><trkpt lat="44.3153382116216" lon="11.926784270334045"><ele>20.0</ele><time>2026-04-04T08:16:11.003Z</time></trkpt><trkpt lat="44.31526573546246" lon="11.92688980835657"><ele>20.0</ele><time>2026-04-04T08:16:12.003Z</time></trkpt><trkpt lat="44.31519189569617" lon="11.926997328926952"><ele>19.6</ele><time>2026-04-04T08:16:13.003Z</time></trkpt><trkpt lat="44.31511825407207" lon="11.927104522432256"><ele>19.2</ele><time>2026-04-04T08:16:14.003Z</time></trkpt><trkpt lat="44.31504692584389" lon="11.927208348494133"><ele>18.8</ele><time>2026-04-04T08:16:15.003Z</time></trkpt><trkpt lat="44.31497528744286" lon="11.927312866221351"><ele>18.4</ele><time>2026-04-04T08:16:16.003Z</time></trkpt><trkpt lat="44.31490330074" lon="11.927417938482403"><ele>18.0</ele><time>2026-04-04T08:16:17.003Z</time></trkpt><trkpt lat="44.314832609812896" lon="11.927521119396115"><ele>18.2</ele><time>2026-04-04T08:16:18.003Z</time></trkpt><trkpt lat="44.31476098025296" lon="11.927624156456604"><ele>18.4</ele><time>2026-04-04T08:16:19.003Z</time></trkpt><trkpt lat="44.31469463801131" lon="11.927718165485114"><ele>18.599999999999998</ele><time>2026-04-04T08:16:20.003Z</time></trkpt><trkpt lat="44.31462765019092" lon="11.927813089500747"><ele>18.8</ele><time>2026-04-04T08:16:21.003Z</time></trkpt><trkpt lat="44.31457428595849" lon="11.927888708323742"><ele>19.0</ele><time>2026-04-04T08:16:22.003Z</time></trkpt><trkpt lat="44.31450788298764" lon="11.927982803449083"><ele>19.166666666666664</ele><time>2026-04-04T08:16:24Z</time></trkpt><trkpt lat="44.31444697948129" lon="11.928029693108533"><ele>19.333333333333332</ele><time>2026-04-04T08:16:27Z</time></trkpt><trkpt lat="44.31441581633351" lon="11.927916624744414"><ele>19.5</ele><time>2026-04-04T08:16:28Z</time></trkpt><trkpt lat="44.3143676202813" lon="11.927809141669595"><ele>19.666666666666668</ele><time>2026-04-04T08:16:30Z</time></trkpt><trkpt lat="44.314332352735896" lon="11.92773049080036"><ele>19.833333333333336</ele><time>2026-04-04T08:16:33Z</time></trkpt><trkpt lat="44.31420650462543" lon="11.927767160525326"><ele>20.0</ele><time>2026-04-04T08:16:39Z</time></trkpt><trkpt lat="44.314174246066614" lon="11.92786155658243"><ele>20.0</ele><time>2026-04-04T08:16:40Z</time></trkpt><trkpt lat="44.314117755980405" lon="11.927931885667896"><ele>20.0</ele><time>2026-04-04T08:16:41Z</time></trkpt><trkpt lat="44.314070956809246" lon="11.928021580894896"><ele>20.0</ele><time>2026-04-04T08:16:42Z</time></trkpt><trkpt lat="44.314020412541716" lon="11.928118696039023"><ele>20.0</ele><time>2026-04-04T08:16:43Z</time></trkpt><trkpt lat="44.313964125232744" lon="11.92822832547469"><ele>20.0</ele><time>2026-04-04T08:16:44Z</time></trkpt><trkpt lat="44.313903588760596" lon="11.928346230989593"><ele>20.0</ele><time>2026-04-04T08:16:45Z</time></trkpt><trkpt lat="44.31384006676333" lon="11.928469951324024"><ele>20.25</ele><time>2026-04-04T08:16:46Z</time></trkpt><trkpt lat="44.31377376174398" lon="11.928597897813368"><ele>20.5</ele><time>2026-04-04T08:16:47Z</time></trkpt><trkpt lat="44.313702425216334" lon="11.928734236462512"><ele>20.75</ele><time>2026-04-04T08:16:48Z</time></trkpt><trkpt lat="44.313629790261544" lon="11.92887305638233"><ele>21.0</ele><time>2026-04-04T08:16:49Z</time></trkpt><trkpt lat="44.31355646376951" lon="11.929013197999922"><ele>21.0</ele><time>2026-04-04T08:16:50Z</time></trkpt><trkpt lat="44.31348233949836" lon="11.92915486453113"><ele>21.0</ele><time>2026-04-04T08:16:51Z</time></trkpt><trkpt lat="44.31340903263344" lon="11.929299935236454"><ele>21.0</ele><time>2026-04-04T08:16:52.001Z</time></trkpt><trkpt lat="44.31333716711801" lon="11.929448473115386"><ele>21.0</ele><time>2026-04-04T08:16:53.001Z</time></trkpt><trkpt lat="44.31328178746591" lon="11.929610324257224"><ele>21.0</ele><time>2026-04-04T08:16:54.001Z</time></trkpt><trkpt lat="44.31321150989757" lon="11.929766210888443"><ele>21.0</ele><time>2026-04-04T08:16:55.001Z</time></trkpt><trkpt lat="44.313126868903296" lon="11.929915375146237"><ele>21.0</ele><time>2026-04-04T08:16:56.001Z</time></trkpt><trkpt lat="44.313056816093265" lon="11.930083706396642"><ele>21.0</ele><time>2026-04-04T08:16:57.001Z</time></trkpt><trkpt lat="44.31299001413061" lon="11.930254435583125"><ele>21.0</ele><time>2026-04-04T08:16:58.001Z</time></trkpt><trkpt lat="44.312938986000844" lon="11.930438014540222"><ele>21.0</ele><time>2026-04-04T08:16:59.001Z</time></trkpt><trkpt lat="44.312873183362164" lon="11.930611231181123"><ele>21.0</ele><time>2026-04-04T08:17:00.001Z</time></trkpt><trkpt lat="44.312814611073186" lon="11.93079451354448"><ele>21.0</ele><time>2026-04-04T08:17:01.001Z</time></trkpt><trkpt lat="44.312754110481784" lon="11.930974158062156"><ele>20.75</ele><time>2026-04-04T08:17:02.001Z</time></trkpt><trkpt lat="44.3126969392695" lon="11.931155301777824"><ele>20.5</ele><time>2026-04-04T08:17:03.001Z</time></trkpt><trkpt lat="44.31264262667809" lon="11.931336764855754"><ele>20.25</ele><time>2026-04-04T08:17:04.001Z</time></trkpt><trkpt lat="44.312593761024395" lon="11.931521994837036"><ele>20.0</ele><time>2026-04-04T08:17:05.001Z</time></trkpt><trkpt lat="44.31254830362939" lon="11.931709439531733"><ele>19.75</ele><time>2026-04-04T08:17:06.001Z</time></trkpt><trkpt lat="44.312488091038624" lon="11.93188467835163"><ele>19.5</ele><time>2026-04-04T08:17:07.001Z</time></trkpt><trkpt lat="44.31243931038117" lon="11.93206339661211"><ele>19.25</ele><time>2026-04-04T08:17:08.001Z</time></trkpt><trkpt lat="44.31238985189994" lon="11.932244598135863"><ele>19.0</ele><time>2026-04-04T08:17:09.001Z</time></trkpt><trkpt lat="44.31233964198896" lon="11.932428552825392"><ele>19.5</ele><time>2026-04-04T08:17:10.001Z</time></trkpt><trkpt lat="44.31228870838008" lon="11.932610150815732"><ele>20.0</ele><time>2026-04-04T08:17:11.001Z</time></trkpt><trkpt lat="44.312232717770236" lon="11.932797904089798"><ele>20.5</ele><time>2026-04-04T08:17:12.001Z</time></trkpt><trkpt lat="44.31217768269475" lon="11.932982895751671"><ele>21.0</ele><time>2026-04-04T08:17:13.001Z</time></trkpt><trkpt lat="44.31212395824161" lon="11.933175109405699"><ele>21.25</ele><time>2026-04-04T08:17:14.001Z</time></trkpt><trkpt lat="44.31208466424646" lon="11.933377102061282"><ele>21.5</ele><time>2026-04-04T08:17:15.001Z</time></trkpt><trkpt lat="44.3120239398767" lon="11.933565457327056"><ele>21.75</ele><time>2026-04-04T08:17:16.001Z</time></trkpt><trkpt lat="44.31197895639273" lon="11.93376143456786"><ele>22.0</ele><time>2026-04-04T08:17:17.001Z</time></trkpt><trkpt lat="44.31193526023758" lon="11.933956588653972"><ele>22.0</ele><time>2026-04-04T08:17:18.001Z</time></trkpt><trkpt lat="44.311892765492026" lon="11.934147968938944"><ele>22.0</ele><time>2026-04-04T08:17:19.001Z</time></trkpt><trkpt lat="44.311850684294896" lon="11.934340428544653"><ele>22.0</ele><time>2026-04-04T08:17:20.001Z</time></trkpt><trkpt lat="44.31181920065347" lon="11.934537995905144"><ele>22.0</ele><time>2026-04-04T08:17:21.001Z</time></trkpt><trkpt lat="44.31176882960126" lon="11.934728600947924"><ele>21.75</ele><time>2026-04-04T08:17:22.001Z</time></trkpt><trkpt lat="44.311689913017226" lon="11.934900394297628"><ele>21.5</ele><time>2026-04-04T08:17:23.001Z</time></trkpt><trkpt lat="44.31161534167645" lon="11.935068975707027"><ele>21.25</ele><time>2026-04-04T08:17:24.001Z</time></trkpt><trkpt lat="44.311535403827" lon="11.935236293294983"><ele>21.0</ele><time>2026-04-04T08:17:25.001Z</time></trkpt><trkpt lat="44.311451619691084" lon="11.935404853577865"><ele>20.75</ele><time>2026-04-04T08:17:26.001Z</time></trkpt><trkpt lat="44.31137047744307" lon="11.935574651918111"><ele>20.5</ele><time>2026-04-04T08:17:27.002Z</time></trkpt><trkpt lat="44.311291730782216" lon="11.935745768233119"><ele>20.25</ele><time>2026-04-04T08:17:28.002Z</time></trkpt><trkpt lat="44.31121693729902" lon="11.935923350464487"><ele>20.0</ele><time>2026-04-04T08:17:29.002Z</time></trkpt><trkpt lat="44.311146633219344" lon="11.936103559300866"><ele>20.0</ele><time>2026-04-04T08:17:30.002Z</time></trkpt><trkpt lat="44.311075681563494" lon="11.93628497670464"><ele>20.0</ele><time>2026-04-04T08:17:31.002Z</time></trkpt><trkpt lat="44.311004769227935" lon="11.936464795300257"><ele>20.0</ele><time>2026-04-04T08:17:32.002Z</time></trkpt><trkpt lat="44.31093417355876" lon="11.93664782991046"><ele>20.0</ele><time>2026-04-04T08:17:33.002Z</time></trkpt><trkpt lat="44.31087051002818" lon="11.936817698841233"><ele>20.0</ele><time>2026-04-04T08:17:34.002Z</time></trkpt><trkpt lat="44.31081242642607" lon="11.936972678524029"><ele>20.0</ele><time>2026-04-04T08:17:35.002Z</time></trkpt><trkpt lat="44.31075290675718" lon="11.937119412990956"><ele>20.0</ele><time>2026-04-04T08:17:36.002Z</time></trkpt><trkpt lat="44.31069817288134" lon="11.937258855156394"><ele>20.0</ele><time>2026-04-04T08:17:37.002Z</time></trkpt><trkpt lat="44.31067214307664" lon="11.937376414530188"><ele>20.0</ele><time>2026-04-04T08:17:38.002Z</time></trkpt><trkpt lat="44.31065224590414" lon="11.937471403654351"><ele>20.142857142857142</ele><time>2026-04-04T08:17:39.002Z</time></trkpt><trkpt lat="44.31066653282824" lon="11.937564416218072"><ele>20.285714285714285</ele><time>2026-04-04T08:17:40.002Z</time></trkpt><trkpt lat="44.31071131163199" lon="11.937642967314321"><ele>20.42857142857143</ele><time>2026-04-04T08:17:41.002Z</time></trkpt><trkpt lat="44.31079949675659" lon="11.937667685932782"><ele>20.57142857142857</ele><time>2026-04-04T08:17:42.002Z</time></trkpt><trkpt lat="44.310858313778866" lon="11.93773598711658"><ele>20.714285714285715</ele><time>2026-04-04T08:17:43.002Z</time></trkpt><trkpt lat="44.310902227107974" lon="11.937807781351978"><ele>20.857142857142858</ele><time>2026-04-04T08:17:44.002Z</time></trkpt><trkpt lat="44.31091913831332" lon="11.93790439465506"><ele>21.0</ele><time>2026-04-04T08:17:45.002Z</time></trkpt><trkpt lat="44.31084358117064" lon="11.938008862433922"><ele>21.0</ele><time>2026-04-04T08:17:46.002Z</time></trkpt><trkpt lat="44.310797224766134" lon="11.938125596625174"><ele>21.0</ele><time>2026-04-04T08:17:47.002Z</time></trkpt><trkpt lat="44.31075591980653" lon="11.938267670925919"><ele>21.0</ele><time>2026-04-04T08:17:48.002Z</time></trkpt><trkpt lat="44.31069851168465" lon="11.938407699697397"><ele>21.0</ele><time>2026-04-04T08:17:49.002Z</time></trkpt><trkpt lat="44.31063843592449" lon="11.938562396300938"><ele>21.0</ele><time>2026-04-04T08:17:50.002Z</time></trkpt><trkpt lat="44.310573487564625" lon="11.938728885103064"><ele>21.25</ele><time>2026-04-04T08:17:51.002Z</time></trkpt><trkpt lat="44.31050440118305" lon="11.938900690834526"><ele>21.5</ele><time>2026-04-04T08:17:52.002Z</time></trkpt><trkpt lat="44.31043089554194" lon="11.939081682489878"><ele>21.75</ele><time>2026-04-04T08:17:53.002Z</time></trkpt><trkpt lat="44.31034367365068" lon="11.939260032055122"><ele>22.0</ele><time>2026-04-04T08:17:54.002Z</time></trkpt><trkpt lat="44.310278248880664" lon="11.939462341297906"><ele>22.0</ele><time>2026-04-04T08:17:55.002Z</time></trkpt><trkpt lat="44.31019148568868" lon="11.939649010188615"><ele>22.0</ele><time>2026-04-04T08:17:56.002Z</time></trkpt><trkpt lat="44.310127852088286" lon="11.939859775337936"><ele>22.0</ele><time>2026-04-04T08:17:57.002Z</time></trkpt><trkpt lat="44.310055732819436" lon="11.94006230445152"><ele>22.0</ele><time>2026-04-04T08:17:58.002Z</time></trkpt><trkpt lat="44.30998504807951" lon="11.94026854868174"><ele>22.0</ele><time>2026-04-04T08:17:59.002Z</time></trkpt><trkpt lat="44.30991885351221" lon="11.94047898057234"><ele>22.0</ele><time>2026-04-04T08:18:00.003Z</time></trkpt><trkpt lat="44.309853954215505" lon="11.940691920638471"><ele>22.0</ele><time>2026-04-04T08:18:01.003Z</time></trkpt><trkpt lat="44.30978778790256" lon="11.940895435979334"><ele>22.0</ele><time>2026-04-04T08:18:02.003Z</time></trkpt><trkpt lat="44.30972383044765" lon="11.941088641598272"><ele>22.0</ele><time>2026-04-04T08:18:03.003Z</time></trkpt><trkpt lat="44.309666975642344" lon="11.9412710483393"><ele>22.0</ele><time>2026-04-04T08:18:04.003Z</time></trkpt><trkpt lat="44.30959486270621" lon="11.941424436991435"><ele>22.0</ele><time>2026-04-04T08:18:05.003Z</time></trkpt><trkpt lat="44.30954724976049" lon="11.94156504945929"><ele>22.0</ele><time>2026-04-04T08:18:06.003Z</time></trkpt><trkpt lat="44.309502331146604" lon="11.941692943559454"><ele>22.0</ele><time>2026-04-04T08:18:07.003Z</time></trkpt><trkpt lat="44.309446708152215" lon="11.941784213724077"><ele>22.0</ele><time>2026-04-04T08:18:08.003Z</time></trkpt><trkpt lat="44.3093831571808" lon="11.941847803262942"><ele>22.0</ele><time>2026-04-04T08:18:09.003Z</time></trkpt><trkpt lat="44.309310614648695" lon="11.941785929574422"><ele>22.0</ele><time>2026-04-04T08:18:10.003Z</time></trkpt><trkpt lat="44.309242691545386" lon="11.941737747461755"><ele>22.0</ele><time>2026-04-04T08:18:11.003Z</time></trkpt><trkpt lat="44.309155918441604" lon="11.941681603079665"><ele>22.0</ele><time>2026-04-04T08:18:12.003Z</time></trkpt><trkpt lat="44.30905911459668" lon="11.941616514139819"><ele>22.0</ele><time>2026-04-04T08:18:13.003Z</time></trkpt><trkpt lat="44.30896013160124" lon="11.94154889815342"><ele>22.0</ele><time>2026-04-04T08:18:14.003Z</time></trkpt><trkpt lat="44.30886267625407" lon="11.941482325681221"><ele>22.0</ele><time>2026-04-04T08:18:15.003Z</time></trkpt><trkpt lat="44.30875815252368" lon="11.94141092493012"><ele>22.0</ele><time>2026-04-04T08:18:16.003Z</time></trkpt><trkpt lat="44.30865032836571" lon="11.941338377042177"><ele>22.0</ele><time>2026-04-04T08:18:17.003Z</time></trkpt><trkpt lat="44.30853722267203" lon="11.941264020924683"><ele>22.0</ele><time>2026-04-04T08:18:18.003Z</time></trkpt><trkpt lat="44.30841845783386" lon="11.941185947582523"><ele>22.0</ele><time>2026-04-04T08:18:19.003Z</time></trkpt><trkpt lat="44.308296939544945" lon="11.941106673488408"><ele>22.0</ele><time>2026-04-04T08:18:20.003Z</time></trkpt><trkpt lat="44.30817390616905" lon="11.94102731056457"><ele>22.0</ele><time>2026-04-04T08:18:21.003Z</time></trkpt><trkpt lat="44.30805622782124" lon="11.940950123374353"><ele>22.0</ele><time>2026-04-04T08:18:22.003Z</time></trkpt><trkpt lat="44.30794663990416" lon="11.940879058989788"><ele>22.0</ele><time>2026-04-04T08:18:23.003Z</time></trkpt><trkpt lat="44.30784604392891" lon="11.940813825673809"><ele>22.0</ele><time>2026-04-04T08:18:24.003Z</time></trkpt><trkpt lat="44.307754262246625" lon="11.940754308177677"><ele>22.0</ele><time>2026-04-04T08:18:25.003Z</time></trkpt><trkpt lat="44.30768697251574" lon="11.940710673013667"><ele>22.0</ele><time>2026-04-04T08:18:26.003Z</time></trkpt><trkpt lat="44.307611343835234" lon="11.940660814393864"><ele>22.0</ele><time>2026-04-04T08:18:28.003Z</time></trkpt><trkpt lat="44.30754512084323" lon="11.940614752856618"><ele>22.0</ele><time>2026-04-04T08:18:31Z</time></trkpt><trkpt lat="44.30743998020365" lon="11.940817982412963"><ele>22.0</ele><time>2026-04-04T08:18:33Z</time></trkpt><trkpt lat="44.30741262813256" lon="11.940904118492195"><ele>22.0</ele><time>2026-04-04T08:18:34Z</time></trkpt><trkpt lat="44.30738019606934" lon="11.941006250685865"><ele>22.0</ele><time>2026-04-04T08:18:35Z</time></trkpt><trkpt lat="44.30734687131691" lon="11.941107070595457"><ele>22.0</ele><time>2026-04-04T08:18:36Z</time></trkpt><trkpt lat="44.30730764406495" lon="11.94121754170261"><ele>22.0</ele><time>2026-04-04T08:18:37Z</time></trkpt><trkpt lat="44.30728510388585" lon="11.94135384890677"><ele>22.0</ele><time>2026-04-04T08:18:38Z</time></trkpt><trkpt lat="44.30723633974553" lon="11.941482934263137"><ele>22.0</ele><time>2026-04-04T08:18:39Z</time></trkpt><trkpt lat="44.307186112593044" lon="11.941621715033245"><ele>22.0</ele><time>2026-04-04T08:18:40Z</time></trkpt><trkpt lat="44.30713626688301" lon="11.94176344260294"><ele>22.0</ele><time>2026-04-04T08:18:41Z</time></trkpt><trkpt lat="44.30708778880253" lon="11.94189361625299"><ele>22.0</ele><time>2026-04-04T08:18:42Z</time></trkpt><trkpt lat="44.307015068879544" lon="11.942008075882809"><ele>22.0</ele><time>2026-04-04T08:18:43Z</time></trkpt><trkpt lat="44.30695608041063" lon="11.942131434037497"><ele>22.0</ele><time>2026-04-04T08:18:44Z</time></trkpt><trkpt lat="44.30688335464963" lon="11.942245588106243"><ele>22.0</ele><time>2026-04-04T08:18:45Z</time></trkpt><trkpt lat="44.306800687004625" lon="11.942353889042364"><ele>22.0</ele><time>2026-04-04T08:18:46Z</time></trkpt><trkpt lat="44.30671259739845" lon="11.942459371222064"><ele>22.0</ele><time>2026-04-04T08:18:47Z</time></trkpt><trkpt lat="44.30662802213698" lon="11.942557691191249"><ele>22.0</ele><time>2026-04-04T08:18:48Z</time></trkpt><trkpt lat="44.30654371350584" lon="11.942655489079254"><ele>22.0</ele><time>2026-04-04T08:18:49Z</time></trkpt><trkpt lat="44.30647278407288" lon="11.942737967867739"><ele>22.0</ele><time>2026-04-04T08:18:50Z</time></trkpt><trkpt lat="44.30639408759199" lon="11.942832041308488"><ele>22.166666666666664</ele><time>2026-04-04T08:18:51Z</time></trkpt><trkpt lat="44.306324259266965" lon="11.942915513967428"><ele>22.333333333333332</ele><time>2026-04-04T08:18:52Z</time></trkpt><trkpt lat="44.306262889131524" lon="11.942988875602245"><ele>22.5</ele><time>2026-04-04T08:18:53Z</time></trkpt><trkpt lat="44.30621346686972" lon="11.94304695721484"><ele>22.666666666666668</ele><time>2026-04-04T08:18:54Z</time></trkpt><trkpt lat="44.30610415084986" lon="11.942969188248739"><ele>22.833333333333336</ele><time>2026-04-04T08:18:57Z</time></trkpt><trkpt lat="44.30605344942718" lon="11.942888525197288"><ele>23.0</ele><time>2026-04-04T08:18:58.001Z</time></trkpt><trkpt lat="44.305999149142096" lon="11.942802136647668"><ele>23.0</ele><time>2026-04-04T08:18:59.001Z</time></trkpt><trkpt lat="44.30594419963272" lon="11.942714744928805"><ele>23.0</ele><time>2026-04-04T08:19:00.001Z</time></trkpt><trkpt lat="44.30588561895219" lon="11.942624431658158"><ele>23.0</ele><time>2026-04-04T08:19:01.001Z</time></trkpt><trkpt lat="44.305824175708864" lon="11.942543546749489"><ele>23.0</ele><time>2026-04-04T08:19:02.001Z</time></trkpt><trkpt lat="44.305753977638666" lon="11.942462202047038"><ele>23.0</ele><time>2026-04-04T08:19:03.001Z</time></trkpt><trkpt lat="44.30567432744621" lon="11.942386299320138"><ele>23.0</ele><time>2026-04-04T08:19:04.001Z</time></trkpt><trkpt lat="44.30558178568242" lon="11.942319118574778"><ele>23.0</ele><time>2026-04-04T08:19:05.001Z</time></trkpt><trkpt lat="44.30548503569001" lon="11.94225910337851"><ele>23.0</ele><time>2026-04-04T08:19:06.001Z</time></trkpt><trkpt lat="44.30538676579982" lon="11.942205524991921"><ele>23.0</ele><time>2026-04-04T08:19:07.001Z</time></trkpt><trkpt lat="44.30528872150984" lon="11.942160336368955"><ele>23.0</ele><time>2026-04-04T08:19:08.001Z</time></trkpt><trkpt lat="44.305189087596226" lon="11.94212290447413"><ele>23.0</ele><time>2026-04-04T08:19:09.001Z</time></trkpt><trkpt lat="44.3050897134826" lon="11.942094429660171"><ele>23.0</ele><time>2026-04-04T08:19:10.001Z</time></trkpt><trkpt lat="44.30498727998504" lon="11.942075937271396"><ele>23.0</ele><time>2026-04-04T08:19:11.001Z</time></trkpt><trkpt lat="44.304881378556395" lon="11.942073447550131"><ele>23.0</ele><time>2026-04-04T08:19:12.001Z</time></trkpt><trkpt lat="44.30478017049113" lon="11.942086385034646"><ele>23.0</ele><time>2026-04-04T08:19:13.001Z</time></trkpt><trkpt lat="44.304674551917294" lon="11.942140783112658"><ele>23.0</ele><time>2026-04-04T08:19:14.001Z</time></trkpt><trkpt lat="44.30457879017051" lon="11.942229671736921"><ele>23.0</ele><time>2026-04-04T08:19:15.001Z</time></trkpt><trkpt lat="44.304489488086155" lon="11.942327179894198"><ele>23.0</ele><time>2026-04-04T08:19:16.001Z</time></trkpt><trkpt lat="44.304404034631666" lon="11.942431412541023"><ele>23.0</ele><time>2026-04-04T08:19:17.001Z</time></trkpt><trkpt lat="44.30432006609967" lon="11.942542131686288"><ele>23.0</ele><time>2026-04-04T08:19:18.001Z</time></trkpt><trkpt lat="44.304235141593566" lon="11.942659573531945"><ele>23.0</ele><time>2026-04-04T08:19:19.001Z</time></trkpt><trkpt lat="44.30415103322787" lon="11.942779595970133"><ele>23.0</ele><time>2026-04-04T08:19:20.001Z</time></trkpt><trkpt lat="44.30406404042837" lon="11.94290558649802"><ele>23.0</ele><time>2026-04-04T08:19:21.001Z</time></trkpt><trkpt lat="44.303977010778226" lon="11.943031667621211"><ele>23.0</ele><time>2026-04-04T08:19:22.001Z</time></trkpt><trkpt lat="44.30388850238893" lon="11.943152805640635"><ele>23.0</ele><time>2026-04-04T08:19:23.001Z</time></trkpt><trkpt lat="44.30379471416293" lon="11.94326983709212"><ele>23.0</ele><time>2026-04-04T08:19:24.001Z</time></trkpt><trkpt lat="44.303698578470915" lon="11.943380095368639"><ele>23.0</ele><time>2026-04-04T08:19:25.001Z</time></trkpt><trkpt lat="44.30359741227706" lon="11.943468835480463"><ele>23.0</ele><time>2026-04-04T08:19:26.001Z</time></trkpt><trkpt lat="44.30348859963974" lon="11.943533676566553"><ele>22.75</ele><time>2026-04-04T08:19:27.001Z</time></trkpt><trkpt lat="44.303377779544874" lon="11.943582728315903"><ele>22.5</ele><time>2026-04-04T08:19:28.001Z</time></trkpt><trkpt lat="44.30326232532646" lon="11.943601860855422"><ele>22.25</ele><time>2026-04-04T08:19:29.001Z</time></trkpt><trkpt lat="44.30314477646547" lon="11.943597271459627"><ele>22.0</ele><time>2026-04-04T08:19:30.001Z</time></trkpt><trkpt lat="44.30302799499419" lon="11.943574164767826"><ele>22.25</ele><time>2026-04-04T08:19:31.001Z</time></trkpt><trkpt lat="44.30290978157619" lon="11.943537696175134"><ele>22.5</ele><time>2026-04-04T08:19:32.002Z</time></trkpt><trkpt lat="44.30280182078001" lon="11.943475583309189"><ele>22.75</ele><time>2026-04-04T08:19:33.002Z</time></trkpt><trkpt lat="44.30270179676021" lon="11.943401171546746"><ele>23.0</ele><time>2026-04-04T08:19:34.002Z</time></trkpt><trkpt lat="44.302608076059684" lon="11.94332320403754"><ele>23.0</ele><time>2026-04-04T08:19:35.002Z</time></trkpt><trkpt lat="44.302516598280945" lon="11.943247480949596"><ele>23.0</ele><time>2026-04-04T08:19:36.002Z</time></trkpt><trkpt lat="44.302422587705685" lon="11.943181156936877"><ele>23.0</ele><time>2026-04-04T08:19:37.002Z</time></trkpt><trkpt lat="44.30233886587552" lon="11.943109054804253"><ele>23.0</ele><time>2026-04-04T08:19:38.002Z</time></trkpt><trkpt lat="44.30225058840152" lon="11.943016927621008"><ele>23.0</ele><time>2026-04-04T08:19:39.002Z</time></trkpt><trkpt lat="44.302163133867175" lon="11.942916688552925"><ele>23.25</ele><time>2026-04-04T08:19:40.002Z</time></trkpt><trkpt lat="44.302072543394935" lon="11.942808298174867"><ele>23.5</ele><time>2026-04-04T08:19:41.002Z</time></trkpt><trkpt lat="44.30197608973917" lon="11.94270403301641"><ele>23.75</ele><time>2026-04-04T08:19:42.002Z</time></trkpt><trkpt lat="44.30187815180163" lon="11.942610224413354"><ele>24.0</ele><time>2026-04-04T08:19:43.002Z</time></trkpt><trkpt lat="44.30177974119061" lon="11.942529407073074"><ele>24.0</ele><time>2026-04-04T08:19:44.002Z</time></trkpt><trkpt lat="44.30169194398165" lon="11.942458053576946"><ele>24.0</ele><time>2026-04-04T08:19:45.002Z</time></trkpt><trkpt lat="44.30160717324254" lon="11.942396925157963"><ele>24.0</ele><time>2026-04-04T08:19:46.002Z</time></trkpt><trkpt lat="44.30152195978782" lon="11.942357450401765"><ele>24.0</ele><time>2026-04-04T08:19:47.002Z</time></trkpt><trkpt lat="44.30140717351416" lon="11.942404857197879"><ele>24.0</ele><time>2026-04-04T08:19:48.002Z</time></trkpt><trkpt lat="44.30133759075446" lon="11.942520950366976"><ele>23.799999999999997</ele><time>2026-04-04T08:19:49.002Z</time></trkpt><trkpt lat="44.30130902728983" lon="11.942661431490844"><ele>23.599999999999998</ele><time>2026-04-04T08:19:50.002Z</time></trkpt><trkpt lat="44.30126831667752" lon="11.942795074750787"><ele>23.4</ele><time>2026-04-04T08:19:51.002Z</time></trkpt><trkpt lat="44.30123051816198" lon="11.942921177448047"><ele>23.2</ele><time>2026-04-04T08:19:52.002Z</time></trkpt><trkpt lat="44.30118877612137" lon="11.943031267245482"><ele>23.0</ele><time>2026-04-04T08:19:53.002Z</time></trkpt><trkpt lat="44.30113140729335" lon="11.943102325808457"><ele>23.0</ele><time>2026-04-04T08:19:54.002Z</time></trkpt><trkpt lat="44.301063429370544" lon="11.943131606965183"><ele>23.0</ele><time>2026-04-04T08:19:55.002Z</time></trkpt><trkpt lat="44.30098272406832" lon="11.943111757170822"><ele>23.0</ele><time>2026-04-04T08:19:56.002Z</time></trkpt><trkpt lat="44.300886543246534" lon="11.943088606638378"><ele>23.0</ele><time>2026-04-04T08:19:57.002Z</time></trkpt><trkpt lat="44.300789137300086" lon="11.94308391702644"><ele>23.0</ele><time>2026-04-04T08:19:58.002Z</time></trkpt><trkpt lat="44.3006830688375" lon="11.943175062432653"><ele>23.0</ele><time>2026-04-04T08:19:59.002Z</time></trkpt><trkpt lat="44.300622447463965" lon="11.943325059736576"><ele>23.0</ele><time>2026-04-04T08:20:00.002Z</time></trkpt><trkpt lat="44.300575615648775" lon="11.943466824143185"><ele>23.0</ele><time>2026-04-04T08:20:01.002Z</time></trkpt><trkpt lat="44.300530640232495" lon="11.943585594764128"><ele>23.0</ele><time>2026-04-04T08:20:02.002Z</time></trkpt><trkpt lat="44.30047171131496" lon="11.943657458361583"><ele>23.0</ele><time>2026-04-04T08:20:03.002Z</time></trkpt><trkpt lat="44.300401411532796" lon="11.943693440393432"><ele>22.599999999999998</ele><time>2026-04-04T08:20:04.002Z</time></trkpt><trkpt lat="44.30033384369372" lon="11.943668064592995"><ele>22.2</ele><time>2026-04-04T08:20:05.002Z</time></trkpt><trkpt lat="44.30024975094326" lon="11.943626381588698"><ele>21.8</ele><time>2026-04-04T08:20:06.003Z</time></trkpt><trkpt lat="44.30015341811077" lon="11.943559536537107"><ele>21.4</ele><time>2026-04-04T08:20:07.003Z</time></trkpt><trkpt lat="44.300045848440426" lon="11.94348116775128"><ele>21.0</ele><time>2026-04-04T08:20:08.003Z</time></trkpt><trkpt lat="44.2999376627877" lon="11.943393803075907"><ele>21.25</ele><time>2026-04-04T08:20:09.003Z</time></trkpt><trkpt lat="44.299835441117004" lon="11.943297261279326"><ele>21.5</ele><time>2026-04-04T08:20:10.003Z</time></trkpt><trkpt lat="44.29973462703721" lon="11.943182172827655"><ele>21.75</ele><time>2026-04-04T08:20:11.003Z</time></trkpt><trkpt lat="44.299646107868504" lon="11.943049258300183"><ele>22.0</ele><time>2026-04-04T08:20:12.003Z</time></trkpt><trkpt lat="44.29957291614169" lon="11.942896866259836"><ele>22.0</ele><time>2026-04-04T08:20:13.003Z</time></trkpt><trkpt lat="44.29950545688253" lon="11.942734078161315"><ele>22.0</ele><time>2026-04-04T08:20:14.003Z</time></trkpt><trkpt lat="44.299434535842195" lon="11.94256703005886"><ele>22.0</ele><time>2026-04-04T08:20:15.003Z</time></trkpt><trkpt lat="44.29935255266589" lon="11.942410880256203"><ele>22.0</ele><time>2026-04-04T08:20:16.003Z</time></trkpt><trkpt lat="44.299258157604164" lon="11.94228824389459"><ele>21.8</ele><time>2026-04-04T08:20:17.003Z</time></trkpt><trkpt lat="44.29916155797509" lon="11.942223135239118"><ele>21.6</ele><time>2026-04-04T08:20:18.003Z</time></trkpt><trkpt lat="44.299101676465554" lon="11.942155704147432"><ele>21.400000000000002</ele><time>2026-04-04T08:20:19.003Z</time></trkpt><trkpt lat="44.29904039085638" lon="11.942060828398484"><ele>21.200000000000003</ele><time>2026-04-04T08:20:20.003Z</time></trkpt><trkpt lat="44.29897252320306" lon="11.941962619882244"><ele>21.0</ele><time>2026-04-04T08:20:21.003Z</time></trkpt><trkpt lat="44.298900252560465" lon="11.941861636011545"><ele>20.75</ele><time>2026-04-04T08:20:22.003Z</time></trkpt><trkpt lat="44.29882563635784" lon="11.941754634438114"><ele>20.5</ele><time>2026-04-04T08:20:23.003Z</time></trkpt><trkpt lat="44.29874587524781" lon="11.94165055443272"><ele>20.25</ele><time>2026-04-04T08:20:24.003Z</time></trkpt><trkpt lat="44.29865243156813" lon="11.94155206505186"><ele>20.0</ele><time>2026-04-04T08:20:25.003Z</time></trkpt><trkpt lat="44.29854327973039" lon="11.941458998281496"><ele>20.0</ele><time>2026-04-04T08:20:26.003Z</time></trkpt><trkpt lat="44.29842346151884" lon="11.941392882994467"><ele>20.0</ele><time>2026-04-04T08:20:27.003Z</time></trkpt><trkpt lat="44.298312920677006" lon="11.941337562234153"><ele>20.0</ele><time>2026-04-04T08:20:28.003Z</time></trkpt><trkpt lat="44.298198489835585" lon="11.941279161138786"><ele>20.0</ele><time>2026-04-04T08:20:29.003Z</time></trkpt><trkpt lat="44.29810378519289" lon="11.941211093582181"><ele>20.25</ele><time>2026-04-04T08:20:30.003Z</time></trkpt><trkpt lat="44.29800314992766" lon="11.9411189228815"><ele>20.5</ele><time>2026-04-04T08:20:31.003Z</time></trkpt><trkpt lat="44.297905071819365" lon="11.941023076196029"><ele>20.75</ele><time>2026-04-04T08:20:32.003Z</time></trkpt><trkpt lat="44.29781000204163" lon="11.94092008532718"><ele>21.0</ele><time>2026-04-04T08:20:33.003Z</time></trkpt><trkpt lat="44.297712626012654" lon="11.940812952854536"><ele>21.0</ele><time>2026-04-04T08:20:34.003Z</time></trkpt><trkpt lat="44.29761485484748" lon="11.940699534063132"><ele>21.0</ele><time>2026-04-04T08:20:34.999Z</time></trkpt><trkpt lat="44.297523745701554" lon="11.940579653548255"><ele>21.0</ele><time>2026-04-04T08:20:35.999Z</time></trkpt><trkpt lat="44.2974379065417" lon="11.940435612729983"><ele>21.0</ele><time>2026-04-04T08:20:36.999Z</time></trkpt><trkpt lat="44.29735834442218" lon="11.940280397779244"><ele>21.0</ele><time>2026-04-04T08:20:37.999Z</time></trkpt><trkpt lat="44.297278329733864" lon="11.940124299948677"><ele>21.0</ele><time>2026-04-04T08:20:38.999Z</time></trkpt><trkpt lat="44.29719525735232" lon="11.939962397181755"><ele>21.0</ele><time>2026-04-04T08:20:39.999Z</time></trkpt><trkpt lat="44.297102767754716" lon="11.939823245574607"><ele>21.0</ele><time>2026-04-04T08:20:40.999Z</time></trkpt><trkpt lat="44.29703967187052" lon="11.939660706475047"><ele>21.25</ele><time>2026-04-04T08:20:41.999Z</time></trkpt><trkpt lat="44.29696190969177" lon="11.939504902831251"><ele>21.5</ele><time>2026-04-04T08:20:42.999Z</time></trkpt><trkpt lat="44.296875209700346" lon="11.939360802469244"><ele>21.75</ele><time>2026-04-04T08:20:43.999Z</time></trkpt><trkpt lat="44.296813425389246" lon="11.939203592485724"><ele>22.0</ele><time>2026-04-04T08:20:44.999Z</time></trkpt><trkpt lat="44.2967631879197" lon="11.939046424767588"><ele>22.400000000000002</ele><time>2026-04-04T08:20:45.999Z</time></trkpt><trkpt lat="44.296728429704146" lon="11.938881360300439"><ele>22.8</ele><time>2026-04-04T08:20:46.999Z</time></trkpt><trkpt lat="44.29671403604329" lon="11.938725067436039"><ele>23.2</ele><time>2026-04-04T08:20:47.999Z</time></trkpt><trkpt lat="44.29670657938243" lon="11.93857910790761"><ele>23.6</ele><time>2026-04-04T08:20:48.999Z</time></trkpt><trkpt lat="44.296705163439654" lon="11.938430536493144"><ele>24.0</ele><time>2026-04-04T08:20:50Z</time></trkpt><trkpt lat="44.29670805559199" lon="11.93827795645154"><ele>24.0</ele><time>2026-04-04T08:20:51Z</time></trkpt><trkpt lat="44.296719138635225" lon="11.938126560348266"><ele>24.0</ele><time>2026-04-04T08:20:52Z</time></trkpt><trkpt lat="44.296731651973175" lon="11.937976979773984"><ele>24.0</ele><time>2026-04-04T08:20:53Z</time></trkpt><trkpt lat="44.296733852234695" lon="11.937827618411289"><ele>24.0</ele><time>2026-04-04T08:20:54Z</time></trkpt><trkpt lat="44.296730311285216" lon="11.93769366323769"><ele>24.0</ele><time>2026-04-04T08:20:55Z</time></trkpt><trkpt lat="44.2966703879448" lon="11.93757562802259"><ele>24.0</ele><time>2026-04-04T08:20:56Z</time></trkpt><trkpt lat="44.29661498412036" lon="11.937438468277033"><ele>24.0</ele><time>2026-04-04T08:20:57Z</time></trkpt><trkpt lat="44.29654067842231" lon="11.937307683269495"><ele>24.0</ele><time>2026-04-04T08:20:58Z</time></trkpt><trkpt lat="44.29646541029444" lon="11.937176226308631"><ele>24.0</ele><time>2026-04-04T08:20:59Z</time></trkpt><trkpt lat="44.29638254380758" lon="11.937046339370129"><ele>24.0</ele><time>2026-04-04T08:21:00Z</time></trkpt><trkpt lat="44.296293769608376" lon="11.936922173151139"><ele>24.0</ele><time>2026-04-04T08:21:01Z</time></trkpt><trkpt lat="44.296200716866394" lon="11.936800908033774"><ele>24.0</ele><time>2026-04-04T08:21:02Z</time></trkpt><trkpt lat="44.29610577641978" lon="11.936682366290443"><ele>24.0</ele><time>2026-04-04T08:21:03Z</time></trkpt><trkpt lat="44.296009789701934" lon="11.936564998033575"><ele>23.75</ele><time>2026-04-04T08:21:04Z</time></trkpt><trkpt lat="44.29591330323708" lon="11.93644149848967"><ele>23.5</ele><time>2026-04-04T08:21:05Z</time></trkpt><trkpt lat="44.29581810311497" lon="11.9363149780004"><ele>23.25</ele><time>2026-04-04T08:21:06Z</time></trkpt><trkpt lat="44.29572030529494" lon="11.93618801813447"><ele>23.0</ele><time>2026-04-04T08:21:07Z</time></trkpt><trkpt lat="44.29561943634813" lon="11.936060540522911"><ele>23.0</ele><time>2026-04-04T08:21:08Z</time></trkpt><trkpt lat="44.29551584102739" lon="11.935934253041015"><ele>23.0</ele><time>2026-04-04T08:21:09Z</time></trkpt><trkpt lat="44.295407394520204" lon="11.935814880930527"><ele>23.0</ele><time>2026-04-04T08:21:10Z</time></trkpt><trkpt lat="44.295288919314736" lon="11.935705698992907"><ele>23.0</ele><time>2026-04-04T08:21:11Z</time></trkpt><trkpt lat="44.29516831458219" lon="11.935600267933426"><ele>23.0</ele><time>2026-04-04T08:21:12Z</time></trkpt><trkpt lat="44.2950452555083" lon="11.935494916839776"><ele>23.0</ele><time>2026-04-04T08:21:13Z</time></trkpt><trkpt lat="44.294924821815094" lon="11.935388878109913"><ele>23.0</ele><time>2026-04-04T08:21:14Z</time></trkpt><trkpt lat="44.29480273520595" lon="11.935278926056364"><ele>23.0</ele><time>2026-04-04T08:21:15Z</time></trkpt><trkpt lat="44.2946839337319" lon="11.935165453590233"><ele>23.25</ele><time>2026-04-04T08:21:16Z</time></trkpt><trkpt lat="44.29456820639155" lon="11.935050439588315"><ele>23.5</ele><time>2026-04-04T08:21:17.001Z</time></trkpt><trkpt lat="44.29445230214108" lon="11.934934619094065"><ele>23.75</ele><time>2026-04-04T08:21:18.001Z</time></trkpt><trkpt lat="44.29434034592687" lon="11.93481935961861"><ele>24.0</ele><time>2026-04-04T08:21:19.001Z</time></trkpt><trkpt lat="44.29423007082296" lon="11.934698738759602"><ele>24.0</ele><time>2026-04-04T08:21:20.001Z</time></trkpt><trkpt lat="44.29412429739516" lon="11.934572817607684"><ele>24.0</ele><time>2026-04-04T08:21:21.001Z</time></trkpt><trkpt lat="44.29401971074349" lon="11.934444875015313"><ele>24.0</ele><time>2026-04-04T08:21:22.001Z</time></trkpt><trkpt lat="44.293914255872885" lon="11.934313795593916"><ele>24.0</ele><time>2026-04-04T08:21:23.001Z</time></trkpt><trkpt lat="44.293809491163984" lon="11.93418246226079"><ele>23.75</ele><time>2026-04-04T08:21:24.001Z</time></trkpt><trkpt lat="44.29370462355319" lon="11.934048797374258"><ele>23.5</ele><time>2026-04-04T08:21:25.001Z</time></trkpt><trkpt lat="44.29360130301981" lon="11.933912351293593"><ele>23.25</ele><time>2026-04-04T08:21:26.001Z</time></trkpt><trkpt lat="44.29349993424735" lon="11.933772985528991"><ele>23.0</ele><time>2026-04-04T08:21:27.001Z</time></trkpt><trkpt lat="44.29339881941739" lon="11.933633968962148"><ele>23.0</ele><time>2026-04-04T08:21:28.001Z</time></trkpt><trkpt lat="44.2932974789244" lon="11.933494993575133"><ele>23.0</ele><time>2026-04-04T08:21:29.001Z</time></trkpt><trkpt lat="44.29319657470739" lon="11.933367850170429"><ele>23.0</ele><time>2026-04-04T08:21:30.001Z</time></trkpt><trkpt lat="44.29309894060467" lon="11.933243444307214"><ele>23.0</ele><time>2026-04-04T08:21:31.001Z</time></trkpt><trkpt lat="44.29300676158816" lon="11.933119208790401"><ele>23.5</ele><time>2026-04-04T08:21:32.001Z</time></trkpt><trkpt lat="44.29291674298362" lon="11.932984373975614"><ele>24.0</ele><time>2026-04-04T08:21:33.001Z</time></trkpt><trkpt lat="44.292829532786115" lon="11.932838295098371"><ele>24.5</ele><time>2026-04-04T08:21:34.001Z</time></trkpt><trkpt lat="44.29274605330314" lon="11.932686762053857"><ele>25.0</ele><time>2026-04-04T08:21:35.001Z</time></trkpt><trkpt lat="44.29265930661557" lon="11.932540016712684"><ele>25.0</ele><time>2026-04-04T08:21:36.001Z</time></trkpt><trkpt lat="44.29259463601397" lon="11.932367197986776"><ele>25.0</ele><time>2026-04-04T08:21:37.001Z</time></trkpt><trkpt lat="44.29251831013142" lon="11.932207468692216"><ele>25.0</ele><time>2026-04-04T08:21:38.001Z</time></trkpt><trkpt lat="44.29243921025974" lon="11.9320579216606"><ele>25.0</ele><time>2026-04-04T08:21:39.001Z</time></trkpt><trkpt lat="44.292348436659225" lon="11.931936698432281"><ele>25.000000000000004</ele><time>2026-04-04T08:21:40.001Z</time></trkpt><trkpt lat="44.292278853243495" lon="11.931815017411411"><ele>25.0</ele><time>2026-04-04T08:21:41.001Z</time></trkpt><trkpt lat="44.29222341384965" lon="11.931716898622684"><ele>25.0</ele><time>2026-04-04T08:21:42.001Z</time></trkpt><trkpt lat="44.292174419371264" lon="11.931620259460802"><ele>25.0</ele><time>2026-04-04T08:21:43.001Z</time></trkpt><trkpt lat="44.29213936537673" lon="11.931519504941438"><ele>25.000000000000004</ele><time>2026-04-04T08:21:44.001Z</time></trkpt><trkpt lat="44.29211287032199" lon="11.931423769834755"><ele>25.0</ele><time>2026-04-04T08:21:45.001Z</time></trkpt><trkpt lat="44.292076456053735" lon="11.931280732057616"><ele>24.833333333333336</ele><time>2026-04-04T08:21:47.001Z</time></trkpt><trkpt lat="44.292038693538125" lon="11.931175094004182"><ele>24.666666666666668</ele><time>2026-04-04T08:21:49.002Z</time></trkpt><trkpt lat="44.29195002084462" lon="11.93114851004891"><ele>24.5</ele><time>2026-04-04T08:21:51.002Z</time></trkpt><trkpt lat="44.29186412344572" lon="11.93123630027748"><ele>24.333333333333336</ele><time>2026-04-04T08:21:52.002Z</time></trkpt><trkpt lat="44.29181517367849" lon="11.931297601548016"><ele>24.166666666666668</ele><time>2026-04-04T08:21:53.002Z</time></trkpt><trkpt lat="44.29176175225196" lon="11.93136004179583"><ele>24.0</ele><time>2026-04-04T08:21:54.002Z</time></trkpt><trkpt lat="44.29170334158658" lon="11.931431863434447"><ele>24.0</ele><time>2026-04-04T08:21:55.002Z</time></trkpt><trkpt lat="44.291642035343656" lon="11.931510119807811"><ele>24.0</ele><time>2026-04-04T08:21:56.002Z</time></trkpt><trkpt lat="44.29157805505087" lon="11.931590055751274"><ele>24.0</ele><time>2026-04-04T08:21:57.002Z</time></trkpt><trkpt lat="44.291510968049934" lon="11.9316639698753"><ele>24.0</ele><time>2026-04-04T08:21:58.002Z</time></trkpt><trkpt lat="44.29144706537591" lon="11.931726311377187"><ele>24.0</ele><time>2026-04-04T08:21:59.002Z</time></trkpt><trkpt lat="44.29138637772335" lon="11.931781704967026"><ele>24.0</ele><time>2026-04-04T08:22:00.002Z</time></trkpt><trkpt lat="44.29130955839004" lon="11.931849828495201"><ele>23.833333333333332</ele><time>2026-04-04T08:22:02.002Z</time></trkpt><trkpt lat="44.291251196656205" lon="11.93188505796113"><ele>23.666666666666668</ele><time>2026-04-04T08:22:09.002Z</time></trkpt><trkpt lat="44.291225677909416" lon="11.931712229059872"><ele>23.5</ele><time>2026-04-04T08:22:12.002Z</time></trkpt><trkpt lat="44.29121928507896" lon="11.93160561057332"><ele>23.333333333333336</ele><time>2026-04-04T08:22:13.002Z</time></trkpt><trkpt lat="44.29120717655814" lon="11.93149678106799"><ele>23.166666666666668</ele><time>2026-04-04T08:22:14.002Z</time></trkpt><trkpt lat="44.291197300962324" lon="11.931381201142965"><ele>23.0</ele><time>2026-04-04T08:22:15.002Z</time></trkpt><trkpt lat="44.291184872262384" lon="11.931254734889295"><ele>23.4</ele><time>2026-04-04T08:22:16.002Z</time></trkpt><trkpt lat="44.2911615811706" lon="11.931123858061724"><ele>23.799999999999997</ele><time>2026-04-04T08:22:17.002Z</time></trkpt><trkpt lat="44.29110389645708" lon="11.931002740277595"><ele>24.2</ele><time>2026-04-04T08:22:18.002Z</time></trkpt><trkpt lat="44.291029072219466" lon="11.93088255609593"><ele>24.6</ele><time>2026-04-04T08:22:19.002Z</time></trkpt><trkpt lat="44.29092322365231" lon="11.930806340265491"><ele>25.0</ele><time>2026-04-04T08:22:20.002Z</time></trkpt><trkpt lat="44.290811584205755" lon="11.930738257839538"><ele>25.25</ele><time>2026-04-04T08:22:21.002Z</time></trkpt><trkpt lat="44.29069185038845" lon="11.930666391362951"><ele>25.5</ele><time>2026-04-04T08:22:22.003Z</time></trkpt><trkpt lat="44.29056573588351" lon="11.93058993831917"><ele>25.75</ele><time>2026-04-04T08:22:23.003Z</time></trkpt><trkpt lat="44.29043612027549" lon="11.930511363287334"><ele>26.0</ele><time>2026-04-04T08:22:24.003Z</time></trkpt><trkpt lat="44.29029576350852" lon="11.930450125418025"><ele>26.0</ele><time>2026-04-04T08:22:25.003Z</time></trkpt><trkpt lat="44.29016489295686" lon="11.930357877628309"><ele>26.0</ele><time>2026-04-04T08:22:26.003Z</time></trkpt><trkpt lat="44.29002252998848" lon="11.930278503028434"><ele>26.0</ele><time>2026-04-04T08:22:27.003Z</time></trkpt><trkpt lat="44.2898794903939" lon="11.930186640626266"><ele>26.0</ele><time>2026-04-04T08:22:28.003Z</time></trkpt><trkpt lat="44.28973112406514" lon="11.930092404468654"><ele>26.0</ele><time>2026-04-04T08:22:29.003Z</time></trkpt><trkpt lat="44.289580315803434" lon="11.929995809135109"><ele>26.0</ele><time>2026-04-04T08:22:30.003Z</time></trkpt><trkpt lat="44.28943080725722" lon="11.929904202582053"><ele>26.0</ele><time>2026-04-04T08:22:31.003Z</time></trkpt><trkpt lat="44.28928790363497" lon="11.92981528618151"><ele>26.0</ele><time>2026-04-04T08:22:32.003Z</time></trkpt><trkpt lat="44.28915000345976" lon="11.929730126936013"><ele>26.0</ele><time>2026-04-04T08:22:33.003Z</time></trkpt><trkpt lat="44.28901606870417" lon="11.929649878540275"><ele>26.0</ele><time>2026-04-04T08:22:34.003Z</time></trkpt><trkpt lat="44.28888784151377" lon="11.929566423038072"><ele>26.0</ele><time>2026-04-04T08:22:35.003Z</time></trkpt><trkpt lat="44.2887845238582" lon="11.929459202292804"><ele>26.0</ele><time>2026-04-04T08:22:36.003Z</time></trkpt><trkpt lat="44.28867454050966" lon="11.929369467752213"><ele>26.0</ele><time>2026-04-04T08:22:37.003Z</time></trkpt><trkpt lat="44.288587545589486" lon="11.929235084071786"><ele>25.75</ele><time>2026-04-04T08:22:38.003Z</time></trkpt><trkpt lat="44.28852133718116" lon="11.92907648552659"><ele>25.5</ele><time>2026-04-04T08:22:39.003Z</time></trkpt><trkpt lat="44.28847284397251" lon="11.928898379530095"><ele>25.25</ele><time>2026-04-04T08:22:40.003Z</time></trkpt><trkpt lat="44.28845134297515" lon="11.928704362555134"><ele>25.0</ele><time>2026-04-04T08:22:40.999Z</time></trkpt><trkpt lat="44.28843722726689" lon="11.928501760588805"><ele>25.0</ele><time>2026-04-04T08:22:41.999Z</time></trkpt><trkpt lat="44.28842790771579" lon="11.928294234463289"><ele>25.0</ele><time>2026-04-04T08:22:42.999Z</time></trkpt><trkpt lat="44.28841347175504" lon="11.928088860423998"><ele>25.0</ele><time>2026-04-04T08:22:43.999Z</time></trkpt><trkpt lat="44.28839954483879" lon="11.927876495000335"><ele>25.0</ele><time>2026-04-04T08:22:44.999Z</time></trkpt><trkpt lat="44.28838422300204" lon="11.927662902635259"><ele>25.333333333333336</ele><time>2026-04-04T08:22:45.999Z</time></trkpt><trkpt lat="44.28837023280051" lon="11.927442852488879"><ele>25.666666666666664</ele><time>2026-04-04T08:22:46.999Z</time></trkpt><trkpt lat="44.28835914022626" lon="11.927218600080735"><ele>26.0</ele><time>2026-04-04T08:22:47.999Z</time></trkpt><trkpt lat="44.288352232495164" lon="11.926997810538118"><ele>26.0</ele><time>2026-04-04T08:22:48.999Z</time></trkpt><trkpt lat="44.28835421714584" lon="11.9267712971497"><ele>26.0</ele><time>2026-04-04T08:22:49.999Z</time></trkpt><trkpt lat="44.288365963316224" lon="11.926542530142633"><ele>26.0</ele><time>2026-04-04T08:22:50.999Z</time></trkpt><trkpt lat="44.28838640004894" lon="11.926314600620938"><ele>26.333333333333332</ele><time>2026-04-04T08:22:52Z</time></trkpt><trkpt lat="44.28841141912074" lon="11.926089992094603"><ele>26.666666666666664</ele><time>2026-04-04T08:22:53Z</time></trkpt><trkpt lat="44.2884436909486" lon="11.925870108145267"><ele>27.0</ele><time>2026-04-04T08:22:54Z</time></trkpt><trkpt lat="44.28849146637825" lon="11.925651482156223"><ele>27.0</ele><time>2026-04-04T08:22:55Z</time></trkpt><trkpt lat="44.288555577117094" lon="11.925435340227756"><ele>27.0</ele><time>2026-04-04T08:22:56Z</time></trkpt><trkpt lat="44.28863111340735" lon="11.925225364867595"><ele>27.0</ele><time>2026-04-04T08:22:57Z</time></trkpt><trkpt lat="44.2887119617853" lon="11.925015474292355"><ele>27.0</ele><time>2026-04-04T08:22:58Z</time></trkpt><trkpt lat="44.28878728929042" lon="11.92479827276203"><ele>27.0</ele><time>2026-04-04T08:22:59Z</time></trkpt><trkpt lat="44.28886457324569" lon="11.924580926233386"><ele>27.0</ele><time>2026-04-04T08:23:00Z</time></trkpt><trkpt lat="44.28893754458487" lon="11.924358990374525"><ele>26.333333333333336</ele><time>2026-04-04T08:23:01Z</time></trkpt><trkpt lat="44.288991358862575" lon="11.924129250678948"><ele>25.666666666666668</ele><time>2026-04-04T08:23:02Z</time></trkpt><trkpt lat="44.289018694113885" lon="11.923890691774075"><ele>25.0</ele><time>2026-04-04T08:23:03Z</time></trkpt><trkpt lat="44.289018868599946" lon="11.923652565979802"><ele>25.0</ele><time>2026-04-04T08:23:04Z</time></trkpt><trkpt lat="44.28898388369922" lon="11.923419245356014"><ele>25.0</ele><time>2026-04-04T08:23:05Z</time></trkpt><trkpt lat="44.28891052749358" lon="11.923199762252038"><ele>25.0</ele><time>2026-04-04T08:23:06Z</time></trkpt><trkpt lat="44.28882259067904" lon="11.923000961272733"><ele>25.666666666666668</ele><time>2026-04-04T08:23:07Z</time></trkpt><trkpt lat="44.28872461206925" lon="11.922800195891938"><ele>26.333333333333336</ele><time>2026-04-04T08:23:08Z</time></trkpt><trkpt lat="44.288630164795784" lon="11.922600076217357"><ele>27.0</ele><time>2026-04-04T08:23:09Z</time></trkpt><trkpt lat="44.288536928741465" lon="11.92239632022981"><ele>27.333333333333336</ele><time>2026-04-04T08:23:10Z</time></trkpt><trkpt lat="44.288443244824485" lon="11.922192963771431"><ele>27.666666666666668</ele><time>2026-04-04T08:23:11Z</time></trkpt><trkpt lat="44.28834977860974" lon="11.92199025839086"><ele>28.0</ele><time>2026-04-04T08:23:12Z</time></trkpt><trkpt lat="44.28825850454934" lon="11.921790847078192"><ele>28.0</ele><time>2026-04-04T08:23:13Z</time></trkpt><trkpt lat="44.28817062625594" lon="11.921600386122316"><ele>28.0</ele><time>2026-04-04T08:23:14Z</time></trkpt><trkpt lat="44.288072548878404" lon="11.92141974054609"><ele>28.0</ele><time>2026-04-04T08:23:15Z</time></trkpt><trkpt lat="44.2879609983348" lon="11.921243943589968"><ele>28.0</ele><time>2026-04-04T08:23:16.001Z</time></trkpt><trkpt lat="44.28784943097183" lon="11.921074399926539"><ele>28.0</ele><time>2026-04-04T08:23:17.001Z</time></trkpt><trkpt lat="44.287731641457" lon="11.920911004092856"><ele>28.0</ele><time>2026-04-04T08:23:18.001Z</time></trkpt><trkpt lat="44.287607381186994" lon="11.920749409809666"><ele>28.0</ele><time>2026-04-04T08:23:19.001Z</time></trkpt><trkpt lat="44.287479248075535" lon="11.920593254058547"><ele>28.0</ele><time>2026-04-04T08:23:20.001Z</time></trkpt><trkpt lat="44.28735039279639" lon="11.920435380691536"><ele>28.0</ele><time>2026-04-04T08:23:21.001Z</time></trkpt><trkpt lat="44.28721903328145" lon="11.92027224538784"><ele>27.666666666666668</ele><time>2026-04-04T08:23:22.001Z</time></trkpt><trkpt lat="44.28708643866423" lon="11.92011206786744"><ele>27.333333333333336</ele><time>2026-04-04T08:23:23.001Z</time></trkpt><trkpt lat="44.286950802940865" lon="11.919947790108715"><ele>27.0</ele><time>2026-04-04T08:23:24.001Z</time></trkpt><trkpt lat="44.286814957988135" lon="11.919783949189297"><ele>27.0</ele><time>2026-04-04T08:23:25.001Z</time></trkpt><trkpt lat="44.28667572793974" lon="11.919617613918799"><ele>27.0</ele><time>2026-04-04T08:23:26.001Z</time></trkpt><trkpt lat="44.28653638389978" lon="11.91945404110278"><ele>27.0</ele><time>2026-04-04T08:23:27.001Z</time></trkpt><trkpt lat="44.28641086850669" lon="11.919272372901425"><ele>27.333333333333336</ele><time>2026-04-04T08:23:28.001Z</time></trkpt><trkpt lat="44.286274884010275" lon="11.91910645131665"><ele>27.666666666666668</ele><time>2026-04-04T08:23:29.001Z</time></trkpt><trkpt lat="44.28614264926591" lon="11.918945248273788"><ele>28.0</ele><time>2026-04-04T08:23:30.001Z</time></trkpt><trkpt lat="44.286009730030216" lon="11.918788362168637"><ele>28.0</ele><time>2026-04-04T08:23:31.001Z</time></trkpt><trkpt lat="44.28587613737643" lon="11.918637055209249"><ele>28.0</ele><time>2026-04-04T08:23:32.001Z</time></trkpt><trkpt lat="44.2857302453451" lon="11.918505489765096"><ele>28.0</ele><time>2026-04-04T08:23:33.001Z</time></trkpt><trkpt lat="44.285584058695065" lon="11.91837715742709"><ele>28.0</ele><time>2026-04-04T08:23:34.001Z</time></trkpt><trkpt lat="44.28543281809254" lon="11.918255303581505"><ele>28.0</ele><time>2026-04-04T08:23:35.001Z</time></trkpt><trkpt lat="44.285288609895666" lon="11.91811432776903"><ele>28.0</ele><time>2026-04-04T08:23:36.001Z</time></trkpt><trkpt lat="44.285135030355846" lon="11.917988241909335"><ele>28.0</ele><time>2026-04-04T08:23:37.001Z</time></trkpt><trkpt lat="44.28497910716204" lon="11.917860349028977"><ele>28.0</ele><time>2026-04-04T08:23:38.001Z</time></trkpt><trkpt lat="44.284822191925954" lon="11.917731881990239"><ele>28.0</ele><time>2026-04-04T08:23:39.001Z</time></trkpt><trkpt lat="44.284664620834995" lon="11.917605188140708"><ele>28.0</ele><time>2026-04-04T08:23:40.001Z</time></trkpt><trkpt lat="44.28449676303777" lon="11.917496732261704"><ele>28.0</ele><time>2026-04-04T08:23:41.001Z</time></trkpt><trkpt lat="44.28433674002521" lon="11.917364641208842"><ele>28.0</ele><time>2026-04-04T08:23:42.001Z</time></trkpt><trkpt lat="44.28417279552538" lon="11.917234814735092"><ele>28.0</ele><time>2026-04-04T08:23:43.001Z</time></trkpt><trkpt lat="44.2840080734107" lon="11.917112157198082"><ele>28.0</ele><time>2026-04-04T08:23:44.001Z</time></trkpt><trkpt lat="44.28384112587363" lon="11.91698655650624"><ele>28.0</ele><time>2026-04-04T08:23:45.001Z</time></trkpt><trkpt lat="44.28367681294894" lon="11.916861814309863"><ele>28.0</ele><time>2026-04-04T08:23:46.002Z</time></trkpt><trkpt lat="44.28351373612618" lon="11.916740949203398"><ele>28.0</ele><time>2026-04-04T08:23:47.002Z</time></trkpt><trkpt lat="44.28334612168381" lon="11.91661891764612"><ele>28.0</ele><time>2026-04-04T08:23:48.002Z</time></trkpt><trkpt lat="44.28317669635386" lon="11.916505203462485"><ele>28.666666666666668</ele><time>2026-04-04T08:23:49.002Z</time></trkpt><trkpt lat="44.283005379343685" lon="11.916392661398692"><ele>29.333333333333336</ele><time>2026-04-04T08:23:50.002Z</time></trkpt><trkpt lat="44.282833699498475" lon="11.916282169091163"><ele>30.0</ele><time>2026-04-04T08:23:51.002Z</time></trkpt><trkpt lat="44.28266177259115" lon="11.916171632363874"><ele>30.0</ele><time>2026-04-04T08:23:52.002Z</time></trkpt><trkpt lat="44.28249462440331" lon="11.916061490357695"><ele>30.0</ele><time>2026-04-04T08:23:53.002Z</time></trkpt><trkpt lat="44.282328663530144" lon="11.915951219323981"><ele>30.0</ele><time>2026-04-04T08:23:54.002Z</time></trkpt><trkpt lat="44.28216840307285" lon="11.915847568120473"><ele>30.666666666666664</ele><time>2026-04-04T08:23:55.002Z</time></trkpt><trkpt lat="44.282009268911" lon="11.91573414787363"><ele>31.333333333333332</ele><time>2026-04-04T08:23:56.002Z</time></trkpt><trkpt lat="44.281856899700756" lon="11.915623055312468"><ele>32.0</ele><time>2026-04-04T08:23:57.002Z</time></trkpt><trkpt lat="44.28170391459977" lon="11.915511015891928"><ele>32.0</ele><time>2026-04-04T08:23:58.002Z</time></trkpt><trkpt lat="44.28155183148646" lon="11.91539929045967"><ele>32.0</ele><time>2026-04-04T08:23:59.002Z</time></trkpt><trkpt lat="44.2814015694765" lon="11.915289894989302"><ele>32.0</ele><time>2026-04-04T08:24:00.002Z</time></trkpt><trkpt lat="44.28125220668216" lon="11.915179377872814"><ele>31.333333333333332</ele><time>2026-04-04T08:24:01.002Z</time></trkpt><trkpt lat="44.28110210060788" lon="11.915068137446722"><ele>30.666666666666664</ele><time>2026-04-04T08:24:02.002Z</time></trkpt><trkpt lat="44.280952522110724" lon="11.914954181465319"><ele>30.0</ele><time>2026-04-04T08:24:03.002Z</time></trkpt><trkpt lat="44.280799852531416" lon="11.914841672603853"><ele>30.0</ele><time>2026-04-04T08:24:04.002Z</time></trkpt><trkpt lat="44.28064523955557" lon="11.914729940335592"><ele>30.0</ele><time>2026-04-04T08:24:05.002Z</time></trkpt><trkpt lat="44.280488544009145" lon="11.91461393957624"><ele>30.0</ele><time>2026-04-04T08:24:06.002Z</time></trkpt><trkpt lat="44.28033947116102" lon="11.914477476690335"><ele>30.0</ele><time>2026-04-04T08:24:07.002Z</time></trkpt><trkpt lat="44.280180808899054" lon="11.914355533319526"><ele>30.0</ele><time>2026-04-04T08:24:08.002Z</time></trkpt><trkpt lat="44.280021562644194" lon="11.91423236662322"><ele>30.0</ele><time>2026-04-04T08:24:09.002Z</time></trkpt><trkpt lat="44.2798538552655" lon="11.914123895294468"><ele>30.333333333333336</ele><time>2026-04-04T08:24:10.002Z</time></trkpt><trkpt lat="44.279697832868905" lon="11.913988657963305"><ele>30.666666666666668</ele><time>2026-04-04T08:24:11.002Z</time></trkpt><trkpt lat="44.27954164384543" lon="11.913851981585664"><ele>31.0</ele><time>2026-04-04T08:24:12.002Z</time></trkpt><trkpt lat="44.27938749396138" lon="11.91371202872561"><ele>31.0</ele><time>2026-04-04T08:24:13.002Z</time></trkpt><trkpt lat="44.279236398802695" lon="11.91356872107482"><ele>31.0</ele><time>2026-04-04T08:24:14.002Z</time></trkpt><trkpt lat="44.279090083365716" lon="11.913426347183112"><ele>31.0</ele><time>2026-04-04T08:24:15.002Z</time></trkpt><trkpt lat="44.27894091280643" lon="11.913286172801765"><ele>31.666666666666668</ele><time>2026-04-04T08:24:16.002Z</time></trkpt><trkpt lat="44.27879300396875" lon="11.91314911232019"><ele>32.333333333333336</ele><time>2026-04-04T08:24:17.002Z</time></trkpt><trkpt lat="44.278648154373215" lon="11.91301892009296"><ele>33.0</ele><time>2026-04-04T08:24:18.003Z</time></trkpt><trkpt lat="44.27850383970075" lon="11.912891521063296"><ele>33.0</ele><time>2026-04-04T08:24:19.003Z</time></trkpt><trkpt lat="44.278356515375684" lon="11.912766626888068"><ele>33.0</ele><time>2026-04-04T08:24:20.003Z</time></trkpt><trkpt lat="44.278207220925246" lon="11.912644764359104"><ele>33.0</ele><time>2026-04-04T08:24:21.003Z</time></trkpt><trkpt lat="44.278056474802916" lon="11.912528814891232"><ele>33.333333333333336</ele><time>2026-04-04T08:24:22.003Z</time></trkpt><trkpt lat="44.2779143635847" lon="11.912389817445154"><ele>33.66666666666667</ele><time>2026-04-04T08:24:23.003Z</time></trkpt><trkpt lat="44.27775620945838" lon="11.912286846676336"><ele>34.0</ele><time>2026-04-04T08:24:24.003Z</time></trkpt><trkpt lat="44.277605554751354" lon="11.912163628509518"><ele>34.0</ele><time>2026-04-04T08:24:25.003Z</time></trkpt><trkpt lat="44.277454682030566" lon="11.91204493665017"><ele>34.0</ele><time>2026-04-04T08:24:26.003Z</time></trkpt><trkpt lat="44.277303398088634" lon="11.911928461031135"><ele>34.0</ele><time>2026-04-04T08:24:27.003Z</time></trkpt><trkpt lat="44.27715243961609" lon="11.91180655824081"><ele>34.0</ele><time>2026-04-04T08:24:28.003Z</time></trkpt><trkpt lat="44.276997501485006" lon="11.911685389206252"><ele>34.0</ele><time>2026-04-04T08:24:29.003Z</time></trkpt><trkpt lat="44.276841735757415" lon="11.911562991532051"><ele>34.0</ele><time>2026-04-04T08:24:30.003Z</time></trkpt><trkpt lat="44.27668329226641" lon="11.911442376094271"><ele>34.0</ele><time>2026-04-04T08:24:31.003Z</time></trkpt><trkpt lat="44.27652628866878" lon="11.91132115749281"><ele>34.0</ele><time>2026-04-04T08:24:32.003Z</time></trkpt><trkpt lat="44.276377252821014" lon="11.9112022205618"><ele>34.0</ele><time>2026-04-04T08:24:33.003Z</time></trkpt><trkpt lat="44.276237823474276" lon="11.91109146969685"><ele>34.25</ele><time>2026-04-04T08:24:34.003Z</time></trkpt><trkpt lat="44.27610947271992" lon="11.910984373577572"><ele>34.5</ele><time>2026-04-04T08:24:35.003Z</time></trkpt><trkpt lat="44.27598810260789" lon="11.910883162884408"><ele>34.75</ele><time>2026-04-04T08:24:36.003Z</time></trkpt><trkpt lat="44.275869266239766" lon="11.91078767767564"><ele>35.0</ele><time>2026-04-04T08:24:37.003Z</time></trkpt><trkpt lat="44.27575336670692" lon="11.910696392331294"><ele>35.0</ele><time>2026-04-04T08:24:38.003Z</time></trkpt><trkpt lat="44.275641824046296" lon="11.910606445858264"><ele>35.0</ele><time>2026-04-04T08:24:39.003Z</time></trkpt><trkpt lat="44.27553570725946" lon="11.910520646354295"><ele>35.0</ele><time>2026-04-04T08:24:40.003Z</time></trkpt><trkpt lat="44.275429759196406" lon="11.910433988008348"><ele>35.0</ele><time>2026-04-04T08:24:41.003Z</time></trkpt><trkpt lat="44.27533748195305" lon="11.910348762471713"><ele>35.0</ele><time>2026-04-04T08:24:42.003Z</time></trkpt><trkpt lat="44.27525614027632" lon="11.910273715144534"><ele>35.0</ele><time>2026-04-04T08:24:43.003Z</time></trkpt><trkpt lat="44.27519355047074" lon="11.910220639357716"><ele>35.0</ele><time>2026-04-04T08:24:44.003Z</time></trkpt><trkpt lat="44.2751092650669" lon="11.910159510664524"><ele>35.0</ele><time>2026-04-04T08:24:46.003Z</time></trkpt><trkpt lat="44.27503026071975" lon="11.910139045235347"><ele>35.0</ele><time>2026-04-04T08:25:20.001Z</time></trkpt><trkpt lat="44.27490993321151" lon="11.910219497599513"><ele>35.0</ele><time>2026-04-04T08:25:23.001Z</time></trkpt><trkpt lat="44.27487443061882" lon="11.910300533241669"><ele>35.0</ele><time>2026-04-04T08:25:24.001Z</time></trkpt><trkpt lat="44.274842116509625" lon="11.910388944765577"><ele>35.0</ele><time>2026-04-04T08:25:25.001Z</time></trkpt><trkpt lat="44.27480379168418" lon="11.910489405561641"><ele>35.0</ele><time>2026-04-04T08:25:26.001Z</time></trkpt><trkpt lat="44.274762662383736" lon="11.910592919569465"><ele>35.0</ele><time>2026-04-04T08:25:27.001Z</time></trkpt><trkpt lat="44.274719147194936" lon="11.910704689847751"><ele>35.0</ele><time>2026-04-04T08:25:28.001Z</time></trkpt><trkpt lat="44.274671711056" lon="11.91082335548614"><ele>35.2</ele><time>2026-04-04T08:25:29.001Z</time></trkpt><trkpt lat="44.2746235599799" lon="11.910951880050787"><ele>35.4</ele><time>2026-04-04T08:25:30.001Z</time></trkpt><trkpt lat="44.27457255798468" lon="11.911085205018763"><ele>35.6</ele><time>2026-04-04T08:25:31.001Z</time></trkpt><trkpt lat="44.27451920800437" lon="11.911225744937557"><ele>35.8</ele><time>2026-04-04T08:25:32.001Z</time></trkpt><trkpt lat="44.274459370370614" lon="11.911370735713005"><ele>36.0</ele><time>2026-04-04T08:25:33.001Z</time></trkpt><trkpt lat="44.27440288592939" lon="11.911510642372539"><ele>36.0</ele><time>2026-04-04T08:25:34.001Z</time></trkpt><trkpt lat="44.27434221459172" lon="11.911659413585815"><ele>36.0</ele><time>2026-04-04T08:25:35.001Z</time></trkpt><trkpt lat="44.274280989350316" lon="11.911808508351735"><ele>36.0</ele><time>2026-04-04T08:25:36.001Z</time></trkpt><trkpt lat="44.27421851918817" lon="11.91196363598647"><ele>36.0</ele><time>2026-04-04T08:25:37.001Z</time></trkpt><trkpt lat="44.27415586475425" lon="11.912121108385485"><ele>36.0</ele><time>2026-04-04T08:25:38.001Z</time></trkpt><trkpt lat="44.27408910208247" lon="11.912274971115792"><ele>36.0</ele><time>2026-04-04T08:25:39.001Z</time></trkpt><trkpt lat="44.27402839137539" lon="11.912435942865605"><ele>36.0</ele><time>2026-04-04T08:25:40.001Z</time></trkpt><trkpt lat="44.273965413066946" lon="11.912597478093002"><ele>36.0</ele><time>2026-04-04T08:25:41.001Z</time></trkpt><trkpt lat="44.273890585580034" lon="11.912753304430902"><ele>36.0</ele><time>2026-04-04T08:25:42.001Z</time></trkpt><trkpt lat="44.27382618755131" lon="11.912916837373505"><ele>36.0</ele><time>2026-04-04T08:25:43.001Z</time></trkpt><trkpt lat="44.273758133087604" lon="11.913079445370583"><ele>36.0</ele><time>2026-04-04T08:25:44.001Z</time></trkpt><trkpt lat="44.2736925827222" lon="11.91324115845403"><ele>36.0</ele><time>2026-04-04T08:25:45.001Z</time></trkpt><trkpt lat="44.27362683188858" lon="11.913403459777072"><ele>36.25</ele><time>2026-04-04T08:25:46.001Z</time></trkpt><trkpt lat="44.27355955384452" lon="11.91356400644302"><ele>36.5</ele><time>2026-04-04T08:25:47.001Z</time></trkpt><trkpt lat="44.273493504752004" lon="11.913724104957753"><ele>36.75</ele><time>2026-04-04T08:25:48.001Z</time></trkpt><trkpt lat="44.273428756086346" lon="11.91388713779359"><ele>37.0</ele><time>2026-04-04T08:25:49.001Z</time></trkpt><trkpt lat="44.273362170252675" lon="11.914047732609102"><ele>37.0</ele><time>2026-04-04T08:25:50.001Z</time></trkpt><trkpt lat="44.273293826621604" lon="11.914209706323675"><ele>37.0</ele><time>2026-04-04T08:25:51.001Z</time></trkpt><trkpt lat="44.273228189052126" lon="11.914375490164561"><ele>37.0</ele><time>2026-04-04T08:25:52.002Z</time></trkpt><trkpt lat="44.27316445712819" lon="11.914541862397924"><ele>37.0</ele><time>2026-04-04T08:25:53.002Z</time></trkpt><trkpt lat="44.273096698291766" lon="11.91470653250912"><ele>37.0</ele><time>2026-04-04T08:25:54.002Z</time></trkpt><trkpt lat="44.273028588965914" lon="11.914871352333979"><ele>37.0</ele><time>2026-04-04T08:25:55.002Z</time></trkpt><trkpt lat="44.2729576840213" lon="11.915036490261208"><ele>37.0</ele><time>2026-04-04T08:25:56.002Z</time></trkpt><trkpt lat="44.2728888587221" lon="11.915201820629079"><ele>37.0</ele><time>2026-04-04T08:25:57.002Z</time></trkpt><trkpt lat="44.2728202636686" lon="11.915374848256365"><ele>37.0</ele><time>2026-04-04T08:25:58.002Z</time></trkpt><trkpt lat="44.272751231181196" lon="11.91554334380067"><ele>37.0</ele><time>2026-04-04T08:25:59.002Z</time></trkpt><trkpt lat="44.27268352528352" lon="11.91571226034108"><ele>37.0</ele><time>2026-04-04T08:26:00.002Z</time></trkpt><trkpt lat="44.27261634704393" lon="11.915881730387344"><ele>37.0</ele><time>2026-04-04T08:26:01.002Z</time></trkpt><trkpt lat="44.27254764270779" lon="11.916050150487685"><ele>36.75</ele><time>2026-04-04T08:26:02.002Z</time></trkpt><trkpt lat="44.27248113218351" lon="11.916221955630178"><ele>36.5</ele><time>2026-04-04T08:26:03.002Z</time></trkpt><trkpt lat="44.27241137014677" lon="11.916392396565522"><ele>36.25</ele><time>2026-04-04T08:26:04.002Z</time></trkpt><trkpt lat="44.27234147341368" lon="11.916562485704501"><ele>36.0</ele><time>2026-04-04T08:26:05.002Z</time></trkpt><trkpt lat="44.27227383989832" lon="11.916731532247352"><ele>36.0</ele><time>2026-04-04T08:26:06.002Z</time></trkpt><trkpt lat="44.27220944544437" lon="11.916900177539492"><ele>36.0</ele><time>2026-04-04T08:26:07.002Z</time></trkpt><trkpt lat="44.27214275493329" lon="11.91706570058639"><ele>36.0</ele><time>2026-04-04T08:26:08.002Z</time></trkpt><trkpt lat="44.27207557764265" lon="11.917226888898618"><ele>36.0</ele><time>2026-04-04T08:26:09.002Z</time></trkpt><trkpt lat="44.272011893120485" lon="11.917389891036114"><ele>36.0</ele><time>2026-04-04T08:26:10.002Z</time></trkpt><trkpt lat="44.27194745005183" lon="11.917545074232985"><ele>36.0</ele><time>2026-04-04T08:26:11.002Z</time></trkpt><trkpt lat="44.27188892292031" lon="11.917693354734359"><ele>36.0</ele><time>2026-04-04T08:26:12.002Z</time></trkpt><trkpt lat="44.27182802330234" lon="11.917838690640421"><ele>36.0</ele><time>2026-04-04T08:26:13.002Z</time></trkpt><trkpt lat="44.27177199768841" lon="11.91797344969151"><ele>35.833333333333336</ele><time>2026-04-04T08:26:14.002Z</time></trkpt><trkpt lat="44.27171823127736" lon="11.918099831696566"><ele>35.666666666666664</ele><time>2026-04-04T08:26:15.002Z</time></trkpt><trkpt lat="44.27167089333925" lon="11.918212118625588"><ele>35.5</ele><time>2026-04-04T08:26:16.002Z</time></trkpt><trkpt lat="44.27162769932935" lon="11.918316426075645"><ele>35.33333333333333</ele><time>2026-04-04T08:26:17.002Z</time></trkpt><trkpt lat="44.271588262176905" lon="11.918409082759759"><ele>35.166666666666664</ele><time>2026-04-04T08:26:18.002Z</time></trkpt><trkpt lat="44.27155447995687" lon="11.918494031166981"><ele>35.0</ele><time>2026-04-04T08:26:19.002Z</time></trkpt><trkpt lat="44.271522761967425" lon="11.918576109110035"><ele>34.83333333333333</ele><time>2026-04-04T08:26:20.002Z</time></trkpt><trkpt lat="44.271489361858414" lon="11.918652775618572"><ele>34.666666666666664</ele><time>2026-04-04T08:26:21.002Z</time></trkpt><trkpt lat="44.27145622686499" lon="11.91873060908109"><ele>34.5</ele><time>2026-04-04T08:26:22.002Z</time></trkpt><trkpt lat="44.271424587165114" lon="11.918806717195995"><ele>34.333333333333336</ele><time>2026-04-04T08:26:23.002Z</time></trkpt><trkpt lat="44.27139438473329" lon="11.918887118032423"><ele>34.16666666666667</ele><time>2026-04-04T08:26:24.002Z</time></trkpt><trkpt lat="44.271336202031826" lon="11.919028248691792"><ele>34.0</ele><time>2026-04-04T08:26:26.003Z</time></trkpt><trkpt lat="44.27128616503173" lon="11.919149258763499"><ele>34.2</ele><time>2026-04-04T08:26:28.003Z</time></trkpt><trkpt lat="44.27123652556884" lon="11.919273168513078"><ele>34.4</ele><time>2026-04-04T08:26:30.003Z</time></trkpt><trkpt lat="44.27118185191199" lon="11.919405771707194"><ele>34.6</ele><time>2026-04-04T08:26:32.003Z</time></trkpt><trkpt lat="44.27112491000728" lon="11.919558670211194"><ele>34.8</ele><time>2026-04-04T08:26:34.003Z</time></trkpt><trkpt lat="44.271091108768985" lon="11.919642054604607"><ele>35.0</ele><time>2026-04-04T08:26:35.003Z</time></trkpt><trkpt lat="44.271054611891074" lon="11.919724052940687"><ele>35.0</ele><time>2026-04-04T08:26:36.003Z</time></trkpt><trkpt lat="44.27101939123359" lon="11.919829940808853"><ele>35.0</ele><time>2026-04-04T08:26:37.003Z</time></trkpt><trkpt lat="44.270977908310506" lon="11.919944994586228"><ele>35.0</ele><time>2026-04-04T08:26:38.003Z</time></trkpt><trkpt lat="44.27093156348831" lon="11.920068813951223"><ele>35.0</ele><time>2026-04-04T08:26:39.003Z</time></trkpt><trkpt lat="44.27088252117067" lon="11.920204386585231"><ele>35.0</ele><time>2026-04-04T08:26:40.003Z</time></trkpt><trkpt lat="44.270825640572134" lon="11.920345063947416"><ele>35.0</ele><time>2026-04-04T08:26:41.003Z</time></trkpt><trkpt lat="44.270765526535826" lon="11.920494643156356"><ele>35.0</ele><time>2026-04-04T08:26:42.003Z</time></trkpt><trkpt lat="44.270698056711886" lon="11.920653473158186"><ele>35.0</ele><time>2026-04-04T08:26:43.003Z</time></trkpt><trkpt lat="44.270632195636296" lon="11.920817746523364"><ele>35.0</ele><time>2026-04-04T08:26:44.003Z</time></trkpt><trkpt lat="44.27056602282213" lon="11.92098464103564"><ele>35.0</ele><time>2026-04-04T08:26:45.003Z</time></trkpt><trkpt lat="44.27049804584844" lon="11.92115413462392"><ele>35.0</ele><time>2026-04-04T08:26:46.003Z</time></trkpt><trkpt lat="44.27042588824931" lon="11.921322953741523"><ele>35.0</ele><time>2026-04-04T08:26:47.003Z</time></trkpt><trkpt lat="44.270356121566614" lon="11.921493159388868"><ele>35.0</ele><time>2026-04-04T08:26:48.003Z</time></trkpt><trkpt lat="44.27029146377941" lon="11.92165861036898"><ele>34.75</ele><time>2026-04-04T08:26:49.003Z</time></trkpt><trkpt lat="44.270226750375954" lon="11.921822293677435"><ele>34.5</ele><time>2026-04-04T08:26:50.003Z</time></trkpt><trkpt lat="44.27016101443225" lon="11.92198252390183"><ele>34.25</ele><time>2026-04-04T08:26:51.003Z</time></trkpt><trkpt lat="44.27009492149537" lon="11.922144378442784"><ele>34.0</ele><time>2026-04-04T08:26:52.003Z</time></trkpt><trkpt lat="44.27003187471836" lon="11.922308671195553"><ele>34.0</ele><time>2026-04-04T08:26:53Z</time></trkpt><trkpt lat="44.26996593201465" lon="11.922472008289743"><ele>34.0</ele><time>2026-04-04T08:26:54Z</time></trkpt><trkpt lat="44.26989735152997" lon="11.922633544450088"><ele>34.0</ele><time>2026-04-04T08:26:55Z</time></trkpt><trkpt lat="44.269832188727904" lon="11.922800061236195"><ele>34.0</ele><time>2026-04-04T08:26:56Z</time></trkpt><trkpt lat="44.269766549097405" lon="11.922962854018003"><ele>33.75</ele><time>2026-04-04T08:26:57Z</time></trkpt><trkpt lat="44.269698353365165" lon="11.923127295748277"><ele>33.5</ele><time>2026-04-04T08:26:58Z</time></trkpt><trkpt lat="44.26963367430251" lon="11.923290146869943"><ele>33.25</ele><time>2026-04-04T08:26:59Z</time></trkpt><trkpt lat="44.269570625308795" lon="11.923452875743223"><ele>33.0</ele><time>2026-04-04T08:27:00Z</time></trkpt><trkpt lat="44.26950860086477" lon="11.923612864707703"><ele>33.0</ele><time>2026-04-04T08:27:01Z</time></trkpt><trkpt lat="44.26944253119966" lon="11.923768983170103"><ele>33.0</ele><time>2026-04-04T08:27:02Z</time></trkpt><trkpt lat="44.26937557834533" lon="11.923929575881264"><ele>33.0</ele><time>2026-04-04T08:27:03Z</time></trkpt><trkpt lat="44.26930936393698" lon="11.924096138809027"><ele>33.0</ele><time>2026-04-04T08:27:04Z</time></trkpt><trkpt lat="44.269237177317876" lon="11.924261898798276"><ele>33.0</ele><time>2026-04-04T08:27:05Z</time></trkpt><trkpt lat="44.26916584206661" lon="11.9244356418306"><ele>33.0</ele><time>2026-04-04T08:27:06Z</time></trkpt><trkpt lat="44.26909442176763" lon="11.924608202556781"><ele>33.0</ele><time>2026-04-04T08:27:07Z</time></trkpt><trkpt lat="44.269020873126436" lon="11.924788040171418"><ele>33.0</ele><time>2026-04-04T08:27:08Z</time></trkpt><trkpt lat="44.2689467768554" lon="11.924974558816723"><ele>33.333333333333336</ele><time>2026-04-04T08:27:09Z</time></trkpt><trkpt lat="44.268872469583876" lon="11.92516522411755"><ele>33.66666666666667</ele><time>2026-04-04T08:27:10Z</time></trkpt><trkpt lat="44.26879894683793" lon="11.925358426615867"><ele>34.0</ele><time>2026-04-04T08:27:11Z</time></trkpt><trkpt lat="44.26871991210413" lon="11.925551630696027"><ele>34.0</ele><time>2026-04-04T08:27:12Z</time></trkpt><trkpt lat="44.268640185777" lon="11.925744061341401"><ele>34.0</ele><time>2026-04-04T08:27:13Z</time></trkpt><trkpt lat="44.268559501499325" lon="11.925942878452776"><ele>34.0</ele><time>2026-04-04T08:27:14Z</time></trkpt><trkpt lat="44.268476891017535" lon="11.926145102459511"><ele>34.0</ele><time>2026-04-04T08:27:15Z</time></trkpt><trkpt lat="44.26839315341961" lon="11.926347802123734"><ele>34.0</ele><time>2026-04-04T08:27:16Z</time></trkpt><trkpt lat="44.26830987297146" lon="11.926553959053777"><ele>34.0</ele><time>2026-04-04T08:27:17Z</time></trkpt><trkpt lat="44.26822729690685" lon="11.926765438659672"><ele>34.0</ele><time>2026-04-04T08:27:18Z</time></trkpt><trkpt lat="44.2681388370847" lon="11.926972737337485"><ele>34.0</ele><time>2026-04-04T08:27:19Z</time></trkpt><trkpt lat="44.268054360603536" lon="11.92718050191754"><ele>34.0</ele><time>2026-04-04T08:27:20Z</time></trkpt><trkpt lat="44.26796810653338" lon="11.927387633572152"><ele>34.0</ele><time>2026-04-04T08:27:21Z</time></trkpt><trkpt lat="44.267885894679296" lon="11.927595778429172"><ele>34.0</ele><time>2026-04-04T08:27:22Z</time></trkpt><trkpt lat="44.26780146349442" lon="11.927805528807857"><ele>34.0</ele><time>2026-04-04T08:27:23Z</time></trkpt><trkpt lat="44.26771565614309" lon="11.928015024600512"><ele>34.0</ele><time>2026-04-04T08:27:24.001Z</time></trkpt><trkpt lat="44.267628503641646" lon="11.928225114315811"><ele>34.0</ele><time>2026-04-04T08:27:25.001Z</time></trkpt><trkpt lat="44.26754325161956" lon="11.928434571550977"><ele>34.0</ele><time>2026-04-04T08:27:26.001Z</time></trkpt><trkpt lat="44.26745452752013" lon="11.92864724766502"><ele>33.66666666666667</ele><time>2026-04-04T08:27:27.001Z</time></trkpt><trkpt lat="44.26736588453657" lon="11.928857760948638"><ele>33.333333333333336</ele><time>2026-04-04T08:27:28.001Z</time></trkpt><trkpt lat="44.26728526588805" lon="11.929073796607224"><ele>33.0</ele><time>2026-04-04T08:27:29.001Z</time></trkpt><trkpt lat="44.267201903329784" lon="11.929286121651758"><ele>33.0</ele><time>2026-04-04T08:27:30.001Z</time></trkpt><trkpt lat="44.2671193530334" lon="11.929493035134591"><ele>33.0</ele><time>2026-04-04T08:27:31.001Z</time></trkpt><trkpt lat="44.26703286377902" lon="11.929713510028584"><ele>33.0</ele><time>2026-04-04T08:27:32.001Z</time></trkpt><trkpt lat="44.26695021684661" lon="11.929924693750284"><ele>33.333333333333336</ele><time>2026-04-04T08:27:33.001Z</time></trkpt><trkpt lat="44.26686660471786" lon="11.930126548047793"><ele>33.66666666666667</ele><time>2026-04-04T08:27:34.001Z</time></trkpt><trkpt lat="44.266782802925334" lon="11.9303284967008"><ele>34.0</ele><time>2026-04-04T08:27:35.001Z</time></trkpt><trkpt lat="44.26670310660083" lon="11.930528385172305"><ele>34.0</ele><time>2026-04-04T08:27:36.001Z</time></trkpt><trkpt lat="44.266627600144126" lon="11.930722363809382"><ele>34.0</ele><time>2026-04-04T08:27:37.001Z</time></trkpt><trkpt lat="44.266549344471485" lon="11.930913027133593"><ele>34.0</ele><time>2026-04-04T08:27:38.001Z</time></trkpt><trkpt lat="44.26647324237073" lon="11.931093022163259"><ele>33.75</ele><time>2026-04-04T08:27:39.001Z</time></trkpt><trkpt lat="44.266403685745715" lon="11.931276314462924"><ele>33.5</ele><time>2026-04-04T08:27:40.001Z</time></trkpt><trkpt lat="44.2663325988785" lon="11.931452302234604"><ele>33.25</ele><time>2026-04-04T08:27:41.001Z</time></trkpt><trkpt lat="44.266261680448785" lon="11.931625762889487"><ele>33.0</ele><time>2026-04-04T08:27:42.001Z</time></trkpt><trkpt lat="44.266188985815376" lon="11.931797052136467"><ele>32.5</ele><time>2026-04-04T08:27:43.001Z</time></trkpt><trkpt lat="44.26611667420333" lon="11.931971445710237"><ele>32.0</ele><time>2026-04-04T08:27:44.001Z</time></trkpt><trkpt lat="44.266041353302484" lon="11.932145266631506"><ele>31.5</ele><time>2026-04-04T08:27:45.001Z</time></trkpt><trkpt lat="44.26596986868655" lon="11.93231878465544"><ele>31.0</ele><time>2026-04-04T08:27:46.001Z</time></trkpt><trkpt lat="44.265907117429975" lon="11.932483889731555"><ele>30.8</ele><time>2026-04-04T08:27:47.001Z</time></trkpt><trkpt lat="44.26584876682769" lon="11.93262768238371"><ele>30.6</ele><time>2026-04-04T08:27:48.001Z</time></trkpt><trkpt lat="44.265791576226086" lon="11.932764159110976"><ele>30.4</ele><time>2026-04-04T08:27:49.001Z</time></trkpt><trkpt lat="44.2657512789272" lon="11.93286898812524"><ele>30.2</ele><time>2026-04-04T08:27:50.001Z</time></trkpt><trkpt lat="44.26571898487244" lon="11.932952024307165"><ele>30.0</ele><time>2026-04-04T08:27:51.001Z</time></trkpt><trkpt lat="44.26564625160176" lon="11.933008021570293"><ele>30.333333333333332</ele><time>2026-04-04T08:27:53.001Z</time></trkpt><trkpt lat="44.26556424236414" lon="11.932929965602746"><ele>30.666666666666664</ele><time>2026-04-04T08:27:55.001Z</time></trkpt><trkpt lat="44.26551156454703" lon="11.932866158239825"><ele>31.0</ele><time>2026-04-04T08:27:56.002Z</time></trkpt><trkpt lat="44.26544242383202" lon="11.932811676347386"><ele>31.333333333333332</ele><time>2026-04-04T08:27:57.002Z</time></trkpt><trkpt lat="44.2653657757002" lon="11.932753523060645"><ele>31.666666666666664</ele><time>2026-04-04T08:27:58.002Z</time></trkpt><trkpt lat="44.26528106638217" lon="11.932681167493111"><ele>32.0</ele><time>2026-04-04T08:27:59.002Z</time></trkpt><trkpt lat="44.265189184259654" lon="11.932604715034506"><ele>32.0</ele><time>2026-04-04T08:28:00.002Z</time></trkpt><trkpt lat="44.26509100795157" lon="11.932523864901698"><ele>32.0</ele><time>2026-04-04T08:28:01.002Z</time></trkpt><trkpt lat="44.2649872510605" lon="11.932437040289647"><ele>32.0</ele><time>2026-04-04T08:28:02.002Z</time></trkpt><trkpt lat="44.26487714182253" lon="11.932342799738114"><ele>32.0</ele><time>2026-04-04T08:28:03.002Z</time></trkpt><trkpt lat="44.26476209922605" lon="11.932242701438092"><ele>32.25</ele><time>2026-04-04T08:28:04.002Z</time></trkpt><trkpt lat="44.26464928027096" lon="11.932140936372798"><ele>32.5</ele><time>2026-04-04T08:28:05.002Z</time></trkpt><trkpt lat="44.26453442059186" lon="11.932037993468061"><ele>32.75</ele><time>2026-04-04T08:28:06.002Z</time></trkpt><trkpt lat="44.26441717279685" lon="11.93193771052069"><ele>33.0</ele><time>2026-04-04T08:28:07.002Z</time></trkpt><trkpt lat="44.26430344823524" lon="11.931846255214014"><ele>33.0</ele><time>2026-04-04T08:28:08.002Z</time></trkpt><trkpt lat="44.26418411591151" lon="11.931768729965743"><ele>33.0</ele><time>2026-04-04T08:28:09.002Z</time></trkpt><trkpt lat="44.26406154891054" lon="11.931706865414128"><ele>33.0</ele><time>2026-04-04T08:28:10.002Z</time></trkpt><trkpt lat="44.26392562000692" lon="11.931648260980532"><ele>33.0</ele><time>2026-04-04T08:28:11.002Z</time></trkpt><trkpt lat="44.26379192352499" lon="11.931592199998878"><ele>33.0</ele><time>2026-04-04T08:28:12.002Z</time></trkpt><trkpt lat="44.26364917124323" lon="11.931521193748006"><ele>33.0</ele><time>2026-04-04T08:28:13.002Z</time></trkpt><trkpt lat="44.26350473819203" lon="11.931458128605824"><ele>33.0</ele><time>2026-04-04T08:28:14.002Z</time></trkpt><trkpt lat="44.26336351774767" lon="11.931392366083593"><ele>33.0</ele><time>2026-04-04T08:28:15.002Z</time></trkpt><trkpt lat="44.26322290792986" lon="11.931324040270049"><ele>33.0</ele><time>2026-04-04T08:28:16.002Z</time></trkpt><trkpt lat="44.263084273353066" lon="11.931258840746464"><ele>33.0</ele><time>2026-04-04T08:28:17.002Z</time></trkpt><trkpt lat="44.26294942676292" lon="11.931186833266326"><ele>33.0</ele><time>2026-04-04T08:28:18.002Z</time></trkpt><trkpt lat="44.26281322638705" lon="11.931111049685649"><ele>33.25</ele><time>2026-04-04T08:28:19.002Z</time></trkpt><trkpt lat="44.262678577176395" lon="11.931024734618942"><ele>33.5</ele><time>2026-04-04T08:28:20.002Z</time></trkpt><trkpt lat="44.26255281823724" lon="11.930921896636034"><ele>33.75</ele><time>2026-04-04T08:28:21.002Z</time></trkpt><trkpt lat="44.26242642024469" lon="11.930809085678051"><ele>34.0</ele><time>2026-04-04T08:28:22.002Z</time></trkpt><trkpt lat="44.26230206880325" lon="11.93069079438473"><ele>35.0</ele><time>2026-04-04T08:28:23.002Z</time></trkpt><trkpt lat="44.26217665424027" lon="11.930561137200653"><ele>36.0</ele><time>2026-04-04T08:28:24.002Z</time></trkpt><trkpt lat="44.26204704152866" lon="11.930431449292657"><ele>37.0</ele><time>2026-04-04T08:28:25.002Z</time></trkpt><trkpt lat="44.26191617913058" lon="11.930302730707156"><ele>37.0</ele><time>2026-04-04T08:28:26.002Z</time></trkpt><trkpt lat="44.26178233189667" lon="11.930173824121626"><ele>37.0</ele><time>2026-04-04T08:28:27.002Z</time></trkpt><trkpt lat="44.26164839827029" lon="11.930047158826449"><ele>37.0</ele><time>2026-04-04T08:28:28.002Z</time></trkpt><trkpt lat="44.261515975156335" lon="11.929915650966167"><ele>36.66666666666667</ele><time>2026-04-04T08:28:29.003Z</time></trkpt><trkpt lat="44.26138047587958" lon="11.92979226074079"><ele>36.333333333333336</ele><time>2026-04-04T08:28:30.003Z</time></trkpt><trkpt lat="44.26124488933789" lon="11.929675742204372"><ele>36.0</ele><time>2026-04-04T08:28:31.003Z</time></trkpt><trkpt lat="44.261107522687134" lon="11.929565322161412"><ele>36.0</ele><time>2026-04-04T08:28:32.003Z</time></trkpt><trkpt lat="44.26096911952563" lon="11.929459951186"><ele>36.0</ele><time>2026-04-04T08:28:33.003Z</time></trkpt><trkpt lat="44.26083130957258" lon="11.929355577773501"><ele>36.0</ele><time>2026-04-04T08:28:34.003Z</time></trkpt><trkpt lat="44.26069349170927" lon="11.92925286572395"><ele>36.0</ele><time>2026-04-04T08:28:35.003Z</time></trkpt><trkpt lat="44.26055712966587" lon="11.929151394027151"><ele>36.0</ele><time>2026-04-04T08:28:36.003Z</time></trkpt><trkpt lat="44.26041863675047" lon="11.929038136052483"><ele>36.0</ele><time>2026-04-04T08:28:37.003Z</time></trkpt><trkpt lat="44.26028559652809" lon="11.928928347488164"><ele>36.0</ele><time>2026-04-04T08:28:38.003Z</time></trkpt><trkpt lat="44.26015092943681" lon="11.928817734995771"><ele>36.0</ele><time>2026-04-04T08:28:39.003Z</time></trkpt><trkpt lat="44.260015882487345" lon="11.928707633521498"><ele>36.0</ele><time>2026-04-04T08:28:40.003Z</time></trkpt><trkpt lat="44.259884507195665" lon="11.928590817825203"><ele>36.0</ele><time>2026-04-04T08:28:41.003Z</time></trkpt><trkpt lat="44.25975433145129" lon="11.92846885105894"><ele>36.0</ele><time>2026-04-04T08:28:42.003Z</time></trkpt><trkpt lat="44.25962664914093" lon="11.928347074440971"><ele>36.0</ele><time>2026-04-04T08:28:43.003Z</time></trkpt><trkpt lat="44.25950007569201" lon="11.928223759769393"><ele>36.25</ele><time>2026-04-04T08:28:44.003Z</time></trkpt><trkpt lat="44.25937545278883" lon="11.928100818142855"><ele>36.5</ele><time>2026-04-04T08:28:45.003Z</time></trkpt><trkpt lat="44.25925930460064" lon="11.927974903454064"><ele>36.75</ele><time>2026-04-04T08:28:46.003Z</time></trkpt><trkpt lat="44.259148013047074" lon="11.927851435738733"><ele>37.0</ele><time>2026-04-04T08:28:47.003Z</time></trkpt><trkpt lat="44.25903443325887" lon="11.927731991622782"><ele>37.0</ele><time>2026-04-04T08:28:48.003Z</time></trkpt><trkpt lat="44.25892277762925" lon="11.927612101509553"><ele>37.0</ele><time>2026-04-04T08:28:49.003Z</time></trkpt><trkpt lat="44.258813706740206" lon="11.927494311363777"><ele>37.0</ele><time>2026-04-04T08:28:50.003Z</time></trkpt><trkpt lat="44.25870151386424" lon="11.927374912121078"><ele>37.0</ele><time>2026-04-04T08:28:51.003Z</time></trkpt><trkpt lat="44.25859404330805" lon="11.927245356650674"><ele>37.0</ele><time>2026-04-04T08:28:52.003Z</time></trkpt><trkpt lat="44.25849056142557" lon="11.92712238503964"><ele>37.0</ele><time>2026-04-04T08:28:53.003Z</time></trkpt><trkpt lat="44.258387513047445" lon="11.926994344871787"><ele>37.0</ele><time>2026-04-04T08:28:54.003Z</time></trkpt><trkpt lat="44.25828926769339" lon="11.926873246876466"><ele>37.0</ele><time>2026-04-04T08:28:55.003Z</time></trkpt><trkpt lat="44.25819284345531" lon="11.926754301317251"><ele>37.25</ele><time>2026-04-04T08:28:56.003Z</time></trkpt><trkpt lat="44.25809726406115" lon="11.92663852302543"><ele>37.5</ele><time>2026-04-04T08:28:57.003Z</time></trkpt><trkpt lat="44.257999969432234" lon="11.926522035216156"><ele>37.75</ele><time>2026-04-04T08:28:58.003Z</time></trkpt><trkpt lat="44.25790040221243" lon="11.926412570868084"><ele>38.0</ele><time>2026-04-04T08:28:59Z</time></trkpt><trkpt lat="44.25779710709154" lon="11.92629594735147"><ele>38.0</ele><time>2026-04-04T08:29:00Z</time></trkpt><trkpt lat="44.257691644597" lon="11.926175235482713"><ele>38.0</ele><time>2026-04-04T08:29:01Z</time></trkpt><trkpt lat="44.2575856358452" lon="11.926054096894143"><ele>38.0</ele><time>2026-04-04T08:29:02Z</time></trkpt><trkpt lat="44.25747347726061" lon="11.925931085033975"><ele>38.0</ele><time>2026-04-04T08:29:03Z</time></trkpt><trkpt lat="44.257358366500746" lon="11.925801438252892"><ele>38.33333333333333</ele><time>2026-04-04T08:29:04Z</time></trkpt><trkpt lat="44.25723990369542" lon="11.9256724298459"><ele>38.666666666666664</ele><time>2026-04-04T08:29:05Z</time></trkpt><trkpt lat="44.257120590270226" lon="11.92554013865171"><ele>39.0</ele><time>2026-04-04T08:29:06Z</time></trkpt><trkpt lat="44.256999210675886" lon="11.925403364297281"><ele>39.0</ele><time>2026-04-04T08:29:07Z</time></trkpt><trkpt lat="44.2568741606317" lon="11.925266484242627"><ele>39.0</ele><time>2026-04-04T08:29:08Z</time></trkpt><trkpt lat="44.25674848375585" lon="11.925127761799738"><ele>39.0</ele><time>2026-04-04T08:29:09Z</time></trkpt><trkpt lat="44.25662132956468" lon="11.92498604985165"><ele>39.0</ele><time>2026-04-04T08:29:10Z</time></trkpt><trkpt lat="44.25649125386909" lon="11.92484219689224"><ele>39.0</ele><time>2026-04-04T08:29:11Z</time></trkpt><trkpt lat="44.256363001438714" lon="11.924696049666018"><ele>39.0</ele><time>2026-04-04T08:29:12Z</time></trkpt><trkpt lat="44.25623211937605" lon="11.924557678745318"><ele>39.333333333333336</ele><time>2026-04-04T08:29:13Z</time></trkpt><trkpt lat="44.25610031301981" lon="11.924422287593616"><ele>39.66666666666667</ele><time>2026-04-04T08:29:14Z</time></trkpt><trkpt lat="44.2559719378542" lon="11.92428446401767"><ele>40.0</ele><time>2026-04-04T08:29:15Z</time></trkpt><trkpt lat="44.25584479730203" lon="11.924148603812169"><ele>40.0</ele><time>2026-04-04T08:29:16Z</time></trkpt><trkpt lat="44.25571887622423" lon="11.924013150208708"><ele>40.0</ele><time>2026-04-04T08:29:17Z</time></trkpt><trkpt lat="44.25559490535242" lon="11.9238770646078"><ele>40.0</ele><time>2026-04-04T08:29:18Z</time></trkpt><trkpt lat="44.255477217271334" lon="11.92374166187817"><ele>40.0</ele><time>2026-04-04T08:29:19Z</time></trkpt><trkpt lat="44.255368910118854" lon="11.923611884751983"><ele>40.0</ele><time>2026-04-04T08:29:20Z</time></trkpt><trkpt lat="44.255262835876195" lon="11.923485193071848"><ele>40.0</ele><time>2026-04-04T08:29:21Z</time></trkpt><trkpt lat="44.255163126323765" lon="11.923369612940002"><ele>40.0</ele><time>2026-04-04T08:29:22Z</time></trkpt><trkpt lat="44.255077410854184" lon="11.923268398521982"><ele>40.0</ele><time>2026-04-04T08:29:23Z</time></trkpt><trkpt lat="44.25500943091701" lon="11.92318896957719"><ele>40.0</ele><time>2026-04-04T08:29:24Z</time></trkpt><trkpt lat="44.254952398118775" lon="11.92313234356435"><ele>40.0</ele><time>2026-04-04T08:29:25Z</time></trkpt><trkpt lat="44.25484497161011" lon="11.923149328049693"><ele>40.0</ele><time>2026-04-04T08:29:27Z</time></trkpt><trkpt lat="44.254787892379454" lon="11.923231674796426"><ele>40.0</ele><time>2026-04-04T08:29:28Z</time></trkpt><trkpt lat="44.2547371505043" lon="11.923325439318914"><ele>40.0</ele><time>2026-04-04T08:29:29.001Z</time></trkpt><trkpt lat="44.254669843399064" lon="11.923411592185333"><ele>40.0</ele><time>2026-04-04T08:29:30.001Z</time></trkpt><trkpt lat="44.25459045356205" lon="11.923511729775365"><ele>40.0</ele><time>2026-04-04T08:29:31.001Z</time></trkpt><trkpt lat="44.25450867705868" lon="11.923622059929112"><ele>40.0</ele><time>2026-04-04T08:29:32.001Z</time></trkpt><trkpt lat="44.25442880874662" lon="11.923739961993592"><ele>40.0</ele><time>2026-04-04T08:29:33.001Z</time></trkpt><trkpt lat="44.25434299649743" lon="11.923863152540617"><ele>40.0</ele><time>2026-04-04T08:29:34.001Z</time></trkpt><trkpt lat="44.25425449345344" lon="11.923992573370597"><ele>40.0</ele><time>2026-04-04T08:29:35.001Z</time></trkpt><trkpt lat="44.254162780249686" lon="11.924128066900296"><ele>40.0</ele><time>2026-04-04T08:29:36.001Z</time></trkpt><trkpt lat="44.25406760464415" lon="11.924263417555142"><ele>40.0</ele><time>2026-04-04T08:29:37.001Z</time></trkpt><trkpt lat="44.25397243431188" lon="11.924397085976512"><ele>40.0</ele><time>2026-04-04T08:29:38.001Z</time></trkpt><trkpt lat="44.25387627463758" lon="11.924529710839227"><ele>40.0</ele><time>2026-04-04T08:29:39.001Z</time></trkpt><trkpt lat="44.25378307259428" lon="11.924663338713243"><ele>40.0</ele><time>2026-04-04T08:29:40.001Z</time></trkpt><trkpt lat="44.253690846378724" lon="11.924801441638502"><ele>40.0</ele><time>2026-04-04T08:29:41.001Z</time></trkpt><trkpt lat="44.25360244600582" lon="11.924933863941314"><ele>40.0</ele><time>2026-04-04T08:29:42.001Z</time></trkpt><trkpt lat="44.25351533606447" lon="11.925056914858047"><ele>40.0</ele><time>2026-04-04T08:29:43.001Z</time></trkpt><trkpt lat="44.25342838612357" lon="11.925171949240772"><ele>40.0</ele><time>2026-04-04T08:29:44.001Z</time></trkpt><trkpt lat="44.25333071945951" lon="11.925268893395538"><ele>40.0</ele><time>2026-04-04T08:29:45.001Z</time></trkpt><trkpt lat="44.253215495409485" lon="11.92535119975772"><ele>40.0</ele><time>2026-04-04T08:29:46.001Z</time></trkpt><trkpt lat="44.25308806690191" lon="11.925414811759367"><ele>40.0</ele><time>2026-04-04T08:29:47.001Z</time></trkpt><trkpt lat="44.25295672537145" lon="11.92548295225898"><ele>40.0</ele><time>2026-04-04T08:29:48.001Z</time></trkpt><trkpt lat="44.25281847165413" lon="11.925543970335626"><ele>40.0</ele><time>2026-04-04T08:29:49.001Z</time></trkpt><trkpt lat="44.252673794666435" lon="11.925603099140913"><ele>40.0</ele><time>2026-04-04T08:29:50.001Z</time></trkpt><trkpt lat="44.25252659567723" lon="11.925671271956618"><ele>40.0</ele><time>2026-04-04T08:29:51.001Z</time></trkpt><trkpt lat="44.25237751811235" lon="11.925741754036341"><ele>40.0</ele><time>2026-04-04T08:29:52.001Z</time></trkpt><trkpt lat="44.25222882805756" lon="11.92581057330664"><ele>40.0</ele><time>2026-04-04T08:29:53.001Z</time></trkpt><trkpt lat="44.25208367703325" lon="11.925879126262695"><ele>40.0</ele><time>2026-04-04T08:29:54.001Z</time></trkpt><trkpt lat="44.25193771003362" lon="11.9259466888606"><ele>40.0</ele><time>2026-04-04T08:29:55.001Z</time></trkpt><trkpt lat="44.251792347826736" lon="11.926014105095676"><ele>40.25</ele><time>2026-04-04T08:29:56.001Z</time></trkpt><trkpt lat="44.251649522472405" lon="11.926079707478186"><ele>40.5</ele><time>2026-04-04T08:29:57.001Z</time></trkpt><trkpt lat="44.251507676106606" lon="11.926141521072068"><ele>40.75</ele><time>2026-04-04T08:29:58.001Z</time></trkpt><trkpt lat="44.251375001774655" lon="11.926206918575092"><ele>41.0</ele><time>2026-04-04T08:29:59.001Z</time></trkpt><trkpt lat="44.25124468076277" lon="11.926270098169006"><ele>41.0</ele><time>2026-04-04T08:30:00.001Z</time></trkpt><trkpt lat="44.25111687988946" lon="11.92630713162373"><ele>41.0</ele><time>2026-04-04T08:30:01.001Z</time></trkpt><trkpt lat="44.25099416648866" lon="11.926283238104698"><ele>41.0</ele><time>2026-04-04T08:30:02.002Z</time></trkpt><trkpt lat="44.25088078858982" lon="11.926205465566177"><ele>41.0</ele><time>2026-04-04T08:30:03.002Z</time></trkpt><trkpt lat="44.25077702318631" lon="11.926093107145752"><ele>41.0</ele><time>2026-04-04T08:30:04.002Z</time></trkpt><trkpt lat="44.25067250137182" lon="11.925974520449676"><ele>41.0</ele><time>2026-04-04T08:30:05.002Z</time></trkpt><trkpt lat="44.250566013010584" lon="11.925869439640225"><ele>41.0</ele><time>2026-04-04T08:30:06.002Z</time></trkpt><trkpt lat="44.250456518459075" lon="11.925768090783501"><ele>41.0</ele><time>2026-04-04T08:30:07.002Z</time></trkpt><trkpt lat="44.25035080858076" lon="11.925665837775028"><ele>41.0</ele><time>2026-04-04T08:30:08.002Z</time></trkpt><trkpt lat="44.25024378629022" lon="11.925568535734309"><ele>41.0</ele><time>2026-04-04T08:30:09.002Z</time></trkpt><trkpt lat="44.250126615405435" lon="11.925497442128712"><ele>41.0</ele><time>2026-04-04T08:30:10.002Z</time></trkpt><trkpt lat="44.24999969464954" lon="11.92546428622461"><ele>41.0</ele><time>2026-04-04T08:30:11.002Z</time></trkpt><trkpt lat="44.249867606354925" lon="11.925474046680465"><ele>41.25</ele><time>2026-04-04T08:30:12.002Z</time></trkpt><trkpt lat="44.24973560385047" lon="11.925510373643737"><ele>41.5</ele><time>2026-04-04T08:30:13.002Z</time></trkpt><trkpt lat="44.24960359362707" lon="11.925549927551472"><ele>41.75</ele><time>2026-04-04T08:30:14.002Z</time></trkpt><trkpt lat="44.24947409821323" lon="11.925588755768294"><ele>42.0</ele><time>2026-04-04T08:30:15.002Z</time></trkpt><trkpt lat="44.249344719229896" lon="11.92562229272579"><ele>42.0</ele><time>2026-04-04T08:30:16.002Z</time></trkpt><trkpt lat="44.24921371971444" lon="11.925650475996692"><ele>42.0</ele><time>2026-04-04T08:30:17.002Z</time></trkpt><trkpt lat="44.24908278752455" lon="11.925681040793247"><ele>42.0</ele><time>2026-04-04T08:30:18.002Z</time></trkpt><trkpt lat="44.248953371100534" lon="11.925711124209935"><ele>42.0</ele><time>2026-04-04T08:30:19.002Z</time></trkpt><trkpt lat="44.24882484493925" lon="11.925742997224418"><ele>42.0</ele><time>2026-04-04T08:30:20.002Z</time></trkpt><trkpt lat="44.24869640373975" lon="11.925768971332491"><ele>42.0</ele><time>2026-04-04T08:30:21.002Z</time></trkpt><trkpt lat="44.24856751595905" lon="11.925790259191867"><ele>42.0</ele><time>2026-04-04T08:30:22.002Z</time></trkpt><trkpt lat="44.24843744609521" lon="11.925817530014895"><ele>42.0</ele><time>2026-04-04T08:30:23.002Z</time></trkpt><trkpt lat="44.248304075417" lon="11.925847370856625"><ele>42.0</ele><time>2026-04-04T08:30:24.002Z</time></trkpt><trkpt lat="44.248167924131145" lon="11.925880007597154"><ele>42.0</ele><time>2026-04-04T08:30:25.002Z</time></trkpt><trkpt lat="44.248031621239086" lon="11.92590724450994"><ele>42.0</ele><time>2026-04-04T08:30:26.002Z</time></trkpt><trkpt lat="44.24789607980018" lon="11.925931946839572"><ele>42.0</ele><time>2026-04-04T08:30:27.002Z</time></trkpt><trkpt lat="44.247764128982936" lon="11.925957170507237"><ele>41.75</ele><time>2026-04-04T08:30:28.002Z</time></trkpt><trkpt lat="44.247630996452315" lon="11.925987157189546"><ele>41.5</ele><time>2026-04-04T08:30:29.002Z</time></trkpt><trkpt lat="44.247504788612076" lon="11.926047533359991"><ele>41.25</ele><time>2026-04-04T08:30:30.002Z</time></trkpt><trkpt lat="44.24739515526379" lon="11.926136237218014"><ele>41.0</ele><time>2026-04-04T08:30:31.002Z</time></trkpt><trkpt lat="44.24730326556493" lon="11.926255370007636"><ele>41.5</ele><time>2026-04-04T08:30:32.002Z</time></trkpt><trkpt lat="44.24721448492938" lon="11.926391318099725"><ele>42.0</ele><time>2026-04-04T08:30:33.002Z</time></trkpt><trkpt lat="44.24712804720474" lon="11.92653037746438"><ele>42.5</ele><time>2026-04-04T08:30:34.002Z</time></trkpt><trkpt lat="44.247035784263566" lon="11.92667234777168"><ele>43.0</ele><time>2026-04-04T08:30:35.003Z</time></trkpt><trkpt lat="44.246939925541135" lon="11.926815071897408"><ele>43.0</ele><time>2026-04-04T08:30:36.003Z</time></trkpt><trkpt lat="44.24684331688687" lon="11.92696014060997"><ele>43.0</ele><time>2026-04-04T08:30:37.003Z</time></trkpt><trkpt lat="44.24674677657087" lon="11.927110860353343"><ele>43.0</ele><time>2026-04-04T08:30:38.003Z</time></trkpt><trkpt lat="44.24664915932578" lon="11.9272641466414"><ele>43.0</ele><time>2026-04-04T08:30:39.003Z</time></trkpt><trkpt lat="44.24655131029015" lon="11.927415160279976"><ele>43.0</ele><time>2026-04-04T08:30:40.003Z</time></trkpt><trkpt lat="44.246453389966035" lon="11.927565788657418"><ele>43.0</ele><time>2026-04-04T08:30:41.003Z</time></trkpt><trkpt lat="44.246356038876826" lon="11.92771331820715"><ele>43.0</ele><time>2026-04-04T08:30:42.003Z</time></trkpt><trkpt lat="44.24626097637484" lon="11.927859206419374"><ele>43.0</ele><time>2026-04-04T08:30:43.003Z</time></trkpt><trkpt lat="44.246170957335885" lon="11.927997556169457"><ele>43.0</ele><time>2026-04-04T08:30:44.003Z</time></trkpt><trkpt lat="44.24608390563433" lon="11.928133978190612"><ele>43.0</ele><time>2026-04-04T08:30:45.003Z</time></trkpt><trkpt lat="44.24600117627334" lon="11.92826774119711"><ele>43.0</ele><time>2026-04-04T08:30:46.003Z</time></trkpt><trkpt lat="44.24592163412741" lon="11.928395774466699"><ele>43.0</ele><time>2026-04-04T08:30:47.003Z</time></trkpt><trkpt lat="44.245842657491245" lon="11.928514577954148"><ele>43.0</ele><time>2026-04-04T08:30:48.003Z</time></trkpt><trkpt lat="44.245759378811385" lon="11.928626749264918"><ele>43.0</ele><time>2026-04-04T08:30:49.003Z</time></trkpt><trkpt lat="44.24568438525306" lon="11.92874677594084"><ele>43.0</ele><time>2026-04-04T08:30:50.003Z</time></trkpt><trkpt lat="44.24561756928508" lon="11.92887378377131"><ele>43.0</ele><time>2026-04-04T08:30:51.003Z</time></trkpt><trkpt lat="44.2455410155825" lon="11.929000850836964"><ele>43.0</ele><time>2026-04-04T08:30:52.003Z</time></trkpt><trkpt lat="44.24547511841512" lon="11.929140747889393"><ele>43.0</ele><time>2026-04-04T08:30:53.003Z</time></trkpt><trkpt lat="44.245395695236574" lon="11.929269412058767"><ele>43.0</ele><time>2026-04-04T08:30:54.003Z</time></trkpt><trkpt lat="44.245313223246114" lon="11.92940455042478"><ele>43.0</ele><time>2026-04-04T08:30:55.003Z</time></trkpt><trkpt lat="44.245231746964706" lon="11.929543680985834"><ele>43.0</ele><time>2026-04-04T08:30:56.003Z</time></trkpt><trkpt lat="44.24514764055936" lon="11.929681233453577"><ele>43.0</ele><time>2026-04-04T08:30:57.003Z</time></trkpt><trkpt lat="44.24506491744543" lon="11.929820482353362"><ele>43.0</ele><time>2026-04-04T08:30:58.003Z</time></trkpt><trkpt lat="44.24498620188571" lon="11.929959519820937"><ele>43.0</ele><time>2026-04-04T08:30:59.003Z</time></trkpt><trkpt lat="44.24490748404368" lon="11.93009571129654"><ele>43.25</ele><time>2026-04-04T08:31:00.003Z</time></trkpt><trkpt lat="44.24483032585095" lon="11.930231766669756"><ele>43.5</ele><time>2026-04-04T08:31:01.003Z</time></trkpt><trkpt lat="44.244752696871835" lon="11.930371152996392"><ele>43.75</ele><time>2026-04-04T08:31:02.003Z</time></trkpt><trkpt lat="44.24467407840532" lon="11.930510596750466"><ele>44.0</ele><time>2026-04-04T08:31:03.003Z</time></trkpt><trkpt lat="44.24458894826537" lon="11.930649199710246"><ele>44.25</ele><time>2026-04-04T08:31:04.003Z</time></trkpt><trkpt lat="44.24450666151272" lon="11.930781509522587"><ele>44.5</ele><time>2026-04-04T08:31:05Z</time></trkpt><trkpt lat="44.244420383596456" lon="11.930907010080027"><ele>44.75</ele><time>2026-04-04T08:31:06Z</time></trkpt><trkpt lat="44.244325265948405" lon="11.931018785848332"><ele>45.0</ele><time>2026-04-04T08:31:07Z</time></trkpt><trkpt lat="44.24422938125419" lon="11.931129581545916"><ele>45.0</ele><time>2026-04-04T08:31:08Z</time></trkpt><trkpt lat="44.24413839876209" lon="11.931216339799898"><ele>45.0</ele><time>2026-04-04T08:31:09Z</time></trkpt><trkpt lat="44.2440563790777" lon="11.931287632078202"><ele>45.0</ele><time>2026-04-04T08:31:10Z</time></trkpt><trkpt lat="44.24398521013686" lon="11.931355229748501"><ele>45.0</ele><time>2026-04-04T08:31:11Z</time></trkpt><trkpt lat="44.24392474756743" lon="11.931410801309031"><ele>45.0</ele><time>2026-04-04T08:31:12Z</time></trkpt><trkpt lat="44.243836207045646" lon="11.9314014519017"><ele>45.2</ele><time>2026-04-04T08:31:14Z</time></trkpt><trkpt lat="44.24380383525929" lon="11.931241772250335"><ele>45.4</ele><time>2026-04-04T08:31:16Z</time></trkpt><trkpt lat="44.243799751432775" lon="11.931138451820358"><ele>45.599999999999994</ele><time>2026-04-04T08:31:17Z</time></trkpt><trkpt lat="44.24375665171841" lon="11.931032348039192"><ele>45.8</ele><time>2026-04-04T08:31:18Z</time></trkpt><trkpt lat="44.24369324315316" lon="11.930929165272891"><ele>46.0</ele><time>2026-04-04T08:31:19Z</time></trkpt><trkpt lat="44.24362458878846" lon="11.930821885770822"><ele>46.0</ele><time>2026-04-04T08:31:20Z</time></trkpt><trkpt lat="44.24356351190218" lon="11.930707510097927"><ele>46.0</ele><time>2026-04-04T08:31:21Z</time></trkpt><trkpt lat="44.24353457843996" lon="11.930568592320572"><ele>46.0</ele><time>2026-04-04T08:31:22Z</time></trkpt><trkpt lat="44.24353861769174" lon="11.930413176321023"><ele>46.0</ele><time>2026-04-04T08:31:23Z</time></trkpt><trkpt lat="44.243590736202854" lon="11.930257123046172"><ele>46.0</ele><time>2026-04-04T08:31:24Z</time></trkpt><trkpt lat="44.24366194151107" lon="11.930109353248039"><ele>46.0</ele><time>2026-04-04T08:31:25Z</time></trkpt><trkpt lat="44.24373423496721" lon="11.929971636955228"><ele>46.0</ele><time>2026-04-04T08:31:26Z</time></trkpt><trkpt lat="44.24379693168712" lon="11.929835885086375"><ele>46.0</ele><time>2026-04-04T08:31:27Z</time></trkpt><trkpt lat="44.24384374811867" lon="11.92970790185508"><ele>46.0</ele><time>2026-04-04T08:31:28Z</time></trkpt><trkpt lat="44.243858008209216" lon="11.929566372540524"><ele>46.0</ele><time>2026-04-04T08:31:29Z</time></trkpt><trkpt lat="44.243830066487526" lon="11.929423303753738"><ele>46.0</ele><time>2026-04-04T08:31:30Z</time></trkpt><trkpt lat="44.24376338345997" lon="11.929296682200746"><ele>46.0</ele><time>2026-04-04T08:31:31Z</time></trkpt><trkpt lat="44.24367481833404" lon="11.929180213839425"><ele>46.0</ele><time>2026-04-04T08:31:32Z</time></trkpt><trkpt lat="44.24358397863666" lon="11.929057231517662"><ele>46.0</ele><time>2026-04-04T08:31:33Z</time></trkpt><trkpt lat="44.243499833880165" lon="11.928934722357942"><ele>46.0</ele><time>2026-04-04T08:31:34Z</time></trkpt><trkpt lat="44.24342191086035" lon="11.928817410827552"><ele>46.0</ele><time>2026-04-04T08:31:35Z</time></trkpt><trkpt lat="44.24336141637049" lon="11.928724626341106"><ele>46.0</ele><time>2026-04-04T08:31:36Z</time></trkpt><trkpt lat="44.243318155654876" lon="11.928651991990009"><ele>46.0</ele><time>2026-04-04T08:31:37.001Z</time></trkpt><trkpt lat="44.24328123247696" lon="11.928563333670917"><ele>46.0</ele><time>2026-04-04T08:31:38.001Z</time></trkpt><trkpt lat="44.24325945378729" lon="11.928457449743489"><ele>46.0</ele><time>2026-04-04T08:31:39.001Z</time></trkpt><trkpt lat="44.24326046427479" lon="11.928346685279427"><ele>46.0</ele><time>2026-04-04T08:31:40.001Z</time></trkpt><trkpt lat="44.24328723788322" lon="11.92823483858161"><ele>46.0</ele><time>2026-04-04T08:31:41.001Z</time></trkpt><trkpt lat="44.24332446462136" lon="11.928117219322486"><ele>46.0</ele><time>2026-04-04T08:31:42.001Z</time></trkpt><trkpt lat="44.24337551776053" lon="11.927990181951053"><ele>46.0</ele><time>2026-04-04T08:31:43.001Z</time></trkpt><trkpt lat="44.24343398445682" lon="11.927856471633424"><ele>46.0</ele><time>2026-04-04T08:31:44.001Z</time></trkpt><trkpt lat="44.2435006529374" lon="11.92771776397872"><ele>46.0</ele><time>2026-04-04T08:31:45.001Z</time></trkpt><trkpt lat="44.24356671613643" lon="11.927567889392327"><ele>46.0</ele><time>2026-04-04T08:31:46.001Z</time></trkpt><trkpt lat="44.24363707146144" lon="11.927414562401202"><ele>46.0</ele><time>2026-04-04T08:31:47.001Z</time></trkpt><trkpt lat="44.243713857049954" lon="11.927255811169749"><ele>46.0</ele><time>2026-04-04T08:31:48.001Z</time></trkpt><trkpt lat="44.24379483073013" lon="11.927091699673374"><ele>46.0</ele><time>2026-04-04T08:31:49.001Z</time></trkpt><trkpt lat="44.24387212953295" lon="11.926923730594863"><ele>46.0</ele><time>2026-04-04T08:31:50.001Z</time></trkpt><trkpt lat="44.24394674354196" lon="11.926755368349248"><ele>46.0</ele><time>2026-04-04T08:31:51.001Z</time></trkpt><trkpt lat="44.24401997362506" lon="11.926593941567402"><ele>46.0</ele><time>2026-04-04T08:31:52.001Z</time></trkpt><trkpt lat="44.24408425056679" lon="11.926446269549853"><ele>46.0</ele><time>2026-04-04T08:31:53.001Z</time></trkpt><trkpt lat="44.244134219878696" lon="11.926304458682461"><ele>46.0</ele><time>2026-04-04T08:31:54.001Z</time></trkpt><trkpt lat="44.2441564671177" lon="11.926167021265577"><ele>46.0</ele><time>2026-04-04T08:31:55.001Z</time></trkpt><trkpt lat="44.24414255751119" lon="11.926042381518474"><ele>46.0</ele><time>2026-04-04T08:31:56.001Z</time></trkpt><trkpt lat="44.24410007835937" lon="11.925930884833514"><ele>46.0</ele><time>2026-04-04T08:31:57.001Z</time></trkpt><trkpt lat="44.24403396707342" lon="11.925853292059394"><ele>46.4</ele><time>2026-04-04T08:31:58.001Z</time></trkpt><trkpt lat="44.243946930256726" lon="11.925793722033491"><ele>46.8</ele><time>2026-04-04T08:31:59.001Z</time></trkpt><trkpt lat="44.24385378468077" lon="11.925727049885381"><ele>47.199999999999996</ele><time>2026-04-04T08:32:00.001Z</time></trkpt><trkpt lat="44.243758239918975" lon="11.925653722342691"><ele>47.599999999999994</ele><time>2026-04-04T08:32:01.001Z</time></trkpt><trkpt lat="44.24365696936185" lon="11.925575818418533"><ele>48.0</ele><time>2026-04-04T08:32:02.001Z</time></trkpt><trkpt lat="44.24355313743204" lon="11.925495220068143"><ele>48.0</ele><time>2026-04-04T08:32:03.001Z</time></trkpt><trkpt lat="44.243440299669885" lon="11.925402786123424"><ele>48.0</ele><time>2026-04-04T08:32:04.001Z</time></trkpt><trkpt lat="44.24332489609045" lon="11.925321996845213"><ele>48.0</ele><time>2026-04-04T08:32:05.001Z</time></trkpt><trkpt lat="44.243202815726015" lon="11.925243418885751"><ele>48.0</ele><time>2026-04-04T08:32:06.001Z</time></trkpt><trkpt lat="44.243079619588315" lon="11.92516365275131"><ele>48.5</ele><time>2026-04-04T08:32:07.001Z</time></trkpt><trkpt lat="44.242972792662954" lon="11.92509469636278"><ele>49.0</ele><time>2026-04-04T08:32:08.001Z</time></trkpt><trkpt lat="44.242868670156675" lon="11.925030306999997"><ele>49.5</ele><time>2026-04-04T08:32:09.001Z</time></trkpt><trkpt lat="44.24275609778556" lon="11.924965071710906"><ele>50.0</ele><time>2026-04-04T08:32:10.002Z</time></trkpt><trkpt lat="44.24264240898477" lon="11.924897806695412"><ele>50.25</ele><time>2026-04-04T08:32:11.002Z</time></trkpt><trkpt lat="44.24252505779092" lon="11.924825666438648"><ele>50.5</ele><time>2026-04-04T08:32:12.002Z</time></trkpt><trkpt lat="44.24240467234746" lon="11.924751325236933"><ele>50.75</ele><time>2026-04-04T08:32:13.002Z</time></trkpt><trkpt lat="44.24228049560426" lon="11.924672055662253"><ele>51.0</ele><time>2026-04-04T08:32:14.002Z</time></trkpt><trkpt lat="44.2421525593192" lon="11.924591946683877"><ele>51.25</ele><time>2026-04-04T08:32:15.002Z</time></trkpt><trkpt lat="44.24202380384312" lon="11.924511117974996"><ele>51.5</ele><time>2026-04-04T08:32:16.002Z</time></trkpt><trkpt lat="44.2418920706224" lon="11.924435864491063"><ele>51.75</ele><time>2026-04-04T08:32:17.002Z</time></trkpt><trkpt lat="44.24175798728426" lon="11.924361109135287"><ele>52.0</ele><time>2026-04-04T08:32:18.002Z</time></trkpt><trkpt lat="44.241625118701016" lon="11.924292921768993"><ele>52.0</ele><time>2026-04-04T08:32:19.002Z</time></trkpt><trkpt lat="44.24149331814641" lon="11.924221321693926"><ele>52.0</ele><time>2026-04-04T08:32:20.002Z</time></trkpt><trkpt lat="44.24136346094252" lon="11.924147268758869"><ele>52.0</ele><time>2026-04-04T08:32:21.002Z</time></trkpt><trkpt lat="44.24123518564076" lon="11.924070032406892"><ele>52.0</ele><time>2026-04-04T08:32:22.002Z</time></trkpt><trkpt lat="44.241107606736335" lon="11.923998693258115"><ele>52.0</ele><time>2026-04-04T08:32:23.002Z</time></trkpt><trkpt lat="44.24097827119479" lon="11.923931392428797"><ele>52.0</ele><time>2026-04-04T08:32:24.002Z</time></trkpt><trkpt lat="44.24085167181418" lon="11.923854968571195"><ele>52.0</ele><time>2026-04-04T08:32:25.002Z</time></trkpt><trkpt lat="44.240728228280744" lon="11.9237766745337"><ele>52.0</ele><time>2026-04-04T08:32:26.002Z</time></trkpt><trkpt lat="44.24060539380123" lon="11.923697702637861"><ele>52.25</ele><time>2026-04-04T08:32:27.002Z</time></trkpt><trkpt lat="44.24048717125373" lon="11.923609169445536"><ele>52.5</ele><time>2026-04-04T08:32:28.002Z</time></trkpt><trkpt lat="44.24037702564471" lon="11.923516969186544"><ele>52.75</ele><time>2026-04-04T08:32:29.002Z</time></trkpt><trkpt lat="44.240278386084604" lon="11.92342425437588"><ele>53.0</ele><time>2026-04-04T08:32:30.002Z</time></trkpt><trkpt lat="44.24018617025697" lon="11.923333834311292"><ele>53.0</ele><time>2026-04-04T08:32:31.002Z</time></trkpt><trkpt lat="44.240099675468784" lon="11.923247318552907"><ele>53.0</ele><time>2026-04-04T08:32:32.002Z</time></trkpt><trkpt lat="44.24002451756964" lon="11.923170365783195"><ele>53.0</ele><time>2026-04-04T08:32:33.002Z</time></trkpt><trkpt lat="44.23996271695616" lon="11.923107660774798"><ele>53.0</ele><time>2026-04-04T08:32:34.002Z</time></trkpt><trkpt lat="44.23990019417827" lon="11.923033942729054"><ele>53.0</ele><time>2026-04-04T08:32:36.002Z</time></trkpt><trkpt lat="44.23981429451173" lon="11.922979259104975"><ele>53.00000000000001</ele><time>2026-04-04T08:32:40.002Z</time></trkpt><trkpt lat="44.23973235812566" lon="11.923030478136765"><ele>53.0</ele><time>2026-04-04T08:32:42.002Z</time></trkpt><trkpt lat="44.23964967853066" lon="11.923063881603309"><ele>53.0</ele><time>2026-04-04T08:32:44.003Z</time></trkpt><trkpt lat="44.23953403558252" lon="11.92309102261898"><ele>53.0</ele><time>2026-04-04T08:32:46.003Z</time></trkpt><trkpt lat="44.2394692738201" lon="11.923106458987442"><ele>53.00000000000001</ele><time>2026-04-04T08:32:47.003Z</time></trkpt><trkpt lat="44.239405722982426" lon="11.923125128346316"><ele>53.0</ele><time>2026-04-04T08:32:48.003Z</time></trkpt><trkpt lat="44.23934315930789" lon="11.923146064531776"><ele>53.00000000000001</ele><time>2026-04-04T08:32:49.003Z</time></trkpt><trkpt lat="44.239246332619636" lon="11.923182506543233"><ele>53.0</ele><time>2026-04-04T08:32:51.003Z</time></trkpt><trkpt lat="44.23918393177863" lon="11.923203426736375"><ele>53.0</ele><time>2026-04-04T08:32:52.003Z</time></trkpt><trkpt lat="44.23911143704441" lon="11.92323128006579"><ele>53.0</ele><time>2026-04-04T08:32:53.003Z</time></trkpt><trkpt lat="44.2390351729677" lon="11.923250868349134"><ele>53.00000000000001</ele><time>2026-04-04T08:32:54.003Z</time></trkpt><trkpt lat="44.23895123445205" lon="11.923273631865744"><ele>53.0</ele><time>2026-04-04T08:32:55.003Z</time></trkpt><trkpt lat="44.238855811576826" lon="11.923295852713942"><ele>54.0</ele><time>2026-04-04T08:32:56.003Z</time></trkpt><trkpt lat="44.2387567655075" lon="11.923326489546577"><ele>55.0</ele><time>2026-04-04T08:32:57.003Z</time></trkpt><trkpt lat="44.238651295412424" lon="11.923358520835013"><ele>56.0</ele><time>2026-04-04T08:32:58.003Z</time></trkpt><trkpt lat="44.238538708014076" lon="11.923389438464636"><ele>57.0</ele><time>2026-04-04T08:32:59.003Z</time></trkpt><trkpt lat="44.23842793506108" lon="11.923423558151072"><ele>58.0</ele><time>2026-04-04T08:33:00.003Z</time></trkpt><trkpt lat="44.238325101343285" lon="11.9234566080161"><ele>58.0</ele><time>2026-04-04T08:33:01.003Z</time></trkpt><trkpt lat="44.23822472596182" lon="11.923487007140848"><ele>58.0</ele><time>2026-04-04T08:33:02.003Z</time></trkpt><trkpt lat="44.23812036515856" lon="11.923512799725756"><ele>58.0</ele><time>2026-04-04T08:33:03.003Z</time></trkpt><trkpt lat="44.23801796161787" lon="11.923521307759142"><ele>58.0</ele><time>2026-04-04T08:33:04.003Z</time></trkpt><trkpt lat="44.23790670494076" lon="11.923516755571603"><ele>58.0</ele><time>2026-04-04T08:33:05.003Z</time></trkpt><trkpt lat="44.237792125998176" lon="11.92348646533768"><ele>58.25</ele><time>2026-04-04T08:33:06.003Z</time></trkpt><trkpt lat="44.23766945494549" lon="11.923446514712765"><ele>58.5</ele><time>2026-04-04T08:33:07.003Z</time></trkpt><trkpt lat="44.23755474392686" lon="11.923376280678955"><ele>58.75</ele><time>2026-04-04T08:33:08.003Z</time></trkpt><trkpt lat="44.23743565019362" lon="11.92330091444254"><ele>59.0</ele><time>2026-04-04T08:33:09.003Z</time></trkpt><trkpt lat="44.23732774025351" lon="11.923208677462817"><ele>59.5</ele><time>2026-04-04T08:33:10.003Z</time></trkpt><trkpt lat="44.237217710858474" lon="11.923121071683147"><ele>60.0</ele><time>2026-04-04T08:33:11Z</time></trkpt><trkpt lat="44.23711399331407" lon="11.923029664909185"><ele>60.5</ele><time>2026-04-04T08:33:12Z</time></trkpt><trkpt lat="44.2370044026444" lon="11.922934479334312"><ele>61.0</ele><time>2026-04-04T08:33:13Z</time></trkpt><trkpt lat="44.2368983349148" lon="11.922842039743117"><ele>61.0</ele><time>2026-04-04T08:33:14Z</time></trkpt><trkpt lat="44.23678566615861" lon="11.922758003768946"><ele>61.0</ele><time>2026-04-04T08:33:15Z</time></trkpt><trkpt lat="44.236668100304534" lon="11.922677363632777"><ele>61.0</ele><time>2026-04-04T08:33:16Z</time></trkpt><trkpt lat="44.23654710647875" lon="11.922607377403176"><ele>61.0</ele><time>2026-04-04T08:33:17Z</time></trkpt><trkpt lat="44.2364221148033" lon="11.92254607633078"><ele>61.5</ele><time>2026-04-04T08:33:18Z</time></trkpt><trkpt lat="44.23628878493825" lon="11.922496401409797"><ele>62.0</ele><time>2026-04-04T08:33:19Z</time></trkpt><trkpt lat="44.23615921440537" lon="11.922443726828206"><ele>62.5</ele><time>2026-04-04T08:33:20Z</time></trkpt><trkpt lat="44.2360298854128" lon="11.922388166706618"><ele>63.0</ele><time>2026-04-04T08:33:21Z</time></trkpt><trkpt lat="44.23589914704554" lon="11.922337236781079"><ele>63.0</ele><time>2026-04-04T08:33:22Z</time></trkpt><trkpt lat="44.23576296407752" lon="11.922296226896972"><ele>63.0</ele><time>2026-04-04T08:33:23Z</time></trkpt><trkpt lat="44.235629520868635" lon="11.922249437190768"><ele>63.0</ele><time>2026-04-04T08:33:24Z</time></trkpt><trkpt lat="44.235494010533614" lon="11.922207216866019"><ele>63.0</ele><time>2026-04-04T08:33:25Z</time></trkpt><trkpt lat="44.23535866535558" lon="11.922162968336286"><ele>63.75</ele><time>2026-04-04T08:33:26Z</time></trkpt><trkpt lat="44.235225073207786" lon="11.92211756484098"><ele>64.5</ele><time>2026-04-04T08:33:27Z</time></trkpt><trkpt lat="44.23508846393464" lon="11.922072420841644"><ele>65.25</ele><time>2026-04-04T08:33:28Z</time></trkpt><trkpt lat="44.234953353262945" lon="11.922030712008805"><ele>66.0</ele><time>2026-04-04T08:33:29Z</time></trkpt><trkpt lat="44.234819145012594" lon="11.921995376286247"><ele>66.75</ele><time>2026-04-04T08:33:30Z</time></trkpt><trkpt lat="44.23468566018113" lon="11.921965653429359"><ele>67.5</ele><time>2026-04-04T08:33:31Z</time></trkpt><trkpt lat="44.23454795775988" lon="11.92194525192876"><ele>68.25</ele><time>2026-04-04T08:33:32Z</time></trkpt><trkpt lat="44.23440878426825" lon="11.921932960773308"><ele>69.0</ele><time>2026-04-04T08:33:33Z</time></trkpt><trkpt lat="44.23426817320152" lon="11.921928469576509"><ele>69.0</ele><time>2026-04-04T08:33:34Z</time></trkpt><trkpt lat="44.23412878584608" lon="11.921930214147023"><ele>69.0</ele><time>2026-04-04T08:33:35Z</time></trkpt><trkpt lat="44.2339913096226" lon="11.921929969799017"><ele>69.0</ele><time>2026-04-04T08:33:36Z</time></trkpt><trkpt lat="44.23384931238725" lon="11.921925229156324"><ele>69.0</ele><time>2026-04-04T08:33:37Z</time></trkpt><trkpt lat="44.23370697059353" lon="11.921917742839366"><ele>69.25</ele><time>2026-04-04T08:33:38Z</time></trkpt><trkpt lat="44.23356347287751" lon="11.921910227822925"><ele>69.5</ele><time>2026-04-04T08:33:39Z</time></trkpt><trkpt lat="44.233416618579575" lon="11.921911734976279"><ele>69.75</ele><time>2026-04-04T08:33:40Z</time></trkpt><trkpt lat="44.233271083957334" lon="11.921904043462883"><ele>70.0</ele><time>2026-04-04T08:33:41Z</time></trkpt><trkpt lat="44.23312698360271" lon="11.921898187074842"><ele>72.0</ele><time>2026-04-04T08:33:42Z</time></trkpt><trkpt lat="44.2329798794799" lon="11.921892489001698"><ele>74.0</ele><time>2026-04-04T08:33:43.001Z</time></trkpt><trkpt lat="44.232835561934024" lon="11.921890358082717"><ele>76.0</ele><time>2026-04-04T08:33:44.001Z</time></trkpt><trkpt lat="44.23268970046199" lon="11.921877223572706"><ele>78.0</ele><time>2026-04-04T08:33:45.001Z</time></trkpt><trkpt lat="44.23253875221023" lon="11.92187265653081"><ele>78.0</ele><time>2026-04-04T08:33:46.001Z</time></trkpt><trkpt lat="44.23240046903489" lon="11.92185030637859"><ele>78.0</ele><time>2026-04-04T08:33:47.001Z</time></trkpt><trkpt lat="44.23225661981458" lon="11.92183182577194"><ele>78.0</ele><time>2026-04-04T08:33:48.001Z</time></trkpt><trkpt lat="44.23210657200663" lon="11.92180537729229"><ele>78.0</ele><time>2026-04-04T08:33:49.001Z</time></trkpt><trkpt lat="44.231954455640015" lon="11.921777562097528"><ele>79.66666666666667</ele><time>2026-04-04T08:33:50.001Z</time></trkpt><trkpt lat="44.231801140490816" lon="11.921745603248539"><ele>81.33333333333334</ele><time>2026-04-04T08:33:51.001Z</time></trkpt><trkpt lat="44.23164803132897" lon="11.921711533266906"><ele>83.0</ele><time>2026-04-04T08:33:52.001Z</time></trkpt><trkpt lat="44.231498074237344" lon="11.921679007926016"><ele>85.0</ele><time>2026-04-04T08:33:53.001Z</time></trkpt><trkpt lat="44.231349072775906" lon="11.921649139311594"><ele>87.0</ele><time>2026-04-04T08:33:54.001Z</time></trkpt><trkpt lat="44.231201586040115" lon="11.921623832645562"><ele>89.0</ele><time>2026-04-04T08:33:55.001Z</time></trkpt><trkpt lat="44.231055899721326" lon="11.921600934593183"><ele>91.0</ele><time>2026-04-04T08:33:56.001Z</time></trkpt><trkpt lat="44.23090993213699" lon="11.921580491911572"><ele>91.0</ele><time>2026-04-04T08:33:57.001Z</time></trkpt><trkpt lat="44.23076380521375" lon="11.921562310843466"><ele>91.0</ele><time>2026-04-04T08:33:58.001Z</time></trkpt><trkpt lat="44.23061659790049" lon="11.92154705331956"><ele>91.0</ele><time>2026-04-04T08:33:59.001Z</time></trkpt><trkpt lat="44.230472834666315" lon="11.921541928196975"><ele>91.0</ele><time>2026-04-04T08:34:00.001Z</time></trkpt><trkpt lat="44.230328089561574" lon="11.921536612797471"><ele>91.5</ele><time>2026-04-04T08:34:01.001Z</time></trkpt><trkpt lat="44.23018455760706" lon="11.92152569931097"><ele>92.0</ele><time>2026-04-04T08:34:02.001Z</time></trkpt><trkpt lat="44.23004285126497" lon="11.921512672496185"><ele>92.5</ele><time>2026-04-04T08:34:03.001Z</time></trkpt><trkpt lat="44.22990361331558" lon="11.92150249297293"><ele>93.0</ele><time>2026-04-04T08:34:04.001Z</time></trkpt><trkpt lat="44.22976876530765" lon="11.921507585423294"><ele>94.75</ele><time>2026-04-04T08:34:05.001Z</time></trkpt><trkpt lat="44.229630176325244" lon="11.921504103806587"><ele>96.5</ele><time>2026-04-04T08:34:06.001Z</time></trkpt><trkpt lat="44.229496893808" lon="11.921511586999419"><ele>98.25</ele><time>2026-04-04T08:34:07.001Z</time></trkpt><trkpt lat="44.229356298082216" lon="11.921504471866037"><ele>100.0</ele><time>2026-04-04T08:34:08.001Z</time></trkpt><trkpt lat="44.22921884716942" lon="11.921505793214596"><ele>100.0</ele><time>2026-04-04T08:34:09.001Z</time></trkpt><trkpt lat="44.229085649640346" lon="11.921508877479475"><ele>100.0</ele><time>2026-04-04T08:34:10.001Z</time></trkpt><trkpt lat="44.22895265907186" lon="11.921496483559096"><ele>100.0</ele><time>2026-04-04T08:34:11.001Z</time></trkpt><trkpt lat="44.228819888383974" lon="11.92147108804168"><ele>100.0</ele><time>2026-04-04T08:34:12.001Z</time></trkpt><trkpt lat="44.2286911698827" lon="11.921426350599726"><ele>101.25</ele><time>2026-04-04T08:34:13.001Z</time></trkpt><trkpt lat="44.22856669596469" lon="11.921353400668856"><ele>102.5</ele><time>2026-04-04T08:34:14.002Z</time></trkpt><trkpt lat="44.22844346741056" lon="11.921278721874126"><ele>103.75</ele><time>2026-04-04T08:34:15.002Z</time></trkpt><trkpt lat="44.22831701090794" lon="11.921212506652092"><ele>105.0</ele><time>2026-04-04T08:34:16.002Z</time></trkpt><trkpt lat="44.22818411232678" lon="11.921167423046079"><ele>105.75</ele><time>2026-04-04T08:34:17.002Z</time></trkpt><trkpt lat="44.22804826621053" lon="11.921143151303115"><ele>106.5</ele><time>2026-04-04T08:34:18.002Z</time></trkpt><trkpt lat="44.227909261858144" lon="11.92112440085609"><ele>107.25</ele><time>2026-04-04T08:34:19.002Z</time></trkpt><trkpt lat="44.227769810024334" lon="11.92110873642535"><ele>108.0</ele><time>2026-04-04T08:34:20.002Z</time></trkpt><trkpt lat="44.22762966318904" lon="11.921101454134245"><ele>108.0</ele><time>2026-04-04T08:34:21.002Z</time></trkpt><trkpt lat="44.22748911298338" lon="11.921095434596037"><ele>108.0</ele><time>2026-04-04T08:34:22.002Z</time></trkpt><trkpt lat="44.22734631259475" lon="11.921086778848277"><ele>108.0</ele><time>2026-04-04T08:34:23.002Z</time></trkpt><trkpt lat="44.22720182920605" lon="11.92107767129075"><ele>108.0</ele><time>2026-04-04T08:34:24.002Z</time></trkpt><trkpt lat="44.22705773773437" lon="11.921073692396558"><ele>109.75</ele><time>2026-04-04T08:34:25.002Z</time></trkpt><trkpt lat="44.22691546382654" lon="11.921075329042715"><ele>111.5</ele><time>2026-04-04T08:34:26.002Z</time></trkpt><trkpt lat="44.226775783702934" lon="11.921084222044612"><ele>113.25</ele><time>2026-04-04T08:34:27.002Z</time></trkpt><trkpt lat="44.22663746085279" lon="11.921091488275218"><ele>115.0</ele><time>2026-04-04T08:34:28.002Z</time></trkpt><trkpt lat="44.22650369278043" lon="11.921088429138992"><ele>115.75</ele><time>2026-04-04T08:34:29.002Z</time></trkpt><trkpt lat="44.22637233594466" lon="11.921073532414992"><ele>116.5</ele><time>2026-04-04T08:34:30.002Z</time></trkpt><trkpt lat="44.22624432798788" lon="11.921051060160707"><ele>117.25</ele><time>2026-04-04T08:34:31.002Z</time></trkpt><trkpt lat="44.226117400174765" lon="11.921023176309982"><ele>118.0</ele><time>2026-04-04T08:34:32.002Z</time></trkpt><trkpt lat="44.22599059419405" lon="11.920980065691284"><ele>118.0</ele><time>2026-04-04T08:34:33.002Z</time></trkpt><trkpt lat="44.225867679517336" lon="11.920919149517696"><ele>118.0</ele><time>2026-04-04T08:34:34.002Z</time></trkpt><trkpt lat="44.22574848072671" lon="11.920843254291688"><ele>118.0</ele><time>2026-04-04T08:34:35.002Z</time></trkpt><trkpt lat="44.22563354444512" lon="11.920751216232063"><ele>118.0</ele><time>2026-04-04T08:34:36.002Z</time></trkpt><trkpt lat="44.22552416236388" lon="11.92065461720005"><ele>122.75</ele><time>2026-04-04T08:34:37.002Z</time></trkpt><trkpt lat="44.22542267350596" lon="11.920547968168764"><ele>127.5</ele><time>2026-04-04T08:34:38.002Z</time></trkpt><trkpt lat="44.2253333561513" lon="11.920425201723113"><ele>132.25</ele><time>2026-04-04T08:34:39.002Z</time></trkpt><trkpt lat="44.2252529384429" lon="11.920287312484026"><ele>137.0</ele><time>2026-04-04T08:34:40.002Z</time></trkpt><trkpt lat="44.225159435742476" lon="11.920166964015428"><ele>137.0</ele><time>2026-04-04T08:34:41.002Z</time></trkpt><trkpt lat="44.225065108663884" lon="11.920085218431709"><ele>137.0</ele><time>2026-04-04T08:34:42.002Z</time></trkpt><trkpt lat="44.22496877363554" lon="11.920031978488888"><ele>137.0</ele><time>2026-04-04T08:34:43.002Z</time></trkpt><trkpt lat="44.22485641473486" lon="11.920020776451342"><ele>137.0</ele><time>2026-04-04T08:34:44.002Z</time></trkpt><trkpt lat="44.22474291748174" lon="11.920009781406675"><ele>137.0</ele><time>2026-04-04T08:34:45.002Z</time></trkpt><trkpt lat="44.224624178027554" lon="11.91999174594962"><ele>140.75</ele><time>2026-04-04T08:34:46.002Z</time></trkpt><trkpt lat="44.22450603597672" lon="11.919970810713231"><ele>144.5</ele><time>2026-04-04T08:34:47.003Z</time></trkpt><trkpt lat="44.22439166092987" lon="11.919934322657515"><ele>148.25</ele><time>2026-04-04T08:34:48.003Z</time></trkpt><trkpt lat="44.22428384029473" lon="11.919886184184689"><ele>152.0</ele><time>2026-04-04T08:34:49.003Z</time></trkpt><trkpt lat="44.22418983335644" lon="11.919813639207883"><ele>152.0</ele><time>2026-04-04T08:34:50.003Z</time></trkpt><trkpt lat="44.22410190615369" lon="11.91973085061158"><ele>152.0</ele><time>2026-04-04T08:34:51.003Z</time></trkpt><trkpt lat="44.224021542750734" lon="11.919654321365963"><ele>152.0</ele><time>2026-04-04T08:34:52.003Z</time></trkpt><trkpt lat="44.223942843441314" lon="11.919595252793625"><ele>152.0</ele><time>2026-04-04T08:34:53.003Z</time></trkpt><trkpt lat="44.22386342330336" lon="11.91955279202747"><ele>152.0</ele><time>2026-04-04T08:34:54.003Z</time></trkpt><trkpt lat="44.22378082355658" lon="11.919511617790414"><ele>152.16666666666666</ele><time>2026-04-04T08:34:55.003Z</time></trkpt><trkpt lat="44.22369669676161" lon="11.91948449505122"><ele>152.33333333333331</ele><time>2026-04-04T08:34:56.003Z</time></trkpt><trkpt lat="44.2236115267903" lon="11.919471834282907"><ele>152.5</ele><time>2026-04-04T08:34:57.003Z</time></trkpt><trkpt lat="44.22352889640312" lon="11.919452898324792"><ele>152.66666666666666</ele><time>2026-04-04T08:34:58.003Z</time></trkpt><trkpt lat="44.22344394724885" lon="11.919416247611851"><ele>152.83333333333334</ele><time>2026-04-04T08:34:59.003Z</time></trkpt><trkpt lat="44.22335307442831" lon="11.919380800048135"><ele>153.0</ele><time>2026-04-04T08:35:00.003Z</time></trkpt><trkpt lat="44.223256188919905" lon="11.919342505233848"><ele>153.0</ele><time>2026-04-04T08:35:01.003Z</time></trkpt><trkpt lat="44.22315882426509" lon="11.919301020962779"><ele>153.0</ele><time>2026-04-04T08:35:02.003Z</time></trkpt><trkpt lat="44.223054451773706" lon="11.91925683414775"><ele>153.0</ele><time>2026-04-04T08:35:03.003Z</time></trkpt><trkpt lat="44.22295161567287" lon="11.919204737529641"><ele>153.0</ele><time>2026-04-04T08:35:04.003Z</time></trkpt><trkpt lat="44.22285068994247" lon="11.919134122345621"><ele>153.0</ele><time>2026-04-04T08:35:05.003Z</time></trkpt><trkpt lat="44.22275833515104" lon="11.919035197377132"><ele>153.5</ele><time>2026-04-04T08:35:06.003Z</time></trkpt><trkpt lat="44.22266255653412" lon="11.918936855370172"><ele>154.0</ele><time>2026-04-04T08:35:07.003Z</time></trkpt><trkpt lat="44.22256709681477" lon="11.918836851710866"><ele>154.5</ele><time>2026-04-04T08:35:08.003Z</time></trkpt><trkpt lat="44.22247168068041" lon="11.918746692709808"><ele>155.0</ele><time>2026-04-04T08:35:09.003Z</time></trkpt><trkpt lat="44.222370842011586" lon="11.918670542335724"><ele>155.2</ele><time>2026-04-04T08:35:10.003Z</time></trkpt><trkpt lat="44.22226727254179" lon="11.91860480713096"><ele>155.4</ele><time>2026-04-04T08:35:11.003Z</time></trkpt><trkpt lat="44.22217317781766" lon="11.918524886777032"><ele>155.6</ele><time>2026-04-04T08:35:12.003Z</time></trkpt><trkpt lat="44.22208846524119" lon="11.918435910016946"><ele>155.8</ele><time>2026-04-04T08:35:13.003Z</time></trkpt><trkpt lat="44.22199682080224" lon="11.918360168643009"><ele>156.0</ele><time>2026-04-04T08:35:14.003Z</time></trkpt><trkpt lat="44.221901780122266" lon="11.918294705564973"><ele>156.0</ele><time>2026-04-04T08:35:15.003Z</time></trkpt><trkpt lat="44.22180066603712" lon="11.918241720158857"><ele>156.0</ele><time>2026-04-04T08:35:16.003Z</time></trkpt><trkpt lat="44.221691905895135" lon="11.918197136222195"><ele>156.0</ele><time>2026-04-04T08:35:17Z</time></trkpt><trkpt lat="44.221581477520964" lon="11.918149868896347"><ele>156.0</ele><time>2026-04-04T08:35:18Z</time></trkpt><trkpt lat="44.22147632093894" lon="11.918094133882834"><ele>156.0</ele><time>2026-04-04T08:35:19Z</time></trkpt><trkpt lat="44.22137252161969" lon="11.918038183320089"><ele>155.0</ele><time>2026-04-04T08:35:20Z</time></trkpt><trkpt lat="44.221272486208726" lon="11.91797874488701"><ele>154.0</ele><time>2026-04-04T08:35:21Z</time></trkpt><trkpt lat="44.22117777204052" lon="11.917899209660886"><ele>153.0</ele><time>2026-04-04T08:35:22Z</time></trkpt><trkpt lat="44.2210931480154" lon="11.917786737565674"><ele>152.0</ele><time>2026-04-04T08:35:23Z</time></trkpt><trkpt lat="44.221019936444236" lon="11.917670207995702"><ele>151.0</ele><time>2026-04-04T08:35:24Z</time></trkpt><trkpt lat="44.22095953595321" lon="11.917545528747024"><ele>151.0</ele><time>2026-04-04T08:35:25Z</time></trkpt><trkpt lat="44.22090095102119" lon="11.91741767035718"><ele>151.0</ele><time>2026-04-04T08:35:26Z</time></trkpt><trkpt lat="44.22084755484077" lon="11.917276786668891"><ele>151.0</ele><time>2026-04-04T08:35:27Z</time></trkpt><trkpt lat="44.22080993885806" lon="11.917125923699727"><ele>151.0</ele><time>2026-04-04T08:35:28Z</time></trkpt><trkpt lat="44.22078757035542" lon="11.916986141574732"><ele>151.0</ele><time>2026-04-04T08:35:29Z</time></trkpt><trkpt lat="44.220768781360945" lon="11.91684467115524"><ele>151.25</ele><time>2026-04-04T08:35:30Z</time></trkpt><trkpt lat="44.2207399786545" lon="11.916686575192903"><ele>151.5</ele><time>2026-04-04T08:35:31Z</time></trkpt><trkpt lat="44.220708728049445" lon="11.916525629816082"><ele>151.75</ele><time>2026-04-04T08:35:32Z</time></trkpt><trkpt lat="44.22067563354612" lon="11.916367213327735"><ele>152.0</ele><time>2026-04-04T08:35:33Z</time></trkpt><trkpt lat="44.220642273109185" lon="11.91621199464874"><ele>150.75</ele><time>2026-04-04T08:35:34Z</time></trkpt><trkpt lat="44.2206094407194" lon="11.916053908880299"><ele>149.5</ele><time>2026-04-04T08:35:35Z</time></trkpt><trkpt lat="44.2205810127596" lon="11.915881625666252"><ele>148.25</ele><time>2026-04-04T08:35:36Z</time></trkpt><trkpt lat="44.22054873077324" lon="11.915716591923829"><ele>147.0</ele><time>2026-04-04T08:35:37Z</time></trkpt><trkpt lat="44.22051123330935" lon="11.915559867641916"><ele>147.0</ele><time>2026-04-04T08:35:38Z</time></trkpt><trkpt lat="44.22046996149361" lon="11.915403937089433"><ele>147.0</ele><time>2026-04-04T08:35:39Z</time></trkpt><trkpt lat="44.22042458794573" lon="11.915256447874137"><ele>147.0</ele><time>2026-04-04T08:35:40Z</time></trkpt><trkpt lat="44.22036810286636" lon="11.915121873711946"><ele>147.0</ele><time>2026-04-04T08:35:41Z</time></trkpt><trkpt lat="44.220318639981336" lon="11.914975705281208"><ele>149.0</ele><time>2026-04-04T08:35:42Z</time></trkpt><trkpt lat="44.220266128297375" lon="11.914837202170949"><ele>151.0</ele><time>2026-04-04T08:35:43Z</time></trkpt><trkpt lat="44.22020964479291" lon="11.914698779918805"><ele>153.0</ele><time>2026-04-04T08:35:44Z</time></trkpt><trkpt lat="44.220151462964076" lon="11.914566969348586"><ele>155.0</ele><time>2026-04-04T08:35:45Z</time></trkpt><trkpt lat="44.22009715755909" lon="11.914442260788135"><ele>157.0</ele><time>2026-04-04T08:35:46Z</time></trkpt><trkpt lat="44.22004633569471" lon="11.914311061126238"><ele>156.4</ele><time>2026-04-04T08:35:47Z</time></trkpt><trkpt lat="44.21999500924046" lon="11.914189925981095"><ele>155.79999999999998</ele><time>2026-04-04T08:35:48Z</time></trkpt><trkpt lat="44.21995012629875" lon="11.91407596160202"><ele>155.2</ele><time>2026-04-04T08:35:49Z</time></trkpt><trkpt lat="44.21989957322093" lon="11.913967421589907"><ele>154.6</ele><time>2026-04-04T08:35:50.001Z</time></trkpt><trkpt lat="44.21985722511014" lon="11.913862461021072"><ele>154.0</ele><time>2026-04-04T08:35:51.001Z</time></trkpt><trkpt lat="44.21981054081824" lon="11.913752844524346"><ele>154.0</ele><time>2026-04-04T08:35:52.001Z</time></trkpt><trkpt lat="44.21976274953167" lon="11.913636562282237"><ele>154.0</ele><time>2026-04-04T08:35:53.001Z</time></trkpt><trkpt lat="44.21972494015271" lon="11.9135135399083"><ele>154.0</ele><time>2026-04-04T08:35:54.001Z</time></trkpt><trkpt lat="44.21968497984841" lon="11.91337970966128"><ele>154.0</ele><time>2026-04-04T08:35:55.001Z</time></trkpt><trkpt lat="44.21963272580425" lon="11.913249506921398"><ele>154.0</ele><time>2026-04-04T08:35:56.001Z</time></trkpt><trkpt lat="44.219568689371876" lon="11.913125648809006"><ele>156.75</ele><time>2026-04-04T08:35:57.001Z</time></trkpt><trkpt lat="44.219507855793424" lon="11.91298108741224"><ele>159.5</ele><time>2026-04-04T08:35:58.001Z</time></trkpt><trkpt lat="44.219451022013125" lon="11.912843846657111"><ele>162.25</ele><time>2026-04-04T08:35:59.001Z</time></trkpt><trkpt lat="44.21938465544024" lon="11.912728756275637"><ele>165.0</ele><time>2026-04-04T08:36:00.001Z</time></trkpt><trkpt lat="44.219318585439424" lon="11.912606114858708"><ele>168.5</ele><time>2026-04-04T08:36:01.001Z</time></trkpt><trkpt lat="44.21924503616757" lon="11.912479684294954"><ele>172.0</ele><time>2026-04-04T08:36:02.001Z</time></trkpt><trkpt lat="44.21916996825436" lon="11.91235420175024"><ele>175.5</ele><time>2026-04-04T08:36:03.001Z</time></trkpt><trkpt lat="44.21909114977144" lon="11.912233393580756"><ele>179.0</ele><time>2026-04-04T08:36:04.001Z</time></trkpt><trkpt lat="44.219010659626036" lon="11.912121044450036"><ele>178.6</ele><time>2026-04-04T08:36:05.001Z</time></trkpt><trkpt lat="44.21893052419917" lon="11.912022188260325"><ele>178.2</ele><time>2026-04-04T08:36:06.001Z</time></trkpt><trkpt lat="44.21886031817498" lon="11.911921121219072"><ele>177.79999999999998</ele><time>2026-04-04T08:36:07.001Z</time></trkpt><trkpt lat="44.21878967777329" lon="11.91180503566768"><ele>177.39999999999998</ele><time>2026-04-04T08:36:08.001Z</time></trkpt><trkpt lat="44.21871475851448" lon="11.911684360549176"><ele>177.0</ele><time>2026-04-04T08:36:09.001Z</time></trkpt><trkpt lat="44.21864642658124" lon="11.911568516723515"><ele>177.0</ele><time>2026-04-04T08:36:10.001Z</time></trkpt><trkpt lat="44.21857596048044" lon="11.911453314538775"><ele>177.0</ele><time>2026-04-04T08:36:11.001Z</time></trkpt><trkpt lat="44.2185044012477" lon="11.91134002244507"><ele>177.0</ele><time>2026-04-04T08:36:12.001Z</time></trkpt><trkpt lat="44.21841820934005" lon="11.91121608085245"><ele>177.0</ele><time>2026-04-04T08:36:13.001Z</time></trkpt><trkpt lat="44.21833054986167" lon="11.911120601720091"><ele>177.0</ele><time>2026-04-04T08:36:14.001Z</time></trkpt><trkpt lat="44.21823683525828" lon="11.91103244960209"><ele>177.0</ele><time>2026-04-04T08:36:15.001Z</time></trkpt><trkpt lat="44.21813425614408" lon="11.910943948132134"><ele>177.0</ele><time>2026-04-04T08:36:16.001Z</time></trkpt><trkpt lat="44.21803676182064" lon="11.91085474116172"><ele>177.0</ele><time>2026-04-04T08:36:17.001Z</time></trkpt><trkpt lat="44.21793852474055" lon="11.910769485329823"><ele>177.0</ele><time>2026-04-04T08:36:18.001Z</time></trkpt><trkpt lat="44.2178450360258" lon="11.910687623131691"><ele>177.0</ele><time>2026-04-04T08:36:19.001Z</time></trkpt><trkpt lat="44.21775070010576" lon="11.910616638986683"><ele>177.0</ele><time>2026-04-04T08:36:20.001Z</time></trkpt><trkpt lat="44.21766661887703" lon="11.910540738941183"><ele>177.0</ele><time>2026-04-04T08:36:21.001Z</time></trkpt><trkpt lat="44.21757695397438" lon="11.910505020210389"><ele>177.0</ele><time>2026-04-04T08:36:22.002Z</time></trkpt><trkpt lat="44.21747812267713" lon="11.910489387735067"><ele>177.0</ele><time>2026-04-04T08:36:23.002Z</time></trkpt><trkpt lat="44.217375394108664" lon="11.910487822918627"><ele>177.0</ele><time>2026-04-04T08:36:24.002Z</time></trkpt><trkpt lat="44.217257647907225" lon="11.910478956930215"><ele>177.0</ele><time>2026-04-04T08:36:25.002Z</time></trkpt><trkpt lat="44.21715075061179" lon="11.910473381104257"><ele>177.0</ele><time>2026-04-04T08:36:26.002Z</time></trkpt><trkpt lat="44.21703419087444" lon="11.910464845419831"><ele>177.0</ele><time>2026-04-04T08:36:27.002Z</time></trkpt><trkpt lat="44.21690721072842" lon="11.91044504210689"><ele>175.75</ele><time>2026-04-04T08:36:28.002Z</time></trkpt><trkpt lat="44.21679293584247" lon="11.910429233953588"><ele>174.5</ele><time>2026-04-04T08:36:29.002Z</time></trkpt><trkpt lat="44.21666734994994" lon="11.910404835033493"><ele>173.25</ele><time>2026-04-04T08:36:30.002Z</time></trkpt><trkpt lat="44.21654437349573" lon="11.910387167438197"><ele>172.0</ele><time>2026-04-04T08:36:31.002Z</time></trkpt><trkpt lat="44.21641925848461" lon="11.910371232463287"><ele>171.75</ele><time>2026-04-04T08:36:32.002Z</time></trkpt><trkpt lat="44.21629317465063" lon="11.910366824115748"><ele>171.5</ele><time>2026-04-04T08:36:33.002Z</time></trkpt><trkpt lat="44.21618083084107" lon="11.91034711202999"><ele>171.25</ele><time>2026-04-04T08:36:34.002Z</time></trkpt><trkpt lat="44.21607280307582" lon="11.910336234766719"><ele>171.0</ele><time>2026-04-04T08:36:35.002Z</time></trkpt><trkpt lat="44.21596641444963" lon="11.910337278204407"><ele>171.0</ele><time>2026-04-04T08:36:36.002Z</time></trkpt><trkpt lat="44.215871024519096" lon="11.910362455252162"><ele>171.0</ele><time>2026-04-04T08:36:37.002Z</time></trkpt><trkpt lat="44.21577571956734" lon="11.91039177536274"><ele>171.0</ele><time>2026-04-04T08:36:38.002Z</time></trkpt><trkpt lat="44.21568592159187" lon="11.910438403399887"><ele>171.0</ele><time>2026-04-04T08:36:39.002Z</time></trkpt><trkpt lat="44.21558311635179" lon="11.910494906673621"><ele>171.0</ele><time>2026-04-04T08:36:40.002Z</time></trkpt><trkpt lat="44.21549236539483" lon="11.910553686514868"><ele>172.60000000000002</ele><time>2026-04-04T08:36:41.002Z</time></trkpt><trkpt lat="44.215397433061426" lon="11.91060879132525"><ele>174.2</ele><time>2026-04-04T08:36:42.002Z</time></trkpt><trkpt lat="44.215305522672594" lon="11.91067149928327"><ele>175.8</ele><time>2026-04-04T08:36:43.002Z</time></trkpt><trkpt lat="44.21522267694758" lon="11.910724676722081"><ele>177.39999999999998</ele><time>2026-04-04T08:36:44.002Z</time></trkpt><trkpt lat="44.21514494818737" lon="11.910774772821627"><ele>179.0</ele><time>2026-04-04T08:36:45.002Z</time></trkpt><trkpt lat="44.21506674312005" lon="11.910807308327549"><ele>179.0</ele><time>2026-04-04T08:36:46.002Z</time></trkpt><trkpt lat="44.21497893850015" lon="11.910833130603358"><ele>179.0</ele><time>2026-04-04T08:36:47.002Z</time></trkpt><trkpt lat="44.214887323960596" lon="11.910850417764419"><ele>179.0</ele><time>2026-04-04T08:36:48.002Z</time></trkpt><trkpt lat="44.2147923124555" lon="11.910849412977907"><ele>179.0</ele><time>2026-04-04T08:36:49.002Z</time></trkpt><trkpt lat="44.21468902106451" lon="11.910847569320955"><ele>179.0</ele><time>2026-04-04T08:36:50.002Z</time></trkpt><trkpt lat="44.214578174421625" lon="11.910836395058803"><ele>180.2</ele><time>2026-04-04T08:36:51.002Z</time></trkpt><trkpt lat="44.21446670409529" lon="11.910817072616222"><ele>181.39999999999998</ele><time>2026-04-04T08:36:52.002Z</time></trkpt><trkpt lat="44.214353583226284" lon="11.91079880907099"><ele>182.6</ele><time>2026-04-04T08:36:53.002Z</time></trkpt><trkpt lat="44.21424010492611" lon="11.910782125935366"><ele>183.8</ele><time>2026-04-04T08:36:54.002Z</time></trkpt><trkpt lat="44.21413271253335" lon="11.910769574377714"><ele>185.0</ele><time>2026-04-04T08:36:55.002Z</time></trkpt><trkpt lat="44.21402255158965" lon="11.910761476962547"><ele>185.4</ele><time>2026-04-04T08:36:56.003Z</time></trkpt><trkpt lat="44.21391490874175" lon="11.910737739945297"><ele>185.8</ele><time>2026-04-04T08:36:57.003Z</time></trkpt><trkpt lat="44.21380750888052" lon="11.910706174441108"><ele>186.2</ele><time>2026-04-04T08:36:58.003Z</time></trkpt><trkpt lat="44.21370365582566" lon="11.910669028003868"><ele>186.6</ele><time>2026-04-04T08:36:59.003Z</time></trkpt><trkpt lat="44.2136052178389" lon="11.91062988002987"><ele>187.0</ele><time>2026-04-04T08:37:00.003Z</time></trkpt><trkpt lat="44.213507442781676" lon="11.910593458260088"><ele>187.0</ele><time>2026-04-04T08:37:01.003Z</time></trkpt><trkpt lat="44.21341106363491" lon="11.910559269426802"><ele>187.0</ele><time>2026-04-04T08:37:02.003Z</time></trkpt><trkpt lat="44.21331536584615" lon="11.910530061514248"><ele>187.0</ele><time>2026-04-04T08:37:03.003Z</time></trkpt><trkpt lat="44.213218711681456" lon="11.910499147336765"><ele>187.0</ele><time>2026-04-04T08:37:04.003Z</time></trkpt><trkpt lat="44.21312721385214" lon="11.910472618526134"><ele>187.0</ele><time>2026-04-04T08:37:05.003Z</time></trkpt><trkpt lat="44.21304203114942" lon="11.910445932234891"><ele>187.16666666666669</ele><time>2026-04-04T08:37:06.003Z</time></trkpt><trkpt lat="44.2129594659184" lon="11.910406742458907"><ele>187.33333333333334</ele><time>2026-04-04T08:37:07.003Z</time></trkpt><trkpt lat="44.21288655137674" lon="11.910371244410266"><ele>187.5</ele><time>2026-04-04T08:37:08.003Z</time></trkpt><trkpt lat="44.21281446813627" lon="11.910316936941394"><ele>187.66666666666666</ele><time>2026-04-04T08:37:09.003Z</time></trkpt><trkpt lat="44.21273915456666" lon="11.91025768711838"><ele>187.83333333333331</ele><time>2026-04-04T08:37:10.003Z</time></trkpt><trkpt lat="44.21265496037199" lon="11.91020301735362"><ele>188.0</ele><time>2026-04-04T08:37:11.003Z</time></trkpt><trkpt lat="44.21256431015134" lon="11.910145683389787"><ele>188.0</ele><time>2026-04-04T08:37:12.003Z</time></trkpt><trkpt lat="44.21247058681228" lon="11.910097354545085"><ele>188.0</ele><time>2026-04-04T08:37:13.003Z</time></trkpt><trkpt lat="44.21238077570163" lon="11.910046119241194"><ele>188.0</ele><time>2026-04-04T08:37:14.003Z</time></trkpt><trkpt lat="44.212293849414415" lon="11.909995986418075"><ele>188.0</ele><time>2026-04-04T08:37:15.003Z</time></trkpt><trkpt lat="44.21220690966055" lon="11.90994264601639"><ele>188.0</ele><time>2026-04-04T08:37:16.003Z</time></trkpt><trkpt lat="44.212125658990686" lon="11.90987486679356"><ele>185.8</ele><time>2026-04-04T08:37:17.003Z</time></trkpt><trkpt lat="44.21203794144221" lon="11.909807347283293"><ele>183.60000000000002</ele><time>2026-04-04T08:37:18.003Z</time></trkpt><trkpt lat="44.211947753706326" lon="11.909734793258199"><ele>181.39999999999998</ele><time>2026-04-04T08:37:19.003Z</time></trkpt><trkpt lat="44.21184731221937" lon="11.909658939824622"><ele>179.2</ele><time>2026-04-04T08:37:20.003Z</time></trkpt><trkpt lat="44.211750464532535" lon="11.909575350683346"><ele>177.0</ele><time>2026-04-04T08:37:21.003Z</time></trkpt><trkpt lat="44.21164560837461" lon="11.909491445797787"><ele>177.0</ele><time>2026-04-04T08:37:22.003Z</time></trkpt><trkpt lat="44.21153661011755" lon="11.909410952113326"><ele>177.0</ele><time>2026-04-04T08:37:23Z</time></trkpt><trkpt lat="44.211428036357134" lon="11.909322719332074"><ele>177.0</ele><time>2026-04-04T08:37:24Z</time></trkpt><trkpt lat="44.211318723032356" lon="11.909232866520528"><ele>177.0</ele><time>2026-04-04T08:37:25Z</time></trkpt><trkpt lat="44.21121299243391" lon="11.909150038104853"><ele>178.0</ele><time>2026-04-04T08:37:26Z</time></trkpt><trkpt lat="44.21110268405157" lon="11.90907165596283"><ele>179.0</ele><time>2026-04-04T08:37:27Z</time></trkpt><trkpt lat="44.21099611972213" lon="11.908998366315014"><ele>180.0</ele><time>2026-04-04T08:37:28Z</time></trkpt><trkpt lat="44.2108924752004" lon="11.90892732227667"><ele>181.0</ele><time>2026-04-04T08:37:29Z</time></trkpt><trkpt lat="44.21078832906859" lon="11.908851794283512"><ele>181.0</ele><time>2026-04-04T08:37:30Z</time></trkpt><trkpt lat="44.21068366609078" lon="11.90877334730696"><ele>181.0</ele><time>2026-04-04T08:37:31Z</time></trkpt><trkpt lat="44.210581684824064" lon="11.90870485680517"><ele>181.0</ele><time>2026-04-04T08:37:32Z</time></trkpt><trkpt lat="44.210479024761284" lon="11.908643306402787"><ele>181.0</ele><time>2026-04-04T08:37:33Z</time></trkpt><trkpt lat="44.2103713474426" lon="11.90859161578857"><ele>182.25</ele><time>2026-04-04T08:37:34Z</time></trkpt><trkpt lat="44.210261471241274" lon="11.908543441108966"><ele>183.5</ele><time>2026-04-04T08:37:35Z</time></trkpt><trkpt lat="44.21014583033031" lon="11.908499927869466"><ele>184.75</ele><time>2026-04-04T08:37:36Z</time></trkpt><trkpt lat="44.21002890344913" lon="11.908456237390924"><ele>186.0</ele><time>2026-04-04T08:37:37Z</time></trkpt><trkpt lat="44.209912814204465" lon="11.908396065298968"><ele>185.0</ele><time>2026-04-04T08:37:38Z</time></trkpt><trkpt lat="44.209804947614536" lon="11.908317870609599"><ele>184.0</ele><time>2026-04-04T08:37:39Z</time></trkpt><trkpt lat="44.20969934520155" lon="11.90822406529537"><ele>183.0</ele><time>2026-04-04T08:37:40Z</time></trkpt><trkpt lat="44.20959203716946" lon="11.908133822209408"><ele>182.0</ele><time>2026-04-04T08:37:41Z</time></trkpt><trkpt lat="44.20948880766099" lon="11.908032046790272"><ele>182.0</ele><time>2026-04-04T08:37:42Z</time></trkpt><trkpt lat="44.209383990584" lon="11.907937161214628"><ele>182.0</ele><time>2026-04-04T08:37:43Z</time></trkpt><trkpt lat="44.20927692682327" lon="11.907852458770888"><ele>182.0</ele><time>2026-04-04T08:37:44Z</time></trkpt><trkpt lat="44.20916544305086" lon="11.907789996164555"><ele>182.0</ele><time>2026-04-04T08:37:45Z</time></trkpt><trkpt lat="44.20904612967353" lon="11.907738944420878"><ele>183.0</ele><time>2026-04-04T08:37:46Z</time></trkpt><trkpt lat="44.20892367561874" lon="11.90769722698625"><ele>184.0</ele><time>2026-04-04T08:37:47Z</time></trkpt><trkpt lat="44.2088004539976" lon="11.907661148808165"><ele>185.0</ele><time>2026-04-04T08:37:48Z</time></trkpt><trkpt lat="44.20868033708536" lon="11.907620946294363"><ele>186.0</ele><time>2026-04-04T08:37:49Z</time></trkpt><trkpt lat="44.208560518936096" lon="11.90757655230628"><ele>187.75</ele><time>2026-04-04T08:37:50Z</time></trkpt><trkpt lat="44.20844149880315" lon="11.907531979489486"><ele>189.5</ele><time>2026-04-04T08:37:51Z</time></trkpt><trkpt lat="44.20832472651665" lon="11.907486378644224"><ele>191.25</ele><time>2026-04-04T08:37:52Z</time></trkpt><trkpt lat="44.20821163520863" lon="11.907441574391804"><ele>193.0</ele><time>2026-04-04T08:37:53Z</time></trkpt><trkpt lat="44.20810687225975" lon="11.907400234166149"><ele>194.2</ele><time>2026-04-04T08:37:54Z</time></trkpt><trkpt lat="44.208006708558365" lon="11.907364510816993"><ele>195.4</ele><time>2026-04-04T08:37:55Z</time></trkpt><trkpt lat="44.20791031490891" lon="11.907339908318605"><ele>196.6</ele><time>2026-04-04T08:37:56.001Z</time></trkpt><trkpt lat="44.20781630580315" lon="11.9073276683549"><ele>197.79999999999998</ele><time>2026-04-04T08:37:57.001Z</time></trkpt><trkpt lat="44.20772318907732" lon="11.907329090040488"><ele>199.0</ele><time>2026-04-04T08:37:58.001Z</time></trkpt><trkpt lat="44.2076345465269" lon="11.907335999888259"><ele>198.99999999999997</ele><time>2026-04-04T08:37:59.001Z</time></trkpt><trkpt lat="44.207553791990584" lon="11.907343589380728"><ele>199.0</ele><time>2026-04-04T08:38:00.001Z</time></trkpt><trkpt lat="44.207472103950046" lon="11.907355137822298"><ele>199.0</ele><time>2026-04-04T08:38:01.001Z</time></trkpt><trkpt lat="44.20738309015943" lon="11.907377200902605"><ele>199.0</ele><time>2026-04-04T08:38:02.001Z</time></trkpt><trkpt lat="44.20728912237925" lon="11.90739833110913"><ele>198.99999999999997</ele><time>2026-04-04T08:38:03.001Z</time></trkpt><trkpt lat="44.20719333418575" lon="11.907416025993067"><ele>199.0</ele><time>2026-04-04T08:38:04.001Z</time></trkpt><trkpt lat="44.207093481728045" lon="11.907442863036598"><ele>199.0</ele><time>2026-04-04T08:38:05.001Z</time></trkpt><trkpt lat="44.206990519145215" lon="11.907470513452225"><ele>199.0</ele><time>2026-04-04T08:38:06.001Z</time></trkpt><trkpt lat="44.206883472569956" lon="11.907493963093625"><ele>199.0</ele><time>2026-04-04T08:38:07.001Z</time></trkpt><trkpt lat="44.206768615648144" lon="11.907504190372414"><ele>199.0</ele><time>2026-04-04T08:38:08.001Z</time></trkpt><trkpt lat="44.20664386705106" lon="11.907488355807141"><ele>199.0</ele><time>2026-04-04T08:38:09.001Z</time></trkpt><trkpt lat="44.206516219803326" lon="11.907450652479941"><ele>199.0</ele><time>2026-04-04T08:38:10.001Z</time></trkpt><trkpt lat="44.20639058139883" lon="11.907401087027152"><ele>199.0</ele><time>2026-04-04T08:38:11.001Z</time></trkpt><trkpt lat="44.20627274524134" lon="11.907344352307687"><ele>199.0</ele><time>2026-04-04T08:38:12.001Z</time></trkpt><trkpt lat="44.20615401873806" lon="11.907289589306538"><ele>198.0</ele><time>2026-04-04T08:38:13.001Z</time></trkpt><trkpt lat="44.20603368943156" lon="11.90723827668791"><ele>197.0</ele><time>2026-04-04T08:38:14.001Z</time></trkpt><trkpt lat="44.205910433773084" lon="11.907194730478437"><ele>196.0</ele><time>2026-04-04T08:38:15.001Z</time></trkpt><trkpt lat="44.205783971162326" lon="11.907162030019782"><ele>195.0</ele><time>2026-04-04T08:38:16.001Z</time></trkpt><trkpt lat="44.20565809926618" lon="11.907130301178903"><ele>193.0</ele><time>2026-04-04T08:38:17.001Z</time></trkpt><trkpt lat="44.20553069839536" lon="11.907097428360233"><ele>191.0</ele><time>2026-04-04T08:38:18.001Z</time></trkpt><trkpt lat="44.205399753856284" lon="11.90706092655959"><ele>189.0</ele><time>2026-04-04T08:38:19.001Z</time></trkpt><trkpt lat="44.20526805189441" lon="11.907018797228602"><ele>187.0</ele><time>2026-04-04T08:38:20.001Z</time></trkpt><trkpt lat="44.2051366552864" lon="11.906963015664209"><ele>187.0</ele><time>2026-04-04T08:38:21.001Z</time></trkpt><trkpt lat="44.20500705359414" lon="11.906905645868408"><ele>187.0</ele><time>2026-04-04T08:38:22.001Z</time></trkpt><trkpt lat="44.2048818032723" lon="11.906846635880093"><ele>187.0</ele><time>2026-04-04T08:38:23.001Z</time></trkpt><trkpt lat="44.20476049419049" lon="11.906777724305218"><ele>187.0</ele><time>2026-04-04T08:38:24.001Z</time></trkpt><trkpt lat="44.2046480655416" lon="11.906694681490666"><ele>189.25</ele><time>2026-04-04T08:38:25.001Z</time></trkpt><trkpt lat="44.20454274680654" lon="11.906597242875714"><ele>191.5</ele><time>2026-04-04T08:38:26.001Z</time></trkpt><trkpt lat="44.20444578801663" lon="11.906485747884593"><ele>193.75</ele><time>2026-04-04T08:38:27.001Z</time></trkpt><trkpt lat="44.20435224592867" lon="11.906366666847799"><ele>196.0</ele><time>2026-04-04T08:38:28.002Z</time></trkpt><trkpt lat="44.2042590051348" lon="11.906247122923915"><ele>196.0</ele><time>2026-04-04T08:38:29.002Z</time></trkpt><trkpt lat="44.20416738207805" lon="11.906124261829122"><ele>196.0</ele><time>2026-04-04T08:38:30.002Z</time></trkpt><trkpt lat="44.204076097551486" lon="11.905996565621939"><ele>196.0</ele><time>2026-04-04T08:38:31.002Z</time></trkpt><trkpt lat="44.203982262800636" lon="11.905868734326964"><ele>196.0</ele><time>2026-04-04T08:38:32.002Z</time></trkpt><trkpt lat="44.20388849363794" lon="11.905738731249505"><ele>197.75</ele><time>2026-04-04T08:38:33.002Z</time></trkpt><trkpt lat="44.20379347837838" lon="11.905607592800672"><ele>199.5</ele><time>2026-04-04T08:38:34.002Z</time></trkpt><trkpt lat="44.203694186920664" lon="11.905479293277347"><ele>201.25</ele><time>2026-04-04T08:38:35.002Z</time></trkpt><trkpt lat="44.20358894921375" lon="11.905359976128889"><ele>203.0</ele><time>2026-04-04T08:38:36.002Z</time></trkpt><trkpt lat="44.20348237781849" lon="11.905248935249245"><ele>203.0</ele><time>2026-04-04T08:38:37.002Z</time></trkpt><trkpt lat="44.20337490079036" lon="11.90514395119508"><ele>203.0</ele><time>2026-04-04T08:38:38.002Z</time></trkpt><trkpt lat="44.20327330308488" lon="11.905046263819129"><ele>203.0</ele><time>2026-04-04T08:38:39.002Z</time></trkpt><trkpt lat="44.20317883902159" lon="11.904957548779716"><ele>203.0</ele><time>2026-04-04T08:38:40.002Z</time></trkpt><trkpt lat="44.2030867137094" lon="11.904878020220165"><ele>206.60000000000002</ele><time>2026-04-04T08:38:41.002Z</time></trkpt><trkpt lat="44.202996675910256" lon="11.904802562444386"><ele>210.20000000000002</ele><time>2026-04-04T08:38:42.002Z</time></trkpt><trkpt lat="44.20290862177258" lon="11.904732827320164"><ele>213.8</ele><time>2026-04-04T08:38:43.002Z</time></trkpt><trkpt lat="44.20282773635771" lon="11.904666111748362"><ele>217.4</ele><time>2026-04-04T08:38:44.002Z</time></trkpt><trkpt lat="44.202752760785344" lon="11.904606674662691"><ele>221.0</ele><time>2026-04-04T08:38:45.002Z</time></trkpt><trkpt lat="44.2026852287001" lon="11.904552531751829"><ele>221.00000000000003</ele><time>2026-04-04T08:38:46.002Z</time></trkpt><trkpt lat="44.20262302833391" lon="11.904504688585837"><ele>221.0</ele><time>2026-04-04T08:38:47.002Z</time></trkpt><trkpt lat="44.20256288648595" lon="11.904460732638755"><ele>221.0</ele><time>2026-04-04T08:38:48.002Z</time></trkpt><trkpt lat="44.20249707685712" lon="11.90441438916877"><ele>221.0</ele><time>2026-04-04T08:38:49.002Z</time></trkpt><trkpt lat="44.20242046931429" lon="11.90436463395389"><ele>221.00000000000003</ele><time>2026-04-04T08:38:50.002Z</time></trkpt><trkpt lat="44.20233888646916" lon="11.9043057008745"><ele>221.0</ele><time>2026-04-04T08:38:51.002Z</time></trkpt><trkpt lat="44.20224987414641" lon="11.904251894111136"><ele>222.20000000000002</ele><time>2026-04-04T08:38:52.002Z</time></trkpt><trkpt lat="44.202155946026465" lon="11.904215469479029"><ele>223.40000000000003</ele><time>2026-04-04T08:38:53.002Z</time></trkpt><trkpt lat="44.202062139846554" lon="11.904194167058069"><ele>224.6</ele><time>2026-04-04T08:38:54.002Z</time></trkpt><trkpt lat="44.20196491178807" lon="11.904168692927596"><ele>225.8</ele><time>2026-04-04T08:38:55.002Z</time></trkpt><trkpt lat="44.20187406147467" lon="11.904158606493972"><ele>227.0</ele><time>2026-04-04T08:38:56.002Z</time></trkpt><trkpt lat="44.20177820032479" lon="11.904155601821897"><ele>227.00000000000003</ele><time>2026-04-04T08:38:57.002Z</time></trkpt><trkpt lat="44.2016958959753" lon="11.904135950458562"><ele>227.0</ele><time>2026-04-04T08:38:58.002Z</time></trkpt><trkpt lat="44.2016199314677" lon="11.904100652509932"><ele>227.0</ele><time>2026-04-04T08:38:59.002Z</time></trkpt><trkpt lat="44.201542664180934" lon="11.90406544010845"><ele>227.0</ele><time>2026-04-04T08:39:00.002Z</time></trkpt><trkpt lat="44.201465612056055" lon="11.904012467015125"><ele>227.00000000000003</ele><time>2026-04-04T08:39:01.003Z</time></trkpt><trkpt lat="44.201389398637595" lon="11.90395437070719"><ele>227.0</ele><time>2026-04-04T08:39:02.003Z</time></trkpt><trkpt lat="44.201308744810255" lon="11.903897970632093"><ele>226.8</ele><time>2026-04-04T08:39:03.003Z</time></trkpt><trkpt lat="44.20122245723994" lon="11.903853995241315"><ele>226.6</ele><time>2026-04-04T08:39:04.003Z</time></trkpt><trkpt lat="44.2011310924394" lon="11.90382370622721"><ele>226.40000000000003</ele><time>2026-04-04T08:39:05.003Z</time></trkpt><trkpt lat="44.20103116518879" lon="11.903823390578395"><ele>226.20000000000002</ele><time>2026-04-04T08:39:06.003Z</time></trkpt><trkpt lat="44.20093358482002" lon="11.903810085632644"><ele>226.0</ele><time>2026-04-04T08:39:07.003Z</time></trkpt><trkpt lat="44.20082064783792" lon="11.90383092099805"><ele>226.0</ele><time>2026-04-04T08:39:08.003Z</time></trkpt><trkpt lat="44.20071725114844" lon="11.903818062417653"><ele>226.00000000000003</ele><time>2026-04-04T08:39:09.003Z</time></trkpt><trkpt lat="44.200610933277765" lon="11.903832745379239"><ele>226.00000000000003</ele><time>2026-04-04T08:39:10.003Z</time></trkpt><trkpt lat="44.20049361807852" lon="11.903852584397164"><ele>226.0</ele><time>2026-04-04T08:39:11.003Z</time></trkpt><trkpt lat="44.20037568681391" lon="11.90387781668788"><ele>226.0</ele><time>2026-04-04T08:39:12.003Z</time></trkpt><trkpt lat="44.20025672723987" lon="11.90391336274421"><ele>224.60000000000002</ele><time>2026-04-04T08:39:13.003Z</time></trkpt><trkpt lat="44.200143178214574" lon="11.903908680858502"><ele>223.20000000000002</ele><time>2026-04-04T08:39:14.003Z</time></trkpt><trkpt lat="44.20004592489268" lon="11.903905871302976"><ele>221.79999999999998</ele><time>2026-04-04T08:39:15.003Z</time></trkpt><trkpt lat="44.19993124876034" lon="11.903899148401887"><ele>220.39999999999998</ele><time>2026-04-04T08:39:16.003Z</time></trkpt><trkpt lat="44.19982041214317" lon="11.903885147295208"><ele>219.0</ele><time>2026-04-04T08:39:17.003Z</time></trkpt><trkpt lat="44.19971959555601" lon="11.903856444357256"><ele>217.6</ele><time>2026-04-04T08:39:18.003Z</time></trkpt><trkpt lat="44.19963802694083" lon="11.903811000335587"><ele>216.2</ele><time>2026-04-04T08:39:19.003Z</time></trkpt><trkpt lat="44.19955333444614" lon="11.903776902488866"><ele>214.79999999999998</ele><time>2026-04-04T08:39:20.003Z</time></trkpt><trkpt lat="44.19946071243725" lon="11.90375381370898"><ele>213.39999999999998</ele><time>2026-04-04T08:39:21.003Z</time></trkpt><trkpt lat="44.19936838864044" lon="11.903745665798322"><ele>212.0</ele><time>2026-04-04T08:39:22.003Z</time></trkpt><trkpt lat="44.19927268785602" lon="11.90375740904615"><ele>212.0</ele><time>2026-04-04T08:39:23.003Z</time></trkpt><trkpt lat="44.19917106552255" lon="11.903780281970633"><ele>212.0</ele><time>2026-04-04T08:39:24.003Z</time></trkpt><trkpt lat="44.199070346759136" lon="11.903808268252702"><ele>212.0</ele><time>2026-04-04T08:39:25.003Z</time></trkpt><trkpt lat="44.19897001076716" lon="11.903840576963104"><ele>212.0</ele><time>2026-04-04T08:39:26.003Z</time></trkpt><trkpt lat="44.19886719022704" lon="11.903876820236022"><ele>212.0</ele><time>2026-04-04T08:39:27.003Z</time></trkpt><trkpt lat="44.19876380620061" lon="11.903888562627973"><ele>211.6</ele><time>2026-04-04T08:39:28.003Z</time></trkpt><trkpt lat="44.198662558850366" lon="11.903878426046115"><ele>211.2</ele><time>2026-04-04T08:39:29Z</time></trkpt><trkpt lat="44.19856063358969" lon="11.903850342479283"><ele>210.8</ele><time>2026-04-04T08:39:30Z</time></trkpt><trkpt lat="44.19845885198367" lon="11.903806466888364"><ele>210.4</ele><time>2026-04-04T08:39:31Z</time></trkpt><trkpt lat="44.19835773867114" lon="11.903750116506014"><ele>210.0</ele><time>2026-04-04T08:39:32Z</time></trkpt><trkpt lat="44.19824882217965" lon="11.903699179014541"><ele>209.2</ele><time>2026-04-04T08:39:33Z</time></trkpt><trkpt lat="44.19814395021718" lon="11.903637854581355"><ele>208.4</ele><time>2026-04-04T08:39:34Z</time></trkpt><trkpt lat="44.19803498684548" lon="11.903615072266492"><ele>207.60000000000002</ele><time>2026-04-04T08:39:35Z</time></trkpt><trkpt lat="44.197934333704325" lon="11.903597789761523"><ele>206.8</ele><time>2026-04-04T08:39:36Z</time></trkpt><trkpt lat="44.197823208389195" lon="11.903612189975448"><ele>206.0</ele><time>2026-04-04T08:39:37Z</time></trkpt><trkpt lat="44.197710672161534" lon="11.903636247960733"><ele>206.0</ele><time>2026-04-04T08:39:38Z</time></trkpt><trkpt lat="44.19759323031483" lon="11.903665346020075"><ele>206.0</ele><time>2026-04-04T08:39:39Z</time></trkpt><trkpt lat="44.1974668014338" lon="11.903698709961953"><ele>206.0</ele><time>2026-04-04T08:39:40Z</time></trkpt><trkpt lat="44.197339963478335" lon="11.903731384033339"><ele>206.0</ele><time>2026-04-04T08:39:41Z</time></trkpt><trkpt lat="44.197208813643904" lon="11.903756914755581"><ele>205.25</ele><time>2026-04-04T08:39:42Z</time></trkpt><trkpt lat="44.19707689692562" lon="11.903790817596505"><ele>204.5</ele><time>2026-04-04T08:39:43Z</time></trkpt><trkpt lat="44.19694754634736" lon="11.903822452748047"><ele>203.75</ele><time>2026-04-04T08:39:44Z</time></trkpt><trkpt lat="44.19681760192398" lon="11.90385122072226"><ele>203.0</ele><time>2026-04-04T08:39:45Z</time></trkpt><trkpt lat="44.19668589564073" lon="11.903870386021543"><ele>203.0</ele><time>2026-04-04T08:39:46Z</time></trkpt><trkpt lat="44.19655757450505" lon="11.903875669086926"><ele>203.0</ele><time>2026-04-04T08:39:47Z</time></trkpt><trkpt lat="44.19643143453794" lon="11.903883487822698"><ele>203.0</ele><time>2026-04-04T08:39:48Z</time></trkpt><trkpt lat="44.19630634897471" lon="11.903894348769484"><ele>203.0</ele><time>2026-04-04T08:39:49Z</time></trkpt><trkpt lat="44.19618668428928" lon="11.903917545932776"><ele>202.5</ele><time>2026-04-04T08:39:50Z</time></trkpt><trkpt lat="44.19606589672905" lon="11.903943338750834"><ele>202.0</ele><time>2026-04-04T08:39:51Z</time></trkpt><trkpt lat="44.19594458668673" lon="11.903969507073311"><ele>201.5</ele><time>2026-04-04T08:39:52Z</time></trkpt><trkpt lat="44.1958230492758" lon="11.90400167139394"><ele>201.0</ele><time>2026-04-04T08:39:53Z</time></trkpt><trkpt lat="44.19570317547761" lon="11.904035645107601"><ele>199.75</ele><time>2026-04-04T08:39:54Z</time></trkpt><trkpt lat="44.19558322765748" lon="11.904073726530424"><ele>198.5</ele><time>2026-04-04T08:39:55Z</time></trkpt><trkpt lat="44.19546390474181" lon="11.904110276644088"><ele>197.25</ele><time>2026-04-04T08:39:56Z</time></trkpt><trkpt lat="44.19534472322796" lon="11.90415143946907"><ele>196.0</ele><time>2026-04-04T08:39:57Z</time></trkpt><trkpt lat="44.195234360235546" lon="11.904196983077322"><ele>195.20000000000002</ele><time>2026-04-04T08:39:58Z</time></trkpt><trkpt lat="44.19513294298473" lon="11.904250196522245"><ele>194.4</ele><time>2026-04-04T08:39:59Z</time></trkpt><trkpt lat="44.195034967098664" lon="11.904309680870808"><ele>193.6</ele><time>2026-04-04T08:40:00Z</time></trkpt><trkpt lat="44.19494034728078" lon="11.90437173355099"><ele>192.8</ele><time>2026-04-04T08:40:01.001Z</time></trkpt><trkpt lat="44.19485686798855" lon="11.904438039293106"><ele>192.0</ele><time>2026-04-04T08:40:02.001Z</time></trkpt><trkpt lat="44.19476732578419" lon="11.904499200421268"><ele>193.6</ele><time>2026-04-04T08:40:03.001Z</time></trkpt><trkpt lat="44.19467844882591" lon="11.904545341509998"><ele>195.2</ele><time>2026-04-04T08:40:04.001Z</time></trkpt><trkpt lat="44.194589147159824" lon="11.904600791788404"><ele>196.8</ele><time>2026-04-04T08:40:05.001Z</time></trkpt><trkpt lat="44.1945066602637" lon="11.904668510796045"><ele>198.4</ele><time>2026-04-04T08:40:06.001Z</time></trkpt><trkpt lat="44.19442442089337" lon="11.904757791985967"><ele>200.0</ele><time>2026-04-04T08:40:07.001Z</time></trkpt><trkpt lat="44.19434423857655" lon="11.90487344781881"><ele>200.0</ele><time>2026-04-04T08:40:08.001Z</time></trkpt><trkpt lat="44.19427362152709" lon="11.90498674135565"><ele>200.0</ele><time>2026-04-04T08:40:09.001Z</time></trkpt><trkpt lat="44.19420921136666" lon="11.905106636510226"><ele>200.0</ele><time>2026-04-04T08:40:10.001Z</time></trkpt><trkpt lat="44.19415529168164" lon="11.905228664155866"><ele>200.0</ele><time>2026-04-04T08:40:11.001Z</time></trkpt><trkpt lat="44.1941040469717" lon="11.905350395494613"><ele>200.0</ele><time>2026-04-04T08:40:12.001Z</time></trkpt><trkpt lat="44.194039326583585" lon="11.905471504725543"><ele>202.2</ele><time>2026-04-04T08:40:13.001Z</time></trkpt><trkpt lat="44.19397801888621" lon="11.905593751543565"><ele>204.4</ele><time>2026-04-04T08:40:14.001Z</time></trkpt><trkpt lat="44.193916445302825" lon="11.905715105086665"><ele>206.60000000000002</ele><time>2026-04-04T08:40:15.001Z</time></trkpt><trkpt lat="44.19385003005483" lon="11.905828665267348"><ele>208.8</ele><time>2026-04-04T08:40:16.001Z</time></trkpt><trkpt lat="44.19378229045265" lon="11.905935688511791"><ele>211.0</ele><time>2026-04-04T08:40:17.001Z</time></trkpt><trkpt lat="44.193719577698886" lon="11.906046233956756"><ele>211.16666666666666</ele><time>2026-04-04T08:40:18.001Z</time></trkpt><trkpt lat="44.19366073735687" lon="11.90614641616071"><ele>211.33333333333331</ele><time>2026-04-04T08:40:19.001Z</time></trkpt><trkpt lat="44.19361062041124" lon="11.90625022391071"><ele>211.5</ele><time>2026-04-04T08:40:20.001Z</time></trkpt><trkpt lat="44.1935939999478" lon="11.906362562939654"><ele>211.66666666666669</ele><time>2026-04-04T08:40:21.001Z</time></trkpt><trkpt lat="44.19359961651564" lon="11.906483960203099"><ele>211.83333333333334</ele><time>2026-04-04T08:40:22.001Z</time></trkpt><trkpt lat="44.19361514845025" lon="11.906595597795707"><ele>212.0</ele><time>2026-04-04T08:40:23.001Z</time></trkpt><trkpt lat="44.193657416789776" lon="11.906705855583155"><ele>211.0</ele><time>2026-04-04T08:40:24.001Z</time></trkpt><trkpt lat="44.19371255671419" lon="11.906803694815132"><ele>210.0</ele><time>2026-04-04T08:40:25.001Z</time></trkpt><trkpt lat="44.19377375257083" lon="11.9069134246685"><ele>209.0</ele><time>2026-04-04T08:40:26.001Z</time></trkpt><trkpt lat="44.19383317328363" lon="11.907027850885"><ele>208.0</ele><time>2026-04-04T08:40:27.001Z</time></trkpt><trkpt lat="44.19389272775311" lon="11.907151915663784"><ele>207.0</ele><time>2026-04-04T08:40:28.001Z</time></trkpt><trkpt lat="44.19395633596842" lon="11.907271585031623"><ele>206.8</ele><time>2026-04-04T08:40:29.001Z</time></trkpt><trkpt lat="44.194017762992345" lon="11.90738919930596"><ele>206.6</ele><time>2026-04-04T08:40:30.001Z</time></trkpt><trkpt lat="44.19407474154586" lon="11.907501661454514"><ele>206.4</ele><time>2026-04-04T08:40:31.001Z</time></trkpt><trkpt lat="44.194108164583234" lon="11.907623163495867"><ele>206.20000000000002</ele><time>2026-04-04T08:40:32.002Z</time></trkpt><trkpt lat="44.194106980578205" lon="11.907748028705399"><ele>206.0</ele><time>2026-04-04T08:40:33.002Z</time></trkpt><trkpt lat="44.19408261629468" lon="11.907879353881878"><ele>206.8</ele><time>2026-04-04T08:40:34.002Z</time></trkpt><trkpt lat="44.19404933917179" lon="11.908012670626576"><ele>207.60000000000002</ele><time>2026-04-04T08:40:35.002Z</time></trkpt><trkpt lat="44.19402032679239" lon="11.908149987204654"><ele>208.4</ele><time>2026-04-04T08:40:36.002Z</time></trkpt><trkpt lat="44.193994775007916" lon="11.908300472896919"><ele>209.2</ele><time>2026-04-04T08:40:37.002Z</time></trkpt><trkpt lat="44.193969696267295" lon="11.908455276976557"><ele>210.0</ele><time>2026-04-04T08:40:38.002Z</time></trkpt><trkpt lat="44.193945265346734" lon="11.908608722541887"><ele>204.5</ele><time>2026-04-04T08:40:39.002Z</time></trkpt><trkpt lat="44.19391352983165" lon="11.908763633477644"><ele>199.0</ele><time>2026-04-04T08:40:40.002Z</time></trkpt><trkpt lat="44.19387930642507" lon="11.908914385642964"><ele>193.5</ele><time>2026-04-04T08:40:41.002Z</time></trkpt><trkpt lat="44.193851365856986" lon="11.90906346828525"><ele>188.0</ele><time>2026-04-04T08:40:42.002Z</time></trkpt><trkpt lat="44.193823450362515" lon="11.90921366977258"><ele>189.25</ele><time>2026-04-04T08:40:43.002Z</time></trkpt><trkpt lat="44.19378687139274" lon="11.909369255895808"><ele>190.5</ele><time>2026-04-04T08:40:44.002Z</time></trkpt><trkpt lat="44.193744823714326" lon="11.909526814706078"><ele>191.75</ele><time>2026-04-04T08:40:45.002Z</time></trkpt><trkpt lat="44.19369816336602" lon="11.909688937134584"><ele>193.0</ele><time>2026-04-04T08:40:46.002Z</time></trkpt><trkpt lat="44.193646348165714" lon="11.909855789551393"><ele>193.0</ele><time>2026-04-04T08:40:47.002Z</time></trkpt><trkpt lat="44.19359511756521" lon="11.910028059255792"><ele>193.0</ele><time>2026-04-04T08:40:48.002Z</time></trkpt><trkpt lat="44.19354397476671" lon="11.910202161075743"><ele>193.0</ele><time>2026-04-04T08:40:49.002Z</time></trkpt><trkpt lat="44.19349351913042" lon="11.91037134817108"><ele>193.0</ele><time>2026-04-04T08:40:50.002Z</time></trkpt><trkpt lat="44.19344152492917" lon="11.910511229187188"><ele>193.66666666666666</ele><time>2026-04-04T08:40:51.002Z</time></trkpt><trkpt lat="44.193379018716506" lon="11.910636962303215"><ele>194.33333333333331</ele><time>2026-04-04T08:40:52.002Z</time></trkpt><trkpt lat="44.193307403702825" lon="11.910736276007764"><ele>195.0</ele><time>2026-04-04T08:40:53.002Z</time></trkpt><trkpt lat="44.19323827952339" lon="11.910810430887274"><ele>195.66666666666669</ele><time>2026-04-04T08:40:54.002Z</time></trkpt><trkpt lat="44.193181371301776" lon="11.910876935688062"><ele>196.33333333333334</ele><time>2026-04-04T08:40:55.002Z</time></trkpt><trkpt lat="44.19313380398248" lon="11.91094266615111"><ele>197.0</ele><time>2026-04-04T08:40:56.002Z</time></trkpt><trkpt lat="44.193062549063896" lon="11.911062927948171"><ele>195.33333333333334</ele><time>2026-04-04T08:40:58.002Z</time></trkpt><trkpt lat="44.1930132638468" lon="11.911202752127542"><ele>193.66666666666669</ele><time>2026-04-04T08:41:00.002Z</time></trkpt><trkpt lat="44.192990556530894" lon="11.911289451583166"><ele>192.0</ele><time>2026-04-04T08:41:01.002Z</time></trkpt><trkpt lat="44.19296753814848" lon="11.911386484245329"><ele>190.33333333333334</ele><time>2026-04-04T08:41:02.002Z</time></trkpt><trkpt lat="44.19293936838817" lon="11.9114921902004"><ele>188.66666666666669</ele><time>2026-04-04T08:41:03.002Z</time></trkpt><trkpt lat="44.1929041479604" lon="11.911608639965095"><ele>187.0</ele><time>2026-04-04T08:41:04.002Z</time></trkpt><trkpt lat="44.19286801697856" lon="11.911735393045264"><ele>186.6</ele><time>2026-04-04T08:41:05.003Z</time></trkpt><trkpt lat="44.19283194348349" lon="11.911868428072754"><ele>186.2</ele><time>2026-04-04T08:41:06.003Z</time></trkpt><trkpt lat="44.1927970940283" lon="11.912009740566857"><ele>185.8</ele><time>2026-04-04T08:41:07.003Z</time></trkpt><trkpt lat="44.19275682529844" lon="11.91215908535418"><ele>185.4</ele><time>2026-04-04T08:41:08.003Z</time></trkpt><trkpt lat="44.19270926124352" lon="11.912316951989393"><ele>185.0</ele><time>2026-04-04T08:41:09.003Z</time></trkpt><trkpt lat="44.192662824467995" lon="11.912479684068789"><ele>184.0</ele><time>2026-04-04T08:41:10.003Z</time></trkpt><trkpt lat="44.192618049023764" lon="11.912643021489133"><ele>183.0</ele><time>2026-04-04T08:41:11.003Z</time></trkpt><trkpt lat="44.19257505661508" lon="11.91280004557074"><ele>182.0</ele><time>2026-04-04T08:41:12.003Z</time></trkpt><trkpt lat="44.19253181144913" lon="11.912958213764176"><ele>181.0</ele><time>2026-04-04T08:41:13.003Z</time></trkpt><trkpt lat="44.19248681285329" lon="11.913111232691817"><ele>181.0</ele><time>2026-04-04T08:41:14.003Z</time></trkpt><trkpt lat="44.19244132964724" lon="11.91326378389397"><ele>181.0</ele><time>2026-04-04T08:41:15.003Z</time></trkpt><trkpt lat="44.19240092297904" lon="11.913406915016491"><ele>181.0</ele><time>2026-04-04T08:41:16.003Z</time></trkpt><trkpt lat="44.1923650759333" lon="11.913541616117092"><ele>181.0</ele><time>2026-04-04T08:41:17.003Z</time></trkpt><trkpt lat="44.19233279284894" lon="11.913669907619274"><ele>181.0</ele><time>2026-04-04T08:41:18.003Z</time></trkpt><trkpt lat="44.192305258548544" lon="11.913790441129969"><ele>179.5</ele><time>2026-04-04T08:41:19.003Z</time></trkpt><trkpt lat="44.19229069366389" lon="11.91390036722967"><ele>178.0</ele><time>2026-04-04T08:41:20.003Z</time></trkpt><trkpt lat="44.192301902649675" lon="11.914011901671962"><ele>176.5</ele><time>2026-04-04T08:41:21.003Z</time></trkpt><trkpt lat="44.19234719262144" lon="11.914100437270815"><ele>175.0</ele><time>2026-04-04T08:41:22.003Z</time></trkpt><trkpt lat="44.19241240801739" lon="11.91414881729883"><ele>173.5</ele><time>2026-04-04T08:41:23.003Z</time></trkpt><trkpt lat="44.19247713579372" lon="11.914170477567486"><ele>172.0</ele><time>2026-04-04T08:41:24.003Z</time></trkpt><trkpt lat="44.19255763044842" lon="11.914238200455147"><ele>169.4</ele><time>2026-04-04T08:41:26.003Z</time></trkpt><trkpt lat="44.19254523514967" lon="11.91436515384283"><ele>166.79999999999998</ele><time>2026-04-04T08:41:28.003Z</time></trkpt><trkpt lat="44.19244251179854" lon="11.914459825111008"><ele>164.2</ele><time>2026-04-04T08:41:30.003Z</time></trkpt><trkpt lat="44.19237003144775" lon="11.914475100146369"><ele>161.6</ele><time>2026-04-04T08:41:31.003Z</time></trkpt><trkpt lat="44.192290698089394" lon="11.914494679386763"><ele>159.0</ele><time>2026-04-04T08:41:32.003Z</time></trkpt><trkpt lat="44.19220858850942" lon="11.914520206289353"><ele>157.16666666666666</ele><time>2026-04-04T08:41:33.003Z</time></trkpt><trkpt lat="44.192143003309944" lon="11.914536518211827"><ele>155.33333333333334</ele><time>2026-04-04T08:41:34.003Z</time></trkpt><trkpt lat="44.1920384317949" lon="11.914593833270123"><ele>153.5</ele><time>2026-04-04T08:41:36Z</time></trkpt><trkpt lat="44.19200247069513" lon="11.914724481215005"><ele>151.66666666666669</ele><time>2026-04-04T08:41:38Z</time></trkpt><trkpt lat="44.19202642664867" lon="11.914807037279463"><ele>149.83333333333334</ele><time>2026-04-04T08:41:39Z</time></trkpt><trkpt lat="44.19208030767948" lon="11.914868348989355"><ele>148.0</ele><time>2026-04-04T08:41:40Z</time></trkpt><trkpt lat="44.19214682064306" lon="11.914903559703696"><ele>148.0</ele><time>2026-04-04T08:41:41Z</time></trkpt><trkpt lat="44.192225373643915" lon="11.915020896689267"><ele>148.0</ele><time>2026-04-04T08:41:43Z</time></trkpt><trkpt lat="44.19217917315688" lon="11.915166714460263"><ele>148.0</ele><time>2026-04-04T08:41:45Z</time></trkpt><trkpt lat="44.19211737130587" lon="11.915200420871342"><ele>148.0</ele><time>2026-04-04T08:41:46Z</time></trkpt><trkpt lat="44.192047518578626" lon="11.915190221080099"><ele>148.0</ele><time>2026-04-04T08:41:47Z</time></trkpt><trkpt lat="44.19197480486802" lon="11.915159460813149"><ele>148.0</ele><time>2026-04-04T08:41:48Z</time></trkpt><trkpt lat="44.19190106812299" lon="11.915137179826004"><ele>145.8</ele><time>2026-04-04T08:41:49Z</time></trkpt><trkpt lat="44.19183073539054" lon="11.915114596896919"><ele>143.60000000000002</ele><time>2026-04-04T08:41:50Z</time></trkpt><trkpt lat="44.191768438991666" lon="11.915098359187237"><ele>141.39999999999998</ele><time>2026-04-04T08:41:51Z</time></trkpt><trkpt lat="44.1916678671346" lon="11.915079516769438"><ele>139.2</ele><time>2026-04-04T08:41:53Z</time></trkpt><trkpt lat="44.191624093667436" lon="11.915205579007557"><ele>137.0</ele><time>2026-04-04T08:41:55Z</time></trkpt><trkpt lat="44.19170802563191" lon="11.915345213505812"><ele>137.0</ele><time>2026-04-04T08:41:57Z</time></trkpt><trkpt lat="44.19177744619336" lon="11.915390219807808"><ele>137.0</ele><time>2026-04-04T08:41:58Z</time></trkpt><trkpt lat="44.19184896127006" lon="11.915431548447907"><ele>137.0</ele><time>2026-04-04T08:41:59Z</time></trkpt><trkpt lat="44.19192033798961" lon="11.915476750023538"><ele>137.0</ele><time>2026-04-04T08:42:00Z</time></trkpt><trkpt lat="44.191984630673254" lon="11.915511767445981"><ele>137.0</ele><time>2026-04-04T08:42:01Z</time></trkpt><trkpt lat="44.19207405086799" lon="11.915567654895801"><ele>137.0</ele><time>2026-04-04T08:42:03Z</time></trkpt><trkpt lat="44.19207996432982" lon="11.91568933643272"><ele>137.0</ele><time>2026-04-04T08:42:05.001Z</time></trkpt><trkpt lat="44.191974616343316" lon="11.915741917520654"><ele>137.0</ele><time>2026-04-04T08:42:07.001Z</time></trkpt><trkpt lat="44.19191354728184" lon="11.91571811630629"><ele>137.0</ele><time>2026-04-04T08:42:08.001Z</time></trkpt><trkpt lat="44.191846462083504" lon="11.915691561897786"><ele>137.0</ele><time>2026-04-04T08:42:09.001Z</time></trkpt><trkpt lat="44.19177212593216" lon="11.915668884481367"><ele>137.0</ele><time>2026-04-04T08:42:10.001Z</time></trkpt><trkpt lat="44.191694588763525" lon="11.915640738054302"><ele>137.0</ele><time>2026-04-04T08:42:11.001Z</time></trkpt><trkpt lat="44.19161032677533" lon="11.915618064534266"><ele>137.0</ele><time>2026-04-04T08:42:12.001Z</time></trkpt><trkpt lat="44.19152807155842" lon="11.91559527930445"><ele>137.0</ele><time>2026-04-04T08:42:13.001Z</time></trkpt><trkpt lat="44.1914490228088" lon="11.915570739423098"><ele>137.0</ele><time>2026-04-04T08:42:14.001Z</time></trkpt><trkpt lat="44.19137888623697" lon="11.915543018283692"><ele>137.0</ele><time>2026-04-04T08:42:15.001Z</time></trkpt><trkpt lat="44.19127997405555" lon="11.915592208214985"><ele>137.0</ele><time>2026-04-04T08:42:17.001Z</time></trkpt><trkpt lat="44.19127931891033" lon="11.915748474600512"><ele>134.33333333333331</ele><time>2026-04-04T08:42:19.001Z</time></trkpt><trkpt lat="44.19133575885286" lon="11.915812879543841"><ele>131.66666666666666</ele><time>2026-04-04T08:42:20.001Z</time></trkpt><trkpt lat="44.191405036548716" lon="11.915860163466286"><ele>129.0</ele><time>2026-04-04T08:42:21.001Z</time></trkpt><trkpt lat="44.19148535227815" lon="11.915908107977431"><ele>126.33333333333334</ele><time>2026-04-04T08:42:22.001Z</time></trkpt><trkpt lat="44.19157342339652" lon="11.915967778436102"><ele>123.66666666666667</ele><time>2026-04-04T08:42:23.001Z</time></trkpt><trkpt lat="44.19166408650817" lon="11.916042706822173"><ele>121.0</ele><time>2026-04-04T08:42:24.001Z</time></trkpt><trkpt lat="44.19174832813394" lon="11.916125439813555"><ele>120.8</ele><time>2026-04-04T08:42:25.001Z</time></trkpt><trkpt lat="44.19183239154145" lon="11.916219032155432"><ele>120.6</ele><time>2026-04-04T08:42:26.001Z</time></trkpt><trkpt lat="44.19192197829319" lon="11.91631565578559"><ele>120.4</ele><time>2026-04-04T08:42:27.001Z</time></trkpt><trkpt lat="44.192008038402854" lon="11.916399429021011"><ele>120.2</ele><time>2026-04-04T08:42:28.001Z</time></trkpt><trkpt lat="44.1920817009211" lon="11.916465900231692"><ele>120.0</ele><time>2026-04-04T08:42:29.001Z</time></trkpt><trkpt lat="44.19214876535062" lon="11.916517662792627"><ele>120.0</ele><time>2026-04-04T08:42:30.001Z</time></trkpt><trkpt lat="44.192209776605104" lon="11.916564213339745"><ele>120.0</ele><time>2026-04-04T08:42:31.001Z</time></trkpt><trkpt lat="44.192268690087445" lon="11.916600991417122"><ele>120.0</ele><time>2026-04-04T08:42:32.001Z</time></trkpt><trkpt lat="44.192312912900626" lon="11.916713882848377"><ele>120.0</ele><time>2026-04-04T08:42:34.001Z</time></trkpt><trkpt lat="44.19223135588438" lon="11.916805945037511"><ele>120.0</ele><time>2026-04-04T08:42:36.001Z</time></trkpt><trkpt lat="44.19215478182155" lon="11.91679447145157"><ele>120.0</ele><time>2026-04-04T08:42:37.002Z</time></trkpt><trkpt lat="44.19207749306898" lon="11.916758884186402"><ele>120.0</ele><time>2026-04-04T08:42:38.002Z</time></trkpt><trkpt lat="44.191990420093774" lon="11.916725415941531"><ele>120.0</ele><time>2026-04-04T08:42:39.002Z</time></trkpt><trkpt lat="44.19189147898593" lon="11.916707334259264"><ele>120.0</ele><time>2026-04-04T08:42:40.002Z</time></trkpt><trkpt lat="44.19178662450079" lon="11.916697252019496"><ele>120.0</ele><time>2026-04-04T08:42:41.002Z</time></trkpt><trkpt lat="44.191676310327495" lon="11.916692913400622"><ele>120.0</ele><time>2026-04-04T08:42:42.002Z</time></trkpt><trkpt lat="44.19156860673149" lon="11.916692425867423"><ele>118.0</ele><time>2026-04-04T08:42:43.002Z</time></trkpt><trkpt lat="44.19146131125189" lon="11.916691786095685"><ele>116.0</ele><time>2026-04-04T08:42:44.002Z</time></trkpt><trkpt lat="44.19135555899774" lon="11.91668709646273"><ele>114.0</ele><time>2026-04-04T08:42:45.002Z</time></trkpt><trkpt lat="44.19125498150932" lon="11.916687486207609"><ele>112.0</ele><time>2026-04-04T08:42:46.002Z</time></trkpt><trkpt lat="44.19116025918827" lon="11.9167077408254"><ele>110.0</ele><time>2026-04-04T08:42:47.002Z</time></trkpt><trkpt lat="44.19106931312326" lon="11.916746639776301"><ele>107.6</ele><time>2026-04-04T08:42:48.002Z</time></trkpt><trkpt lat="44.19098228164321" lon="11.916797090293874"><ele>105.2</ele><time>2026-04-04T08:42:49.002Z</time></trkpt><trkpt lat="44.19090156380173" lon="11.916868336801421"><ele>102.80000000000001</ele><time>2026-04-04T08:42:50.002Z</time></trkpt><trkpt lat="44.190834925041145" lon="11.916936190188819"><ele>100.4</ele><time>2026-04-04T08:42:51.002Z</time></trkpt><trkpt lat="44.19078719974428" lon="11.917000493347427"><ele>98.0</ele><time>2026-04-04T08:42:52.002Z</time></trkpt><trkpt lat="44.19070344364667" lon="11.917120755120555"><ele>97.49999999999999</ele><time>2026-04-04T08:42:54.002Z</time></trkpt><trkpt lat="44.19065539985705" lon="11.917179293338611"><ele>97.0</ele><time>2026-04-04T08:42:55.002Z</time></trkpt><trkpt lat="44.19060267641716" lon="11.917252653157595"><ele>96.5</ele><time>2026-04-04T08:42:56.002Z</time></trkpt><trkpt lat="44.19054498586697" lon="11.917334289279268"><ele>96.0</ele><time>2026-04-04T08:42:57.002Z</time></trkpt><trkpt lat="44.19048169202164" lon="11.917419359549749"><ele>95.5</ele><time>2026-04-04T08:42:58.002Z</time></trkpt><trkpt lat="44.19041747679623" lon="11.917506383970073"><ele>95.0</ele><time>2026-04-04T08:42:59.002Z</time></trkpt><trkpt lat="44.19036009070459" lon="11.917599809256087"><ele>94.6</ele><time>2026-04-04T08:43:00.002Z</time></trkpt><trkpt lat="44.19031176171681" lon="11.91770300751015"><ele>94.2</ele><time>2026-04-04T08:43:01.002Z</time></trkpt><trkpt lat="44.19026981863677" lon="11.91782686194561"><ele>93.80000000000001</ele><time>2026-04-04T08:43:02.002Z</time></trkpt><trkpt lat="44.19023249741462" lon="11.917956287050911"><ele>93.4</ele><time>2026-04-04T08:43:03.002Z</time></trkpt><trkpt lat="44.19019884860402" lon="11.918097518121213"><ele>93.0</ele><time>2026-04-04T08:43:04.002Z</time></trkpt><trkpt lat="44.19016207687923" lon="11.918250812133659"><ele>93.5</ele><time>2026-04-04T08:43:05.002Z</time></trkpt><trkpt lat="44.190128091167566" lon="11.918412394923056"><ele>94.0</ele><time>2026-04-04T08:43:06.002Z</time></trkpt><trkpt lat="44.19009654950653" lon="11.918580698678412"><ele>94.5</ele><time>2026-04-04T08:43:07.002Z</time></trkpt><trkpt lat="44.19006835759421" lon="11.918740535789325"><ele>95.0</ele><time>2026-04-04T08:43:08.002Z</time></trkpt><trkpt lat="44.190037502425916" lon="11.918890152484895"><ele>95.0</ele><time>2026-04-04T08:43:09.002Z</time></trkpt><trkpt lat="44.190007129373065" lon="11.919039735461908"><ele>95.0</ele><time>2026-04-04T08:43:10.003Z</time></trkpt><trkpt lat="44.18997834822404" lon="11.919180036674133"><ele>95.0</ele><time>2026-04-04T08:43:11.003Z</time></trkpt><trkpt lat="44.18994680649926" lon="11.919309192317064"><ele>95.0</ele><time>2026-04-04T08:43:12.003Z</time></trkpt><trkpt lat="44.18991531465443" lon="11.919427193602182"><ele>95.0</ele><time>2026-04-04T08:43:13.003Z</time></trkpt><trkpt lat="44.18990565394725" lon="11.91953947747195"><ele>95.33333333333334</ele><time>2026-04-04T08:43:14.003Z</time></trkpt><trkpt lat="44.18987886806215" lon="11.919644654278084"><ele>95.66666666666667</ele><time>2026-04-04T08:43:15.003Z</time></trkpt><trkpt lat="44.18985610156024" lon="11.91975924146903"><ele>96.0</ele><time>2026-04-04T08:43:16.003Z</time></trkpt><trkpt lat="44.18983049185205" lon="11.919869162364531"><ele>96.33333333333334</ele><time>2026-04-04T08:43:17.003Z</time></trkpt><trkpt lat="44.18981194099391" lon="11.919979701348868"><ele>96.66666666666667</ele><time>2026-04-04T08:43:18.003Z</time></trkpt><trkpt lat="44.18978350564641" lon="11.920113516924863"><ele>97.0</ele><time>2026-04-04T08:43:19.003Z</time></trkpt><trkpt lat="44.189756368545915" lon="11.920237787644394"><ele>97.19999999999999</ele><time>2026-04-04T08:43:20.003Z</time></trkpt><trkpt lat="44.18972843306765" lon="11.920366897800022"><ele>97.4</ele><time>2026-04-04T08:43:21.003Z</time></trkpt><trkpt lat="44.18969590648928" lon="11.920493057230605"><ele>97.6</ele><time>2026-04-04T08:43:22.003Z</time></trkpt><trkpt lat="44.1896676779017" lon="11.920635079092836"><ele>97.80000000000001</ele><time>2026-04-04T08:43:23.003Z</time></trkpt><trkpt lat="44.18964012909057" lon="11.92078316897098"><ele>98.0</ele><time>2026-04-04T08:43:24.003Z</time></trkpt><trkpt lat="44.1896089899932" lon="11.920942076576674"><ele>97.25</ele><time>2026-04-04T08:43:25.003Z</time></trkpt><trkpt lat="44.18957061575346" lon="11.921100403451575"><ele>96.5</ele><time>2026-04-04T08:43:26.003Z</time></trkpt><trkpt lat="44.18953346928044" lon="11.921267556906027"><ele>95.75</ele><time>2026-04-04T08:43:27.003Z</time></trkpt><trkpt lat="44.18950096287444" lon="11.92143879907653"><ele>95.0</ele><time>2026-04-04T08:43:28.003Z</time></trkpt><trkpt lat="44.189466412129384" lon="11.921605525156908"><ele>94.0</ele><time>2026-04-04T08:43:29.003Z</time></trkpt><trkpt lat="44.18942699815265" lon="11.921770353314333"><ele>93.0</ele><time>2026-04-04T08:43:30.003Z</time></trkpt><trkpt lat="44.18938258040908" lon="11.921926930276587"><ele>92.0</ele><time>2026-04-04T08:43:31.003Z</time></trkpt><trkpt lat="44.18933113443149" lon="11.922077867952197"><ele>91.0</ele><time>2026-04-04T08:43:32.003Z</time></trkpt><trkpt lat="44.18925932824606" lon="11.922216682848173"><ele>91.0</ele><time>2026-04-04T08:43:33.003Z</time></trkpt><trkpt lat="44.18917441159594" lon="11.922334716876188"><ele>91.0</ele><time>2026-04-04T08:43:34.003Z</time></trkpt><trkpt lat="44.18908874769408" lon="11.922448597487518"><ele>91.0</ele><time>2026-04-04T08:43:35.003Z</time></trkpt><trkpt lat="44.189003089629985" lon="11.922565927180466"><ele>91.0</ele><time>2026-04-04T08:43:36.003Z</time></trkpt><trkpt lat="44.188913457532784" lon="11.922682849270862"><ele>91.0</ele><time>2026-04-04T08:43:37.003Z</time></trkpt><trkpt lat="44.1888311250866" lon="11.92281211158956"><ele>91.0</ele><time>2026-04-04T08:43:38.003Z</time></trkpt><trkpt lat="44.18874398396559" lon="11.922944499884068"><ele>91.0</ele><time>2026-04-04T08:43:39.003Z</time></trkpt><trkpt lat="44.18865055984062" lon="11.923088299980146"><ele>91.0</ele><time>2026-04-04T08:43:40.003Z</time></trkpt><trkpt lat="44.18855783610649" lon="11.92322734144612"><ele>91.0</ele><time>2026-04-04T08:43:41Z</time></trkpt><trkpt lat="44.188465730705175" lon="11.923367567075626"><ele>91.0</ele><time>2026-04-04T08:43:42Z</time></trkpt><trkpt lat="44.188372591816915" lon="11.923514041609579"><ele>91.0</ele><time>2026-04-04T08:43:43Z</time></trkpt><trkpt lat="44.188281471289436" lon="11.923666222453178"><ele>91.0</ele><time>2026-04-04T08:43:44Z</time></trkpt><trkpt lat="44.188194155906146" lon="11.923827483258005"><ele>90.25</ele><time>2026-04-04T08:43:45Z</time></trkpt><trkpt lat="44.18811158113817" lon="11.923993923984268"><ele>89.5</ele><time>2026-04-04T08:43:46Z</time></trkpt><trkpt lat="44.18803015908555" lon="11.924160966426921"><ele>88.75</ele><time>2026-04-04T08:43:47Z</time></trkpt><trkpt lat="44.18795524452609" lon="11.924323985075489"><ele>88.0</ele><time>2026-04-04T08:43:48Z</time></trkpt><trkpt lat="44.187890477290765" lon="11.92449117576468"><ele>88.0</ele><time>2026-04-04T08:43:49Z</time></trkpt><trkpt lat="44.187827944111795" lon="11.924654089111725"><ele>88.0</ele><time>2026-04-04T08:43:50Z</time></trkpt><trkpt lat="44.18776021695018" lon="11.924797492965238"><ele>88.0</ele><time>2026-04-04T08:43:51Z</time></trkpt><trkpt lat="44.187685367883056" lon="11.924922691708465"><ele>88.0</ele><time>2026-04-04T08:43:52Z</time></trkpt><trkpt lat="44.18758870103784" lon="11.925037576890665"><ele>88.25</ele><time>2026-04-04T08:43:53Z</time></trkpt><trkpt lat="44.18747379632908" lon="11.925133986641614"><ele>88.5</ele><time>2026-04-04T08:43:54Z</time></trkpt><trkpt lat="44.18735284454412" lon="11.92522413594968"><ele>88.75</ele><time>2026-04-04T08:43:55Z</time></trkpt><trkpt lat="44.187237769239054" lon="11.925333894522264"><ele>89.0</ele><time>2026-04-04T08:43:56Z</time></trkpt><trkpt lat="44.18712929016613" lon="11.925470080261421"><ele>88.0</ele><time>2026-04-04T08:43:57Z</time></trkpt><trkpt lat="44.187029282988966" lon="11.92562174748561"><ele>87.0</ele><time>2026-04-04T08:43:58Z</time></trkpt><trkpt lat="44.186941909599724" lon="11.925779634431024"><ele>86.0</ele><time>2026-04-04T08:43:59Z</time></trkpt><trkpt lat="44.186849792545246" lon="11.92593842422568"><ele>85.0</ele><time>2026-04-04T08:44:00Z</time></trkpt><trkpt lat="44.18674354186734" lon="11.926072480946564"><ele>85.0</ele><time>2026-04-04T08:44:01Z</time></trkpt><trkpt lat="44.18662475992564" lon="11.926182579397246"><ele>85.0</ele><time>2026-04-04T08:44:02Z</time></trkpt><trkpt lat="44.186502364874436" lon="11.926277663265745"><ele>85.0</ele><time>2026-04-04T08:44:03Z</time></trkpt><trkpt lat="44.186394880820274" lon="11.92636780234595"><ele>85.0</ele><time>2026-04-04T08:44:04Z</time></trkpt><trkpt lat="44.186306850781506" lon="11.926476388705336"><ele>86.25</ele><time>2026-04-04T08:44:05Z</time></trkpt><trkpt lat="44.18624596505736" lon="11.92661234708374"><ele>87.5</ele><time>2026-04-04T08:44:06Z</time></trkpt><trkpt lat="44.18622126501543" lon="11.926764759425838"><ele>88.75</ele><time>2026-04-04T08:44:07Z</time></trkpt><trkpt lat="44.18622531631645" lon="11.926927285359122"><ele>90.0</ele><time>2026-04-04T08:44:08Z</time></trkpt><trkpt lat="44.18625495336428" lon="11.927094648349293"><ele>90.0</ele><time>2026-04-04T08:44:09Z</time></trkpt><trkpt lat="44.18629679177618" lon="11.927260121696508"><ele>90.0</ele><time>2026-04-04T08:44:10Z</time></trkpt><trkpt lat="44.18632727221409" lon="11.92743187016776"><ele>90.0</ele><time>2026-04-04T08:44:11Z</time></trkpt><trkpt lat="44.18634103441775" lon="11.927604002659184"><ele>90.0</ele><time>2026-04-04T08:44:12Z</time></trkpt><trkpt lat="44.18633038802671" lon="11.92777036512081"><ele>89.5</ele><time>2026-04-04T08:44:13.001Z</time></trkpt><trkpt lat="44.18628436888104" lon="11.9279352174023"><ele>89.0</ele><time>2026-04-04T08:44:14.001Z</time></trkpt><trkpt lat="44.18621405222711" lon="11.928094318670762"><ele>88.5</ele><time>2026-04-04T08:44:15.001Z</time></trkpt><trkpt lat="44.186157261143144" lon="11.928259716784636"><ele>88.0</ele><time>2026-04-04T08:44:16.001Z</time></trkpt><trkpt lat="44.18612831558069" lon="11.928448996860562"><ele>88.0</ele><time>2026-04-04T08:44:17.001Z</time></trkpt><trkpt lat="44.186109403631505" lon="11.928646786162192"><ele>88.0</ele><time>2026-04-04T08:44:18.001Z</time></trkpt><trkpt lat="44.186091499363165" lon="11.928848877168289"><ele>88.0</ele><time>2026-04-04T08:44:19.001Z</time></trkpt><trkpt lat="44.18607876226885" lon="11.929035020774512"><ele>88.0</ele><time>2026-04-04T08:44:20.001Z</time></trkpt><trkpt lat="44.186071802177636" lon="11.929197497638297"><ele>87.5</ele><time>2026-04-04T08:44:21.001Z</time></trkpt><trkpt lat="44.186049158022556" lon="11.929342669926141"><ele>87.0</ele><time>2026-04-04T08:44:22.001Z</time></trkpt><trkpt lat="44.18600785881535" lon="11.929487901879385"><ele>86.5</ele><time>2026-04-04T08:44:23.001Z</time></trkpt><trkpt lat="44.185957022242384" lon="11.929637236156497"><ele>86.0</ele><time>2026-04-04T08:44:24.001Z</time></trkpt><trkpt lat="44.18590399836537" lon="11.92979654913098"><ele>86.0</ele><time>2026-04-04T08:44:25.001Z</time></trkpt><trkpt lat="44.18585079175416" lon="11.929963974576717"><ele>86.0</ele><time>2026-04-04T08:44:26.001Z</time></trkpt><trkpt lat="44.18579699321269" lon="11.930136154552825"><ele>86.0</ele><time>2026-04-04T08:44:27.001Z</time></trkpt><trkpt lat="44.1857451151468" lon="11.930309640325852"><ele>86.0</ele><time>2026-04-04T08:44:28.001Z</time></trkpt><trkpt lat="44.18569434575246" lon="11.930489387797662"><ele>86.25</ele><time>2026-04-04T08:44:29.001Z</time></trkpt><trkpt lat="44.18564252144448" lon="11.930665605729416"><ele>86.5</ele><time>2026-04-04T08:44:30.001Z</time></trkpt><trkpt lat="44.18557991806755" lon="11.930836869985145"><ele>86.75</ele><time>2026-04-04T08:44:31.001Z</time></trkpt><trkpt lat="44.18551360173563" lon="11.930999895137678"><ele>87.0</ele><time>2026-04-04T08:44:32.001Z</time></trkpt><trkpt lat="44.185446492931014" lon="11.931161812325074"><ele>87.0</ele><time>2026-04-04T08:44:33.001Z</time></trkpt><trkpt lat="44.18537882031713" lon="11.93132335458806"><ele>87.0</ele><time>2026-04-04T08:44:34.001Z</time></trkpt><trkpt lat="44.18531447169348" lon="11.931480841256354"><ele>87.0</ele><time>2026-04-04T08:44:35.001Z</time></trkpt><trkpt lat="44.185252952381845" lon="11.931634136537067"><ele>87.0</ele><time>2026-04-04T08:44:36.001Z</time></trkpt><trkpt lat="44.18519843242505" lon="11.931780900882353"><ele>85.8</ele><time>2026-04-04T08:44:37.001Z</time></trkpt><trkpt lat="44.18514226865832" lon="11.931920159142003"><ele>84.6</ele><time>2026-04-04T08:44:38.001Z</time></trkpt><trkpt lat="44.18509852475945" lon="11.932062778672657"><ele>83.39999999999999</ele><time>2026-04-04T08:44:39.001Z</time></trkpt><trkpt lat="44.18506611580461" lon="11.932203979429184"><ele>82.19999999999999</ele><time>2026-04-04T08:44:40.001Z</time></trkpt><trkpt lat="44.18503767021511" lon="11.932347096733912"><ele>81.0</ele><time>2026-04-04T08:44:41.001Z</time></trkpt><trkpt lat="44.18500498312317" lon="11.932477004283232"><ele>81.0</ele><time>2026-04-04T08:44:42.001Z</time></trkpt><trkpt lat="44.18497619793986" lon="11.932598265259442"><ele>81.0</ele><time>2026-04-04T08:44:43.001Z</time></trkpt><trkpt lat="44.18497050309257" lon="11.932727850933949"><ele>81.0</ele><time>2026-04-04T08:44:44.002Z</time></trkpt><trkpt lat="44.18499281406861" lon="11.93286030389791"><ele>81.0</ele><time>2026-04-04T08:44:45.002Z</time></trkpt><trkpt lat="44.18502995491625" lon="11.932997734683644"><ele>81.0</ele><time>2026-04-04T08:44:46.002Z</time></trkpt><trkpt lat="44.1850627019515" lon="11.933142385297757"><ele>81.0</ele><time>2026-04-04T08:44:47.002Z</time></trkpt><trkpt lat="44.18509777526821" lon="11.933293412702765"><ele>81.0</ele><time>2026-04-04T08:44:48.002Z</time></trkpt><trkpt lat="44.18512958373979" lon="11.933446337069459"><ele>81.0</ele><time>2026-04-04T08:44:49.002Z</time></trkpt><trkpt lat="44.185170437671616" lon="11.933593311395661"><ele>81.0</ele><time>2026-04-04T08:44:50.002Z</time></trkpt><trkpt lat="44.18522427481317" lon="11.933734021742808"><ele>80.75</ele><time>2026-04-04T08:44:51.002Z</time></trkpt><trkpt lat="44.18529526807784" lon="11.933862629634298"><ele>80.5</ele><time>2026-04-04T08:44:52.002Z</time></trkpt><trkpt lat="44.185377696236465" lon="11.933987923619238"><ele>80.25</ele><time>2026-04-04T08:44:53.002Z</time></trkpt><trkpt lat="44.18545503783141" lon="11.934104316468375"><ele>80.0</ele><time>2026-04-04T08:44:54.002Z</time></trkpt><trkpt lat="44.1855158471022" lon="11.934219379584645"><ele>79.83333333333334</ele><time>2026-04-04T08:44:55.002Z</time></trkpt><trkpt lat="44.18555214334254" lon="11.93433576427556"><ele>79.66666666666667</ele><time>2026-04-04T08:44:56.002Z</time></trkpt><trkpt lat="44.18555836714053" lon="11.934439132300762"><ele>79.5</ele><time>2026-04-04T08:44:57.002Z</time></trkpt><trkpt lat="44.18553946372084" lon="11.934526577475287"><ele>79.33333333333333</ele><time>2026-04-04T08:44:58.002Z</time></trkpt><trkpt lat="44.1854946414936" lon="11.934590047386454"><ele>79.16666666666666</ele><time>2026-04-04T08:44:59.002Z</time></trkpt><trkpt lat="44.18542389565664" lon="11.934639283527996"><ele>79.0</ele><time>2026-04-04T08:45:00.002Z</time></trkpt><trkpt lat="44.18534699221862" lon="11.934699046663827"><ele>79.0</ele><time>2026-04-04T08:45:01.002Z</time></trkpt><trkpt lat="44.18526679626997" lon="11.934776650943755"><ele>79.0</ele><time>2026-04-04T08:45:02.002Z</time></trkpt><trkpt lat="44.185187568257135" lon="11.934865829160078"><ele>79.0</ele><time>2026-04-04T08:45:03.002Z</time></trkpt><trkpt lat="44.18510195520621" lon="11.934968141112268"><ele>79.0</ele><time>2026-04-04T08:45:04.002Z</time></trkpt><trkpt lat="44.185006261232516" lon="11.935072815876191"><ele>79.0</ele><time>2026-04-04T08:45:05.002Z</time></trkpt><trkpt lat="44.184915306784994" lon="11.935185855361784"><ele>79.25</ele><time>2026-04-04T08:45:06.002Z</time></trkpt><trkpt lat="44.18482560541379" lon="11.935307909367774"><ele>79.5</ele><time>2026-04-04T08:45:07.002Z</time></trkpt><trkpt lat="44.18473349467761" lon="11.93543830024109"><ele>79.75</ele><time>2026-04-04T08:45:08.002Z</time></trkpt><trkpt lat="44.184638915122434" lon="11.935569343462515"><ele>80.0</ele><time>2026-04-04T08:45:09.002Z</time></trkpt><trkpt lat="44.184543442956155" lon="11.935701882501185"><ele>80.0</ele><time>2026-04-04T08:45:10.002Z</time></trkpt><trkpt lat="44.18445020888688" lon="11.935839421893062"><ele>80.0</ele><time>2026-04-04T08:45:11.002Z</time></trkpt><trkpt lat="44.18436048559478" lon="11.93597683326773"><ele>80.0</ele><time>2026-04-04T08:45:12.002Z</time></trkpt><trkpt lat="44.18426990455028" lon="11.93610251425091"><ele>80.0</ele><time>2026-04-04T08:45:13.002Z</time></trkpt><trkpt lat="44.184181506201426" lon="11.9362314505983"><ele>80.25</ele><time>2026-04-04T08:45:14.002Z</time></trkpt><trkpt lat="44.18409537761285" lon="11.936364552512607"><ele>80.5</ele><time>2026-04-04T08:45:15.002Z</time></trkpt><trkpt lat="44.184019380257446" lon="11.936501006560665"><ele>80.75</ele><time>2026-04-04T08:45:16.002Z</time></trkpt><trkpt lat="44.183954677947995" lon="11.93664720254324"><ele>81.0</ele><time>2026-04-04T08:45:17.003Z</time></trkpt><trkpt lat="44.183906261222305" lon="11.936810015844689"><ele>81.5</ele><time>2026-04-04T08:45:18.003Z</time></trkpt><trkpt lat="44.18387159933937" lon="11.936985462808556"><ele>82.0</ele><time>2026-04-04T08:45:19.003Z</time></trkpt><trkpt lat="44.18385556017195" lon="11.937170962501387"><ele>82.5</ele><time>2026-04-04T08:45:20.003Z</time></trkpt><trkpt lat="44.18381852394679" lon="11.937347110694978"><ele>83.0</ele><time>2026-04-04T08:45:21.003Z</time></trkpt><trkpt lat="44.183780974822106" lon="11.937525776652913"><ele>81.75</ele><time>2026-04-04T08:45:22.003Z</time></trkpt><trkpt lat="44.183742224002934" lon="11.937705404045259"><ele>80.5</ele><time>2026-04-04T08:45:23.003Z</time></trkpt><trkpt lat="44.183709360302515" lon="11.937888673537527"><ele>79.25</ele><time>2026-04-04T08:45:24.003Z</time></trkpt><trkpt lat="44.183677028589045" lon="11.938076021517068"><ele>78.0</ele><time>2026-04-04T08:45:25.003Z</time></trkpt><trkpt lat="44.18364044780269" lon="11.938262297508295"><ele>77.0</ele><time>2026-04-04T08:45:26.003Z</time></trkpt><trkpt lat="44.183601676383226" lon="11.938447316170366"><ele>76.0</ele><time>2026-04-04T08:45:27.003Z</time></trkpt><trkpt lat="44.18356468908383" lon="11.93863469196711"><ele>75.0</ele><time>2026-04-04T08:45:28.003Z</time></trkpt><trkpt lat="44.18352384299683" lon="11.938815400566867"><ele>74.0</ele><time>2026-04-04T08:45:29.003Z</time></trkpt><trkpt lat="44.183471202673815" lon="11.938983055646737"><ele>74.0</ele><time>2026-04-04T08:45:30.003Z</time></trkpt><trkpt lat="44.18340325869982" lon="11.93914166701299"><ele>74.0</ele><time>2026-04-04T08:45:31.003Z</time></trkpt><trkpt lat="44.18332267269808" lon="11.939289733940653"><ele>74.0</ele><time>2026-04-04T08:45:32.003Z</time></trkpt><trkpt lat="44.18324462141517" lon="11.939435173496056"><ele>74.0</ele><time>2026-04-04T08:45:33.003Z</time></trkpt><trkpt lat="44.183165813801814" lon="11.939583827736978"><ele>73.75</ele><time>2026-04-04T08:45:34.003Z</time></trkpt><trkpt lat="44.18308436582114" lon="11.939735061799487"><ele>73.5</ele><time>2026-04-04T08:45:35.003Z</time></trkpt><trkpt lat="44.18300035240699" lon="11.939881778939434"><ele>73.25</ele><time>2026-04-04T08:45:36.003Z</time></trkpt><trkpt lat="44.18291731794685" lon="11.940033071826239"><ele>73.0</ele><time>2026-04-04T08:45:37.003Z</time></trkpt><trkpt lat="44.18283811691553" lon="11.940188205825757"><ele>73.0</ele><time>2026-04-04T08:45:38.003Z</time></trkpt><trkpt lat="44.182757195208886" lon="11.940345042489733"><ele>73.0</ele><time>2026-04-04T08:45:39.003Z</time></trkpt><trkpt lat="44.18267473560345" lon="11.940503206604484"><ele>73.0</ele><time>2026-04-04T08:45:40.003Z</time></trkpt><trkpt lat="44.1825918049278" lon="11.940659512012447"><ele>73.0</ele><time>2026-04-04T08:45:41.003Z</time></trkpt><trkpt lat="44.18250612980415" lon="11.94081781047662"><ele>73.5</ele><time>2026-04-04T08:45:42.003Z</time></trkpt><trkpt lat="44.18242620351869" lon="11.940976142579894"><ele>74.0</ele><time>2026-04-04T08:45:43.003Z</time></trkpt><trkpt lat="44.18234334341587" lon="11.941138395244229"><ele>74.5</ele><time>2026-04-04T08:45:44.003Z</time></trkpt><trkpt lat="44.18226442098437" lon="11.941297214857501"><ele>75.0</ele><time>2026-04-04T08:45:45.003Z</time></trkpt><trkpt lat="44.18218525265895" lon="11.941462678382843"><ele>75.0</ele><time>2026-04-04T08:45:46.003Z</time></trkpt><trkpt lat="44.18210303297614" lon="11.941641561450048"><ele>75.0</ele><time>2026-04-04T08:45:46.999Z</time></trkpt><trkpt lat="44.1820347732134" lon="11.941803878059797"><ele>75.0</ele><time>2026-04-04T08:45:47.999Z</time></trkpt><trkpt lat="44.18195732615473" lon="11.941974021846798"><ele>75.0</ele><time>2026-04-04T08:45:49Z</time></trkpt><trkpt lat="44.18187986674041" lon="11.942140164644204"><ele>74.25</ele><time>2026-04-04T08:45:50Z</time></trkpt><trkpt lat="44.18180209151471" lon="11.942305463873929"><ele>73.5</ele><time>2026-04-04T08:45:51Z</time></trkpt><trkpt lat="44.18172487145366" lon="11.942464868955744"><ele>72.75</ele><time>2026-04-04T08:45:52Z</time></trkpt><trkpt lat="44.18165180218625" lon="11.942623924424973"><ele>72.0</ele><time>2026-04-04T08:45:53Z</time></trkpt><trkpt lat="44.181581149487414" lon="11.942775662268975"><ele>72.0</ele><time>2026-04-04T08:45:54Z</time></trkpt><trkpt lat="44.18151574559661" lon="11.94292417316929"><ele>72.0</ele><time>2026-04-04T08:45:55Z</time></trkpt><trkpt lat="44.18145227724081" lon="11.94307261175096"><ele>72.0</ele><time>2026-04-04T08:45:56Z</time></trkpt><trkpt lat="44.18138605882208" lon="11.943213767814694"><ele>72.0</ele><time>2026-04-04T08:45:57Z</time></trkpt><trkpt lat="44.18131589722947" lon="11.943348744033637"><ele>73.0</ele><time>2026-04-04T08:45:58Z</time></trkpt><trkpt lat="44.181243157303655" lon="11.943478078996028"><ele>74.0</ele><time>2026-04-04T08:45:59Z</time></trkpt><trkpt lat="44.18117725753376" lon="11.943622680490762"><ele>75.0</ele><time>2026-04-04T08:46:00Z</time></trkpt><trkpt lat="44.18111155407994" lon="11.943761542206001"><ele>76.0</ele><time>2026-04-04T08:46:01Z</time></trkpt><trkpt lat="44.18104331301412" lon="11.943901833797838"><ele>76.0</ele><time>2026-04-04T08:46:02Z</time></trkpt><trkpt lat="44.180979438023726" lon="11.944044380868878"><ele>76.0</ele><time>2026-04-04T08:46:03Z</time></trkpt><trkpt lat="44.180914100809105" lon="11.944184481283356"><ele>76.0</ele><time>2026-04-04T08:46:04Z</time></trkpt><trkpt lat="44.18084689531374" lon="11.944323658757904"><ele>76.0</ele><time>2026-04-04T08:46:05Z</time></trkpt><trkpt lat="44.18077476248591" lon="11.944466586155553"><ele>74.75</ele><time>2026-04-04T08:46:06Z</time></trkpt><trkpt lat="44.180704300580935" lon="11.944603994803984"><ele>73.5</ele><time>2026-04-04T08:46:07Z</time></trkpt><trkpt lat="44.18065155206553" lon="11.944742765898104"><ele>72.25</ele><time>2026-04-04T08:46:08Z</time></trkpt><trkpt lat="44.18060957865639" lon="11.944885635104058"><ele>71.0</ele><time>2026-04-04T08:46:09Z</time></trkpt><trkpt lat="44.180580497116054" lon="11.945040405560398"><ele>70.5</ele><time>2026-04-04T08:46:10Z</time></trkpt><trkpt lat="44.180563241896635" lon="11.945202012051396"><ele>70.0</ele><time>2026-04-04T08:46:11Z</time></trkpt><trkpt lat="44.18055043855372" lon="11.94536958918597"><ele>69.5</ele><time>2026-04-04T08:46:12Z</time></trkpt><trkpt lat="44.1805315586003" lon="11.945541391345227"><ele>69.0</ele><time>2026-04-04T08:46:13Z</time></trkpt><trkpt lat="44.18051368034098" lon="11.945716125155197"><ele>68.75</ele><time>2026-04-04T08:46:14Z</time></trkpt><trkpt lat="44.180496184947486" lon="11.94589604338387"><ele>68.5</ele><time>2026-04-04T08:46:15Z</time></trkpt><trkpt lat="44.18047879968028" lon="11.946069661698154"><ele>68.25</ele><time>2026-04-04T08:46:16Z</time></trkpt><trkpt lat="44.18045929235801" lon="11.946243544089189"><ele>68.0</ele><time>2026-04-04T08:46:17Z</time></trkpt><trkpt lat="44.18044352008596" lon="11.946411244216694"><ele>68.0</ele><time>2026-04-04T08:46:18Z</time></trkpt><trkpt lat="44.18042352147974" lon="11.94657811422697"><ele>68.0</ele><time>2026-04-04T08:46:19Z</time></trkpt><trkpt lat="44.18040786754735" lon="11.946741890583702"><ele>68.0</ele><time>2026-04-04T08:46:20.001Z</time></trkpt><trkpt lat="44.18039607333387" lon="11.946909339793136"><ele>68.0</ele><time>2026-04-04T08:46:21.001Z</time></trkpt><trkpt lat="44.180381435602285" lon="11.947071802444322"><ele>67.83333333333334</ele><time>2026-04-04T08:46:22.001Z</time></trkpt><trkpt lat="44.18036750877968" lon="11.947220385716616"><ele>67.66666666666667</ele><time>2026-04-04T08:46:23.001Z</time></trkpt><trkpt lat="44.18035474418879" lon="11.947345281474359"><ele>67.5</ele><time>2026-04-04T08:46:24.001Z</time></trkpt><trkpt lat="44.180347868034545" lon="11.947467321925869"><ele>67.33333333333333</ele><time>2026-04-04T08:46:25.001Z</time></trkpt><trkpt lat="44.18034298955414" lon="11.94757039626139"><ele>67.16666666666666</ele><time>2026-04-04T08:46:26.001Z</time></trkpt><trkpt lat="44.1803428866927" lon="11.947665098974266"><ele>67.0</ele><time>2026-04-04T08:46:27.001Z</time></trkpt><trkpt lat="44.180308074201896" lon="11.947775433490714"><ele>67.0</ele><time>2026-04-04T08:46:29.001Z</time></trkpt><trkpt lat="44.18022569498233" lon="11.947777528887137"><ele>67.0</ele><time>2026-04-04T08:46:31.001Z</time></trkpt><trkpt lat="44.180164737972454" lon="11.947729931223975"><ele>67.0</ele><time>2026-04-04T08:46:32.001Z</time></trkpt><trkpt lat="44.18009429741817" lon="11.947692565539606"><ele>67.0</ele><time>2026-04-04T08:46:33.001Z</time></trkpt><trkpt lat="44.18000892304099" lon="11.947659609429197"><ele>67.0</ele><time>2026-04-04T08:46:34.001Z</time></trkpt><trkpt lat="44.17990733873858" lon="11.94761787502403"><ele>67.0</ele><time>2026-04-04T08:46:35.001Z</time></trkpt><trkpt lat="44.179804394916545" lon="11.947579256615407"><ele>67.4</ele><time>2026-04-04T08:46:36.001Z</time></trkpt><trkpt lat="44.17969906436708" lon="11.947542803381905"><ele>67.80000000000001</ele><time>2026-04-04T08:46:37.001Z</time></trkpt><trkpt lat="44.17959829807814" lon="11.947504786252816"><ele>68.2</ele><time>2026-04-04T08:46:38.001Z</time></trkpt><trkpt lat="44.17949779421103" lon="11.947463403486745"><ele>68.60000000000001</ele><time>2026-04-04T08:46:39.001Z</time></trkpt><trkpt lat="44.17939372812467" lon="11.947417694354982"><ele>69.0</ele><time>2026-04-04T08:46:40.001Z</time></trkpt><trkpt lat="44.179281301568594" lon="11.947373894133792"><ele>69.0</ele><time>2026-04-04T08:46:41.001Z</time></trkpt><trkpt lat="44.17916851042144" lon="11.947327762171733"><ele>69.0</ele><time>2026-04-04T08:46:42.001Z</time></trkpt><trkpt lat="44.17904929458092" lon="11.9472780368543"><ele>69.0</ele><time>2026-04-04T08:46:43.001Z</time></trkpt><trkpt lat="44.17892366358701" lon="11.94724105324001"><ele>69.0</ele><time>2026-04-04T08:46:44.001Z</time></trkpt><trkpt lat="44.17879728446983" lon="11.947204601346384"><ele>69.25</ele><time>2026-04-04T08:46:45.001Z</time></trkpt><trkpt lat="44.17866771948104" lon="11.947164710280518"><ele>69.5</ele><time>2026-04-04T08:46:46.001Z</time></trkpt><trkpt lat="44.17853639418991" lon="11.947124823767586"><ele>69.75</ele><time>2026-04-04T08:46:47.001Z</time></trkpt><trkpt lat="44.17840518958982" lon="11.947090060473535"><ele>70.0</ele><time>2026-04-04T08:46:48.001Z</time></trkpt><trkpt lat="44.17827379708224" lon="11.947051004945738"><ele>71.0</ele><time>2026-04-04T08:46:49.001Z</time></trkpt><trkpt lat="44.17814149496786" lon="11.947012311323155"><ele>72.0</ele><time>2026-04-04T08:46:50.001Z</time></trkpt><trkpt lat="44.178009911843944" lon="11.946977060110548"><ele>73.0</ele><time>2026-04-04T08:46:51.001Z</time></trkpt><trkpt lat="44.1778796341842" lon="11.9469455709293"><ele>74.0</ele><time>2026-04-04T08:46:52.002Z</time></trkpt><trkpt lat="44.17775563184302" lon="11.946905475544987"><ele>74.0</ele><time>2026-04-04T08:46:53.002Z</time></trkpt><trkpt lat="44.17763280430941" lon="11.946865093075221"><ele>74.0</ele><time>2026-04-04T08:46:54.002Z</time></trkpt><trkpt lat="44.177511344419216" lon="11.946832474595833"><ele>74.0</ele><time>2026-04-04T08:46:55.002Z</time></trkpt><trkpt lat="44.177390243629716" lon="11.946798142899917"><ele>74.0</ele><time>2026-04-04T08:46:56.002Z</time></trkpt><trkpt lat="44.17726832240421" lon="11.946758167378874"><ele>73.5</ele><time>2026-04-04T08:46:57.002Z</time></trkpt><trkpt lat="44.1771427949339" lon="11.946722121032504"><ele>73.0</ele><time>2026-04-04T08:46:58.002Z</time></trkpt><trkpt lat="44.177017700766406" lon="11.946691123131176"><ele>72.5</ele><time>2026-04-04T08:46:59.002Z</time></trkpt><trkpt lat="44.176895025871744" lon="11.946644563225512"><ele>72.0</ele><time>2026-04-04T08:47:00.002Z</time></trkpt><trkpt lat="44.1767737894573" lon="11.946602971841374"><ele>73.0</ele><time>2026-04-04T08:47:01.002Z</time></trkpt><trkpt lat="44.17665380213402" lon="11.946563927076527"><ele>74.0</ele><time>2026-04-04T08:47:02.002Z</time></trkpt><trkpt lat="44.176540052529305" lon="11.946513491552276"><ele>75.0</ele><time>2026-04-04T08:47:03.002Z</time></trkpt><trkpt lat="44.176426819573706" lon="11.946474837535863"><ele>76.0</ele><time>2026-04-04T08:47:04.002Z</time></trkpt><trkpt lat="44.17629815630848" lon="11.946453177194645"><ele>76.0</ele><time>2026-04-04T08:47:05.002Z</time></trkpt><trkpt lat="44.176183023321954" lon="11.946412889252075"><ele>76.0</ele><time>2026-04-04T08:47:06.002Z</time></trkpt><trkpt lat="44.176064602291035" lon="11.946370466726592"><ele>76.0</ele><time>2026-04-04T08:47:07.002Z</time></trkpt><trkpt lat="44.17594147325196" lon="11.946342541552806"><ele>76.0</ele><time>2026-04-04T08:47:08.002Z</time></trkpt><trkpt lat="44.1758253624335" lon="11.946321337292503"><ele>76.0</ele><time>2026-04-04T08:47:09.002Z</time></trkpt><trkpt lat="44.17571024678846" lon="11.946302284061876"><ele>76.0</ele><time>2026-04-04T08:47:10.002Z</time></trkpt><trkpt lat="44.17559819289134" lon="11.946285044035411"><ele>76.0</ele><time>2026-04-04T08:47:11.002Z</time></trkpt><trkpt lat="44.17548755987747" lon="11.946271459070546"><ele>76.0</ele><time>2026-04-04T08:47:12.002Z</time></trkpt><trkpt lat="44.17538000563896" lon="11.946256505956264"><ele>76.0</ele><time>2026-04-04T08:47:13.002Z</time></trkpt><trkpt lat="44.17526894489517" lon="11.946236813776965"><ele>75.6</ele><time>2026-04-04T08:47:14.002Z</time></trkpt><trkpt lat="44.175159787269585" lon="11.946218168200106"><ele>75.19999999999999</ele><time>2026-04-04T08:47:15.002Z</time></trkpt><trkpt lat="44.175050810407086" lon="11.94619976841252"><ele>74.80000000000001</ele><time>2026-04-04T08:47:16.002Z</time></trkpt><trkpt lat="44.174943664202054" lon="11.946176478231104"><ele>74.4</ele><time>2026-04-04T08:47:17.002Z</time></trkpt><trkpt lat="44.17483100777806" lon="11.946157250686817"><ele>74.0</ele><time>2026-04-04T08:47:18.002Z</time></trkpt><trkpt lat="44.1747217121021" lon="11.946139023177441"><ele>74.0</ele><time>2026-04-04T08:47:19.002Z</time></trkpt><trkpt lat="44.17461264752426" lon="11.946120596627033"><ele>74.0</ele><time>2026-04-04T08:47:20.002Z</time></trkpt><trkpt lat="44.17450419344665" lon="11.946099480371583"><ele>74.0</ele><time>2026-04-04T08:47:21.002Z</time></trkpt><trkpt lat="44.17439716349496" lon="11.946076016777614"><ele>74.0</ele><time>2026-04-04T08:47:22.002Z</time></trkpt><trkpt lat="44.174293087228534" lon="11.946057272784433"><ele>74.0</ele><time>2026-04-04T08:47:23.002Z</time></trkpt><trkpt lat="44.17419050262229" lon="11.946044511996021"><ele>74.0</ele><time>2026-04-04T08:47:24.002Z</time></trkpt><trkpt lat="44.174090631783265" lon="11.946047714809016"><ele>74.0</ele><time>2026-04-04T08:47:25.003Z</time></trkpt><trkpt lat="44.17399264139767" lon="11.946080192460654"><ele>74.0</ele><time>2026-04-04T08:47:26.003Z</time></trkpt><trkpt lat="44.1738948790593" lon="11.94611942286388"><ele>74.0</ele><time>2026-04-04T08:47:27.003Z</time></trkpt><trkpt lat="44.17380327621882" lon="11.946156797381393"><ele>74.0</ele><time>2026-04-04T08:47:28.003Z</time></trkpt><trkpt lat="44.173707365743006" lon="11.946178086705592"><ele>74.0</ele><time>2026-04-04T08:47:29.003Z</time></trkpt><trkpt lat="44.17361675739746" lon="11.946200058029422"><ele>74.0</ele><time>2026-04-04T08:47:30.003Z</time></trkpt><trkpt lat="44.17352897041562" lon="11.946221584657103"><ele>74.0</ele><time>2026-04-04T08:47:31.003Z</time></trkpt><trkpt lat="44.17343792640026" lon="11.946241785576028"><ele>74.0</ele><time>2026-04-04T08:47:32.003Z</time></trkpt><trkpt lat="44.17335112975239" lon="11.946279259042143"><ele>74.0</ele><time>2026-04-04T08:47:33.003Z</time></trkpt><trkpt lat="44.173267996213596" lon="11.946313083411075"><ele>74.0</ele><time>2026-04-04T08:47:34.003Z</time></trkpt><trkpt lat="44.17319004778689" lon="11.946342335515213"><ele>74.0</ele><time>2026-04-04T08:47:35.003Z</time></trkpt><trkpt lat="44.17311890488114" lon="11.946371524409154"><ele>74.0</ele><time>2026-04-04T08:47:36.003Z</time></trkpt><trkpt lat="44.17305084762861" lon="11.946402403990446"><ele>74.0</ele><time>2026-04-04T08:47:37.003Z</time></trkpt><trkpt lat="44.17298862150661" lon="11.946428611807683"><ele>74.0</ele><time>2026-04-04T08:47:38.003Z</time></trkpt><trkpt lat="44.17291093248118" lon="11.946456989866443"><ele>74.0</ele><time>2026-04-04T08:47:40.003Z</time></trkpt><trkpt lat="44.17283550215236" lon="11.946467416074276"><ele>74.0</ele><time>2026-04-04T08:47:44.003Z</time></trkpt><trkpt lat="44.17277091037606" lon="11.94661395801733"><ele>74.33333333333334</ele><time>2026-04-04T08:47:46.003Z</time></trkpt><trkpt lat="44.17273342713997" lon="11.946687869897838"><ele>74.66666666666667</ele><time>2026-04-04T08:47:47.003Z</time></trkpt><trkpt lat="44.17269820425389" lon="11.946769422852194"><ele>75.0</ele><time>2026-04-04T08:47:48.003Z</time></trkpt><trkpt lat="44.172668274036475" lon="11.946853141298575"><ele>75.33333333333333</ele><time>2026-04-04T08:47:49.003Z</time></trkpt><trkpt lat="44.17263438611382" lon="11.946933064717077"><ele>75.66666666666666</ele><time>2026-04-04T08:47:50.003Z</time></trkpt><trkpt lat="44.172578051628044" lon="11.947075709977778"><ele>76.0</ele><time>2026-04-04T08:47:52.003Z</time></trkpt><trkpt lat="44.17252142749019" lon="11.947213324422908"><ele>76.0</ele><time>2026-04-04T08:47:54Z</time></trkpt><trkpt lat="44.17245907193522" lon="11.947366248503256"><ele>76.0</ele><time>2026-04-04T08:47:56Z</time></trkpt><trkpt lat="44.1724067697748" lon="11.947427486423233"><ele>76.0</ele><time>2026-04-04T08:47:57Z</time></trkpt><trkpt lat="44.17235763662248" lon="11.947494547125627"><ele>76.0</ele><time>2026-04-04T08:47:58Z</time></trkpt><trkpt lat="44.172319869772274" lon="11.947571515671806"><ele>76.0</ele><time>2026-04-04T08:47:59Z</time></trkpt><trkpt lat="44.17228983545802" lon="11.947651592731285"><ele>76.0</ele><time>2026-04-04T08:48:00Z</time></trkpt><trkpt lat="44.17226171551152" lon="11.947733054846875"><ele>75.6</ele><time>2026-04-04T08:48:01Z</time></trkpt><trkpt lat="44.17222880444018" lon="11.947838821184051"><ele>75.19999999999999</ele><time>2026-04-04T08:48:03Z</time></trkpt><trkpt lat="44.172162709454554" lon="11.947905854803162"><ele>74.80000000000001</ele><time>2026-04-04T08:48:06Z</time></trkpt><trkpt lat="44.1720813558577" lon="11.947820373114682"><ele>74.4</ele><time>2026-04-04T08:48:08Z</time></trkpt><trkpt lat="44.17197638349675" lon="11.947732658172669"><ele>74.0</ele><time>2026-04-04T08:48:10Z</time></trkpt><trkpt lat="44.17192212813978" lon="11.947685115983907"><ele>74.0</ele><time>2026-04-04T08:48:11Z</time></trkpt><trkpt lat="44.17186865962303" lon="11.947638526025301"><ele>74.0</ele><time>2026-04-04T08:48:12Z</time></trkpt><trkpt lat="44.17176118661203" lon="11.947553427753311"><ele>74.0</ele><time>2026-04-04T08:48:14Z</time></trkpt><trkpt lat="44.17165899177321" lon="11.947463520538438"><ele>74.0</ele><time>2026-04-04T08:48:16Z</time></trkpt><trkpt lat="44.17157379027113" lon="11.947377032082997"><ele>74.0</ele><time>2026-04-04T08:48:18Z</time></trkpt><trkpt lat="44.17151292466704" lon="11.94729736483695"><ele>74.0</ele><time>2026-04-04T08:48:20Z</time></trkpt><trkpt lat="44.17143921389836" lon="11.94721739862522"><ele>74.0</ele><time>2026-04-04T08:48:22Z</time></trkpt><trkpt lat="44.17134643352454" lon="11.947216068644671"><ele>74.0</ele><time>2026-04-04T08:48:24.001Z</time></trkpt><trkpt lat="44.17126644394897" lon="11.94727860031616"><ele>74.0</ele><time>2026-04-04T08:48:26.001Z</time></trkpt><trkpt lat="44.17118098506282" lon="11.947341127852185"><ele>74.0</ele><time>2026-04-04T08:48:28.001Z</time></trkpt><trkpt lat="44.17107768581337" lon="11.947363801797636"><ele>74.0</ele><time>2026-04-04T08:48:30.001Z</time></trkpt><trkpt lat="44.17095908304911" lon="11.947355139309808"><ele>74.0</ele><time>2026-04-04T08:48:32.001Z</time></trkpt><trkpt lat="44.170889164251044" lon="11.947353799178806"><ele>74.0</ele><time>2026-04-04T08:48:33.001Z</time></trkpt><trkpt lat="44.17081685214693" lon="11.947339478045302"><ele>74.0</ele><time>2026-04-04T08:48:34.001Z</time></trkpt><trkpt lat="44.17075146741285" lon="11.947293442570976"><ele>74.0</ele><time>2026-04-04T08:48:35.001Z</time></trkpt><trkpt lat="44.17070569427198" lon="11.947222156071133"><ele>74.0</ele><time>2026-04-04T08:48:36.001Z</time></trkpt><trkpt lat="44.170665424775876" lon="11.947134359518879"><ele>72.2</ele><time>2026-04-04T08:48:37.001Z</time></trkpt><trkpt lat="44.17062046953452" lon="11.947042626368805"><ele>70.4</ele><time>2026-04-04T08:48:38.001Z</time></trkpt><trkpt lat="44.17057326528005" lon="11.946937628379391"><ele>68.6</ele><time>2026-04-04T08:48:39.001Z</time></trkpt><trkpt lat="44.17052465895202" lon="11.946825901278054"><ele>66.8</ele><time>2026-04-04T08:48:40.001Z</time></trkpt><trkpt lat="44.170472427751506" lon="11.946710043862252"><ele>65.0</ele><time>2026-04-04T08:48:41.001Z</time></trkpt><trkpt lat="44.17041668530042" lon="11.946595926843171"><ele>65.0</ele><time>2026-04-04T08:48:42.001Z</time></trkpt><trkpt lat="44.17036270367593" lon="11.946482877437232"><ele>65.0</ele><time>2026-04-04T08:48:43.001Z</time></trkpt><trkpt lat="44.170313873096774" lon="11.946375326670536"><ele>65.0</ele><time>2026-04-04T08:48:44.001Z</time></trkpt><trkpt lat="44.17026808476886" lon="11.946270253213775"><ele>65.0</ele><time>2026-04-04T08:48:45.001Z</time></trkpt><trkpt lat="44.17022370405897" lon="11.946172465937886"><ele>65.0</ele><time>2026-04-04T08:48:46.001Z</time></trkpt><trkpt lat="44.17018273190298" lon="11.946075181169729"><ele>65.0</ele><time>2026-04-04T08:48:47.001Z</time></trkpt><trkpt lat="44.17014218666058" lon="11.945979044803622"><ele>65.0</ele><time>2026-04-04T08:48:48.001Z</time></trkpt><trkpt lat="44.17009720789325" lon="11.945896235639806"><ele>65.0</ele><time>2026-04-04T08:48:49.001Z</time></trkpt><trkpt lat="44.170050000149146" lon="11.945802655540046"><ele>65.0</ele><time>2026-04-04T08:48:50.001Z</time></trkpt><trkpt lat="44.17001188946233" lon="11.945716078714698"><ele>65.0</ele><time>2026-04-04T08:48:51.001Z</time></trkpt><trkpt lat="44.16997346321891" lon="11.945639731239348"><ele>65.0</ele><time>2026-04-04T08:48:52.001Z</time></trkpt><trkpt lat="44.16992173961779" lon="11.945535646726045"><ele>65.0</ele><time>2026-04-04T08:48:54.002Z</time></trkpt><trkpt lat="44.169920006753195" lon="11.945632232887249"><ele>65.0</ele><time>2026-04-04T08:49:12.002Z</time></trkpt><trkpt lat="44.169965287708585" lon="11.945729102207563"><ele>65.0</ele><time>2026-04-04T08:49:18.002Z</time></trkpt><trkpt lat="44.17003670578201" lon="11.945839434070084"><ele>65.0</ele><time>2026-04-04T08:49:20.002Z</time></trkpt><trkpt lat="44.170080597053705" lon="11.945916799431314"><ele>65.0</ele><time>2026-04-04T08:49:21.002Z</time></trkpt><trkpt lat="44.17012176554518" lon="11.946016912775448"><ele>65.0</ele><time>2026-04-04T08:49:22.002Z</time></trkpt><trkpt lat="44.170161390907055" lon="11.94611492220817"><ele>65.0</ele><time>2026-04-04T08:49:23.002Z</time></trkpt><trkpt lat="44.17020058289641" lon="11.946216629275101"><ele>65.0</ele><time>2026-04-04T08:49:24.002Z</time></trkpt><trkpt lat="44.170246112693405" lon="11.946316553404184"><ele>65.0</ele><time>2026-04-04T08:49:25.002Z</time></trkpt><trkpt lat="44.17029529624368" lon="11.946412063004697"><ele>65.0</ele><time>2026-04-04T08:49:26.002Z</time></trkpt><trkpt lat="44.1703406846548" lon="11.946520267436613"><ele>65.0</ele><time>2026-04-04T08:49:27.003Z</time></trkpt><trkpt lat="44.17039352842978" lon="11.946633681358923"><ele>65.0</ele><time>2026-04-04T08:49:28.003Z</time></trkpt><trkpt lat="44.17044455902814" lon="11.946743516145249"><ele>64.4</ele><time>2026-04-04T08:49:29.003Z</time></trkpt><trkpt lat="44.17049314329747" lon="11.946856097352834"><ele>63.8</ele><time>2026-04-04T08:49:30.003Z</time></trkpt><trkpt lat="44.17054577278795" lon="11.94696335889055"><ele>63.2</ele><time>2026-04-04T08:49:31.003Z</time></trkpt><trkpt lat="44.17059675895841" lon="11.947071503407313"><ele>62.6</ele><time>2026-04-04T08:49:32.003Z</time></trkpt><trkpt lat="44.17064304927018" lon="11.94717608563632"><ele>62.0</ele><time>2026-04-04T08:49:33.003Z</time></trkpt><trkpt lat="44.170688915360444" lon="11.947277491323998"><ele>63.66666666666667</ele><time>2026-04-04T08:49:34.003Z</time></trkpt><trkpt lat="44.170748812188" lon="11.947349795376745"><ele>65.33333333333334</ele><time>2026-04-04T08:49:35.003Z</time></trkpt><trkpt lat="44.17081505661703" lon="11.947393425738344"><ele>67.0</ele><time>2026-04-04T08:49:36.003Z</time></trkpt><trkpt lat="44.170885943120524" lon="11.947396574423282"><ele>68.66666666666667</ele><time>2026-04-04T08:49:37.003Z</time></trkpt><trkpt lat="44.17100745038199" lon="11.947385830791877"><ele>70.33333333333333</ele><time>2026-04-04T08:49:39.003Z</time></trkpt><trkpt lat="44.17106370467309" lon="11.947432151954043"><ele>72.0</ele><time>2026-04-04T08:49:41.003Z</time></trkpt><trkpt lat="44.17105956280604" lon="11.947558475728231"><ele>72.0</ele><time>2026-04-04T08:49:43.003Z</time></trkpt><trkpt lat="44.171019337780976" lon="11.947691607350114"><ele>72.0</ele><time>2026-04-04T08:49:45.003Z</time></trkpt><trkpt lat="44.17097827874807" lon="11.947826101147047"><ele>72.0</ele><time>2026-04-04T08:49:47.003Z</time></trkpt><trkpt lat="44.17093762052306" lon="11.94796174230057"><ele>72.0</ele><time>2026-04-04T08:49:49.003Z</time></trkpt><trkpt lat="44.17088243511751" lon="11.94806165309536"><ele>72.0</ele><time>2026-04-04T08:49:51.003Z</time></trkpt><trkpt lat="44.17082552234819" lon="11.948147876033183"><ele>72.0</ele><time>2026-04-04T08:49:53.003Z</time></trkpt><trkpt lat="44.17078096160097" lon="11.948229162729504"><ele>72.0</ele><time>2026-04-04T08:49:55.003Z</time></trkpt><trkpt lat="44.170769260818595" lon="11.948335188168693"><ele>72.0</ele><time>2026-04-04T08:49:58.003Z</time></trkpt><trkpt lat="44.17082930453402" lon="11.948240852693539"><ele>72.0</ele><time>2026-04-04T08:50:19Z</time></trkpt><trkpt lat="44.17088446802093" lon="11.948158956563864"><ele>72.0</ele><time>2026-04-04T08:50:22Z</time></trkpt><trkpt lat="44.170940634504404" lon="11.948062483170364"><ele>72.0</ele><time>2026-04-04T08:50:25.001Z</time></trkpt><trkpt lat="44.17099819879731" lon="11.947962110285312"><ele>72.0</ele><time>2026-04-04T08:50:28.001Z</time></trkpt><trkpt lat="44.17102477846074" lon="11.947878483684557"><ele>72.0</ele><time>2026-04-04T08:50:30.001Z</time></trkpt><trkpt lat="44.17103526101298" lon="11.947785821903926"><ele>72.0</ele><time>2026-04-04T08:50:32.001Z</time></trkpt><trkpt lat="44.17105554486004" lon="11.947661731682066"><ele>72.0</ele><time>2026-04-04T08:50:35.001Z</time></trkpt><trkpt lat="44.17108523676997" lon="11.947554657419378"><ele>72.0</ele><time>2026-04-04T08:50:38.001Z</time></trkpt><trkpt lat="44.17112075152186" lon="11.947479057407621"><ele>72.0</ele><time>2026-04-04T08:50:43.001Z</time></trkpt><trkpt lat="44.1711939861582" lon="11.94740732676216"><ele>72.33333333333333</ele><time>2026-04-04T08:50:48.001Z</time></trkpt><trkpt lat="44.171255355306364" lon="11.947351524902487"><ele>72.66666666666667</ele><time>2026-04-04T08:50:50.001Z</time></trkpt><trkpt lat="44.17133181138956" lon="11.947293157987799"><ele>73.0</ele><time>2026-04-04T08:50:53.001Z</time></trkpt><trkpt lat="44.171399527111234" lon="11.947256092372974"><ele>73.33333333333334</ele><time>2026-04-04T08:50:56.001Z</time></trkpt><trkpt lat="44.171454619131914" lon="11.947324839571172"><ele>73.66666666666667</ele><time>2026-04-04T08:51:00.001Z</time></trkpt><trkpt lat="44.17153867352246" lon="11.94737122315695"><ele>74.0</ele><time>2026-04-04T08:51:16.002Z</time></trkpt><trkpt lat="44.171592397802534" lon="11.94744766193412"><ele>74.0</ele><time>2026-04-04T08:51:19.002Z</time></trkpt><trkpt lat="44.17162982119127" lon="11.947522437621792"><ele>74.0</ele><time>2026-04-04T08:51:21.002Z</time></trkpt><trkpt lat="44.17155825803539" lon="11.947622138270054"><ele>74.0</ele><time>2026-04-04T08:51:23.002Z</time></trkpt><trkpt lat="44.17151227195905" lon="11.947682758545836"><ele>74.0</ele><time>2026-04-04T08:51:24.002Z</time></trkpt><trkpt lat="44.17148098488323" lon="11.947773668759318"><ele>74.0</ele><time>2026-04-04T08:51:25.002Z</time></trkpt><trkpt lat="44.17145125263639" lon="11.947878378258382"><ele>74.0</ele><time>2026-04-04T08:51:26.002Z</time></trkpt><trkpt lat="44.1713960307907" lon="11.947974664626035"><ele>73.60000000000001</ele><time>2026-04-04T08:51:27.002Z</time></trkpt><trkpt lat="44.171341964402714" lon="11.948083062942413"><ele>73.2</ele><time>2026-04-04T08:51:28.002Z</time></trkpt><trkpt lat="44.171292335527326" lon="11.94820452597757"><ele>72.80000000000001</ele><time>2026-04-04T08:51:29.002Z</time></trkpt><trkpt lat="44.171238354391235" lon="11.948320964510755"><ele>72.4</ele><time>2026-04-04T08:51:30.002Z</time></trkpt><trkpt lat="44.17119206033891" lon="11.94844241443648"><ele>72.0</ele><time>2026-04-04T08:51:31.002Z</time></trkpt><trkpt lat="44.171137879730786" lon="11.948561130228217"><ele>70.6</ele><time>2026-04-04T08:51:32.002Z</time></trkpt><trkpt lat="44.17108309077129" lon="11.9486708453279"><ele>69.2</ele><time>2026-04-04T08:51:33.002Z</time></trkpt><trkpt lat="44.171021609272856" lon="11.94878158310878"><ele>67.8</ele><time>2026-04-04T08:51:34.002Z</time></trkpt><trkpt lat="44.170944867524376" lon="11.94887398183067"><ele>66.4</ele><time>2026-04-04T08:51:35.002Z</time></trkpt><trkpt lat="44.17085935131321" lon="11.948958025157387"><ele>65.0</ele><time>2026-04-04T08:51:36.002Z</time></trkpt><trkpt lat="44.17076908315595" lon="11.9490340751448"><ele>65.4</ele><time>2026-04-04T08:51:37.002Z</time></trkpt><trkpt lat="44.170674396275615" lon="11.94910149837824"><ele>65.8</ele><time>2026-04-04T08:51:38.003Z</time></trkpt><trkpt lat="44.17057547052255" lon="11.94917080318085"><ele>66.2</ele><time>2026-04-04T08:51:39.003Z</time></trkpt><trkpt lat="44.170482381259816" lon="11.949239472159327"><ele>66.6</ele><time>2026-04-04T08:51:40.003Z</time></trkpt><trkpt lat="44.17038909594277" lon="11.949306627047196"><ele>67.0</ele><time>2026-04-04T08:51:41.003Z</time></trkpt><trkpt lat="44.170292329268506" lon="11.94936869625259"><ele>67.0</ele><time>2026-04-04T08:51:42.003Z</time></trkpt><trkpt lat="44.170198957640714" lon="11.949429433961354"><ele>67.0</ele><time>2026-04-04T08:51:43.003Z</time></trkpt><trkpt lat="44.17010561291499" lon="11.949493626696391"><ele>67.0</ele><time>2026-04-04T08:51:44.003Z</time></trkpt><trkpt lat="44.17001317295195" lon="11.9495590917184"><ele>67.0</ele><time>2026-04-04T08:51:45.003Z</time></trkpt><trkpt lat="44.169918780128675" lon="11.94962402969059"><ele>67.0</ele><time>2026-04-04T08:51:46.003Z</time></trkpt><trkpt lat="44.169825563781075" lon="11.949688509108052"><ele>67.6</ele><time>2026-04-04T08:51:47.003Z</time></trkpt><trkpt lat="44.16972924905976" lon="11.949750696335123"><ele>68.2</ele><time>2026-04-04T08:51:48.003Z</time></trkpt><trkpt lat="44.16963348520342" lon="11.949809862168053"><ele>68.8</ele><time>2026-04-04T08:51:49.003Z</time></trkpt><trkpt lat="44.169536352142764" lon="11.949873626831314"><ele>69.4</ele><time>2026-04-04T08:51:50.003Z</time></trkpt><trkpt lat="44.16944473485976" lon="11.94994351707396"><ele>70.0</ele><time>2026-04-04T08:51:51.003Z</time></trkpt><trkpt lat="44.16935394230847" lon="11.950002557678735"><ele>71.4</ele><time>2026-04-04T08:51:52.003Z</time></trkpt><trkpt lat="44.169257679904156" lon="11.950052301054455"><ele>72.8</ele><time>2026-04-04T08:51:53.003Z</time></trkpt><trkpt lat="44.169181404409" lon="11.950116578235967"><ele>74.2</ele><time>2026-04-04T08:51:54.003Z</time></trkpt><trkpt lat="44.16911214754144" lon="11.950189906990325"><ele>75.6</ele><time>2026-04-04T08:51:55.003Z</time></trkpt><trkpt lat="44.169043550544615" lon="11.950318795605261"><ele>77.0</ele><time>2026-04-04T08:51:57.003Z</time></trkpt><trkpt lat="44.16897823977004" lon="11.950426778472945"><ele>77.0</ele><time>2026-04-04T08:51:59.003Z</time></trkpt><trkpt lat="44.168887760449515" lon="11.950460548206438"><ele>77.0</ele><time>2026-04-04T08:52:01.003Z</time></trkpt><trkpt lat="44.1687891407922" lon="11.950522898754182"><ele>77.0</ele><time>2026-04-04T08:52:03.003Z</time></trkpt><trkpt lat="44.16876909264488" lon="11.950659562056181"><ele>77.0</ele><time>2026-04-04T08:52:05Z</time></trkpt><trkpt lat="44.16883549518476" lon="11.950763038825462"><ele>77.0</ele><time>2026-04-04T08:52:07Z</time></trkpt><trkpt lat="44.16893179221701" lon="11.950789894869422"><ele>78.0</ele><time>2026-04-04T08:52:09Z</time></trkpt><trkpt lat="44.16902445177387" lon="11.950903879135833"><ele>79.0</ele><time>2026-04-04T08:52:11Z</time></trkpt><trkpt lat="44.16905217517995" lon="11.951011869202505"><ele>80.0</ele><time>2026-04-04T08:52:12Z</time></trkpt><trkpt lat="44.16907826662745" lon="11.951136338117868"><ele>81.0</ele><time>2026-04-04T08:52:13Z</time></trkpt><trkpt lat="44.16911561775557" lon="11.951266927542335"><ele>82.0</ele><time>2026-04-04T08:52:14Z</time></trkpt><trkpt lat="44.16915127245519" lon="11.951378597153191"><ele>82.0</ele><time>2026-04-04T08:52:15Z</time></trkpt><trkpt lat="44.16917991908392" lon="11.951486227442995"><ele>82.0</ele><time>2026-04-04T08:52:16Z</time></trkpt><trkpt lat="44.1692081942475" lon="11.95159741238587"><ele>82.0</ele><time>2026-04-04T08:52:17Z</time></trkpt><trkpt lat="44.16923604020153" lon="11.951707933546816"><ele>82.0</ele><time>2026-04-04T08:52:18Z</time></trkpt><trkpt lat="44.16927060589554" lon="11.95182669398084"><ele>82.0</ele><time>2026-04-04T08:52:19Z</time></trkpt><trkpt lat="44.169307583478805" lon="11.951960354373819"><ele>82.0</ele><time>2026-04-04T08:52:20Z</time></trkpt><trkpt lat="44.169341779446896" lon="11.952091980773208"><ele>82.19999999999999</ele><time>2026-04-04T08:52:21Z</time></trkpt><trkpt lat="44.169368889090414" lon="11.952225925919075"><ele>82.4</ele><time>2026-04-04T08:52:22Z</time></trkpt><trkpt lat="44.1693829357988" lon="11.952362589871688"><ele>82.6</ele><time>2026-04-04T08:52:23Z</time></trkpt><trkpt lat="44.16938466663374" lon="11.952500452007351"><ele>82.80000000000001</ele><time>2026-04-04T08:52:24Z</time></trkpt><trkpt lat="44.16937052659252" lon="11.952649635000562"><ele>83.0</ele><time>2026-04-04T08:52:25Z</time></trkpt><trkpt lat="44.16934971800814" lon="11.95279148853345"><ele>83.0</ele><time>2026-04-04T08:52:26Z</time></trkpt><trkpt lat="44.169307690306425" lon="11.952939800193308"><ele>83.0</ele><time>2026-04-04T08:52:27Z</time></trkpt><trkpt lat="44.169258015971565" lon="11.953085745183376"><ele>83.0</ele><time>2026-04-04T08:52:28Z</time></trkpt><trkpt lat="44.169193532299275" lon="11.953224982575179"><ele>83.0</ele><time>2026-04-04T08:52:29Z</time></trkpt><trkpt lat="44.169135013031514" lon="11.9533692836468"><ele>83.75</ele><time>2026-04-04T08:52:30Z</time></trkpt><trkpt lat="44.169083339358" lon="11.953504317155403"><ele>84.5</ele><time>2026-04-04T08:52:31Z</time></trkpt><trkpt lat="44.16902604438538" lon="11.953649703670447"><ele>85.25</ele><time>2026-04-04T08:52:32Z</time></trkpt><trkpt lat="44.168969152451844" lon="11.953803937357707"><ele>86.0</ele><time>2026-04-04T08:52:33Z</time></trkpt><trkpt lat="44.16891230730228" lon="11.95395007560713"><ele>87.0</ele><time>2026-04-04T08:52:34Z</time></trkpt><trkpt lat="44.16885325451579" lon="11.954090484337424"><ele>88.0</ele><time>2026-04-04T08:52:35Z</time></trkpt><trkpt lat="44.168797652534145" lon="11.954226227173997"><ele>89.0</ele><time>2026-04-04T08:52:36Z</time></trkpt><trkpt lat="44.168742114237126" lon="11.954351374180142"><ele>90.0</ele><time>2026-04-04T08:52:37.001Z</time></trkpt><trkpt lat="44.16869497839366" lon="11.954464845860956"><ele>91.0</ele><time>2026-04-04T08:52:38.001Z</time></trkpt><trkpt lat="44.16865634094992" lon="11.954573331689728"><ele>91.33333333333333</ele><time>2026-04-04T08:52:39.001Z</time></trkpt><trkpt lat="44.168615810891886" lon="11.954659960007595"><ele>91.66666666666666</ele><time>2026-04-04T08:52:40.001Z</time></trkpt><trkpt lat="44.16856748752492" lon="11.95471976818236"><ele>92.0</ele><time>2026-04-04T08:52:41.001Z</time></trkpt><trkpt lat="44.168511817573915" lon="11.95476296972286"><ele>92.33333333333333</ele><time>2026-04-04T08:52:42.001Z</time></trkpt><trkpt lat="44.168409898558075" lon="11.954820172257266"><ele>92.66666666666667</ele><time>2026-04-04T08:52:44.001Z</time></trkpt><trkpt lat="44.168348362027736" lon="11.954898032638756"><ele>93.0</ele><time>2026-04-04T08:52:46.001Z</time></trkpt><trkpt lat="44.16830853878711" lon="11.954974117852396"><ele>94.0</ele><time>2026-04-04T08:53:11.001Z</time></trkpt><trkpt lat="44.168279453304" lon="11.955055332271678"><ele>95.0</ele><time>2026-04-04T08:53:16.002Z</time></trkpt><trkpt lat="44.16831845173945" lon="11.95521589991368"><ele>96.0</ele><time>2026-04-04T08:53:18.002Z</time></trkpt><trkpt lat="44.168361823932585" lon="11.955307223507562"><ele>97.0</ele><time>2026-04-04T08:53:19.002Z</time></trkpt><trkpt lat="44.16840861492958" lon="11.955407256496018"><ele>98.0</ele><time>2026-04-04T08:53:20.002Z</time></trkpt><trkpt lat="44.16845779216561" lon="11.955518035861349"><ele>99.0</ele><time>2026-04-04T08:53:21.002Z</time></trkpt><trkpt lat="44.16851302906726" lon="11.955636341650097"><ele>99.0</ele><time>2026-04-04T08:53:22.002Z</time></trkpt><trkpt lat="44.16857343990882" lon="11.955766128621379"><ele>99.0</ele><time>2026-04-04T08:53:23.002Z</time></trkpt><trkpt lat="44.16862963687834" lon="11.955899072291254"><ele>99.0</ele><time>2026-04-04T08:53:24.002Z</time></trkpt><trkpt lat="44.16868584404569" lon="11.956039611953079"><ele>99.0</ele><time>2026-04-04T08:53:25.002Z</time></trkpt><trkpt lat="44.16874746006982" lon="11.956180334876617"><ele>99.75</ele><time>2026-04-04T08:53:26.002Z</time></trkpt><trkpt lat="44.16881071474395" lon="11.956322525516057"><ele>100.5</ele><time>2026-04-04T08:53:27.002Z</time></trkpt><trkpt lat="44.168875114845086" lon="11.956464791324159"><ele>101.25</ele><time>2026-04-04T08:53:28.002Z</time></trkpt><trkpt lat="44.16894090470224" lon="11.956608704995787"><ele>102.0</ele><time>2026-04-04T08:53:29.002Z</time></trkpt><trkpt lat="44.16900581072695" lon="11.956752517104025"><ele>100.75</ele><time>2026-04-04T08:53:30.002Z</time></trkpt><trkpt lat="44.16907805753547" lon="11.956895595753164"><ele>99.5</ele><time>2026-04-04T08:53:31.002Z</time></trkpt><trkpt lat="44.16915587176378" lon="11.957039758831119"><ele>98.25</ele><time>2026-04-04T08:53:32.002Z</time></trkpt><trkpt lat="44.16922744226444" lon="11.95718523585068"><ele>97.0</ele><time>2026-04-04T08:53:33.002Z</time></trkpt><trkpt lat="44.169298504311875" lon="11.957313638608051"><ele>97.0</ele><time>2026-04-04T08:53:34.002Z</time></trkpt><trkpt lat="44.169363888229846" lon="11.957431729749294"><ele>97.0</ele><time>2026-04-04T08:53:35.002Z</time></trkpt><trkpt lat="44.16941561145252" lon="11.957549519562665"><ele>97.0</ele><time>2026-04-04T08:53:36.002Z</time></trkpt><trkpt lat="44.169448026893676" lon="11.957675800439578"><ele>97.0</ele><time>2026-04-04T08:53:37.002Z</time></trkpt><trkpt lat="44.16946201522468" lon="11.95780430001997"><ele>97.0</ele><time>2026-04-04T08:53:38.002Z</time></trkpt><trkpt lat="44.16945467587379" lon="11.95792119055206"><ele>97.39999999999999</ele><time>2026-04-04T08:53:39.002Z</time></trkpt><trkpt lat="44.16941958580066" lon="11.958028652796273"><ele>97.8</ele><time>2026-04-04T08:53:40.002Z</time></trkpt><trkpt lat="44.16936758974024" lon="11.958133391545081"><ele>98.2</ele><time>2026-04-04T08:53:41.002Z</time></trkpt><trkpt lat="44.16929466489022" lon="11.958220394395846"><ele>98.6</ele><time>2026-04-04T08:53:42.002Z</time></trkpt><trkpt lat="44.16920418667975" lon="11.958287076222911"><ele>99.0</ele><time>2026-04-04T08:53:43.002Z</time></trkpt><trkpt lat="44.169111048584654" lon="11.958345324146958"><ele>101.80000000000001</ele><time>2026-04-04T08:53:44.002Z</time></trkpt><trkpt lat="44.16901396220603" lon="11.958393783748821"><ele>104.60000000000001</ele><time>2026-04-04T08:53:45.002Z</time></trkpt><trkpt lat="44.16891781221024" lon="11.958440255500834"><ele>107.4</ele><time>2026-04-04T08:53:46.002Z</time></trkpt><trkpt lat="44.168826638350794" lon="11.958491280007127"><ele>110.2</ele><time>2026-04-04T08:53:47.002Z</time></trkpt><trkpt lat="44.16874391519073" lon="11.958532983389315"><ele>113.0</ele><time>2026-04-04T08:53:48.003Z</time></trkpt><trkpt lat="44.16867763354727" lon="11.958575695961924"><ele>112.99999999999999</ele><time>2026-04-04T08:53:49.003Z</time></trkpt><trkpt lat="44.168619751396406" lon="11.958654925674361"><ele>113.0</ele><time>2026-04-04T08:53:50.003Z</time></trkpt><trkpt lat="44.1686379413003" lon="11.958744631554307"><ele>113.0</ele><time>2026-04-04T08:53:51.003Z</time></trkpt><trkpt lat="44.168674408305435" lon="11.958836494301881"><ele>113.0</ele><time>2026-04-04T08:53:52.003Z</time></trkpt><trkpt lat="44.16873502495674" lon="11.958925250170743"><ele>112.99999999999999</ele><time>2026-04-04T08:53:53.003Z</time></trkpt><trkpt lat="44.16879577421799" lon="11.95901058572623"><ele>113.0</ele><time>2026-04-04T08:53:54.003Z</time></trkpt><trkpt lat="44.16886157256761" lon="11.959114228891176"><ele>113.60000000000001</ele><time>2026-04-04T08:53:55.003Z</time></trkpt><trkpt lat="44.16892606705535" lon="11.959227978172887"><ele>114.20000000000002</ele><time>2026-04-04T08:53:56.003Z</time></trkpt><trkpt lat="44.16898926417117" lon="11.959342737588942"><ele>114.8</ele><time>2026-04-04T08:53:57.003Z</time></trkpt><trkpt lat="44.16905718920466" lon="11.959460027831659"><ele>115.4</ele><time>2026-04-04T08:53:58.003Z</time></trkpt><trkpt lat="44.16913321372072" lon="11.959569220530401"><ele>116.0</ele><time>2026-04-04T08:53:59.003Z</time></trkpt><trkpt lat="44.169208877496246" lon="11.95966366570313"><ele>115.99999999999999</ele><time>2026-04-04T08:54:00.003Z</time></trkpt><trkpt lat="44.16924464621778" lon="11.959766057068121"><ele>116.0</ele><time>2026-04-04T08:54:01.003Z</time></trkpt><trkpt lat="44.169216117807146" lon="11.959878065697373"><ele>116.0</ele><time>2026-04-04T08:54:02.003Z</time></trkpt><trkpt lat="44.16916676223535" lon="11.959962348686318"><ele>116.0</ele><time>2026-04-04T08:54:03.003Z</time></trkpt><trkpt lat="44.16907573549465" lon="11.959997282670875"><ele>115.99999999999999</ele><time>2026-04-04T08:54:04.003Z</time></trkpt><trkpt lat="44.16899221168713" lon="11.959968323767377"><ele>116.0</ele><time>2026-04-04T08:54:05.003Z</time></trkpt><trkpt lat="44.168900833568365" lon="11.959917670804359"><ele>117.4</ele><time>2026-04-04T08:54:06.003Z</time></trkpt><trkpt lat="44.16880115894141" lon="11.959861703498298"><ele>118.8</ele><time>2026-04-04T08:54:07.003Z</time></trkpt><trkpt lat="44.16870360674883" lon="11.959805463478993"><ele>120.20000000000002</ele><time>2026-04-04T08:54:08.003Z</time></trkpt><trkpt lat="44.168615343534675" lon="11.959768913106172"><ele>121.60000000000001</ele><time>2026-04-04T08:54:09.003Z</time></trkpt><trkpt lat="44.168533626037544" lon="11.95975848372382"><ele>123.0</ele><time>2026-04-04T08:54:10.003Z</time></trkpt><trkpt lat="44.16846865716845" lon="11.959785694362283"><ele>123.0</ele><time>2026-04-04T08:54:11Z</time></trkpt><trkpt lat="44.168421717617704" lon="11.959853798450292"><ele>123.0</ele><time>2026-04-04T08:54:12Z</time></trkpt><trkpt lat="44.168408611031694" lon="11.95996072702291"><ele>123.0</ele><time>2026-04-04T08:54:13Z</time></trkpt><trkpt lat="44.16843958843076" lon="11.960065377304785"><ele>123.0</ele><time>2026-04-04T08:54:14Z</time></trkpt><trkpt lat="44.16851343610765" lon="11.960139747520218"><ele>123.0</ele><time>2026-04-04T08:54:15Z</time></trkpt><trkpt lat="44.16860608726046" lon="11.960192081164823"><ele>123.0</ele><time>2026-04-04T08:54:16Z</time></trkpt><trkpt lat="44.16870149952224" lon="11.96024963166215"><ele>125.2857142857143</ele><time>2026-04-04T08:54:17Z</time></trkpt><trkpt lat="44.16878718641523" lon="11.960311297327063"><ele>127.57142857142858</ele><time>2026-04-04T08:54:18Z</time></trkpt><trkpt lat="44.16885663434663" lon="11.960374495625448"><ele>129.85714285714286</ele><time>2026-04-04T08:54:19Z</time></trkpt><trkpt lat="44.168895141116316" lon="11.960451279877319"><ele>132.14285714285717</ele><time>2026-04-04T08:54:20Z</time></trkpt><trkpt lat="44.16889495814338" lon="11.96054209527486"><ele>134.42857142857144</ele><time>2026-04-04T08:54:21Z</time></trkpt><trkpt lat="44.168859385329114" lon="11.960619450820074"><ele>136.71428571428572</ele><time>2026-04-04T08:54:22Z</time></trkpt><trkpt lat="44.16879521202888" lon="11.960661663440796"><ele>139.0</ele><time>2026-04-04T08:54:23Z</time></trkpt><trkpt lat="44.16872021218525" lon="11.96063544694451"><ele>139.0</ele><time>2026-04-04T08:54:24Z</time></trkpt><trkpt lat="44.16865021020961" lon="11.96056708631196"><ele>139.0</ele><time>2026-04-04T08:54:25Z</time></trkpt><trkpt lat="44.16858146858618" lon="11.960490675738477"><ele>139.0</ele><time>2026-04-04T08:54:26Z</time></trkpt><trkpt lat="44.168507326961524" lon="11.960407082537497"><ele>139.0</ele><time>2026-04-04T08:54:27Z</time></trkpt><trkpt lat="44.16842650911491" lon="11.960330151611265"><ele>139.0</ele><time>2026-04-04T08:54:28Z</time></trkpt><trkpt lat="44.16834720284626" lon="11.960266948354478"><ele>139.0</ele><time>2026-04-04T08:54:29Z</time></trkpt><trkpt lat="44.168275639636924" lon="11.96023832175931"><ele>139.0</ele><time>2026-04-04T08:54:30Z</time></trkpt><trkpt lat="44.16821128826933" lon="11.960252109900027"><ele>139.0</ele><time>2026-04-04T08:54:31Z</time></trkpt><trkpt lat="44.168159309419586" lon="11.960320006578531"><ele>139.0</ele><time>2026-04-04T08:54:32Z</time></trkpt><trkpt lat="44.168141903146754" lon="11.960412061761872"><ele>139.0</ele><time>2026-04-04T08:54:33Z</time></trkpt><trkpt lat="44.16816753276472" lon="11.96051112470312"><ele>139.0</ele><time>2026-04-04T08:54:34Z</time></trkpt><trkpt lat="44.16822874342653" lon="11.960588536350734"><ele>139.0</ele><time>2026-04-04T08:54:35Z</time></trkpt><trkpt lat="44.16831273617073" lon="11.960654851142916"><ele>139.0</ele><time>2026-04-04T08:54:36Z</time></trkpt><trkpt lat="44.16840507855292" lon="11.960728533869013"><ele>139.0</ele><time>2026-04-04T08:54:37Z</time></trkpt><trkpt lat="44.16849638546315" lon="11.960807386795732"><ele>139.0</ele><time>2026-04-04T08:54:38Z</time></trkpt><trkpt lat="44.16858409509171" lon="11.960887417091577"><ele>139.0</ele><time>2026-04-04T08:54:39Z</time></trkpt><trkpt lat="44.168660499418316" lon="11.960959739070725"><ele>139.0</ele><time>2026-04-04T08:54:40Z</time></trkpt><trkpt lat="44.16871759800411" lon="11.961033098033141"><ele>141.16666666666669</ele><time>2026-04-04T08:54:41Z</time></trkpt><trkpt lat="44.168743848357714" lon="11.961123211738707"><ele>143.33333333333334</ele><time>2026-04-04T08:54:42Z</time></trkpt><trkpt lat="44.168730274708594" lon="11.961217234501156"><ele>145.5</ele><time>2026-04-04T08:54:43Z</time></trkpt><trkpt lat="44.16867606835167" lon="11.96127235874949"><ele>147.66666666666666</ele><time>2026-04-04T08:54:44.001Z</time></trkpt><trkpt lat="44.168597277206906" lon="11.961286057781907"><ele>149.83333333333331</ele><time>2026-04-04T08:54:45.001Z</time></trkpt><trkpt lat="44.168512443623506" lon="11.961244701516272"><ele>152.0</ele><time>2026-04-04T08:54:46.001Z</time></trkpt><trkpt lat="44.168429842983464" lon="11.961169529778841"><ele>152.0</ele><time>2026-04-04T08:54:47.001Z</time></trkpt><trkpt lat="44.16835590783528" lon="11.961058601973868"><ele>152.0</ele><time>2026-04-04T08:54:48.001Z</time></trkpt><trkpt lat="44.16828406512249" lon="11.960944607593836"><ele>152.0</ele><time>2026-04-04T08:54:49.001Z</time></trkpt><trkpt lat="44.16821371370167" lon="11.960856360933821"><ele>152.0</ele><time>2026-04-04T08:54:50.001Z</time></trkpt><trkpt lat="44.16813748891433" lon="11.960796069308394"><ele>152.0</ele><time>2026-04-04T08:54:51.001Z</time></trkpt><trkpt lat="44.168061027472945" lon="11.960785346121297"><ele>150.83333333333331</ele><time>2026-04-04T08:54:52.001Z</time></trkpt><trkpt lat="44.16799800126778" lon="11.960822155282496"><ele>149.66666666666666</ele><time>2026-04-04T08:54:53.001Z</time></trkpt><trkpt lat="44.16795660642634" lon="11.96089647115293"><ele>148.5</ele><time>2026-04-04T08:54:54.001Z</time></trkpt><trkpt lat="44.16794684707478" lon="11.96099787142398"><ele>147.33333333333334</ele><time>2026-04-04T08:54:55.001Z</time></trkpt><trkpt lat="44.16798195577261" lon="11.961108409643483"><ele>146.16666666666669</ele><time>2026-04-04T08:54:56.001Z</time></trkpt><trkpt lat="44.168046864078306" lon="11.96121915297014"><ele>145.0</ele><time>2026-04-04T08:54:57.001Z</time></trkpt><trkpt lat="44.168121891281146" lon="11.96133112130507"><ele>146.4</ele><time>2026-04-04T08:54:58.001Z</time></trkpt><trkpt lat="44.16819636181093" lon="11.96144585253087"><ele>147.8</ele><time>2026-04-04T08:54:59.001Z</time></trkpt><trkpt lat="44.16827106485242" lon="11.961564525771577"><ele>149.2</ele><time>2026-04-04T08:55:00.001Z</time></trkpt><trkpt lat="44.168345016937785" lon="11.96167702766607"><ele>150.6</ele><time>2026-04-04T08:55:01.001Z</time></trkpt><trkpt lat="44.16841646454913" lon="11.961778794040198"><ele>152.0</ele><time>2026-04-04T08:55:02.001Z</time></trkpt><trkpt lat="44.168483190506535" lon="11.961877079118345"><ele>153.83333333333331</ele><time>2026-04-04T08:55:03.001Z</time></trkpt><trkpt lat="44.16854367154381" lon="11.961975237833157"><ele>155.66666666666666</ele><time>2026-04-04T08:55:04.001Z</time></trkpt><trkpt lat="44.168602355482705" lon="11.962066319534763"><ele>157.5</ele><time>2026-04-04T08:55:05.001Z</time></trkpt><trkpt lat="44.1686399122968" lon="11.9621522998534"><ele>159.33333333333334</ele><time>2026-04-04T08:55:06.001Z</time></trkpt><trkpt lat="44.16859535970807" lon="11.96228789034771"><ele>161.16666666666669</ele><time>2026-04-04T08:55:08.001Z</time></trkpt><trkpt lat="44.168521770076474" lon="11.962321750740609"><ele>163.0</ele><time>2026-04-04T08:55:09.001Z</time></trkpt><trkpt lat="44.168444733659655" lon="11.962293563424444"><ele>163.0</ele><time>2026-04-04T08:55:10.001Z</time></trkpt><trkpt lat="44.16837688814594" lon="11.96223578992674"><ele>163.0</ele><time>2026-04-04T08:55:11.001Z</time></trkpt><trkpt lat="44.16831269130775" lon="11.962158271962597"><ele>163.0</ele><time>2026-04-04T08:55:12.001Z</time></trkpt><trkpt lat="44.16824298944242" lon="11.962074920800708"><ele>163.0</ele><time>2026-04-04T08:55:13.001Z</time></trkpt><trkpt lat="44.16816618739368" lon="11.96199503705526"><ele>163.0</ele><time>2026-04-04T08:55:14.001Z</time></trkpt><trkpt lat="44.16808119871316" lon="11.961924448055893"><ele>164.85714285714286</ele><time>2026-04-04T08:55:15.001Z</time></trkpt><trkpt lat="44.16800389901136" lon="11.961868049799707"><ele>166.7142857142857</ele><time>2026-04-04T08:55:16.001Z</time></trkpt><trkpt lat="44.16793734086429" lon="11.961845786670615"><ele>168.57142857142856</ele><time>2026-04-04T08:55:17.001Z</time></trkpt><trkpt lat="44.167868562140924" lon="11.961858608612005"><ele>170.42857142857144</ele><time>2026-04-04T08:55:18.002Z</time></trkpt><trkpt lat="44.16781792217029" lon="11.961913658710012"><ele>172.28571428571428</ele><time>2026-04-04T08:55:19.002Z</time></trkpt><trkpt lat="44.167804138151105" lon="11.962002301546049"><ele>174.14285714285714</ele><time>2026-04-04T08:55:20.002Z</time></trkpt><trkpt lat="44.16782563789592" lon="11.96209905867256"><ele>176.0</ele><time>2026-04-04T08:55:21.002Z</time></trkpt><trkpt lat="44.16788357633328" lon="11.96219096718303"><ele>176.0</ele><time>2026-04-04T08:55:22.002Z</time></trkpt><trkpt lat="44.16794709597795" lon="11.962285149819893"><ele>176.0</ele><time>2026-04-04T08:55:23.002Z</time></trkpt><trkpt lat="44.168011728444064" lon="11.962390349618065"><ele>176.0</ele><time>2026-04-04T08:55:24.002Z</time></trkpt><trkpt lat="44.168075613163445" lon="11.96249415269605"><ele>176.0</ele><time>2026-04-04T08:55:25.002Z</time></trkpt><trkpt lat="44.16812661553096" lon="11.962596765625326"><ele>176.0</ele><time>2026-04-04T08:55:26.002Z</time></trkpt><trkpt lat="44.16815064780824" lon="11.962692604896395"><ele>177.0</ele><time>2026-04-04T08:55:27.002Z</time></trkpt><trkpt lat="44.168140586148326" lon="11.962789804467127"><ele>178.0</ele><time>2026-04-04T08:55:28.002Z</time></trkpt><trkpt lat="44.168037882578666" lon="11.962856213892456"><ele>179.0</ele><time>2026-04-04T08:55:30.002Z</time></trkpt><trkpt lat="44.167964313773474" lon="11.962815508251959"><ele>180.0</ele><time>2026-04-04T08:55:31.002Z</time></trkpt><trkpt lat="44.167886748826255" lon="11.962758815379463"><ele>181.0</ele><time>2026-04-04T08:55:32.002Z</time></trkpt><trkpt lat="44.167796263480156" lon="11.96271039497602"><ele>182.0</ele><time>2026-04-04T08:55:33.002Z</time></trkpt><trkpt lat="44.16769724671132" lon="11.962653916416665"><ele>182.0</ele><time>2026-04-04T08:55:34.002Z</time></trkpt><trkpt lat="44.167596534683234" lon="11.962591567507298"><ele>182.0</ele><time>2026-04-04T08:55:35.002Z</time></trkpt><trkpt lat="44.1675038594935" lon="11.962533389029987"><ele>182.0</ele><time>2026-04-04T08:55:36.002Z</time></trkpt><trkpt lat="44.16742658578418" lon="11.962489578269123"><ele>182.0</ele><time>2026-04-04T08:55:37.002Z</time></trkpt><trkpt lat="44.16735907378526" lon="11.962490832103855"><ele>182.0</ele><time>2026-04-04T08:55:38.002Z</time></trkpt><trkpt lat="44.16730573148627" lon="11.962537915996968"><ele>182.0</ele><time>2026-04-04T08:55:39.002Z</time></trkpt><trkpt lat="44.167309824992266" lon="11.962715223943697"><ele>182.0</ele><time>2026-04-04T08:55:41.002Z</time></trkpt><trkpt lat="44.16736790370295" lon="11.962805159317796"><ele>182.0</ele><time>2026-04-04T08:55:42.002Z</time></trkpt><trkpt lat="44.16742177518358" lon="11.962889140574061"><ele>182.0</ele><time>2026-04-04T08:55:43.002Z</time></trkpt><trkpt lat="44.16746992638254" lon="11.962971718905372"><ele>182.0</ele><time>2026-04-04T08:55:44.002Z</time></trkpt><trkpt lat="44.16749458140953" lon="11.963056951018514"><ele>182.0</ele><time>2026-04-04T08:55:45.002Z</time></trkpt><trkpt lat="44.16743413029394" lon="11.96317333760698"><ele>182.0</ele><time>2026-04-04T08:55:47.002Z</time></trkpt><trkpt lat="44.16736078142472" lon="11.963152412564227"><ele>183.33333333333331</ele><time>2026-04-04T08:55:48.002Z</time></trkpt><trkpt lat="44.16729146912561" lon="11.963105431973162"><ele>184.66666666666666</ele><time>2026-04-04T08:55:49.002Z</time></trkpt><trkpt lat="44.16722146586386" lon="11.96306406918706"><ele>186.0</ele><time>2026-04-04T08:55:50.002Z</time></trkpt><trkpt lat="44.16714086964562" lon="11.963027057703048"><ele>187.33333333333334</ele><time>2026-04-04T08:55:51.002Z</time></trkpt><trkpt lat="44.1670477821967" lon="11.963012767492383"><ele>188.66666666666669</ele><time>2026-04-04T08:55:52.003Z</time></trkpt><trkpt lat="44.166958243018286" lon="11.96300719931557"><ele>190.0</ele><time>2026-04-04T08:55:53.003Z</time></trkpt><trkpt lat="44.166880048943064" lon="11.963001628767376"><ele>190.0</ele><time>2026-04-04T08:55:54.003Z</time></trkpt><trkpt lat="44.1668161706582" lon="11.962988970764917"><ele>190.0</ele><time>2026-04-04T08:55:56.003Z</time></trkpt><trkpt lat="44.16674522370148" lon="11.962979441134001"><ele>190.0</ele><time>2026-04-04T08:55:59.003Z</time></trkpt><trkpt lat="44.166664874401725" lon="11.962981531288401"><ele>190.0</ele><time>2026-04-04T08:56:02.003Z</time></trkpt><trkpt lat="44.16659068811673" lon="11.963007435858845"><ele>190.0</ele><time>2026-04-04T08:56:05.003Z</time></trkpt><trkpt lat="44.166551151104706" lon="11.963109681257796"><ele>190.0</ele><time>2026-04-04T08:56:07.003Z</time></trkpt><trkpt lat="44.16658294507707" lon="11.963269430519468"><ele>190.0</ele><time>2026-04-04T08:56:09.003Z</time></trkpt><trkpt lat="44.166604490453665" lon="11.963358015504799"><ele>190.0</ele><time>2026-04-04T08:56:10.003Z</time></trkpt><trkpt lat="44.16662157553094" lon="11.963447210407445"><ele>190.0</ele><time>2026-04-04T08:56:11.003Z</time></trkpt><trkpt lat="44.166641373690446" lon="11.963547853092162"><ele>190.0</ele><time>2026-04-04T08:56:12.003Z</time></trkpt><trkpt lat="44.16666466795689" lon="11.963662166884472"><ele>190.0</ele><time>2026-04-04T08:56:13.003Z</time></trkpt><trkpt lat="44.166691113049794" lon="11.963783516542179"><ele>190.0</ele><time>2026-04-04T08:56:14.003Z</time></trkpt><trkpt lat="44.1667226291704" lon="11.96392110084111"><ele>190.2</ele><time>2026-04-04T08:56:15.003Z</time></trkpt><trkpt lat="44.166756358444495" lon="11.964067845920695"><ele>190.4</ele><time>2026-04-04T08:56:16.003Z</time></trkpt><trkpt lat="44.16678658421232" lon="11.964216120283163"><ele>190.60000000000002</ele><time>2026-04-04T08:56:17Z</time></trkpt><trkpt lat="44.16680081999142" lon="11.964370166999709"><ele>190.8</ele><time>2026-04-04T08:56:18Z</time></trkpt><trkpt lat="44.16680899801354" lon="11.964531322120791"><ele>191.0</ele><time>2026-04-04T08:56:19Z</time></trkpt><trkpt lat="44.1668177969893" lon="11.96469138104444"><ele>192.0</ele><time>2026-04-04T08:56:20Z</time></trkpt><trkpt lat="44.166825206092376" lon="11.964854023802323"><ele>193.0</ele><time>2026-04-04T08:56:21Z</time></trkpt><trkpt lat="44.166829985506425" lon="11.965015762280329"><ele>194.0</ele><time>2026-04-04T08:56:22Z</time></trkpt><trkpt lat="44.16683499213987" lon="11.965174916374995"><ele>195.0</ele><time>2026-04-04T08:56:23Z</time></trkpt><trkpt lat="44.16683869880145" lon="11.96533362922392"><ele>196.25</ele><time>2026-04-04T08:56:24Z</time></trkpt><trkpt lat="44.16684233695582" lon="11.965497491296944"><ele>197.5</ele><time>2026-04-04T08:56:25Z</time></trkpt><trkpt lat="44.166850886880695" lon="11.96565341918871"><ele>198.75</ele><time>2026-04-04T08:56:26Z</time></trkpt><trkpt lat="44.166845824787465" lon="11.96581961189068"><ele>200.0</ele><time>2026-04-04T08:56:27Z</time></trkpt><trkpt lat="44.1668348888065" lon="11.9659832570928"><ele>203.0</ele><time>2026-04-04T08:56:28Z</time></trkpt><trkpt lat="44.16680869325175" lon="11.966143062445624"><ele>206.0</ele><time>2026-04-04T08:56:29Z</time></trkpt><trkpt lat="44.166767384145025" lon="11.966296860183386"><ele>209.0</ele><time>2026-04-04T08:56:30Z</time></trkpt><trkpt lat="44.16672228264623" lon="11.966449559840243"><ele>212.0</ele><time>2026-04-04T08:56:31Z</time></trkpt><trkpt lat="44.16667640858648" lon="11.96660008245373"><ele>210.25</ele><time>2026-04-04T08:56:32Z</time></trkpt><trkpt lat="44.166622071230066" lon="11.966753558209382"><ele>208.5</ele><time>2026-04-04T08:56:33Z</time></trkpt><trkpt lat="44.16656259586473" lon="11.966902785029038"><ele>206.75</ele><time>2026-04-04T08:56:34Z</time></trkpt><trkpt lat="44.166504880083835" lon="11.96705023905297"><ele>205.0</ele><time>2026-04-04T08:56:35Z</time></trkpt><trkpt lat="44.16646288786369" lon="11.96720467278949"><ele>205.0</ele><time>2026-04-04T08:56:36Z</time></trkpt><trkpt lat="44.1664381345719" lon="11.967368410505445"><ele>205.0</ele><time>2026-04-04T08:56:37Z</time></trkpt><trkpt lat="44.16641882290447" lon="11.967533935666783"><ele>205.0</ele><time>2026-04-04T08:56:38Z</time></trkpt><trkpt lat="44.166386337694696" lon="11.967697063692523"><ele>205.0</ele><time>2026-04-04T08:56:39Z</time></trkpt><trkpt lat="44.16633907979606" lon="11.96785814686805"><ele>207.75</ele><time>2026-04-04T08:56:40Z</time></trkpt><trkpt lat="44.16627519344197" lon="11.968008730416415"><ele>210.5</ele><time>2026-04-04T08:56:41Z</time></trkpt><trkpt lat="44.166205347905006" lon="11.968148374587768"><ele>213.25</ele><time>2026-04-04T08:56:42Z</time></trkpt><trkpt lat="44.16614254418527" lon="11.968291289299298"><ele>216.0</ele><time>2026-04-04T08:56:43Z</time></trkpt><trkpt lat="44.16608225722233" lon="11.968407112715445"><ele>216.4</ele><time>2026-04-04T08:56:44Z</time></trkpt><trkpt lat="44.16603452249247" lon="11.96852578234732"><ele>216.8</ele><time>2026-04-04T08:56:45Z</time></trkpt><trkpt lat="44.16600438348503" lon="11.968649201225158"><ele>217.20000000000002</ele><time>2026-04-04T08:56:46Z</time></trkpt><trkpt lat="44.16598330252284" lon="11.968778278271897"><ele>217.60000000000002</ele><time>2026-04-04T08:56:47Z</time></trkpt><trkpt lat="44.16596417900706" lon="11.968917277312174"><ele>218.0</ele><time>2026-04-04T08:56:48Z</time></trkpt><trkpt lat="44.165940968487625" lon="11.969062272844736"><ele>216.0</ele><time>2026-04-04T08:56:49Z</time></trkpt><trkpt lat="44.16591370016269" lon="11.96921314242353"><ele>214.0</ele><time>2026-04-04T08:56:50Z</time></trkpt><trkpt lat="44.165884370971376" lon="11.969374422981787"><ele>212.0</ele><time>2026-04-04T08:56:51Z</time></trkpt><trkpt lat="44.16585413543158" lon="11.969543616134008"><ele>210.0</ele><time>2026-04-04T08:56:52Z</time></trkpt><trkpt lat="44.16582335761357" lon="11.96971568136863"><ele>210.0</ele><time>2026-04-04T08:56:53Z</time></trkpt><trkpt lat="44.1657925020432" lon="11.969886779024122"><ele>210.0</ele><time>2026-04-04T08:56:54.001Z</time></trkpt><trkpt lat="44.16576229978653" lon="11.970062207178913"><ele>210.0</ele><time>2026-04-04T08:56:55.001Z</time></trkpt><trkpt lat="44.16573156560219" lon="11.97023446916932"><ele>210.0</ele><time>2026-04-04T08:56:56.001Z</time></trkpt><trkpt lat="44.16570324339127" lon="11.970403184522961"><ele>207.75</ele><time>2026-04-04T08:56:57.001Z</time></trkpt><trkpt lat="44.16568680676549" lon="11.970576845831648"><ele>205.5</ele><time>2026-04-04T08:56:58.001Z</time></trkpt><trkpt lat="44.165682810971596" lon="11.970750200517976"><ele>203.25</ele><time>2026-04-04T08:56:59.001Z</time></trkpt><trkpt lat="44.165688938740594" lon="11.97091953380723"><ele>201.0</ele><time>2026-04-04T08:57:00.001Z</time></trkpt><trkpt lat="44.16570518778353" lon="11.971079632930557"><ele>201.0</ele><time>2026-04-04T08:57:01.001Z</time></trkpt><trkpt lat="44.1657371460456" lon="11.971229250758581"><ele>201.0</ele><time>2026-04-04T08:57:02.001Z</time></trkpt><trkpt lat="44.16577882239924" lon="11.971378549435059"><ele>201.0</ele><time>2026-04-04T08:57:03.001Z</time></trkpt><trkpt lat="44.16582759901078" lon="11.971533000223774"><ele>201.0</ele><time>2026-04-04T08:57:04.001Z</time></trkpt><trkpt lat="44.16587965539116" lon="11.971687654831236"><ele>200.5</ele><time>2026-04-04T08:57:05.001Z</time></trkpt><trkpt lat="44.16593292602519" lon="11.971844562719133"><ele>200.0</ele><time>2026-04-04T08:57:06.001Z</time></trkpt><trkpt lat="44.16598872043182" lon="11.972008515382658"><ele>199.5</ele><time>2026-04-04T08:57:07.001Z</time></trkpt><trkpt lat="44.166045206547146" lon="11.972163484857024"><ele>199.0</ele><time>2026-04-04T08:57:08.001Z</time></trkpt><trkpt lat="44.166101498614644" lon="11.972324611401753"><ele>199.0</ele><time>2026-04-04T08:57:09.001Z</time></trkpt><trkpt lat="44.166158778732864" lon="11.972489949355232"><ele>199.0</ele><time>2026-04-04T08:57:10.001Z</time></trkpt><trkpt lat="44.166217085812605" lon="11.972658792286655"><ele>199.0</ele><time>2026-04-04T08:57:11.001Z</time></trkpt><trkpt lat="44.16627467633089" lon="11.972831174961385"><ele>199.0</ele><time>2026-04-04T08:57:12.001Z</time></trkpt><trkpt lat="44.166336613908484" lon="11.973002681322331"><ele>199.75</ele><time>2026-04-04T08:57:13.001Z</time></trkpt><trkpt lat="44.16639970852852" lon="11.973173904811583"><ele>200.5</ele><time>2026-04-04T08:57:14.001Z</time></trkpt><trkpt lat="44.16645965609728" lon="11.973341247256343"><ele>201.25</ele><time>2026-04-04T08:57:15.001Z</time></trkpt><trkpt lat="44.16651651912184" lon="11.973499179736022"><ele>202.0</ele><time>2026-04-04T08:57:16.001Z</time></trkpt><trkpt lat="44.166572251788246" lon="11.973648904390958"><ele>204.39999999999998</ele><time>2026-04-04T08:57:17.001Z</time></trkpt><trkpt lat="44.166601071263685" lon="11.973804160941556"><ele>206.79999999999998</ele><time>2026-04-04T08:57:18.001Z</time></trkpt><trkpt lat="44.166632647212786" lon="11.973962700768569"><ele>209.2</ele><time>2026-04-04T08:57:19.001Z</time></trkpt><trkpt lat="44.166656050119926" lon="11.97411021188663"><ele>211.6</ele><time>2026-04-04T08:57:20.001Z</time></trkpt><trkpt lat="44.166656539147844" lon="11.974253731131396"><ele>214.0</ele><time>2026-04-04T08:57:21.001Z</time></trkpt><trkpt lat="44.16661860545308" lon="11.974374226217954"><ele>214.0</ele><time>2026-04-04T08:57:22.001Z</time></trkpt><trkpt lat="44.16655399548646" lon="11.974465701287281"><ele>213.99999999999997</ele><time>2026-04-04T08:57:23.001Z</time></trkpt><trkpt lat="44.16646072375231" lon="11.974519656357627"><ele>213.99999999999997</ele><time>2026-04-04T08:57:24.001Z</time></trkpt><trkpt lat="44.166350444666" lon="11.974562614068365"><ele>214.0</ele><time>2026-04-04T08:57:25.001Z</time></trkpt><trkpt lat="44.16623565044903" lon="11.97461925019605"><ele>214.0</ele><time>2026-04-04T08:57:26.002Z</time></trkpt><trkpt lat="44.16612108006221" lon="11.974688550431114"><ele>214.0</ele><time>2026-04-04T08:57:27.002Z</time></trkpt><trkpt lat="44.16600490852057" lon="11.974753452749331"><ele>214.0</ele><time>2026-04-04T08:57:28.002Z</time></trkpt><trkpt lat="44.165871596109795" lon="11.974829064358238"><ele>214.0</ele><time>2026-04-04T08:57:29.002Z</time></trkpt><trkpt lat="44.16574122529427" lon="11.974928141634738"><ele>214.0</ele><time>2026-04-04T08:57:30.002Z</time></trkpt><trkpt lat="44.16561581006562" lon="11.974971035793097"><ele>212.75</ele><time>2026-04-04T08:57:31.002Z</time></trkpt><trkpt lat="44.16548648584004" lon="11.97503345931461"><ele>211.5</ele><time>2026-04-04T08:57:32.002Z</time></trkpt><trkpt lat="44.16534698227905" lon="11.975078858818085"><ele>210.25</ele><time>2026-04-04T08:57:33.002Z</time></trkpt><trkpt lat="44.165200911967425" lon="11.975092513163286"><ele>209.0</ele><time>2026-04-04T08:57:34.002Z</time></trkpt><trkpt lat="44.16506024881874" lon="11.9750901627569"><ele>209.0</ele><time>2026-04-04T08:57:35.002Z</time></trkpt><trkpt lat="44.164918771094555" lon="11.975075247260055"><ele>209.0</ele><time>2026-04-04T08:57:36.002Z</time></trkpt><trkpt lat="44.164779705507605" lon="11.975064935737576"><ele>209.0</ele><time>2026-04-04T08:57:37.002Z</time></trkpt><trkpt lat="44.16464406928975" lon="11.975058514447971"><ele>209.0</ele><time>2026-04-04T08:57:38.002Z</time></trkpt><trkpt lat="44.164521450611346" lon="11.975047787902794"><ele>209.39999999999998</ele><time>2026-04-04T08:57:39.002Z</time></trkpt><trkpt lat="44.16440943864284" lon="11.97504942076204"><ele>209.8</ele><time>2026-04-04T08:57:40.002Z</time></trkpt><trkpt lat="44.16430256410098" lon="11.975044394140163"><ele>210.2</ele><time>2026-04-04T08:57:41.002Z</time></trkpt><trkpt lat="44.16419800190466" lon="11.975074991077806"><ele>210.60000000000002</ele><time>2026-04-04T08:57:42.002Z</time></trkpt><trkpt lat="44.1640908435003" lon="11.975127940206635"><ele>211.0</ele><time>2026-04-04T08:57:43.002Z</time></trkpt><trkpt lat="44.163987620878736" lon="11.975200750394896"><ele>208.25</ele><time>2026-04-04T08:57:44.002Z</time></trkpt><trkpt lat="44.16389289897011" lon="11.975289566904612"><ele>205.5</ele><time>2026-04-04T08:57:45.002Z</time></trkpt><trkpt lat="44.16381722355162" lon="11.975405213113262"><ele>202.75</ele><time>2026-04-04T08:57:46.002Z</time></trkpt><trkpt lat="44.16375480996271" lon="11.975539772187995"><ele>200.0</ele><time>2026-04-04T08:57:47.002Z</time></trkpt><trkpt lat="44.163703425977715" lon="11.975687332741405"><ele>200.0</ele><time>2026-04-04T08:57:48.002Z</time></trkpt><trkpt lat="44.16364613275432" lon="11.975831721909566"><ele>200.0</ele><time>2026-04-04T08:57:49.002Z</time></trkpt><trkpt lat="44.163586112710384" lon="11.975981412894889"><ele>200.0</ele><time>2026-04-04T08:57:50.002Z</time></trkpt><trkpt lat="44.16352678488294" lon="11.976136172656753"><ele>200.0</ele><time>2026-04-04T08:57:51.002Z</time></trkpt><trkpt lat="44.163472600720574" lon="11.976297146571246"><ele>199.75</ele><time>2026-04-04T08:57:52.002Z</time></trkpt><trkpt lat="44.16343209544168" lon="11.976473771148084"><ele>199.5</ele><time>2026-04-04T08:57:53.002Z</time></trkpt><trkpt lat="44.16340415856152" lon="11.97666073369274"><ele>199.25</ele><time>2026-04-04T08:57:54.002Z</time></trkpt><trkpt lat="44.163384514300716" lon="11.976854409585055"><ele>199.0</ele><time>2026-04-04T08:57:55.002Z</time></trkpt><trkpt lat="44.16336856088651" lon="11.977052619979624"><ele>198.25</ele><time>2026-04-04T08:57:56.002Z</time></trkpt><trkpt lat="44.163349649667495" lon="11.977252424361234"><ele>197.5</ele><time>2026-04-04T08:57:57.002Z</time></trkpt><trkpt lat="44.16333158506128" lon="11.97745616478614"><ele>196.75</ele><time>2026-04-04T08:57:58.002Z</time></trkpt><trkpt lat="44.163314318065154" lon="11.977659833025104"><ele>196.0</ele><time>2026-04-04T08:57:59.003Z</time></trkpt><trkpt lat="44.163300331837895" lon="11.977860705207817"><ele>195.5</ele><time>2026-04-04T08:58:00.003Z</time></trkpt><trkpt lat="44.16328158121362" lon="11.978064327552527"><ele>195.0</ele><time>2026-04-04T08:58:01.003Z</time></trkpt><trkpt lat="44.163260964279985" lon="11.978268588081304"><ele>194.5</ele><time>2026-04-04T08:58:02.003Z</time></trkpt><trkpt lat="44.16323422654193" lon="11.978466516655791"><ele>194.0</ele><time>2026-04-04T08:58:03.003Z</time></trkpt><trkpt lat="44.16320252416162" lon="11.97866073295059"><ele>190.5</ele><time>2026-04-04T08:58:04.003Z</time></trkpt><trkpt lat="44.16316612373212" lon="11.978852490791011"><ele>187.0</ele><time>2026-04-04T08:58:05.003Z</time></trkpt><trkpt lat="44.16313127221832" lon="11.979047435700293"><ele>183.5</ele><time>2026-04-04T08:58:06.003Z</time></trkpt><trkpt lat="44.16309934750104" lon="11.979245455847899"><ele>180.0</ele><time>2026-04-04T08:58:07.003Z</time></trkpt><trkpt lat="44.163061837332044" lon="11.97944510614466"><ele>179.25</ele><time>2026-04-04T08:58:08.003Z</time></trkpt><trkpt lat="44.16302697302454" lon="11.979645659735796"><ele>178.5</ele><time>2026-04-04T08:58:09.003Z</time></trkpt><trkpt lat="44.162995622876" lon="11.979845054634364"><ele>177.75</ele><time>2026-04-04T08:58:10.003Z</time></trkpt><trkpt lat="44.16295789616734" lon="11.980050907237125"><ele>177.0</ele><time>2026-04-04T08:58:11.003Z</time></trkpt><trkpt lat="44.16292266860745" lon="11.980256552245315"><ele>174.33333333333334</ele><time>2026-04-04T08:58:12.003Z</time></trkpt><trkpt lat="44.162888400961116" lon="11.980464680504296"><ele>171.66666666666669</ele><time>2026-04-04T08:58:13.003Z</time></trkpt><trkpt lat="44.162860646608976" lon="11.980672795490422"><ele>169.0</ele><time>2026-04-04T08:58:14.003Z</time></trkpt><trkpt lat="44.16283015588982" lon="11.98088360893778"><ele>167.33333333333334</ele><time>2026-04-04T08:58:15.003Z</time></trkpt><trkpt lat="44.162800881907046" lon="11.9810934102337"><ele>165.66666666666666</ele><time>2026-04-04T08:58:16.003Z</time></trkpt><trkpt lat="44.162777343165125" lon="11.981301093443795"><ele>164.0</ele><time>2026-04-04T08:58:17.003Z</time></trkpt><trkpt lat="44.16275441704583" lon="11.981508462899951"><ele>163.0</ele><time>2026-04-04T08:58:18.003Z</time></trkpt><trkpt lat="44.16273313355243" lon="11.981717474569374"><ele>162.0</ele><time>2026-04-04T08:58:19.003Z</time></trkpt><trkpt lat="44.162711311947334" lon="11.981925432607026"><ele>161.0</ele><time>2026-04-04T08:58:20.003Z</time></trkpt><trkpt lat="44.16268938592692" lon="11.982136017546038"><ele>161.0</ele><time>2026-04-04T08:58:21.003Z</time></trkpt><trkpt lat="44.162666319729894" lon="11.982341729819625"><ele>161.0</ele><time>2026-04-04T08:58:22.003Z</time></trkpt><trkpt lat="44.162642004921885" lon="11.982538733882924"><ele>161.0</ele><time>2026-04-04T08:58:22.999Z</time></trkpt><trkpt lat="44.16262190715663" lon="11.982734405803892"><ele>161.0</ele><time>2026-04-04T08:58:23.999Z</time></trkpt><trkpt lat="44.16260685661657" lon="11.982929473017135"><ele>159.0</ele><time>2026-04-04T08:58:25Z</time></trkpt><trkpt lat="44.16260123428113" lon="11.983120324379438"><ele>157.0</ele><time>2026-04-04T08:58:26Z</time></trkpt><trkpt lat="44.162598128040834" lon="11.983309345852806"><ele>155.0</ele><time>2026-04-04T08:58:27Z</time></trkpt><trkpt lat="44.16259608645977" lon="11.98349468698821"><ele>153.0</ele><time>2026-04-04T08:58:28Z</time></trkpt><trkpt lat="44.162594003501056" lon="11.983682353036953"><ele>151.5</ele><time>2026-04-04T08:58:29Z</time></trkpt><trkpt lat="44.16259536713374" lon="11.98386924548793"><ele>150.0</ele><time>2026-04-04T08:58:30Z</time></trkpt><trkpt lat="44.16259711132298" lon="11.984052193423254"><ele>148.5</ele><time>2026-04-04T08:58:31Z</time></trkpt><trkpt lat="44.162598576176634" lon="11.98423344504066"><ele>147.0</ele><time>2026-04-04T08:58:32Z</time></trkpt><trkpt lat="44.16259683117228" lon="11.984413775921615"><ele>145.75</ele><time>2026-04-04T08:58:33Z</time></trkpt><trkpt lat="44.16259584237575" lon="11.984591280330834"><ele>144.5</ele><time>2026-04-04T08:58:34Z</time></trkpt><trkpt lat="44.16259748797096" lon="11.984766502516875"><ele>143.25</ele><time>2026-04-04T08:58:35Z</time></trkpt><trkpt lat="44.162596915253644" lon="11.984938167686911"><ele>142.0</ele><time>2026-04-04T08:58:36Z</time></trkpt><trkpt lat="44.162607249569234" lon="11.985104271115484"><ele>139.75</ele><time>2026-04-04T08:58:37Z</time></trkpt><trkpt lat="44.16263336985733" lon="11.985264281850913"><ele>137.5</ele><time>2026-04-04T08:58:38Z</time></trkpt><trkpt lat="44.162675378450814" lon="11.985416965820706"><ele>135.25</ele><time>2026-04-04T08:58:39Z</time></trkpt><trkpt lat="44.16273452405897" lon="11.985555407238346"><ele>133.0</ele><time>2026-04-04T08:58:40Z</time></trkpt><trkpt lat="44.16280781975894" lon="11.98567519820278"><ele>133.0</ele><time>2026-04-04T08:58:41Z</time></trkpt><trkpt lat="44.16289260735972" lon="11.985778575077576"><ele>133.0</ele><time>2026-04-04T08:58:42Z</time></trkpt><trkpt lat="44.1629753902847" lon="11.985883416711268"><ele>133.0</ele><time>2026-04-04T08:58:43Z</time></trkpt><trkpt lat="44.16304692596645" lon="11.985999666663593"><ele>133.0</ele><time>2026-04-04T08:58:44Z</time></trkpt><trkpt lat="44.16310036317609" lon="11.98612193970254"><ele>133.0</ele><time>2026-04-04T08:58:45Z</time></trkpt><trkpt lat="44.16313782586441" lon="11.986262337454484"><ele>131.25</ele><time>2026-04-04T08:58:46Z</time></trkpt><trkpt lat="44.16314913946949" lon="11.986421037135996"><ele>129.5</ele><time>2026-04-04T08:58:47Z</time></trkpt><trkpt lat="44.16315132957289" lon="11.986580907299468"><ele>127.75</ele><time>2026-04-04T08:58:48Z</time></trkpt><trkpt lat="44.16314918175369" lon="11.986741889859802"><ele>126.0</ele><time>2026-04-04T08:58:49Z</time></trkpt><trkpt lat="44.16314967683697" lon="11.986908458511166"><ele>124.5</ele><time>2026-04-04T08:58:50Z</time></trkpt><trkpt lat="44.163150437685154" lon="11.987076821994767"><ele>123.0</ele><time>2026-04-04T08:58:51Z</time></trkpt><trkpt lat="44.163152147114374" lon="11.987244410895345"><ele>121.5</ele><time>2026-04-04T08:58:52Z</time></trkpt><trkpt lat="44.163152372332206" lon="11.987408762101392"><ele>120.0</ele><time>2026-04-04T08:58:53Z</time></trkpt><trkpt lat="44.16315415528699" lon="11.987571207873879"><ele>119.4</ele><time>2026-04-04T08:58:54Z</time></trkpt><trkpt lat="44.163159183125664" lon="11.987726784405933"><ele>118.8</ele><time>2026-04-04T08:58:55Z</time></trkpt><trkpt lat="44.16316121481056" lon="11.98787674807159"><ele>118.19999999999999</ele><time>2026-04-04T08:58:56.001Z</time></trkpt><trkpt lat="44.1631615438061" lon="11.98802205802254"><ele>117.6</ele><time>2026-04-04T08:58:57.001Z</time></trkpt><trkpt lat="44.163161551186754" lon="11.988161908005674"><ele>117.0</ele><time>2026-04-04T08:58:58.001Z</time></trkpt><trkpt lat="44.163160161178574" lon="11.988298915331983"><ele>117.0</ele><time>2026-04-04T08:58:59.001Z</time></trkpt><trkpt lat="44.16316029503362" lon="11.988441173343524"><ele>116.99999999999999</ele><time>2026-04-04T08:59:00.001Z</time></trkpt><trkpt lat="44.163159313780206" lon="11.988581908637032"><ele>116.99999999999999</ele><time>2026-04-04T08:59:01.001Z</time></trkpt><trkpt lat="44.16315696723633" lon="11.988720659754641"><ele>117.0</ele><time>2026-04-04T08:59:02.001Z</time></trkpt><trkpt lat="44.16315806437732" lon="11.98885795328162"><ele>117.0</ele><time>2026-04-04T08:59:03.001Z</time></trkpt><trkpt lat="44.163158081152446" lon="11.98899780882851"><ele>117.0</ele><time>2026-04-04T08:59:04.001Z</time></trkpt><trkpt lat="44.16316002098762" lon="11.989135455316164"><ele>116.99999999999999</ele><time>2026-04-04T08:59:05.001Z</time></trkpt><trkpt lat="44.16315662249917" lon="11.98927601967496"><ele>116.99999999999999</ele><time>2026-04-04T08:59:06.001Z</time></trkpt><trkpt lat="44.16315305486131" lon="11.989406623834954"><ele>117.0</ele><time>2026-04-04T08:59:07.001Z</time></trkpt><trkpt lat="44.16313345044827" lon="11.989524234253198"><ele>117.0</ele><time>2026-04-04T08:59:08.001Z</time></trkpt><trkpt lat="44.163090940534694" lon="11.989616091567838"><ele>117.16666666666667</ele><time>2026-04-04T08:59:09.001Z</time></trkpt><trkpt lat="44.163028027734114" lon="11.989679695582499"><ele>117.33333333333334</ele><time>2026-04-04T08:59:10.001Z</time></trkpt><trkpt lat="44.162948765652125" lon="11.98971494770793"><ele>117.5</ele><time>2026-04-04T08:59:11.001Z</time></trkpt><trkpt lat="44.16286392435072" lon="11.989736389843554"><ele>117.66666666666667</ele><time>2026-04-04T08:59:12.001Z</time></trkpt><trkpt lat="44.162779982554866" lon="11.989753590183525"><ele>117.83333333333334</ele><time>2026-04-04T08:59:13.001Z</time></trkpt><trkpt lat="44.16269217237414" lon="11.989772558173929"><ele>118.0</ele><time>2026-04-04T08:59:14.001Z</time></trkpt><trkpt lat="44.16259991404028" lon="11.989779849205101"><ele>118.00000000000001</ele><time>2026-04-04T08:59:15.001Z</time></trkpt><trkpt lat="44.16250624145528" lon="11.989790119326878"><ele>118.0</ele><time>2026-04-04T08:59:16.001Z</time></trkpt><trkpt lat="44.16241706173879" lon="11.989797413285517"><ele>118.0</ele><time>2026-04-04T08:59:17.001Z</time></trkpt><trkpt lat="44.16233627128168" lon="11.989800385284559"><ele>118.0</ele><time>2026-04-04T08:59:18.001Z</time></trkpt><trkpt lat="44.16225703331546" lon="11.989822008052226"><ele>118.00000000000001</ele><time>2026-04-04T08:59:19.001Z</time></trkpt><trkpt lat="44.16219052756581" lon="11.989877173047395"><ele>118.0</ele><time>2026-04-04T08:59:20.001Z</time></trkpt><trkpt lat="44.16214827797109" lon="11.989963763065413"><ele>113.60000000000001</ele><time>2026-04-04T08:59:21.001Z</time></trkpt><trkpt lat="44.16214021405582" lon="11.990073028993578"><ele>109.20000000000002</ele><time>2026-04-04T08:59:22.001Z</time></trkpt><trkpt lat="44.16216961492313" lon="11.990180397823384"><ele>104.8</ele><time>2026-04-04T08:59:23.001Z</time></trkpt><trkpt lat="44.1622225976556" lon="11.990279869804727"><ele>100.4</ele><time>2026-04-04T08:59:24.001Z</time></trkpt><trkpt lat="44.162277164697976" lon="11.990391328026297"><ele>96.0</ele><time>2026-04-04T08:59:25.001Z</time></trkpt><trkpt lat="44.16233326423244" lon="11.99051356108009"><ele>97.0</ele><time>2026-04-04T08:59:26.001Z</time></trkpt><trkpt lat="44.16239314924378" lon="11.990644400346836"><ele>98.0</ele><time>2026-04-04T08:59:27.002Z</time></trkpt><trkpt lat="44.16245392105331" lon="11.990780367844435"><ele>99.0</ele><time>2026-04-04T08:59:28.002Z</time></trkpt><trkpt lat="44.16251447804784" lon="11.99092321000388"><ele>100.0</ele><time>2026-04-04T08:59:29.002Z</time></trkpt><trkpt lat="44.16257607637056" lon="11.991062948866308"><ele>100.0</ele><time>2026-04-04T08:59:30.002Z</time></trkpt><trkpt lat="44.16264302592515" lon="11.99119765638839"><ele>100.0</ele><time>2026-04-04T08:59:31.002Z</time></trkpt><trkpt lat="44.16270256397015" lon="11.991339179991636"><ele>100.0</ele><time>2026-04-04T08:59:32.002Z</time></trkpt><trkpt lat="44.16275353414823" lon="11.9914894314582"><ele>100.0</ele><time>2026-04-04T08:59:33.002Z</time></trkpt><trkpt lat="44.16279261219294" lon="11.991645142748716"><ele>98.75</ele><time>2026-04-04T08:59:34.002Z</time></trkpt><trkpt lat="44.16281589545774" lon="11.991806051162975"><ele>97.5</ele><time>2026-04-04T08:59:35.002Z</time></trkpt><trkpt lat="44.16282305286026" lon="11.99197370614571"><ele>96.25</ele><time>2026-04-04T08:59:36.002Z</time></trkpt><trkpt lat="44.162820664168336" lon="11.992143945134782"><ele>95.0</ele><time>2026-04-04T08:59:37.002Z</time></trkpt><trkpt lat="44.16280695956771" lon="11.992315754472354"><ele>95.0</ele><time>2026-04-04T08:59:38.002Z</time></trkpt><trkpt lat="44.16278508523974" lon="11.99247804166998"><ele>95.0</ele><time>2026-04-04T08:59:39.002Z</time></trkpt><trkpt lat="44.16274333305362" lon="11.992618153748934"><ele>95.0</ele><time>2026-04-04T08:59:40.002Z</time></trkpt><trkpt lat="44.16268076152464" lon="11.992741981358144"><ele>95.0</ele><time>2026-04-04T08:59:41.002Z</time></trkpt><trkpt lat="44.162602843104246" lon="11.992851470338675"><ele>95.0</ele><time>2026-04-04T08:59:42.002Z</time></trkpt><trkpt lat="44.16251324536375" lon="11.9929442133533"><ele>94.0</ele><time>2026-04-04T08:59:43.002Z</time></trkpt><trkpt lat="44.1624184221442" lon="11.993022940219245"><ele>93.0</ele><time>2026-04-04T08:59:44.002Z</time></trkpt><trkpt lat="44.16232150099845" lon="11.993087567685214"><ele>92.0</ele><time>2026-04-04T08:59:45.002Z</time></trkpt><trkpt lat="44.162224930218045" lon="11.993137916023777"><ele>91.0</ele><time>2026-04-04T08:59:46.002Z</time></trkpt><trkpt lat="44.162122427118085" lon="11.993184814584229"><ele>90.0</ele><time>2026-04-04T08:59:47.002Z</time></trkpt><trkpt lat="44.16201748825865" lon="11.993231731299561"><ele>89.6</ele><time>2026-04-04T08:59:48.002Z</time></trkpt><trkpt lat="44.161914417189244" lon="11.993287543406543"><ele>89.2</ele><time>2026-04-04T08:59:49.002Z</time></trkpt><trkpt lat="44.16181051936127" lon="11.993348311525736"><ele>88.80000000000001</ele><time>2026-04-04T08:59:50.002Z</time></trkpt><trkpt lat="44.16170574228055" lon="11.993395447419983"><ele>88.4</ele><time>2026-04-04T08:59:51.002Z</time></trkpt><trkpt lat="44.16161078568181" lon="11.99344353443465"><ele>88.0</ele><time>2026-04-04T08:59:52.002Z</time></trkpt><trkpt lat="44.16151901410074" lon="11.99350416494332"><ele>87.60000000000001</ele><time>2026-04-04T08:59:53.002Z</time></trkpt><trkpt lat="44.16143833582158" lon="11.993576637290156"><ele>87.2</ele><time>2026-04-04T08:59:54.002Z</time></trkpt><trkpt lat="44.16137249196511" lon="11.993665571466147"><ele>86.8</ele><time>2026-04-04T08:59:55.002Z</time></trkpt><trkpt lat="44.1613229973654" lon="11.99377177955417"><ele>86.4</ele><time>2026-04-04T08:59:56.002Z</time></trkpt><trkpt lat="44.16128635653018" lon="11.993882123079397"><ele>86.0</ele><time>2026-04-04T08:59:57.002Z</time></trkpt><trkpt lat="44.16126604608378" lon="11.994005342440941"><ele>86.0</ele><time>2026-04-04T08:59:58.002Z</time></trkpt><trkpt lat="44.16125794922323" lon="11.994135909783308"><ele>86.0</ele><time>2026-04-04T08:59:59.002Z</time></trkpt><trkpt lat="44.161253976531974" lon="11.994267090748677"><ele>86.0</ele><time>2026-04-04T09:00:00.003Z</time></trkpt><trkpt lat="44.16125543903692" lon="11.994394660922453"><ele>86.0</ele><time>2026-04-04T09:00:01.003Z</time></trkpt><trkpt lat="44.161257865390716" lon="11.994520458071435"><ele>86.0</ele><time>2026-04-04T09:00:02.003Z</time></trkpt><trkpt lat="44.1612637934653" lon="11.9946607318906"><ele>85.8</ele><time>2026-04-04T09:00:03.003Z</time></trkpt><trkpt lat="44.16126889204469" lon="11.994805939630973"><ele>85.6</ele><time>2026-04-04T09:00:04.003Z</time></trkpt><trkpt lat="44.16127094790286" lon="11.994950124575077"><ele>85.4</ele><time>2026-04-04T09:00:05.003Z</time></trkpt><trkpt lat="44.161269838971975" lon="11.995098365025338"><ele>85.2</ele><time>2026-04-04T09:00:06.003Z</time></trkpt><trkpt lat="44.16125330707494" lon="11.995246824468952"><ele>85.0</ele><time>2026-04-04T09:00:07.003Z</time></trkpt><trkpt lat="44.1612240726874" lon="11.995390645279736"><ele>84.5</ele><time>2026-04-04T09:00:08.003Z</time></trkpt><trkpt lat="44.161178510532444" lon="11.995529651371836"><ele>84.0</ele><time>2026-04-04T09:00:09.003Z</time></trkpt><trkpt lat="44.16112593308675" lon="11.995670988444273"><ele>83.5</ele><time>2026-04-04T09:00:10.003Z</time></trkpt><trkpt lat="44.1610690083346" lon="11.99581363776"><ele>83.0</ele><time>2026-04-04T09:00:11.003Z</time></trkpt><trkpt lat="44.16100921942389" lon="11.995956505530529"><ele>82.75</ele><time>2026-04-04T09:00:12.003Z</time></trkpt><trkpt lat="44.16094733003115" lon="11.996106815532206"><ele>82.5</ele><time>2026-04-04T09:00:13.003Z</time></trkpt><trkpt lat="44.16088677148148" lon="11.996261464502616"><ele>82.25</ele><time>2026-04-04T09:00:14.003Z</time></trkpt><trkpt lat="44.1608272574058" lon="11.996418382583476"><ele>82.0</ele><time>2026-04-04T09:00:15.003Z</time></trkpt><trkpt lat="44.1607642001198" lon="11.996586734529314"><ele>80.5</ele><time>2026-04-04T09:00:16.003Z</time></trkpt><trkpt lat="44.16069431077909" lon="11.996747948420076"><ele>79.0</ele><time>2026-04-04T09:00:17.003Z</time></trkpt><trkpt lat="44.16062636768073" lon="11.996910578523272"><ele>77.5</ele><time>2026-04-04T09:00:18.003Z</time></trkpt><trkpt lat="44.16056105417108" lon="11.99707696155824"><ele>76.0</ele><time>2026-04-04T09:00:19.003Z</time></trkpt><trkpt lat="44.16049693653925" lon="11.997245689681549"><ele>76.0</ele><time>2026-04-04T09:00:20.003Z</time></trkpt><trkpt lat="44.160432973715594" lon="11.997420397991638"><ele>76.0</ele><time>2026-04-04T09:00:21.003Z</time></trkpt><trkpt lat="44.16036602459351" lon="11.997594590321345"><ele>76.0</ele><time>2026-04-04T09:00:22.003Z</time></trkpt><trkpt lat="44.1602962213152" lon="11.99777224888324"><ele>76.0</ele><time>2026-04-04T09:00:23.003Z</time></trkpt><trkpt lat="44.16022569614965" lon="11.997953187237863"><ele>75.75</ele><time>2026-04-04T09:00:24.003Z</time></trkpt><trkpt lat="44.160152705701776" lon="11.998131613147732"><ele>75.5</ele><time>2026-04-04T09:00:25.003Z</time></trkpt><trkpt lat="44.16007995019625" lon="11.998311032356636"><ele>75.25</ele><time>2026-04-04T09:00:26.003Z</time></trkpt><trkpt lat="44.16000639862501" lon="11.9984931724788"><ele>75.0</ele><time>2026-04-04T09:00:27.003Z</time></trkpt><trkpt lat="44.159931028822484" lon="11.99867332929612"><ele>74.0</ele><time>2026-04-04T09:00:28.003Z</time></trkpt><trkpt lat="44.1598576845359" lon="11.998856626927447"><ele>73.0</ele><time>2026-04-04T09:00:29Z</time></trkpt><trkpt lat="44.159785071907585" lon="11.999039379360994"><ele>72.0</ele><time>2026-04-04T09:00:30Z</time></trkpt><trkpt lat="44.15970456522257" lon="11.99921600324214"><ele>72.0</ele><time>2026-04-04T09:00:31Z</time></trkpt><trkpt lat="44.15961521617022" lon="11.999384005032109"><ele>72.0</ele><time>2026-04-04T09:00:32Z</time></trkpt><trkpt lat="44.159518033340476" lon="11.999542782205067"><ele>72.0</ele><time>2026-04-04T09:00:33Z</time></trkpt><trkpt lat="44.159418515528635" lon="11.99969468193303"><ele>72.0</ele><time>2026-04-04T09:00:34Z</time></trkpt><trkpt lat="44.15931614263981" lon="11.999842061121859"><ele>72.0</ele><time>2026-04-04T09:00:35Z</time></trkpt><trkpt lat="44.159214580858624" lon="11.99997731917571"><ele>72.0</ele><time>2026-04-04T09:00:36Z</time></trkpt><trkpt lat="44.15912400204204" lon="12.00010702882987"><ele>72.0</ele><time>2026-04-04T09:00:37Z</time></trkpt><trkpt lat="44.15903656377271" lon="12.000229644408217"><ele>72.0</ele><time>2026-04-04T09:00:38Z</time></trkpt><trkpt lat="44.15895331828449" lon="12.00035372653777"><ele>71.0</ele><time>2026-04-04T09:00:39Z</time></trkpt><trkpt lat="44.158869444585974" lon="12.000470380204455"><ele>70.0</ele><time>2026-04-04T09:00:40Z</time></trkpt><trkpt lat="44.158785305877444" lon="12.000576742580636"><ele>69.0</ele><time>2026-04-04T09:00:41Z</time></trkpt><trkpt lat="44.15870525704333" lon="12.000694268586473"><ele>68.0</ele><time>2026-04-04T09:00:42Z</time></trkpt><trkpt lat="44.158621970495574" lon="12.00081334668327"><ele>68.5</ele><time>2026-04-04T09:00:43Z</time></trkpt><trkpt lat="44.15854416258164" lon="12.000930053030995"><ele>69.0</ele><time>2026-04-04T09:00:44Z</time></trkpt><trkpt lat="44.15846624082193" lon="12.00104579484091"><ele>69.5</ele><time>2026-04-04T09:00:45Z</time></trkpt><trkpt lat="44.158386912346344" lon="12.00116481347617"><ele>70.0</ele><time>2026-04-04T09:00:46Z</time></trkpt><trkpt lat="44.158309363108756" lon="12.001281951004263"><ele>70.0</ele><time>2026-04-04T09:00:47Z</time></trkpt><trkpt lat="44.15823584899544" lon="12.001396516148109"><ele>70.0</ele><time>2026-04-04T09:00:48Z</time></trkpt><trkpt lat="44.15815376332626" lon="12.001520983559127"><ele>70.0</ele><time>2026-04-04T09:00:49Z</time></trkpt><trkpt lat="44.158069829074044" lon="12.001627715009661"><ele>70.0</ele><time>2026-04-04T09:00:50Z</time></trkpt><trkpt lat="44.15799909924877" lon="12.001731111537012"><ele>70.0</ele><time>2026-04-04T09:00:51Z</time></trkpt><trkpt lat="44.157930711844905" lon="12.001820367479281"><ele>69.83333333333333</ele><time>2026-04-04T09:00:52Z</time></trkpt><trkpt lat="44.15787647854313" lon="12.001903353571416"><ele>69.66666666666666</ele><time>2026-04-04T09:00:53Z</time></trkpt><trkpt lat="44.15781318266493" lon="12.001983906211635"><ele>69.5</ele><time>2026-04-04T09:00:55Z</time></trkpt><trkpt lat="44.157792245813326" lon="12.002123141654335"><ele>69.33333333333333</ele><time>2026-04-04T09:00:59Z</time></trkpt><trkpt lat="44.15783609456156" lon="12.002195184624892"><ele>69.16666666666667</ele><time>2026-04-04T09:01:00Z</time></trkpt><trkpt lat="44.157879896264994" lon="12.00226349483911"><ele>69.0</ele><time>2026-04-04T09:01:01Z</time></trkpt><trkpt lat="44.1579276547454" lon="12.002349410579802"><ele>69.0</ele><time>2026-04-04T09:01:02Z</time></trkpt><trkpt lat="44.15798114353452" lon="12.00243739709751"><ele>69.0</ele><time>2026-04-04T09:01:03Z</time></trkpt><trkpt lat="44.158032868213525" lon="12.002524169771622"><ele>69.0</ele><time>2026-04-04T09:01:04Z</time></trkpt><trkpt lat="44.15809292053423" lon="12.002636529185308"><ele>69.0</ele><time>2026-04-04T09:01:05Z</time></trkpt><trkpt lat="44.15815325895952" lon="12.002747980856032"><ele>69.0</ele><time>2026-04-04T09:01:06Z</time></trkpt><trkpt lat="44.1582159077199" lon="12.002856845383896"><ele>69.0</ele><time>2026-04-04T09:01:07Z</time></trkpt><trkpt lat="44.15828171779959" lon="12.002974774409466"><ele>69.0</ele><time>2026-04-04T09:01:08Z</time></trkpt><trkpt lat="44.15834724626272" lon="12.003095980412843"><ele>69.0</ele><time>2026-04-04T09:01:09Z</time></trkpt><trkpt lat="44.15841585132306" lon="12.003219769498013"><ele>69.0</ele><time>2026-04-04T09:01:10Z</time></trkpt><trkpt lat="44.158485778799175" lon="12.00334277783363"><ele>69.0</ele><time>2026-04-04T09:01:11Z</time></trkpt><trkpt lat="44.15855070280896" lon="12.00346477933258"><ele>68.4</ele><time>2026-04-04T09:01:12Z</time></trkpt><trkpt lat="44.15861266984664" lon="12.00357774906486"><ele>67.80000000000001</ele><time>2026-04-04T09:01:13Z</time></trkpt><trkpt lat="44.15867474916477" lon="12.003693056931812"><ele>67.19999999999999</ele><time>2026-04-04T09:01:14Z</time></trkpt><trkpt lat="44.15873450632526" lon="12.00380285349376"><ele>66.6</ele><time>2026-04-04T09:01:15Z</time></trkpt><trkpt lat="44.15879274314341" lon="12.003898445797104"><ele>66.0</ele><time>2026-04-04T09:01:16Z</time></trkpt><trkpt lat="44.15883531692525" lon="12.00397350881263"><ele>66.0</ele><time>2026-04-04T09:01:17Z</time></trkpt><trkpt lat="44.158859368897495" lon="12.004072454654283"><ele>66.0</ele><time>2026-04-04T09:01:19Z</time></trkpt><trkpt lat="44.15881848002594" lon="12.00414047353104"><ele>66.0</ele><time>2026-04-04T09:01:21Z</time></trkpt><trkpt lat="44.15874723559354" lon="12.004200386233045"><ele>66.0</ele><time>2026-04-04T09:01:23Z</time></trkpt><trkpt lat="44.158672328911976" lon="12.004307509703612"><ele>66.0</ele><time>2026-04-04T09:01:25Z</time></trkpt><trkpt lat="44.158594022616406" lon="12.004445660704608"><ele>65.57142857142857</ele><time>2026-04-04T09:01:27Z</time></trkpt><trkpt lat="44.15855252689811" lon="12.004526842462809"><ele>65.14285714285714</ele><time>2026-04-04T09:01:28Z</time></trkpt><trkpt lat="44.15852211211776" lon="12.00460724753928"><ele>64.71428571428572</ele><time>2026-04-04T09:01:29Z</time></trkpt><trkpt lat="44.15848446681159" lon="12.004694201172141"><ele>64.28571428571428</ele><time>2026-04-04T09:01:30Z</time></trkpt><trkpt lat="44.15845347732613" lon="12.004778770626732"><ele>63.85714285714286</ele><time>2026-04-04T09:01:31Z</time></trkpt><trkpt lat="44.15842177783257" lon="12.004868840669534"><ele>63.42857142857143</ele><time>2026-04-04T09:01:32Z</time></trkpt><trkpt lat="44.15839457109071" lon="12.004958181335006"><ele>63.0</ele><time>2026-04-04T09:01:33Z</time></trkpt><trkpt lat="44.1583913517747" lon="12.00505863319901"><ele>62.8</ele><time>2026-04-04T09:01:34.001Z</time></trkpt><trkpt lat="44.15839129056992" lon="12.005163730139975"><ele>62.599999999999994</ele><time>2026-04-04T09:01:35.001Z</time></trkpt><trkpt lat="44.15839845293207" lon="12.005263279184108"><ele>62.400000000000006</ele><time>2026-04-04T09:01:36.001Z</time></trkpt><trkpt lat="44.158404619698985" lon="12.00535713635959"><ele>62.2</ele><time>2026-04-04T09:01:37.001Z</time></trkpt><trkpt lat="44.15838243120062" lon="12.00552198708376"><ele>62.0</ele><time>2026-04-04T09:01:39.001Z</time></trkpt><trkpt lat="44.158277087322084" lon="12.005652207262532"><ele>62.0</ele><time>2026-04-04T09:01:41.001Z</time></trkpt><trkpt lat="44.15821742908454" lon="12.00570241079715"><ele>62.00000000000001</ele><time>2026-04-04T09:01:42.001Z</time></trkpt><trkpt lat="44.158158687179316" lon="12.005750506985121"><ele>62.0</ele><time>2026-04-04T09:01:43.001Z</time></trkpt><trkpt lat="44.15810469956417" lon="12.005809366793214"><ele>62.0</ele><time>2026-04-04T09:01:44.001Z</time></trkpt><trkpt lat="44.158049491262" lon="12.005875774041142"><ele>62.00000000000001</ele><time>2026-04-04T09:01:45.001Z</time></trkpt><trkpt lat="44.15799693021105" lon="12.005946469033718"><ele>62.0</ele><time>2026-04-04T09:01:46.001Z</time></trkpt><trkpt lat="44.15794730740068" lon="12.006017605946287"><ele>62.0</ele><time>2026-04-04T09:01:47.001Z</time></trkpt><trkpt lat="44.15789704018475" lon="12.006085435140799"><ele>61.66666666666667</ele><time>2026-04-04T09:01:48.001Z</time></trkpt><trkpt lat="44.15783518804094" lon="12.006149648124444"><ele>61.333333333333336</ele><time>2026-04-04T09:01:49.001Z</time></trkpt><trkpt lat="44.15777139969898" lon="12.006216291194619"><ele>61.0</ele><time>2026-04-04T09:01:50.001Z</time></trkpt><trkpt lat="44.157711681409474" lon="12.006293546989921"><ele>60.66666666666667</ele><time>2026-04-04T09:01:51.001Z</time></trkpt><trkpt lat="44.157654254707296" lon="12.006365315479052"><ele>60.333333333333336</ele><time>2026-04-04T09:01:52.001Z</time></trkpt><trkpt lat="44.15760627258179" lon="12.006427072625454"><ele>60.0</ele><time>2026-04-04T09:01:53.001Z</time></trkpt><trkpt lat="44.15751045346413" lon="12.006543617025295"><ele>60.0</ele><time>2026-04-04T09:01:55.001Z</time></trkpt><trkpt lat="44.15745767893114" lon="12.00661208419656"><ele>60.0</ele><time>2026-04-04T09:01:56.001Z</time></trkpt><trkpt lat="44.15740294917936" lon="12.006689682938545"><ele>60.0</ele><time>2026-04-04T09:01:57.001Z</time></trkpt><trkpt lat="44.15734357631697" lon="12.006769388247285"><ele>60.0</ele><time>2026-04-04T09:01:58.001Z</time></trkpt><trkpt lat="44.15728087779031" lon="12.006856675050074"><ele>60.0</ele><time>2026-04-04T09:01:59.001Z</time></trkpt><trkpt lat="44.157214607749786" lon="12.006946060242328"><ele>60.0</ele><time>2026-04-04T09:02:00.001Z</time></trkpt><trkpt lat="44.157145337218374" lon="12.007037112457336"><ele>60.0</ele><time>2026-04-04T09:02:01.001Z</time></trkpt><trkpt lat="44.15707453438731" lon="12.007131850319333"><ele>60.0</ele><time>2026-04-04T09:02:02.001Z</time></trkpt><trkpt lat="44.157004103643885" lon="12.00722320223496"><ele>60.0</ele><time>2026-04-04T09:02:03.001Z</time></trkpt><trkpt lat="44.156935641468124" lon="12.007314558552663"><ele>60.0</ele><time>2026-04-04T09:02:04.001Z</time></trkpt><trkpt lat="44.15686491455841" lon="12.007413797221814"><ele>60.0</ele><time>2026-04-04T09:02:05.001Z</time></trkpt><trkpt lat="44.156794807236764" lon="12.00749993182572"><ele>60.0</ele><time>2026-04-04T09:02:06.001Z</time></trkpt><trkpt lat="44.156724823562804" lon="12.00759043348876"><ele>60.0</ele><time>2026-04-04T09:02:07.001Z</time></trkpt><trkpt lat="44.15665573671687" lon="12.007689241365894"><ele>60.0</ele><time>2026-04-04T09:02:08.001Z</time></trkpt><trkpt lat="44.15658281142521" lon="12.007795562509484"><ele>60.0</ele><time>2026-04-04T09:02:09.002Z</time></trkpt><trkpt lat="44.15650290872168" lon="12.007902279486798"><ele>60.0</ele><time>2026-04-04T09:02:10.002Z</time></trkpt><trkpt lat="44.156437741108746" lon="12.008009168625563"><ele>60.25</ele><time>2026-04-04T09:02:11.002Z</time></trkpt><trkpt lat="44.15635366039561" lon="12.008126315508694"><ele>60.5</ele><time>2026-04-04T09:02:12.002Z</time></trkpt><trkpt lat="44.156272350023" lon="12.008238324271188"><ele>60.75</ele><time>2026-04-04T09:02:13.002Z</time></trkpt><trkpt lat="44.156188942654154" lon="12.00834511728908"><ele>61.0</ele><time>2026-04-04T09:02:14.002Z</time></trkpt><trkpt lat="44.1561078286872" lon="12.008452055678807"><ele>63.0</ele><time>2026-04-04T09:02:15.002Z</time></trkpt><trkpt lat="44.15602954725448" lon="12.008556409752952"><ele>65.0</ele><time>2026-04-04T09:02:16.002Z</time></trkpt><trkpt lat="44.15594774369463" lon="12.008669403144422"><ele>67.0</ele><time>2026-04-04T09:02:17.002Z</time></trkpt><trkpt lat="44.15586888576629" lon="12.008781683864086"><ele>69.0</ele><time>2026-04-04T09:02:18.002Z</time></trkpt><trkpt lat="44.155811883827205" lon="12.008896639223536"><ele>71.0</ele><time>2026-04-04T09:02:19.002Z</time></trkpt><trkpt lat="44.15571602867733" lon="12.009013106090888"><ele>73.25</ele><time>2026-04-04T09:02:20.002Z</time></trkpt><trkpt lat="44.15562236840046" lon="12.009114500918166"><ele>75.5</ele><time>2026-04-04T09:02:21.002Z</time></trkpt><trkpt lat="44.155536947756794" lon="12.009241892662418"><ele>77.75</ele><time>2026-04-04T09:02:22.002Z</time></trkpt><trkpt lat="44.15545563714164" lon="12.009362290353971"><ele>80.0</ele><time>2026-04-04T09:02:23.002Z</time></trkpt><trkpt lat="44.1553692071463" lon="12.009480271028163"><ele>82.16666666666667</ele><time>2026-04-04T09:02:24.002Z</time></trkpt><trkpt lat="44.15529231429356" lon="12.009582402561657"><ele>84.33333333333334</ele><time>2026-04-04T09:02:25.002Z</time></trkpt><trkpt lat="44.15521660774245" lon="12.009663692808271"><ele>86.5</ele><time>2026-04-04T09:02:26.002Z</time></trkpt><trkpt lat="44.15515858059843" lon="12.00973461758447"><ele>88.66666666666667</ele><time>2026-04-04T09:02:27.002Z</time></trkpt><trkpt lat="44.155087058269785" lon="12.009790066403012"><ele>90.83333333333333</ele><time>2026-04-04T09:02:29.002Z</time></trkpt><trkpt lat="44.15502188582256" lon="12.009786225042749"><ele>93.0</ele><time>2026-04-04T09:02:38.999Z</time></trkpt><trkpt lat="44.154961827027364" lon="12.009745524064947"><ele>93.0</ele><time>2026-04-04T09:02:40.999Z</time></trkpt><trkpt lat="44.15502507500025" lon="12.009745206298344"><ele>93.0</ele><time>2026-04-04T09:04:07.002Z</time></trkpt><trkpt lat="44.15508732948739" lon="12.009779281860975"><ele>93.0</ele><time>2026-04-04T09:04:10.003Z</time></trkpt><trkpt lat="44.15514993879929" lon="12.00974276452785"><ele>93.0</ele><time>2026-04-04T09:04:12.003Z</time></trkpt><trkpt lat="44.155247464248156" lon="12.009636708022285"><ele>93.0</ele><time>2026-04-04T09:04:14.003Z</time></trkpt><trkpt lat="44.15532859137096" lon="12.009523984642174"><ele>93.0</ele><time>2026-04-04T09:04:16.003Z</time></trkpt><trkpt lat="44.15540967075468" lon="12.009414837305238"><ele>93.0</ele><time>2026-04-04T09:04:18.003Z</time></trkpt><trkpt lat="44.155485079048184" lon="12.009307544211243"><ele>93.0</ele><time>2026-04-04T09:04:20.003Z</time></trkpt><trkpt lat="44.15556640508984" lon="12.009201412843725"><ele>93.0</ele><time>2026-04-04T09:04:22.003Z</time></trkpt><trkpt lat="44.155644834022546" lon="12.00909829250147"><ele>93.0</ele><time>2026-04-04T09:04:24.003Z</time></trkpt><trkpt lat="44.15572607905858" lon="12.008985881432505"><ele>93.0</ele><time>2026-04-04T09:04:26.003Z</time></trkpt><trkpt lat="44.15580544102777" lon="12.008869814177372"><ele>88.60000000000001</ele><time>2026-04-04T09:04:28.003Z</time></trkpt><trkpt lat="44.15588211130886" lon="12.008766867484182"><ele>84.2</ele><time>2026-04-04T09:04:30.003Z</time></trkpt><trkpt lat="44.15593156148744" lon="12.00871134373593"><ele>79.8</ele><time>2026-04-04T09:04:31.003Z</time></trkpt><trkpt lat="44.156018610568815" lon="12.008591333384649"><ele>75.4</ele><time>2026-04-04T09:04:33.003Z</time></trkpt><trkpt lat="44.15606515249579" lon="12.00852980426649"><ele>71.0</ele><time>2026-04-04T09:04:34.003Z</time></trkpt><trkpt lat="44.156150144654234" lon="12.008405670323118"><ele>71.0</ele><time>2026-04-04T09:04:36.003Z</time></trkpt><trkpt lat="44.15620028779995" lon="12.00834149298771"><ele>71.0</ele><time>2026-04-04T09:04:37.003Z</time></trkpt><trkpt lat="44.15624821148486" lon="12.008271745538979"><ele>71.0</ele><time>2026-04-04T09:04:38.003Z</time></trkpt><trkpt lat="44.15629906115531" lon="12.008198933375136"><ele>71.0</ele><time>2026-04-04T09:04:39.003Z</time></trkpt><trkpt lat="44.15635459358519" lon="12.008129748169912"><ele>71.0</ele><time>2026-04-04T09:04:40.003Z</time></trkpt><trkpt lat="44.15640674316147" lon="12.008058263453412"><ele>71.0</ele><time>2026-04-04T09:04:41Z</time></trkpt><trkpt lat="44.15645619227703" lon="12.007983177692402"><ele>71.0</ele><time>2026-04-04T09:04:42Z</time></trkpt><trkpt lat="44.15650303139655" lon="12.007909690161522"><ele>69.33333333333334</ele><time>2026-04-04T09:04:43Z</time></trkpt><trkpt lat="44.15654988582175" lon="12.007846587620566"><ele>67.66666666666667</ele><time>2026-04-04T09:04:44Z</time></trkpt><trkpt lat="44.15660696248231" lon="12.00776916105571"><ele>66.0</ele><time>2026-04-04T09:04:45Z</time></trkpt><trkpt lat="44.15665906380345" lon="12.007696797044133"><ele>64.33333333333333</ele><time>2026-04-04T09:04:46Z</time></trkpt><trkpt lat="44.15674025152277" lon="12.007582110618468"><ele>62.666666666666664</ele><time>2026-04-04T09:04:48Z</time></trkpt><trkpt lat="44.15680175775387" lon="12.007497811464544"><ele>61.0</ele><time>2026-04-04T09:04:50Z</time></trkpt><trkpt lat="44.156888133845634" lon="12.007400868011501"><ele>61.0</ele><time>2026-04-04T09:04:52Z</time></trkpt><trkpt lat="44.1569574031719" lon="12.007300198460571"><ele>60.99999999999999</ele><time>2026-04-04T09:04:54Z</time></trkpt><trkpt lat="44.157038350378485" lon="12.007191825464552"><ele>60.99999999999999</ele><time>2026-04-04T09:04:56Z</time></trkpt><trkpt lat="44.15712837700174" lon="12.007090403558061"><ele>61.0</ele><time>2026-04-04T09:04:58Z</time></trkpt><trkpt lat="44.157216259383205" lon="12.006985296081481"><ele>61.0</ele><time>2026-04-04T09:05:00Z</time></trkpt><trkpt lat="44.15731123269008" lon="12.006868647010418"><ele>60.75</ele><time>2026-04-04T09:05:02Z</time></trkpt><trkpt lat="44.15739448805695" lon="12.006750163670514"><ele>60.5</ele><time>2026-04-04T09:05:04Z</time></trkpt><trkpt lat="44.15747567181132" lon="12.006634801598219"><ele>60.25</ele><time>2026-04-04T09:05:06Z</time></trkpt><trkpt lat="44.157566874137" lon="12.006521798082348"><ele>60.0</ele><time>2026-04-04T09:05:08Z</time></trkpt><trkpt lat="44.15764022877926" lon="12.006416411778227"><ele>60.0</ele><time>2026-04-04T09:05:10.001Z</time></trkpt><trkpt lat="44.157731656416026" lon="12.006292707524706"><ele>60.0</ele><time>2026-04-04T09:05:12.001Z</time></trkpt><trkpt lat="44.157833937734885" lon="12.006180111545392"><ele>60.0</ele><time>2026-04-04T09:05:14.001Z</time></trkpt><trkpt lat="44.15788438105454" lon="12.006122708101417"><ele>60.0</ele><time>2026-04-04T09:05:15.001Z</time></trkpt><trkpt lat="44.15796483461717" lon="12.006014517790316"><ele>60.0</ele><time>2026-04-04T09:05:17.001Z</time></trkpt><trkpt lat="44.1580557729629" lon="12.0058912917737"><ele>60.0</ele><time>2026-04-04T09:05:19.001Z</time></trkpt><trkpt lat="44.15811292362664" lon="12.00583269547588"><ele>60.0</ele><time>2026-04-04T09:05:20.001Z</time></trkpt><trkpt lat="44.158215410454744" lon="12.005732218684123"><ele>60.0</ele><time>2026-04-04T09:05:22.001Z</time></trkpt><trkpt lat="44.15827076348831" lon="12.005683768691727"><ele>60.0</ele><time>2026-04-04T09:05:23.001Z</time></trkpt><trkpt lat="44.15836905435691" lon="12.005585959939722"><ele>60.0</ele><time>2026-04-04T09:05:25.001Z</time></trkpt><trkpt lat="44.1584151997599" lon="12.005451849758733"><ele>60.4</ele><time>2026-04-04T09:05:27.001Z</time></trkpt><trkpt lat="44.15841001185269" lon="12.005305237335186"><ele>60.8</ele><time>2026-04-04T09:05:29.001Z</time></trkpt><trkpt lat="44.15840564544585" lon="12.005157080994953"><ele>61.2</ele><time>2026-04-04T09:05:31.001Z</time></trkpt><trkpt lat="44.15839846259087" lon="12.005003818666806"><ele>61.6</ele><time>2026-04-04T09:05:33.001Z</time></trkpt><trkpt lat="44.15842047008613" lon="12.004853887303913"><ele>62.0</ele><time>2026-04-04T09:05:35.001Z</time></trkpt><trkpt lat="44.15847765864299" lon="12.004708224802812"><ele>62.2</ele><time>2026-04-04T09:05:37.001Z</time></trkpt><trkpt lat="44.1585431130279" lon="12.00457273490549"><ele>62.400000000000006</ele><time>2026-04-04T09:05:39.001Z</time></trkpt><trkpt lat="44.15861625919197" lon="12.004479260571946"><ele>62.599999999999994</ele><time>2026-04-04T09:05:41.001Z</time></trkpt><trkpt lat="44.15864799093785" lon="12.004378610752132"><ele>62.8</ele><time>2026-04-04T09:05:44.001Z</time></trkpt><trkpt lat="44.158700429011176" lon="12.004275924713948"><ele>63.0</ele><time>2026-04-04T09:05:47.002Z</time></trkpt><trkpt lat="44.15876750865513" lon="12.004172055537367"><ele>63.599999999999994</ele><time>2026-04-04T09:05:49.002Z</time></trkpt><trkpt lat="44.15884500535272" lon="12.004118756215682"><ele>64.19999999999999</ele><time>2026-04-04T09:05:52.002Z</time></trkpt><trkpt lat="44.15891502827463" lon="12.004070474326445"><ele>64.8</ele><time>2026-04-04T09:07:25Z</time></trkpt><trkpt lat="44.15889680477194" lon="12.003965009981513"><ele>65.39999999999999</ele><time>2026-04-04T09:07:27.001Z</time></trkpt><trkpt lat="44.15882172633175" lon="12.003866497485701"><ele>66.0</ele><time>2026-04-04T09:07:29.001Z</time></trkpt><trkpt lat="44.158755794526925" lon="12.003745452201201"><ele>66.0</ele><time>2026-04-04T09:07:31.001Z</time></trkpt><trkpt lat="44.1586953462494" lon="12.003622645587603"><ele>66.0</ele><time>2026-04-04T09:07:33.001Z</time></trkpt><trkpt lat="44.15863340791771" lon="12.003532039185485"><ele>66.0</ele><time>2026-04-04T09:07:41.001Z</time></trkpt><trkpt lat="44.158569540108395" lon="12.003421341458623"><ele>66.0</ele><time>2026-04-04T09:07:43.001Z</time></trkpt><trkpt lat="44.15853318685167" lon="12.003346596017826"><ele>66.0</ele><time>2026-04-04T09:07:44.001Z</time></trkpt><trkpt lat="44.15849248719261" lon="12.003275938487757"><ele>66.0</ele><time>2026-04-04T09:07:45.001Z</time></trkpt><trkpt lat="44.15844656099553" lon="12.003194457064811"><ele>66.0</ele><time>2026-04-04T09:07:46.001Z</time></trkpt><trkpt lat="44.15839267854204" lon="12.00310532221126"><ele>66.0</ele><time>2026-04-04T09:07:47.001Z</time></trkpt><trkpt lat="44.158334869695246" lon="12.003004589831477"><ele>66.0</ele><time>2026-04-04T09:07:48.001Z</time></trkpt><trkpt lat="44.15827557837556" lon="12.002894830716787"><ele>66.0</ele><time>2026-04-04T09:07:49.001Z</time></trkpt><trkpt lat="44.15821399368846" lon="12.00277980143293"><ele>66.0</ele><time>2026-04-04T09:07:50.001Z</time></trkpt><trkpt lat="44.158152443895176" lon="12.002666338120935"><ele>66.0</ele><time>2026-04-04T09:07:51.001Z</time></trkpt><trkpt lat="44.158090390502444" lon="12.002548714174482"><ele>66.0</ele><time>2026-04-04T09:07:52.001Z</time></trkpt><trkpt lat="44.15802904914531" lon="12.002433851348075"><ele>66.0</ele><time>2026-04-04T09:07:53.001Z</time></trkpt><trkpt lat="44.1579657754076" lon="12.00232410152975"><ele>66.0</ele><time>2026-04-04T09:07:54.001Z</time></trkpt><trkpt lat="44.157902080336235" lon="12.002214584122639"><ele>66.0</ele><time>2026-04-04T09:07:55.001Z</time></trkpt><trkpt lat="44.15783736467552" lon="12.002101988720952"><ele>66.5</ele><time>2026-04-04T09:07:56.001Z</time></trkpt><trkpt lat="44.15777342304464" lon="12.00198484112413"><ele>67.0</ele><time>2026-04-04T09:07:57.001Z</time></trkpt><trkpt lat="44.15770443346533" lon="12.00185816789475"><ele>67.5</ele><time>2026-04-04T09:07:58.002Z</time></trkpt><trkpt lat="44.15762967684783" lon="12.001723817145292"><ele>68.0</ele><time>2026-04-04T09:07:59.002Z</time></trkpt><trkpt lat="44.15755075511779" lon="12.001588578649269"><ele>68.0</ele><time>2026-04-04T09:08:00.002Z</time></trkpt><trkpt lat="44.157472415924715" lon="12.001447929119747"><ele>68.0</ele><time>2026-04-04T09:08:01.002Z</time></trkpt><trkpt lat="44.157392167580376" lon="12.001303512336218"><ele>68.0</ele><time>2026-04-04T09:08:02.002Z</time></trkpt><trkpt lat="44.157299850865186" lon="12.001155548694662"><ele>68.0</ele><time>2026-04-04T09:08:03.002Z</time></trkpt><trkpt lat="44.15719598625761" lon="12.00100406725972"><ele>68.33333333333334</ele><time>2026-04-04T09:08:04.002Z</time></trkpt><trkpt lat="44.157076980402714" lon="12.000851179839973"><ele>68.66666666666667</ele><time>2026-04-04T09:08:05.002Z</time></trkpt><trkpt lat="44.156953711802274" lon="12.000690931691562"><ele>69.0</ele><time>2026-04-04T09:08:06.002Z</time></trkpt><trkpt lat="44.156829040800496" lon="12.000539024742588"><ele>69.0</ele><time>2026-04-04T09:08:07.002Z</time></trkpt><trkpt lat="44.156708753167756" lon="12.000388488125584"><ele>69.0</ele><time>2026-04-04T09:08:08.002Z</time></trkpt><trkpt lat="44.15659220485922" lon="12.000251056850301"><ele>69.0</ele><time>2026-04-04T09:08:09.002Z</time></trkpt><trkpt lat="44.15647442828509" lon="12.00010870857451"><ele>69.66666666666667</ele><time>2026-04-04T09:08:10.002Z</time></trkpt><trkpt lat="44.15635904131087" lon="11.999969084399762"><ele>70.33333333333334</ele><time>2026-04-04T09:08:11.002Z</time></trkpt><trkpt lat="44.15624658600319" lon="11.999831985428594"><ele>71.0</ele><time>2026-04-04T09:08:12.002Z</time></trkpt><trkpt lat="44.15613115361612" lon="11.999693184620593"><ele>71.0</ele><time>2026-04-04T09:08:13.002Z</time></trkpt><trkpt lat="44.15601611619231" lon="11.999553960847853"><ele>71.0</ele><time>2026-04-04T09:08:14.002Z</time></trkpt><trkpt lat="44.15590124529134" lon="11.999413543026597"><ele>71.0</ele><time>2026-04-04T09:08:15.002Z</time></trkpt><trkpt lat="44.1557794933175" lon="11.99926708509055"><ele>71.0</ele><time>2026-04-04T09:08:16.002Z</time></trkpt><trkpt lat="44.155659455858334" lon="11.999123855860493"><ele>71.0</ele><time>2026-04-04T09:08:17.002Z</time></trkpt><trkpt lat="44.155534345723666" lon="11.998974205174456"><ele>71.0</ele><time>2026-04-04T09:08:18.002Z</time></trkpt><trkpt lat="44.15540469878776" lon="11.998818067527772"><ele>71.0</ele><time>2026-04-04T09:08:19.002Z</time></trkpt><trkpt lat="44.155278040106595" lon="11.998653595295249"><ele>71.0</ele><time>2026-04-04T09:08:20.002Z</time></trkpt><trkpt lat="44.15514928855135" lon="11.998490558701873"><ele>71.0</ele><time>2026-04-04T09:08:21.002Z</time></trkpt><trkpt lat="44.15502077378006" lon="11.998334768202177"><ele>72.0</ele><time>2026-04-04T09:08:22.002Z</time></trkpt><trkpt lat="44.154891290667614" lon="11.998176544067023"><ele>73.0</ele><time>2026-04-04T09:08:23.002Z</time></trkpt><trkpt lat="44.154757667942995" lon="11.99801835788303"><ele>74.0</ele><time>2026-04-04T09:08:24.002Z</time></trkpt><trkpt lat="44.15462480992665" lon="11.997861491216618"><ele>74.66666666666667</ele><time>2026-04-04T09:08:25.002Z</time></trkpt><trkpt lat="44.15448725090124" lon="11.99770275610365"><ele>75.33333333333333</ele><time>2026-04-04T09:08:26.002Z</time></trkpt><trkpt lat="44.154357028572456" lon="11.997543381495685"><ele>76.0</ele><time>2026-04-04T09:08:27.002Z</time></trkpt><trkpt lat="44.154228693683976" lon="11.997382637411189"><ele>76.0</ele><time>2026-04-04T09:08:28.002Z</time></trkpt><trkpt lat="44.15410000433449" lon="11.997219514951857"><ele>76.0</ele><time>2026-04-04T09:08:29.002Z</time></trkpt><trkpt lat="44.15397199605015" lon="11.99706507773983"><ele>76.0</ele><time>2026-04-04T09:08:30.002Z</time></trkpt><trkpt lat="44.15384601443257" lon="11.996913129407128"><ele>76.0</ele><time>2026-04-04T09:08:31.002Z</time></trkpt><trkpt lat="44.1537212438572" lon="11.996763517129096"><ele>76.0</ele><time>2026-04-04T09:08:32.003Z</time></trkpt><trkpt lat="44.1535962956697" lon="11.99661687820739"><ele>76.0</ele><time>2026-04-04T09:08:33.003Z</time></trkpt><trkpt lat="44.1534677520536" lon="11.996476939528751"><ele>76.0</ele><time>2026-04-04T09:08:34.003Z</time></trkpt><trkpt lat="44.15333330618438" lon="11.996344733076267"><ele>76.0</ele><time>2026-04-04T09:08:35.003Z</time></trkpt><trkpt lat="44.153192319948374" lon="11.996226024697567"><ele>76.0</ele><time>2026-04-04T09:08:36.003Z</time></trkpt><trkpt lat="44.15304630664889" lon="11.996117186460893"><ele>74.66666666666666</ele><time>2026-04-04T09:08:37.003Z</time></trkpt><trkpt lat="44.15289837770952" lon="11.996014203985418"><ele>73.33333333333333</ele><time>2026-04-04T09:08:38.003Z</time></trkpt><trkpt lat="44.15274602604509" lon="11.995924081671605"><ele>72.0</ele><time>2026-04-04T09:08:39.003Z</time></trkpt><trkpt lat="44.15259221467537" lon="11.995840452242728"><ele>73.33333333333333</ele><time>2026-04-04T09:08:40.003Z</time></trkpt><trkpt lat="44.1524372962797" lon="11.995760201703954"><ele>74.66666666666666</ele><time>2026-04-04T09:08:41.003Z</time></trkpt><trkpt lat="44.15227920522222" lon="11.99567886651145"><ele>76.0</ele><time>2026-04-04T09:08:42.003Z</time></trkpt><trkpt lat="44.15212056679497" lon="11.995595773030917"><ele>76.0</ele><time>2026-04-04T09:08:43.003Z</time></trkpt><trkpt lat="44.151960414126364" lon="11.995513977374982"><ele>76.0</ele><time>2026-04-04T09:08:44.003Z</time></trkpt><trkpt lat="44.15180119909647" lon="11.995431814072886"><ele>76.0</ele><time>2026-04-04T09:08:45.003Z</time></trkpt><trkpt lat="44.151641633182074" lon="11.995336946934938"><ele>76.0</ele><time>2026-04-04T09:08:46.003Z</time></trkpt><trkpt lat="44.15148233420471" lon="11.9952297364917"><ele>76.0</ele><time>2026-04-04T09:08:47.003Z</time></trkpt><trkpt lat="44.151326935499846" lon="11.995112318181555"><ele>76.0</ele><time>2026-04-04T09:08:48.003Z</time></trkpt><trkpt lat="44.15117401256948" lon="11.994983582521677"><ele>76.66666666666666</ele><time>2026-04-04T09:08:49.003Z</time></trkpt><trkpt lat="44.15102211465459" lon="11.99484196251875"><ele>77.33333333333333</ele><time>2026-04-04T09:08:50.003Z</time></trkpt><trkpt lat="44.150877653715696" lon="11.994691040085556"><ele>78.0</ele><time>2026-04-04T09:08:51.003Z</time></trkpt><trkpt lat="44.15074340326598" lon="11.994527422968897"><ele>77.33333333333333</ele><time>2026-04-04T09:08:52.003Z</time></trkpt><trkpt lat="44.150619472790204" lon="11.994346507799724"><ele>76.66666666666666</ele><time>2026-04-04T09:08:53Z</time></trkpt><trkpt lat="44.150505184230994" lon="11.994154835264368"><ele>76.0</ele><time>2026-04-04T09:08:54Z</time></trkpt><trkpt lat="44.150399770467615" lon="11.99395757801472"><ele>76.0</ele><time>2026-04-04T09:08:55Z</time></trkpt><trkpt lat="44.15029756480877" lon="11.99376070838379"><ele>76.0</ele><time>2026-04-04T09:08:56Z</time></trkpt><trkpt lat="44.15020102650426" lon="11.993569275767646"><ele>76.0</ele><time>2026-04-04T09:08:57Z</time></trkpt><trkpt lat="44.15011368342431" lon="11.993375109946374"><ele>77.33333333333333</ele><time>2026-04-04T09:08:58Z</time></trkpt><trkpt lat="44.150032232056134" lon="11.993180416340177"><ele>78.66666666666667</ele><time>2026-04-04T09:08:59Z</time></trkpt><trkpt lat="44.149954984295626" lon="11.99297912804135"><ele>80.0</ele><time>2026-04-04T09:09:00Z</time></trkpt><trkpt lat="44.1498832234961" lon="11.99277756176271"><ele>80.0</ele><time>2026-04-04T09:09:01Z</time></trkpt><trkpt lat="44.14982246587445" lon="11.99257306844784"><ele>80.0</ele><time>2026-04-04T09:09:02Z</time></trkpt><trkpt lat="44.14976789494615" lon="11.992351665366845"><ele>80.0</ele><time>2026-04-04T09:09:03Z</time></trkpt><trkpt lat="44.14970972441991" lon="11.992118246796448"><ele>80.0</ele><time>2026-04-04T09:09:04Z</time></trkpt><trkpt lat="44.149655891924226" lon="11.991900445168188"><ele>80.0</ele><time>2026-04-04T09:09:05Z</time></trkpt><trkpt lat="44.14960840914291" lon="11.991674857347109"><ele>80.0</ele><time>2026-04-04T09:09:06Z</time></trkpt><trkpt lat="44.149556545835146" lon="11.991452156526933"><ele>80.33333333333334</ele><time>2026-04-04T09:09:07Z</time></trkpt><trkpt lat="44.14950361144112" lon="11.99124433531439"><ele>80.66666666666667</ele><time>2026-04-04T09:09:08Z</time></trkpt><trkpt lat="44.14944729023329" lon="11.991025642738872"><ele>81.0</ele><time>2026-04-04T09:09:09Z</time></trkpt><trkpt lat="44.1493936120114" lon="11.990816831565043"><ele>81.33333333333333</ele><time>2026-04-04T09:09:10Z</time></trkpt><trkpt lat="44.14933996958624" lon="11.990608961260792"><ele>81.66666666666666</ele><time>2026-04-04T09:09:11Z</time></trkpt><trkpt lat="44.149286184366304" lon="11.99040244346271"><ele>82.0</ele><time>2026-04-04T09:09:12Z</time></trkpt><trkpt lat="44.14923574698421" lon="11.990201348032251"><ele>83.0</ele><time>2026-04-04T09:09:13Z</time></trkpt><trkpt lat="44.149186747917476" lon="11.990003935423411"><ele>84.0</ele><time>2026-04-04T09:09:14Z</time></trkpt><trkpt lat="44.14913465935767" lon="11.989803443320023"><ele>85.0</ele><time>2026-04-04T09:09:15Z</time></trkpt><trkpt lat="44.149080641052585" lon="11.989593879387948"><ele>85.33333333333333</ele><time>2026-04-04T09:09:16Z</time></trkpt><trkpt lat="44.14902901967466" lon="11.989388848095311"><ele>85.66666666666667</ele><time>2026-04-04T09:09:17Z</time></trkpt><trkpt lat="44.14897410935086" lon="11.98917269327464"><ele>86.0</ele><time>2026-04-04T09:09:18Z</time></trkpt><trkpt lat="44.148919451179665" lon="11.988959753572352"><ele>86.0</ele><time>2026-04-04T09:09:19Z</time></trkpt><trkpt lat="44.14886119303706" lon="11.988738107264526"><ele>86.0</ele><time>2026-04-04T09:09:20Z</time></trkpt><trkpt lat="44.14879494830116" lon="11.988518724368696"><ele>86.0</ele><time>2026-04-04T09:09:21Z</time></trkpt><trkpt lat="44.14872778582434" lon="11.988299573343962"><ele>86.0</ele><time>2026-04-04T09:09:22Z</time></trkpt><trkpt lat="44.14865256895439" lon="11.988082459462737"><ele>86.0</ele><time>2026-04-04T09:09:23Z</time></trkpt><trkpt lat="44.14856718245959" lon="11.987868130560003"><ele>86.0</ele><time>2026-04-04T09:09:24.001Z</time></trkpt><trkpt lat="44.14847705163139" lon="11.987654837801248"><ele>86.33333333333334</ele><time>2026-04-04T09:09:25.001Z</time></trkpt><trkpt lat="44.14838414249985" lon="11.987440236805387"><ele>86.66666666666667</ele><time>2026-04-04T09:09:26.001Z</time></trkpt><trkpt lat="44.14828859111237" lon="11.987235241649687"><ele>87.0</ele><time>2026-04-04T09:09:27.001Z</time></trkpt><trkpt lat="44.14818850541642" lon="11.987032612857629"><ele>86.33333333333333</ele><time>2026-04-04T09:09:28.001Z</time></trkpt><trkpt lat="44.148087015103265" lon="11.986836315691285"><ele>85.66666666666666</ele><time>2026-04-04T09:09:29.001Z</time></trkpt><trkpt lat="44.14797711120816" lon="11.986648660800755"><ele>85.0</ele><time>2026-04-04T09:09:30.001Z</time></trkpt><trkpt lat="44.14786294900568" lon="11.986465131002678"><ele>86.66666666666666</ele><time>2026-04-04T09:09:31.001Z</time></trkpt><trkpt lat="44.147746268199796" lon="11.986283469123256"><ele>88.33333333333333</ele><time>2026-04-04T09:09:32.001Z</time></trkpt><trkpt lat="44.147623721027834" lon="11.986108219963695"><ele>90.0</ele><time>2026-04-04T09:09:33.001Z</time></trkpt><trkpt lat="44.14749833925999" lon="11.985939271840483"><ele>90.33333333333333</ele><time>2026-04-04T09:09:34.001Z</time></trkpt><trkpt lat="44.14736815012618" lon="11.985775313065343"><ele>90.66666666666666</ele><time>2026-04-04T09:09:35.001Z</time></trkpt><trkpt lat="44.147237452280265" lon="11.985614146916506"><ele>91.0</ele><time>2026-04-04T09:09:36.001Z</time></trkpt><trkpt lat="44.14710627931449" lon="11.985455366842704"><ele>91.0</ele><time>2026-04-04T09:09:37.001Z</time></trkpt><trkpt lat="44.146964037657575" lon="11.985308560761817"><ele>91.0</ele><time>2026-04-04T09:09:38.001Z</time></trkpt><trkpt lat="44.14681744457255" lon="11.985177252083467"><ele>91.0</ele><time>2026-04-04T09:09:39.001Z</time></trkpt><trkpt lat="44.146669161071586" lon="11.98504206261942"><ele>91.33333333333333</ele><time>2026-04-04T09:09:40.001Z</time></trkpt><trkpt lat="44.14651886641736" lon="11.984913941384765"><ele>91.66666666666667</ele><time>2026-04-04T09:09:41.001Z</time></trkpt><trkpt lat="44.14636416657684" lon="11.984793830505662"><ele>92.0</ele><time>2026-04-04T09:09:42.001Z</time></trkpt><trkpt lat="44.146213657905506" lon="11.984672402865092"><ele>92.0</ele><time>2026-04-04T09:09:43.001Z</time></trkpt><trkpt lat="44.14606228220457" lon="11.984548040793658"><ele>92.0</ele><time>2026-04-04T09:09:44.001Z</time></trkpt><trkpt lat="44.145914424575864" lon="11.984430915932998"><ele>92.0</ele><time>2026-04-04T09:09:45.001Z</time></trkpt><trkpt lat="44.14575903692329" lon="11.984304216421968"><ele>93.33333333333334</ele><time>2026-04-04T09:09:46.001Z</time></trkpt><trkpt lat="44.1456058090028" lon="11.984176802709872"><ele>94.66666666666667</ele><time>2026-04-04T09:09:47.001Z</time></trkpt><trkpt lat="44.145447540125566" lon="11.984054065259453"><ele>96.0</ele><time>2026-04-04T09:09:48.001Z</time></trkpt><trkpt lat="44.14528749757596" lon="11.983933325127717"><ele>96.0</ele><time>2026-04-04T09:09:49.001Z</time></trkpt><trkpt lat="44.145129367149735" lon="11.98382173391966"><ele>96.0</ele><time>2026-04-04T09:09:50.001Z</time></trkpt><trkpt lat="44.144968310744225" lon="11.983698191266672"><ele>96.0</ele><time>2026-04-04T09:09:51.001Z</time></trkpt><trkpt lat="44.14480957016667" lon="11.98357142615454"><ele>96.0</ele><time>2026-04-04T09:09:52.001Z</time></trkpt><trkpt lat="44.144654058965436" lon="11.98344390610181"><ele>96.0</ele><time>2026-04-04T09:09:53.001Z</time></trkpt><trkpt lat="44.144496255466215" lon="11.983316199864358"><ele>96.0</ele><time>2026-04-04T09:09:54.001Z</time></trkpt><trkpt lat="44.14433488795293" lon="11.983188323318949"><ele>96.66666666666666</ele><time>2026-04-04T09:09:55.001Z</time></trkpt><trkpt lat="44.144173094245154" lon="11.983061158414428"><ele>97.33333333333333</ele><time>2026-04-04T09:09:56.001Z</time></trkpt><trkpt lat="44.14400993075945" lon="11.98293026019786"><ele>98.0</ele><time>2026-04-04T09:09:57.002Z</time></trkpt><trkpt lat="44.14384443395684" lon="11.9828006701155"><ele>98.0</ele><time>2026-04-04T09:09:58.002Z</time></trkpt><trkpt lat="44.143671515250034" lon="11.982675212894923"><ele>98.0</ele><time>2026-04-04T09:09:59.002Z</time></trkpt><trkpt lat="44.14349824741152" lon="11.982562808969305"><ele>98.0</ele><time>2026-04-04T09:10:00.002Z</time></trkpt><trkpt lat="44.14331785709368" lon="11.982452101659614"><ele>98.0</ele><time>2026-04-04T09:10:01.002Z</time></trkpt><trkpt lat="44.1431340917302" lon="11.982350819101638"><ele>98.0</ele><time>2026-04-04T09:10:02.002Z</time></trkpt><trkpt lat="44.14295045429176" lon="11.982259814131316"><ele>98.0</ele><time>2026-04-04T09:10:03.002Z</time></trkpt><trkpt lat="44.14276306802122" lon="11.982172106915666"><ele>98.0</ele><time>2026-04-04T09:10:04.002Z</time></trkpt><trkpt lat="44.14257477411198" lon="11.982092683055052"><ele>98.0</ele><time>2026-04-04T09:10:05.002Z</time></trkpt><trkpt lat="44.142383007373354" lon="11.982021443221198"><ele>98.0</ele><time>2026-04-04T09:10:06.002Z</time></trkpt><trkpt lat="44.14219042332869" lon="11.98196949995298"><ele>97.0</ele><time>2026-04-04T09:10:07.002Z</time></trkpt><trkpt lat="44.14199769633389" lon="11.981925667982358"><ele>96.0</ele><time>2026-04-04T09:10:08.002Z</time></trkpt><trkpt lat="44.14180315147818" lon="11.98190185165145"><ele>95.0</ele><time>2026-04-04T09:10:09.002Z</time></trkpt><trkpt lat="44.14160790005161" lon="11.981880259618718"><ele>94.33333333333334</ele><time>2026-04-04T09:10:10.002Z</time></trkpt><trkpt lat="44.14141302377785" lon="11.981861764375894"><ele>93.66666666666667</ele><time>2026-04-04T09:10:11.002Z</time></trkpt><trkpt lat="44.14121959773347" lon="11.98184403513985"><ele>93.0</ele><time>2026-04-04T09:10:12.002Z</time></trkpt><trkpt lat="44.14102509889617" lon="11.981824280976555"><ele>93.0</ele><time>2026-04-04T09:10:13.002Z</time></trkpt><trkpt lat="44.14083385140482" lon="11.981809835838776"><ele>93.0</ele><time>2026-04-04T09:10:14.002Z</time></trkpt><trkpt lat="44.14064121685043" lon="11.981800045527265"><ele>93.0</ele><time>2026-04-04T09:10:15.002Z</time></trkpt><trkpt lat="44.14045781966128" lon="11.981789814357569"><ele>92.66666666666667</ele><time>2026-04-04T09:10:16.002Z</time></trkpt><trkpt lat="44.14027690627757" lon="11.981776716251794"><ele>92.33333333333334</ele><time>2026-04-04T09:10:17.002Z</time></trkpt><trkpt lat="44.14010183146156" lon="11.981763556069875"><ele>92.0</ele><time>2026-04-04T09:10:18.002Z</time></trkpt><trkpt lat="44.13992886998311" lon="11.981752477946621"><ele>92.0</ele><time>2026-04-04T09:10:19.002Z</time></trkpt><trkpt lat="44.13976112711174" lon="11.981740116303897"><ele>92.0</ele><time>2026-04-04T09:10:20.002Z</time></trkpt><trkpt lat="44.13959792384164" lon="11.981733835329162"><ele>92.0</ele><time>2026-04-04T09:10:21.002Z</time></trkpt><trkpt lat="44.139433903128555" lon="11.98172198487983"><ele>92.0</ele><time>2026-04-04T09:10:22.002Z</time></trkpt><trkpt lat="44.13927148915902" lon="11.981710577582833"><ele>92.0</ele><time>2026-04-04T09:10:23.002Z</time></trkpt><trkpt lat="44.139116043500856" lon="11.981684811381077"><ele>92.0</ele><time>2026-04-04T09:10:24.002Z</time></trkpt><trkpt lat="44.13895334241427" lon="11.981662686377886"><ele>93.0</ele><time>2026-04-04T09:10:25.002Z</time></trkpt><trkpt lat="44.138793642039" lon="11.981633362734003"><ele>94.0</ele><time>2026-04-04T09:10:26.002Z</time></trkpt><trkpt lat="44.138630834362765" lon="11.981592508038187"><ele>95.0</ele><time>2026-04-04T09:10:27.002Z</time></trkpt><trkpt lat="44.138467326181974" lon="11.981546284715318"><ele>95.0</ele><time>2026-04-04T09:10:28.002Z</time></trkpt><trkpt lat="44.138302845362865" lon="11.981490934509736"><ele>95.0</ele><time>2026-04-04T09:10:29.002Z</time></trkpt><trkpt lat="44.138141306759515" lon="11.981424813006335"><ele>95.0</ele><time>2026-04-04T09:10:30.002Z</time></trkpt><trkpt lat="44.13797840249799" lon="11.981354286041421"><ele>94.33333333333334</ele><time>2026-04-04T09:10:31.003Z</time></trkpt><trkpt lat="44.137813143517484" lon="11.98128979360204"><ele>93.66666666666667</ele><time>2026-04-04T09:10:32.003Z</time></trkpt><trkpt lat="44.13764993304288" lon="11.98122063442166"><ele>93.0</ele><time>2026-04-04T09:10:33.003Z</time></trkpt><trkpt lat="44.13748898101312" lon="11.981149639554872"><ele>93.0</ele><time>2026-04-04T09:10:34.003Z</time></trkpt><trkpt lat="44.13732777994849" lon="11.981076570161578"><ele>93.0</ele><time>2026-04-04T09:10:35.003Z</time></trkpt><trkpt lat="44.13716712043969" lon="11.981002032987991"><ele>93.0</ele><time>2026-04-04T09:10:36.003Z</time></trkpt><trkpt lat="44.13700520862134" lon="11.980919107831571"><ele>92.0</ele><time>2026-04-04T09:10:37.003Z</time></trkpt><trkpt lat="44.13685055450218" lon="11.980832186646"><ele>91.0</ele><time>2026-04-04T09:10:38.003Z</time></trkpt><trkpt lat="44.13669647486064" lon="11.980731481325911"><ele>90.0</ele><time>2026-04-04T09:10:39.003Z</time></trkpt><trkpt lat="44.13654771913795" lon="11.980619139632976"><ele>90.0</ele><time>2026-04-04T09:10:40.003Z</time></trkpt><trkpt lat="44.136407301160325" lon="11.980501476738816"><ele>90.0</ele><time>2026-04-04T09:10:41.003Z</time></trkpt><trkpt lat="44.136270521097565" lon="11.980384830311786"><ele>90.0</ele><time>2026-04-04T09:10:42.003Z</time></trkpt><trkpt lat="44.136134571484575" lon="11.980267743444704"><ele>90.0</ele><time>2026-04-04T09:10:43.003Z</time></trkpt><trkpt lat="44.1360012101121" lon="11.980145095315619"><ele>90.0</ele><time>2026-04-04T09:10:44.003Z</time></trkpt><trkpt lat="44.13587131082999" lon="11.980022360955841"><ele>90.0</ele><time>2026-04-04T09:10:45.003Z</time></trkpt><trkpt lat="44.13573747891058" lon="11.979902694266489"><ele>90.0</ele><time>2026-04-04T09:10:46.003Z</time></trkpt><trkpt lat="44.1356049084321" lon="11.979782197679487"><ele>90.0</ele><time>2026-04-04T09:10:47.003Z</time></trkpt><trkpt lat="44.1354752198845" lon="11.979652292733395"><ele>90.0</ele><time>2026-04-04T09:10:48.003Z</time></trkpt><trkpt lat="44.13535592235495" lon="11.979514328021073"><ele>90.0</ele><time>2026-04-04T09:10:49.003Z</time></trkpt><trkpt lat="44.13523746553432" lon="11.979365190745755"><ele>90.0</ele><time>2026-04-04T09:10:50.003Z</time></trkpt><trkpt lat="44.13511793039594" lon="11.979213085701938"><ele>90.0</ele><time>2026-04-04T09:10:51.003Z</time></trkpt><trkpt lat="44.13500524597265" lon="11.979048877627386"><ele>89.33333333333333</ele><time>2026-04-04T09:10:52.003Z</time></trkpt><trkpt lat="44.13488683623194" lon="11.978883985531704"><ele>88.66666666666666</ele><time>2026-04-04T09:10:53.003Z</time></trkpt><trkpt lat="44.134770117230914" lon="11.978719550449675"><ele>88.0</ele><time>2026-04-04T09:10:54.003Z</time></trkpt><trkpt lat="44.13464712962831" lon="11.978545871389272"><ele>88.0</ele><time>2026-04-04T09:10:55.003Z</time></trkpt><trkpt lat="44.1345184229557" lon="11.978386715508547"><ele>88.0</ele><time>2026-04-04T09:10:56.003Z</time></trkpt><trkpt lat="44.13438187725559" lon="11.97822930578163"><ele>88.0</ele><time>2026-04-04T09:10:57.003Z</time></trkpt><trkpt lat="44.13424490956003" lon="11.978076484262088"><ele>87.0</ele><time>2026-04-04T09:10:58.003Z</time></trkpt><trkpt lat="44.134108697103635" lon="11.97792586793498"><ele>86.0</ele><time>2026-04-04T09:10:59Z</time></trkpt><trkpt lat="44.13396996729118" lon="11.977778190726976"><ele>85.0</ele><time>2026-04-04T09:11:00Z</time></trkpt><trkpt lat="44.13382719310676" lon="11.977641545090195"><ele>85.0</ele><time>2026-04-04T09:11:01Z</time></trkpt><trkpt lat="44.133681160558496" lon="11.97752805683996"><ele>85.0</ele><time>2026-04-04T09:11:02Z</time></trkpt><trkpt lat="44.133527368980936" lon="11.977442985887135"><ele>85.0</ele><time>2026-04-04T09:11:03Z</time></trkpt><trkpt lat="44.13337126939537" lon="11.977361757119517"><ele>88.0</ele><time>2026-04-04T09:11:04Z</time></trkpt><trkpt lat="44.13321575132213" lon="11.977302009239512"><ele>91.0</ele><time>2026-04-04T09:11:05Z</time></trkpt><trkpt lat="44.133065972989996" lon="11.977230393874448"><ele>94.0</ele><time>2026-04-04T09:11:06Z</time></trkpt><trkpt lat="44.13291381479405" lon="11.97716995897306"><ele>94.0</ele><time>2026-04-04T09:11:07Z</time></trkpt><trkpt lat="44.13277403354537" lon="11.977104744405457"><ele>94.0</ele><time>2026-04-04T09:11:08Z</time></trkpt><trkpt lat="44.13262753458023" lon="11.977032814731398"><ele>94.0</ele><time>2026-04-04T09:11:09Z</time></trkpt><trkpt lat="44.13248857279111" lon="11.976962815931904"><ele>93.0</ele><time>2026-04-04T09:11:10Z</time></trkpt><trkpt lat="44.132341670695276" lon="11.97689849742023"><ele>92.0</ele><time>2026-04-04T09:11:11Z</time></trkpt><trkpt lat="44.132196578987546" lon="11.976832366668052"><ele>91.0</ele><time>2026-04-04T09:11:12Z</time></trkpt><trkpt lat="44.13205236895506" lon="11.976758630090607"><ele>94.66666666666666</ele><time>2026-04-04T09:11:13Z</time></trkpt><trkpt lat="44.131907635481205" lon="11.976683695638872"><ele>98.33333333333333</ele><time>2026-04-04T09:11:14Z</time></trkpt><trkpt lat="44.13176007680213" lon="11.976617652322531"><ele>102.0</ele><time>2026-04-04T09:11:15Z</time></trkpt><trkpt lat="44.13161409498951" lon="11.97654911584735"><ele>100.66666666666666</ele><time>2026-04-04T09:11:16Z</time></trkpt><trkpt lat="44.13146718406081" lon="11.976483035788124"><ele>99.33333333333333</ele><time>2026-04-04T09:11:17Z</time></trkpt><trkpt lat="44.13132476626361" lon="11.976421278197694"><ele>98.0</ele><time>2026-04-04T09:11:18Z</time></trkpt><trkpt lat="44.131181691076485" lon="11.976352848990567"><ele>98.0</ele><time>2026-04-04T09:11:19Z</time></trkpt><trkpt lat="44.13103943394241" lon="11.976289324776738"><ele>98.0</ele><time>2026-04-04T09:11:20Z</time></trkpt><trkpt lat="44.130902705540855" lon="11.976223845299812"><ele>98.0</ele><time>2026-04-04T09:11:21Z</time></trkpt><trkpt lat="44.13077239026469" lon="11.976153002944363"><ele>98.0</ele><time>2026-04-04T09:11:22Z</time></trkpt><trkpt lat="44.13064879117762" lon="11.976067901094906"><ele>98.5</ele><time>2026-04-04T09:11:23Z</time></trkpt><trkpt lat="44.130522464942075" lon="11.975973225062965"><ele>99.0</ele><time>2026-04-04T09:11:24Z</time></trkpt><trkpt lat="44.13039751258655" lon="11.975870474860052"><ele>99.5</ele><time>2026-04-04T09:11:25Z</time></trkpt><trkpt lat="44.1302687297053" lon="11.975774239824728"><ele>100.0</ele><time>2026-04-04T09:11:26Z</time></trkpt><trkpt lat="44.13013385593862" lon="11.975695815951154"><ele>100.0</ele><time>2026-04-04T09:11:27Z</time></trkpt><trkpt lat="44.129989385634964" lon="11.975634289179549"><ele>100.0</ele><time>2026-04-04T09:11:28.001Z</time></trkpt><trkpt lat="44.12983744275565" lon="11.975597781411228"><ele>100.0</ele><time>2026-04-04T09:11:29.001Z</time></trkpt><trkpt lat="44.12968475950162" lon="11.97557533389953"><ele>99.75</ele><time>2026-04-04T09:11:30.001Z</time></trkpt><trkpt lat="44.129538284528174" lon="11.97558960901576"><ele>99.5</ele><time>2026-04-04T09:11:31.001Z</time></trkpt><trkpt lat="44.129396526836175" lon="11.975620639054695"><ele>99.25</ele><time>2026-04-04T09:11:32.001Z</time></trkpt><trkpt lat="44.12924861196303" lon="11.97565454502903"><ele>99.0</ele><time>2026-04-04T09:11:33.001Z</time></trkpt><trkpt lat="44.12909924397081" lon="11.975659421121714"><ele>98.66666666666666</ele><time>2026-04-04T09:11:34.001Z</time></trkpt><trkpt lat="44.128945879131805" lon="11.975658043017715"><ele>98.33333333333333</ele><time>2026-04-04T09:11:35.001Z</time></trkpt><trkpt lat="44.12878799356175" lon="11.975661326902774"><ele>98.0</ele><time>2026-04-04T09:11:36.001Z</time></trkpt><trkpt lat="44.1286306288765" lon="11.975657469227361"><ele>98.0</ele><time>2026-04-04T09:11:37.001Z</time></trkpt><trkpt lat="44.12847425028012" lon="11.975638006564447"><ele>98.0</ele><time>2026-04-04T09:11:38.001Z</time></trkpt><trkpt lat="44.12832274293726" lon="11.975609658033575"><ele>98.0</ele><time>2026-04-04T09:11:39.001Z</time></trkpt><trkpt lat="44.1281665968977" lon="11.975582116348205"><ele>97.0</ele><time>2026-04-04T09:11:40.001Z</time></trkpt><trkpt lat="44.128013100241276" lon="11.975546015007238"><ele>96.0</ele><time>2026-04-04T09:11:41.001Z</time></trkpt><trkpt lat="44.127856486709966" lon="11.975512354273368"><ele>95.0</ele><time>2026-04-04T09:11:42.001Z</time></trkpt><trkpt lat="44.12770070160521" lon="11.975472348007198"><ele>95.0</ele><time>2026-04-04T09:11:43.001Z</time></trkpt><trkpt lat="44.12754341493107" lon="11.975426829005821"><ele>95.0</ele><time>2026-04-04T09:11:44.001Z</time></trkpt><trkpt lat="44.12738661527242" lon="11.975388083070346"><ele>95.0</ele><time>2026-04-04T09:11:45.001Z</time></trkpt><trkpt lat="44.127235917405585" lon="11.975350873666473"><ele>94.66666666666667</ele><time>2026-04-04T09:11:46.001Z</time></trkpt><trkpt lat="44.127078921419105" lon="11.975321133829524"><ele>94.33333333333333</ele><time>2026-04-04T09:11:47.001Z</time></trkpt><trkpt lat="44.12692643119121" lon="11.975287964063757"><ele>94.0</ele><time>2026-04-04T09:11:48.001Z</time></trkpt><trkpt lat="44.12677661626047" lon="11.975248305445062"><ele>94.0</ele><time>2026-04-04T09:11:49.001Z</time></trkpt><trkpt lat="44.12662917698832" lon="11.97521218866012"><ele>94.0</ele><time>2026-04-04T09:11:50.001Z</time></trkpt><trkpt lat="44.126483470315684" lon="11.975179376546674"><ele>94.0</ele><time>2026-04-04T09:11:51.001Z</time></trkpt><trkpt lat="44.12633716586309" lon="11.975141790561093"><ele>94.0</ele><time>2026-04-04T09:11:52.001Z</time></trkpt><trkpt lat="44.12619137134733" lon="11.975102499621455"><ele>94.75</ele><time>2026-04-04T09:11:53.001Z</time></trkpt><trkpt lat="44.126046483987196" lon="11.975063824950642"><ele>95.5</ele><time>2026-04-04T09:11:54.001Z</time></trkpt><trkpt lat="44.125903201112926" lon="11.975025749752227"><ele>96.25</ele><time>2026-04-04T09:11:55.001Z</time></trkpt><trkpt lat="44.12576021600867" lon="11.97498721252826"><ele>97.0</ele><time>2026-04-04T09:11:56.001Z</time></trkpt><trkpt lat="44.12562144477693" lon="11.974953660917427"><ele>99.5</ele><time>2026-04-04T09:11:57.001Z</time></trkpt><trkpt lat="44.125480408105304" lon="11.974924815922154"><ele>102.0</ele><time>2026-04-04T09:11:58.001Z</time></trkpt><trkpt lat="44.12534262425308" lon="11.974889932357463"><ele>104.5</ele><time>2026-04-04T09:11:59.001Z</time></trkpt><trkpt lat="44.12520320548958" lon="11.974855117958073"><ele>107.0</ele><time>2026-04-04T09:12:00.001Z</time></trkpt><trkpt lat="44.12506236228454" lon="11.97482693280766"><ele>107.0</ele><time>2026-04-04T09:12:01.002Z</time></trkpt><trkpt lat="44.124936081903925" lon="11.974795768562123"><ele>107.0</ele><time>2026-04-04T09:12:02.002Z</time></trkpt><trkpt lat="44.1248202160853" lon="11.974762498960562"><ele>107.0</ele><time>2026-04-04T09:12:03.002Z</time></trkpt><trkpt lat="44.124706801548044" lon="11.974717774885981"><ele>107.0</ele><time>2026-04-04T09:12:04.002Z</time></trkpt><trkpt lat="44.12459375503186" lon="11.974674639118044"><ele>107.75</ele><time>2026-04-04T09:12:05.002Z</time></trkpt><trkpt lat="44.124481347963155" lon="11.974637364281797"><ele>108.5</ele><time>2026-04-04T09:12:06.002Z</time></trkpt><trkpt lat="44.124368211578584" lon="11.974597721505702"><ele>109.25</ele><time>2026-04-04T09:12:07.002Z</time></trkpt><trkpt lat="44.124257347278316" lon="11.974572384394696"><ele>110.0</ele><time>2026-04-04T09:12:08.002Z</time></trkpt><trkpt lat="44.124139299906936" lon="11.974559785942564"><ele>108.25</ele><time>2026-04-04T09:12:09.002Z</time></trkpt><trkpt lat="44.12401595633566" lon="11.974553295285775"><ele>106.5</ele><time>2026-04-04T09:12:10.002Z</time></trkpt><trkpt lat="44.12389003889213" lon="11.974554264941247"><ele>104.75</ele><time>2026-04-04T09:12:11.002Z</time></trkpt><trkpt lat="44.12375980865087" lon="11.974563289503307"><ele>103.0</ele><time>2026-04-04T09:12:12.002Z</time></trkpt><trkpt lat="44.12362678803159" lon="11.97457437256237"><ele>103.0</ele><time>2026-04-04T09:12:13.002Z</time></trkpt><trkpt lat="44.1234884120033" lon="11.97458510666279"><ele>103.0</ele><time>2026-04-04T09:12:14.002Z</time></trkpt><trkpt lat="44.12334888301371" lon="11.974594524381466"><ele>103.0</ele><time>2026-04-04T09:12:15.002Z</time></trkpt><trkpt lat="44.12320538143864" lon="11.974608069583928"><ele>103.0</ele><time>2026-04-04T09:12:16.002Z</time></trkpt><trkpt lat="44.123055040841756" lon="11.974620735693186"><ele>103.0</ele><time>2026-04-04T09:12:17.002Z</time></trkpt><trkpt lat="44.12290561770373" lon="11.974618041241671"><ele>103.0</ele><time>2026-04-04T09:12:18.002Z</time></trkpt><trkpt lat="44.122752246294034" lon="11.974600455115834"><ele>103.0</ele><time>2026-04-04T09:12:19.002Z</time></trkpt><trkpt lat="44.12259235365333" lon="11.97457378365188"><ele>103.0</ele><time>2026-04-04T09:12:20.002Z</time></trkpt><trkpt lat="44.12243205706645" lon="11.974533927104734"><ele>103.0</ele><time>2026-04-04T09:12:21.002Z</time></trkpt><trkpt lat="44.12227365864711" lon="11.974487620528684"><ele>103.0</ele><time>2026-04-04T09:12:22.002Z</time></trkpt><trkpt lat="44.122121017351894" lon="11.974441929208206"><ele>103.33333333333334</ele><time>2026-04-04T09:12:23.002Z</time></trkpt><trkpt lat="44.12196607028947" lon="11.974401423107894"><ele>103.66666666666666</ele><time>2026-04-04T09:12:24.002Z</time></trkpt><trkpt lat="44.12181342039088" lon="11.974369838070734"><ele>104.0</ele><time>2026-04-04T09:12:25.002Z</time></trkpt><trkpt lat="44.12166479315537" lon="11.974346369115274"><ele>104.25</ele><time>2026-04-04T09:12:26.002Z</time></trkpt><trkpt lat="44.12151335493" lon="11.974308684487351"><ele>104.5</ele><time>2026-04-04T09:12:27.002Z</time></trkpt><trkpt lat="44.1213828135659" lon="11.974321666819618"><ele>104.75</ele><time>2026-04-04T09:12:28.002Z</time></trkpt><trkpt lat="44.12125121642937" lon="11.974311449822705"><ele>105.0</ele><time>2026-04-04T09:12:29.002Z</time></trkpt><trkpt lat="44.12112523713327" lon="11.97431345492938"><ele>105.0</ele><time>2026-04-04T09:12:30.002Z</time></trkpt><trkpt lat="44.12099607066177" lon="11.97431589945224"><ele>105.0</ele><time>2026-04-04T09:12:31.002Z</time></trkpt><trkpt lat="44.120871396611044" lon="11.974326309318613"><ele>105.0</ele><time>2026-04-04T09:12:32.002Z</time></trkpt><trkpt lat="44.12075036847069" lon="11.974355511689183"><ele>105.0</ele><time>2026-04-04T09:12:33.002Z</time></trkpt><trkpt lat="44.120629098227646" lon="11.974404719519496"><ele>105.0</ele><time>2026-04-04T09:12:34.002Z</time></trkpt><trkpt lat="44.120515998393074" lon="11.974468588529676"><ele>105.0</ele><time>2026-04-04T09:12:35.003Z</time></trkpt><trkpt lat="44.12041260775272" lon="11.97454898386618"><ele>105.0</ele><time>2026-04-04T09:12:36.003Z</time></trkpt><trkpt lat="44.12031496316107" lon="11.97463667470585"><ele>105.0</ele><time>2026-04-04T09:12:37.003Z</time></trkpt><trkpt lat="44.12022488069456" lon="11.974733009557427"><ele>105.0</ele><time>2026-04-04T09:12:38.003Z</time></trkpt><trkpt lat="44.12015034535909" lon="11.974829727298468"><ele>105.0</ele><time>2026-04-04T09:12:39.003Z</time></trkpt><trkpt lat="44.12007406470503" lon="11.974920599257457"><ele>105.0</ele><time>2026-04-04T09:12:40.003Z</time></trkpt><trkpt lat="44.11999882085672" lon="11.975012492987444"><ele>105.0</ele><time>2026-04-04T09:12:41.003Z</time></trkpt><trkpt lat="44.11991943347594" lon="11.975104800046676"><ele>105.0</ele><time>2026-04-04T09:12:42.003Z</time></trkpt><trkpt lat="44.1198406016722" lon="11.97520168738161"><ele>106.2</ele><time>2026-04-04T09:12:43.003Z</time></trkpt><trkpt lat="44.1197592451044" lon="11.975307056911246"><ele>107.4</ele><time>2026-04-04T09:12:44.003Z</time></trkpt><trkpt lat="44.11967731812798" lon="11.975408316342854"><ele>108.6</ele><time>2026-04-04T09:12:45.003Z</time></trkpt><trkpt lat="44.119603702859614" lon="11.975494124502148"><ele>109.8</ele><time>2026-04-04T09:12:46.003Z</time></trkpt><trkpt lat="44.11953552198792" lon="11.975598646842958"><ele>111.0</ele><time>2026-04-04T09:12:47.003Z</time></trkpt><trkpt lat="44.11947180419928" lon="11.975728531287796"><ele>109.25</ele><time>2026-04-04T09:12:48.003Z</time></trkpt><trkpt lat="44.11941473430415" lon="11.975875734771055"><ele>107.5</ele><time>2026-04-04T09:12:49.003Z</time></trkpt><trkpt lat="44.11935897339542" lon="11.976042649339243"><ele>105.75</ele><time>2026-04-04T09:12:50.003Z</time></trkpt><trkpt lat="44.11930095515566" lon="11.976212249891287"><ele>104.0</ele><time>2026-04-04T09:12:51.003Z</time></trkpt><trkpt lat="44.11922773355544" lon="11.976376776172785"><ele>104.0</ele><time>2026-04-04T09:12:52.003Z</time></trkpt><trkpt lat="44.119132515325575" lon="11.976510109179703"><ele>104.0</ele><time>2026-04-04T09:12:53.003Z</time></trkpt><trkpt lat="44.11902133597899" lon="11.976601942819013"><ele>104.0</ele><time>2026-04-04T09:12:54.003Z</time></trkpt><trkpt lat="44.118884294941616" lon="11.97664665666189"><ele>104.0</ele><time>2026-04-04T09:12:55.003Z</time></trkpt><trkpt lat="44.11874211396663" lon="11.976643990481344"><ele>105.33333333333333</ele><time>2026-04-04T09:12:56.003Z</time></trkpt><trkpt lat="44.11858893096604" lon="11.976609952095966"><ele>106.66666666666666</ele><time>2026-04-04T09:12:57.003Z</time></trkpt><trkpt lat="44.11843396759428" lon="11.97655375532455"><ele>108.0</ele><time>2026-04-04T09:12:58.003Z</time></trkpt><trkpt lat="44.118268353837344" lon="11.97650613010288"><ele>107.66666666666666</ele><time>2026-04-04T09:12:59.003Z</time></trkpt><trkpt lat="44.11810651721548" lon="11.976465450546065"><ele>107.33333333333333</ele><time>2026-04-04T09:13:00.003Z</time></trkpt><trkpt lat="44.117939159962035" lon="11.976418354668924"><ele>107.0</ele><time>2026-04-04T09:13:01.003Z</time></trkpt><trkpt lat="44.11777106225938" lon="11.976365688720085"><ele>107.0</ele><time>2026-04-04T09:13:02.003Z</time></trkpt><trkpt lat="44.11760328861385" lon="11.97631886295001"><ele>107.0</ele><time>2026-04-04T09:13:03.003Z</time></trkpt><trkpt lat="44.11743386497906" lon="11.97626961813751"><ele>107.0</ele><time>2026-04-04T09:13:04.003Z</time></trkpt><trkpt lat="44.117268586099485" lon="11.976219726448123"><ele>106.0</ele><time>2026-04-04T09:13:05.001Z</time></trkpt><trkpt lat="44.11710367573146" lon="11.97616557350519"><ele>105.0</ele><time>2026-04-04T09:13:06Z</time></trkpt><trkpt lat="44.11694706868348" lon="11.976118465501909"><ele>104.0</ele><time>2026-04-04T09:13:07.001Z</time></trkpt><trkpt lat="44.116796266176465" lon="11.976082030601772"><ele>104.0</ele><time>2026-04-04T09:13:08Z</time></trkpt><trkpt lat="44.11664672458787" lon="11.97604587968001"><ele>104.0</ele><time>2026-04-04T09:13:09Z</time></trkpt><trkpt lat="44.116499231263084" lon="11.976014668756385"><ele>104.0</ele><time>2026-04-04T09:13:10Z</time></trkpt><trkpt lat="44.11635232365862" lon="11.976014220387695"><ele>104.0</ele><time>2026-04-04T09:13:11Z</time></trkpt><trkpt lat="44.11621725962485" lon="11.976040322186387"><ele>104.0</ele><time>2026-04-04T09:13:12Z</time></trkpt><trkpt lat="44.11609484607466" lon="11.976081746547598"><ele>104.0</ele><time>2026-04-04T09:13:13Z</time></trkpt><trkpt lat="44.115977335490896" lon="11.976138909208126"><ele>104.0</ele><time>2026-04-04T09:13:14Z</time></trkpt><trkpt lat="44.11586499837962" lon="11.976208250598967"><ele>104.0</ele><time>2026-04-04T09:13:15Z</time></trkpt><trkpt lat="44.11575628420504" lon="11.976287660534371"><ele>107.75</ele><time>2026-04-04T09:13:16Z</time></trkpt><trkpt lat="44.11565026969817" lon="11.97637028797164"><ele>111.5</ele><time>2026-04-04T09:13:17Z</time></trkpt><trkpt lat="44.1155596443944" lon="11.976465314635929"><ele>115.25</ele><time>2026-04-04T09:13:18Z</time></trkpt><trkpt lat="44.11547384327305" lon="11.976576125366794"><ele>119.0</ele><time>2026-04-04T09:13:19Z</time></trkpt><trkpt lat="44.115390170677806" lon="11.976700098303443"><ele>119.0</ele><time>2026-04-04T09:13:20Z</time></trkpt><trkpt lat="44.11531216509467" lon="11.976837553991093"><ele>119.0</ele><time>2026-04-04T09:13:21Z</time></trkpt><trkpt lat="44.11524695242778" lon="11.976996139550302"><ele>119.0</ele><time>2026-04-04T09:13:22Z</time></trkpt><trkpt lat="44.11518501785574" lon="11.977169125163435"><ele>119.0</ele><time>2026-04-04T09:13:23Z</time></trkpt><trkpt lat="44.11513864214584" lon="11.977352614922399"><ele>119.0</ele><time>2026-04-04T09:13:24Z</time></trkpt><trkpt lat="44.115108236764065" lon="11.977546787330773"><ele>119.0</ele><time>2026-04-04T09:13:25Z</time></trkpt><trkpt lat="44.11508938389879" lon="11.977749028359055"><ele>119.0</ele><time>2026-04-04T09:13:26Z</time></trkpt><trkpt lat="44.1150740380619" lon="11.977955547083488"><ele>119.0</ele><time>2026-04-04T09:13:27.001Z</time></trkpt><trkpt lat="44.11506082969734" lon="11.97816559843277"><ele>118.66666666666666</ele><time>2026-04-04T09:13:28.001Z</time></trkpt><trkpt lat="44.11504046958042" lon="11.978378299214205"><ele>118.33333333333334</ele><time>2026-04-04T09:13:29.001Z</time></trkpt><trkpt lat="44.115006188131005" lon="11.978586927672628"><ele>118.0</ele><time>2026-04-04T09:13:30.001Z</time></trkpt><trkpt lat="44.11495609011038" lon="11.978788150239135"><ele>117.33333333333334</ele><time>2026-04-04T09:13:31.001Z</time></trkpt><trkpt lat="44.11487765639373" lon="11.978977272667882"><ele>116.66666666666666</ele><time>2026-04-04T09:13:32.001Z</time></trkpt><trkpt lat="44.114774422593925" lon="11.979140900716159"><ele>116.0</ele><time>2026-04-04T09:13:33.001Z</time></trkpt><trkpt lat="44.11465525362642" lon="11.979276301056357"><ele>115.0</ele><time>2026-04-04T09:13:34.001Z</time></trkpt><trkpt lat="44.11451783668868" lon="11.979380277029989"><ele>114.0</ele><time>2026-04-04T09:13:35.001Z</time></trkpt><trkpt lat="44.114369411372834" lon="11.979452397219381"><ele>113.0</ele><time>2026-04-04T09:13:36.001Z</time></trkpt><trkpt lat="44.11421053138465" lon="11.979478852450857"><ele>113.0</ele><time>2026-04-04T09:13:37.001Z</time></trkpt><trkpt lat="44.114056335673936" lon="11.979477032535167"><ele>113.0</ele><time>2026-04-04T09:13:38.001Z</time></trkpt><trkpt lat="44.11390672154513" lon="11.979443857458289"><ele>113.0</ele><time>2026-04-04T09:13:39.001Z</time></trkpt><trkpt lat="44.113753598178484" lon="11.97939123632128"><ele>113.0</ele><time>2026-04-04T09:13:40.001Z</time></trkpt><trkpt lat="44.1136022453856" lon="11.97934339843234"><ele>113.0</ele><time>2026-04-04T09:13:41.001Z</time></trkpt><trkpt lat="44.113451935040416" lon="11.979298491901625"><ele>113.0</ele><time>2026-04-04T09:13:42.001Z</time></trkpt><trkpt lat="44.113297482757474" lon="11.979252913543304"><ele>112.33333333333333</ele><time>2026-04-04T09:13:43.001Z</time></trkpt><trkpt lat="44.11314303009832" lon="11.979206462365454"><ele>111.66666666666666</ele><time>2026-04-04T09:13:44.001Z</time></trkpt><trkpt lat="44.11298523893392" lon="11.97915697062186"><ele>111.0</ele><time>2026-04-04T09:13:45.001Z</time></trkpt><trkpt lat="44.11282852384484" lon="11.97910429073197"><ele>112.0</ele><time>2026-04-04T09:13:46.001Z</time></trkpt><trkpt lat="44.11267037224162" lon="11.979048806415879"><ele>113.0</ele><time>2026-04-04T09:13:47.001Z</time></trkpt><trkpt lat="44.11251084271511" lon="11.978991286907727"><ele>114.0</ele><time>2026-04-04T09:13:48.001Z</time></trkpt><trkpt lat="44.11235135707674" lon="11.978943734047387"><ele>114.0</ele><time>2026-04-04T09:13:49.001Z</time></trkpt><trkpt lat="44.11219054353469" lon="11.978927828345297"><ele>114.0</ele><time>2026-04-04T09:13:50.001Z</time></trkpt><trkpt lat="44.11203300615028" lon="11.97893098079783"><ele>114.0</ele><time>2026-04-04T09:13:51.001Z</time></trkpt><trkpt lat="44.111873336680816" lon="11.978946766093369"><ele>114.0</ele><time>2026-04-04T09:13:52.001Z</time></trkpt><trkpt lat="44.11171255007871" lon="11.978968800988"><ele>114.0</ele><time>2026-04-04T09:13:53.001Z</time></trkpt><trkpt lat="44.111555308281716" lon="11.978997074104635"><ele>114.0</ele><time>2026-04-04T09:13:54.001Z</time></trkpt><trkpt lat="44.1113982057781" lon="11.979023957164708"><ele>114.66666666666666</ele><time>2026-04-04T09:13:55.001Z</time></trkpt><trkpt lat="44.11124500794793" lon="11.979058337670628"><ele>115.33333333333333</ele><time>2026-04-04T09:13:56.001Z</time></trkpt><trkpt lat="44.11109443066308" lon="11.979123114498872"><ele>116.0</ele><time>2026-04-04T09:13:57.001Z</time></trkpt><trkpt lat="44.110956663176474" lon="11.979226573671895"><ele>116.0</ele><time>2026-04-04T09:13:58.001Z</time></trkpt><trkpt lat="44.11082751602087" lon="11.979360952919647"><ele>116.0</ele><time>2026-04-04T09:13:59.001Z</time></trkpt><trkpt lat="44.110709462967336" lon="11.979516463037235"><ele>116.0</ele><time>2026-04-04T09:14:00.001Z</time></trkpt><trkpt lat="44.11058945331527" lon="11.979687423925407"><ele>117.33333333333333</ele><time>2026-04-04T09:14:01.001Z</time></trkpt><trkpt lat="44.11048160304667" lon="11.979863787730167"><ele>118.66666666666666</ele><time>2026-04-04T09:14:02.001Z</time></trkpt><trkpt lat="44.11037184049517" lon="11.980040852084477"><ele>120.0</ele><time>2026-04-04T09:14:03.001Z</time></trkpt><trkpt lat="44.110262153332016" lon="11.980214758306857"><ele>120.0</ele><time>2026-04-04T09:14:04.001Z</time></trkpt><trkpt lat="44.110159084395384" lon="11.980381747605916"><ele>120.0</ele><time>2026-04-04T09:14:05.001Z</time></trkpt><trkpt lat="44.11004810845858" lon="11.980523817412669"><ele>120.0</ele><time>2026-04-04T09:14:06.002Z</time></trkpt><trkpt lat="44.10992871629005" lon="11.9806380426729"><ele>121.0</ele><time>2026-04-04T09:14:07.002Z</time></trkpt><trkpt lat="44.10980332666702" lon="11.980731543794526"><ele>122.0</ele><time>2026-04-04T09:14:08.002Z</time></trkpt><trkpt lat="44.10966458662611" lon="11.980790279647213"><ele>123.0</ele><time>2026-04-04T09:14:09.002Z</time></trkpt><trkpt lat="44.10953669372637" lon="11.980834099271766"><ele>124.0</ele><time>2026-04-04T09:14:10.002Z</time></trkpt><trkpt lat="44.10940707250429" lon="11.980863292784692"><ele>124.00000000000001</ele><time>2026-04-04T09:14:11.002Z</time></trkpt><trkpt lat="44.10928266523211" lon="11.980897673444513"><ele>124.0</ele><time>2026-04-04T09:14:12.002Z</time></trkpt><trkpt lat="44.1091821010323" lon="11.980925242366906"><ele>124.0</ele><time>2026-04-04T09:14:13.002Z</time></trkpt><trkpt lat="44.10911275037029" lon="11.980944200885418"><ele>124.0</ele><time>2026-04-04T09:14:14.002Z</time></trkpt><trkpt lat="44.109101438422634" lon="11.981055125053297"><ele>124.00000000000001</ele><time>2026-04-04T09:14:24.002Z</time></trkpt><trkpt lat="44.10912916144974" lon="11.981138067174623"><ele>124.0</ele><time>2026-04-04T09:14:25.002Z</time></trkpt><trkpt lat="44.10910788212756" lon="11.98130883012314"><ele>124.00000000000001</ele><time>2026-04-04T09:14:27.002Z</time></trkpt><trkpt lat="44.109080254990126" lon="11.981401677489588"><ele>124.0</ele><time>2026-04-04T09:14:28.002Z</time></trkpt><trkpt lat="44.1090695059734" lon="11.981508381711564"><ele>124.0</ele><time>2026-04-04T09:14:29.002Z</time></trkpt><trkpt lat="44.10905695100759" lon="11.981615308828443"><ele>124.0</ele><time>2026-04-04T09:14:30.002Z</time></trkpt><trkpt lat="44.109030088455924" lon="11.981723976320389"><ele>124.00000000000001</ele><time>2026-04-04T09:14:31.002Z</time></trkpt><trkpt lat="44.10900888121749" lon="11.981837154950084"><ele>124.0</ele><time>2026-04-04T09:14:32.002Z</time></trkpt><trkpt lat="44.10899516531622" lon="11.981951020782844"><ele>123.66666666666667</ele><time>2026-04-04T09:14:33.002Z</time></trkpt><trkpt lat="44.10898380876255" lon="11.982062275780235"><ele>123.33333333333334</ele><time>2026-04-04T09:14:34.002Z</time></trkpt><trkpt lat="44.10896686178676" lon="11.982168357253046"><ele>123.0</ele><time>2026-04-04T09:14:35.002Z</time></trkpt><trkpt lat="44.10894614925056" lon="11.982265245752284"><ele>122.66666666666666</ele><time>2026-04-04T09:14:36.002Z</time></trkpt><trkpt lat="44.10889781168236" lon="11.982411281031123"><ele>122.33333333333333</ele><time>2026-04-04T09:14:38.002Z</time></trkpt><trkpt lat="44.108814789255916" lon="11.982475557404417"><ele>122.0</ele><time>2026-04-04T09:14:40.002Z</time></trkpt><trkpt lat="44.10874625718041" lon="11.982480151608408"><ele>122.0</ele><time>2026-04-04T09:14:41.002Z</time></trkpt><trkpt lat="44.108664771516615" lon="11.982493959345089"><ele>121.99999999999999</ele><time>2026-04-04T09:14:42.003Z</time></trkpt><trkpt lat="44.10857806070344" lon="11.982517550807817"><ele>121.99999999999999</ele><time>2026-04-04T09:14:43.003Z</time></trkpt><trkpt lat="44.1084813286465" lon="11.982546978888873"><ele>122.0</ele><time>2026-04-04T09:14:44.003Z</time></trkpt><trkpt lat="44.10838131778528" lon="11.982573508810988"><ele>122.0</ele><time>2026-04-04T09:14:45.003Z</time></trkpt><trkpt lat="44.1082771706023" lon="11.982605019343225"><ele>122.16666666666666</ele><time>2026-04-04T09:14:46.003Z</time></trkpt><trkpt lat="44.108176943030415" lon="11.982635051768758"><ele>122.33333333333333</ele><time>2026-04-04T09:14:47.003Z</time></trkpt><trkpt lat="44.10809339568727" lon="11.98265907041983"><ele>122.5</ele><time>2026-04-04T09:14:48.003Z</time></trkpt><trkpt lat="44.10801095516518" lon="11.982677422381904"><ele>122.66666666666666</ele><time>2026-04-04T09:14:50.003Z</time></trkpt><trkpt lat="44.10791585149859" lon="11.982691922980505"><ele>122.83333333333333</ele><time>2026-04-04T09:14:52.003Z</time></trkpt><trkpt lat="44.107846471789316" lon="11.982711410922391"><ele>123.0</ele><time>2026-04-04T09:14:53.003Z</time></trkpt><trkpt lat="44.1077700840274" lon="11.982736752941241"><ele>123.0</ele><time>2026-04-04T09:14:54.003Z</time></trkpt><trkpt lat="44.10769079339228" lon="11.982764951833119"><ele>123.0</ele><time>2026-04-04T09:14:55.003Z</time></trkpt><trkpt lat="44.107605897305795" lon="11.982786585209709"><ele>123.0</ele><time>2026-04-04T09:14:56.003Z</time></trkpt><trkpt lat="44.107527622064055" lon="11.982807524869756"><ele>123.0</ele><time>2026-04-04T09:14:57.003Z</time></trkpt><trkpt lat="44.10747044518066" lon="11.982855328734015"><ele>123.0</ele><time>2026-04-04T09:14:58.003Z</time></trkpt><trkpt lat="44.10741624394831" lon="11.982914966286977"><ele>123.0</ele><time>2026-04-04T09:15:00.003Z</time></trkpt><trkpt lat="44.10739939457079" lon="11.983005423604016"><ele>123.0</ele><time>2026-04-04T09:15:03.003Z</time></trkpt><trkpt lat="44.10746107249308" lon="11.983127264259315"><ele>123.00000000000001</ele><time>2026-04-04T09:15:05.003Z</time></trkpt><trkpt lat="44.107534331038" lon="11.983271299288194"><ele>123.00000000000001</ele><time>2026-04-04T09:15:07.003Z</time></trkpt><trkpt lat="44.10757585847019" lon="11.983349738981355"><ele>123.0</ele><time>2026-04-04T09:15:08.003Z</time></trkpt><trkpt lat="44.10762331115117" lon="11.983438848742358"><ele>123.0</ele><time>2026-04-04T09:15:09.003Z</time></trkpt><trkpt lat="44.10767648778473" lon="11.98353776083728"><ele>122.4</ele><time>2026-04-04T09:15:10.003Z</time></trkpt><trkpt lat="44.10773157488055" lon="11.983647667461971"><ele>121.80000000000001</ele><time>2026-04-04T09:15:11Z</time></trkpt><trkpt lat="44.107793930402835" lon="11.983763347202077"><ele>121.2</ele><time>2026-04-04T09:15:12Z</time></trkpt><trkpt lat="44.107865667721995" lon="11.983888699542375"><ele>120.6</ele><time>2026-04-04T09:15:13Z</time></trkpt><trkpt lat="44.10793347260121" lon="11.984012730806601"><ele>120.0</ele><time>2026-04-04T09:15:14Z</time></trkpt><trkpt lat="44.107999127708595" lon="11.98414228958935"><ele>120.5</ele><time>2026-04-04T09:15:15Z</time></trkpt><trkpt lat="44.10807015575249" lon="11.984273480648037"><ele>121.0</ele><time>2026-04-04T09:15:16Z</time></trkpt><trkpt lat="44.108141293992134" lon="11.98440941723313"><ele>121.5</ele><time>2026-04-04T09:15:17Z</time></trkpt><trkpt lat="44.1082164491697" lon="11.98455295653712"><ele>122.0</ele><time>2026-04-04T09:15:18Z</time></trkpt><trkpt lat="44.10829291312539" lon="11.984691996177371"><ele>122.75</ele><time>2026-04-04T09:15:19Z</time></trkpt><trkpt lat="44.10836633757555" lon="11.984830607014912"><ele>123.5</ele><time>2026-04-04T09:15:20Z</time></trkpt><trkpt lat="44.10843731939792" lon="11.984968290794988"><ele>124.25</ele><time>2026-04-04T09:15:21Z</time></trkpt><trkpt lat="44.10851042802153" lon="11.985105748260759"><ele>125.0</ele><time>2026-04-04T09:15:22Z</time></trkpt><trkpt lat="44.1085825144778" lon="11.985240431196372"><ele>125.75</ele><time>2026-04-04T09:15:23Z</time></trkpt><trkpt lat="44.108653101896266" lon="11.985371330786286"><ele>126.5</ele><time>2026-04-04T09:15:24Z</time></trkpt><trkpt lat="44.10872230861378" lon="11.985504684582795"><ele>127.25</ele><time>2026-04-04T09:15:25Z</time></trkpt><trkpt lat="44.108795311525405" lon="11.98563767896661"><ele>128.0</ele><time>2026-04-04T09:15:26Z</time></trkpt><trkpt lat="44.108869507373015" lon="11.985773122470745"><ele>128.25</ele><time>2026-04-04T09:15:27Z</time></trkpt><trkpt lat="44.108946617305065" lon="11.985912879056539"><ele>128.5</ele><time>2026-04-04T09:15:28Z</time></trkpt><trkpt lat="44.10902311498569" lon="11.986057650804964"><ele>128.75</ele><time>2026-04-04T09:15:29Z</time></trkpt><trkpt lat="44.109102353003706" lon="11.986202930112288"><ele>129.0</ele><time>2026-04-04T09:15:30Z</time></trkpt><trkpt lat="44.109181175330626" lon="11.986348882830463"><ele>130.25</ele><time>2026-04-04T09:15:31Z</time></trkpt><trkpt lat="44.10925851733868" lon="11.986494657436504"><ele>131.5</ele><time>2026-04-04T09:15:32Z</time></trkpt><trkpt lat="44.10933286786632" lon="11.986638640293275"><ele>132.75</ele><time>2026-04-04T09:15:33Z</time></trkpt><trkpt lat="44.10940315567637" lon="11.986778026716804"><ele>134.0</ele><time>2026-04-04T09:15:34Z</time></trkpt><trkpt lat="44.109457283768336" lon="11.986928849834037"><ele>134.75</ele><time>2026-04-04T09:15:35Z</time></trkpt><trkpt lat="44.109474962408335" lon="11.987095701572196"><ele>135.5</ele><time>2026-04-04T09:15:36Z</time></trkpt><trkpt lat="44.10947022141642" lon="11.987259189215548"><ele>136.25</ele><time>2026-04-04T09:15:37Z</time></trkpt><trkpt lat="44.109430009868106" lon="11.987423663208288"><ele>137.0</ele><time>2026-04-04T09:15:38Z</time></trkpt><trkpt lat="44.10936632269412" lon="11.987575985661652"><ele>138.0</ele><time>2026-04-04T09:15:39Z</time></trkpt><trkpt lat="44.10930105752886" lon="11.987720280888318"><ele>139.0</ele><time>2026-04-04T09:15:40Z</time></trkpt><trkpt lat="44.10922959389618" lon="11.987854264248227"><ele>140.0</ele><time>2026-04-04T09:15:41.001Z</time></trkpt><trkpt lat="44.10916261301494" lon="11.98798437657246"><ele>141.0</ele><time>2026-04-04T09:15:42.001Z</time></trkpt><trkpt lat="44.10909296223563" lon="11.988109294159626"><ele>140.4</ele><time>2026-04-04T09:15:43.001Z</time></trkpt><trkpt lat="44.109027390541556" lon="11.98822342673733"><ele>139.8</ele><time>2026-04-04T09:15:44.001Z</time></trkpt><trkpt lat="44.10896463136044" lon="11.988333841579404"><ele>139.20000000000002</ele><time>2026-04-04T09:15:45.001Z</time></trkpt><trkpt lat="44.10890647340286" lon="11.98844222633099"><ele>138.6</ele><time>2026-04-04T09:15:46.001Z</time></trkpt><trkpt lat="44.10884931591712" lon="11.988546009795936"><ele>138.0</ele><time>2026-04-04T09:15:47.001Z</time></trkpt><trkpt lat="44.10879572055324" lon="11.988643180590186"><ele>139.33333333333334</ele><time>2026-04-04T09:15:48.001Z</time></trkpt><trkpt lat="44.108751996496316" lon="11.988727005621636"><ele>140.66666666666666</ele><time>2026-04-04T09:15:49.001Z</time></trkpt><trkpt lat="44.10867944900697" lon="11.988843772617418"><ele>142.0</ele><time>2026-04-04T09:15:51.001Z</time></trkpt><trkpt lat="44.10860580383702" lon="11.988988922268247"><ele>143.33333333333331</ele><time>2026-04-04T09:15:53.001Z</time></trkpt><trkpt lat="44.10857102343056" lon="11.989064650476369"><ele>144.66666666666666</ele><time>2026-04-04T09:15:54.001Z</time></trkpt><trkpt lat="44.10855562627919" lon="11.989157517263365"><ele>146.0</ele><time>2026-04-04T09:15:55.001Z</time></trkpt><trkpt lat="44.10857439714406" lon="11.989250448288091"><ele>148.16666666666666</ele><time>2026-04-04T09:15:56.001Z</time></trkpt><trkpt lat="44.10862893564228" lon="11.989320324157443"><ele>150.33333333333331</ele><time>2026-04-04T09:15:57.001Z</time></trkpt><trkpt lat="44.1087052766431" lon="11.989356202926142"><ele>152.5</ele><time>2026-04-04T09:15:58.001Z</time></trkpt><trkpt lat="44.10879387334459" lon="11.989358352576273"><ele>154.66666666666666</ele><time>2026-04-04T09:15:59.001Z</time></trkpt><trkpt lat="44.10889204960039" lon="11.989339443953831"><ele>156.83333333333334</ele><time>2026-04-04T09:16:00.001Z</time></trkpt><trkpt lat="44.10899618570076" lon="11.989336827912332"><ele>159.0</ele><time>2026-04-04T09:16:01.001Z</time></trkpt><trkpt lat="44.109100296379" lon="11.989346245395446"><ele>159.8</ele><time>2026-04-04T09:16:02.001Z</time></trkpt><trkpt lat="44.10919606889636" lon="11.98933460828324"><ele>160.60000000000002</ele><time>2026-04-04T09:16:03.001Z</time></trkpt><trkpt lat="44.10927289017637" lon="11.989317455827054"><ele>161.4</ele><time>2026-04-04T09:16:04.001Z</time></trkpt><trkpt lat="44.109331386838704" lon="11.989350354268787"><ele>162.20000000000002</ele><time>2026-04-04T09:16:05.001Z</time></trkpt><trkpt lat="44.10930968565409" lon="11.989532103824164"><ele>163.0</ele><time>2026-04-04T09:16:07.001Z</time></trkpt><trkpt lat="44.10920941129999" lon="11.989532179006186"><ele>163.0</ele><time>2026-04-04T09:16:08.001Z</time></trkpt><trkpt lat="44.10913022792494" lon="11.989573508450874"><ele>163.0</ele><time>2026-04-04T09:16:09.001Z</time></trkpt><trkpt lat="44.10905831403498" lon="11.989617111372192"><ele>163.0</ele><time>2026-04-04T09:16:10.001Z</time></trkpt><trkpt lat="44.10895906205311" lon="11.989676756752155"><ele>163.0</ele><time>2026-04-04T09:16:11.001Z</time></trkpt><trkpt lat="44.10885301407561" lon="11.989736684877192"><ele>163.0</ele><time>2026-04-04T09:16:12.001Z</time></trkpt><trkpt lat="44.10874155280401" lon="11.989799153293031"><ele>162.20000000000002</ele><time>2026-04-04T09:16:13.001Z</time></trkpt><trkpt lat="44.10864259751959" lon="11.989852439736545"><ele>161.4</ele><time>2026-04-04T09:16:14.001Z</time></trkpt><trkpt lat="44.10856265565687" lon="11.989902799597202"><ele>160.60000000000002</ele><time>2026-04-04T09:16:15.001Z</time></trkpt><trkpt lat="44.10852383673365" lon="11.98999597233125"><ele>159.8</ele><time>2026-04-04T09:16:16.001Z</time></trkpt><trkpt lat="44.108567919893545" lon="11.990151772376601"><ele>159.0</ele><time>2026-04-04T09:16:18.001Z</time></trkpt><trkpt lat="44.10865433993965" lon="11.990176573239992"><ele>161.5</ele><time>2026-04-04T09:16:19.002Z</time></trkpt><trkpt lat="44.108766344563186" lon="11.99013331477132"><ele>164.0</ele><time>2026-04-04T09:16:20.002Z</time></trkpt><trkpt lat="44.10887539105268" lon="11.990079889183127"><ele>166.5</ele><time>2026-04-04T09:16:21.002Z</time></trkpt><trkpt lat="44.10899536415765" lon="11.990045103333847"><ele>169.0</ele><time>2026-04-04T09:16:22.002Z</time></trkpt><trkpt lat="44.10909946101496" lon="11.990014279372287"><ele>169.0</ele><time>2026-04-04T09:16:23.002Z</time></trkpt><trkpt lat="44.10917871291502" lon="11.989982909107688"><ele>169.0</ele><time>2026-04-04T09:16:24.002Z</time></trkpt><trkpt lat="44.109251942676224" lon="11.990075326196928"><ele>169.0</ele><time>2026-04-04T09:16:26.002Z</time></trkpt><trkpt lat="44.1091623306846" lon="11.990181007240471"><ele>169.0</ele><time>2026-04-04T09:16:28.002Z</time></trkpt><trkpt lat="44.109078778076984" lon="11.990163526467036"><ele>169.0</ele><time>2026-04-04T09:16:29.002Z</time></trkpt><trkpt lat="44.10898436803187" lon="11.99017654678439"><ele>169.0</ele><time>2026-04-04T09:16:30.002Z</time></trkpt><trkpt lat="44.108878109072904" lon="11.990192089313457"><ele>169.0</ele><time>2026-04-04T09:16:31.002Z</time></trkpt><trkpt lat="44.108780108001206" lon="11.99021071312306"><ele>169.0</ele><time>2026-04-04T09:16:32.002Z</time></trkpt><trkpt lat="44.108696660771066" lon="11.990243148870933"><ele>169.0</ele><time>2026-04-04T09:16:33.002Z</time></trkpt><trkpt lat="44.10863845528763" lon="11.990308584136548"><ele>169.0</ele><time>2026-04-04T09:16:34.002Z</time></trkpt><trkpt lat="44.10864496583108" lon="11.99042534128366"><ele>169.0</ele><time>2026-04-04T09:16:35.002Z</time></trkpt><trkpt lat="44.10874258389343" lon="11.990516954544692"><ele>169.0</ele><time>2026-04-04T09:16:37.002Z</time></trkpt><trkpt lat="44.10881908654301" lon="11.990495310385823"><ele>169.0</ele><time>2026-04-04T09:16:38.002Z</time></trkpt><trkpt lat="44.108908337171435" lon="11.99045420623207"><ele>169.0</ele><time>2026-04-04T09:16:39.002Z</time></trkpt><trkpt lat="44.10901067316469" lon="11.990426760878547"><ele>169.0</ele><time>2026-04-04T09:16:40.002Z</time></trkpt><trkpt lat="44.10911228684064" lon="11.990420743835587"><ele>172.0</ele><time>2026-04-04T09:16:41.002Z</time></trkpt><trkpt lat="44.109217556931554" lon="11.990475122854885"><ele>175.0</ele><time>2026-04-04T09:16:42.002Z</time></trkpt><trkpt lat="44.109341022076826" lon="11.990541223408918"><ele>178.0</ele><time>2026-04-04T09:16:43.002Z</time></trkpt><trkpt lat="44.1094385372253" lon="11.990639514704059"><ele>181.0</ele><time>2026-04-04T09:16:44.002Z</time></trkpt><trkpt lat="44.10951674205323" lon="11.990762216913891"><ele>183.0</ele><time>2026-04-04T09:16:45.002Z</time></trkpt><trkpt lat="44.10958639886252" lon="11.990899673469334"><ele>185.0</ele><time>2026-04-04T09:16:46.002Z</time></trkpt><trkpt lat="44.10966309495433" lon="11.991030479080688"><ele>187.0</ele><time>2026-04-04T09:16:47.002Z</time></trkpt><trkpt lat="44.1097438345523" lon="11.991164203237423"><ele>189.0</ele><time>2026-04-04T09:16:48.002Z</time></trkpt><trkpt lat="44.10983606504212" lon="11.99128151525715"><ele>188.79999999999998</ele><time>2026-04-04T09:16:49.002Z</time></trkpt><trkpt lat="44.10993469488238" lon="11.991361801615895"><ele>188.6</ele><time>2026-04-04T09:16:50.002Z</time></trkpt><trkpt lat="44.110014413294046" lon="11.991417279304542"><ele>188.4</ele><time>2026-04-04T09:16:51.002Z</time></trkpt><trkpt lat="44.11006058620071" lon="11.991484046124123"><ele>188.2</ele><time>2026-04-04T09:16:52.002Z</time></trkpt><trkpt lat="44.110014459234485" lon="11.99162540200371"><ele>188.0</ele><time>2026-04-04T09:16:54.002Z</time></trkpt><trkpt lat="44.10991700000121" lon="11.991540093448672"><ele>188.2</ele><time>2026-04-04T09:16:56.003Z</time></trkpt><trkpt lat="44.10984747349016" lon="11.991483813252525"><ele>188.4</ele><time>2026-04-04T09:16:57.003Z</time></trkpt><trkpt lat="44.10975524105783" lon="11.991443087732101"><ele>188.6</ele><time>2026-04-04T09:16:58.003Z</time></trkpt><trkpt lat="44.10965110654508" lon="11.991413140259377"><ele>188.79999999999998</ele><time>2026-04-04T09:16:59.003Z</time></trkpt><trkpt lat="44.10954347729761" lon="11.991394681775454"><ele>189.0</ele><time>2026-04-04T09:17:00.003Z</time></trkpt><trkpt lat="44.10942901958056" lon="11.991388045087255"><ele>189.0</ele><time>2026-04-04T09:17:01.003Z</time></trkpt><trkpt lat="44.10931403149448" lon="11.991388813030985"><ele>189.0</ele><time>2026-04-04T09:17:02.003Z</time></trkpt><trkpt lat="44.10920207720096" lon="11.9913941128961"><ele>189.0</ele><time>2026-04-04T09:17:03.003Z</time></trkpt><trkpt lat="44.10911628658256" lon="11.99141197624387"><ele>189.0</ele><time>2026-04-04T09:17:04.003Z</time></trkpt><trkpt lat="44.10903664288928" lon="11.99147408193904"><ele>189.0</ele><time>2026-04-04T09:17:05.003Z</time></trkpt><trkpt lat="44.10900673957504" lon="11.991607483739447"><ele>187.79999999999998</ele><time>2026-04-04T09:17:06.003Z</time></trkpt><trkpt lat="44.109043384912475" lon="11.99174199334527"><ele>186.6</ele><time>2026-04-04T09:17:07.003Z</time></trkpt><trkpt lat="44.1090929115033" lon="11.991831675721022"><ele>185.4</ele><time>2026-04-04T09:17:08.003Z</time></trkpt><trkpt lat="44.10917114250196" lon="11.991882479859214"><ele>184.2</ele><time>2026-04-04T09:17:09.003Z</time></trkpt><trkpt lat="44.109269407611436" lon="11.99191073957629"><ele>183.0</ele><time>2026-04-04T09:17:10.003Z</time></trkpt><trkpt lat="44.10937454590229" lon="11.99194839896079"><ele>186.25</ele><time>2026-04-04T09:17:11.003Z</time></trkpt><trkpt lat="44.10948687754776" lon="11.991992073090241"><ele>189.5</ele><time>2026-04-04T09:17:12.003Z</time></trkpt><trkpt lat="44.1096096541042" lon="11.992042455204352"><ele>192.75</ele><time>2026-04-04T09:17:13.003Z</time></trkpt><trkpt lat="44.1097324920603" lon="11.992107463308503"><ele>196.0</ele><time>2026-04-04T09:17:14.003Z</time></trkpt><trkpt lat="44.10985844255627" lon="11.99216612293556"><ele>198.75</ele><time>2026-04-04T09:17:15.003Z</time></trkpt><trkpt lat="44.10998957251448" lon="11.992233917310044"><ele>201.5</ele><time>2026-04-04T09:17:16.003Z</time></trkpt><trkpt lat="44.1101217048734" lon="11.992308854141026"><ele>204.25</ele><time>2026-04-04T09:17:17Z</time></trkpt><trkpt lat="44.110252756308924" lon="11.992390324071199"><ele>207.0</ele><time>2026-04-04T09:17:18Z</time></trkpt><trkpt lat="44.11038308754671" lon="11.992464295256758"><ele>209.0</ele><time>2026-04-04T09:17:19Z</time></trkpt><trkpt lat="44.11050581469162" lon="11.992542972353768"><ele>211.0</ele><time>2026-04-04T09:17:20Z</time></trkpt><trkpt lat="44.11061898276235" lon="11.992584751615585"><ele>213.0</ele><time>2026-04-04T09:17:21Z</time></trkpt><trkpt lat="44.11072133274611" lon="11.992578681077825"><ele>215.0</ele><time>2026-04-04T09:17:22Z</time></trkpt><trkpt lat="44.110804322942585" lon="11.992538561102828"><ele>217.0</ele><time>2026-04-04T09:17:23Z</time></trkpt><trkpt lat="44.110873006351724" lon="11.99254007606495"><ele>216.99999999999997</ele><time>2026-04-04T09:17:24Z</time></trkpt><trkpt lat="44.11093198563805" lon="11.992669142471064"><ele>217.0</ele><time>2026-04-04T09:17:26Z</time></trkpt><trkpt lat="44.11088462891172" lon="11.992741955702396"><ele>217.0</ele><time>2026-04-04T09:17:27Z</time></trkpt><trkpt lat="44.11080944811604" lon="11.992738447993723"><ele>217.0</ele><time>2026-04-04T09:17:28Z</time></trkpt><trkpt lat="44.11072492790422" lon="11.992737361275589"><ele>216.99999999999997</ele><time>2026-04-04T09:17:29Z</time></trkpt><trkpt lat="44.110617296090226" lon="11.992750026770352"><ele>217.0</ele><time>2026-04-04T09:17:30Z</time></trkpt><trkpt lat="44.11049960637201" lon="11.992770348903546"><ele>217.0</ele><time>2026-04-04T09:17:31Z</time></trkpt><trkpt lat="44.11038065944101" lon="11.992809919619686"><ele>217.0</ele><time>2026-04-04T09:17:32Z</time></trkpt><trkpt lat="44.110264531790754" lon="11.992862097774962"><ele>217.0</ele><time>2026-04-04T09:17:33Z</time></trkpt><trkpt lat="44.11014381091098" lon="11.992916042204762"><ele>217.0</ele><time>2026-04-04T09:17:34Z</time></trkpt><trkpt lat="44.1100365256634" lon="11.992961806546084"><ele>216.99999999999997</ele><time>2026-04-04T09:17:35Z</time></trkpt><trkpt lat="44.10994768116949" lon="11.992999704676736"><ele>217.0</ele><time>2026-04-04T09:17:36Z</time></trkpt><trkpt lat="44.10987508580529" lon="11.993049168568797"><ele>217.0</ele><time>2026-04-04T09:17:37Z</time></trkpt><trkpt lat="44.109829354807545" lon="11.993151327927231"><ele>217.0</ele><time>2026-04-04T09:17:38Z</time></trkpt><trkpt lat="44.10989632550096" lon="11.993267148006586"><ele>216.99999999999997</ele><time>2026-04-04T09:17:39Z</time></trkpt><trkpt lat="44.109962773052196" lon="11.993305419408147"><ele>217.0</ele><time>2026-04-04T09:17:40Z</time></trkpt><trkpt lat="44.11006588085694" lon="11.993280878384697"><ele>217.0</ele><time>2026-04-04T09:17:41Z</time></trkpt><trkpt lat="44.11018613840823" lon="11.993241358503395"><ele>217.0</ele><time>2026-04-04T09:17:42Z</time></trkpt><trkpt lat="44.110310723476466" lon="11.993238209904353"><ele>217.0</ele><time>2026-04-04T09:17:43Z</time></trkpt><trkpt lat="44.11044199112314" lon="11.993295550617198"><ele>217.0</ele><time>2026-04-04T09:17:44Z</time></trkpt><trkpt lat="44.110564096098685" lon="11.993394370465202"><ele>218.0</ele><time>2026-04-04T09:17:45Z</time></trkpt><trkpt lat="44.11068389996399" lon="11.99347979880554"><ele>219.0</ele><time>2026-04-04T09:17:46Z</time></trkpt><trkpt lat="44.11081006478704" lon="11.993511091461432"><ele>220.0</ele><time>2026-04-04T09:17:47Z</time></trkpt><trkpt lat="44.11092651297366" lon="11.99348188556982"><ele>221.0</ele><time>2026-04-04T09:17:48Z</time></trkpt><trkpt lat="44.11100445374978" lon="11.993432060965432"><ele>223.33333333333334</ele><time>2026-04-04T09:17:49Z</time></trkpt><trkpt lat="44.111111914331474" lon="11.993487966520181"><ele>225.66666666666669</ele><time>2026-04-04T09:17:51Z</time></trkpt><trkpt lat="44.1111036242164" lon="11.99358607309171"><ele>228.0</ele><time>2026-04-04T09:17:52Z</time></trkpt><trkpt lat="44.11103082100141" lon="11.993629126060485"><ele>230.33333333333331</ele><time>2026-04-04T09:17:53Z</time></trkpt><trkpt lat="44.11095354087992" lon="11.99363651059335"><ele>232.66666666666666</ele><time>2026-04-04T09:17:54.001Z</time></trkpt><trkpt lat="44.11085994064852" lon="11.993686129655535"><ele>235.0</ele><time>2026-04-04T09:17:55.001Z</time></trkpt><trkpt lat="44.11075293970864" lon="11.993743164855626"><ele>232.2</ele><time>2026-04-04T09:17:56.001Z</time></trkpt><trkpt lat="44.11063913533226" lon="11.993803464332938"><ele>229.4</ele><time>2026-04-04T09:17:57.001Z</time></trkpt><trkpt lat="44.110538535754465" lon="11.993874180846083"><ele>226.60000000000002</ele><time>2026-04-04T09:17:58.001Z</time></trkpt><trkpt lat="44.11045360688268" lon="11.993919550118692"><ele>223.8</ele><time>2026-04-04T09:17:59.001Z</time></trkpt><trkpt lat="44.11038412115435" lon="11.993972620429185"><ele>221.0</ele><time>2026-04-04T09:18:00.001Z</time></trkpt><trkpt lat="44.110361704338374" lon="11.99406937352267"><ele>221.0</ele><time>2026-04-04T09:18:01.001Z</time></trkpt><trkpt lat="44.11043318622214" lon="11.994170305770224"><ele>221.00000000000003</ele><time>2026-04-04T09:18:02.001Z</time></trkpt><trkpt lat="44.11052463286302" lon="11.99421092568238"><ele>221.00000000000003</ele><time>2026-04-04T09:18:03.001Z</time></trkpt><trkpt lat="44.11063720878937" lon="11.994185749420165"><ele>221.0</ele><time>2026-04-04T09:18:04.001Z</time></trkpt><trkpt lat="44.11075281429363" lon="11.994163665635414"><ele>221.0</ele><time>2026-04-04T09:18:05.001Z</time></trkpt><trkpt lat="44.11088085112413" lon="11.994156103984317"><ele>224.5</ele><time>2026-04-04T09:18:06.001Z</time></trkpt><trkpt lat="44.11101841285231" lon="11.994141741704036"><ele>228.0</ele><time>2026-04-04T09:18:07.001Z</time></trkpt><trkpt lat="44.11114509141598" lon="11.994088885179087"><ele>231.5</ele><time>2026-04-04T09:18:08.001Z</time></trkpt><trkpt lat="44.11124036284957" lon="11.99400332841291"><ele>235.0</ele><time>2026-04-04T09:18:09.001Z</time></trkpt><trkpt lat="44.1113097155257" lon="11.993928832552585"><ele>234.99999999999997</ele><time>2026-04-04T09:18:10.001Z</time></trkpt><trkpt lat="44.11138529396357" lon="11.993915901864455"><ele>235.0</ele><time>2026-04-04T09:18:11.001Z</time></trkpt><trkpt lat="44.11144444482563" lon="11.993974761600613"><ele>235.0</ele><time>2026-04-04T09:18:12.001Z</time></trkpt><trkpt lat="44.11144389750247" lon="11.994100340343374"><ele>235.0</ele><time>2026-04-04T09:18:13.001Z</time></trkpt><trkpt lat="44.111395748858804" lon="11.994196446018007"><ele>234.99999999999997</ele><time>2026-04-04T09:18:14.001Z</time></trkpt><trkpt lat="44.11134415113851" lon="11.994307284646863"><ele>235.0</ele><time>2026-04-04T09:18:15.001Z</time></trkpt><trkpt lat="44.11128094310651" lon="11.994430516134289"><ele>236.4</ele><time>2026-04-04T09:18:16.001Z</time></trkpt><trkpt lat="44.111213806346335" lon="11.994563031787354"><ele>237.8</ele><time>2026-04-04T09:18:17.001Z</time></trkpt><trkpt lat="44.111158354587246" lon="11.994683399457175"><ele>239.2</ele><time>2026-04-04T09:18:18.001Z</time></trkpt><trkpt lat="44.11112233200892" lon="11.994808459954635"><ele>240.6</ele><time>2026-04-04T09:18:19.001Z</time></trkpt><trkpt lat="44.111167166549464" lon="11.994939341969657"><ele>242.0</ele><time>2026-04-04T09:18:20.001Z</time></trkpt><trkpt lat="44.1112377257606" lon="11.994999838311285"><ele>242.0</ele><time>2026-04-04T09:18:21.001Z</time></trkpt><trkpt lat="44.11133817245457" lon="11.994956454177673"><ele>242.0</ele><time>2026-04-04T09:18:22.001Z</time></trkpt><trkpt lat="44.11142326121578" lon="11.99486246482352"><ele>242.0</ele><time>2026-04-04T09:18:23.001Z</time></trkpt><trkpt lat="44.11152708162615" lon="11.994742611404925"><ele>242.0</ele><time>2026-04-04T09:18:24.001Z</time></trkpt><trkpt lat="44.111626497727585" lon="11.994603086875276"><ele>244.6</ele><time>2026-04-04T09:18:25.001Z</time></trkpt><trkpt lat="44.11171800584132" lon="11.994472595081188"><ele>247.2</ele><time>2026-04-04T09:18:26.001Z</time></trkpt><trkpt lat="44.11177692539387" lon="11.994348506127148"><ele>249.8</ele><time>2026-04-04T09:18:27.001Z</time></trkpt><trkpt lat="44.111813606701006" lon="11.994239828056397"><ele>252.4</ele><time>2026-04-04T09:18:28.002Z</time></trkpt><trkpt lat="44.11193251097544" lon="11.994219949105696"><ele>255.0</ele><time>2026-04-04T09:18:30.002Z</time></trkpt><trkpt lat="44.111966351424996" lon="11.994318354721184"><ele>255.0</ele><time>2026-04-04T09:18:31.002Z</time></trkpt><trkpt lat="44.11192062172358" lon="11.994455011401952"><ele>255.0</ele><time>2026-04-04T09:18:32.002Z</time></trkpt><trkpt lat="44.11191167187521" lon="11.994611298558718"><ele>255.0</ele><time>2026-04-04T09:18:33.002Z</time></trkpt><trkpt lat="44.11190413223995" lon="11.994786790183241"><ele>255.0</ele><time>2026-04-04T09:18:34.002Z</time></trkpt><trkpt lat="44.11190070004075" lon="11.994977322157254"><ele>257.0</ele><time>2026-04-04T09:18:35.002Z</time></trkpt><trkpt lat="44.111925257119246" lon="11.995166429012597"><ele>259.0</ele><time>2026-04-04T09:18:36.002Z</time></trkpt><trkpt lat="44.11197117549997" lon="11.995331177775565"><ele>261.0</ele><time>2026-04-04T09:18:37.002Z</time></trkpt><trkpt lat="44.11205435788898" lon="11.995478105318455"><ele>263.0</ele><time>2026-04-04T09:18:38.002Z</time></trkpt><trkpt lat="44.112151676626844" lon="11.995615828059625"><ele>263.0</ele><time>2026-04-04T09:18:39.002Z</time></trkpt><trkpt lat="44.11223751908532" lon="11.995757125571307"><ele>263.0</ele><time>2026-04-04T09:18:40.002Z</time></trkpt><trkpt lat="44.11231394336154" lon="11.99585362120025"><ele>263.0</ele><time>2026-04-04T09:18:41.002Z</time></trkpt><trkpt lat="44.112369687726236" lon="11.995940072622735"><ele>263.0</ele><time>2026-04-04T09:18:42.002Z</time></trkpt><trkpt lat="44.11237596924603" lon="11.996053227666023"><ele>263.0</ele><time>2026-04-04T09:18:43.002Z</time></trkpt><trkpt lat="44.11233424358895" lon="11.996168741754738"><ele>267.5</ele><time>2026-04-04T09:18:44.002Z</time></trkpt><trkpt lat="44.1122362203251" lon="11.996205650662633"><ele>272.0</ele><time>2026-04-04T09:18:45.002Z</time></trkpt><trkpt lat="44.112142074956424" lon="11.996221756675022"><ele>276.5</ele><time>2026-04-04T09:18:46.002Z</time></trkpt><trkpt lat="44.11202832657891" lon="11.996254957510493"><ele>281.0</ele><time>2026-04-04T09:18:47.002Z</time></trkpt><trkpt lat="44.111889815736845" lon="11.996294002236676"><ele>281.0</ele><time>2026-04-04T09:18:48.002Z</time></trkpt><trkpt lat="44.11174983575187" lon="11.996331259090558"><ele>281.0</ele><time>2026-04-04T09:18:49.002Z</time></trkpt><trkpt lat="44.11163512364193" lon="11.996359262167026"><ele>281.0</ele><time>2026-04-04T09:18:50.002Z</time></trkpt><trkpt lat="44.11154896237685" lon="11.99638169709874"><ele>281.0</ele><time>2026-04-04T09:18:51.002Z</time></trkpt><trkpt lat="44.11148527353839" lon="11.996427782368364"><ele>281.0</ele><time>2026-04-04T09:18:52.002Z</time></trkpt><trkpt lat="44.11144771440087" lon="11.996508341662615"><ele>281.0</ele><time>2026-04-04T09:18:53.002Z</time></trkpt><trkpt lat="44.111466498087516" lon="11.996637724183062"><ele>281.0</ele><time>2026-04-04T09:18:54.002Z</time></trkpt><trkpt lat="44.11154127644385" lon="11.996711692302316"><ele>281.0</ele><time>2026-04-04T09:18:55.002Z</time></trkpt><trkpt lat="44.11164104926631" lon="11.996704779295685"><ele>281.0</ele><time>2026-04-04T09:18:56.002Z</time></trkpt><trkpt lat="44.111733477171065" lon="11.996673549161285"><ele>281.0</ele><time>2026-04-04T09:18:57.002Z</time></trkpt><trkpt lat="44.11182973552583" lon="11.996630956236334"><ele>281.0</ele><time>2026-04-04T09:18:58.002Z</time></trkpt><trkpt lat="44.11193334544519" lon="11.996602556731903"><ele>281.0</ele><time>2026-04-04T09:18:59.002Z</time></trkpt><trkpt lat="44.11204988223653" lon="11.996594046104171"><ele>281.0</ele><time>2026-04-04T09:19:00.002Z</time></trkpt><trkpt lat="44.11216967361096" lon="11.99660385584123"><ele>281.0</ele><time>2026-04-04T09:19:01.002Z</time></trkpt><trkpt lat="44.112291667974" lon="11.996629158093599"><ele>281.0</ele><time>2026-04-04T09:19:02.002Z</time></trkpt><trkpt lat="44.11240601502085" lon="11.99665140015646"><ele>281.0</ele><time>2026-04-04T09:19:03.003Z</time></trkpt><trkpt lat="44.11250905443668" lon="11.996662231755405"><ele>281.0</ele><time>2026-04-04T09:19:04.003Z</time></trkpt><trkpt lat="44.11259259065688" lon="11.996673317079555"><ele>281.0</ele><time>2026-04-04T09:19:05.003Z</time></trkpt><trkpt lat="44.11267250520003" lon="11.996683527540014"><ele>281.0</ele><time>2026-04-04T09:19:06.003Z</time></trkpt><trkpt lat="44.112756602466625" lon="11.996683541448345"><ele>285.8</ele><time>2026-04-04T09:19:07.003Z</time></trkpt><trkpt lat="44.112847112118075" lon="11.996704031527578"><ele>290.6</ele><time>2026-04-04T09:19:08.003Z</time></trkpt><trkpt lat="44.11294058272801" lon="11.99674015662634"><ele>295.4</ele><time>2026-04-04T09:19:09.003Z</time></trkpt><trkpt lat="44.11304255746351" lon="11.996762582016734"><ele>300.2</ele><time>2026-04-04T09:19:10.003Z</time></trkpt><trkpt lat="44.11314615670358" lon="11.996775388432727"><ele>305.0</ele><time>2026-04-04T09:19:11.003Z</time></trkpt><trkpt lat="44.1132566560496" lon="11.996788090587525"><ele>305.0</ele><time>2026-04-04T09:19:12.003Z</time></trkpt><trkpt lat="44.113367231754324" lon="11.996799929674234"><ele>305.0</ele><time>2026-04-04T09:19:13.003Z</time></trkpt><trkpt lat="44.11345498311801" lon="11.996800532886827"><ele>305.0</ele><time>2026-04-04T09:19:14.003Z</time></trkpt><trkpt lat="44.113528925601884" lon="11.996796206399093"><ele>305.0</ele><time>2026-04-04T09:19:15.003Z</time></trkpt><trkpt lat="44.11359960188306" lon="11.996786292602309"><ele>305.0</ele><time>2026-04-04T09:19:16.003Z</time></trkpt><trkpt lat="44.11369686474098" lon="11.996849206872263"><ele>305.0</ele><time>2026-04-04T09:19:18.003Z</time></trkpt><trkpt lat="44.11362951617354" lon="11.996978601596991"><ele>305.0</ele><time>2026-04-04T09:19:20.003Z</time></trkpt><trkpt lat="44.113512755458004" lon="11.997005304528964"><ele>305.0</ele><time>2026-04-04T09:19:22.003Z</time></trkpt><trkpt lat="44.11342260785159" lon="11.99701893858731"><ele>305.0</ele><time>2026-04-04T09:19:23Z</time></trkpt><trkpt lat="44.113321810896586" lon="11.997032536054347"><ele>305.0</ele><time>2026-04-04T09:19:24Z</time></trkpt><trkpt lat="44.113207693871054" lon="11.997047541950977"><ele>305.5</ele><time>2026-04-04T09:19:25Z</time></trkpt><trkpt lat="44.11309293832792" lon="11.997066381956953"><ele>306.0</ele><time>2026-04-04T09:19:26Z</time></trkpt><trkpt lat="44.11297726402459" lon="11.997085372726504"><ele>306.5</ele><time>2026-04-04T09:19:27Z</time></trkpt><trkpt lat="44.112857325958856" lon="11.997105061915981"><ele>307.0</ele><time>2026-04-04T09:19:28Z</time></trkpt><trkpt lat="44.11273008043244" lon="11.997125608592594"><ele>307.0</ele><time>2026-04-04T09:19:29Z</time></trkpt><trkpt lat="44.11260103337145" lon="11.997165760438614"><ele>307.0</ele><time>2026-04-04T09:19:30Z</time></trkpt><trkpt lat="44.11246797156435" lon="11.9971870339296"><ele>307.0</ele><time>2026-04-04T09:19:31Z</time></trkpt><trkpt lat="44.112339711299875" lon="11.997186911603546"><ele>307.0</ele><time>2026-04-04T09:19:32Z</time></trkpt><trkpt lat="44.11222251115166" lon="11.997227279132872"><ele>304.6</ele><time>2026-04-04T09:19:33Z</time></trkpt><trkpt lat="44.11211617152046" lon="11.997299170717257"><ele>302.2</ele><time>2026-04-04T09:19:34Z</time></trkpt><trkpt lat="44.112031063875925" lon="11.997368525561562"><ele>299.8</ele><time>2026-04-04T09:19:35Z</time></trkpt><trkpt lat="44.11196301231219" lon="11.997424616002782"><ele>297.4</ele><time>2026-04-04T09:19:36Z</time></trkpt><trkpt lat="44.11187142270466" lon="11.997499398949548"><ele>295.0</ele><time>2026-04-04T09:19:38Z</time></trkpt><trkpt lat="44.11180877622549" lon="11.997573311120867"><ele>294.66666666666663</ele><time>2026-04-04T09:19:40Z</time></trkpt><trkpt lat="44.11179049505266" lon="11.997708750239921"><ele>294.3333333333333</ele><time>2026-04-04T09:19:42Z</time></trkpt><trkpt lat="44.11181898086991" lon="11.997787548050031"><ele>294.0</ele><time>2026-04-04T09:19:43Z</time></trkpt><trkpt lat="44.11189038041497" lon="11.997825803232232"><ele>293.6666666666667</ele><time>2026-04-04T09:19:44Z</time></trkpt><trkpt lat="44.112012438506746" lon="11.997862806920903"><ele>293.33333333333337</ele><time>2026-04-04T09:19:46Z</time></trkpt><trkpt lat="44.11207820667055" lon="11.997905778177786"><ele>293.0</ele><time>2026-04-04T09:19:47Z</time></trkpt><trkpt lat="44.112148516257975" lon="11.99794198362364"><ele>293.0</ele><time>2026-04-04T09:19:48Z</time></trkpt><trkpt lat="44.1122208603263" lon="11.99795547740672"><ele>293.0</ele><time>2026-04-04T09:19:49Z</time></trkpt><trkpt lat="44.1122960687802" lon="11.99794663355303"><ele>293.0</ele><time>2026-04-04T09:19:50Z</time></trkpt><trkpt lat="44.11237532761193" lon="11.997929231523184"><ele>293.0</ele><time>2026-04-04T09:19:51Z</time></trkpt><trkpt lat="44.11245797227678" lon="11.997902138256055"><ele>293.0</ele><time>2026-04-04T09:19:52Z</time></trkpt><trkpt lat="44.11254102454982" lon="11.99785356860553"><ele>293.0</ele><time>2026-04-04T09:19:53Z</time></trkpt><trkpt lat="44.112627275485956" lon="11.99780294043128"><ele>295.6</ele><time>2026-04-04T09:19:54Z</time></trkpt><trkpt lat="44.11271929666434" lon="11.997759552427489"><ele>298.20000000000005</ele><time>2026-04-04T09:19:55Z</time></trkpt><trkpt lat="44.112816020475194" lon="11.997723060331012"><ele>300.8</ele><time>2026-04-04T09:19:56Z</time></trkpt><trkpt lat="44.112919753614754" lon="11.997705212523062"><ele>303.40000000000003</ele><time>2026-04-04T09:19:57Z</time></trkpt><trkpt lat="44.1130176590427" lon="11.997702295013168"><ele>306.0</ele><time>2026-04-04T09:19:58Z</time></trkpt><trkpt lat="44.11312014829071" lon="11.997724354504191"><ele>306.0</ele><time>2026-04-04T09:19:59.001Z</time></trkpt><trkpt lat="44.11321339678126" lon="11.997773539439503"><ele>306.0</ele><time>2026-04-04T09:20:00.001Z</time></trkpt><trkpt lat="44.11330146889749" lon="11.997858340745402"><ele>306.0</ele><time>2026-04-04T09:20:01.001Z</time></trkpt><trkpt lat="44.11338640411992" lon="11.997962751035594"><ele>306.0</ele><time>2026-04-04T09:20:02.001Z</time></trkpt><trkpt lat="44.11346684716725" lon="11.998070050050329"><ele>306.0</ele><time>2026-04-04T09:20:03.001Z</time></trkpt><trkpt lat="44.113554475872405" lon="11.998172117621587"><ele>308.40000000000003</ele><time>2026-04-04T09:20:04.001Z</time></trkpt><trkpt lat="44.113633564859036" lon="11.998279035446814"><ele>310.8</ele><time>2026-04-04T09:20:05.001Z</time></trkpt><trkpt lat="44.11369564200509" lon="11.998398586307228"><ele>313.20000000000005</ele><time>2026-04-04T09:20:06.001Z</time></trkpt><trkpt lat="44.11373929799385" lon="11.998538462383117"><ele>315.6</ele><time>2026-04-04T09:20:07.001Z</time></trkpt><trkpt lat="44.11374624075203" lon="11.998690154318426"><ele>318.0</ele><time>2026-04-04T09:20:08.001Z</time></trkpt><trkpt lat="44.11372461097809" lon="11.99883624259775"><ele>319.5</ele><time>2026-04-04T09:20:09.001Z</time></trkpt><trkpt lat="44.11369412154343" lon="11.998987668271056"><ele>321.0</ele><time>2026-04-04T09:20:10.001Z</time></trkpt><trkpt lat="44.11364757358346" lon="11.999133057525867"><ele>322.5</ele><time>2026-04-04T09:20:11.001Z</time></trkpt><trkpt lat="44.113587233497555" lon="11.999278479211595"><ele>324.0</ele><time>2026-04-04T09:20:12.001Z</time></trkpt><trkpt lat="44.11351577349814" lon="11.999410824950083"><ele>325.0</ele><time>2026-04-04T09:20:13.001Z</time></trkpt><trkpt lat="44.11343523263029" lon="11.999526303371425"><ele>326.0</ele><time>2026-04-04T09:20:14.001Z</time></trkpt><trkpt lat="44.11336046952457" lon="11.999635598533546"><ele>327.0</ele><time>2026-04-04T09:20:15.001Z</time></trkpt><trkpt lat="44.11329819938995" lon="11.999740709077113"><ele>328.0</ele><time>2026-04-04T09:20:16.001Z</time></trkpt><trkpt lat="44.113259474946084" lon="11.999842244440911"><ele>329.0</ele><time>2026-04-04T09:20:17.001Z</time></trkpt><trkpt lat="44.11326635136571" lon="11.999955742095125"><ele>329.0</ele><time>2026-04-04T09:20:18.001Z</time></trkpt><trkpt lat="44.11333343267578" lon="12.000031474071069"><ele>329.0</ele><time>2026-04-04T09:20:19.001Z</time></trkpt><trkpt lat="44.11342194085069" lon="12.000005311519107"><ele>329.0</ele><time>2026-04-04T09:20:20.001Z</time></trkpt><trkpt lat="44.113486201356395" lon="11.99990813406253"><ele>329.0</ele><time>2026-04-04T09:20:21.001Z</time></trkpt><trkpt lat="44.113579468087664" lon="11.99983598233512"><ele>329.0</ele><time>2026-04-04T09:20:22.001Z</time></trkpt><trkpt lat="44.11367078708709" lon="11.999737423337205"><ele>329.0</ele><time>2026-04-04T09:20:23.001Z</time></trkpt><trkpt lat="44.113770792462354" lon="11.999634724167395"><ele>329.0</ele><time>2026-04-04T09:20:24.001Z</time></trkpt><trkpt lat="44.113869217951965" lon="11.999532032165897"><ele>329.0</ele><time>2026-04-04T09:20:25.001Z</time></trkpt><trkpt lat="44.113963492237" lon="11.999440694737963"><ele>329.0</ele><time>2026-04-04T09:20:26.001Z</time></trkpt><trkpt lat="44.11407074484367" lon="11.999395363015983"><ele>332.4</ele><time>2026-04-04T09:20:27.001Z</time></trkpt><trkpt lat="44.11417826491118" lon="11.999404655373553"><ele>335.79999999999995</ele><time>2026-04-04T09:20:28.001Z</time></trkpt><trkpt lat="44.11428950343616" lon="11.99942988231142"><ele>339.20000000000005</ele><time>2026-04-04T09:20:29.001Z</time></trkpt><trkpt lat="44.11439869659151" lon="11.999446180318838"><ele>342.6</ele><time>2026-04-04T09:20:30.001Z</time></trkpt><trkpt lat="44.114509238737305" lon="11.999462548608507"><ele>346.0</ele><time>2026-04-04T09:20:31.002Z</time></trkpt><trkpt lat="44.114618972002226" lon="11.99948055747317"><ele>346.0</ele><time>2026-04-04T09:20:32.002Z</time></trkpt><trkpt lat="44.11471956294483" lon="11.999496815746914"><ele>346.0</ele><time>2026-04-04T09:20:33.002Z</time></trkpt><trkpt lat="44.114801493423485" lon="11.999513362005354"><ele>346.0</ele><time>2026-04-04T09:20:34.002Z</time></trkpt><trkpt lat="44.114868923331436" lon="11.999534625593542"><ele>346.0</ele><time>2026-04-04T09:20:35.002Z</time></trkpt><trkpt lat="44.11494331511811" lon="11.99961990193657"><ele>346.0</ele><time>2026-04-04T09:20:37.002Z</time></trkpt><trkpt lat="44.114936597095664" lon="11.999708630742786"><ele>346.0</ele><time>2026-04-04T09:20:39.002Z</time></trkpt><trkpt lat="44.11487077683142" lon="11.999734299896057"><ele>346.0</ele><time>2026-04-04T09:20:40.002Z</time></trkpt><trkpt lat="44.11477755380385" lon="11.999848578649017"><ele>346.0</ele><time>2026-04-04T09:20:42.002Z</time></trkpt><trkpt lat="44.11472174007365" lon="11.999918893046775"><ele>346.0</ele><time>2026-04-04T09:20:43.002Z</time></trkpt><trkpt lat="44.11466796960765" lon="12.000012744133315"><ele>346.0</ele><time>2026-04-04T09:20:44.002Z</time></trkpt><trkpt lat="44.11464034099681" lon="12.000140673416569"><ele>346.0</ele><time>2026-04-04T09:20:45.002Z</time></trkpt><trkpt lat="44.1146457944627" lon="12.000284579877064"><ele>346.0</ele><time>2026-04-04T09:20:46.002Z</time></trkpt><trkpt lat="44.11466572707275" lon="12.00042067579612"><ele>346.0</ele><time>2026-04-04T09:20:47.002Z</time></trkpt><trkpt lat="44.11467477633732" lon="12.000551126406327"><ele>346.0</ele><time>2026-04-04T09:20:48.002Z</time></trkpt><trkpt lat="44.11467192307079" lon="12.000695971592638"><ele>346.0</ele><time>2026-04-04T09:20:49.002Z</time></trkpt><trkpt lat="44.114705634989846" lon="12.000835320095954"><ele>346.0</ele><time>2026-04-04T09:20:50.002Z</time></trkpt><trkpt lat="44.114732573112505" lon="12.000970355450798"><ele>344.8</ele><time>2026-04-04T09:20:51.002Z</time></trkpt><trkpt lat="44.114772299579414" lon="12.001098426149074"><ele>343.6</ele><time>2026-04-04T09:20:52.002Z</time></trkpt><trkpt lat="44.114810762461396" lon="12.001235827413977"><ele>342.4</ele><time>2026-04-04T09:20:53.002Z</time></trkpt><trkpt lat="44.11483704923724" lon="12.001383999275099"><ele>341.2</ele><time>2026-04-04T09:20:54.002Z</time></trkpt><trkpt lat="44.11481210045621" lon="12.001532208256467"><ele>340.0</ele><time>2026-04-04T09:20:55.002Z</time></trkpt><trkpt lat="44.11478400151256" lon="12.001661761263628"><ele>340.0</ele><time>2026-04-04T09:20:56.002Z</time></trkpt><trkpt lat="44.11475006115851" lon="12.001797885923832"><ele>340.0</ele><time>2026-04-04T09:20:57.002Z</time></trkpt><trkpt lat="44.1147154663918" lon="12.001938282935061"><ele>340.0</ele><time>2026-04-04T09:20:58.002Z</time></trkpt><trkpt lat="44.1146892675518" lon="12.00209065883654"><ele>340.0</ele><time>2026-04-04T09:20:59.002Z</time></trkpt><trkpt lat="44.114678398666626" lon="12.002244807362976"><ele>340.0</ele><time>2026-04-04T09:21:00.002Z</time></trkpt><trkpt lat="44.1146779366688" lon="12.002389907669032"><ele>340.4</ele><time>2026-04-04T09:21:01.002Z</time></trkpt><trkpt lat="44.114679900323296" lon="12.002519374583514"><ele>340.8</ele><time>2026-04-04T09:21:02.002Z</time></trkpt><trkpt lat="44.114681539444355" lon="12.002648341288017"><ele>341.20000000000005</ele><time>2026-04-04T09:21:03.002Z</time></trkpt><trkpt lat="44.114683197936216" lon="12.002778832082978"><ele>341.6</ele><time>2026-04-04T09:21:04.002Z</time></trkpt><trkpt lat="44.114684876925025" lon="12.0029109355355"><ele>342.0</ele><time>2026-04-04T09:21:05.003Z</time></trkpt><trkpt lat="44.1146863909484" lon="12.003030059459059"><ele>342.0</ele><time>2026-04-04T09:21:06.003Z</time></trkpt><trkpt lat="44.11468765748738" lon="12.003129711246357"><ele>342.0</ele><time>2026-04-04T09:21:07.003Z</time></trkpt><trkpt lat="44.11468602539696" lon="12.003266058736662"><ele>342.0</ele><time>2026-04-04T09:21:09.003Z</time></trkpt><trkpt lat="44.11466427100457" lon="12.003373366658245"><ele>342.0</ele><time>2026-04-04T09:21:12.003Z</time></trkpt><trkpt lat="44.11467337279549" lon="12.003476763411383"><ele>342.0</ele><time>2026-04-04T09:21:15.003Z</time></trkpt><trkpt lat="44.114672777034954" lon="12.003387618601"><ele>342.0</ele><time>2026-04-04T09:23:34.003Z</time></trkpt><trkpt lat="44.11467357179178" lon="12.00347796177296"><ele>343.8</ele><time>2026-04-04T09:24:24.001Z</time></trkpt><trkpt lat="44.114683528745175" lon="12.00361809804075"><ele>345.6</ele><time>2026-04-04T09:31:41.003Z</time></trkpt><trkpt lat="44.11469884134486" lon="12.00374735645744"><ele>347.40000000000003</ele><time>2026-04-04T09:31:43.003Z</time></trkpt><trkpt lat="44.11471028733079" lon="12.003886863120771"><ele>349.20000000000005</ele><time>2026-04-04T09:31:45.003Z</time></trkpt><trkpt lat="44.11470773686751" lon="12.004038898564955"><ele>351.0</ele><time>2026-04-04T09:31:47.003Z</time></trkpt><trkpt lat="44.11470805065365" lon="12.004188251976394"><ele>352.1666666666667</ele><time>2026-04-04T09:31:49.003Z</time></trkpt><trkpt lat="44.114708336830304" lon="12.004303145798323"><ele>353.3333333333333</ele><time>2026-04-04T09:31:51.003Z</time></trkpt><trkpt lat="44.114705655692056" lon="12.004394807179407"><ele>354.5</ele><time>2026-04-04T09:31:54.003Z</time></trkpt><trkpt lat="44.1147094740376" lon="12.004507786361089"><ele>355.66666666666663</ele><time>2026-04-04T09:32:25Z</time></trkpt><trkpt lat="44.11470766350754" lon="12.00465359420947"><ele>356.8333333333333</ele><time>2026-04-04T09:32:27Z</time></trkpt><trkpt lat="44.11471226193737" lon="12.004804715603363"><ele>358.0</ele><time>2026-04-04T09:32:29Z</time></trkpt><trkpt lat="44.11471830498411" lon="12.00497726664524"><ele>358.5</ele><time>2026-04-04T09:32:31Z</time></trkpt><trkpt lat="44.11472259928201" lon="12.0050681955509"><ele>359.0</ele><time>2026-04-04T09:32:32Z</time></trkpt><trkpt lat="44.114725610441546" lon="12.005167295161346"><ele>359.5</ele><time>2026-04-04T09:32:33Z</time></trkpt><trkpt lat="44.11472244924841" lon="12.00527123671079"><ele>360.0</ele><time>2026-04-04T09:32:34Z</time></trkpt><trkpt lat="44.11472051201357" lon="12.005385490720817"><ele>360.5</ele><time>2026-04-04T09:32:35.001Z</time></trkpt><trkpt lat="44.11472101712928" lon="12.00550389436364"><ele>361.0</ele><time>2026-04-04T09:32:36.001Z</time></trkpt><trkpt lat="44.11472123870859" lon="12.005629103331545"><ele>361.0</ele><time>2026-04-04T09:32:37.001Z</time></trkpt><trkpt lat="44.114717308645076" lon="12.00576095525007"><ele>361.0</ele><time>2026-04-04T09:32:38.001Z</time></trkpt><trkpt lat="44.11471356190422" lon="12.005899211315"><ele>361.0</ele><time>2026-04-04T09:32:39.001Z</time></trkpt><trkpt lat="44.11471799180185" lon="12.006041108878065"><ele>361.0</ele><time>2026-04-04T09:32:40.001Z</time></trkpt><trkpt lat="44.11472261941237" lon="12.006182723075995"><ele>361.0</ele><time>2026-04-04T09:32:41.001Z</time></trkpt><trkpt lat="44.11472219985371" lon="12.006321211844975"><ele>362.6</ele><time>2026-04-04T09:32:42.001Z</time></trkpt><trkpt lat="44.11472148586273" lon="12.006460212624102"><ele>364.20000000000005</ele><time>2026-04-04T09:32:43.001Z</time></trkpt><trkpt lat="44.11472761561722" lon="12.006600960866022"><ele>365.79999999999995</ele><time>2026-04-04T09:32:44.001Z</time></trkpt><trkpt lat="44.11473219432174" lon="12.006742902756109"><ele>367.4</ele><time>2026-04-04T09:32:45.001Z</time></trkpt><trkpt lat="44.114732034676464" lon="12.00687823961841"><ele>369.0</ele><time>2026-04-04T09:32:46.001Z</time></trkpt><trkpt lat="44.11473296957663" lon="12.007015109101047"><ele>369.4</ele><time>2026-04-04T09:32:47.001Z</time></trkpt><trkpt lat="44.11473497027117" lon="12.007154093769184"><ele>369.79999999999995</ele><time>2026-04-04T09:32:48.001Z</time></trkpt><trkpt lat="44.1147369716636" lon="12.007292096344099"><ele>370.20000000000005</ele><time>2026-04-04T09:32:49.001Z</time></trkpt><trkpt lat="44.11473365332804" lon="12.007429523987797"><ele>370.6</ele><time>2026-04-04T09:32:50.001Z</time></trkpt><trkpt lat="44.114718559327656" lon="12.007556061694885"><ele>371.0</ele><time>2026-04-04T09:32:51.001Z</time></trkpt><trkpt lat="44.1146823048456" lon="12.007673797042798"><ele>368.6</ele><time>2026-04-04T09:32:52.001Z</time></trkpt><trkpt lat="44.11462145517805" lon="12.007771359995186"><ele>366.20000000000005</ele><time>2026-04-04T09:32:53.001Z</time></trkpt><trkpt lat="44.11454236016093" lon="12.007833567474222"><ele>363.79999999999995</ele><time>2026-04-04T09:32:54.001Z</time></trkpt><trkpt lat="44.11445031434342" lon="12.007866367485663"><ele>361.4</ele><time>2026-04-04T09:32:55.001Z</time></trkpt><trkpt lat="44.11435937189494" lon="12.007908210601084"><ele>359.0</ele><time>2026-04-04T09:32:56.001Z</time></trkpt><trkpt lat="44.11426896894901" lon="12.007977080377225"><ele>359.0</ele><time>2026-04-04T09:32:57.001Z</time></trkpt><trkpt lat="44.11418109876332" lon="12.008062842501246"><ele>359.0</ele><time>2026-04-04T09:32:58.001Z</time></trkpt><trkpt lat="44.11410058489725" lon="12.008166442740938"><ele>359.0</ele><time>2026-04-04T09:32:59.001Z</time></trkpt><trkpt lat="44.114023329436044" lon="12.008279598685384"><ele>359.0</ele><time>2026-04-04T09:33:00.001Z</time></trkpt><trkpt lat="44.113951171623654" lon="12.00839960858045"><ele>359.0</ele><time>2026-04-04T09:33:01.001Z</time></trkpt><trkpt lat="44.11388408548357" lon="12.008526487540273"><ele>360.0</ele><time>2026-04-04T09:33:02.001Z</time></trkpt><trkpt lat="44.113820626844934" lon="12.008664064700394"><ele>361.0</ele><time>2026-04-04T09:33:03.001Z</time></trkpt><trkpt lat="44.11375551540127" lon="12.008801643658758"><ele>362.0</ele><time>2026-04-04T09:33:04.001Z</time></trkpt><trkpt lat="44.11369175598858" lon="12.008937966105364"><ele>363.0</ele><time>2026-04-04T09:33:05.001Z</time></trkpt><trkpt lat="44.11363488355632" lon="12.009081460041367"><ele>361.0</ele><time>2026-04-04T09:33:06.001Z</time></trkpt><trkpt lat="44.11358935422329" lon="12.009232773663225"><ele>359.0</ele><time>2026-04-04T09:33:07.001Z</time></trkpt><trkpt lat="44.113547305132755" lon="12.009383740528088"><ele>357.0</ele><time>2026-04-04T09:33:08.001Z</time></trkpt><trkpt lat="44.11350689858213" lon="12.009530326343183"><ele>355.0</ele><time>2026-04-04T09:33:09.001Z</time></trkpt><trkpt lat="44.113469614948855" lon="12.009670007571161"><ele>355.0</ele><time>2026-04-04T09:33:10.001Z</time></trkpt><trkpt lat="44.113436009749" lon="12.00979828712825"><ele>355.0</ele><time>2026-04-04T09:33:11.001Z</time></trkpt><trkpt lat="44.11341730336381" lon="12.00992831158479"><ele>355.0</ele><time>2026-04-04T09:33:12.001Z</time></trkpt><trkpt lat="44.11342773007192" lon="12.01006761956146"><ele>355.0</ele><time>2026-04-04T09:33:13.001Z</time></trkpt><trkpt lat="44.11347633884231" lon="12.01019036926139"><ele>355.0</ele><time>2026-04-04T09:33:14.001Z</time></trkpt><trkpt lat="44.113549568478845" lon="12.010295797290736"><ele>354.2</ele><time>2026-04-04T09:33:15.001Z</time></trkpt><trkpt lat="44.11364414552751" lon="12.010381124383436"><ele>353.4</ele><time>2026-04-04T09:33:16.001Z</time></trkpt><trkpt lat="44.1137188079126" lon="12.010465964202584"><ele>352.6</ele><time>2026-04-04T09:33:17.001Z</time></trkpt><trkpt lat="44.11376682785202" lon="12.010570935046074"><ele>351.8</ele><time>2026-04-04T09:33:18.001Z</time></trkpt><trkpt lat="44.113786660590094" lon="12.010683894346673"><ele>351.0</ele><time>2026-04-04T09:33:19.002Z</time></trkpt><trkpt lat="44.113782357102934" lon="12.010792021066068"><ele>351.5</ele><time>2026-04-04T09:33:20.002Z</time></trkpt><trkpt lat="44.11376235322691" lon="12.010896698174761"><ele>352.0</ele><time>2026-04-04T09:33:21.002Z</time></trkpt><trkpt lat="44.113739132211464" lon="12.011003066596725"><ele>352.5</ele><time>2026-04-04T09:33:22.002Z</time></trkpt><trkpt lat="44.11371153851604" lon="12.011118575305188"><ele>353.0</ele><time>2026-04-04T09:33:23.002Z</time></trkpt><trkpt lat="44.11369675244132" lon="12.011221967452322"><ele>353.5</ele><time>2026-04-04T09:33:24.002Z</time></trkpt><trkpt lat="44.11369741068502" lon="12.011315443536965"><ele>354.0</ele><time>2026-04-04T09:33:25.002Z</time></trkpt><trkpt lat="44.11371313008915" lon="12.011408911001762"><ele>354.0</ele><time>2026-04-04T09:33:26.002Z</time></trkpt><trkpt lat="44.11375357638849" lon="12.011496409094917"><ele>354.0</ele><time>2026-04-04T09:33:27.002Z</time></trkpt><trkpt lat="44.113813304068735" lon="12.011564516004453"><ele>354.0</ele><time>2026-04-04T09:33:28.002Z</time></trkpt><trkpt lat="44.113888567448" lon="12.011606174020299"><ele>354.0</ele><time>2026-04-04T09:33:29.002Z</time></trkpt><trkpt lat="44.11396925343093" lon="12.011623438355405"><ele>354.0</ele><time>2026-04-04T09:33:30.002Z</time></trkpt><trkpt lat="44.11404871153069" lon="12.01162023172049"><ele>354.0</ele><time>2026-04-04T09:33:31.002Z</time></trkpt><trkpt lat="44.11411726393619" lon="12.011584247622384"><ele>352.7142857142857</ele><time>2026-04-04T09:33:32.002Z</time></trkpt><trkpt lat="44.11417974111053" lon="12.011544819257745"><ele>351.4285714285714</ele><time>2026-04-04T09:33:33.002Z</time></trkpt><trkpt lat="44.114249103623955" lon="12.011526786851956"><ele>350.1428571428571</ele><time>2026-04-04T09:33:34.002Z</time></trkpt><trkpt lat="44.11432030029498" lon="12.011546519660147"><ele>348.8571428571429</ele><time>2026-04-04T09:33:35.002Z</time></trkpt><trkpt lat="44.114379025931825" lon="12.011608628860508"><ele>347.57142857142856</ele><time>2026-04-04T09:33:36.002Z</time></trkpt><trkpt lat="44.114418151946765" lon="12.011701011619824"><ele>346.2857142857143</ele><time>2026-04-04T09:33:37.002Z</time></trkpt><trkpt lat="44.114446444255094" lon="12.011807166162784"><ele>345.0</ele><time>2026-04-04T09:33:38.002Z</time></trkpt><trkpt lat="44.114461488782304" lon="12.011927861707337"><ele>345.0</ele><time>2026-04-04T09:33:39.002Z</time></trkpt><trkpt lat="44.11447760985842" lon="12.012054550421075"><ele>345.0</ele><time>2026-04-04T09:33:40.002Z</time></trkpt><trkpt lat="44.114499986726905" lon="12.01218824238329"><ele>345.0</ele><time>2026-04-04T09:33:41.002Z</time></trkpt><trkpt lat="44.11452641060948" lon="12.012327586659236"><ele>345.0</ele><time>2026-04-04T09:33:42.002Z</time></trkpt><trkpt lat="44.11455233736386" lon="12.012475097834823"><ele>345.0</ele><time>2026-04-04T09:33:43.002Z</time></trkpt><trkpt lat="44.11457678082671" lon="12.01262622707513"><ele>346.0</ele><time>2026-04-04T09:33:44.002Z</time></trkpt><trkpt lat="44.11460116068782" lon="12.01277678483682"><ele>347.0</ele><time>2026-04-04T09:33:45.002Z</time></trkpt><trkpt lat="44.11462354929574" lon="12.012919282990154"><ele>348.0</ele><time>2026-04-04T09:33:46.002Z</time></trkpt><trkpt lat="44.114643904391635" lon="12.013058686504444"><ele>349.0</ele><time>2026-04-04T09:33:47.002Z</time></trkpt><trkpt lat="44.114662951797435" lon="12.013178723128343"><ele>350.0</ele><time>2026-04-04T09:33:48.002Z</time></trkpt><trkpt lat="44.11467893329291" lon="12.01327869248315"><ele>350.0</ele><time>2026-04-04T09:33:49.002Z</time></trkpt><trkpt lat="44.114693677050525" lon="12.0133681710967"><ele>350.0</ele><time>2026-04-04T09:33:50.002Z</time></trkpt><trkpt lat="44.114723361172686" lon="12.013536277827138"><ele>350.0</ele><time>2026-04-04T09:33:52.002Z</time></trkpt><trkpt lat="44.11473926153373" lon="12.0136275502219"><ele>350.0</ele><time>2026-04-04T09:33:53.002Z</time></trkpt><trkpt lat="44.114752428258846" lon="12.013727075478148"><ele>350.0</ele><time>2026-04-04T09:33:54.002Z</time></trkpt><trkpt lat="44.11477625987298" lon="12.013825744094285"><ele>350.0</ele><time>2026-04-04T09:33:55.002Z</time></trkpt><trkpt lat="44.11481357234892" lon="12.013912510853444"><ele>350.0</ele><time>2026-04-04T09:33:56.002Z</time></trkpt><trkpt lat="44.114861676545765" lon="12.01398388179171"><ele>350.0</ele><time>2026-04-04T09:33:57.002Z</time></trkpt><trkpt lat="44.11491675581247" lon="12.01404724733833"><ele>350.0</ele><time>2026-04-04T09:33:58.002Z</time></trkpt><trkpt lat="44.11497529655348" lon="12.014106264218896"><ele>350.0</ele><time>2026-04-04T09:33:59.002Z</time></trkpt><trkpt lat="44.115036262162" lon="12.014163937209752"><ele>350.0</ele><time>2026-04-04T09:34:00.002Z</time></trkpt><trkpt lat="44.11509878482092" lon="12.014224058638105"><ele>350.0</ele><time>2026-04-04T09:34:01.003Z</time></trkpt><trkpt lat="44.11515987232735" lon="12.01428482423004"><ele>350.0</ele><time>2026-04-04T09:34:02.003Z</time></trkpt><trkpt lat="44.11522125870121" lon="12.014348370623098"><ele>347.1666666666667</ele><time>2026-04-04T09:34:03.003Z</time></trkpt><trkpt lat="44.11528568839546" lon="12.014405202808753"><ele>344.33333333333337</ele><time>2026-04-04T09:34:04.003Z</time></trkpt><trkpt lat="44.11534694070662" lon="12.014467216231527"><ele>341.5</ele><time>2026-04-04T09:34:04.998Z</time></trkpt><trkpt lat="44.1154122339162" lon="12.014532780822638"><ele>338.6666666666667</ele><time>2026-04-04T09:34:05.998Z</time></trkpt><trkpt lat="44.115477857790225" lon="12.014593646670747"><ele>335.8333333333333</ele><time>2026-04-04T09:34:06.998Z</time></trkpt><trkpt lat="44.115543910187874" lon="12.01465372641222"><ele>333.0</ele><time>2026-04-04T09:34:07.998Z</time></trkpt><trkpt lat="44.11561071258376" lon="12.014712090549073"><ele>333.0</ele><time>2026-04-04T09:34:08.998Z</time></trkpt><trkpt lat="44.11567795002519" lon="12.014770696032448"><ele>333.0</ele><time>2026-04-04T09:34:09.998Z</time></trkpt><trkpt lat="44.11574450139119" lon="12.014834806711214"><ele>333.0</ele><time>2026-04-04T09:34:10.998Z</time></trkpt><trkpt lat="44.11580934963392" lon="12.014901940526844"><ele>333.0</ele><time>2026-04-04T09:34:11.998Z</time></trkpt><trkpt lat="44.115875418938984" lon="12.014969992113995"><ele>333.0</ele><time>2026-04-04T09:34:12.998Z</time></trkpt><trkpt lat="44.11594640599006" lon="12.015041746585753"><ele>333.0</ele><time>2026-04-04T09:34:13.998Z</time></trkpt><trkpt lat="44.116022065148144" lon="12.015114844513645"><ele>331.2</ele><time>2026-04-04T09:34:14.998Z</time></trkpt><trkpt lat="44.11609832130427" lon="12.015187143809744"><ele>329.4</ele><time>2026-04-04T09:34:15.999Z</time></trkpt><trkpt lat="44.11617575600692" lon="12.01525770523549"><ele>327.59999999999997</ele><time>2026-04-04T09:34:16.999Z</time></trkpt><trkpt lat="44.116254324890896" lon="12.015329728464108"><ele>325.79999999999995</ele><time>2026-04-04T09:34:17.999Z</time></trkpt><trkpt lat="44.11633080868332" lon="12.015402160502484"><ele>324.0</ele><time>2026-04-04T09:34:18.999Z</time></trkpt><trkpt lat="44.116405702544476" lon="12.01547655366316"><ele>324.0</ele><time>2026-04-04T09:34:19.999Z</time></trkpt><trkpt lat="44.116479371213096" lon="12.015554958883916"><ele>324.0</ele><time>2026-04-04T09:34:20.999Z</time></trkpt><trkpt lat="44.11655286715507" lon="12.015630800034014"><ele>324.0</ele><time>2026-04-04T09:34:21.999Z</time></trkpt><trkpt lat="44.116631191230105" lon="12.015706146245117"><ele>324.0</ele><time>2026-04-04T09:34:22.999Z</time></trkpt><trkpt lat="44.116714144386584" lon="12.015764768748916"><ele>324.0</ele><time>2026-04-04T09:34:23.999Z</time></trkpt><trkpt lat="44.11680882941478" lon="12.015797100862693"><ele>324.4</ele><time>2026-04-04T09:34:24.999Z</time></trkpt><trkpt lat="44.11691258534564" lon="12.01579394421998"><ele>324.79999999999995</ele><time>2026-04-04T09:34:25.999Z</time></trkpt><trkpt lat="44.11700982075889" lon="12.015756430145288"><ele>325.20000000000005</ele><time>2026-04-04T09:34:26.999Z</time></trkpt><trkpt lat="44.11711056137484" lon="12.015678995691829"><ele>325.6</ele><time>2026-04-04T09:34:27.999Z</time></trkpt><trkpt lat="44.1172017891753" lon="12.015579115426723"><ele>326.0</ele><time>2026-04-04T09:34:28.999Z</time></trkpt><trkpt lat="44.11729760697004" lon="12.015480509907404"><ele>326.0</ele><time>2026-04-04T09:34:30Z</time></trkpt><trkpt lat="44.11739707771834" lon="12.015387615448544"><ele>326.0</ele><time>2026-04-04T09:34:31Z</time></trkpt><trkpt lat="44.117494435299996" lon="12.015290318824414"><ele>326.0</ele><time>2026-04-04T09:34:32Z</time></trkpt><trkpt lat="44.117584547174204" lon="12.015200119471919"><ele>326.0</ele><time>2026-04-04T09:34:33Z</time></trkpt><trkpt lat="44.11766332925115" lon="12.015110557901437"><ele>323.83333333333337</ele><time>2026-04-04T09:34:34Z</time></trkpt><trkpt lat="44.11773813687155" lon="12.015048204088103"><ele>321.6666666666667</ele><time>2026-04-04T09:34:35Z</time></trkpt><trkpt lat="44.1178155111193" lon="12.015017524955846"><ele>319.5</ele><time>2026-04-04T09:34:36Z</time></trkpt><trkpt lat="44.117895085293426" lon="12.015028156037914"><ele>317.3333333333333</ele><time>2026-04-04T09:34:37Z</time></trkpt><trkpt lat="44.11797590996482" lon="12.015079139337924"><ele>315.16666666666663</ele><time>2026-04-04T09:34:38Z</time></trkpt><trkpt lat="44.11804926485439" lon="12.015153310559754"><ele>313.0</ele><time>2026-04-04T09:34:39Z</time></trkpt><trkpt lat="44.11812835682101" lon="12.01525027028883"><ele>313.0</ele><time>2026-04-04T09:34:40Z</time></trkpt><trkpt lat="44.11821966115267" lon="12.015345872967439"><ele>313.0</ele><time>2026-04-04T09:34:41Z</time></trkpt><trkpt lat="44.11831861744895" lon="12.015448126194503"><ele>313.0</ele><time>2026-04-04T09:34:42Z</time></trkpt><trkpt lat="44.11842234286072" lon="12.015557666253468"><ele>313.0</ele><time>2026-04-04T09:34:43Z</time></trkpt><trkpt lat="44.11853157146596" lon="12.015670221306543"><ele>309.5</ele><time>2026-04-04T09:34:44Z</time></trkpt><trkpt lat="44.11865021984172" lon="12.015784023228964"><ele>306.0</ele><time>2026-04-04T09:34:45Z</time></trkpt><trkpt lat="44.11876877131042" lon="12.01589581914821"><ele>302.5</ele><time>2026-04-04T09:34:46Z</time></trkpt><trkpt lat="44.1188823899168" lon="12.016012473816467"><ele>299.0</ele><time>2026-04-04T09:34:47Z</time></trkpt><trkpt lat="44.11898744931097" lon="12.016129166745571"><ele>295.5</ele><time>2026-04-04T09:34:48Z</time></trkpt><trkpt lat="44.11908140135234" lon="12.016254744654319"><ele>292.0</ele><time>2026-04-04T09:34:49Z</time></trkpt><trkpt lat="44.119155490946575" lon="12.016397479427809"><ele>288.5</ele><time>2026-04-04T09:34:50Z</time></trkpt><trkpt lat="44.11921360495754" lon="12.016561130910649"><ele>285.0</ele><time>2026-04-04T09:34:51Z</time></trkpt><trkpt lat="44.11925584974152" lon="12.01673228790648"><ele>284.75</ele><time>2026-04-04T09:34:52.001Z</time></trkpt><trkpt lat="44.11930122904877" lon="12.016886775276348"><ele>284.5</ele><time>2026-04-04T09:34:53.001Z</time></trkpt><trkpt lat="44.119359245817904" lon="12.01702261672825"><ele>284.25</ele><time>2026-04-04T09:34:54.001Z</time></trkpt><trkpt lat="44.1194351914874" lon="12.017134863839077"><ele>284.0</ele><time>2026-04-04T09:34:55.001Z</time></trkpt><trkpt lat="44.11952970441388" lon="12.017225138196956"><ele>284.0</ele><time>2026-04-04T09:34:56.001Z</time></trkpt><trkpt lat="44.11963313798341" lon="12.01729210809816"><ele>284.0</ele><time>2026-04-04T09:34:57.001Z</time></trkpt><trkpt lat="44.119739744569955" lon="12.017361303855846"><ele>284.0</ele><time>2026-04-04T09:34:58.001Z</time></trkpt><trkpt lat="44.119856422684016" lon="12.017435267719874"><ele>284.0</ele><time>2026-04-04T09:34:59.001Z</time></trkpt><trkpt lat="44.11997971548531" lon="12.017513605818468"><ele>281.75</ele><time>2026-04-04T09:35:00.001Z</time></trkpt><trkpt lat="44.12010458860283" lon="12.017587808877895"><ele>279.5</ele><time>2026-04-04T09:35:01.001Z</time></trkpt><trkpt lat="44.12022886148373" lon="12.01766114468242"><ele>277.25</ele><time>2026-04-04T09:35:02.001Z</time></trkpt><trkpt lat="44.1203617746075" lon="12.017741275459482"><ele>275.0</ele><time>2026-04-04T09:35:03.001Z</time></trkpt><trkpt lat="44.120489218658804" lon="12.017826985113052"><ele>275.0</ele><time>2026-04-04T09:35:04.001Z</time></trkpt><trkpt lat="44.12061853981157" lon="12.017909986091917"><ele>275.0</ele><time>2026-04-04T09:35:05.001Z</time></trkpt><trkpt lat="44.120750933085866" lon="12.017997214481298"><ele>275.0</ele><time>2026-04-04T09:35:06.001Z</time></trkpt><trkpt lat="44.12088701845172" lon="12.018089017047942"><ele>275.0</ele><time>2026-04-04T09:35:07.001Z</time></trkpt><trkpt lat="44.12102417723022" lon="12.018175678554536"><ele>274.75</ele><time>2026-04-04T09:35:08.001Z</time></trkpt><trkpt lat="44.12115920970347" lon="12.018256421230241"><ele>274.5</ele><time>2026-04-04T09:35:09.001Z</time></trkpt><trkpt lat="44.12129298992345" lon="12.018332581384852"><ele>274.25</ele><time>2026-04-04T09:35:10.001Z</time></trkpt><trkpt lat="44.12143230039375" lon="12.01840029784873"><ele>274.0</ele><time>2026-04-04T09:35:11.001Z</time></trkpt><trkpt lat="44.12156956345604" lon="12.01846321899494"><ele>275.0</ele><time>2026-04-04T09:35:12.001Z</time></trkpt><trkpt lat="44.121702389466584" lon="12.018542059837209"><ele>276.0</ele><time>2026-04-04T09:35:13.001Z</time></trkpt><trkpt lat="44.121825585792806" lon="12.018650861446027"><ele>277.0</ele><time>2026-04-04T09:35:14.001Z</time></trkpt><trkpt lat="44.12194065163116" lon="12.01878753863384"><ele>278.0</ele><time>2026-04-04T09:35:15.001Z</time></trkpt><trkpt lat="44.122042555657295" lon="12.018945342168035"><ele>278.0</ele><time>2026-04-04T09:35:16.001Z</time></trkpt><trkpt lat="44.12214404099582" lon="12.01911384282614"><ele>278.0</ele><time>2026-04-04T09:35:17.001Z</time></trkpt><trkpt lat="44.122252946384464" lon="12.0192818057846"><ele>278.0</ele><time>2026-04-04T09:35:18.001Z</time></trkpt><trkpt lat="44.12236264573854" lon="12.019450432354336"><ele>276.0</ele><time>2026-04-04T09:35:19.001Z</time></trkpt><trkpt lat="44.12247045221545" lon="12.019616465044814"><ele>274.0</ele><time>2026-04-04T09:35:20.001Z</time></trkpt><trkpt lat="44.12257671646484" lon="12.019780434364005"><ele>272.0</ele><time>2026-04-04T09:35:21.002Z</time></trkpt><trkpt lat="44.12267830311983" lon="12.019937499597285"><ele>272.25</ele><time>2026-04-04T09:35:22.002Z</time></trkpt><trkpt lat="44.12278106862753" lon="12.020084659543894"><ele>272.5</ele><time>2026-04-04T09:35:23.002Z</time></trkpt><trkpt lat="44.12288211575846" lon="12.020233676256217"><ele>272.75</ele><time>2026-04-04T09:35:24.002Z</time></trkpt><trkpt lat="44.12298202258223" lon="12.0203859040936"><ele>273.0</ele><time>2026-04-04T09:35:25.002Z</time></trkpt><trkpt lat="44.12308081107309" lon="12.020540991859784"><ele>273.0</ele><time>2026-04-04T09:35:26.002Z</time></trkpt><trkpt lat="44.12317703245566" lon="12.020691095683238"><ele>273.0</ele><time>2026-04-04T09:35:27.002Z</time></trkpt><trkpt lat="44.12327372853572" lon="12.020833274501022"><ele>273.0</ele><time>2026-04-04T09:35:28.002Z</time></trkpt><trkpt lat="44.12336645715967" lon="12.020979240490009"><ele>273.0</ele><time>2026-04-04T09:35:29.002Z</time></trkpt><trkpt lat="44.12344759018591" lon="12.021145768016813"><ele>274.0</ele><time>2026-04-04T09:35:30.002Z</time></trkpt><trkpt lat="44.123526927484846" lon="12.021324232229933"><ele>275.0</ele><time>2026-04-04T09:35:31.002Z</time></trkpt><trkpt lat="44.12360173847439" lon="12.02151580788557"><ele>276.0</ele><time>2026-04-04T09:35:32.002Z</time></trkpt><trkpt lat="44.12367671471138" lon="12.021713813692493"><ele>276.0</ele><time>2026-04-04T09:35:33.002Z</time></trkpt><trkpt lat="44.12375146974891" lon="12.021913147514327"><ele>276.0</ele><time>2026-04-04T09:35:34.002Z</time></trkpt><trkpt lat="44.12382436076721" lon="12.022117072998554"><ele>276.0</ele><time>2026-04-04T09:35:35.002Z</time></trkpt><trkpt lat="44.123896848313315" lon="12.0223229367345"><ele>276.6666666666667</ele><time>2026-04-04T09:35:36.002Z</time></trkpt><trkpt lat="44.12397299083718" lon="12.02252943495022"><ele>277.33333333333337</ele><time>2026-04-04T09:35:37.002Z</time></trkpt><trkpt lat="44.124049340318784" lon="12.022733645480727"><ele>278.0</ele><time>2026-04-04T09:35:38.002Z</time></trkpt><trkpt lat="44.124108423416615" lon="12.022937807039044"><ele>278.0</ele><time>2026-04-04T09:35:39.002Z</time></trkpt><trkpt lat="44.124165599616504" lon="12.023134108707104"><ele>278.0</ele><time>2026-04-04T09:35:40.002Z</time></trkpt><trkpt lat="44.1242264264043" lon="12.023328839309904"><ele>278.0</ele><time>2026-04-04T09:35:41.002Z</time></trkpt><trkpt lat="44.12428098078635" lon="12.023518655442306"><ele>276.6666666666667</ele><time>2026-04-04T09:35:42.002Z</time></trkpt><trkpt lat="44.12433449185641" lon="12.023713477500367"><ele>275.3333333333333</ele><time>2026-04-04T09:35:43.002Z</time></trkpt><trkpt lat="44.124388503224075" lon="12.023913298389685"><ele>274.0</ele><time>2026-04-04T09:35:44.002Z</time></trkpt><trkpt lat="44.124443772841374" lon="12.024117441074054"><ele>272.0</ele><time>2026-04-04T09:35:45.002Z</time></trkpt><trkpt lat="44.12449579836379" lon="12.024325735343918"><ele>270.0</ele><time>2026-04-04T09:35:46.002Z</time></trkpt><trkpt lat="44.12455789174801" lon="12.024542238262427"><ele>268.0</ele><time>2026-04-04T09:35:47.002Z</time></trkpt><trkpt lat="44.12462716936533" lon="12.024757374493388"><ele>264.66666666666663</ele><time>2026-04-04T09:35:48.002Z</time></trkpt><trkpt lat="44.12468635893397" lon="12.024980757083743"><ele>261.3333333333333</ele><time>2026-04-04T09:35:49.002Z</time></trkpt><trkpt lat="44.12474966391961" lon="12.025201797284609"><ele>258.0</ele><time>2026-04-04T09:35:50.002Z</time></trkpt><trkpt lat="44.124811558449295" lon="12.02541991233153"><ele>258.0</ele><time>2026-04-04T09:35:51.002Z</time></trkpt><trkpt lat="44.12487517995155" lon="12.025635340547485"><ele>258.0</ele><time>2026-04-04T09:35:52.002Z</time></trkpt><trkpt lat="44.12494442833218" lon="12.025851057405657"><ele>258.0</ele><time>2026-04-04T09:35:53.002Z</time></trkpt><trkpt lat="44.12503059650575" lon="12.026057037521674"><ele>258.6666666666667</ele><time>2026-04-04T09:35:54.003Z</time></trkpt><trkpt lat="44.12513335822008" lon="12.02624717660066"><ele>259.33333333333337</ele><time>2026-04-04T09:35:55.003Z</time></trkpt><trkpt lat="44.12523678919021" lon="12.026452180575047"><ele>260.0</ele><time>2026-04-04T09:35:56.003Z</time></trkpt><trkpt lat="44.12534234483631" lon="12.02664598728152"><ele>257.6666666666667</ele><time>2026-04-04T09:35:57.003Z</time></trkpt><trkpt lat="44.12544693100252" lon="12.02683827481501"><ele>255.33333333333331</ele><time>2026-04-04T09:35:58.003Z</time></trkpt><trkpt lat="44.125547880605524" lon="12.027027604957162"><ele>253.0</ele><time>2026-04-04T09:35:59.003Z</time></trkpt><trkpt lat="44.12564188374679" lon="12.027218093983436"><ele>253.0</ele><time>2026-04-04T09:36:00.003Z</time></trkpt><trkpt lat="44.125714214109394" lon="12.027434413180574"><ele>253.0</ele><time>2026-04-04T09:36:01.003Z</time></trkpt><trkpt lat="44.12577747255519" lon="12.027662204469994"><ele>253.0</ele><time>2026-04-04T09:36:02.003Z</time></trkpt><trkpt lat="44.12583834705586" lon="12.027884712747339"><ele>253.66666666666666</ele><time>2026-04-04T09:36:03.003Z</time></trkpt><trkpt lat="44.125896438184576" lon="12.028109940911264"><ele>254.33333333333331</ele><time>2026-04-04T09:36:04.003Z</time></trkpt><trkpt lat="44.12595314317362" lon="12.028332963850502"><ele>255.0</ele><time>2026-04-04T09:36:05.003Z</time></trkpt><trkpt lat="44.12601559073819" lon="12.028555272999661"><ele>253.0</ele><time>2026-04-04T09:36:06.003Z</time></trkpt><trkpt lat="44.126060787407546" lon="12.028763279358422"><ele>251.0</ele><time>2026-04-04T09:36:07.003Z</time></trkpt><trkpt lat="44.12606471818274" lon="12.029007216603615"><ele>249.0</ele><time>2026-04-04T09:36:08.003Z</time></trkpt><trkpt lat="44.126059271601996" lon="12.029248273035998"><ele>248.66666666666669</ele><time>2026-04-04T09:36:09.003Z</time></trkpt><trkpt lat="44.12603311737462" lon="12.029489441273364"><ele>248.33333333333334</ele><time>2026-04-04T09:36:10.003Z</time></trkpt><trkpt lat="44.12599158350851" lon="12.029739771285508"><ele>248.0</ele><time>2026-04-04T09:36:10.999Z</time></trkpt><trkpt lat="44.12595990518213" lon="12.02999455627495"><ele>248.0</ele><time>2026-04-04T09:36:11.999Z</time></trkpt><trkpt lat="44.12592984218892" lon="12.03025119444893"><ele>248.0</ele><time>2026-04-04T09:36:12.999Z</time></trkpt><trkpt lat="44.125903382842104" lon="12.030502720467068"><ele>248.0</ele><time>2026-04-04T09:36:13.999Z</time></trkpt><trkpt lat="44.125879186617354" lon="12.030752158652872"><ele>247.66666666666669</ele><time>2026-04-04T09:36:14.999Z</time></trkpt><trkpt lat="44.12585173581135" lon="12.03099351113567"><ele>247.33333333333331</ele><time>2026-04-04T09:36:15.999Z</time></trkpt><trkpt lat="44.12582125746401" lon="12.031217260865404"><ele>247.0</ele><time>2026-04-04T09:36:16.999Z</time></trkpt><trkpt lat="44.12579245387774" lon="12.031436694648596"><ele>245.75</ele><time>2026-04-04T09:36:17.999Z</time></trkpt><trkpt lat="44.12576961722573" lon="12.031646240590291"><ele>244.5</ele><time>2026-04-04T09:36:18.999Z</time></trkpt><trkpt lat="44.12576525277053" lon="12.031838360523277"><ele>243.25</ele><time>2026-04-04T09:36:19.999Z</time></trkpt><trkpt lat="44.12579438796965" lon="12.032008463762633"><ele>242.0</ele><time>2026-04-04T09:36:20.999Z</time></trkpt><trkpt lat="44.12586009353287" lon="12.032150896793265"><ele>242.0</ele><time>2026-04-04T09:36:21.999Z</time></trkpt><trkpt lat="44.12595347051375" lon="12.032274376414675"><ele>242.0</ele><time>2026-04-04T09:36:22.999Z</time></trkpt><trkpt lat="44.12607098413617" lon="12.032352219972147"><ele>242.0</ele><time>2026-04-04T09:36:23.999Z</time></trkpt><trkpt lat="44.126197416177696" lon="12.03238409854237"><ele>242.0</ele><time>2026-04-04T09:36:25Z</time></trkpt><trkpt lat="44.12633360856049" lon="12.032392343329592"><ele>242.0</ele><time>2026-04-04T09:36:26Z</time></trkpt><trkpt lat="44.126471497194515" lon="12.032396496877382"><ele>242.0</ele><time>2026-04-04T09:36:27Z</time></trkpt><trkpt lat="44.12661195341476" lon="12.032400088036265"><ele>242.0</ele><time>2026-04-04T09:36:28Z</time></trkpt><trkpt lat="44.12674995903169" lon="12.03240108985432"><ele>242.0</ele><time>2026-04-04T09:36:29Z</time></trkpt><trkpt lat="44.126883401622955" lon="12.032403636103322"><ele>242.5</ele><time>2026-04-04T09:36:30Z</time></trkpt><trkpt lat="44.127012191879125" lon="12.032438056452138"><ele>243.0</ele><time>2026-04-04T09:36:31Z</time></trkpt><trkpt lat="44.127136206260985" lon="12.032519580214402"><ele>243.5</ele><time>2026-04-04T09:36:32Z</time></trkpt><trkpt lat="44.127256823497234" lon="12.032623227420704"><ele>244.0</ele><time>2026-04-04T09:36:33Z</time></trkpt><trkpt lat="44.12738125480391" lon="12.032724304514874"><ele>241.0</ele><time>2026-04-04T09:36:34Z</time></trkpt><trkpt lat="44.127511813722656" lon="12.03282710988338"><ele>238.0</ele><time>2026-04-04T09:36:35Z</time></trkpt><trkpt lat="44.12764790480279" lon="12.03292985828896"><ele>235.0</ele><time>2026-04-04T09:36:36Z</time></trkpt><trkpt lat="44.12778519519128" lon="12.033036111863163"><ele>235.0</ele><time>2026-04-04T09:36:37Z</time></trkpt><trkpt lat="44.127917568451174" lon="12.033144803722967"><ele>235.0</ele><time>2026-04-04T09:36:38Z</time></trkpt><trkpt lat="44.1280480587757" lon="12.033252096362025"><ele>235.0</ele><time>2026-04-04T09:36:39Z</time></trkpt><trkpt lat="44.128174414494374" lon="12.033349799891914"><ele>232.5</ele><time>2026-04-04T09:36:40Z</time></trkpt><trkpt lat="44.128299777965225" lon="12.033434904773744"><ele>230.0</ele><time>2026-04-04T09:36:41Z</time></trkpt><trkpt lat="44.12842552658893" lon="12.033503557025986"><ele>227.5</ele><time>2026-04-04T09:36:42Z</time></trkpt><trkpt lat="44.12853994526446" lon="12.033551618529975"><ele>225.0</ele><time>2026-04-04T09:36:43Z</time></trkpt><trkpt lat="44.12864094599684" lon="12.03359145295114"><ele>225.0</ele><time>2026-04-04T09:36:44.001Z</time></trkpt><trkpt lat="44.128727053669095" lon="12.033625820917555"><ele>225.0</ele><time>2026-04-04T09:36:45.001Z</time></trkpt><trkpt lat="44.12879638627093" lon="12.03368426566142"><ele>225.0</ele><time>2026-04-04T09:36:46.001Z</time></trkpt><trkpt lat="44.12883647969855" lon="12.033769606962002"><ele>225.0</ele><time>2026-04-04T09:36:47.001Z</time></trkpt><trkpt lat="44.12884757766694" lon="12.033866139625223"><ele>225.0</ele><time>2026-04-04T09:36:48.001Z</time></trkpt><trkpt lat="44.12882327254927" lon="12.033953965584441"><ele>225.0</ele><time>2026-04-04T09:36:49.001Z</time></trkpt><trkpt lat="44.12876982450017" lon="12.034022484066963"><ele>225.0</ele><time>2026-04-04T09:36:50.001Z</time></trkpt><trkpt lat="44.12870061910179" lon="12.03405257825169"><ele>225.0</ele><time>2026-04-04T09:36:51.001Z</time></trkpt><trkpt lat="44.12862781568772" lon="12.034050540698805"><ele>225.0</ele><time>2026-04-04T09:36:52.001Z</time></trkpt><trkpt lat="44.12854590934697" lon="12.034044385787073"><ele>225.0</ele><time>2026-04-04T09:36:53.001Z</time></trkpt><trkpt lat="44.12846445411836" lon="12.034060649076"><ele>225.0</ele><time>2026-04-04T09:36:54.001Z</time></trkpt><trkpt lat="44.128383371659936" lon="12.034089459259818"><ele>225.0</ele><time>2026-04-04T09:36:55.001Z</time></trkpt><trkpt lat="44.12830114184916" lon="12.034116999721027"><ele>223.0</ele><time>2026-04-04T09:36:56.001Z</time></trkpt><trkpt lat="44.12821915138294" lon="12.034142685017533"><ele>221.0</ele><time>2026-04-04T09:36:57.001Z</time></trkpt><trkpt lat="44.12813564605581" lon="12.034174610125978"><ele>219.0</ele><time>2026-04-04T09:36:58.001Z</time></trkpt><trkpt lat="44.128044666981836" lon="12.03420274122638"><ele>217.0</ele><time>2026-04-04T09:36:59.001Z</time></trkpt><trkpt lat="44.127948098722975" lon="12.034234918200285"><ele>215.0</ele><time>2026-04-04T09:37:00.001Z</time></trkpt><trkpt lat="44.127846585542244" lon="12.034269903654277"><ele>215.0</ele><time>2026-04-04T09:37:01.001Z</time></trkpt><trkpt lat="44.12774318650886" lon="12.03430901890152"><ele>215.0</ele><time>2026-04-04T09:37:02.001Z</time></trkpt><trkpt lat="44.12764006257902" lon="12.034369292825517"><ele>215.0</ele><time>2026-04-04T09:37:03.001Z</time></trkpt><trkpt lat="44.12754107737337" lon="12.034449387120798"><ele>215.0</ele><time>2026-04-04T09:37:04.001Z</time></trkpt><trkpt lat="44.127445371178375" lon="12.034543427638669"><ele>215.25</ele><time>2026-04-04T09:37:05.001Z</time></trkpt><trkpt lat="44.12734663618145" lon="12.03463906453907"><ele>215.5</ele><time>2026-04-04T09:37:06.001Z</time></trkpt><trkpt lat="44.12724707280423" lon="12.034738612352642"><ele>215.75</ele><time>2026-04-04T09:37:07.001Z</time></trkpt><trkpt lat="44.12714855457154" lon="12.034840489323948"><ele>216.0</ele><time>2026-04-04T09:37:08.001Z</time></trkpt><trkpt lat="44.127045908028784" lon="12.034936292605554"><ele>214.25</ele><time>2026-04-04T09:37:09.001Z</time></trkpt><trkpt lat="44.12694204004131" lon="12.035033238508628"><ele>212.5</ele><time>2026-04-04T09:37:10.001Z</time></trkpt><trkpt lat="44.12683817354002" lon="12.03513724995803"><ele>210.75</ele><time>2026-04-04T09:37:11.001Z</time></trkpt><trkpt lat="44.126736016894945" lon="12.035242007361656"><ele>209.0</ele><time>2026-04-04T09:37:12.001Z</time></trkpt><trkpt lat="44.126633512682815" lon="12.035352480904532"><ele>209.25</ele><time>2026-04-04T09:37:13.002Z</time></trkpt><trkpt lat="44.12652591892978" lon="12.03546430305904"><ele>209.5</ele><time>2026-04-04T09:37:14.002Z</time></trkpt><trkpt lat="44.12641633348729" lon="12.035571839542195"><ele>209.75</ele><time>2026-04-04T09:37:15.002Z</time></trkpt><trkpt lat="44.126304488913014" lon="12.035679067997782"><ele>210.0</ele><time>2026-04-04T09:37:16.002Z</time></trkpt><trkpt lat="44.12619175849664" lon="12.035789462301441"><ele>208.0</ele><time>2026-04-04T09:37:17.002Z</time></trkpt><trkpt lat="44.126078754257954" lon="12.035902694742587"><ele>206.0</ele><time>2026-04-04T09:37:18.002Z</time></trkpt><trkpt lat="44.125957532173466" lon="12.035999734213695"><ele>204.0</ele><time>2026-04-04T09:37:19.002Z</time></trkpt><trkpt lat="44.125830434633514" lon="12.036082217895492"><ele>202.0</ele><time>2026-04-04T09:37:20.002Z</time></trkpt><trkpt lat="44.12570269610099" lon="12.036160536887115"><ele>200.5</ele><time>2026-04-04T09:37:21.002Z</time></trkpt><trkpt lat="44.125575675095234" lon="12.036235202782418"><ele>199.0</ele><time>2026-04-04T09:37:22.002Z</time></trkpt><trkpt lat="44.125445956535806" lon="12.036313207819683"><ele>197.5</ele><time>2026-04-04T09:37:23.002Z</time></trkpt><trkpt lat="44.12531954782097" lon="12.036396213472292"><ele>196.0</ele><time>2026-04-04T09:37:24.002Z</time></trkpt><trkpt lat="44.125195442075615" lon="12.03648504503546"><ele>196.0</ele><time>2026-04-04T09:37:25.002Z</time></trkpt><trkpt lat="44.12508144536769" lon="12.036594156108775"><ele>196.0</ele><time>2026-04-04T09:37:26.002Z</time></trkpt><trkpt lat="44.12496633830754" lon="12.036722712940083"><ele>196.0</ele><time>2026-04-04T09:37:27.002Z</time></trkpt><trkpt lat="44.124850448682174" lon="12.036859884650163"><ele>196.0</ele><time>2026-04-04T09:37:28.002Z</time></trkpt><trkpt lat="44.1247308990532" lon="12.036996355686092"><ele>189.66666666666666</ele><time>2026-04-04T09:37:29.002Z</time></trkpt><trkpt lat="44.124604540870756" lon="12.037133149734604"><ele>183.33333333333331</ele><time>2026-04-04T09:37:30.002Z</time></trkpt><trkpt lat="44.12447702355276" lon="12.037278339082205"><ele>177.0</ele><time>2026-04-04T09:37:31.002Z</time></trkpt><trkpt lat="44.124351931144616" lon="12.037419599802549"><ele>178.0</ele><time>2026-04-04T09:37:32.002Z</time></trkpt><trkpt lat="44.124230760940364" lon="12.037556146330845"><ele>179.0</ele><time>2026-04-04T09:37:33.002Z</time></trkpt><trkpt lat="44.12411541266717" lon="12.037715041216751"><ele>180.0</ele><time>2026-04-04T09:37:34.002Z</time></trkpt><trkpt lat="44.1240142533117" lon="12.03790296075108"><ele>175.33333333333334</ele><time>2026-04-04T09:37:35.002Z</time></trkpt><trkpt lat="44.12392432653679" lon="12.038099327195832"><ele>170.66666666666669</ele><time>2026-04-04T09:37:36.002Z</time></trkpt><trkpt lat="44.123833029670266" lon="12.038298336547474"><ele>166.0</ele><time>2026-04-04T09:37:37.002Z</time></trkpt><trkpt lat="44.12374791018134" lon="12.038494400031183"><ele>166.0</ele><time>2026-04-04T09:37:38.002Z</time></trkpt><trkpt lat="44.12366887190621" lon="12.038695932484119"><ele>166.0</ele><time>2026-04-04T09:37:39.002Z</time></trkpt><trkpt lat="44.123592674914065" lon="12.038900928811078"><ele>166.0</ele><time>2026-04-04T09:37:40.002Z</time></trkpt><trkpt lat="44.12351679817945" lon="12.03909773413891"><ele>168.0</ele><time>2026-04-04T09:37:41.002Z</time></trkpt><trkpt lat="44.12344367928608" lon="12.039289665259487"><ele>170.0</ele><time>2026-04-04T09:37:42.002Z</time></trkpt><trkpt lat="44.12337910927819" lon="12.039477906072113"><ele>172.0</ele><time>2026-04-04T09:37:43.002Z</time></trkpt><trkpt lat="44.123314746427255" lon="12.039659650293618"><ele>172.0</ele><time>2026-04-04T09:37:44.002Z</time></trkpt><trkpt lat="44.12325091187928" lon="12.039842031574436"><ele>172.0</ele><time>2026-04-04T09:37:45.003Z</time></trkpt><trkpt lat="44.12318778382235" lon="12.040022966565859"><ele>172.0</ele><time>2026-04-04T09:37:46.003Z</time></trkpt><trkpt lat="44.12312724792035" lon="12.040202440284418"><ele>172.0</ele><time>2026-04-04T09:37:47.003Z</time></trkpt><trkpt lat="44.123065667573094" lon="12.040386358584186"><ele>169.33333333333334</ele><time>2026-04-04T09:37:48.003Z</time></trkpt><trkpt lat="44.12300385666016" lon="12.040572556880276"><ele>166.66666666666666</ele><time>2026-04-04T09:37:49.003Z</time></trkpt><trkpt lat="44.12294886199809" lon="12.040768380962456"><ele>164.0</ele><time>2026-04-04T09:37:50.003Z</time></trkpt><trkpt lat="44.12290193970728" lon="12.040974040762396"><ele>164.0</ele><time>2026-04-04T09:37:51.003Z</time></trkpt><trkpt lat="44.1228550719695" lon="12.041184552884006"><ele>164.0</ele><time>2026-04-04T09:37:52.003Z</time></trkpt><trkpt lat="44.122810297164804" lon="12.041404273436644"><ele>164.0</ele><time>2026-04-04T09:37:53.003Z</time></trkpt><trkpt lat="44.12276586013322" lon="12.041628981533629"><ele>164.66666666666666</ele><time>2026-04-04T09:37:54.003Z</time></trkpt><trkpt lat="44.12272149011618" lon="12.041861285017092"><ele>165.33333333333334</ele><time>2026-04-04T09:37:55.003Z</time></trkpt><trkpt lat="44.12267199703671" lon="12.04209676425748"><ele>166.0</ele><time>2026-04-04T09:37:56.003Z</time></trkpt><trkpt lat="44.12261854584267" lon="12.042337341248027"><ele>165.66666666666669</ele><time>2026-04-04T09:37:57.003Z</time></trkpt><trkpt lat="44.122566689004344" lon="12.042583507368658"><ele>165.33333333333334</ele><time>2026-04-04T09:37:58.003Z</time></trkpt><trkpt lat="44.12251494359356" lon="12.042837937849216"><ele>165.0</ele><time>2026-04-04T09:37:59.003Z</time></trkpt><trkpt lat="44.122461213442634" lon="12.043093613882395"><ele>164.33333333333334</ele><time>2026-04-04T09:38:00.003Z</time></trkpt><trkpt lat="44.122409081281674" lon="12.043349875602182"><ele>163.66666666666669</ele><time>2026-04-04T09:38:01.003Z</time></trkpt><trkpt lat="44.12235944694031" lon="12.043614334657004"><ele>163.0</ele><time>2026-04-04T09:38:02.003Z</time></trkpt><trkpt lat="44.122308971963136" lon="12.043865311263524"><ele>158.66666666666669</ele><time>2026-04-04T09:38:03.003Z</time></trkpt><trkpt lat="44.12225807479125" lon="12.044121710146808"><ele>154.33333333333334</ele><time>2026-04-04T09:38:04.003Z</time></trkpt><trkpt lat="44.1222065497447" lon="12.044375512503995"><ele>150.0</ele><time>2026-04-04T09:38:05.003Z</time></trkpt><trkpt lat="44.12215738763955" lon="12.044624057809322"><ele>150.0</ele><time>2026-04-04T09:38:06.003Z</time></trkpt><trkpt lat="44.122104189314605" lon="12.044881160133619"><ele>150.0</ele><time>2026-04-04T09:38:07.003Z</time></trkpt><trkpt lat="44.12205647165174" lon="12.045104851866276"><ele>150.0</ele><time>2026-04-04T09:38:08.003Z</time></trkpt><trkpt lat="44.122026411911655" lon="12.045331465638407"><ele>151.0</ele><time>2026-04-04T09:38:09.003Z</time></trkpt><trkpt lat="44.12202481141689" lon="12.045548447147254"><ele>152.0</ele><time>2026-04-04T09:38:10.003Z</time></trkpt><trkpt lat="44.122051403983754" lon="12.045764206855969"><ele>153.0</ele><time>2026-04-04T09:38:11.003Z</time></trkpt><trkpt lat="44.12210263811995" lon="12.045986323308265"><ele>153.0</ele><time>2026-04-04T09:38:12.003Z</time></trkpt><trkpt lat="44.12217897270214" lon="12.04619109498198"><ele>153.0</ele><time>2026-04-04T09:38:13.003Z</time></trkpt><trkpt lat="44.122260413768366" lon="12.046396685853152"><ele>153.0</ele><time>2026-04-04T09:38:14.003Z</time></trkpt><trkpt lat="44.12235937929461" lon="12.046596601228138"><ele>150.66666666666666</ele><time>2026-04-04T09:38:15.003Z</time></trkpt><trkpt lat="44.12245646262443" lon="12.046806125602863"><ele>148.33333333333331</ele><time>2026-04-04T09:38:16.003Z</time></trkpt><trkpt lat="44.122554552509726" lon="12.04702090724835"><ele>146.0</ele><time>2026-04-04T09:38:16.999Z</time></trkpt><trkpt lat="44.12265107914229" lon="12.047226734598548"><ele>146.0</ele><time>2026-04-04T09:38:17.999Z</time></trkpt><trkpt lat="44.122739164233586" lon="12.047434410342206"><ele>146.0</ele><time>2026-04-04T09:38:18.999Z</time></trkpt><trkpt lat="44.12280394899667" lon="12.047645448692379"><ele>146.0</ele><time>2026-04-04T09:38:19.999Z</time></trkpt><trkpt lat="44.12283931051534" lon="12.047870614103038"><ele>145.66666666666666</ele><time>2026-04-04T09:38:20.999Z</time></trkpt><trkpt lat="44.122846465311376" lon="12.048094594307734"><ele>145.33333333333334</ele><time>2026-04-04T09:38:22Z</time></trkpt><trkpt lat="44.1228244326242" lon="12.048298349210604"><ele>145.0</ele><time>2026-04-04T09:38:23Z</time></trkpt><trkpt lat="44.12277878093147" lon="12.04849107075253"><ele>144.33333333333334</ele><time>2026-04-04T09:38:24Z</time></trkpt><trkpt lat="44.122711862305565" lon="12.048682096164667"><ele>143.66666666666666</ele><time>2026-04-04T09:38:25Z</time></trkpt><trkpt lat="44.12264752833466" lon="12.048879817063217"><ele>143.0</ele><time>2026-04-04T09:38:26Z</time></trkpt><trkpt lat="44.1225837553306" lon="12.049080162554146"><ele>143.0</ele><time>2026-04-04T09:38:26.999Z</time></trkpt><trkpt lat="44.1225189076633" lon="12.049284441738042"><ele>143.0</ele><time>2026-04-04T09:38:27.998Z</time></trkpt><trkpt lat="44.12243702172411" lon="12.04947704436732"><ele>143.0</ele><time>2026-04-04T09:38:28.998Z</time></trkpt><trkpt lat="44.12233430289907" lon="12.049656567177763"><ele>143.66666666666666</ele><time>2026-04-04T09:38:29.998Z</time></trkpt><trkpt lat="44.122229220880556" lon="12.049835535903517"><ele>144.33333333333334</ele><time>2026-04-04T09:38:30.998Z</time></trkpt><trkpt lat="44.12212569326733" lon="12.050010707376869"><ele>145.0</ele><time>2026-04-04T09:38:31.998Z</time></trkpt><trkpt lat="44.12203328955297" lon="12.050195616349756"><ele>145.0</ele><time>2026-04-04T09:38:32.998Z</time></trkpt><trkpt lat="44.12196153117309" lon="12.050391426238708"><ele>145.0</ele><time>2026-04-04T09:38:33.998Z</time></trkpt><trkpt lat="44.12191648149092" lon="12.050605245488146"><ele>145.0</ele><time>2026-04-04T09:38:34.999Z</time></trkpt><trkpt lat="44.12188863730868" lon="12.05082861579388"><ele>144.33333333333334</ele><time>2026-04-04T09:38:35.999Z</time></trkpt><trkpt lat="44.121866119661696" lon="12.051049377129164"><ele>143.66666666666666</ele><time>2026-04-04T09:38:36.999Z</time></trkpt><trkpt lat="44.12184341280414" lon="12.051269544827536"><ele>143.0</ele><time>2026-04-04T09:38:37.999Z</time></trkpt><trkpt lat="44.12182011199879" lon="12.051491179598845"><ele>142.33333333333331</ele><time>2026-04-04T09:38:38.999Z</time></trkpt><trkpt lat="44.121800294812935" lon="12.051714507725054"><ele>141.66666666666666</ele><time>2026-04-04T09:38:39.999Z</time></trkpt><trkpt lat="44.121781394660616" lon="12.051937610014818"><ele>141.0</ele><time>2026-04-04T09:38:40.999Z</time></trkpt><trkpt lat="44.12175830969237" lon="12.052157299959095"><ele>141.0</ele><time>2026-04-04T09:38:41.999Z</time></trkpt><trkpt lat="44.121744229396796" lon="12.052378239690928"><ele>141.0</ele><time>2026-04-04T09:38:42.999Z</time></trkpt><trkpt lat="44.12175408844748" lon="12.052597388910305"><ele>141.0</ele><time>2026-04-04T09:38:44Z</time></trkpt><trkpt lat="44.12179530231137" lon="12.052812919651577"><ele>140.66666666666666</ele><time>2026-04-04T09:38:45Z</time></trkpt><trkpt lat="44.12186463344946" lon="12.053015618847372"><ele>140.33333333333331</ele><time>2026-04-04T09:38:46Z</time></trkpt><trkpt lat="44.12196184359358" lon="12.05320569403493"><ele>140.0</ele><time>2026-04-04T09:38:47Z</time></trkpt><trkpt lat="44.12206603932505" lon="12.053389818686103"><ele>139.33333333333331</ele><time>2026-04-04T09:38:48Z</time></trkpt><trkpt lat="44.12217187105066" lon="12.053575193825234"><ele>138.66666666666666</ele><time>2026-04-04T09:38:49Z</time></trkpt><trkpt lat="44.12227818669709" lon="12.05376352020476"><ele>138.0</ele><time>2026-04-04T09:38:50Z</time></trkpt><trkpt lat="44.12238583031348" lon="12.053953226144273"><ele>136.66666666666666</ele><time>2026-04-04T09:38:51Z</time></trkpt><trkpt lat="44.12249613881402" lon="12.05414452014008"><ele>135.33333333333331</ele><time>2026-04-04T09:38:52Z</time></trkpt><trkpt lat="44.12259820426654" lon="12.054332364906344"><ele>134.0</ele><time>2026-04-04T09:38:53Z</time></trkpt><trkpt lat="44.12269522122814" lon="12.054509512567206"><ele>134.0</ele><time>2026-04-04T09:38:54Z</time></trkpt><trkpt lat="44.12278989878675" lon="12.05467856581494"><ele>134.0</ele><time>2026-04-04T09:38:55Z</time></trkpt><trkpt lat="44.122876465079415" lon="12.05482782919176"><ele>134.0</ele><time>2026-04-04T09:38:56Z</time></trkpt><trkpt lat="44.12296853364652" lon="12.054942906680848"><ele>134.0</ele><time>2026-04-04T09:38:57Z</time></trkpt><trkpt lat="44.12308208510944" lon="12.054992844177601"><ele>133.5</ele><time>2026-04-04T09:38:58Z</time></trkpt><trkpt lat="44.12321154377921" lon="12.054973965734577"><ele>133.0</ele><time>2026-04-04T09:38:59.001Z</time></trkpt><trkpt lat="44.12332828166641" lon="12.05488624720591"><ele>132.5</ele><time>2026-04-04T09:39:00.001Z</time></trkpt><trkpt lat="44.12341538605889" lon="12.054757650988401"><ele>132.0</ele><time>2026-04-04T09:39:01.001Z</time></trkpt><trkpt lat="44.1234963951836" lon="12.054619928013182"><ele>132.0</ele><time>2026-04-04T09:39:02.001Z</time></trkpt><trkpt lat="44.12360652812602" lon="12.054534008794942"><ele>132.0</ele><time>2026-04-04T09:39:03.001Z</time></trkpt><trkpt lat="44.1237375652406" lon="12.054494242641518"><ele>132.0</ele><time>2026-04-04T09:39:04.001Z</time></trkpt><trkpt lat="44.12387861715513" lon="12.054522771114351"><ele>132.0</ele><time>2026-04-04T09:39:05.001Z</time></trkpt><trkpt lat="44.124009523663666" lon="12.054618026210415"><ele>130.0</ele><time>2026-04-04T09:39:06.001Z</time></trkpt><trkpt lat="44.12412325736443" lon="12.05471961900459"><ele>128.0</ele><time>2026-04-04T09:39:07.001Z</time></trkpt><trkpt lat="44.12422888151746" lon="12.054778355051752"><ele>126.0</ele><time>2026-04-04T09:39:08.001Z</time></trkpt><trkpt lat="44.12433003612008" lon="12.054760798466116"><ele>124.0</ele><time>2026-04-04T09:39:09.001Z</time></trkpt><trkpt lat="44.124440130742535" lon="12.054690126932584"><ele>124.0</ele><time>2026-04-04T09:39:10.001Z</time></trkpt><trkpt lat="44.124512560243524" lon="12.054547017342804"><ele>124.0</ele><time>2026-04-04T09:39:11.001Z</time></trkpt><trkpt lat="44.12455799700921" lon="12.054378935964317"><ele>124.0</ele><time>2026-04-04T09:39:12.001Z</time></trkpt><trkpt lat="44.1246405818609" lon="12.05424618006918"><ele>124.0</ele><time>2026-04-04T09:39:13.001Z</time></trkpt><trkpt lat="44.124764537560296" lon="12.05416978999939"><ele>122.25</ele><time>2026-04-04T09:39:14.001Z</time></trkpt><trkpt lat="44.12490088971136" lon="12.054141023642755"><ele>120.5</ele><time>2026-04-04T09:39:15.001Z</time></trkpt><trkpt lat="44.125039468503154" lon="12.054179792460923"><ele>118.75</ele><time>2026-04-04T09:39:16.001Z</time></trkpt><trkpt lat="44.12516166691091" lon="12.05426706320112"><ele>117.0</ele><time>2026-04-04T09:39:17.001Z</time></trkpt><trkpt lat="44.12527645275774" lon="12.054412530006577"><ele>117.0</ele><time>2026-04-04T09:39:18.001Z</time></trkpt><trkpt lat="44.12538767090628" lon="12.054547145046037"><ele>117.0</ele><time>2026-04-04T09:39:19.001Z</time></trkpt><trkpt lat="44.12548837731695" lon="12.054660749351285"><ele>117.0</ele><time>2026-04-04T09:39:20.001Z</time></trkpt><trkpt lat="44.12559164085396" lon="12.054762678505897"><ele>117.0</ele><time>2026-04-04T09:39:21.001Z</time></trkpt><trkpt lat="44.12568725592645" lon="12.054865402652782"><ele>115.19999999999999</ele><time>2026-04-04T09:39:22.001Z</time></trkpt><trkpt lat="44.12577519567614" lon="12.054967004975857"><ele>113.39999999999999</ele><time>2026-04-04T09:39:23.002Z</time></trkpt><trkpt lat="44.12583944157408" lon="12.055092567589833"><ele>111.60000000000001</ele><time>2026-04-04T09:39:24.002Z</time></trkpt><trkpt lat="44.125912322199" lon="12.055200705949387"><ele>109.80000000000001</ele><time>2026-04-04T09:39:25.002Z</time></trkpt><trkpt lat="44.12596637721177" lon="12.055329809487182"><ele>108.0</ele><time>2026-04-04T09:39:26.002Z</time></trkpt><trkpt lat="44.126014007747564" lon="12.055458879231777"><ele>108.0</ele><time>2026-04-04T09:39:27.002Z</time></trkpt><trkpt lat="44.12605914185642" lon="12.055589326624446"><ele>108.00000000000001</ele><time>2026-04-04T09:39:28.002Z</time></trkpt><trkpt lat="44.1260994541102" lon="12.0557174172592"><ele>108.00000000000001</ele><time>2026-04-04T09:39:29.002Z</time></trkpt><trkpt lat="44.1261380004811" lon="12.055848344979205"><ele>108.0</ele><time>2026-04-04T09:39:30.002Z</time></trkpt><trkpt lat="44.12617095638167" lon="12.055986497487112"><ele>108.0</ele><time>2026-04-04T09:39:31.002Z</time></trkpt><trkpt lat="44.12620459124881" lon="12.056116388368347"><ele>106.0</ele><time>2026-04-04T09:39:32.002Z</time></trkpt><trkpt lat="44.12624016857368" lon="12.05624524467382"><ele>104.00000000000001</ele><time>2026-04-04T09:39:33.002Z</time></trkpt><trkpt lat="44.126275392781324" lon="12.056379651693035"><ele>102.0</ele><time>2026-04-04T09:39:34.002Z</time></trkpt><trkpt lat="44.12631419255293" lon="12.05651605106751"><ele>100.0</ele><time>2026-04-04T09:39:35.002Z</time></trkpt><trkpt lat="44.126351701313084" lon="12.0566500719839"><ele>98.0</ele><time>2026-04-04T09:39:36.002Z</time></trkpt><trkpt lat="44.12639178542941" lon="12.056792521666555"><ele>98.80000000000001</ele><time>2026-04-04T09:39:37.002Z</time></trkpt><trkpt lat="44.12643181560899" lon="12.056920429789942"><ele>99.6</ele><time>2026-04-04T09:39:38.002Z</time></trkpt><trkpt lat="44.12647680162385" lon="12.057049177485146"><ele>100.4</ele><time>2026-04-04T09:39:39.002Z</time></trkpt><trkpt lat="44.126533927573774" lon="12.057158178860824"><ele>101.19999999999999</ele><time>2026-04-04T09:39:40.002Z</time></trkpt><trkpt lat="44.126603350940066" lon="12.057264777578567"><ele>102.0</ele><time>2026-04-04T09:39:41.002Z</time></trkpt><trkpt lat="44.12668634450359" lon="12.057357620794672"><ele>102.0</ele><time>2026-04-04T09:39:42.002Z</time></trkpt><trkpt lat="44.126778289280026" lon="12.057434038245965"><ele>102.0</ele><time>2026-04-04T09:39:43.002Z</time></trkpt><trkpt lat="44.12687690757946" lon="12.057491782104101"><ele>102.0</ele><time>2026-04-04T09:39:44.002Z</time></trkpt><trkpt lat="44.126981659556684" lon="12.057537836880224"><ele>102.0</ele><time>2026-04-04T09:39:45.002Z</time></trkpt><trkpt lat="44.12709333902113" lon="12.057564668297518"><ele>102.0</ele><time>2026-04-04T09:39:46.002Z</time></trkpt><trkpt lat="44.12720403707296" lon="12.057593933574157"><ele>100.39999999999999</ele><time>2026-04-04T09:39:47.002Z</time></trkpt><trkpt lat="44.12730815572587" lon="12.057629821434848"><ele>98.8</ele><time>2026-04-04T09:39:48.002Z</time></trkpt><trkpt lat="44.12740355977819" lon="12.057678548820359"><ele>97.2</ele><time>2026-04-04T09:39:49.002Z</time></trkpt><trkpt lat="44.127487891434264" lon="12.057761450097177"><ele>95.6</ele><time>2026-04-04T09:39:50.002Z</time></trkpt><trkpt lat="44.12754550016172" lon="12.057859327121326"><ele>94.0</ele><time>2026-04-04T09:39:51.002Z</time></trkpt><trkpt lat="44.12760243407764" lon="12.057969012357384"><ele>94.0</ele><time>2026-04-04T09:39:52.002Z</time></trkpt><trkpt lat="44.12765775099708" lon="12.058083779763926"><ele>94.0</ele><time>2026-04-04T09:39:53.002Z</time></trkpt><trkpt lat="44.127713644207056" lon="12.058198109362953"><ele>94.0</ele><time>2026-04-04T09:39:54.003Z</time></trkpt><trkpt lat="44.12777463787567" lon="12.058305776599648"><ele>94.0</ele><time>2026-04-04T09:39:55.003Z</time></trkpt><trkpt lat="44.12783401599704" lon="12.058407757250043"><ele>94.0</ele><time>2026-04-04T09:39:56.003Z</time></trkpt><trkpt lat="44.127885648486526" lon="12.058505871653145"><ele>91.83333333333333</ele><time>2026-04-04T09:39:57.003Z</time></trkpt><trkpt lat="44.127924547185216" lon="12.05859154900997"><ele>89.66666666666666</ele><time>2026-04-04T09:39:58.003Z</time></trkpt><trkpt lat="44.127941688528985" lon="12.058677767297995"><ele>87.5</ele><time>2026-04-04T09:39:59.003Z</time></trkpt><trkpt lat="44.12794645573384" lon="12.05878758268969"><ele>85.33333333333333</ele><time>2026-04-04T09:40:01.003Z</time></trkpt><trkpt lat="44.12794251450939" lon="12.058883432334838"><ele>83.16666666666667</ele><time>2026-04-04T09:40:03.003Z</time></trkpt><trkpt lat="44.127791990597515" lon="12.058891085365333"><ele>81.0</ele><time>2026-04-04T09:40:06.003Z</time></trkpt><trkpt lat="44.12770176196557" lon="12.058895111482126"><ele>81.0</ele><time>2026-04-04T09:40:08.003Z</time></trkpt><trkpt lat="44.12763728748301" lon="12.058863921076174"><ele>81.0</ele><time>2026-04-04T09:40:09.003Z</time></trkpt><trkpt lat="44.12757210505052" lon="12.058830589226154"><ele>81.0</ele><time>2026-04-04T09:40:10.003Z</time></trkpt><trkpt lat="44.127492319182174" lon="12.058801528515538"><ele>81.0</ele><time>2026-04-04T09:40:11.003Z</time></trkpt><trkpt lat="44.12740543574516" lon="12.058779320194601"><ele>81.0</ele><time>2026-04-04T09:40:12.003Z</time></trkpt><trkpt lat="44.12730610812533" lon="12.058754416065756"><ele>81.0</ele><time>2026-04-04T09:40:13.003Z</time></trkpt><trkpt lat="44.12720648182618" lon="12.058727140392552"><ele>79.8</ele><time>2026-04-04T09:40:14.003Z</time></trkpt><trkpt lat="44.127105987900016" lon="12.058697274818321"><ele>78.6</ele><time>2026-04-04T09:40:15.003Z</time></trkpt><trkpt lat="44.12700067536275" lon="12.058657055102733"><ele>77.4</ele><time>2026-04-04T09:40:16.003Z</time></trkpt><trkpt lat="44.12689312711682" lon="12.058621434763655"><ele>76.2</ele><time>2026-04-04T09:40:17.003Z</time></trkpt><trkpt lat="44.126779310608704" lon="12.058584725935551"><ele>75.0</ele><time>2026-04-04T09:40:18.003Z</time></trkpt><trkpt lat="44.126669762702505" lon="12.058543710767058"><ele>74.25</ele><time>2026-04-04T09:40:19.003Z</time></trkpt><trkpt lat="44.12655297158873" lon="12.058497474098566"><ele>73.5</ele><time>2026-04-04T09:40:20.003Z</time></trkpt><trkpt lat="44.12642854242868" lon="12.05846198122023"><ele>72.75</ele><time>2026-04-04T09:40:21.003Z</time></trkpt><trkpt lat="44.12630826109842" lon="12.058427190812912"><ele>72.0</ele><time>2026-04-04T09:40:22.003Z</time></trkpt><trkpt lat="44.12618242526805" lon="12.058403305950074"><ele>72.0</ele><time>2026-04-04T09:40:23Z</time></trkpt><trkpt lat="44.126059981788806" lon="12.058387786695853"><ele>72.0</ele><time>2026-04-04T09:40:24Z</time></trkpt><trkpt lat="44.12593604822166" lon="12.058378515460358"><ele>72.0</ele><time>2026-04-04T09:40:25Z</time></trkpt><trkpt lat="44.12581583699745" lon="12.058375080993518"><ele>72.0</ele><time>2026-04-04T09:40:26Z</time></trkpt><trkpt lat="44.12569386528847" lon="12.058373532062811"><ele>72.75</ele><time>2026-04-04T09:40:27Z</time></trkpt><trkpt lat="44.12557301064903" lon="12.05838666447205"><ele>73.5</ele><time>2026-04-04T09:40:28Z</time></trkpt><trkpt lat="44.12544551674889" lon="12.058406628916197"><ele>74.25</ele><time>2026-04-04T09:40:29Z</time></trkpt><trkpt lat="44.12531836963483" lon="12.058441438273352"><ele>75.0</ele><time>2026-04-04T09:40:30Z</time></trkpt><trkpt lat="44.12518953959493" lon="12.058481716716742"><ele>75.0</ele><time>2026-04-04T09:40:31Z</time></trkpt><trkpt lat="44.12506071601284" lon="12.058522096435441"><ele>75.0</ele><time>2026-04-04T09:40:32Z</time></trkpt><trkpt lat="44.124930180831065" lon="12.058575191701358"><ele>75.0</ele><time>2026-04-04T09:40:33Z</time></trkpt><trkpt lat="44.12479855956729" lon="12.058617393598807"><ele>75.0</ele><time>2026-04-04T09:40:34Z</time></trkpt><trkpt lat="44.12466895275534" lon="12.058668016279382"><ele>75.5</ele><time>2026-04-04T09:40:35Z</time></trkpt><trkpt lat="44.12453176298718" lon="12.058708840178827"><ele>76.0</ele><time>2026-04-04T09:40:36Z</time></trkpt><trkpt lat="44.124395031410614" lon="12.058759428755197"><ele>76.5</ele><time>2026-04-04T09:40:37Z</time></trkpt><trkpt lat="44.124260407091654" lon="12.058817195272658"><ele>77.0</ele><time>2026-04-04T09:40:38Z</time></trkpt><trkpt lat="44.12413330815491" lon="12.058855802157938"><ele>77.25</ele><time>2026-04-04T09:40:39Z</time></trkpt><trkpt lat="44.12400504590844" lon="12.058902507737221"><ele>77.5</ele><time>2026-04-04T09:40:40Z</time></trkpt><trkpt lat="44.123886316318" lon="12.058946067975855"><ele>77.75</ele><time>2026-04-04T09:40:41Z</time></trkpt><trkpt lat="44.12377412163517" lon="12.058987751114408"><ele>78.0</ele><time>2026-04-04T09:40:42Z</time></trkpt><trkpt lat="44.123674006091186" lon="12.059028398564154"><ele>78.0</ele><time>2026-04-04T09:40:43Z</time></trkpt><trkpt lat="44.12357383666959" lon="12.059043775049386"><ele>78.0</ele><time>2026-04-04T09:40:44Z</time></trkpt><trkpt lat="44.12346823179804" lon="12.059089315957937"><ele>78.0</ele><time>2026-04-04T09:40:45Z</time></trkpt><trkpt lat="44.12337508934216" lon="12.059127977367673"><ele>78.0</ele><time>2026-04-04T09:40:46Z</time></trkpt><trkpt lat="44.12327250477484" lon="12.059163530759244"><ele>78.0</ele><time>2026-04-04T09:40:47Z</time></trkpt><trkpt lat="44.123174619198196" lon="12.059197772539854"><ele>76.6</ele><time>2026-04-04T09:40:48Z</time></trkpt><trkpt lat="44.12308252090011" lon="12.059223186160342"><ele>75.19999999999999</ele><time>2026-04-04T09:40:49Z</time></trkpt><trkpt lat="44.12295209121794" lon="12.059245030875163"><ele>73.8</ele><time>2026-04-04T09:40:50Z</time></trkpt><trkpt lat="44.12284630108782" lon="12.059283669380811"><ele>72.39999999999999</ele><time>2026-04-04T09:40:51Z</time></trkpt><trkpt lat="44.122740235531296" lon="12.059298021519188"><ele>71.0</ele><time>2026-04-04T09:40:52.001Z</time></trkpt><trkpt lat="44.12262314831269" lon="12.059306791207483"><ele>71.0</ele><time>2026-04-04T09:40:53.001Z</time></trkpt><trkpt lat="44.122508749031425" lon="12.05931750948197"><ele>71.0</ele><time>2026-04-04T09:40:54.001Z</time></trkpt><trkpt lat="44.12238199090082" lon="12.059338371216455"><ele>71.0</ele><time>2026-04-04T09:40:55.001Z</time></trkpt><trkpt lat="44.12225948885867" lon="12.059329662554301"><ele>71.0</ele><time>2026-04-04T09:40:56.001Z</time></trkpt><trkpt lat="44.12213106300156" lon="12.059343854641732"><ele>70.75</ele><time>2026-04-04T09:40:57.001Z</time></trkpt><trkpt lat="44.122000035169286" lon="12.059355781056322"><ele>70.5</ele><time>2026-04-04T09:40:58.001Z</time></trkpt><trkpt lat="44.12187209334257" lon="12.059370009652536"><ele>70.25</ele><time>2026-04-04T09:40:59.001Z</time></trkpt><trkpt lat="44.12174446887065" lon="12.059360112488214"><ele>70.0</ele><time>2026-04-04T09:41:00.001Z</time></trkpt><trkpt lat="44.12161140435309" lon="12.059376861728861"><ele>69.25</ele><time>2026-04-04T09:41:01.001Z</time></trkpt><trkpt lat="44.121482372738896" lon="12.05938308999497"><ele>68.5</ele><time>2026-04-04T09:41:02.001Z</time></trkpt><trkpt lat="44.121357524886385" lon="12.059394009129749"><ele>67.75</ele><time>2026-04-04T09:41:03.001Z</time></trkpt><trkpt lat="44.121236711387944" lon="12.059403020069393"><ele>67.0</ele><time>2026-04-04T09:41:04.001Z</time></trkpt><trkpt lat="44.12111062872132" lon="12.059408215082914"><ele>67.0</ele><time>2026-04-04T09:41:05.001Z</time></trkpt><trkpt lat="44.12098618019535" lon="12.059409086025513"><ele>67.0</ele><time>2026-04-04T09:41:06.001Z</time></trkpt><trkpt lat="44.12086485416028" lon="12.059395857201503"><ele>67.0</ele><time>2026-04-04T09:41:07.001Z</time></trkpt><trkpt lat="44.120750488773915" lon="12.059376106652849"><ele>67.0</ele><time>2026-04-04T09:41:08.001Z</time></trkpt><trkpt lat="44.12064591120711" lon="12.05935938709086"><ele>66.5</ele><time>2026-04-04T09:41:09.001Z</time></trkpt><trkpt lat="44.120528569847664" lon="12.059337472354384"><ele>66.0</ele><time>2026-04-04T09:41:10.001Z</time></trkpt><trkpt lat="44.120417301678344" lon="12.05931411367038"><ele>65.5</ele><time>2026-04-04T09:41:11.001Z</time></trkpt><trkpt lat="44.12031032321311" lon="12.059278622765712"><ele>65.0</ele><time>2026-04-04T09:41:12.001Z</time></trkpt><trkpt lat="44.120197677835094" lon="12.059242452743048"><ele>65.0</ele><time>2026-04-04T09:41:13.001Z</time></trkpt><trkpt lat="44.12009480451085" lon="12.059201731967322"><ele>65.0</ele><time>2026-04-04T09:41:14.001Z</time></trkpt><trkpt lat="44.11990584977154" lon="12.059109468517201"><ele>65.0</ele><time>2026-04-04T09:41:16.001Z</time></trkpt><trkpt lat="44.119820907676385" lon="12.059049326056805"><ele>65.0</ele><time>2026-04-04T09:41:17.001Z</time></trkpt><trkpt lat="44.11974838424479" lon="12.05896703499385"><ele>65.5</ele><time>2026-04-04T09:41:18.001Z</time></trkpt><trkpt lat="44.11967938482667" lon="12.058889301189119"><ele>66.0</ele><time>2026-04-04T09:41:19.001Z</time></trkpt><trkpt lat="44.1196162061292" lon="12.058816676606503"><ele>66.5</ele><time>2026-04-04T09:41:20.001Z</time></trkpt><trkpt lat="44.11955620824532" lon="12.05874851865434"><ele>67.0</ele><time>2026-04-04T09:41:21.002Z</time></trkpt><trkpt lat="44.1194671298084" lon="12.058663915067264"><ele>67.5</ele><time>2026-04-04T09:41:23.002Z</time></trkpt><trkpt lat="44.119388824919206" lon="12.058666338959348"><ele>68.0</ele><time>2026-04-04T09:41:26.002Z</time></trkpt><trkpt lat="44.11936057970812" lon="12.058758084782042"><ele>68.0</ele><time>2026-04-04T09:41:28.002Z</time></trkpt><trkpt lat="44.119402197052786" lon="12.058866040998167"><ele>68.0</ele><time>2026-04-04T09:41:30.002Z</time></trkpt><trkpt lat="44.11947199595019" lon="12.058933830329797"><ele>68.0</ele><time>2026-04-04T09:41:32.002Z</time></trkpt><trkpt lat="44.119526383641535" lon="12.058981173797125"><ele>68.0</ele><time>2026-04-04T09:42:18.003Z</time></trkpt><trkpt lat="44.119600630036096" lon="12.059039764995582"><ele>68.0</ele><time>2026-04-04T09:42:21.003Z</time></trkpt><trkpt lat="44.119672824401114" lon="12.059104917516661"><ele>68.0</ele><time>2026-04-04T09:42:23.003Z</time></trkpt><trkpt lat="44.11974705860182" lon="12.059178322608563"><ele>67.4</ele><time>2026-04-04T09:42:25.003Z</time></trkpt><trkpt lat="44.11983564209601" lon="12.059239773681572"><ele>66.8</ele><time>2026-04-04T09:42:27.004Z</time></trkpt><trkpt lat="44.11992663834689" lon="12.059298088042487"><ele>66.2</ele><time>2026-04-04T09:42:29Z</time></trkpt><trkpt lat="44.120025412003095" lon="12.059360692469705"><ele>65.6</ele><time>2026-04-04T09:42:31Z</time></trkpt><trkpt lat="44.120128409971976" lon="12.059403530142468"><ele>65.0</ele><time>2026-04-04T09:42:33Z</time></trkpt><trkpt lat="44.12025083714366" lon="12.059447104271223"><ele>65.00000000000001</ele><time>2026-04-04T09:42:35Z</time></trkpt><trkpt lat="44.12031341473585" lon="12.059471586720111"><ele>65.0</ele><time>2026-04-04T09:42:36Z</time></trkpt><trkpt lat="44.12037856373248" lon="12.059496543696197"><ele>65.0</ele><time>2026-04-04T09:42:37Z</time></trkpt><trkpt lat="44.12044330163518" lon="12.05952188604788"><ele>65.0</ele><time>2026-04-04T09:42:38Z</time></trkpt><trkpt lat="44.120507727967684" lon="12.059549504463835"><ele>65.0</ele><time>2026-04-04T09:42:39Z</time></trkpt><trkpt lat="44.12057781968574" lon="12.059575806651697"><ele>65.00000000000001</ele><time>2026-04-04T09:42:40Z</time></trkpt><trkpt lat="44.12064900775322" lon="12.059600613507131"><ele>65.0</ele><time>2026-04-04T09:42:41Z</time></trkpt><trkpt lat="44.12071751338445" lon="12.059625400103686"><ele>65.28571428571429</ele><time>2026-04-04T09:42:42Z</time></trkpt><trkpt lat="44.12078776045014" lon="12.05965452828117"><ele>65.57142857142857</ele><time>2026-04-04T09:42:43Z</time></trkpt><trkpt lat="44.120854304090194" lon="12.059683311131751"><ele>65.85714285714286</ele><time>2026-04-04T09:42:44Z</time></trkpt><trkpt lat="44.12092767881059" lon="12.05971716190894"><ele>66.14285714285714</ele><time>2026-04-04T09:42:45Z</time></trkpt><trkpt lat="44.12099927860355" lon="12.059742220664711"><ele>66.42857142857143</ele><time>2026-04-04T09:42:46Z</time></trkpt><trkpt lat="44.121072845388305" lon="12.059767933207326"><ele>66.71428571428572</ele><time>2026-04-04T09:42:47Z</time></trkpt><trkpt lat="44.121148704929055" lon="12.059792671412499"><ele>67.0</ele><time>2026-04-04T09:42:48Z</time></trkpt><trkpt lat="44.12121788429188" lon="12.05982359146474"><ele>67.0</ele><time>2026-04-04T09:42:49Z</time></trkpt><trkpt lat="44.121288318865375" lon="12.059849859317527"><ele>67.0</ele><time>2026-04-04T09:42:50Z</time></trkpt><trkpt lat="44.12135999706377" lon="12.059873846092293"><ele>67.0</ele><time>2026-04-04T09:42:51Z</time></trkpt><trkpt lat="44.121429276590746" lon="12.059898272787189"><ele>67.0</ele><time>2026-04-04T09:42:52Z</time></trkpt><trkpt lat="44.12149844735395" lon="12.059918554195255"><ele>67.0</ele><time>2026-04-04T09:42:53Z</time></trkpt><trkpt lat="44.121568010003244" lon="12.059945261974905"><ele>67.0</ele><time>2026-04-04T09:42:54Z</time></trkpt><trkpt lat="44.121636413947385" lon="12.059978998428564"><ele>67.0</ele><time>2026-04-04T09:42:55Z</time></trkpt><trkpt lat="44.121699224663104" lon="12.060002907876832"><ele>65.6</ele><time>2026-04-04T09:42:56Z</time></trkpt><trkpt lat="44.12181076036176" lon="12.060042911393897"><ele>64.2</ele><time>2026-04-04T09:42:58Z</time></trkpt><trkpt lat="44.121889817859326" lon="12.060082235475832"><ele>62.8</ele><time>2026-04-04T09:43:00Z</time></trkpt><trkpt lat="44.12197417171687" lon="12.060152354680342"><ele>61.4</ele><time>2026-04-04T09:43:03Z</time></trkpt><trkpt lat="44.12204082714282" lon="12.060142441775225"><ele>60.0</ele><time>2026-04-04T09:43:05Z</time></trkpt><trkpt lat="44.12205259248289" lon="12.060312431139563"><ele>60.0</ele><time>2026-04-04T09:45:25.001Z</time></trkpt><trkpt lat="44.12201471627746" lon="12.060393845336254"><ele>60.0</ele><time>2026-04-04T09:45:31.001Z</time></trkpt><trkpt lat="44.121995467987155" lon="12.060298703167904"><ele>60.0</ele><time>2026-04-04T09:45:36.001Z</time></trkpt><trkpt lat="44.12203590440026" lon="12.060179395575725"><ele>60.0</ele><time>2026-04-04T09:45:37.001Z</time></trkpt><trkpt lat="44.1219718546356" lon="12.060225229953607"><ele>60.0</ele><time>2026-04-04T09:47:40.001Z</time></trkpt><trkpt lat="44.12205259650948" lon="12.06027214934457"><ele>60.0</ele><time>2026-04-04T09:48:15.002Z</time></trkpt><trkpt lat="44.122044078091825" lon="12.060131474828601"><ele>60.0</ele><time>2026-04-04T09:48:39.003Z</time></trkpt><trkpt lat="44.121994470328964" lon="12.060075323038163"><ele>60.0</ele><time>2026-04-04T09:48:56.001Z</time></trkpt><trkpt lat="44.12201650583589" lon="12.060158620439099"><ele>60.0</ele><time>2026-04-04T09:49:00.001Z</time></trkpt><trkpt lat="44.12212489000677" lon="12.060199131007371"><ele>60.0</ele><time>2026-04-04T09:49:31.001Z</time></trkpt><trkpt lat="44.12204267588668" lon="12.060206953730598"><ele>60.0</ele><time>2026-04-04T09:49:33.001Z</time></trkpt><trkpt lat="44.12202834434173" lon="12.060102958266363"><ele>60.0</ele><time>2026-04-04T09:49:39.001Z</time></trkpt><trkpt lat="44.122052649001986" lon="12.06024317107829"><ele>60.0</ele><time>2026-04-04T09:49:50.001Z</time></trkpt><trkpt lat="44.1221068068729" lon="12.060298646726459"><ele>60.0</ele><time>2026-04-04T09:51:09.001Z</time></trkpt><trkpt lat="44.12206364290327" lon="12.060096613134204"><ele>60.0</ele><time>2026-04-04T09:51:38.001Z</time></trkpt><trkpt lat="44.121999653706354" lon="12.060078039480851"><ele>60.0</ele><time>2026-04-04T09:51:40.001Z</time></trkpt><trkpt lat="44.12207003005582" lon="12.060143404034921"><ele>60.0</ele><time>2026-04-04T09:52:02.001Z</time></trkpt><trkpt lat="44.12202249485209" lon="12.060227981610845"><ele>60.0</ele><time>2026-04-04T10:04:24Z</time></trkpt><trkpt lat="44.12194367475223" lon="12.060195392028923"><ele>60.0</ele><time>2026-04-04T10:04:28Z</time></trkpt><trkpt lat="44.121887263883636" lon="12.060258357993796"><ele>60.0</ele><time>2026-04-04T10:04:30Z</time></trkpt><trkpt lat="44.1218860023398" lon="12.060382575313945"><ele>60.0</ele><time>2026-04-04T10:04:32Z</time></trkpt><trkpt lat="44.12188189057315" lon="12.060509498861528"><ele>60.0</ele><time>2026-04-04T10:04:34Z</time></trkpt><trkpt lat="44.12186997165982" lon="12.060649798627718"><ele>60.0</ele><time>2026-04-04T10:04:36Z</time></trkpt><trkpt lat="44.12185510239509" lon="12.060809761792378"><ele>59.0</ele><time>2026-04-04T10:04:38Z</time></trkpt><trkpt lat="44.12185038724297" lon="12.060898423281655"><ele>58.0</ele><time>2026-04-04T10:04:39Z</time></trkpt><trkpt lat="44.121840444359854" lon="12.061063522834901"><ele>57.0</ele><time>2026-04-04T10:04:41Z</time></trkpt><trkpt lat="44.12182903474351" lon="12.061217953229603"><ele>56.0</ele><time>2026-04-04T10:04:43Z</time></trkpt><trkpt lat="44.12182863046163" lon="12.061319376471138"><ele>55.0</ele><time>2026-04-04T10:04:45Z</time></trkpt><trkpt lat="44.121788099689354" lon="12.06142387539183"><ele>55.0</ele><time>2026-04-04T10:04:47Z</time></trkpt><trkpt lat="44.12166417473641" lon="12.061490257080855"><ele>55.0</ele><time>2026-04-04T10:04:49Z</time></trkpt><trkpt lat="44.12158403239346" lon="12.061501639319296"><ele>55.0</ele><time>2026-04-04T10:04:50Z</time></trkpt><trkpt lat="44.121514775820536" lon="12.06155104115423"><ele>55.0</ele><time>2026-04-04T10:04:51Z</time></trkpt><trkpt lat="44.121441988294734" lon="12.06160380586011"><ele>55.0</ele><time>2026-04-04T10:04:52.001Z</time></trkpt><trkpt lat="44.121365259417296" lon="12.061660144564186"><ele>54.99999999999999</ele><time>2026-04-04T10:04:53.001Z</time></trkpt><trkpt lat="44.121287720710974" lon="12.061717077945122"><ele>55.0</ele><time>2026-04-04T10:04:54.001Z</time></trkpt><trkpt lat="44.121206559236356" lon="12.06177667125856"><ele>55.0</ele><time>2026-04-04T10:04:55.001Z</time></trkpt><trkpt lat="44.12112140257852" lon="12.06183585028685"><ele>55.0</ele><time>2026-04-04T10:04:56.001Z</time></trkpt><trkpt lat="44.121037706737724" lon="12.061895505341003"><ele>54.99999999999999</ele><time>2026-04-04T10:04:57.001Z</time></trkpt><trkpt lat="44.120973867455966" lon="12.061957059221825"><ele>55.0</ele><time>2026-04-04T10:04:58.001Z</time></trkpt><trkpt lat="44.12091996938032" lon="12.062015055530603"><ele>54.99999999999999</ele><time>2026-04-04T10:04:59.001Z</time></trkpt><trkpt lat="44.12084743321328" lon="12.062099743158582"><ele>55.0</ele><time>2026-04-04T10:05:01.001Z</time></trkpt><trkpt lat="44.12079792734093" lon="12.06215754401037"><ele>55.0</ele><time>2026-04-04T10:05:04.001Z</time></trkpt><trkpt lat="44.120820525584456" lon="12.062262889671398"><ele>55.0</ele><time>2026-04-04T10:05:06.001Z</time></trkpt><trkpt lat="44.120870694949005" lon="12.062325990541998"><ele>54.99999999999999</ele><time>2026-04-04T10:05:08.001Z</time></trkpt><trkpt lat="44.12093097099102" lon="12.06237688226232"><ele>55.0</ele><time>2026-04-04T10:05:10.001Z</time></trkpt><trkpt lat="44.12097133146848" lon="12.062465516413512"><ele>55.666666666666664</ele><time>2026-04-04T10:05:12.001Z</time></trkpt><trkpt lat="44.12101545658382" lon="12.062608399363798"><ele>56.33333333333333</ele><time>2026-04-04T10:05:14.001Z</time></trkpt><trkpt lat="44.121038245483106" lon="12.062694483985258"><ele>57.0</ele><time>2026-04-04T10:05:15.001Z</time></trkpt><trkpt lat="44.121063353004565" lon="12.062791022164543"><ele>57.66666666666667</ele><time>2026-04-04T10:05:16.001Z</time></trkpt><trkpt lat="44.12108650415507" lon="12.062877015660307"><ele>58.333333333333336</ele><time>2026-04-04T10:05:17.001Z</time></trkpt><trkpt lat="44.12111206767192" lon="12.062964725954417"><ele>59.0</ele><time>2026-04-04T10:05:18.001Z</time></trkpt><trkpt lat="44.1211308974576" lon="12.063053067838903"><ele>59.0</ele><time>2026-04-04T10:05:19.001Z</time></trkpt><trkpt lat="44.121166399307015" lon="12.063197104435737"><ele>59.00000000000001</ele><time>2026-04-04T10:05:21.001Z</time></trkpt><trkpt lat="44.12119427692706" lon="12.063313269212603"><ele>59.00000000000001</ele><time>2026-04-04T10:05:23.001Z</time></trkpt><trkpt lat="44.12123395868489" lon="12.063444227435815"><ele>59.0</ele><time>2026-04-04T10:05:25.001Z</time></trkpt><trkpt lat="44.121265989984536" lon="12.06357394798511"><ele>59.0</ele><time>2026-04-04T10:05:27.001Z</time></trkpt><trkpt lat="44.12129291322311" lon="12.063673578444917"><ele>59.00000000000001</ele><time>2026-04-04T10:05:30.001Z</time></trkpt><trkpt lat="44.12127540022378" lon="12.063570812795275"><ele>59.0</ele><time>2026-04-04T10:05:36.997Z</time></trkpt><trkpt lat="44.12124365673266" lon="12.06344892403731"><ele>59.0</ele><time>2026-04-04T10:05:39.997Z</time></trkpt><trkpt lat="44.12121569253666" lon="12.063341547155575"><ele>59.0</ele><time>2026-04-04T10:05:41.997Z</time></trkpt><trkpt lat="44.12118368229673" lon="12.06321863325564"><ele>59.00000000000001</ele><time>2026-04-04T10:05:43.997Z</time></trkpt><trkpt lat="44.12114956890761" lon="12.063087645030713"><ele>59.0</ele><time>2026-04-04T10:05:45.998Z</time></trkpt><trkpt lat="44.12111466318726" lon="12.062953613086139"><ele>59.0</ele><time>2026-04-04T10:05:47.998Z</time></trkpt><trkpt lat="44.12107607150671" lon="12.062809736555941"><ele>59.0</ele><time>2026-04-04T10:05:49.998Z</time></trkpt><trkpt lat="44.12103594679118" lon="12.062659143562028"><ele>59.0</ele><time>2026-04-04T10:05:51.998Z</time></trkpt><trkpt lat="44.12099416321781" lon="12.062508485992462"><ele>59.0</ele><time>2026-04-04T10:05:53.998Z</time></trkpt><trkpt lat="44.120954365176445" lon="12.062366233771233"><ele>59.0</ele><time>2026-04-04T10:05:55.998Z</time></trkpt><trkpt lat="44.12092095390583" lon="12.062257835669776"><ele>59.0</ele><time>2026-04-04T10:05:57.998Z</time></trkpt><trkpt lat="44.120875471356804" lon="12.062169119139952"><ele>59.0</ele><time>2026-04-04T10:06:01.999Z</time></trkpt><trkpt lat="44.12078575038115" lon="12.062562849797821"><ele>59.00000000000001</ele><time>2026-04-04T10:06:11.999Z</time></trkpt><trkpt lat="44.12075904817525" lon="12.062665151239147"><ele>59.0</ele><time>2026-04-04T10:06:14.999Z</time></trkpt><trkpt lat="44.120733833445044" lon="12.062783360169131"><ele>59.0</ele><time>2026-04-04T10:06:19.999Z</time></trkpt><trkpt lat="44.12071204921445" lon="12.062878598970663"><ele>59.0</ele><time>2026-04-04T10:06:21.999Z</time></trkpt><trkpt lat="44.12068551680452" lon="12.062992752288544"><ele>59.00000000000001</ele><time>2026-04-04T10:06:25Z</time></trkpt><trkpt lat="44.12066478048544" lon="12.063080771494835"><ele>59.0</ele><time>2026-04-04T10:06:41Z</time></trkpt><trkpt lat="44.120640794980005" lon="12.063176717241907"><ele>59.6</ele><time>2026-04-04T10:06:42Z</time></trkpt><trkpt lat="44.120611083495135" lon="12.063283745945778"><ele>60.2</ele><time>2026-04-04T10:06:43Z</time></trkpt><trkpt lat="44.12055992679897" lon="12.063444222119305"><ele>60.800000000000004</ele><time>2026-04-04T10:06:45Z</time></trkpt><trkpt lat="44.12050289921166" lon="12.063509588157446"><ele>61.400000000000006</ele><time>2026-04-04T10:06:46Z</time></trkpt><trkpt lat="44.12044183493695" lon="12.063581659562756"><ele>62.0</ele><time>2026-04-04T10:06:47Z</time></trkpt><trkpt lat="44.1203751411232" lon="12.063668276783298"><ele>62.0</ele><time>2026-04-04T10:06:48Z</time></trkpt><trkpt lat="44.12031035375059" lon="12.063754876026218"><ele>62.0</ele><time>2026-04-04T10:06:49Z</time></trkpt><trkpt lat="44.12024067664344" lon="12.063853284837904"><ele>62.0</ele><time>2026-04-04T10:06:50Z</time></trkpt><trkpt lat="44.12017171529614" lon="12.063948029915299"><ele>62.0</ele><time>2026-04-04T10:06:51Z</time></trkpt><trkpt lat="44.120098171142914" lon="12.064054501035299"><ele>62.0</ele><time>2026-04-04T10:06:52Z</time></trkpt><trkpt lat="44.120067426423255" lon="12.064190369586788"><ele>62.400000000000006</ele><time>2026-04-04T10:06:53Z</time></trkpt><trkpt lat="44.120042924305835" lon="12.06431475233015"><ele>62.800000000000004</ele><time>2026-04-04T10:06:54Z</time></trkpt><trkpt lat="44.12000952885563" lon="12.0645387260145"><ele>63.2</ele><time>2026-04-04T10:06:56Z</time></trkpt><trkpt lat="44.11995851723179" lon="12.064611547769832"><ele>63.6</ele><time>2026-04-04T10:06:57Z</time></trkpt><trkpt lat="44.1199001570522" lon="12.064717320587958"><ele>64.0</ele><time>2026-04-04T10:06:58Z</time></trkpt><trkpt lat="44.11984400761116" lon="12.064812795089537"><ele>63.0</ele><time>2026-04-04T10:06:59Z</time></trkpt><trkpt lat="44.119784462929374" lon="12.064927465021308"><ele>62.0</ele><time>2026-04-04T10:07:00Z</time></trkpt><trkpt lat="44.11972783597069" lon="12.065039372998026"><ele>61.0</ele><time>2026-04-04T10:07:01Z</time></trkpt><trkpt lat="44.11966053613401" lon="12.065182000099684"><ele>60.0</ele><time>2026-04-04T10:07:02Z</time></trkpt><trkpt lat="44.11956841679724" lon="12.065446598684014"><ele>60.0</ele><time>2026-04-04T10:07:03Z</time></trkpt><trkpt lat="44.11948003683617" lon="12.06559748141427"><ele>60.0</ele><time>2026-04-04T10:07:04Z</time></trkpt><trkpt lat="44.11939427632082" lon="12.065727552678926"><ele>60.0</ele><time>2026-04-04T10:07:05Z</time></trkpt><trkpt lat="44.11913153016281" lon="12.065726608713202"><ele>60.6</ele><time>2026-04-04T10:07:06Z</time></trkpt><trkpt lat="44.11908859009582" lon="12.065867393725817"><ele>61.2</ele><time>2026-04-04T10:07:07.001Z</time></trkpt><trkpt lat="44.11904440779936" lon="12.066008038683815"><ele>61.8</ele><time>2026-04-04T10:07:08.001Z</time></trkpt><trkpt lat="44.11900173472579" lon="12.066145561276373"><ele>62.4</ele><time>2026-04-04T10:07:09.001Z</time></trkpt><trkpt lat="44.118959941910475" lon="12.066283148164775"><ele>63.0</ele><time>2026-04-04T10:07:10.001Z</time></trkpt><trkpt lat="44.118915268536945" lon="12.066418900750367"><ele>62.4</ele><time>2026-04-04T10:07:11.001Z</time></trkpt><trkpt lat="44.118867431583375" lon="12.06655012210269"><ele>61.8</ele><time>2026-04-04T10:07:12.001Z</time></trkpt><trkpt lat="44.11881993279117" lon="12.066681653795388"><ele>61.2</ele><time>2026-04-04T10:07:13.001Z</time></trkpt><trkpt lat="44.1187709048281" lon="12.066811352778796"><ele>60.6</ele><time>2026-04-04T10:07:14.001Z</time></trkpt><trkpt lat="44.118717696974876" lon="12.06693681937999"><ele>60.0</ele><time>2026-04-04T10:07:15.001Z</time></trkpt><trkpt lat="44.11866549224115" lon="12.067058524271086"><ele>60.0</ele><time>2026-04-04T10:07:16.001Z</time></trkpt><trkpt lat="44.11860374915712" lon="12.067169552393361"><ele>60.0</ele><time>2026-04-04T10:07:17.001Z</time></trkpt><trkpt lat="44.11853621920105" lon="12.067280159900974"><ele>60.0</ele><time>2026-04-04T10:07:18.001Z</time></trkpt><trkpt lat="44.11846774085176" lon="12.0673793246554"><ele>60.0</ele><time>2026-04-04T10:07:19.001Z</time></trkpt><trkpt lat="44.118390072292094" lon="12.067468284028879"><ele>60.0</ele><time>2026-04-04T10:07:20.001Z</time></trkpt><trkpt lat="44.11830976928132" lon="12.067550776324227"><ele>60.2</ele><time>2026-04-04T10:07:21.001Z</time></trkpt><trkpt lat="44.118225964937146" lon="12.067627513315838"><ele>60.4</ele><time>2026-04-04T10:07:22.001Z</time></trkpt><trkpt lat="44.118141236346844" lon="12.067702920750202"><ele>60.599999999999994</ele><time>2026-04-04T10:07:23.001Z</time></trkpt><trkpt lat="44.11805547709378" lon="12.067774356285682"><ele>60.8</ele><time>2026-04-04T10:07:24.001Z</time></trkpt><trkpt lat="44.11796674230283" lon="12.067843392074602"><ele>61.0</ele><time>2026-04-04T10:07:25.001Z</time></trkpt><trkpt lat="44.11787340051352" lon="12.067912980165802"><ele>61.0</ele><time>2026-04-04T10:07:26.001Z</time></trkpt><trkpt lat="44.11777240663567" lon="12.06798672821305"><ele>61.0</ele><time>2026-04-04T10:07:27.001Z</time></trkpt><trkpt lat="44.11766939406388" lon="12.068060726464223"><ele>61.0</ele><time>2026-04-04T10:07:28.001Z</time></trkpt><trkpt lat="44.117565891578174" lon="12.068137430485823"><ele>61.0</ele><time>2026-04-04T10:07:29.001Z</time></trkpt><trkpt lat="44.11746004218182" lon="12.068225269718049"><ele>62.0</ele><time>2026-04-04T10:07:30.001Z</time></trkpt><trkpt lat="44.1173503969755" lon="12.068311657466863"><ele>63.0</ele><time>2026-04-04T10:07:31.001Z</time></trkpt><trkpt lat="44.11723546213475" lon="12.06839428915065"><ele>64.0</ele><time>2026-04-04T10:07:32.001Z</time></trkpt><trkpt lat="44.117115518416135" lon="12.068480793078983"><ele>65.0</ele><time>2026-04-04T10:07:33.001Z</time></trkpt><trkpt lat="44.11699400772863" lon="12.068567363043325"><ele>65.0</ele><time>2026-04-04T10:07:34.001Z</time></trkpt><trkpt lat="44.116869075097696" lon="12.068649414679571"><ele>65.0</ele><time>2026-04-04T10:07:35.001Z</time></trkpt><trkpt lat="44.116745062362796" lon="12.068724829029335"><ele>65.0</ele><time>2026-04-04T10:07:36.001Z</time></trkpt><trkpt lat="44.116621967207365" lon="12.068797878029423"><ele>65.0</ele><time>2026-04-04T10:07:37.001Z</time></trkpt><trkpt lat="44.11650613346186" lon="12.068871051914858"><ele>64.75</ele><time>2026-04-04T10:07:38.001Z</time></trkpt><trkpt lat="44.11639146913134" lon="12.068939832791886"><ele>64.5</ele><time>2026-04-04T10:07:39.001Z</time></trkpt><trkpt lat="44.11627789580346" lon="12.069006645881588"><ele>64.25</ele><time>2026-04-04T10:07:40.001Z</time></trkpt><trkpt lat="44.11616354976477" lon="12.069076634302737"><ele>64.0</ele><time>2026-04-04T10:07:40.996Z</time></trkpt><trkpt lat="44.116046868888816" lon="12.069140202343332"><ele>66.25</ele><time>2026-04-04T10:07:41.996Z</time></trkpt><trkpt lat="44.11593314039782" lon="12.069206846782054"><ele>68.5</ele><time>2026-04-04T10:07:42.996Z</time></trkpt><trkpt lat="44.115822637994846" lon="12.069269760598765"><ele>70.75</ele><time>2026-04-04T10:07:43.996Z</time></trkpt><trkpt lat="44.11570650970768" lon="12.069316692752155"><ele>73.0</ele><time>2026-04-04T10:07:44.996Z</time></trkpt><trkpt lat="44.11558726033682" lon="12.06934290556413"><ele>73.0</ele><time>2026-04-04T10:07:45.996Z</time></trkpt><trkpt lat="44.11547525108036" lon="12.069367919871919"><ele>73.0</ele><time>2026-04-04T10:07:46.996Z</time></trkpt><trkpt lat="44.11536389039189" lon="12.069400845989945"><ele>73.0</ele><time>2026-04-04T10:07:47.996Z</time></trkpt><trkpt lat="44.11525761455185" lon="12.069448583137483"><ele>73.0</ele><time>2026-04-04T10:07:48.996Z</time></trkpt><trkpt lat="44.115159616262574" lon="12.069517177935788"><ele>73.0</ele><time>2026-04-04T10:07:49.996Z</time></trkpt><trkpt lat="44.1150606016476" lon="12.069585269167193"><ele>73.0</ele><time>2026-04-04T10:07:50.996Z</time></trkpt><trkpt lat="44.114964821670114" lon="12.069656416144792"><ele>73.0</ele><time>2026-04-04T10:07:51.996Z</time></trkpt><trkpt lat="44.114865955530405" lon="12.06973116386737"><ele>73.0</ele><time>2026-04-04T10:07:52.996Z</time></trkpt><trkpt lat="44.11476662759007" lon="12.069810985969326"><ele>73.0</ele><time>2026-04-04T10:07:53.997Z</time></trkpt><trkpt lat="44.11466591966282" lon="12.069888857434897"><ele>76.5</ele><time>2026-04-04T10:07:54.997Z</time></trkpt><trkpt lat="44.114564733938096" lon="12.06996630829125"><ele>80.0</ele><time>2026-04-04T10:07:55.997Z</time></trkpt><trkpt lat="44.114463288728224" lon="12.070039509862852"><ele>83.5</ele><time>2026-04-04T10:07:56.997Z</time></trkpt><trkpt lat="44.11435944616612" lon="12.070121382068065"><ele>87.0</ele><time>2026-04-04T10:07:57.997Z</time></trkpt><trkpt lat="44.114260887329785" lon="12.070200796408708"><ele>87.0</ele><time>2026-04-04T10:07:58.997Z</time></trkpt><trkpt lat="44.1141617172573" lon="12.07027689295706"><ele>87.0</ele><time>2026-04-04T10:07:59.997Z</time></trkpt><trkpt lat="44.11406387642404" lon="12.07035319314393"><ele>87.0</ele><time>2026-04-04T10:08:00.997Z</time></trkpt><trkpt lat="44.113972268208414" lon="12.070424446529525"><ele>87.0</ele><time>2026-04-04T10:08:01.998Z</time></trkpt><trkpt lat="44.11388405073397" lon="12.07049289476853"><ele>87.0</ele><time>2026-04-04T10:08:02.998Z</time></trkpt><trkpt lat="44.11378606122792" lon="12.070536714669972"><ele>87.0</ele><time>2026-04-04T10:08:03.998Z</time></trkpt><trkpt lat="44.11369056364526" lon="12.070581982019016"><ele>87.0</ele><time>2026-04-04T10:08:04.998Z</time></trkpt><trkpt lat="44.11359004385456" lon="12.0706208637199"><ele>87.0</ele><time>2026-04-04T10:08:05.998Z</time></trkpt><trkpt lat="44.11349386362542" lon="12.070680513483687"><ele>87.0</ele><time>2026-04-04T10:08:06.998Z</time></trkpt><trkpt lat="44.113385504960554" lon="12.070692096514065"><ele>87.0</ele><time>2026-04-04T10:08:07.998Z</time></trkpt><trkpt lat="44.113276193752334" lon="12.07070519864712"><ele>87.0</ele><time>2026-04-04T10:08:08.998Z</time></trkpt><trkpt lat="44.11316623675915" lon="12.070710609415253"><ele>87.0</ele><time>2026-04-04T10:08:09.998Z</time></trkpt><trkpt lat="44.11305263902245" lon="12.07068812612332"><ele>87.0</ele><time>2026-04-04T10:08:10.998Z</time></trkpt><trkpt lat="44.11293856353609" lon="12.070677267673918"><ele>87.0</ele><time>2026-04-04T10:08:11.998Z</time></trkpt><trkpt lat="44.11282246779132" lon="12.070664047031302"><ele>87.0</ele><time>2026-04-04T10:08:12.998Z</time></trkpt><trkpt lat="44.112707335526544" lon="12.070648126924057"><ele>87.0</ele><time>2026-04-04T10:08:13.998Z</time></trkpt><trkpt lat="44.112593067508456" lon="12.07063270177218"><ele>87.0</ele><time>2026-04-04T10:08:14.999Z</time></trkpt><trkpt lat="44.1124865207716" lon="12.07061372860274"><ele>87.0</ele><time>2026-04-04T10:08:15.999Z</time></trkpt><trkpt lat="44.1123787505411" lon="12.070611504521398"><ele>87.0</ele><time>2026-04-04T10:08:16.999Z</time></trkpt><trkpt lat="44.11227888216778" lon="12.070637576370126"><ele>87.6</ele><time>2026-04-04T10:08:17.999Z</time></trkpt><trkpt lat="44.11217103749579" lon="12.070668820985686"><ele>88.19999999999999</ele><time>2026-04-04T10:08:18.999Z</time></trkpt><trkpt lat="44.11206359182924" lon="12.070706799433166"><ele>88.8</ele><time>2026-04-04T10:08:19.999Z</time></trkpt><trkpt lat="44.111953162265934" lon="12.070735878589247"><ele>89.4</ele><time>2026-04-04T10:08:20.999Z</time></trkpt><trkpt lat="44.1118386441755" lon="12.070750900654188"><ele>90.0</ele><time>2026-04-04T10:08:21.999Z</time></trkpt><trkpt lat="44.11171374717999" lon="12.070750605118972"><ele>90.0</ele><time>2026-04-04T10:08:22.999Z</time></trkpt><trkpt lat="44.11158999082598" lon="12.07076043106304"><ele>90.0</ele><time>2026-04-04T10:08:23.999Z</time></trkpt><trkpt lat="44.111468554934945" lon="12.070777859271812"><ele>90.0</ele><time>2026-04-04T10:08:24.999Z</time></trkpt><trkpt lat="44.111350687854994" lon="12.070809133609291"><ele>90.0</ele><time>2026-04-04T10:08:25.999Z</time></trkpt><trkpt lat="44.11124260224139" lon="12.070867952027479"><ele>92.25</ele><time>2026-04-04T10:08:26.999Z</time></trkpt><trkpt lat="44.11114610139314" lon="12.070953148311954"><ele>94.5</ele><time>2026-04-04T10:08:27.999Z</time></trkpt><trkpt lat="44.11106538821691" lon="12.071061430540208"><ele>96.75</ele><time>2026-04-04T10:08:28.999Z</time></trkpt><trkpt lat="44.11098897421016" lon="12.071181463338634"><ele>99.0</ele><time>2026-04-04T10:08:29.999Z</time></trkpt><trkpt lat="44.11090901732655" lon="12.071306073982527"><ele>99.0</ele><time>2026-04-04T10:08:30.999Z</time></trkpt><trkpt lat="44.11082680355797" lon="12.071427106074287"><ele>99.0</ele><time>2026-04-04T10:08:31.999Z</time></trkpt><trkpt lat="44.11074325137137" lon="12.071545279848173"><ele>99.0</ele><time>2026-04-04T10:08:32.999Z</time></trkpt><trkpt lat="44.110659548369654" lon="12.07165810440404"><ele>99.0</ele><time>2026-04-04T10:08:33.999Z</time></trkpt><trkpt lat="44.11057528042274" lon="12.071773203573928"><ele>100.66666666666666</ele><time>2026-04-04T10:08:35Z</time></trkpt><trkpt lat="44.11037537924413" lon="12.071960106146099"><ele>102.33333333333333</ele><time>2026-04-04T10:08:37Z</time></trkpt><trkpt lat="44.11027579997467" lon="12.072054282030255"><ele>104.0</ele><time>2026-04-04T10:08:38Z</time></trkpt><trkpt lat="44.110174129448005" lon="12.072145654178529"><ele>104.0</ele><time>2026-04-04T10:08:39Z</time></trkpt><trkpt lat="44.11007574171351" lon="12.072236065363505"><ele>104.0</ele><time>2026-04-04T10:08:40Z</time></trkpt><trkpt lat="44.10998466615084" lon="12.072318972264007"><ele>104.0</ele><time>2026-04-04T10:08:41Z</time></trkpt><trkpt lat="44.10990012789878" lon="12.072406313199023"><ele>104.0</ele><time>2026-04-04T10:08:42Z</time></trkpt><trkpt lat="44.109826621197804" lon="12.072497802545046"><ele>104.0</ele><time>2026-04-04T10:08:43Z</time></trkpt><trkpt lat="44.109762416072584" lon="12.072583916986341"><ele>103.99999999999999</ele><time>2026-04-04T10:08:44Z</time></trkpt><trkpt lat="44.1097157865788" lon="12.072647264777018"><ele>104.0</ele><time>2026-04-04T10:08:45Z</time></trkpt><trkpt lat="44.10967028979392" lon="12.072709370019483"><ele>104.0</ele><time>2026-04-04T10:08:47Z</time></trkpt><trkpt lat="44.10962686435712" lon="12.072793464862459"><ele>104.0</ele><time>2026-04-04T10:09:46.997Z</time></trkpt><trkpt lat="44.1095439410736" lon="12.072930492043477"><ele>103.99999999999999</ele><time>2026-04-04T10:09:48.997Z</time></trkpt><trkpt lat="44.10949381044554" lon="12.073009554543122"><ele>104.0</ele><time>2026-04-04T10:09:49.997Z</time></trkpt><trkpt lat="44.10943204594685" lon="12.073095419779921"><ele>104.0</ele><time>2026-04-04T10:09:50.998Z</time></trkpt><trkpt lat="44.10936468770024" lon="12.073185634460017"><ele>104.0</ele><time>2026-04-04T10:09:51.998Z</time></trkpt><trkpt lat="44.109296903855366" lon="12.073275074736271"><ele>104.0</ele><time>2026-04-04T10:09:52.998Z</time></trkpt><trkpt lat="44.10922587759754" lon="12.073362405665767"><ele>104.0</ele><time>2026-04-04T10:09:53.999Z</time></trkpt><trkpt lat="44.10915092473704" lon="12.07344505573927"><ele>104.0</ele><time>2026-04-04T10:09:54.999Z</time></trkpt><trkpt lat="44.10907455564497" lon="12.073517193696226"><ele>105.16666666666666</ele><time>2026-04-04T10:09:55.999Z</time></trkpt><trkpt lat="44.108999912199074" lon="12.07358227171996"><ele>106.33333333333333</ele><time>2026-04-04T10:09:56.999Z</time></trkpt><trkpt lat="44.10892470311523" lon="12.07363712694536"><ele>107.5</ele><time>2026-04-04T10:09:57.999Z</time></trkpt><trkpt lat="44.10884773515521" lon="12.073686321545804"><ele>108.66666666666666</ele><time>2026-04-04T10:09:58.999Z</time></trkpt><trkpt lat="44.1087673980257" lon="12.073722582999356"><ele>109.83333333333333</ele><time>2026-04-04T10:10:00Z</time></trkpt><trkpt lat="44.10868821152553" lon="12.073742188939733"><ele>111.0</ele><time>2026-04-04T10:10:01Z</time></trkpt><trkpt lat="44.10861438167358" lon="12.073757601813414"><ele>111.0</ele><time>2026-04-04T10:10:02Z</time></trkpt><trkpt lat="44.10854942402979" lon="12.073766840987947"><ele>111.0</ele><time>2026-04-04T10:10:03Z</time></trkpt><trkpt lat="44.10842800333181" lon="12.073784306071968"><ele>111.0</ele><time>2026-04-04T10:10:05Z</time></trkpt><trkpt lat="44.10836208731026" lon="12.073786008315395"><ele>111.0</ele><time>2026-04-04T10:10:06Z</time></trkpt><trkpt lat="44.10827082102423" lon="12.073804178836086"><ele>111.0</ele><time>2026-04-04T10:10:07Z</time></trkpt><trkpt lat="44.10816539064013" lon="12.073815387618692"><ele>110.25</ele><time>2026-04-04T10:10:08Z</time></trkpt><trkpt lat="44.108052381068454" lon="12.073818606852756"><ele>109.5</ele><time>2026-04-04T10:10:09Z</time></trkpt><trkpt lat="44.107930570652314" lon="12.073831149507319"><ele>108.75</ele><time>2026-04-04T10:10:10Z</time></trkpt><trkpt lat="44.107797176827965" lon="12.073871723888853"><ele>108.0</ele><time>2026-04-04T10:10:11Z</time></trkpt><trkpt lat="44.10765667042382" lon="12.073925722128264"><ele>108.0</ele><time>2026-04-04T10:10:12Z</time></trkpt><trkpt lat="44.10751675681502" lon="12.0740070170287"><ele>108.0</ele><time>2026-04-04T10:10:13Z</time></trkpt><trkpt lat="44.107374393783545" lon="12.074081685471617"><ele>108.0</ele><time>2026-04-04T10:10:14Z</time></trkpt><trkpt lat="44.10721531246082" lon="12.074141996804688"><ele>112.0</ele><time>2026-04-04T10:10:15Z</time></trkpt><trkpt lat="44.10704333207861" lon="12.074169293625271"><ele>116.0</ele><time>2026-04-04T10:10:16Z</time></trkpt><trkpt lat="44.10688406587972" lon="12.074189668375258"><ele>120.0</ele><time>2026-04-04T10:10:17Z</time></trkpt><trkpt lat="44.10673767502195" lon="12.074235892135896"><ele>120.0</ele><time>2026-04-04T10:10:18.001Z</time></trkpt><trkpt lat="44.10660687866509" lon="12.074298815390522"><ele>120.0</ele><time>2026-04-04T10:10:19.001Z</time></trkpt><trkpt lat="44.10647761459851" lon="12.074394166013958"><ele>120.0</ele><time>2026-04-04T10:10:20.001Z</time></trkpt><trkpt lat="44.1063510286648" lon="12.074515262907349"><ele>120.0</ele><time>2026-04-04T10:10:21.001Z</time></trkpt><trkpt lat="44.106245491504765" lon="12.074653944065394"><ele>121.33333333333334</ele><time>2026-04-04T10:10:22.001Z</time></trkpt><trkpt lat="44.106137569178706" lon="12.074803873064772"><ele>122.66666666666667</ele><time>2026-04-04T10:10:23.001Z</time></trkpt><trkpt lat="44.10604072302215" lon="12.074988810928083"><ele>124.0</ele><time>2026-04-04T10:10:24.001Z</time></trkpt><trkpt lat="44.105941882775596" lon="12.075180718135307"><ele>124.0</ele><time>2026-04-04T10:10:25.001Z</time></trkpt><trkpt lat="44.10583940953013" lon="12.075357074716479"><ele>124.0</ele><time>2026-04-04T10:10:26.001Z</time></trkpt><trkpt lat="44.10573834395616" lon="12.075541258425993"><ele>124.0</ele><time>2026-04-04T10:10:27.001Z</time></trkpt><trkpt lat="44.10563765221148" lon="12.075711724707059"><ele>123.0</ele><time>2026-04-04T10:10:28.001Z</time></trkpt><trkpt lat="44.1055445974755" lon="12.075879966252595"><ele>122.0</ele><time>2026-04-04T10:10:29.001Z</time></trkpt><trkpt lat="44.10547480576279" lon="12.07603631273906"><ele>121.0</ele><time>2026-04-04T10:10:30.001Z</time></trkpt><trkpt lat="44.105431209804365" lon="12.076216627940303"><ele>120.0</ele><time>2026-04-04T10:10:31.001Z</time></trkpt><trkpt lat="44.10542016797252" lon="12.076419942316889"><ele>120.66666666666666</ele><time>2026-04-04T10:10:32.001Z</time></trkpt><trkpt lat="44.10543313157649" lon="12.07663850772224"><ele>121.33333333333333</ele><time>2026-04-04T10:10:33.001Z</time></trkpt><trkpt lat="44.105463996510025" lon="12.076860095043227"><ele>122.0</ele><time>2026-04-04T10:10:34.001Z</time></trkpt><trkpt lat="44.10548429158501" lon="12.07708416828492"><ele>122.0</ele><time>2026-04-04T10:10:35.001Z</time></trkpt><trkpt lat="44.10549546860839" lon="12.077296989580693"><ele>122.0</ele><time>2026-04-04T10:10:36.001Z</time></trkpt><trkpt lat="44.1054941156971" lon="12.077493264601095"><ele>122.0</ele><time>2026-04-04T10:10:37.001Z</time></trkpt><trkpt lat="44.105467436385" lon="12.077653019625856"><ele>122.0</ele><time>2026-04-04T10:10:38.001Z</time></trkpt><trkpt lat="44.10541578060864" lon="12.077773875711344"><ele>123.0</ele><time>2026-04-04T10:10:39.001Z</time></trkpt><trkpt lat="44.10532869511736" lon="12.077855561686858"><ele>124.0</ele><time>2026-04-04T10:10:40.001Z</time></trkpt><trkpt lat="44.105215199054804" lon="12.077911402425395"><ele>125.0</ele><time>2026-04-04T10:10:41.001Z</time></trkpt><trkpt lat="44.105088944644756" lon="12.077958459831194"><ele>126.0</ele><time>2026-04-04T10:10:42.001Z</time></trkpt><trkpt lat="44.1049497673852" lon="12.078006632219768"><ele>123.33333333333334</ele><time>2026-04-04T10:10:43.001Z</time></trkpt><trkpt lat="44.10480325255192" lon="12.078058744499367"><ele>120.66666666666667</ele><time>2026-04-04T10:10:44.001Z</time></trkpt><trkpt lat="44.10465636405498" lon="12.078145606247135"><ele>118.0</ele><time>2026-04-04T10:10:45.001Z</time></trkpt><trkpt lat="44.10451046786613" lon="12.07823576129722"><ele>116.75</ele><time>2026-04-04T10:10:46.001Z</time></trkpt><trkpt lat="44.10437583965933" lon="12.07831939943389"><ele>115.5</ele><time>2026-04-04T10:10:47.001Z</time></trkpt><trkpt lat="44.10425157946549" lon="12.078400313458443"><ele>114.25</ele><time>2026-04-04T10:10:48.001Z</time></trkpt><trkpt lat="44.10413143667095" lon="12.078472160327186"><ele>113.0</ele><time>2026-04-04T10:10:49.001Z</time></trkpt><trkpt lat="44.104038757671645" lon="12.078558878489652"><ele>113.0</ele><time>2026-04-04T10:10:50.001Z</time></trkpt><trkpt lat="44.10396693679762" lon="12.07867621831637"><ele>113.00000000000001</ele><time>2026-04-04T10:10:51.001Z</time></trkpt><trkpt lat="44.103929877245385" lon="12.078808518633801"><ele>113.00000000000001</ele><time>2026-04-04T10:10:52.001Z</time></trkpt><trkpt lat="44.103928288411765" lon="12.078947747114821"><ele>113.0</ele><time>2026-04-04T10:10:53.001Z</time></trkpt><trkpt lat="44.103967038239276" lon="12.079083608935154"><ele>113.0</ele><time>2026-04-04T10:10:54.001Z</time></trkpt><trkpt lat="44.10400915310664" lon="12.079226364039576"><ele>114.49999999999999</ele><time>2026-04-04T10:10:55.001Z</time></trkpt><trkpt lat="44.104047034313275" lon="12.07935910113951"><ele>116.0</ele><time>2026-04-04T10:10:56.001Z</time></trkpt><trkpt lat="44.10406225600165" lon="12.079470893475781"><ele>117.5</ele><time>2026-04-04T10:10:57.001Z</time></trkpt><trkpt lat="44.10404341481661" lon="12.079566991173714"><ele>119.0</ele><time>2026-04-04T10:10:58.001Z</time></trkpt><trkpt lat="44.103991094227574" lon="12.079635822079346"><ele>120.49999999999999</ele><time>2026-04-04T10:10:59.001Z</time></trkpt><trkpt lat="44.10390595227209" lon="12.079696956329734"><ele>122.0</ele><time>2026-04-04T10:11:00.001Z</time></trkpt><trkpt lat="44.10381431003626" lon="12.079703920411754"><ele>122.0</ele><time>2026-04-04T10:11:01.001Z</time></trkpt><trkpt lat="44.103733397723616" lon="12.07965222683067"><ele>121.99999999999999</ele><time>2026-04-04T10:11:02.001Z</time></trkpt><trkpt lat="44.10364961870753" lon="12.079553063458537"><ele>121.99999999999999</ele><time>2026-04-04T10:11:03.001Z</time></trkpt><trkpt lat="44.10356944116237" lon="12.079442771439256"><ele>122.0</ele><time>2026-04-04T10:11:04.001Z</time></trkpt><trkpt lat="44.10348628035638" lon="12.079344892408056"><ele>122.0</ele><time>2026-04-04T10:11:05Z</time></trkpt><trkpt lat="44.10339420600692" lon="12.079238203405174"><ele>122.0</ele><time>2026-04-04T10:11:06Z</time></trkpt><trkpt lat="44.10330660603029" lon="12.07913488167854"><ele>121.99999999999999</ele><time>2026-04-04T10:11:07Z</time></trkpt><trkpt lat="44.103219088828304" lon="12.079035098781757"><ele>121.99999999999999</ele><time>2026-04-04T10:11:08Z</time></trkpt><trkpt lat="44.10313698283697" lon="12.078955116061593"><ele>122.0</ele><time>2026-04-04T10:11:09Z</time></trkpt><trkpt lat="44.10304547961172" lon="12.078916551542362"><ele>122.0</ele><time>2026-04-04T10:11:10Z</time></trkpt><trkpt lat="44.102954284338495" lon="12.078934140187826"><ele>121.39999999999999</ele><time>2026-04-04T10:11:11Z</time></trkpt><trkpt lat="44.10288163909397" lon="12.079008113421054"><ele>120.79999999999998</ele><time>2026-04-04T10:11:12Z</time></trkpt><trkpt lat="44.10282548472265" lon="12.07911773745964"><ele>120.2</ele><time>2026-04-04T10:11:13Z</time></trkpt><trkpt lat="44.1027546947656" lon="12.079209672795562"><ele>119.6</ele><time>2026-04-04T10:11:14Z</time></trkpt><trkpt lat="44.10266274126301" lon="12.079239424747493"><ele>119.0</ele><time>2026-04-04T10:11:15Z</time></trkpt><trkpt lat="44.1025624678284" lon="12.079242329708523"><ele>119.0</ele><time>2026-04-04T10:11:16Z</time></trkpt><trkpt lat="44.10246218251401" lon="12.079196659049758"><ele>119.0</ele><time>2026-04-04T10:11:17Z</time></trkpt><trkpt lat="44.10235426756859" lon="12.079118463684136"><ele>119.0</ele><time>2026-04-04T10:11:18Z</time></trkpt><trkpt lat="44.10224863645926" lon="12.079026764873495"><ele>119.0</ele><time>2026-04-04T10:11:19Z</time></trkpt><trkpt lat="44.10214115064549" lon="12.078929973146007"><ele>115.25</ele><time>2026-04-04T10:11:20Z</time></trkpt><trkpt lat="44.102039418046445" lon="12.078816986615113"><ele>111.5</ele><time>2026-04-04T10:11:21Z</time></trkpt><trkpt lat="44.10196073130381" lon="12.07868904106454"><ele>107.75</ele><time>2026-04-04T10:11:22Z</time></trkpt><trkpt lat="44.10189599994597" lon="12.078574019370794"><ele>104.0</ele><time>2026-04-04T10:11:23Z</time></trkpt><trkpt lat="44.10181351786601" lon="12.078499198313464"><ele>104.0</ele><time>2026-04-04T10:11:24Z</time></trkpt><trkpt lat="44.101723325858956" lon="12.07846351513431"><ele>104.0</ele><time>2026-04-04T10:11:25Z</time></trkpt><trkpt lat="44.10163290205795" lon="12.078477920721195"><ele>104.0</ele><time>2026-04-04T10:11:26Z</time></trkpt><trkpt lat="44.10155009591343" lon="12.078546411021689"><ele>104.0</ele><time>2026-04-04T10:11:27Z</time></trkpt><trkpt lat="44.10148069773052" lon="12.078664668959387"><ele>104.0</ele><time>2026-04-04T10:11:28Z</time></trkpt><trkpt lat="44.10141588529197" lon="12.078812096619046"><ele>101.75</ele><time>2026-04-04T10:11:29Z</time></trkpt><trkpt lat="44.10134425395465" lon="12.078966232946957"><ele>99.5</ele><time>2026-04-04T10:11:30Z</time></trkpt><trkpt lat="44.10126873983279" lon="12.07912947875253"><ele>97.25</ele><time>2026-04-04T10:11:31Z</time></trkpt><trkpt lat="44.10118799840887" lon="12.079278306409915"><ele>95.0</ele><time>2026-04-04T10:11:32Z</time></trkpt><trkpt lat="44.10109072024946" lon="12.079403049694427"><ele>95.0</ele><time>2026-04-04T10:11:33Z</time></trkpt><trkpt lat="44.10097195388599" lon="12.079494323698473"><ele>95.0</ele><time>2026-04-04T10:11:34Z</time></trkpt><trkpt lat="44.10084070854055" lon="12.079571079910052"><ele>95.0</ele><time>2026-04-04T10:11:35Z</time></trkpt><trkpt lat="44.10069799436706" lon="12.079617690637885"><ele>95.0</ele><time>2026-04-04T10:11:36Z</time></trkpt><trkpt lat="44.10055068546963" lon="12.079654718785877"><ele>94.25</ele><time>2026-04-04T10:11:37Z</time></trkpt><trkpt lat="44.10040962216056" lon="12.079699860303654"><ele>93.5</ele><time>2026-04-04T10:11:38Z</time></trkpt><trkpt lat="44.10027750093927" lon="12.079754977316368"><ele>92.75</ele><time>2026-04-04T10:11:39Z</time></trkpt><trkpt lat="44.10015411811624" lon="12.0798311799576"><ele>92.0</ele><time>2026-04-04T10:11:40Z</time></trkpt><trkpt lat="44.10004859013023" lon="12.079956534709734"><ele>92.0</ele><time>2026-04-04T10:11:41Z</time></trkpt><trkpt lat="44.099951351787944" lon="12.080102552032015"><ele>92.0</ele><time>2026-04-04T10:11:42Z</time></trkpt><trkpt lat="44.09985385158973" lon="12.080253131557068"><ele>92.0</ele><time>2026-04-04T10:11:43Z</time></trkpt><trkpt lat="44.09974778470441" lon="12.080389992963555"><ele>92.0</ele><time>2026-04-04T10:11:44Z</time></trkpt><trkpt lat="44.09965317052494" lon="12.080529510541973"><ele>89.75</ele><time>2026-04-04T10:11:45Z</time></trkpt><trkpt lat="44.099575550556764" lon="12.080669685063885"><ele>87.5</ele><time>2026-04-04T10:11:46Z</time></trkpt><trkpt lat="44.09951593426624" lon="12.080817625897664"><ele>85.25</ele><time>2026-04-04T10:11:47Z</time></trkpt><trkpt lat="44.09948286356766" lon="12.08098457600405"><ele>83.0</ele><time>2026-04-04T10:11:48Z</time></trkpt><trkpt lat="44.099467993072025" lon="12.081127648941083"><ele>83.0</ele><time>2026-04-04T10:11:49Z</time></trkpt><trkpt lat="44.09944137882418" lon="12.081259370625531"><ele>83.0</ele><time>2026-04-04T10:11:50Z</time></trkpt><trkpt lat="44.09938098654544" lon="12.081365670588662"><ele>83.0</ele><time>2026-04-04T10:11:51Z</time></trkpt><trkpt lat="44.09929657437216" lon="12.081415261262961"><ele>83.0</ele><time>2026-04-04T10:11:52Z</time></trkpt><trkpt lat="44.09919947248277" lon="12.081423204709608"><ele>83.0</ele><time>2026-04-04T10:11:52.995Z</time></trkpt><trkpt lat="44.099098594945865" lon="12.081377807321884"><ele>83.0</ele><time>2026-04-04T10:11:53.996Z</time></trkpt><trkpt lat="44.0989967094174" lon="12.081308288950769"><ele>83.0</ele><time>2026-04-04T10:11:54.996Z</time></trkpt><trkpt lat="44.09889723788545" lon="12.08122520031403"><ele>83.0</ele><time>2026-04-04T10:11:55.996Z</time></trkpt><trkpt lat="44.09879591605545" lon="12.0811407555279"><ele>83.0</ele><time>2026-04-04T10:11:56.996Z</time></trkpt><trkpt lat="44.098681392476664" lon="12.081096765822698"><ele>83.0</ele><time>2026-04-04T10:11:57.997Z</time></trkpt><trkpt lat="44.098558301643884" lon="12.08108440207713"><ele>83.0</ele><time>2026-04-04T10:11:58.997Z</time></trkpt><trkpt lat="44.09843315006019" lon="12.081095982282273"><ele>83.0</ele><time>2026-04-04T10:11:59.997Z</time></trkpt><trkpt lat="44.09830688849217" lon="12.081114352692264"><ele>83.0</ele><time>2026-04-04T10:12:00.997Z</time></trkpt><trkpt lat="44.09818143046755" lon="12.08110929180784"><ele>82.0</ele><time>2026-04-04T10:12:01.997Z</time></trkpt><trkpt lat="44.098063353706934" lon="12.081050584275443"><ele>81.0</ele><time>2026-04-04T10:12:02.997Z</time></trkpt><trkpt lat="44.09795262156173" lon="12.080974740115082"><ele>80.0</ele><time>2026-04-04T10:12:03.998Z</time></trkpt><trkpt lat="44.097847593225076" lon="12.080924680160345"><ele>79.0</ele><time>2026-04-04T10:12:04.998Z</time></trkpt><trkpt lat="44.097747517893886" lon="12.080921673357464"><ele>79.0</ele><time>2026-04-04T10:12:05.998Z</time></trkpt><trkpt lat="44.09765162838214" lon="12.080971831508212"><ele>79.0</ele><time>2026-04-04T10:12:06.998Z</time></trkpt><trkpt lat="44.09757598946238" lon="12.081071695881523"><ele>79.0</ele><time>2026-04-04T10:12:07.998Z</time></trkpt><trkpt lat="44.09751026088776" lon="12.081206322604446"><ele>79.0</ele><time>2026-04-04T10:12:08.998Z</time></trkpt><trkpt lat="44.09744213362587" lon="12.081357471808493"><ele>79.0</ele><time>2026-04-04T10:12:09.998Z</time></trkpt><trkpt lat="44.0973553969916" lon="12.081486474691472"><ele>79.0</ele><time>2026-04-04T10:12:10.999Z</time></trkpt><trkpt lat="44.09726095781403" lon="12.081616211615941"><ele>79.0</ele><time>2026-04-04T10:12:11.999Z</time></trkpt><trkpt lat="44.09715470355018" lon="12.081732172811474"><ele>79.0</ele><time>2026-04-04T10:12:12.999Z</time></trkpt><trkpt lat="44.0970440937734" lon="12.081821433563356"><ele>79.0</ele><time>2026-04-04T10:12:13.999Z</time></trkpt><trkpt lat="44.096951707904395" lon="12.081928898920479"><ele>79.0</ele><time>2026-04-04T10:12:14.999Z</time></trkpt><trkpt lat="44.096880770491545" lon="12.08206455221821"><ele>79.0</ele><time>2026-04-04T10:12:15.999Z</time></trkpt><trkpt lat="44.09681262572347" lon="12.082190706334483"><ele>79.0</ele><time>2026-04-04T10:12:16.999Z</time></trkpt><trkpt lat="44.09672124938678" lon="12.082282247007718"><ele>79.0</ele><time>2026-04-04T10:12:17.999Z</time></trkpt><trkpt lat="44.09660999096566" lon="12.082348309649264"><ele>79.0</ele><time>2026-04-04T10:12:18.999Z</time></trkpt><trkpt lat="44.096487188396225" lon="12.082385551877904"><ele>79.0</ele><time>2026-04-04T10:12:20Z</time></trkpt><trkpt lat="44.0963589025931" lon="12.082401669493498"><ele>79.0</ele><time>2026-04-04T10:12:21Z</time></trkpt><trkpt lat="44.09621921853518" lon="12.082398436323057"><ele>78.60000000000001</ele><time>2026-04-04T10:12:22Z</time></trkpt><trkpt lat="44.096086070475906" lon="12.082387090386995"><ele>78.2</ele><time>2026-04-04T10:12:23Z</time></trkpt><trkpt lat="44.09597387284861" lon="12.08237930897754"><ele>77.80000000000001</ele><time>2026-04-04T10:12:24Z</time></trkpt><trkpt lat="44.09588367320982" lon="12.082366513683228"><ele>77.4</ele><time>2026-04-04T10:12:25Z</time></trkpt><trkpt lat="44.09580773926284" lon="12.082352099055852"><ele>77.0</ele><time>2026-04-04T10:12:26Z</time></trkpt><trkpt lat="44.09569932965201" lon="12.082337248121995"><ele>76.6</ele><time>2026-04-04T10:12:28Z</time></trkpt><trkpt lat="44.09562622281168" lon="12.082306245721437"><ele>76.2</ele><time>2026-04-04T10:12:31Z</time></trkpt><trkpt lat="44.09554229517794" lon="12.08228550433919"><ele>75.8</ele><time>2026-04-04T10:12:45.001Z</time></trkpt><trkpt lat="44.09546133750351" lon="12.082242316134307"><ele>75.4</ele><time>2026-04-04T10:12:47.001Z</time></trkpt><trkpt lat="44.09536320023404" lon="12.082206987064119"><ele>75.0</ele><time>2026-04-04T10:12:49.001Z</time></trkpt><trkpt lat="44.09525191370733" lon="12.082179339340316"><ele>75.0</ele><time>2026-04-04T10:12:51.001Z</time></trkpt><trkpt lat="44.095144396876606" lon="12.08213185456761"><ele>75.0</ele><time>2026-04-04T10:12:53.001Z</time></trkpt><trkpt lat="44.095030741559064" lon="12.082123569008436"><ele>75.0</ele><time>2026-04-04T10:12:55.001Z</time></trkpt><trkpt lat="44.09491768302233" lon="12.0821713379856"><ele>75.0</ele><time>2026-04-04T10:12:57.001Z</time></trkpt><trkpt lat="44.09486483798649" lon="12.082219394618704"><ele>75.0</ele><time>2026-04-04T10:12:58.001Z</time></trkpt><trkpt lat="44.094814287637476" lon="12.082282774057079"><ele>75.16666666666667</ele><time>2026-04-04T10:12:59.001Z</time></trkpt><trkpt lat="44.094753988529014" lon="12.082355994493277"><ele>75.33333333333333</ele><time>2026-04-04T10:13:00.001Z</time></trkpt><trkpt lat="44.094693308440405" lon="12.082443432775296"><ele>75.5</ele><time>2026-04-04T10:13:01.001Z</time></trkpt><trkpt lat="44.09463699328476" lon="12.082526189651045"><ele>75.66666666666666</ele><time>2026-04-04T10:13:02.001Z</time></trkpt><trkpt lat="44.0945837879512" lon="12.082611756846699"><ele>75.83333333333333</ele><time>2026-04-04T10:13:03.002Z</time></trkpt><trkpt lat="44.09453047589826" lon="12.082703727250625"><ele>76.0</ele><time>2026-04-04T10:13:04.002Z</time></trkpt><trkpt lat="44.094482058371305" lon="12.082804575705865"><ele>76.0</ele><time>2026-04-04T10:13:05.002Z</time></trkpt><trkpt lat="44.09443988745348" lon="12.082914831858844"><ele>76.0</ele><time>2026-04-04T10:13:06.002Z</time></trkpt><trkpt lat="44.09440139309468" lon="12.083006624563811"><ele>76.0</ele><time>2026-04-04T10:13:07.002Z</time></trkpt><trkpt lat="44.09434391176113" lon="12.083098279387464"><ele>76.0</ele><time>2026-04-04T10:13:08.002Z</time></trkpt><trkpt lat="44.09427446954473" lon="12.083170870767006"><ele>76.0</ele><time>2026-04-04T10:13:09.002Z</time></trkpt><trkpt lat="44.09420713568057" lon="12.083231483171655"><ele>76.0</ele><time>2026-04-04T10:13:10.002Z</time></trkpt><trkpt lat="44.09413807442138" lon="12.083289991963834"><ele>76.0</ele><time>2026-04-04T10:13:11.002Z</time></trkpt><trkpt lat="44.09407174848583" lon="12.083357506809234"><ele>76.0</ele><time>2026-04-04T10:13:12.002Z</time></trkpt><trkpt lat="44.09400949282801" lon="12.08344016421733"><ele>76.0</ele><time>2026-04-04T10:13:13.002Z</time></trkpt><trkpt lat="44.09395393811234" lon="12.08352334707513"><ele>76.0</ele><time>2026-04-04T10:13:14.002Z</time></trkpt><trkpt lat="44.093903903710164" lon="12.08361301779096"><ele>76.0</ele><time>2026-04-04T10:13:15.002Z</time></trkpt><trkpt lat="44.09384575727469" lon="12.08370448714678"><ele>76.0</ele><time>2026-04-04T10:13:16.002Z</time></trkpt><trkpt lat="44.093790948803004" lon="12.083800428672212"><ele>76.0</ele><time>2026-04-04T10:13:17.002Z</time></trkpt><trkpt lat="44.09374186670455" lon="12.083898782390268"><ele>76.0</ele><time>2026-04-04T10:13:18.002Z</time></trkpt><trkpt lat="44.09369483222584" lon="12.083995340583074"><ele>76.0</ele><time>2026-04-04T10:13:19.002Z</time></trkpt><trkpt lat="44.09364178678763" lon="12.084087908477326"><ele>76.0</ele><time>2026-04-04T10:13:20.002Z</time></trkpt><trkpt lat="44.09358822160087" lon="12.084183373469397"><ele>76.0</ele><time>2026-04-04T10:13:21.002Z</time></trkpt><trkpt lat="44.09353273734169" lon="12.084270842615341"><ele>76.0</ele><time>2026-04-04T10:13:22.002Z</time></trkpt><trkpt lat="44.09348100991019" lon="12.084355645609119"><ele>75.5</ele><time>2026-04-04T10:13:23.002Z</time></trkpt><trkpt lat="44.09343233932015" lon="12.084442073581554"><ele>75.0</ele><time>2026-04-04T10:13:24.002Z</time></trkpt><trkpt lat="44.09338384255395" lon="12.08453129460427"><ele>74.5</ele><time>2026-04-04T10:13:25.002Z</time></trkpt><trkpt lat="44.093332501954876" lon="12.084616186413347"><ele>74.0</ele><time>2026-04-04T10:13:26.002Z</time></trkpt><trkpt lat="44.09328000166872" lon="12.08470194174932"><ele>73.5</ele><time>2026-04-04T10:13:27.002Z</time></trkpt><trkpt lat="44.09322678262406" lon="12.084792478393117"><ele>73.0</ele><time>2026-04-04T10:13:28.002Z</time></trkpt><trkpt lat="44.09316459927512" lon="12.084877198017839"><ele>75.16666666666666</ele><time>2026-04-04T10:13:29.002Z</time></trkpt><trkpt lat="44.09309122176921" lon="12.084956531148709"><ele>77.33333333333333</ele><time>2026-04-04T10:13:30.002Z</time></trkpt><trkpt lat="44.09301307025076" lon="12.08502501315763"><ele>79.5</ele><time>2026-04-04T10:13:31.002Z</time></trkpt><trkpt lat="44.09293798700374" lon="12.085073720763564"><ele>81.66666666666667</ele><time>2026-04-04T10:13:32.002Z</time></trkpt><trkpt lat="44.09285208077575" lon="12.085113084311839"><ele>83.83333333333334</ele><time>2026-04-04T10:13:33.002Z</time></trkpt><trkpt lat="44.09277435701983" lon="12.085139248638304"><ele>86.0</ele><time>2026-04-04T10:13:34.002Z</time></trkpt><trkpt lat="44.09269515929429" lon="12.085163524053405"><ele>86.0</ele><time>2026-04-04T10:13:35.002Z</time></trkpt><trkpt lat="44.09261489199237" lon="12.085198228943106"><ele>86.0</ele><time>2026-04-04T10:13:36.002Z</time></trkpt><trkpt lat="44.092529981558016" lon="12.085234356892858"><ele>86.0</ele><time>2026-04-04T10:13:37.002Z</time></trkpt><trkpt lat="44.09244766973404" lon="12.085277593022884"><ele>86.0</ele><time>2026-04-04T10:13:38.003Z</time></trkpt><trkpt lat="44.09235873985834" lon="12.085319127251026"><ele>86.0</ele><time>2026-04-04T10:13:39.003Z</time></trkpt><trkpt lat="44.09226394421966" lon="12.085349278877468"><ele>84.39999999999999</ele><time>2026-04-04T10:13:40.003Z</time></trkpt><trkpt lat="44.09216149413304" lon="12.085350976359784"><ele>82.8</ele><time>2026-04-04T10:13:41.003Z</time></trkpt><trkpt lat="44.092054402841946" lon="12.085328188908157"><ele>81.19999999999999</ele><time>2026-04-04T10:13:42.003Z</time></trkpt><trkpt lat="44.0919467819213" lon="12.085294372984698"><ele>79.6</ele><time>2026-04-04T10:13:43.003Z</time></trkpt><trkpt lat="44.091838963097565" lon="12.085239156752712"><ele>78.0</ele><time>2026-04-04T10:13:44.003Z</time></trkpt><trkpt lat="44.091723223095435" lon="12.085178610271742"><ele>78.0</ele><time>2026-04-04T10:13:45.003Z</time></trkpt><trkpt lat="44.09161288061812" lon="12.08510919373745"><ele>78.0</ele><time>2026-04-04T10:13:46.003Z</time></trkpt><trkpt lat="44.09150175261476" lon="12.085041681859403"><ele>78.0</ele><time>2026-04-04T10:13:47.003Z</time></trkpt><trkpt lat="44.09139416844486" lon="12.08497080105437"><ele>78.0</ele><time>2026-04-04T10:13:48.003Z</time></trkpt><trkpt lat="44.09129184193911" lon="12.084904740303555"><ele>77.25</ele><time>2026-04-04T10:13:49.003Z</time></trkpt><trkpt lat="44.091186765767844" lon="12.084843209486504"><ele>76.5</ele><time>2026-04-04T10:13:50.003Z</time></trkpt><trkpt lat="44.09108186692663" lon="12.084780003676324"><ele>75.75</ele><time>2026-04-04T10:13:51.003Z</time></trkpt><trkpt lat="44.09097781991414" lon="12.084723530648578"><ele>75.0</ele><time>2026-04-04T10:13:52.003Z</time></trkpt><trkpt lat="44.09087314579807" lon="12.084672461229454"><ele>75.0</ele><time>2026-04-04T10:13:53.003Z</time></trkpt><trkpt lat="44.09076650643412" lon="12.084623614675536"><ele>75.0</ele><time>2026-04-04T10:13:54.003Z</time></trkpt><trkpt lat="44.0906578986234" lon="12.084581046319233"><ele>75.0</ele><time>2026-04-04T10:13:55.003Z</time></trkpt><trkpt lat="44.090546108630086" lon="12.084546563530516"><ele>75.0</ele><time>2026-04-04T10:13:56.003Z</time></trkpt><trkpt lat="44.09043328672898" lon="12.084507389615798"><ele>75.66666666666667</ele><time>2026-04-04T10:13:57.003Z</time></trkpt><trkpt lat="44.09033010289576" lon="12.084464116794768"><ele>76.33333333333334</ele><time>2026-04-04T10:13:58.003Z</time></trkpt><trkpt lat="44.09022947292751" lon="12.084425218401114"><ele>77.0</ele><time>2026-04-04T10:13:58.998Z</time></trkpt><trkpt lat="44.08984477026507" lon="12.084288077309262"><ele>77.25</ele><time>2026-04-04T10:14:02.998Z</time></trkpt><trkpt lat="44.089644522281" lon="12.084232426175191"><ele>77.5</ele><time>2026-04-04T10:14:04.998Z</time></trkpt><trkpt lat="44.089547039870304" lon="12.084216049247711"><ele>77.75</ele><time>2026-04-04T10:14:05.998Z</time></trkpt><trkpt lat="44.089456931166346" lon="12.084202993248574"><ele>78.0</ele><time>2026-04-04T10:14:06.998Z</time></trkpt><trkpt lat="44.08936953332783" lon="12.084194046511469"><ele>78.0</ele><time>2026-04-04T10:14:07.999Z</time></trkpt><trkpt lat="44.089284069220334" lon="12.084197550561614"><ele>78.0</ele><time>2026-04-04T10:14:08.999Z</time></trkpt><trkpt lat="44.0892030102024" lon="12.084224726276952"><ele>78.0</ele><time>2026-04-04T10:14:09.999Z</time></trkpt><trkpt lat="44.08912904907317" lon="12.084261883968864"><ele>78.0</ele><time>2026-04-04T10:14:10.999Z</time></trkpt><trkpt lat="44.089059921727426" lon="12.084319777758017"><ele>78.0</ele><time>2026-04-04T10:14:11.999Z</time></trkpt><trkpt lat="44.08898897426499" lon="12.084382762510248"><ele>78.0</ele><time>2026-04-04T10:14:12.999Z</time></trkpt><trkpt lat="44.08891504894729" lon="12.084445996132338"><ele>78.33333333333333</ele><time>2026-04-04T10:14:13.999Z</time></trkpt><trkpt lat="44.08883581052861" lon="12.08449922570866"><ele>78.66666666666667</ele><time>2026-04-04T10:14:14.999Z</time></trkpt><trkpt lat="44.08875402440361" lon="12.08454500323957"><ele>79.0</ele><time>2026-04-04T10:14:15.999Z</time></trkpt><trkpt lat="44.08867063777978" lon="12.084573941735238"><ele>79.33333333333334</ele><time>2026-04-04T10:14:16.999Z</time></trkpt><trkpt lat="44.08858615215775" lon="12.08458996209214"><ele>79.66666666666667</ele><time>2026-04-04T10:14:17.999Z</time></trkpt><trkpt lat="44.088503038719544" lon="12.084587766319915"><ele>80.0</ele><time>2026-04-04T10:14:18.999Z</time></trkpt><trkpt lat="44.0884180939931" lon="12.084555053282262"><ele>80.0</ele><time>2026-04-04T10:14:19.999Z</time></trkpt><trkpt lat="44.088336997790975" lon="12.08450416196967"><ele>80.0</ele><time>2026-04-04T10:14:20.999Z</time></trkpt><trkpt lat="44.08825820349325" lon="12.084453098524072"><ele>80.0</ele><time>2026-04-04T10:14:22Z</time></trkpt><trkpt lat="44.088177652324795" lon="12.084417954672828"><ele>80.0</ele><time>2026-04-04T10:14:23Z</time></trkpt><trkpt lat="44.08810498468713" lon="12.084399680204603"><ele>80.0</ele><time>2026-04-04T10:14:24Z</time></trkpt><trkpt lat="44.08799771606316" lon="12.084378292423839"><ele>80.0</ele><time>2026-04-04T10:14:26Z</time></trkpt><trkpt lat="44.08788418785604" lon="12.084361478222768"><ele>80.4</ele><time>2026-04-04T10:14:28Z</time></trkpt><trkpt lat="44.08776003068911" lon="12.084336179072439"><ele>80.8</ele><time>2026-04-04T10:14:30Z</time></trkpt><trkpt lat="44.08764934536313" lon="12.084302871339995"><ele>81.19999999999999</ele><time>2026-04-04T10:14:32Z</time></trkpt><trkpt lat="44.08758105331263" lon="12.08428226888372"><ele>81.6</ele><time>2026-04-04T10:14:34Z</time></trkpt><trkpt lat="44.087492489833274" lon="12.084269797499475"><ele>82.0</ele><time>2026-04-04T10:14:37Z</time></trkpt><trkpt lat="44.08742672823161" lon="12.084246179848714"><ele>82.6</ele><time>2026-04-04T10:14:39Z</time></trkpt><trkpt lat="44.087346354970265" lon="12.084226803858664"><ele>83.19999999999999</ele><time>2026-04-04T10:14:42.001Z</time></trkpt><trkpt lat="44.08728160147947" lon="12.08425237281358"><ele>83.8</ele><time>2026-04-04T10:15:34.002Z</time></trkpt><trkpt lat="44.08719672816571" lon="12.084259826267894"><ele>84.4</ele><time>2026-04-04T10:15:36.002Z</time></trkpt><trkpt lat="44.08709096306271" lon="12.084245035458075"><ele>85.0</ele><time>2026-04-04T10:15:38.002Z</time></trkpt><trkpt lat="44.08696364683535" lon="12.08424721113362"><ele>85.0</ele><time>2026-04-04T10:15:40.002Z</time></trkpt><trkpt lat="44.0868951994279" lon="12.084255166745981"><ele>85.0</ele><time>2026-04-04T10:15:41.002Z</time></trkpt><trkpt lat="44.086826194767795" lon="12.08426497922978"><ele>85.0</ele><time>2026-04-04T10:15:42.002Z</time></trkpt><trkpt lat="44.08675635458934" lon="12.084270160293679"><ele>85.0</ele><time>2026-04-04T10:15:43.003Z</time></trkpt><trkpt lat="44.086688257367" lon="12.08427452137625"><ele>85.0</ele><time>2026-04-04T10:15:44.003Z</time></trkpt><trkpt lat="44.086592421164994" lon="12.084292728418445"><ele>85.0</ele><time>2026-04-04T10:15:46.003Z</time></trkpt><trkpt lat="44.08652728852095" lon="12.084300405881388"><ele>85.0</ele><time>2026-04-04T10:23:36.002Z</time></trkpt><trkpt lat="44.08645163826871" lon="12.08434064118551"><ele>84.4</ele><time>2026-04-04T10:23:44.002Z</time></trkpt><trkpt lat="44.086343244121466" lon="12.084395771229422"><ele>83.8</ele><time>2026-04-04T10:23:46.002Z</time></trkpt><trkpt lat="44.08626491340378" lon="12.084441897176122"><ele>83.19999999999999</ele><time>2026-04-04T10:23:47.002Z</time></trkpt><trkpt lat="44.08617413806981" lon="12.084505318019712"><ele>82.6</ele><time>2026-04-04T10:23:48.002Z</time></trkpt><trkpt lat="44.086074099081245" lon="12.084589793005513"><ele>82.0</ele><time>2026-04-04T10:23:49.002Z</time></trkpt><trkpt lat="44.0859723211477" lon="12.084671536255609"><ele>82.0</ele><time>2026-04-04T10:23:50.002Z</time></trkpt><trkpt lat="44.085861727702415" lon="12.084757952974696"><ele>82.0</ele><time>2026-04-04T10:23:51.002Z</time></trkpt><trkpt lat="44.08573546163531" lon="12.08485733937004"><ele>82.0</ele><time>2026-04-04T10:23:52.002Z</time></trkpt><trkpt lat="44.08561198999856" lon="12.084952506373666"><ele>82.0</ele><time>2026-04-04T10:23:53.002Z</time></trkpt><trkpt lat="44.085481499658975" lon="12.08505447771113"><ele>82.66666666666666</ele><time>2026-04-04T10:23:54.002Z</time></trkpt><trkpt lat="44.08534727446339" lon="12.085159616190612"><ele>83.33333333333333</ele><time>2026-04-04T10:23:55.002Z</time></trkpt><trkpt lat="44.08521094451836" lon="12.085261451468721"><ele>84.0</ele><time>2026-04-04T10:23:56.002Z</time></trkpt><trkpt lat="44.08506906688405" lon="12.085372824831918"><ele>84.0</ele><time>2026-04-04T10:23:57.002Z</time></trkpt><trkpt lat="44.08495741014748" lon="12.08547799116109"><ele>84.0</ele><time>2026-04-04T10:23:58.002Z</time></trkpt><trkpt lat="44.084851145221506" lon="12.085583707676967"><ele>84.0</ele><time>2026-04-04T10:23:59.002Z</time></trkpt><trkpt lat="44.08476176793193" lon="12.085712959919984"><ele>84.0</ele><time>2026-04-04T10:24:00.002Z</time></trkpt><trkpt lat="44.08468790505417" lon="12.085862792626223"><ele>84.25</ele><time>2026-04-04T10:24:01.002Z</time></trkpt><trkpt lat="44.08462165333392" lon="12.086024861512099"><ele>84.5</ele><time>2026-04-04T10:24:02.002Z</time></trkpt><trkpt lat="44.08455127363759" lon="12.086189882911924"><ele>84.75</ele><time>2026-04-04T10:24:03.002Z</time></trkpt><trkpt lat="44.084461482033795" lon="12.086331806701812"><ele>85.0</ele><time>2026-04-04T10:24:04.003Z</time></trkpt><trkpt lat="44.08436829958389" lon="12.086477173634186"><ele>86.0</ele><time>2026-04-04T10:24:05.003Z</time></trkpt><trkpt lat="44.08425430036406" lon="12.086599579119182"><ele>87.0</ele><time>2026-04-04T10:24:06.003Z</time></trkpt><trkpt lat="44.08412770612978" lon="12.08669193958026"><ele>88.0</ele><time>2026-04-04T10:24:07.003Z</time></trkpt><trkpt lat="44.083982174750915" lon="12.086755095428437"><ele>89.0</ele><time>2026-04-04T10:24:08.003Z</time></trkpt><trkpt lat="44.083820547089346" lon="12.086808554833766"><ele>89.0</ele><time>2026-04-04T10:24:09.003Z</time></trkpt><trkpt lat="44.0836550856563" lon="12.086848578092821"><ele>89.0</ele><time>2026-04-04T10:24:10.003Z</time></trkpt><trkpt lat="44.08348354850217" lon="12.086903266273989"><ele>89.0</ele><time>2026-04-04T10:24:11.003Z</time></trkpt><trkpt lat="44.08331133245322" lon="12.086932345529409"><ele>88.33333333333334</ele><time>2026-04-04T10:24:12.003Z</time></trkpt><trkpt lat="44.08313850387299" lon="12.08696364087542"><ele>87.66666666666667</ele><time>2026-04-04T10:24:13.003Z</time></trkpt><trkpt lat="44.08296745484067" lon="12.086988133491372"><ele>87.0</ele><time>2026-04-04T10:24:14.003Z</time></trkpt><trkpt lat="44.08279176922034" lon="12.08696922371425"><ele>87.0</ele><time>2026-04-04T10:24:15.003Z</time></trkpt><trkpt lat="44.08264475681042" lon="12.086982463708077"><ele>87.0</ele><time>2026-04-04T10:24:16.003Z</time></trkpt><trkpt lat="44.08244942552573" lon="12.086985178544639"><ele>87.0</ele><time>2026-04-04T10:24:17.003Z</time></trkpt><trkpt lat="44.08227137435052" lon="12.086973236637073"><ele>87.33333333333333</ele><time>2026-04-04T10:24:18.003Z</time></trkpt><trkpt lat="44.08209051532216" lon="12.086963088297829"><ele>87.66666666666666</ele><time>2026-04-04T10:24:19.003Z</time></trkpt><trkpt lat="44.08191645087411" lon="12.086960785323724"><ele>88.0</ele><time>2026-04-04T10:24:20.003Z</time></trkpt><trkpt lat="44.08175069007022" lon="12.086952593130654"><ele>88.33333333333333</ele><time>2026-04-04T10:24:21.003Z</time></trkpt><trkpt lat="44.081575652804304" lon="12.08694696595977"><ele>88.66666666666667</ele><time>2026-04-04T10:24:22.003Z</time></trkpt><trkpt lat="44.08140547244878" lon="12.086949417826018"><ele>89.0</ele><time>2026-04-04T10:24:23.003Z</time></trkpt><trkpt lat="44.081228782464635" lon="12.086983515303723"><ele>89.0</ele><time>2026-04-04T10:24:24.003Z</time></trkpt><trkpt lat="44.08105291860358" lon="12.087039528100558"><ele>89.0</ele><time>2026-04-04T10:24:25.003Z</time></trkpt><trkpt lat="44.080887928697024" lon="12.087090939498355"><ele>89.0</ele><time>2026-04-04T10:24:26.003Z</time></trkpt><trkpt lat="44.080705393770096" lon="12.087142846616755"><ele>89.0</ele><time>2026-04-04T10:24:27.003Z</time></trkpt><trkpt lat="44.08053312051874" lon="12.087190482473641"><ele>89.0</ele><time>2026-04-04T10:24:28.003Z</time></trkpt><trkpt lat="44.080386050160065" lon="12.087230182766973"><ele>89.0</ele><time>2026-04-04T10:24:29.001Z</time></trkpt><trkpt lat="44.08023760610864" lon="12.087265000933726"><ele>89.0</ele><time>2026-04-04T10:24:30.001Z</time></trkpt><trkpt lat="44.08011097373126" lon="12.087247436897586"><ele>89.0</ele><time>2026-04-04T10:24:31.001Z</time></trkpt><trkpt lat="44.07998620446266" lon="12.087255956527835"><ele>89.0</ele><time>2026-04-04T10:24:32.001Z</time></trkpt><trkpt lat="44.07986053747141" lon="12.087225651568122"><ele>89.0</ele><time>2026-04-04T10:24:33.001Z</time></trkpt><trkpt lat="44.07973355755915" lon="12.08718722391031"><ele>88.75</ele><time>2026-04-04T10:24:34.001Z</time></trkpt><trkpt lat="44.079600402152444" lon="12.087158425682441"><ele>88.5</ele><time>2026-04-04T10:24:35.001Z</time></trkpt><trkpt lat="44.079471091613144" lon="12.087137163619378"><ele>88.25</ele><time>2026-04-04T10:24:36.001Z</time></trkpt><trkpt lat="44.0793546316289" lon="12.087127348039289"><ele>88.0</ele><time>2026-04-04T10:24:37.001Z</time></trkpt><trkpt lat="44.079238773483446" lon="12.087173173046676"><ele>88.0</ele><time>2026-04-04T10:24:38.001Z</time></trkpt><trkpt lat="44.07913735891297" lon="12.087254148353134"><ele>88.0</ele><time>2026-04-04T10:24:39.001Z</time></trkpt><trkpt lat="44.07902607268675" lon="12.087333515581875"><ele>88.0</ele><time>2026-04-04T10:24:40.001Z</time></trkpt><trkpt lat="44.078913582180455" lon="12.087398002138254"><ele>88.0</ele><time>2026-04-04T10:24:41.001Z</time></trkpt><trkpt lat="44.078784867417134" lon="12.08741691218952"><ele>89.0</ele><time>2026-04-04T10:24:42.001Z</time></trkpt><trkpt lat="44.07866744338734" lon="12.087382797621878"><ele>90.0</ele><time>2026-04-04T10:24:43.001Z</time></trkpt><trkpt lat="44.07855120818514" lon="12.087326076041519"><ele>91.0</ele><time>2026-04-04T10:24:44.001Z</time></trkpt><trkpt lat="44.07843812091408" lon="12.087253310514802"><ele>92.0</ele><time>2026-04-04T10:24:45.001Z</time></trkpt><trkpt lat="44.078325483190945" lon="12.08717574362543"><ele>92.5</ele><time>2026-04-04T10:24:46.001Z</time></trkpt><trkpt lat="44.078213380113965" lon="12.087105325429663"><ele>93.0</ele><time>2026-04-04T10:24:47.001Z</time></trkpt><trkpt lat="44.07810255143223" lon="12.08703764570329"><ele>93.5</ele><time>2026-04-04T10:24:48.001Z</time></trkpt><trkpt lat="44.077990436051884" lon="12.086967300829572"><ele>94.0</ele><time>2026-04-04T10:24:49.001Z</time></trkpt><trkpt lat="44.0778765512038" lon="12.086914900871724"><ele>94.0</ele><time>2026-04-04T10:24:50.001Z</time></trkpt><trkpt lat="44.077754688656796" lon="12.086908439983832"><ele>94.0</ele><time>2026-04-04T10:24:51.001Z</time></trkpt><trkpt lat="44.077638584972206" lon="12.086945976357757"><ele>94.0</ele><time>2026-04-04T10:24:52.001Z</time></trkpt><trkpt lat="44.077531012337566" lon="12.087016615688817"><ele>94.0</ele><time>2026-04-04T10:24:53.001Z</time></trkpt><trkpt lat="44.07743544268729" lon="12.087132105059997"><ele>94.25</ele><time>2026-04-04T10:24:54.001Z</time></trkpt><trkpt lat="44.07732090465855" lon="12.087233247715135"><ele>94.5</ele><time>2026-04-04T10:24:55.001Z</time></trkpt><trkpt lat="44.07720843245257" lon="12.087341638084743"><ele>94.75</ele><time>2026-04-04T10:24:56.001Z</time></trkpt><trkpt lat="44.07714660406625" lon="12.087460265896508"><ele>95.0</ele><time>2026-04-04T10:24:57.001Z</time></trkpt><trkpt lat="44.07705439488599" lon="12.087586249006101"><ele>95.0</ele><time>2026-04-04T10:24:58.001Z</time></trkpt><trkpt lat="44.07695667564903" lon="12.087698383818218"><ele>95.0</ele><time>2026-04-04T10:24:59.001Z</time></trkpt><trkpt lat="44.07685188781336" lon="12.087787643122994"><ele>95.0</ele><time>2026-04-04T10:25:00.001Z</time></trkpt><trkpt lat="44.0767416264022" lon="12.087858746995783"><ele>95.0</ele><time>2026-04-04T10:25:01.001Z</time></trkpt><trkpt lat="44.076630602613896" lon="12.08789515268005"><ele>94.0</ele><time>2026-04-04T10:25:02.001Z</time></trkpt><trkpt lat="44.076514072412955" lon="12.087943280829899"><ele>93.0</ele><time>2026-04-04T10:25:03.001Z</time></trkpt><trkpt lat="44.076420087236805" lon="12.088013157038922"><ele>92.0</ele><time>2026-04-04T10:25:04.001Z</time></trkpt><trkpt lat="44.07631789404746" lon="12.088110778561475"><ele>91.0</ele><time>2026-04-04T10:25:05.001Z</time></trkpt><trkpt lat="44.07623808612683" lon="12.088243328842152"><ele>92.5</ele><time>2026-04-04T10:25:06.001Z</time></trkpt><trkpt lat="44.076161807897016" lon="12.088392003244058"><ele>94.0</ele><time>2026-04-04T10:25:07.001Z</time></trkpt><trkpt lat="44.076077048398034" lon="12.088534212630066"><ele>95.5</ele><time>2026-04-04T10:25:08.001Z</time></trkpt><trkpt lat="44.07599294215394" lon="12.088670227001735"><ele>97.0</ele><time>2026-04-04T10:25:09.001Z</time></trkpt><trkpt lat="44.0758994073444" lon="12.088812325049412"><ele>97.0</ele><time>2026-04-04T10:25:10.001Z</time></trkpt><trkpt lat="44.075801952781724" lon="12.088953715578096"><ele>97.0</ele><time>2026-04-04T10:25:11.001Z</time></trkpt><trkpt lat="44.0757038199345" lon="12.089107203007101"><ele>97.0</ele><time>2026-04-04T10:25:12.001Z</time></trkpt><trkpt lat="44.075605224374826" lon="12.089253976046255"><ele>97.0</ele><time>2026-04-04T10:25:13.001Z</time></trkpt><trkpt lat="44.07549417614921" lon="12.089394554430287"><ele>96.75</ele><time>2026-04-04T10:25:14.001Z</time></trkpt><trkpt lat="44.07537780229946" lon="12.089520940620268"><ele>96.5</ele><time>2026-04-04T10:25:15.001Z</time></trkpt><trkpt lat="44.07526296586392" lon="12.089651388504036"><ele>96.25</ele><time>2026-04-04T10:25:16.001Z</time></trkpt><trkpt lat="44.075148207477035" lon="12.089776323519027"><ele>96.0</ele><time>2026-04-04T10:25:17.001Z</time></trkpt><trkpt lat="44.075032176432956" lon="12.089901173783742"><ele>98.0</ele><time>2026-04-04T10:25:18.001Z</time></trkpt><trkpt lat="44.07490992539658" lon="12.090023799777429"><ele>100.0</ele><time>2026-04-04T10:25:19.001Z</time></trkpt><trkpt lat="44.07479898620973" lon="12.090149474669554"><ele>102.0</ele><time>2026-04-04T10:25:20.001Z</time></trkpt><trkpt lat="44.07469354728204" lon="12.090254870933583"><ele>104.0</ele><time>2026-04-04T10:25:21.001Z</time></trkpt><trkpt lat="44.074570614540924" lon="12.090362488920187"><ele>104.0</ele><time>2026-04-04T10:25:22.001Z</time></trkpt><trkpt lat="44.074445487593465" lon="12.090463018019072"><ele>104.0</ele><time>2026-04-04T10:25:23.001Z</time></trkpt><trkpt lat="44.074306202986975" lon="12.09054362634373"><ele>104.0</ele><time>2026-04-04T10:25:24.001Z</time></trkpt><trkpt lat="44.074170230822276" lon="12.090626682844213"><ele>104.0</ele><time>2026-04-04T10:25:25.001Z</time></trkpt><trkpt lat="44.07403649904828" lon="12.090700159055885"><ele>104.0</ele><time>2026-04-04T10:25:26.002Z</time></trkpt><trkpt lat="44.073905525648414" lon="12.090758171139965"><ele>104.0</ele><time>2026-04-04T10:25:27.002Z</time></trkpt><trkpt lat="44.07376823634511" lon="12.090782345508924"><ele>104.0</ele><time>2026-04-04T10:25:28.002Z</time></trkpt><trkpt lat="44.073622882261546" lon="12.090763042225609"><ele>104.0</ele><time>2026-04-04T10:25:29.002Z</time></trkpt><trkpt lat="44.073476532607174" lon="12.090719048615973"><ele>104.25</ele><time>2026-04-04T10:25:30.002Z</time></trkpt><trkpt lat="44.07333394246286" lon="12.090662187434285"><ele>104.5</ele><time>2026-04-04T10:25:31.002Z</time></trkpt><trkpt lat="44.073193794053374" lon="12.090610569635329"><ele>104.75</ele><time>2026-04-04T10:25:32.002Z</time></trkpt><trkpt lat="44.073061511147735" lon="12.090571000527204"><ele>105.0</ele><time>2026-04-04T10:25:33.002Z</time></trkpt><trkpt lat="44.07292280573846" lon="12.090529480471114"><ele>105.0</ele><time>2026-04-04T10:25:34.002Z</time></trkpt><trkpt lat="44.072791703420975" lon="12.090492361643532"><ele>105.0</ele><time>2026-04-04T10:25:35.002Z</time></trkpt><trkpt lat="44.072665510391445" lon="12.090457438112942"><ele>105.0</ele><time>2026-04-04T10:25:36.002Z</time></trkpt><trkpt lat="44.07255629216792" lon="12.09041324748183"><ele>105.0</ele><time>2026-04-04T10:25:37.002Z</time></trkpt><trkpt lat="44.07246109333415" lon="12.090393791512323"><ele>104.8</ele><time>2026-04-04T10:25:38.002Z</time></trkpt><trkpt lat="44.07237410948738" lon="12.090377218729982"><ele>104.6</ele><time>2026-04-04T10:25:39.002Z</time></trkpt><trkpt lat="44.07226381004935" lon="12.09043583232261"><ele>104.4</ele><time>2026-04-04T10:25:41.002Z</time></trkpt><trkpt lat="44.07224501307006" lon="12.090536986753078"><ele>104.2</ele><time>2026-04-04T10:25:42.002Z</time></trkpt><trkpt lat="44.07223665773332" lon="12.09065677696514"><ele>104.0</ele><time>2026-04-04T10:25:43.002Z</time></trkpt><trkpt lat="44.07221443915821" lon="12.090781320617708"><ele>105.5</ele><time>2026-04-04T10:25:44.002Z</time></trkpt><trkpt lat="44.072172128828264" lon="12.090913620695352"><ele>107.0</ele><time>2026-04-04T10:25:45.002Z</time></trkpt><trkpt lat="44.07212272824725" lon="12.091048905993546"><ele>108.5</ele><time>2026-04-04T10:25:46.002Z</time></trkpt><trkpt lat="44.072083652402284" lon="12.091206417484864"><ele>110.0</ele><time>2026-04-04T10:25:47.002Z</time></trkpt><trkpt lat="44.07203177493591" lon="12.091380780118872"><ele>110.0</ele><time>2026-04-04T10:25:48.002Z</time></trkpt><trkpt lat="44.071988689849285" lon="12.091560020732215"><ele>110.0</ele><time>2026-04-04T10:25:49.002Z</time></trkpt><trkpt lat="44.071936757649695" lon="12.091727547133805"><ele>110.0</ele><time>2026-04-04T10:25:50.002Z</time></trkpt><trkpt lat="44.07187346621288" lon="12.091898386024395"><ele>110.0</ele><time>2026-04-04T10:25:51.002Z</time></trkpt><trkpt lat="44.071804448590974" lon="12.092041473364002"><ele>110.0</ele><time>2026-04-04T10:25:52.002Z</time></trkpt><trkpt lat="44.071745872960335" lon="12.092185230419929"><ele>110.0</ele><time>2026-04-04T10:25:53.002Z</time></trkpt><trkpt lat="44.07168228729357" lon="12.092319881605267"><ele>110.0</ele><time>2026-04-04T10:25:54.002Z</time></trkpt><trkpt lat="44.07159565888189" lon="12.092391381438725"><ele>110.0</ele><time>2026-04-04T10:25:55.002Z</time></trkpt><trkpt lat="44.07148294302567" lon="12.09242693845146"><ele>110.0</ele><time>2026-04-04T10:25:56.002Z</time></trkpt><trkpt lat="44.07136414425888" lon="12.092405297427632"><ele>110.0</ele><time>2026-04-04T10:25:57.002Z</time></trkpt><trkpt lat="44.071255427246186" lon="12.092406231588155"><ele>110.0</ele><time>2026-04-04T10:25:58.002Z</time></trkpt><trkpt lat="44.07115985124471" lon="12.092454003108905"><ele>110.0</ele><time>2026-04-04T10:25:59.002Z</time></trkpt><trkpt lat="44.07108458584338" lon="12.092573410415634"><ele>110.0</ele><time>2026-04-04T10:26:00.002Z</time></trkpt><trkpt lat="44.07103271936899" lon="12.092716317594299"><ele>113.5</ele><time>2026-04-04T10:26:01.002Z</time></trkpt><trkpt lat="44.07100764649675" lon="12.09288437985561"><ele>117.0</ele><time>2026-04-04T10:26:02.002Z</time></trkpt><trkpt lat="44.07097930395065" lon="12.093053787992515"><ele>120.5</ele><time>2026-04-04T10:26:03.002Z</time></trkpt><trkpt lat="44.070944808316895" lon="12.093231584591331"><ele>124.0</ele><time>2026-04-04T10:26:04.002Z</time></trkpt><trkpt lat="44.07090832912006" lon="12.093412382715334"><ele>126.75</ele><time>2026-04-04T10:26:05.003Z</time></trkpt><trkpt lat="44.0708767684342" lon="12.0935981543171"><ele>129.5</ele><time>2026-04-04T10:26:06.003Z</time></trkpt><trkpt lat="44.07083818895493" lon="12.093779632934172"><ele>132.25</ele><time>2026-04-04T10:26:07.003Z</time></trkpt><trkpt lat="44.070793984890734" lon="12.093957642384783"><ele>135.0</ele><time>2026-04-04T10:26:08.003Z</time></trkpt><trkpt lat="44.07075699333855" lon="12.09412149116321"><ele>137.5</ele><time>2026-04-04T10:26:09.003Z</time></trkpt><trkpt lat="44.070714869578126" lon="12.094289379646638"><ele>140.0</ele><time>2026-04-04T10:26:10.003Z</time></trkpt><trkpt lat="44.07067656203285" lon="12.094445617890806"><ele>142.5</ele><time>2026-04-04T10:26:11.003Z</time></trkpt><trkpt lat="44.0706217536859" lon="12.094575000625495"><ele>145.0</ele><time>2026-04-04T10:26:12.003Z</time></trkpt><trkpt lat="44.070530034276345" lon="12.094674400384942"><ele>145.0</ele><time>2026-04-04T10:26:13.003Z</time></trkpt><trkpt lat="44.070441609159545" lon="12.09478307228376"><ele>145.0</ele><time>2026-04-04T10:26:14.003Z</time></trkpt><trkpt lat="44.07036713757263" lon="12.09492193595948"><ele>145.0</ele><time>2026-04-04T10:26:15.003Z</time></trkpt><trkpt lat="44.0703294249143" lon="12.095076156623561"><ele>145.0</ele><time>2026-04-04T10:26:16.003Z</time></trkpt><trkpt lat="44.07031515692489" lon="12.095261995665291"><ele>149.0</ele><time>2026-04-04T10:26:17.003Z</time></trkpt><trkpt lat="44.07031722267421" lon="12.095461591957978"><ele>153.0</ele><time>2026-04-04T10:26:18.003Z</time></trkpt><trkpt lat="44.0703067117226" lon="12.095661777792264"><ele>157.0</ele><time>2026-04-04T10:26:19.003Z</time></trkpt><trkpt lat="44.07029336928709" lon="12.095874274036209"><ele>161.0</ele><time>2026-04-04T10:26:20.003Z</time></trkpt><trkpt lat="44.070283652939544" lon="12.096075920422813"><ele>162.5</ele><time>2026-04-04T10:26:21.003Z</time></trkpt><trkpt lat="44.070267740439405" lon="12.096268358246807"><ele>164.0</ele><time>2026-04-04T10:26:22.003Z</time></trkpt><trkpt lat="44.07023565978231" lon="12.096455318381228"><ele>165.5</ele><time>2026-04-04T10:26:23.003Z</time></trkpt><trkpt lat="44.07020578018686" lon="12.096618067853772"><ele>167.0</ele><time>2026-04-04T10:26:24.003Z</time></trkpt><trkpt lat="44.070165393714746" lon="12.09675847686557"><ele>167.2</ele><time>2026-04-04T10:26:25.003Z</time></trkpt><trkpt lat="44.07011114854433" lon="12.096871696808183"><ele>167.39999999999998</ele><time>2026-04-04T10:26:26.003Z</time></trkpt><trkpt lat="44.070049729060116" lon="12.096925831341911"><ele>167.60000000000002</ele><time>2026-04-04T10:26:27.003Z</time></trkpt><trkpt lat="44.069929310780886" lon="12.096861678253363"><ele>167.8</ele><time>2026-04-04T10:26:29.003Z</time></trkpt><trkpt lat="44.06989457927791" lon="12.096755068757135"><ele>168.0</ele><time>2026-04-04T10:26:30.003Z</time></trkpt><trkpt lat="44.069878775609524" lon="12.096624420048299"><ele>175.5</ele><time>2026-04-04T10:26:31.003Z</time></trkpt><trkpt lat="44.06986237282957" lon="12.096484115788215"><ele>183.0</ele><time>2026-04-04T10:26:32.003Z</time></trkpt><trkpt lat="44.06983869574543" lon="12.096323901785839"><ele>190.5</ele><time>2026-04-04T10:26:33.003Z</time></trkpt><trkpt lat="44.06981327185936" lon="12.096158141422867"><ele>198.0</ele><time>2026-04-04T10:26:34.003Z</time></trkpt><trkpt lat="44.069784842738414" lon="12.095976698399117"><ele>198.0</ele><time>2026-04-04T10:26:35.001Z</time></trkpt><trkpt lat="44.069767276606406" lon="12.095805748319517"><ele>198.0</ele><time>2026-04-04T10:26:36.001Z</time></trkpt><trkpt lat="44.06974896061278" lon="12.0956473456421"><ele>198.0</ele><time>2026-04-04T10:26:37.001Z</time></trkpt><trkpt lat="44.06971815851849" lon="12.095518002697986"><ele>198.0</ele><time>2026-04-04T10:26:38.001Z</time></trkpt><trkpt lat="44.06966123124514" lon="12.095419295479516"><ele>198.0</ele><time>2026-04-04T10:26:39.001Z</time></trkpt><trkpt lat="44.06959047116197" lon="12.095334353807374"><ele>193.8</ele><time>2026-04-04T10:26:40.001Z</time></trkpt><trkpt lat="44.06949947834822" lon="12.095281051757373"><ele>189.60000000000002</ele><time>2026-04-04T10:26:41.001Z</time></trkpt><trkpt lat="44.06940154094791" lon="12.095227501003478"><ele>185.39999999999998</ele><time>2026-04-04T10:26:42.001Z</time></trkpt><trkpt lat="44.06931810267837" lon="12.095151337603781"><ele>181.2</ele><time>2026-04-04T10:26:43.001Z</time></trkpt><trkpt lat="44.06923505817855" lon="12.095057375736374"><ele>177.0</ele><time>2026-04-04T10:26:44.001Z</time></trkpt><trkpt lat="44.06915857273299" lon="12.094956809660278"><ele>176.85714285714286</ele><time>2026-04-04T10:26:45.001Z</time></trkpt><trkpt lat="44.06909895113877" lon="12.094890829067126"><ele>176.7142857142857</ele><time>2026-04-04T10:26:46.001Z</time></trkpt><trkpt lat="44.069033889758316" lon="12.094874633502137"><ele>176.57142857142856</ele><time>2026-04-04T10:26:47.001Z</time></trkpt><trkpt lat="44.06897207601827" lon="12.094905149207131"><ele>176.42857142857144</ele><time>2026-04-04T10:26:48.001Z</time></trkpt><trkpt lat="44.06893980814971" lon="12.094982958727343"><ele>176.28571428571428</ele><time>2026-04-04T10:26:49.001Z</time></trkpt><trkpt lat="44.06894269823256" lon="12.095079285252773"><ele>176.14285714285714</ele><time>2026-04-04T10:26:50.001Z</time></trkpt><trkpt lat="44.06898632882017" lon="12.095167545465662"><ele>176.0</ele><time>2026-04-04T10:26:51.001Z</time></trkpt><trkpt lat="44.06905103508878" lon="12.095257980586794"><ele>176.20000000000002</ele><time>2026-04-04T10:26:52.001Z</time></trkpt><trkpt lat="44.06913702756633" lon="12.095332551479196"><ele>176.4</ele><time>2026-04-04T10:26:53.001Z</time></trkpt><trkpt lat="44.069231182691844" lon="12.095414323182716"><ele>176.6</ele><time>2026-04-04T10:26:54.001Z</time></trkpt><trkpt lat="44.069311626801195" lon="12.0954972214249"><ele>176.8</ele><time>2026-04-04T10:26:55.001Z</time></trkpt><trkpt lat="44.06937329430115" lon="12.09559397693887"><ele>177.0</ele><time>2026-04-04T10:26:56.001Z</time></trkpt><trkpt lat="44.069398475627985" lon="12.095719839209181"><ele>181.2</ele><time>2026-04-04T10:26:57.001Z</time></trkpt><trkpt lat="44.06939293026157" lon="12.095866400876623"><ele>185.39999999999998</ele><time>2026-04-04T10:26:58.001Z</time></trkpt><trkpt lat="44.06936591304277" lon="12.096011030988187"><ele>189.60000000000002</ele><time>2026-04-04T10:26:59.001Z</time></trkpt><trkpt lat="44.06934370164455" lon="12.09616228540013"><ele>193.8</ele><time>2026-04-04T10:27:00.001Z</time></trkpt><trkpt lat="44.06933498161893" lon="12.096334851558721"><ele>198.0</ele><time>2026-04-04T10:27:01.001Z</time></trkpt><trkpt lat="44.069336125575" lon="12.096488957379822"><ele>197.0</ele><time>2026-04-04T10:27:02.001Z</time></trkpt><trkpt lat="44.069326223659104" lon="12.096616284160078"><ele>196.0</ele><time>2026-04-04T10:27:03.001Z</time></trkpt><trkpt lat="44.069281943873506" lon="12.096717446508414"><ele>195.0</ele><time>2026-04-04T10:27:04.001Z</time></trkpt><trkpt lat="44.06923778625649" lon="12.09678020701604"><ele>194.0</ele><time>2026-04-04T10:27:05.001Z</time></trkpt><trkpt lat="44.0691149821206" lon="12.096728865949983"><ele>193.0</ele><time>2026-04-04T10:27:07.001Z</time></trkpt><trkpt lat="44.069073141686836" lon="12.096620786780683"><ele>194.0</ele><time>2026-04-04T10:27:08.001Z</time></trkpt><trkpt lat="44.069088020166156" lon="12.096476670364376"><ele>195.0</ele><time>2026-04-04T10:27:09.001Z</time></trkpt><trkpt lat="44.069112629150865" lon="12.09634151391443"><ele>196.0</ele><time>2026-04-04T10:27:10.001Z</time></trkpt><trkpt lat="44.069134964397534" lon="12.096190013734732"><ele>197.0</ele><time>2026-04-04T10:27:11.001Z</time></trkpt><trkpt lat="44.06915456762999" lon="12.096042406194577"><ele>198.0</ele><time>2026-04-04T10:27:12.001Z</time></trkpt><trkpt lat="44.06915507312012" lon="12.095907264065584"><ele>198.0</ele><time>2026-04-04T10:27:13.001Z</time></trkpt><trkpt lat="44.06913265743848" lon="12.095795809958952"><ele>198.0</ele><time>2026-04-04T10:27:14.001Z</time></trkpt><trkpt lat="44.06907326166596" lon="12.095699615879942"><ele>198.0</ele><time>2026-04-04T10:27:15.001Z</time></trkpt><trkpt lat="44.06898509509468" lon="12.095644217810126"><ele>198.0</ele><time>2026-04-04T10:27:16.001Z</time></trkpt><trkpt lat="44.06885725188677" lon="12.095629962771088"><ele>198.0</ele><time>2026-04-04T10:27:17.001Z</time></trkpt><trkpt lat="44.06874183188541" lon="12.095606053019381"><ele>198.0</ele><time>2026-04-04T10:27:18.001Z</time></trkpt><trkpt lat="44.068624009830195" lon="12.095588883923938"><ele>198.0</ele><time>2026-04-04T10:27:19.001Z</time></trkpt><trkpt lat="44.06849906591392" lon="12.095574178984133"><ele>198.0</ele><time>2026-04-04T10:27:20.001Z</time></trkpt><trkpt lat="44.068378579028945" lon="12.095571463079635"><ele>198.0</ele><time>2026-04-04T10:27:21.001Z</time></trkpt><trkpt lat="44.068242676347744" lon="12.095590845094762"><ele>201.5</ele><time>2026-04-04T10:27:22.001Z</time></trkpt><trkpt lat="44.068097930057306" lon="12.095621943613406"><ele>205.0</ele><time>2026-04-04T10:27:23.001Z</time></trkpt><trkpt lat="44.06794984048329" lon="12.095659246849035"><ele>208.5</ele><time>2026-04-04T10:27:24.001Z</time></trkpt><trkpt lat="44.06780267107428" lon="12.095701018972777"><ele>212.0</ele><time>2026-04-04T10:27:25.001Z</time></trkpt><trkpt lat="44.06765182603726" lon="12.095749027316428"><ele>215.0</ele><time>2026-04-04T10:27:26.001Z</time></trkpt><trkpt lat="44.06750206607822" lon="12.095795536361146"><ele>218.0</ele><time>2026-04-04T10:27:27.001Z</time></trkpt><trkpt lat="44.067356201844156" lon="12.09583939169637"><ele>221.0</ele><time>2026-04-04T10:27:28.001Z</time></trkpt><trkpt lat="44.06721399946703" lon="12.095879536780634"><ele>224.0</ele><time>2026-04-04T10:27:29.001Z</time></trkpt><trkpt lat="44.067071880270674" lon="12.095896258861035"><ele>225.5</ele><time>2026-04-04T10:27:30.001Z</time></trkpt><trkpt lat="44.06692883777284" lon="12.095887251980407"><ele>227.0</ele><time>2026-04-04T10:27:31.001Z</time></trkpt><trkpt lat="44.06679579306689" lon="12.095862151098741"><ele>228.5</ele><time>2026-04-04T10:27:32.001Z</time></trkpt><trkpt lat="44.06668169340626" lon="12.095836327244355"><ele>230.0</ele><time>2026-04-04T10:27:33.002Z</time></trkpt><trkpt lat="44.066580310773425" lon="12.095812933907013"><ele>230.00000000000003</ele><time>2026-04-04T10:27:34.002Z</time></trkpt><trkpt lat="44.06649597769775" lon="12.095818433451448"><ele>230.0</ele><time>2026-04-04T10:27:35.002Z</time></trkpt><trkpt lat="44.06641712628186" lon="12.09593664884484"><ele>230.0</ele><time>2026-04-04T10:27:37.002Z</time></trkpt><trkpt lat="44.066430136415526" lon="12.096026722235967"><ele>230.0</ele><time>2026-04-04T10:27:38.002Z</time></trkpt><trkpt lat="44.06647883051901" lon="12.096111107505237"><ele>230.00000000000003</ele><time>2026-04-04T10:27:39.002Z</time></trkpt><trkpt lat="44.06655591639679" lon="12.096178328286973"><ele>230.0</ele><time>2026-04-04T10:27:40.002Z</time></trkpt><trkpt lat="44.066640172065846" lon="12.09626141154114"><ele>230.00000000000003</ele><time>2026-04-04T10:27:41.002Z</time></trkpt><trkpt lat="44.066722352256676" lon="12.096360029101715"><ele>230.0</ele><time>2026-04-04T10:27:42.002Z</time></trkpt><trkpt lat="44.066784175258654" lon="12.096453012722725"><ele>230.0</ele><time>2026-04-04T10:27:43.002Z</time></trkpt><trkpt lat="44.06680842077632" lon="12.096550345747364"><ele>230.0</ele><time>2026-04-04T10:27:44.002Z</time></trkpt><trkpt lat="44.0667848193628" lon="12.09664318325477"><ele>230.00000000000003</ele><time>2026-04-04T10:27:45.002Z</time></trkpt><trkpt lat="44.06673509120298" lon="12.096709039162455"><ele>230.0</ele><time>2026-04-04T10:27:46.002Z</time></trkpt><trkpt lat="44.06666885701147" lon="12.096730407298276"><ele>230.2</ele><time>2026-04-04T10:27:47.002Z</time></trkpt><trkpt lat="44.0665767789354" lon="12.096720320466748"><ele>230.4</ele><time>2026-04-04T10:27:48.002Z</time></trkpt><trkpt lat="44.06647359276035" lon="12.096674359111534"><ele>230.60000000000002</ele><time>2026-04-04T10:27:49.002Z</time></trkpt><trkpt lat="44.06635374399761" lon="12.0966211052662"><ele>230.8</ele><time>2026-04-04T10:27:50.002Z</time></trkpt><trkpt lat="44.066237798100566" lon="12.0965921014793"><ele>231.0</ele><time>2026-04-04T10:27:51.002Z</time></trkpt><trkpt lat="44.06612830471202" lon="12.096585188096794"><ele>232.25</ele><time>2026-04-04T10:27:52.002Z</time></trkpt><trkpt lat="44.06602892526829" lon="12.09663579845396"><ele>233.5</ele><time>2026-04-04T10:27:53.002Z</time></trkpt><trkpt lat="44.06593664113253" lon="12.096734385830509"><ele>234.75</ele><time>2026-04-04T10:27:54.002Z</time></trkpt><trkpt lat="44.06584820182612" lon="12.096861459131462"><ele>236.0</ele><time>2026-04-04T10:27:55.002Z</time></trkpt><trkpt lat="44.065748921392114" lon="12.096995106346796"><ele>236.0</ele><time>2026-04-04T10:27:56.002Z</time></trkpt><trkpt lat="44.065636012306776" lon="12.09713687266414"><ele>236.0</ele><time>2026-04-04T10:27:57.002Z</time></trkpt><trkpt lat="44.06552672728891" lon="12.097279695545602"><ele>236.0</ele><time>2026-04-04T10:27:58.002Z</time></trkpt><trkpt lat="44.06541433108007" lon="12.097416297262468"><ele>239.5</ele><time>2026-04-04T10:27:59.002Z</time></trkpt><trkpt lat="44.065304100182466" lon="12.097558292939738"><ele>243.0</ele><time>2026-04-04T10:28:00.002Z</time></trkpt><trkpt lat="44.06519875474721" lon="12.097701161382254"><ele>246.5</ele><time>2026-04-04T10:28:01.002Z</time></trkpt><trkpt lat="44.06509283019087" lon="12.097830508449105"><ele>250.0</ele><time>2026-04-04T10:28:02.002Z</time></trkpt><trkpt lat="44.06498309891549" lon="12.097937617219033"><ele>250.0</ele><time>2026-04-04T10:28:03.002Z</time></trkpt><trkpt lat="44.06486012994783" lon="12.098017377670985"><ele>250.0</ele><time>2026-04-04T10:28:04.002Z</time></trkpt><trkpt lat="44.06472783274891" lon="12.098044752528386"><ele>250.0</ele><time>2026-04-04T10:28:05.002Z</time></trkpt><trkpt lat="44.06458944519073" lon="12.098049733018252"><ele>250.0</ele><time>2026-04-04T10:28:06.002Z</time></trkpt><trkpt lat="44.064447872248486" lon="12.098062348110478"><ele>250.0</ele><time>2026-04-04T10:28:07.002Z</time></trkpt><trkpt lat="44.06430398425681" lon="12.0980803234629"><ele>250.0</ele><time>2026-04-04T10:28:08.002Z</time></trkpt><trkpt lat="44.06416467431968" lon="12.0981101350051"><ele>250.0</ele><time>2026-04-04T10:28:09.002Z</time></trkpt><trkpt lat="44.064035623822456" lon="12.098160849723905"><ele>250.0</ele><time>2026-04-04T10:28:10.002Z</time></trkpt><trkpt lat="44.06391194132701" lon="12.098231538854105"><ele>254.5</ele><time>2026-04-04T10:28:11.002Z</time></trkpt><trkpt lat="44.0637921421329" lon="12.098309219489028"><ele>259.0</ele><time>2026-04-04T10:28:12.002Z</time></trkpt><trkpt lat="44.06366985240748" lon="12.098387383534964"><ele>263.5</ele><time>2026-04-04T10:28:13.002Z</time></trkpt><trkpt lat="44.06353887395223" lon="12.09845155851945"><ele>268.0</ele><time>2026-04-04T10:28:14.002Z</time></trkpt><trkpt lat="44.063399290470215" lon="12.098496065299026"><ele>272.0</ele><time>2026-04-04T10:28:15.002Z</time></trkpt><trkpt lat="44.06325030482644" lon="12.098518190697487"><ele>276.0</ele><time>2026-04-04T10:28:16.002Z</time></trkpt><trkpt lat="44.063095463072735" lon="12.098519333877139"><ele>280.0</ele><time>2026-04-04T10:28:17.002Z</time></trkpt><trkpt lat="44.0629367234162" lon="12.098511103223778"><ele>280.0</ele><time>2026-04-04T10:28:18.002Z</time></trkpt><trkpt lat="44.062771920187394" lon="12.098500877332524"><ele>280.0</ele><time>2026-04-04T10:28:19.003Z</time></trkpt><trkpt lat="44.06260733974701" lon="12.09848902174462"><ele>280.0</ele><time>2026-04-04T10:28:20.003Z</time></trkpt><trkpt lat="44.062443153125194" lon="12.098482186967145"><ele>283.5</ele><time>2026-04-04T10:28:21.003Z</time></trkpt><trkpt lat="44.062284761160775" lon="12.098474743288604"><ele>287.0</ele><time>2026-04-04T10:28:22.003Z</time></trkpt><trkpt lat="44.062143862403126" lon="12.098456738113045"><ele>290.5</ele><time>2026-04-04T10:28:23.003Z</time></trkpt><trkpt lat="44.06200743506687" lon="12.09842076319434"><ele>294.0</ele><time>2026-04-04T10:28:24.003Z</time></trkpt><trkpt lat="44.061870494171785" lon="12.098384699107235"><ele>294.0</ele><time>2026-04-04T10:28:25.003Z</time></trkpt><trkpt lat="44.06174152579567" lon="12.098344516145595"><ele>294.0</ele><time>2026-04-04T10:28:26.003Z</time></trkpt><trkpt lat="44.06162042113958" lon="12.098302536152216"><ele>294.0</ele><time>2026-04-04T10:28:27.003Z</time></trkpt><trkpt lat="44.0614992665791" lon="12.098263232410783"><ele>294.0</ele><time>2026-04-04T10:28:28.003Z</time></trkpt><trkpt lat="44.06137768549647" lon="12.098223237849764"><ele>289.25</ele><time>2026-04-04T10:28:29.003Z</time></trkpt><trkpt lat="44.06125492684394" lon="12.098182837006922"><ele>284.5</ele><time>2026-04-04T10:28:30.003Z</time></trkpt><trkpt lat="44.06113496655448" lon="12.098143438231704"><ele>279.75</ele><time>2026-04-04T10:28:31.003Z</time></trkpt><trkpt lat="44.0610097466305" lon="12.098103079306584"><ele>275.0</ele><time>2026-04-04T10:28:32.003Z</time></trkpt><trkpt lat="44.06087963365642" lon="12.098077119768858"><ele>279.75</ele><time>2026-04-04T10:28:33.003Z</time></trkpt><trkpt lat="44.06073789685836" lon="12.098063983149334"><ele>284.5</ele><time>2026-04-04T10:28:34.003Z</time></trkpt><trkpt lat="44.06059715187957" lon="12.09808229703059"><ele>289.25</ele><time>2026-04-04T10:28:35.003Z</time></trkpt><trkpt lat="44.06045012520646" lon="12.098095813681095"><ele>294.0</ele><time>2026-04-04T10:28:36.003Z</time></trkpt><trkpt lat="44.06030610446732" lon="12.098105549848672"><ele>294.0</ele><time>2026-04-04T10:28:37.003Z</time></trkpt><trkpt lat="44.06017390262406" lon="12.098077206477056"><ele>294.0</ele><time>2026-04-04T10:28:38.003Z</time></trkpt><trkpt lat="44.06004576320304" lon="12.098049743314117"><ele>294.0</ele><time>2026-04-04T10:28:39.003Z</time></trkpt><trkpt lat="44.05991644217195" lon="12.097984069984019"><ele>294.0</ele><time>2026-04-04T10:28:40.003Z</time></trkpt><trkpt lat="44.05979121917883" lon="12.097908563290993"><ele>295.5</ele><time>2026-04-04T10:28:41.001Z</time></trkpt><trkpt lat="44.05967137037017" lon="12.097852367873838"><ele>297.0</ele><time>2026-04-04T10:28:42.001Z</time></trkpt><trkpt lat="44.059556457158315" lon="12.097808372257525"><ele>298.5</ele><time>2026-04-04T10:28:43.001Z</time></trkpt><trkpt lat="44.05944980009279" lon="12.09778848719931"><ele>300.0</ele><time>2026-04-04T10:28:44.001Z</time></trkpt><trkpt lat="44.05934888302188" lon="12.097797299477515"><ele>300.0</ele><time>2026-04-04T10:28:45.001Z</time></trkpt><trkpt lat="44.05926035666764" lon="12.097843696115895"><ele>300.0</ele><time>2026-04-04T10:28:46.001Z</time></trkpt><trkpt lat="44.05920095769165" lon="12.097931460982212"><ele>300.0</ele><time>2026-04-04T10:28:47.001Z</time></trkpt><trkpt lat="44.059162685787726" lon="12.098050528817733"><ele>300.0</ele><time>2026-04-04T10:28:48.001Z</time></trkpt><trkpt lat="44.05915127508504" lon="12.098218103825891"><ele>300.0</ele><time>2026-04-04T10:28:49.001Z</time></trkpt><trkpt lat="44.05913830527953" lon="12.09839332659446"><ele>299.5</ele><time>2026-04-04T10:28:50.001Z</time></trkpt><trkpt lat="44.0591178733203" lon="12.098576613290675"><ele>299.0</ele><time>2026-04-04T10:28:51.001Z</time></trkpt><trkpt lat="44.059100348502156" lon="12.098769408961852"><ele>298.5</ele><time>2026-04-04T10:28:52.001Z</time></trkpt><trkpt lat="44.05907934535135" lon="12.09896322810259"><ele>298.0</ele><time>2026-04-04T10:28:53.001Z</time></trkpt><trkpt lat="44.05907993816271" lon="12.099161968714327"><ele>300.3333333333333</ele><time>2026-04-04T10:28:54.001Z</time></trkpt><trkpt lat="44.059106277735594" lon="12.099373325786987"><ele>302.6666666666667</ele><time>2026-04-04T10:28:55.001Z</time></trkpt><trkpt lat="44.0591464191284" lon="12.099593406991932"><ele>305.0</ele><time>2026-04-04T10:28:56.001Z</time></trkpt><trkpt lat="44.059178001265735" lon="12.099816488066482"><ele>313.0</ele><time>2026-04-04T10:28:57.001Z</time></trkpt><trkpt lat="44.0591910056149" lon="12.100046636210378"><ele>321.0</ele><time>2026-04-04T10:28:58.001Z</time></trkpt><trkpt lat="44.05919138168492" lon="12.100286476297159"><ele>329.0</ele><time>2026-04-04T10:28:59.001Z</time></trkpt><trkpt lat="44.05918200992311" lon="12.100534371232754"><ele>332.6666666666667</ele><time>2026-04-04T10:29:00.001Z</time></trkpt><trkpt lat="44.05917259818514" lon="12.100781487684904"><ele>336.3333333333333</ele><time>2026-04-04T10:29:01.001Z</time></trkpt><trkpt lat="44.05916684276168" lon="12.101014303349046"><ele>340.0</ele><time>2026-04-04T10:29:02.001Z</time></trkpt><trkpt lat="44.05916130741722" lon="12.10123401213981"><ele>340.0</ele><time>2026-04-04T10:29:03.001Z</time></trkpt><trkpt lat="44.05915885406148" lon="12.101431897941612"><ele>340.0</ele><time>2026-04-04T10:29:04.001Z</time></trkpt><trkpt lat="44.05917350596902" lon="12.101627105358508"><ele>340.0</ele><time>2026-04-04T10:29:05.001Z</time></trkpt><trkpt lat="44.05920612828228" lon="12.101788519744664"><ele>340.0</ele><time>2026-04-04T10:29:06.001Z</time></trkpt><trkpt lat="44.059244332938356" lon="12.101929774822137"><ele>341.2</ele><time>2026-04-04T10:29:07.001Z</time></trkpt><trkpt lat="44.05927112934805" lon="12.102072763836265"><ele>342.4</ele><time>2026-04-04T10:29:08.001Z</time></trkpt><trkpt lat="44.05928546759577" lon="12.102215766735645"><ele>343.6</ele><time>2026-04-04T10:29:09.001Z</time></trkpt><trkpt lat="44.059295096306315" lon="12.102358440220474"><ele>344.8</ele><time>2026-04-04T10:29:10.001Z</time></trkpt><trkpt lat="44.059303481045" lon="12.102499257572447"><ele>346.0</ele><time>2026-04-04T10:29:11.001Z</time></trkpt><trkpt lat="44.05930111290268" lon="12.102642149602385"><ele>346.6</ele><time>2026-04-04T10:29:12.001Z</time></trkpt><trkpt lat="44.059307950232764" lon="12.102788542714817"><ele>347.20000000000005</ele><time>2026-04-04T10:29:13.001Z</time></trkpt><trkpt lat="44.05931556027885" lon="12.102935919203532"><ele>347.79999999999995</ele><time>2026-04-04T10:29:14.001Z</time></trkpt><trkpt lat="44.05931472425379" lon="12.103084535870286"><ele>348.4</ele><time>2026-04-04T10:29:15.001Z</time></trkpt><trkpt lat="44.05929793857324" lon="12.10323101497179"><ele>349.0</ele><time>2026-04-04T10:29:16.001Z</time></trkpt><trkpt lat="44.059268196642336" lon="12.103370713918697"><ele>349.6</ele><time>2026-04-04T10:29:17.001Z</time></trkpt><trkpt lat="44.05923266313341" lon="12.103499480969148"><ele>350.2</ele><time>2026-04-04T10:29:18.001Z</time></trkpt><trkpt lat="44.05920175036748" lon="12.103630449486726"><ele>350.8</ele><time>2026-04-04T10:29:19.001Z</time></trkpt><trkpt lat="44.05917537854138" lon="12.10376196081619"><ele>351.40000000000003</ele><time>2026-04-04T10:29:20.001Z</time></trkpt><trkpt lat="44.05914713900313" lon="12.103891973878396"><ele>352.0</ele><time>2026-04-04T10:29:21.001Z</time></trkpt><trkpt lat="44.05911347994233" lon="12.104021831013942"><ele>351.20000000000005</ele><time>2026-04-04T10:29:22.001Z</time></trkpt><trkpt lat="44.05906582817776" lon="12.104146856718781"><ele>350.4</ele><time>2026-04-04T10:29:23.001Z</time></trkpt><trkpt lat="44.05900577011241" lon="12.104270071042926"><ele>349.6</ele><time>2026-04-04T10:29:24.001Z</time></trkpt><trkpt lat="44.05893495031279" lon="12.104386081345591"><ele>348.79999999999995</ele><time>2026-04-04T10:29:25.001Z</time></trkpt><trkpt lat="44.0588634321465" lon="12.104493797839678"><ele>348.0</ele><time>2026-04-04T10:29:26.001Z</time></trkpt><trkpt lat="44.05878723379746" lon="12.104608816381738"><ele>348.0</ele><time>2026-04-04T10:29:27.001Z</time></trkpt><trkpt lat="44.0587295920689" lon="12.104731878529313"><ele>348.0</ele><time>2026-04-04T10:29:28.001Z</time></trkpt><trkpt lat="44.058678013548956" lon="12.104858759165273"><ele>348.0</ele><time>2026-04-04T10:29:29.001Z</time></trkpt><trkpt lat="44.058633684005464" lon="12.104987876672793"><ele>348.0</ele><time>2026-04-04T10:29:30.001Z</time></trkpt><trkpt lat="44.058623464225384" lon="12.105127003174921"><ele>348.0</ele><time>2026-04-04T10:29:31.001Z</time></trkpt><trkpt lat="44.058637320583" lon="12.10526152804275"><ele>349.59999999999997</ele><time>2026-04-04T10:29:32.001Z</time></trkpt><trkpt lat="44.058678336401535" lon="12.10538826297964"><ele>351.2</ele><time>2026-04-04T10:29:33.001Z</time></trkpt><trkpt lat="44.058744972091624" lon="12.105513927770687"><ele>352.8</ele><time>2026-04-04T10:29:34.001Z</time></trkpt><trkpt lat="44.058821761498734" lon="12.105638214457331"><ele>354.4</ele><time>2026-04-04T10:29:35.001Z</time></trkpt><trkpt lat="44.05890374223462" lon="12.105755050020953"><ele>356.0</ele><time>2026-04-04T10:29:36.001Z</time></trkpt><trkpt lat="44.058984148262134" lon="12.10587486116668"><ele>356.4</ele><time>2026-04-04T10:29:37.001Z</time></trkpt><trkpt lat="44.05903392270974" lon="12.106016036891733"><ele>356.8</ele><time>2026-04-04T10:29:38.001Z</time></trkpt><trkpt lat="44.05905312194388" lon="12.10617362475915"><ele>357.2</ele><time>2026-04-04T10:29:39.001Z</time></trkpt><trkpt lat="44.059053575541036" lon="12.106324893591426"><ele>357.59999999999997</ele><time>2026-04-04T10:29:40.001Z</time></trkpt><trkpt lat="44.05907632637574" lon="12.10647009615697"><ele>358.0</ele><time>2026-04-04T10:29:41.001Z</time></trkpt><trkpt lat="44.05913817969717" lon="12.106610769004098"><ele>361.5</ele><time>2026-04-04T10:29:42.001Z</time></trkpt><trkpt lat="44.05921491278085" lon="12.106749762375703"><ele>365.0</ele><time>2026-04-04T10:29:43.001Z</time></trkpt><trkpt lat="44.059289050188895" lon="12.10689089264317"><ele>368.5</ele><time>2026-04-04T10:29:44.001Z</time></trkpt><trkpt lat="44.05935947231815" lon="12.107031912957169"><ele>372.0</ele><time>2026-04-04T10:29:45.001Z</time></trkpt><trkpt lat="44.0594506482257" lon="12.10714675578244"><ele>372.0</ele><time>2026-04-04T10:29:46.001Z</time></trkpt><trkpt lat="44.059554663226095" lon="12.107224134353226"><ele>372.0</ele><time>2026-04-04T10:29:47.001Z</time></trkpt><trkpt lat="44.05964069253952" lon="12.107294586047933"><ele>372.0</ele><time>2026-04-04T10:29:48.001Z</time></trkpt><trkpt lat="44.059685197379395" lon="12.107401421411979"><ele>372.0</ele><time>2026-04-04T10:29:49.002Z</time></trkpt><trkpt lat="44.05970256480072" lon="12.107544705433495"><ele>372.0</ele><time>2026-04-04T10:29:50.002Z</time></trkpt><trkpt lat="44.059692458176364" lon="12.107694625654695"><ele>375.75</ele><time>2026-04-04T10:29:51.002Z</time></trkpt><trkpt lat="44.05967011368881" lon="12.107850090535008"><ele>379.5</ele><time>2026-04-04T10:29:52.002Z</time></trkpt><trkpt lat="44.059658311234884" lon="12.108014459376978"><ele>383.25</ele><time>2026-04-04T10:29:53.002Z</time></trkpt><trkpt lat="44.059663275232104" lon="12.10818734107607"><ele>387.0</ele><time>2026-04-04T10:29:54.002Z</time></trkpt><trkpt lat="44.05967978694153" lon="12.108359510468457"><ele>388.20000000000005</ele><time>2026-04-04T10:29:55.002Z</time></trkpt><trkpt lat="44.05970185187403" lon="12.108537596021073"><ele>389.4</ele><time>2026-04-04T10:29:56.002Z</time></trkpt><trkpt lat="44.05971583922431" lon="12.10869843516046"><ele>390.6</ele><time>2026-04-04T10:29:57.002Z</time></trkpt><trkpt lat="44.05974359366404" lon="12.108837246363143"><ele>391.79999999999995</ele><time>2026-04-04T10:29:58.002Z</time></trkpt><trkpt lat="44.05979542965854" lon="12.108953420489179"><ele>393.0</ele><time>2026-04-04T10:29:59.002Z</time></trkpt><trkpt lat="44.05988811607522" lon="12.10903871682121"><ele>393.59999999999997</ele><time>2026-04-04T10:30:00.002Z</time></trkpt><trkpt lat="44.05998555661481" lon="12.109121741677912"><ele>394.2</ele><time>2026-04-04T10:30:01.002Z</time></trkpt><trkpt lat="44.0600645602679" lon="12.10923461870182"><ele>394.8</ele><time>2026-04-04T10:30:02.002Z</time></trkpt><trkpt lat="44.060118597392545" lon="12.109373301376865"><ele>395.4</ele><time>2026-04-04T10:30:03.002Z</time></trkpt><trkpt lat="44.06013650973" lon="12.109521860164696"><ele>396.0</ele><time>2026-04-04T10:30:04.002Z</time></trkpt><trkpt lat="44.06011407372681" lon="12.109676742317262"><ele>396.0</ele><time>2026-04-04T10:30:05.002Z</time></trkpt><trkpt lat="44.06005553468443" lon="12.109811748575158"><ele>396.0</ele><time>2026-04-04T10:30:06.002Z</time></trkpt><trkpt lat="44.05997159191607" lon="12.109927402823892"><ele>396.0</ele><time>2026-04-04T10:30:07.002Z</time></trkpt><trkpt lat="44.05986828797285" lon="12.110033378765248"><ele>396.0</ele><time>2026-04-04T10:30:08.002Z</time></trkpt><trkpt lat="44.05976136956038" lon="12.110142733222014"><ele>398.0</ele><time>2026-04-04T10:30:09.002Z</time></trkpt><trkpt lat="44.059641386354436" lon="12.11023762353479"><ele>400.0</ele><time>2026-04-04T10:30:10.002Z</time></trkpt><trkpt lat="44.05952131068433" lon="12.110333358468719"><ele>402.0</ele><time>2026-04-04T10:30:11.002Z</time></trkpt><trkpt lat="44.05941353231484" lon="12.11044528617993"><ele>404.0</ele><time>2026-04-04T10:30:12.002Z</time></trkpt><trkpt lat="44.059312584662294" lon="12.11055624731677"><ele>404.0</ele><time>2026-04-04T10:30:13.002Z</time></trkpt><trkpt lat="44.05921685889548" lon="12.110663233988086"><ele>404.0</ele><time>2026-04-04T10:30:14.002Z</time></trkpt><trkpt lat="44.059136970923824" lon="12.110757372663583"><ele>404.0</ele><time>2026-04-04T10:30:15.002Z</time></trkpt><trkpt lat="44.05907374463169" lon="12.110840161438183"><ele>404.0</ele><time>2026-04-04T10:30:16.002Z</time></trkpt><trkpt lat="44.059015778855276" lon="12.110918435476748"><ele>404.0</ele><time>2026-04-04T10:30:17.002Z</time></trkpt><trkpt lat="44.05897031094147" lon="12.111011603463737"><ele>402.3333333333333</ele><time>2026-04-04T10:30:18.002Z</time></trkpt><trkpt lat="44.05894401283603" lon="12.111117093427339"><ele>400.66666666666663</ele><time>2026-04-04T10:30:19.002Z</time></trkpt><trkpt lat="44.058950002240586" lon="12.111224471632218"><ele>399.0</ele><time>2026-04-04T10:30:20.002Z</time></trkpt><trkpt lat="44.05898418413701" lon="12.111336033445808"><ele>397.33333333333337</ele><time>2026-04-04T10:30:21.002Z</time></trkpt><trkpt lat="44.059037427799566" lon="12.111434616697663"><ele>395.6666666666667</ele><time>2026-04-04T10:30:22.002Z</time></trkpt><trkpt lat="44.05909876149054" lon="12.111527828733342"><ele>394.0</ele><time>2026-04-04T10:30:23.002Z</time></trkpt><trkpt lat="44.0591820601004" lon="12.111597360812357"><ele>399.6</ele><time>2026-04-04T10:30:24.002Z</time></trkpt><trkpt lat="44.059280476965895" lon="12.111648966590204"><ele>405.2</ele><time>2026-04-04T10:30:25.002Z</time></trkpt><trkpt lat="44.05938632786606" lon="12.111698430891776"><ele>410.8</ele><time>2026-04-04T10:30:26.002Z</time></trkpt><trkpt lat="44.059484391287384" lon="12.111776400001837"><ele>416.40000000000003</ele><time>2026-04-04T10:30:27.002Z</time></trkpt><trkpt lat="44.05957863557333" lon="12.111871880793066"><ele>422.0</ele><time>2026-04-04T10:30:28.002Z</time></trkpt><trkpt lat="44.059669554169545" lon="12.111974746506803"><ele>422.0</ele><time>2026-04-04T10:30:29.002Z</time></trkpt><trkpt lat="44.05975913005796" lon="12.112068837855047"><ele>422.0</ele><time>2026-04-04T10:30:30.002Z</time></trkpt><trkpt lat="44.059863849941564" lon="12.112185021456725"><ele>422.0</ele><time>2026-04-04T10:30:31.002Z</time></trkpt><trkpt lat="44.05996568362287" lon="12.112294483972573"><ele>422.0</ele><time>2026-04-04T10:30:32.002Z</time></trkpt><trkpt lat="44.06005107516994" lon="12.112414941041761"><ele>424.20000000000005</ele><time>2026-04-04T10:30:33.002Z</time></trkpt><trkpt lat="44.06011839387568" lon="12.112544765988732"><ele>426.4</ele><time>2026-04-04T10:30:34.002Z</time></trkpt><trkpt lat="44.060159776436166" lon="12.112685960861974"><ele>428.59999999999997</ele><time>2026-04-04T10:30:35.002Z</time></trkpt><trkpt lat="44.060159312582385" lon="12.11282123066274"><ele>430.79999999999995</ele><time>2026-04-04T10:30:36.002Z</time></trkpt><trkpt lat="44.060124273725464" lon="12.112928340259167"><ele>433.0</ele><time>2026-04-04T10:30:37.002Z</time></trkpt><trkpt lat="44.06006245513738" lon="12.113027736631656"><ele>433.0</ele><time>2026-04-04T10:30:38.002Z</time></trkpt><trkpt lat="44.060018447163515" lon="12.113160489603512"><ele>432.99999999999994</ele><time>2026-04-04T10:30:39.002Z</time></trkpt><trkpt lat="44.060009468143896" lon="12.113306308183637"><ele>432.99999999999994</ele><time>2026-04-04T10:30:40.002Z</time></trkpt><trkpt lat="44.06003180990976" lon="12.113454530238556"><ele>433.0</ele><time>2026-04-04T10:30:41.003Z</time></trkpt><trkpt lat="44.060085700049946" lon="12.113596890430923"><ele>433.0</ele><time>2026-04-04T10:30:42.003Z</time></trkpt><trkpt lat="44.060165068318696" lon="12.11370989462307"><ele>434.2</ele><time>2026-04-04T10:30:43.003Z</time></trkpt><trkpt lat="44.060253129473" lon="12.113782023497633"><ele>435.4</ele><time>2026-04-04T10:30:44.003Z</time></trkpt><trkpt lat="44.06034865600666" lon="12.113857585765238"><ele>436.59999999999997</ele><time>2026-04-04T10:30:45.003Z</time></trkpt><trkpt lat="44.06042494025008" lon="12.113944236620272"><ele>437.79999999999995</ele><time>2026-04-04T10:30:46.003Z</time></trkpt><trkpt lat="44.06049694789226" lon="12.11403355990898"><ele>439.0</ele><time>2026-04-04T10:30:47.001Z</time></trkpt><trkpt lat="44.060564668508825" lon="12.114125722531163"><ele>439.00000000000006</ele><time>2026-04-04T10:30:48.001Z</time></trkpt><trkpt lat="44.06061487730727" lon="12.114221137846936"><ele>439.0</ele><time>2026-04-04T10:30:49.001Z</time></trkpt><trkpt lat="44.06065466307005" lon="12.114305112224045"><ele>439.0</ele><time>2026-04-04T10:30:50.001Z</time></trkpt><trkpt lat="44.06068546795514" lon="12.114385354336886"><ele>439.0</ele><time>2026-04-04T10:30:51.001Z</time></trkpt><trkpt lat="44.06072265854417" lon="12.114479205281453"><ele>439.00000000000006</ele><time>2026-04-04T10:30:52.001Z</time></trkpt><trkpt lat="44.06075524933918" lon="12.11457936699549"><ele>439.0</ele><time>2026-04-04T10:30:53.001Z</time></trkpt><trkpt lat="44.06079918873454" lon="12.11469365217057"><ele>439.00000000000006</ele><time>2026-04-04T10:30:54.001Z</time></trkpt><trkpt lat="44.06085222808311" lon="12.114804791109162"><ele>439.0</ele><time>2026-04-04T10:30:55.001Z</time></trkpt><trkpt lat="44.06090274552948" lon="12.114913843572134"><ele>439.0</ele><time>2026-04-04T10:30:56.001Z</time></trkpt><trkpt lat="44.06094837013025" lon="12.115017791043497"><ele>439.0</ele><time>2026-04-04T10:30:57.001Z</time></trkpt><trkpt lat="44.06099744176514" lon="12.115113970639017"><ele>439.00000000000006</ele><time>2026-04-04T10:30:58.001Z</time></trkpt><trkpt lat="44.061051075462686" lon="12.115198079898542"><ele>439.0</ele><time>2026-04-04T10:30:59.001Z</time></trkpt><trkpt lat="44.06111707319085" lon="12.115278645834001"><ele>439.00000000000006</ele><time>2026-04-04T10:31:00.001Z</time></trkpt><trkpt lat="44.061182965595165" lon="12.115348856436205"><ele>439.0</ele><time>2026-04-04T10:31:01.001Z</time></trkpt><trkpt lat="44.0612475032269" lon="12.115403790019752"><ele>439.0</ele><time>2026-04-04T10:31:02.001Z</time></trkpt><trkpt lat="44.06130803783689" lon="12.115454395103745"><ele>439.0</ele><time>2026-04-04T10:31:03.001Z</time></trkpt><trkpt lat="44.06137745797965" lon="12.115509427232446"><ele>439.00000000000006</ele><time>2026-04-04T10:31:04.001Z</time></trkpt><trkpt lat="44.061447020232066" lon="12.11555786499965"><ele>439.0</ele><time>2026-04-04T10:31:05.001Z</time></trkpt><trkpt lat="44.06151343141883" lon="12.115604145841239"><ele>439.00000000000006</ele><time>2026-04-04T10:31:06.001Z</time></trkpt><trkpt lat="44.06157738807035" lon="12.115644710451598"><ele>439.0</ele><time>2026-04-04T10:31:07.001Z</time></trkpt><trkpt lat="44.06164159576739" lon="12.11569622693228"><ele>439.0</ele><time>2026-04-04T10:31:08.001Z</time></trkpt><trkpt lat="44.06170319189075" lon="12.115742679367242"><ele>439.0</ele><time>2026-04-04T10:31:09.001Z</time></trkpt><trkpt lat="44.06178427696441" lon="12.11585097171513"><ele>439.00000000000006</ele><time>2026-04-04T10:31:11.001Z</time></trkpt><trkpt lat="44.0618240414341" lon="12.116005875402207"><ele>439.0</ele><time>2026-04-04T10:31:13.001Z</time></trkpt><trkpt lat="44.06181151094553" lon="12.11617179838536"><ele>439.00000000000006</ele><time>2026-04-04T10:31:15.001Z</time></trkpt><trkpt lat="44.061777519119225" lon="12.116315533370129"><ele>439.0</ele><time>2026-04-04T10:31:17.001Z</time></trkpt><trkpt lat="44.06180585257385" lon="12.116427990684933"><ele>439.0</ele><time>2026-04-04T10:31:19.001Z</time></trkpt><trkpt lat="44.061899284089975" lon="12.116465381537928"><ele>439.0</ele><time>2026-04-04T10:31:21.001Z</time></trkpt><trkpt lat="44.06196253780142" lon="12.11644671539374"><ele>439.00000000000006</ele><time>2026-04-04T10:31:22.001Z</time></trkpt><trkpt lat="44.06203656019603" lon="12.116380939351906"><ele>439.0</ele><time>2026-04-04T10:31:23.001Z</time></trkpt><trkpt lat="44.06210382017342" lon="12.116324734442186"><ele>439.00000000000006</ele><time>2026-04-04T10:31:24.001Z</time></trkpt><trkpt lat="44.062171464418476" lon="12.116267018650534"><ele>439.0</ele><time>2026-04-04T10:31:25.001Z</time></trkpt><trkpt lat="44.062236427002816" lon="12.116216268834629"><ele>439.0</ele><time>2026-04-04T10:31:26.001Z</time></trkpt><trkpt lat="44.06235786123354" lon="12.116166419439534"><ele>439.0</ele><time>2026-04-04T10:31:28.001Z</time></trkpt><trkpt lat="44.062422031575935" lon="12.116163954762643"><ele>439.00000000000006</ele><time>2026-04-04T10:31:29.001Z</time></trkpt><trkpt lat="44.06249166899847" lon="12.116169560072384"><ele>439.0</ele><time>2026-04-04T10:31:30.001Z</time></trkpt><trkpt lat="44.06256739141856" lon="12.1161866197082"><ele>437.33333333333337</ele><time>2026-04-04T10:31:31.001Z</time></trkpt><trkpt lat="44.06262639188806" lon="12.11623059624173"><ele>435.6666666666667</ele><time>2026-04-04T10:31:32.001Z</time></trkpt><trkpt lat="44.06268714784224" lon="12.116284552994555"><ele>434.0</ele><time>2026-04-04T10:31:33.001Z</time></trkpt><trkpt lat="44.06274813494813" lon="12.116349201341306"><ele>432.33333333333337</ele><time>2026-04-04T10:31:34.001Z</time></trkpt><trkpt lat="44.062807789130694" lon="12.116417006755457"><ele>430.6666666666667</ele><time>2026-04-04T10:31:35.001Z</time></trkpt><trkpt lat="44.06286444402511" lon="12.116490627639363"><ele>429.0</ele><time>2026-04-04T10:31:36.001Z</time></trkpt><trkpt lat="44.06292119244404" lon="12.116568954301155"><ele>429.2857142857143</ele><time>2026-04-04T10:31:37.001Z</time></trkpt><trkpt lat="44.06297769701676" lon="12.116654329015283"><ele>429.57142857142856</ele><time>2026-04-04T10:31:38.001Z</time></trkpt><trkpt lat="44.06302789382832" lon="12.116736929150248"><ele>429.8571428571429</ele><time>2026-04-04T10:31:39.001Z</time></trkpt><trkpt lat="44.06306853525788" lon="12.116807543715426"><ele>430.1428571428571</ele><time>2026-04-04T10:31:40.001Z</time></trkpt><trkpt lat="44.06310974953736" lon="12.11687974107166"><ele>430.4285714285714</ele><time>2026-04-04T10:31:41.001Z</time></trkpt><trkpt lat="44.06315405674748" lon="12.116950125472611"><ele>430.7142857142857</ele><time>2026-04-04T10:31:42.001Z</time></trkpt><trkpt lat="44.06319966811369" lon="12.117021794511915"><ele>431.0</ele><time>2026-04-04T10:31:43.001Z</time></trkpt><trkpt lat="44.063240024861734" lon="12.117096219481002"><ele>430.8571428571429</ele><time>2026-04-04T10:31:44.001Z</time></trkpt><trkpt lat="44.063290525873725" lon="12.117172741778786"><ele>430.71428571428567</ele><time>2026-04-04T10:31:45.001Z</time></trkpt><trkpt lat="44.063343583294426" lon="12.11724709561696"><ele>430.57142857142856</ele><time>2026-04-04T10:31:46.001Z</time></trkpt><trkpt lat="44.06340298329799" lon="12.11731553699164"><ele>430.42857142857144</ele><time>2026-04-04T10:31:47.001Z</time></trkpt><trkpt lat="44.06345376624287" lon="12.1173853090136"><ele>430.28571428571433</ele><time>2026-04-04T10:31:48.001Z</time></trkpt><trkpt lat="44.06351574081984" lon="12.117445886094679"><ele>430.1428571428571</ele><time>2026-04-04T10:31:49.001Z</time></trkpt><trkpt lat="44.063577604262264" lon="12.11750078965175"><ele>430.0</ele><time>2026-04-04T10:31:50.001Z</time></trkpt><trkpt lat="44.06363784505819" lon="12.117556755440821"><ele>430.00000000000006</ele><time>2026-04-04T10:31:51.001Z</time></trkpt><trkpt lat="44.0637229094378" lon="12.117589237797713"><ele>430.0</ele><time>2026-04-04T10:31:52.001Z</time></trkpt><trkpt lat="44.06378864002863" lon="12.117623911716679"><ele>430.0</ele><time>2026-04-04T10:31:53.001Z</time></trkpt><trkpt lat="44.06385901330685" lon="12.117642611729593"><ele>430.0</ele><time>2026-04-04T10:31:54.001Z</time></trkpt><trkpt lat="44.06393175663415" lon="12.117665119884636"><ele>430.00000000000006</ele><time>2026-04-04T10:31:55.001Z</time></trkpt><trkpt lat="44.064042630121506" lon="12.117763001975046"><ele>430.0</ele><time>2026-04-04T10:31:57.001Z</time></trkpt><trkpt lat="44.064078932300355" lon="12.11784099224046"><ele>430.00000000000006</ele><time>2026-04-04T10:31:58.001Z</time></trkpt><trkpt lat="44.06409820683903" lon="12.117930083911425"><ele>430.0</ele><time>2026-04-04T10:31:59.001Z</time></trkpt><trkpt lat="44.06410727030354" lon="12.118026114815345"><ele>430.0</ele><time>2026-04-04T10:32:00.001Z</time></trkpt><trkpt lat="44.06411739318794" lon="12.118129703082008"><ele>430.0</ele><time>2026-04-04T10:32:01.001Z</time></trkpt><trkpt lat="44.064140560814785" lon="12.118236075128888"><ele>430.00000000000006</ele><time>2026-04-04T10:32:02.001Z</time></trkpt><trkpt lat="44.06417167151665" lon="12.1183367031147"><ele>430.0</ele><time>2026-04-04T10:32:03.001Z</time></trkpt><trkpt lat="44.06421020339851" lon="12.118443621962307"><ele>430.00000000000006</ele><time>2026-04-04T10:32:04.001Z</time></trkpt><trkpt lat="44.064249873143915" lon="12.118550379112833"><ele>430.0</ele><time>2026-04-04T10:32:05.001Z</time></trkpt><trkpt lat="44.0642808498648" lon="12.118659736518651"><ele>430.0</ele><time>2026-04-04T10:32:06.001Z</time></trkpt><trkpt lat="44.06430815674099" lon="12.118774827930658"><ele>430.0</ele><time>2026-04-04T10:32:07.001Z</time></trkpt><trkpt lat="44.06432157443014" lon="12.11888686057854"><ele>430.00000000000006</ele><time>2026-04-04T10:32:08.001Z</time></trkpt><trkpt lat="44.06432977704059" lon="12.118995021858739"><ele>430.0</ele><time>2026-04-04T10:32:09.002Z</time></trkpt><trkpt lat="44.06433609798937" lon="12.119096640163038"><ele>430.00000000000006</ele><time>2026-04-04T10:32:10.002Z</time></trkpt><trkpt lat="44.064333894437915" lon="12.119191324305806"><ele>430.0</ele><time>2026-04-04T10:32:11.002Z</time></trkpt><trkpt lat="44.06432298558249" lon="12.119278833769949"><ele>430.0</ele><time>2026-04-04T10:32:12.002Z</time></trkpt><trkpt lat="44.06431762392625" lon="12.119368633992378"><ele>430.0</ele><time>2026-04-04T10:32:13.002Z</time></trkpt><trkpt lat="44.06433710140503" lon="12.119542566160003"><ele>430.00000000000006</ele><time>2026-04-04T10:32:15.002Z</time></trkpt><trkpt lat="44.06437318146576" lon="12.119622528795604"><ele>430.0</ele><time>2026-04-04T10:32:16.002Z</time></trkpt><trkpt lat="44.06442173300184" lon="12.119699347006513"><ele>430.00000000000006</ele><time>2026-04-04T10:32:17.002Z</time></trkpt><trkpt lat="44.06448029683263" lon="12.1197581136731"><ele>430.0</ele><time>2026-04-04T10:32:18.002Z</time></trkpt><trkpt lat="44.06454138391306" lon="12.119819304786581"><ele>430.0</ele><time>2026-04-04T10:32:19.002Z</time></trkpt><trkpt lat="44.06460969944179" lon="12.119884457695905"><ele>430.0</ele><time>2026-04-04T10:32:20.002Z</time></trkpt><trkpt lat="44.064677269644925" lon="12.119943337929309"><ele>430.00000000000006</ele><time>2026-04-04T10:32:21.002Z</time></trkpt><trkpt lat="44.064741791724494" lon="12.119996773763882"><ele>430.0</ele><time>2026-04-04T10:32:22.002Z</time></trkpt><trkpt lat="44.06480809445226" lon="12.120054261361123"><ele>430.00000000000006</ele><time>2026-04-04T10:32:23.002Z</time></trkpt><trkpt lat="44.06488044745983" lon="12.120109774291336"><ele>430.0</ele><time>2026-04-04T10:32:24.002Z</time></trkpt><trkpt lat="44.064951650706234" lon="12.120144731605235"><ele>430.0</ele><time>2026-04-04T10:32:25.002Z</time></trkpt><trkpt lat="44.06502535620345" lon="12.12017897778473"><ele>430.0</ele><time>2026-04-04T10:32:26.002Z</time></trkpt><trkpt lat="44.06510238629395" lon="12.120205302949449"><ele>430.00000000000006</ele><time>2026-04-04T10:32:27.002Z</time></trkpt><trkpt lat="44.06517885221008" lon="12.120222670728882"><ele>430.0</ele><time>2026-04-04T10:32:28.002Z</time></trkpt><trkpt lat="44.06525709068274" lon="12.120224415022026"><ele>430.00000000000006</ele><time>2026-04-04T10:32:29.002Z</time></trkpt><trkpt lat="44.065337230987" lon="12.120209483196648"><ele>430.0</ele><time>2026-04-04T10:32:30.002Z</time></trkpt><trkpt lat="44.06541865158752" lon="12.120179129972504"><ele>430.0</ele><time>2026-04-04T10:32:31.002Z</time></trkpt><trkpt lat="44.06550311905566" lon="12.120137902429107"><ele>430.0</ele><time>2026-04-04T10:32:32.002Z</time></trkpt><trkpt lat="44.065583166339856" lon="12.12009406466884"><ele>430.00000000000006</ele><time>2026-04-04T10:32:33.002Z</time></trkpt><trkpt lat="44.06565785427574" lon="12.120051538794312"><ele>430.0</ele><time>2026-04-04T10:32:34.002Z</time></trkpt><trkpt lat="44.0657319717191" lon="12.12000527787947"><ele>429.2</ele><time>2026-04-04T10:32:35.002Z</time></trkpt><trkpt lat="44.06581091700192" lon="12.119954341149144"><ele>428.4</ele><time>2026-04-04T10:32:36.002Z</time></trkpt><trkpt lat="44.06589632041185" lon="12.119893862672965"><ele>427.6</ele><time>2026-04-04T10:32:37.002Z</time></trkpt><trkpt lat="44.06597887157441" lon="12.11983978702572"><ele>426.8</ele><time>2026-04-04T10:32:38.002Z</time></trkpt><trkpt lat="44.06606466218929" lon="12.119788969390195"><ele>426.0</ele><time>2026-04-04T10:32:39.002Z</time></trkpt><trkpt lat="44.066149480068674" lon="12.11973366846402"><ele>426.0</ele><time>2026-04-04T10:32:40.002Z</time></trkpt><trkpt lat="44.066227683121575" lon="12.119679485680368"><ele>426.0</ele><time>2026-04-04T10:32:41.002Z</time></trkpt><trkpt lat="44.06629845562724" lon="12.119628358485134"><ele>426.0</ele><time>2026-04-04T10:32:42.002Z</time></trkpt><trkpt lat="44.06636377321837" lon="12.119578720930804"><ele>426.0</ele><time>2026-04-04T10:32:43.002Z</time></trkpt><trkpt lat="44.066424160502" lon="12.119530462039714"><ele>426.0</ele><time>2026-04-04T10:32:44.002Z</time></trkpt><trkpt lat="44.06652961670427" lon="12.119445964578698"><ele>426.0</ele><time>2026-04-04T10:32:46.002Z</time></trkpt><trkpt lat="44.06664447925485" lon="12.119415143654576"><ele>423.4</ele><time>2026-04-04T10:32:48.002Z</time></trkpt><trkpt lat="44.06674988725386" lon="12.119442619678434"><ele>420.8</ele><time>2026-04-04T10:32:50.002Z</time></trkpt><trkpt lat="44.066825947372116" lon="12.119515635705202"><ele>418.2</ele><time>2026-04-04T10:32:52.002Z</time></trkpt><trkpt lat="44.066865706285945" lon="12.119621772894828"><ele>415.59999999999997</ele><time>2026-04-04T10:32:54.001Z</time></trkpt><trkpt lat="44.066868325728116" lon="12.119762667765032"><ele>413.0</ele><time>2026-04-04T10:32:56.001Z</time></trkpt><trkpt lat="44.06686974179997" lon="12.11991054407561"><ele>412.99999999999994</ele><time>2026-04-04T10:32:58.001Z</time></trkpt><trkpt lat="44.06692994537955" lon="12.120045134683298"><ele>413.0</ele><time>2026-04-04T10:33:00.001Z</time></trkpt><trkpt lat="44.06703504350204" lon="12.120128036431064"><ele>413.0</ele><time>2026-04-04T10:33:02.001Z</time></trkpt><trkpt lat="44.06710166927632" lon="12.120143894931392"><ele>413.0</ele><time>2026-04-04T10:33:03.001Z</time></trkpt><trkpt lat="44.06717079708922" lon="12.120160123589049"><ele>412.99999999999994</ele><time>2026-04-04T10:33:04.001Z</time></trkpt><trkpt lat="44.06724166291449" lon="12.120179838449383"><ele>413.0</ele><time>2026-04-04T10:33:05.001Z</time></trkpt><trkpt lat="44.06730919267329" lon="12.120210181351789"><ele>413.0</ele><time>2026-04-04T10:33:06.001Z</time></trkpt><trkpt lat="44.06737097764995" lon="12.120256939463559"><ele>413.0</ele><time>2026-04-04T10:33:07.001Z</time></trkpt><trkpt lat="44.06742617982765" lon="12.120317653740834"><ele>413.0</ele><time>2026-04-04T10:33:08.001Z</time></trkpt><trkpt lat="44.067470204372775" lon="12.120390063906614"><ele>413.0</ele><time>2026-04-04T10:33:09.001Z</time></trkpt><trkpt lat="44.067504753037056" lon="12.120470646358884"><ele>413.0</ele><time>2026-04-04T10:33:10.001Z</time></trkpt><trkpt lat="44.067535443365784" lon="12.120561053696422"><ele>413.0</ele><time>2026-04-04T10:33:11.001Z</time></trkpt><trkpt lat="44.0675629000373" lon="12.1206464471411"><ele>413.0</ele><time>2026-04-04T10:33:12.001Z</time></trkpt><trkpt lat="44.0676424866669" lon="12.1207637645705"><ele>413.0</ele><time>2026-04-04T10:33:14.001Z</time></trkpt><trkpt lat="44.06772504152241" lon="12.120783974678279"><ele>413.0</ele><time>2026-04-04T10:33:16.001Z</time></trkpt><trkpt lat="44.06781179183633" lon="12.120728617821126"><ele>413.0</ele><time>2026-04-04T10:33:18.001Z</time></trkpt><trkpt lat="44.06786084000336" lon="12.120584534702894"><ele>413.0</ele><time>2026-04-04T10:33:20.001Z</time></trkpt><trkpt lat="44.067895410346914" lon="12.120460700308376"><ele>413.0</ele><time>2026-04-04T10:33:22.001Z</time></trkpt><trkpt lat="44.067976745183934" lon="12.120370994286946"><ele>412.5</ele><time>2026-04-04T10:33:24.001Z</time></trkpt><trkpt lat="44.06808202139549" lon="12.120402449821125"><ele>412.0</ele><time>2026-04-04T10:33:26.001Z</time></trkpt><trkpt lat="44.06818092162267" lon="12.120480719446194"><ele>411.5</ele><time>2026-04-04T10:33:28.001Z</time></trkpt><trkpt lat="44.06828254678105" lon="12.120570365958795"><ele>411.0</ele><time>2026-04-04T10:33:30.001Z</time></trkpt><trkpt lat="44.068337064223186" lon="12.120706931876244"><ele>414.0</ele><time>2026-04-04T10:33:32.001Z</time></trkpt><trkpt lat="44.06838112177869" lon="12.120864749393956"><ele>417.0</ele><time>2026-04-04T10:33:34.001Z</time></trkpt><trkpt lat="44.06839919908023" lon="12.12096184296271"><ele>420.0</ele><time>2026-04-04T10:33:35.001Z</time></trkpt><trkpt lat="44.06841992863306" lon="12.12105983769727"><ele>423.0</ele><time>2026-04-04T10:33:36.001Z</time></trkpt><trkpt lat="44.068444485963084" lon="12.12115870505008"><ele>426.0</ele><time>2026-04-04T10:33:37.001Z</time></trkpt><trkpt lat="44.068469098360026" lon="12.121272257365945"><ele>429.0</ele><time>2026-04-04T10:33:38.001Z</time></trkpt><trkpt lat="44.06849630002512" lon="12.121388043735044"><ele>429.0</ele><time>2026-04-04T10:33:39.001Z</time></trkpt><trkpt lat="44.068525654195824" lon="12.121502441116485"><ele>429.0</ele><time>2026-04-04T10:33:40.001Z</time></trkpt><trkpt lat="44.06855449658674" lon="12.121626216823078"><ele>429.0</ele><time>2026-04-04T10:33:41.001Z</time></trkpt><trkpt lat="44.06857666111888" lon="12.12175166625291"><ele>429.0</ele><time>2026-04-04T10:33:42.001Z</time></trkpt><trkpt lat="44.068590793208145" lon="12.121874527408535"><ele>429.0</ele><time>2026-04-04T10:33:43.001Z</time></trkpt><trkpt lat="44.068609187261984" lon="12.121998960119505"><ele>429.3333333333333</ele><time>2026-04-04T10:33:44.001Z</time></trkpt><trkpt lat="44.068618077903736" lon="12.122105356478617"><ele>429.66666666666663</ele><time>2026-04-04T10:33:45.001Z</time></trkpt><trkpt lat="44.068623801898816" lon="12.122198670672928"><ele>430.0</ele><time>2026-04-04T10:33:46.001Z</time></trkpt><trkpt lat="44.06863370114624" lon="12.122300340113302"><ele>430.3333333333333</ele><time>2026-04-04T10:33:47.001Z</time></trkpt><trkpt lat="44.068639336874625" lon="12.122399994747182"><ele>430.66666666666663</ele><time>2026-04-04T10:33:48.001Z</time></trkpt><trkpt lat="44.06863298703289" lon="12.122516989769718"><ele>431.0</ele><time>2026-04-04T10:33:49.001Z</time></trkpt><trkpt lat="44.06863107193981" lon="12.1226239152744"><ele>430.99999999999994</ele><time>2026-04-04T10:33:50.001Z</time></trkpt><trkpt lat="44.068630521154134" lon="12.122724244946154"><ele>431.0</ele><time>2026-04-04T10:33:51.001Z</time></trkpt><trkpt lat="44.06864197507923" lon="12.122828683259844"><ele>431.0</ele><time>2026-04-04T10:33:52.001Z</time></trkpt><trkpt lat="44.06866090928731" lon="12.122926595602934"><ele>431.0</ele><time>2026-04-04T10:33:53.001Z</time></trkpt><trkpt lat="44.06869202330016" lon="12.123029957316769"><ele>430.99999999999994</ele><time>2026-04-04T10:33:54.001Z</time></trkpt><trkpt lat="44.068727251525786" lon="12.123123299619438"><ele>431.0</ele><time>2026-04-04T10:33:55.001Z</time></trkpt><trkpt lat="44.068771658693585" lon="12.123222660760629"><ele>430.0</ele><time>2026-04-04T10:33:56.001Z</time></trkpt><trkpt lat="44.068823772878744" lon="12.123332939346223"><ele>429.0</ele><time>2026-04-04T10:33:57.001Z</time></trkpt><trkpt lat="44.06887211249137" lon="12.12344758877642"><ele>428.0</ele><time>2026-04-04T10:33:58.001Z</time></trkpt><trkpt lat="44.06892107540885" lon="12.123566384456106"><ele>427.0</ele><time>2026-04-04T10:33:59.001Z</time></trkpt><trkpt lat="44.06896626502537" lon="12.123690823185935"><ele>426.0</ele><time>2026-04-04T10:34:00.001Z</time></trkpt><trkpt lat="44.069008544877086" lon="12.123817874507537"><ele>426.0</ele><time>2026-04-04T10:34:01.001Z</time></trkpt><trkpt lat="44.06904428924293" lon="12.12393608921909"><ele>426.0</ele><time>2026-04-04T10:34:02.001Z</time></trkpt><trkpt lat="44.06907733094036" lon="12.124064453719273"><ele>426.0</ele><time>2026-04-04T10:34:03.001Z</time></trkpt><trkpt lat="44.06910599649221" lon="12.124180578728282"><ele>426.0</ele><time>2026-04-04T10:34:04.001Z</time></trkpt><trkpt lat="44.06913262375198" lon="12.124295712888745"><ele>426.0</ele><time>2026-04-04T10:34:05.001Z</time></trkpt><trkpt lat="44.069153805160035" lon="12.12439775872181"><ele>426.0</ele><time>2026-04-04T10:34:06.001Z</time></trkpt><trkpt lat="44.06917151025115" lon="12.124483252826467"><ele>427.8</ele><time>2026-04-04T10:34:07.001Z</time></trkpt><trkpt lat="44.06921032495988" lon="12.124632096534604"><ele>429.6</ele><time>2026-04-04T10:34:09.001Z</time></trkpt><trkpt lat="44.0692347957419" lon="12.12473884355319"><ele>431.4</ele><time>2026-04-04T10:34:11.001Z</time></trkpt><trkpt lat="44.06923376114595" lon="12.124832921111032"><ele>433.2</ele><time>2026-04-04T10:34:13.001Z</time></trkpt><trkpt lat="44.06917383966609" lon="12.12497621880416"><ele>435.0</ele><time>2026-04-04T10:34:15.001Z</time></trkpt><trkpt lat="44.06912476967953" lon="12.125048571262267"><ele>431.0</ele><time>2026-04-04T10:34:16.001Z</time></trkpt><trkpt lat="44.069074995602925" lon="12.125127105698542"><ele>427.0</ele><time>2026-04-04T10:34:17.001Z</time></trkpt><trkpt lat="44.06902345491341" lon="12.12523127188649"><ele>423.0</ele><time>2026-04-04T10:34:18.001Z</time></trkpt><trkpt lat="44.06897749787167" lon="12.12534342052063"><ele>419.0</ele><time>2026-04-04T10:34:19.001Z</time></trkpt><trkpt lat="44.06895255972027" lon="12.125490393432242"><ele>415.0</ele><time>2026-04-04T10:34:20.001Z</time></trkpt><trkpt lat="44.06895115808086" lon="12.125636915556337"><ele>415.0</ele><time>2026-04-04T10:34:21.001Z</time></trkpt><trkpt lat="44.068964193568895" lon="12.125797612935775"><ele>415.0</ele><time>2026-04-04T10:34:22.001Z</time></trkpt><trkpt lat="44.06898286040249" lon="12.125962021045838"><ele>415.0</ele><time>2026-04-04T10:34:23.001Z</time></trkpt><trkpt lat="44.0689929630987" lon="12.126114682066081"><ele>415.0</ele><time>2026-04-04T10:34:24.001Z</time></trkpt><trkpt lat="44.06898787759916" lon="12.12627274486452"><ele>415.0</ele><time>2026-04-04T10:34:25.001Z</time></trkpt><trkpt lat="44.06898237330865" lon="12.126420456832797"><ele>415.0</ele><time>2026-04-04T10:34:26.001Z</time></trkpt><trkpt lat="44.06896181518856" lon="12.126568654250333"><ele>415.0</ele><time>2026-04-04T10:34:27.001Z</time></trkpt><trkpt lat="44.06893003822664" lon="12.126713242193414"><ele>415.0</ele><time>2026-04-04T10:34:28.001Z</time></trkpt><trkpt lat="44.06889382128265" lon="12.126860873433033"><ele>415.0</ele><time>2026-04-04T10:34:29.001Z</time></trkpt><trkpt lat="44.068844349740814" lon="12.126998288171437"><ele>417.0</ele><time>2026-04-04T10:34:30.001Z</time></trkpt><trkpt lat="44.06878106789359" lon="12.127136105394465"><ele>419.0</ele><time>2026-04-04T10:34:31.002Z</time></trkpt><trkpt lat="44.068701846232436" lon="12.127266685251303"><ele>421.0</ele><time>2026-04-04T10:34:32.002Z</time></trkpt><trkpt lat="44.06862847965469" lon="12.127396560856099"><ele>423.0</ele><time>2026-04-04T10:34:33.002Z</time></trkpt><trkpt lat="44.06855300107399" lon="12.127533581417987"><ele>423.0</ele><time>2026-04-04T10:34:34.002Z</time></trkpt><trkpt lat="44.068472414794684" lon="12.12766272898505"><ele>423.0</ele><time>2026-04-04T10:34:35.002Z</time></trkpt><trkpt lat="44.06838433439838" lon="12.127774320630119"><ele>423.0</ele><time>2026-04-04T10:34:36.002Z</time></trkpt><trkpt lat="44.06828843747523" lon="12.1278700773968"><ele>423.0</ele><time>2026-04-04T10:34:37.002Z</time></trkpt><trkpt lat="44.068187403453535" lon="12.127947854740345"><ele>423.0</ele><time>2026-04-04T10:34:38.002Z</time></trkpt><trkpt lat="44.06810145629156" lon="12.128026139582987"><ele>423.0</ele><time>2026-04-04T10:34:39.002Z</time></trkpt><trkpt lat="44.06804128597436" lon="12.128102567224486"><ele>423.0</ele><time>2026-04-04T10:34:40.002Z</time></trkpt><trkpt lat="44.068002016673006" lon="12.128199486689304"><ele>423.0</ele><time>2026-04-04T10:34:41.002Z</time></trkpt><trkpt lat="44.067993550922324" lon="12.12831269804841"><ele>423.0</ele><time>2026-04-04T10:34:42.002Z</time></trkpt><trkpt lat="44.06802329632043" lon="12.128415860709486"><ele>423.0</ele><time>2026-04-04T10:34:43.002Z</time></trkpt><trkpt lat="44.06806643427409" lon="12.128512838619887"><ele>424.59999999999997</ele><time>2026-04-04T10:34:44.002Z</time></trkpt><trkpt lat="44.06812396727729" lon="12.12860992447617"><ele>426.2</ele><time>2026-04-04T10:34:45.002Z</time></trkpt><trkpt lat="44.068177514644105" lon="12.128723680425297"><ele>427.8</ele><time>2026-04-04T10:34:46.002Z</time></trkpt><trkpt lat="44.06823168056229" lon="12.128835366108495"><ele>429.4</ele><time>2026-04-04T10:34:47.002Z</time></trkpt><trkpt lat="44.06828633672875" lon="12.128955610968783"><ele>431.0</ele><time>2026-04-04T10:34:48.002Z</time></trkpt><trkpt lat="44.06832620159295" lon="12.129082680302332"><ele>433.8</ele><time>2026-04-04T10:34:49.002Z</time></trkpt><trkpt lat="44.06835887477756" lon="12.129216402184078"><ele>436.6</ele><time>2026-04-04T10:34:50.002Z</time></trkpt><trkpt lat="44.06839299521582" lon="12.129344410690448"><ele>439.4</ele><time>2026-04-04T10:34:51.002Z</time></trkpt><trkpt lat="44.06842393361837" lon="12.129482138000359"><ele>442.2</ele><time>2026-04-04T10:34:52.002Z</time></trkpt><trkpt lat="44.06845085822645" lon="12.129621255867352"><ele>445.0</ele><time>2026-04-04T10:34:53.002Z</time></trkpt><trkpt lat="44.0684758845671" lon="12.1297723333595"><ele>443.75</ele><time>2026-04-04T10:34:54.002Z</time></trkpt><trkpt lat="44.06849904781624" lon="12.129928508162777"><ele>442.5</ele><time>2026-04-04T10:34:55.002Z</time></trkpt><trkpt lat="44.06851641812247" lon="12.130086463609844"><ele>441.25</ele><time>2026-04-04T10:34:56.002Z</time></trkpt><trkpt lat="44.06852878970942" lon="12.130245964587811"><ele>440.0</ele><time>2026-04-04T10:34:57.002Z</time></trkpt><trkpt lat="44.06852801827009" lon="12.130403022440417"><ele>440.0</ele><time>2026-04-04T10:34:58.002Z</time></trkpt><trkpt lat="44.06851341014227" lon="12.130556781287225"><ele>440.0</ele><time>2026-04-04T10:34:59Z</time></trkpt><trkpt lat="44.06848527436828" lon="12.130707527471309"><ele>440.0</ele><time>2026-04-04T10:35:00Z</time></trkpt><trkpt lat="44.0684479229353" lon="12.130848198300294"><ele>440.0</ele><time>2026-04-04T10:35:01Z</time></trkpt><trkpt lat="44.06841842988176" lon="12.13099164111284"><ele>440.0</ele><time>2026-04-04T10:35:02Z</time></trkpt><trkpt lat="44.068401268686976" lon="12.131134534268481"><ele>440.0</ele><time>2026-04-04T10:35:03Z</time></trkpt><trkpt lat="44.06839697186081" lon="12.131284643060095"><ele>440.0</ele><time>2026-04-04T10:35:04Z</time></trkpt><trkpt lat="44.068399821401385" lon="12.131440232096862"><ele>440.0</ele><time>2026-04-04T10:35:05Z</time></trkpt><trkpt lat="44.06840278338885" lon="12.131600401792971"><ele>440.0</ele><time>2026-04-04T10:35:06Z</time></trkpt><trkpt lat="44.0684065875919" lon="12.131771304728579"><ele>440.0</ele><time>2026-04-04T10:35:07Z</time></trkpt><trkpt lat="44.068400781023776" lon="12.131945518668456"><ele>440.0</ele><time>2026-04-04T10:35:08Z</time></trkpt><trkpt lat="44.06839038356584" lon="12.132118303892481"><ele>440.0</ele><time>2026-04-04T10:35:09Z</time></trkpt><trkpt lat="44.06838166916724" lon="12.132287609813234"><ele>440.0</ele><time>2026-04-04T10:35:10Z</time></trkpt><trkpt lat="44.06838625178526" lon="12.132446269704074"><ele>440.0</ele><time>2026-04-04T10:35:11Z</time></trkpt><trkpt lat="44.068413421629394" lon="12.132589526775904"><ele>440.0</ele><time>2026-04-04T10:35:12Z</time></trkpt><trkpt lat="44.06844957053566" lon="12.132743081162996"><ele>440.0</ele><time>2026-04-04T10:35:13Z</time></trkpt><trkpt lat="44.06848423178595" lon="12.13290663354032"><ele>440.0</ele><time>2026-04-04T10:35:14Z</time></trkpt><trkpt lat="44.06851642765253" lon="12.133074872974696"><ele>438.5</ele><time>2026-04-04T10:35:15Z</time></trkpt><trkpt lat="44.06854949864389" lon="12.133231882812849"><ele>437.0</ele><time>2026-04-04T10:35:16Z</time></trkpt><trkpt lat="44.068582724009765" lon="12.133390705591463"><ele>435.5</ele><time>2026-04-04T10:35:17Z</time></trkpt><trkpt lat="44.06859970553849" lon="12.13354680971247"><ele>434.0</ele><time>2026-04-04T10:35:18Z</time></trkpt><trkpt lat="44.06858588963661" lon="12.13370223045121"><ele>434.0</ele><time>2026-04-04T10:35:19Z</time></trkpt><trkpt lat="44.0685496598445" lon="12.133855278673146"><ele>434.0</ele><time>2026-04-04T10:35:20Z</time></trkpt><trkpt lat="44.06849764720658" lon="12.133997754692187"><ele>434.0</ele><time>2026-04-04T10:35:21Z</time></trkpt><trkpt lat="44.068448249660705" lon="12.134142769407166"><ele>434.0</ele><time>2026-04-04T10:35:22Z</time></trkpt><trkpt lat="44.06845268485051" lon="12.134307954843637"><ele>433.0</ele><time>2026-04-04T10:35:23Z</time></trkpt><trkpt lat="44.068462598918856" lon="12.134480401285723"><ele>432.0</ele><time>2026-04-04T10:35:24Z</time></trkpt><trkpt lat="44.068467871631114" lon="12.134652338119555"><ele>431.0</ele><time>2026-04-04T10:35:25Z</time></trkpt><trkpt lat="44.06845087635171" lon="12.134836081564144"><ele>430.0</ele><time>2026-04-04T10:35:26Z</time></trkpt><trkpt lat="44.06842937370282" lon="12.135010255244486"><ele>430.0</ele><time>2026-04-04T10:35:27Z</time></trkpt><trkpt lat="44.068395197257196" lon="12.135190777453737"><ele>430.0</ele><time>2026-04-04T10:35:28Z</time></trkpt><trkpt lat="44.06835183908666" lon="12.135369709225452"><ele>430.0</ele><time>2026-04-04T10:35:29Z</time></trkpt><trkpt lat="44.068311553304376" lon="12.13555277080989"><ele>430.0</ele><time>2026-04-04T10:35:30Z</time></trkpt><trkpt lat="44.068286289283904" lon="12.135748811952858"><ele>430.0</ele><time>2026-04-04T10:35:31Z</time></trkpt><trkpt lat="44.06827728248314" lon="12.135947422183452"><ele>430.0</ele><time>2026-04-04T10:35:32Z</time></trkpt><trkpt lat="44.068274755206325" lon="12.136145519471828"><ele>430.0</ele><time>2026-04-04T10:35:33Z</time></trkpt><trkpt lat="44.06827354679594" lon="12.136343700451562"><ele>430.0</ele><time>2026-04-04T10:35:34.001Z</time></trkpt><trkpt lat="44.06826702255618" lon="12.136530434026401"><ele>431.6</ele><time>2026-04-04T10:35:35.001Z</time></trkpt><trkpt lat="44.0682609241061" lon="12.136694867690105"><ele>433.2</ele><time>2026-04-04T10:35:36.001Z</time></trkpt><trkpt lat="44.06825754781838" lon="12.136843206148892"><ele>434.79999999999995</ele><time>2026-04-04T10:35:37.001Z</time></trkpt><trkpt lat="44.0682446422518" lon="12.136961712378564"><ele>436.4</ele><time>2026-04-04T10:35:38.001Z</time></trkpt><trkpt lat="44.06821640325828" lon="12.137053150890749"><ele>438.0</ele><time>2026-04-04T10:35:39.001Z</time></trkpt><trkpt lat="44.06816377360301" lon="12.137119237041068"><ele>438.0</ele><time>2026-04-04T10:35:40.001Z</time></trkpt><trkpt lat="44.06809177665057" lon="12.137156428365351"><ele>437.99999999999994</ele><time>2026-04-04T10:35:41.001Z</time></trkpt><trkpt lat="44.06800823047766" lon="12.137144736208656"><ele>437.99999999999994</ele><time>2026-04-04T10:35:42.001Z</time></trkpt><trkpt lat="44.06792058390455" lon="12.137120735854904"><ele>438.0</ele><time>2026-04-04T10:35:43.001Z</time></trkpt><trkpt lat="44.06782476324465" lon="12.137100956480278"><ele>438.0</ele><time>2026-04-04T10:35:44.001Z</time></trkpt><trkpt lat="44.067712107770575" lon="12.137093277323665"><ele>438.0</ele><time>2026-04-04T10:35:45.001Z</time></trkpt><trkpt lat="44.06759473255017" lon="12.13708836843282"><ele>438.0</ele><time>2026-04-04T10:35:46.001Z</time></trkpt><trkpt lat="44.06747164767201" lon="12.137095730727316"><ele>438.0</ele><time>2026-04-04T10:35:47.001Z</time></trkpt><trkpt lat="44.06734905678201" lon="12.137115664091153"><ele>438.0</ele><time>2026-04-04T10:35:48.001Z</time></trkpt><trkpt lat="44.067228206265" lon="12.137144365143172"><ele>437.75</ele><time>2026-04-04T10:35:49.001Z</time></trkpt><trkpt lat="44.06710605869651" lon="12.137177061158512"><ele>437.5</ele><time>2026-04-04T10:35:50.001Z</time></trkpt><trkpt lat="44.06698418311842" lon="12.137214985030264"><ele>437.25</ele><time>2026-04-04T10:35:51.001Z</time></trkpt><trkpt lat="44.066869269092805" lon="12.137257935675617"><ele>437.0</ele><time>2026-04-04T10:35:52.001Z</time></trkpt><trkpt lat="44.066758305335895" lon="12.137320487944237"><ele>435.75</ele><time>2026-04-04T10:35:53.001Z</time></trkpt><trkpt lat="44.066653357944986" lon="12.137395198430738"><ele>434.5</ele><time>2026-04-04T10:35:54.001Z</time></trkpt><trkpt lat="44.06654516647709" lon="12.13748000685028"><ele>433.25</ele><time>2026-04-04T10:35:55.001Z</time></trkpt><trkpt lat="44.06643968216361" lon="12.137576385942868"><ele>432.0</ele><time>2026-04-04T10:35:56.001Z</time></trkpt><trkpt lat="44.06632848529152" lon="12.13767597475517"><ele>430.75</ele><time>2026-04-04T10:35:57.001Z</time></trkpt><trkpt lat="44.06621506148505" lon="12.137778915913374"><ele>429.5</ele><time>2026-04-04T10:35:58.001Z</time></trkpt><trkpt lat="44.06610068901398" lon="12.137885133252219"><ele>428.25</ele><time>2026-04-04T10:35:59.001Z</time></trkpt><trkpt lat="44.0659943560188" lon="12.13798950357273"><ele>427.0</ele><time>2026-04-04T10:36:00.001Z</time></trkpt><trkpt lat="44.065888576801854" lon="12.13809254079188"><ele>427.0</ele><time>2026-04-04T10:36:01.001Z</time></trkpt><trkpt lat="44.065784067007385" lon="12.138190632567998"><ele>427.0</ele><time>2026-04-04T10:36:02.001Z</time></trkpt><trkpt lat="44.06568301330406" lon="12.138288540832564"><ele>427.0</ele><time>2026-04-04T10:36:03.001Z</time></trkpt><trkpt lat="44.06558845973126" lon="12.138392921922268"><ele>427.0</ele><time>2026-04-04T10:36:04.001Z</time></trkpt><trkpt lat="44.06550441835451" lon="12.138510296763119"><ele>426.0</ele><time>2026-04-04T10:36:05.001Z</time></trkpt><trkpt lat="44.06543787143732" lon="12.138644803692147"><ele>425.0</ele><time>2026-04-04T10:36:06.001Z</time></trkpt><trkpt lat="44.06538436738348" lon="12.138791965855253"><ele>424.0</ele><time>2026-04-04T10:36:07.001Z</time></trkpt><trkpt lat="44.065344248571144" lon="12.13894856002265"><ele>423.0</ele><time>2026-04-04T10:36:08.001Z</time></trkpt><trkpt lat="44.0653062871701" lon="12.1391091691896"><ele>423.0</ele><time>2026-04-04T10:36:09.001Z</time></trkpt><trkpt lat="44.06527047429672" lon="12.139272547824437"><ele>423.0</ele><time>2026-04-04T10:36:10.001Z</time></trkpt><trkpt lat="44.065249819433625" lon="12.139438545073824"><ele>423.0</ele><time>2026-04-04T10:36:11.001Z</time></trkpt><trkpt lat="44.065247266506624" lon="12.139617076340913"><ele>423.0</ele><time>2026-04-04T10:36:12.001Z</time></trkpt><trkpt lat="44.06525318896105" lon="12.139799713811964"><ele>422.5</ele><time>2026-04-04T10:36:13.001Z</time></trkpt><trkpt lat="44.065257823099245" lon="12.139976867873969"><ele>422.0</ele><time>2026-04-04T10:36:14.001Z</time></trkpt><trkpt lat="44.06524102753674" lon="12.140128135070006"><ele>421.5</ele><time>2026-04-04T10:36:15.001Z</time></trkpt><trkpt lat="44.06520553282684" lon="12.140275460794733"><ele>421.0</ele><time>2026-04-04T10:36:16.001Z</time></trkpt><trkpt lat="44.065145335994075" lon="12.140398280345863"><ele>421.0</ele><time>2026-04-04T10:36:17.001Z</time></trkpt><trkpt lat="44.06505895493552" lon="12.140498888513333"><ele>421.0</ele><time>2026-04-04T10:36:18.001Z</time></trkpt><trkpt lat="44.064949979192015" lon="12.140601121340659"><ele>421.0</ele><time>2026-04-04T10:36:19.001Z</time></trkpt><trkpt lat="44.06485547948527" lon="12.140696409193113"><ele>421.0</ele><time>2026-04-04T10:36:20.001Z</time></trkpt><trkpt lat="44.06472922060632" lon="12.140787565544343"><ele>420.75</ele><time>2026-04-04T10:36:21.001Z</time></trkpt><trkpt lat="44.06462326426336" lon="12.140891045503793"><ele>420.5</ele><time>2026-04-04T10:36:22.001Z</time></trkpt><trkpt lat="44.06451399206095" lon="12.140991186505605"><ele>420.25</ele><time>2026-04-04T10:36:23.001Z</time></trkpt><trkpt lat="44.064401499161775" lon="12.141085656469178"><ele>420.0</ele><time>2026-04-04T10:36:24.001Z</time></trkpt><trkpt lat="44.06429784907513" lon="12.141172900718741"><ele>420.0</ele><time>2026-04-04T10:36:25.001Z</time></trkpt><trkpt lat="44.06419842695325" lon="12.1412747449943"><ele>420.0</ele><time>2026-04-04T10:36:26.001Z</time></trkpt><trkpt lat="44.064110768508" lon="12.141363045442727"><ele>420.0</ele><time>2026-04-04T10:36:27.001Z</time></trkpt><trkpt lat="44.06404287361271" lon="12.141447410822986"><ele>420.0</ele><time>2026-04-04T10:36:28.001Z</time></trkpt><trkpt lat="44.06398845443004" lon="12.141534396628552"><ele>420.0</ele><time>2026-04-04T10:36:29.001Z</time></trkpt><trkpt lat="44.06395362660436" lon="12.14163697468835"><ele>420.3333333333333</ele><time>2026-04-04T10:36:30.001Z</time></trkpt><trkpt lat="44.063955595322454" lon="12.141742467849099"><ele>420.66666666666663</ele><time>2026-04-04T10:36:31.001Z</time></trkpt><trkpt lat="44.06397887363147" lon="12.141838717555023"><ele>421.0</ele><time>2026-04-04T10:36:32.001Z</time></trkpt><trkpt lat="44.06401830037637" lon="12.141939262356654"><ele>421.3333333333333</ele><time>2026-04-04T10:36:33.001Z</time></trkpt><trkpt lat="44.06405996693355" lon="12.14205098083217"><ele>421.66666666666663</ele><time>2026-04-04T10:36:34.001Z</time></trkpt><trkpt lat="44.064101173154356" lon="12.142137101747235"><ele>422.0</ele><time>2026-04-04T10:36:35.001Z</time></trkpt><trkpt lat="44.064146563828274" lon="12.142243995852574"><ele>422.0</ele><time>2026-04-04T10:36:36.001Z</time></trkpt><trkpt lat="44.064183465208004" lon="12.142366223722524"><ele>422.0</ele><time>2026-04-04T10:36:37.001Z</time></trkpt><trkpt lat="44.06421306289766" lon="12.14248676460819"><ele>422.0</ele><time>2026-04-04T10:36:38.001Z</time></trkpt><trkpt lat="44.06423207530099" lon="12.142618150912508"><ele>422.0</ele><time>2026-04-04T10:36:39.001Z</time></trkpt><trkpt lat="44.06422920438543" lon="12.14274690450565"><ele>422.0</ele><time>2026-04-04T10:36:40.001Z</time></trkpt><trkpt lat="44.06420209104484" lon="12.142876971131228"><ele>421.0</ele><time>2026-04-04T10:36:41.001Z</time></trkpt><trkpt lat="44.06415226264081" lon="12.14300643248965"><ele>420.0</ele><time>2026-04-04T10:36:42.001Z</time></trkpt><trkpt lat="44.064085145103704" lon="12.143123884355784"><ele>419.0</ele><time>2026-04-04T10:36:43.001Z</time></trkpt><trkpt lat="44.064005625192145" lon="12.143234976692021"><ele>418.0</ele><time>2026-04-04T10:36:44.001Z</time></trkpt><trkpt lat="44.063919773373" lon="12.143336253311963"><ele>417.0</ele><time>2026-04-04T10:36:45.001Z</time></trkpt><trkpt lat="44.0638252799446" lon="12.14342894995279"><ele>412.75</ele><time>2026-04-04T10:36:46.001Z</time></trkpt><trkpt lat="44.06372551990052" lon="12.143516002472323"><ele>408.5</ele><time>2026-04-04T10:36:47.001Z</time></trkpt><trkpt lat="44.06362075084386" lon="12.143598325488478"><ele>404.25</ele><time>2026-04-04T10:36:48.002Z</time></trkpt><trkpt lat="44.063511513356445" lon="12.143683505859505"><ele>400.0</ele><time>2026-04-04T10:36:49.002Z</time></trkpt><trkpt lat="44.06340387479568" lon="12.143775268346278"><ele>400.0</ele><time>2026-04-04T10:36:50.002Z</time></trkpt><trkpt lat="44.06329708532476" lon="12.143860724415259"><ele>400.0</ele><time>2026-04-04T10:36:51.002Z</time></trkpt><trkpt lat="44.06319075766607" lon="12.143948128444213"><ele>400.0</ele><time>2026-04-04T10:36:52.002Z</time></trkpt><trkpt lat="44.063084731260815" lon="12.144028811735087"><ele>400.0</ele><time>2026-04-04T10:36:53.002Z</time></trkpt><trkpt lat="44.062980926187144" lon="12.144105856152542"><ele>398.2</ele><time>2026-04-04T10:36:54.002Z</time></trkpt><trkpt lat="44.06288277128155" lon="12.144171789420822"><ele>396.4</ele><time>2026-04-04T10:36:55.002Z</time></trkpt><trkpt lat="44.06279731743564" lon="12.144251421005967"><ele>394.6</ele><time>2026-04-04T10:36:56.002Z</time></trkpt><trkpt lat="44.062711458096025" lon="12.144360217437406"><ele>392.8</ele><time>2026-04-04T10:36:57.002Z</time></trkpt><trkpt lat="44.06264599519256" lon="12.14448708154637"><ele>391.0</ele><time>2026-04-04T10:36:58.002Z</time></trkpt><trkpt lat="44.06258824745015" lon="12.14462252611219"><ele>391.0</ele><time>2026-04-04T10:36:59.002Z</time></trkpt><trkpt lat="44.062532391209196" lon="12.144760917862037"><ele>391.0</ele><time>2026-04-04T10:37:00.002Z</time></trkpt><trkpt lat="44.06248659938997" lon="12.14489652997548"><ele>391.0</ele><time>2026-04-04T10:37:01.002Z</time></trkpt><trkpt lat="44.062455095497874" lon="12.14502147700047"><ele>391.0</ele><time>2026-04-04T10:37:02.002Z</time></trkpt><trkpt lat="44.06243939101487" lon="12.145158771988715"><ele>391.0</ele><time>2026-04-04T10:37:03.002Z</time></trkpt><trkpt lat="44.062444737347" lon="12.1453044190208"><ele>391.5</ele><time>2026-04-04T10:37:04.002Z</time></trkpt><trkpt lat="44.062461876429" lon="12.1454544457231"><ele>392.0</ele><time>2026-04-04T10:37:05Z</time></trkpt><trkpt lat="44.06248864935021" lon="12.145602733526111"><ele>392.5</ele><time>2026-04-04T10:37:06Z</time></trkpt><trkpt lat="44.06251054446559" lon="12.145753665009686"><ele>393.0</ele><time>2026-04-04T10:37:07Z</time></trkpt><trkpt lat="44.06251829108426" lon="12.145920397139802"><ele>390.25</ele><time>2026-04-04T10:37:08Z</time></trkpt><trkpt lat="44.06250434635818" lon="12.146092647839023"><ele>387.5</ele><time>2026-04-04T10:37:09Z</time></trkpt><trkpt lat="44.062481215777765" lon="12.146264699709612"><ele>384.75</ele><time>2026-04-04T10:37:10Z</time></trkpt><trkpt lat="44.062453436014316" lon="12.14643211742382"><ele>382.0</ele><time>2026-04-04T10:37:11Z</time></trkpt><trkpt lat="44.06242291117778" lon="12.14660013939132"><ele>376.25</ele><time>2026-04-04T10:37:12Z</time></trkpt><trkpt lat="44.06239516339192" lon="12.146767932298145"><ele>370.5</ele><time>2026-04-04T10:37:13Z</time></trkpt><trkpt lat="44.06236880079664" lon="12.14693708438793"><ele>364.75</ele><time>2026-04-04T10:37:14Z</time></trkpt><trkpt lat="44.062340986061756" lon="12.147104931395727"><ele>359.0</ele><time>2026-04-04T10:37:15Z</time></trkpt><trkpt lat="44.06231402658304" lon="12.147269143634691"><ele>360.2</ele><time>2026-04-04T10:37:16Z</time></trkpt><trkpt lat="44.06229068690328" lon="12.147419979406473"><ele>361.4</ele><time>2026-04-04T10:37:17Z</time></trkpt><trkpt lat="44.06226640151958" lon="12.147552268251891"><ele>362.6</ele><time>2026-04-04T10:37:18Z</time></trkpt><trkpt lat="44.062241991307054" lon="12.147672188831521"><ele>363.8</ele><time>2026-04-04T10:37:19Z</time></trkpt><trkpt lat="44.06219965271038" lon="12.147772775978176"><ele>365.0</ele><time>2026-04-04T10:37:20Z</time></trkpt><trkpt lat="44.062140817640426" lon="12.14784782357704"><ele>365.0</ele><time>2026-04-04T10:37:21Z</time></trkpt><trkpt lat="44.06207067161865" lon="12.147907141077699"><ele>365.0</ele><time>2026-04-04T10:37:22Z</time></trkpt><trkpt lat="44.06199298576041" lon="12.147943032159116"><ele>365.0</ele><time>2026-04-04T10:37:23Z</time></trkpt><trkpt lat="44.06191820854758" lon="12.147944838014405"><ele>365.0</ele><time>2026-04-04T10:37:24Z</time></trkpt><trkpt lat="44.06180858719281" lon="12.147864187691745"><ele>365.0</ele><time>2026-04-04T10:37:26Z</time></trkpt><trkpt lat="44.06177528099106" lon="12.147767495975373"><ele>365.0</ele><time>2026-04-04T10:37:27Z</time></trkpt><trkpt lat="44.061759327188994" lon="12.14765675924879"><ele>365.0</ele><time>2026-04-04T10:37:28Z</time></trkpt><trkpt lat="44.061770407048115" lon="12.14754010187257"><ele>365.0</ele><time>2026-04-04T10:37:29Z</time></trkpt><trkpt lat="44.06179371558347" lon="12.14742088458675"><ele>365.0</ele><time>2026-04-04T10:37:30Z</time></trkpt><trkpt lat="44.06183284490705" lon="12.147293418847942"><ele>365.0</ele><time>2026-04-04T10:37:31Z</time></trkpt><trkpt lat="44.06187905634692" lon="12.147161106948198"><ele>365.0</ele><time>2026-04-04T10:37:32Z</time></trkpt><trkpt lat="44.06192027024498" lon="12.147029891541608"><ele>364.0</ele><time>2026-04-04T10:37:33Z</time></trkpt><trkpt lat="44.06197108914492" lon="12.146890341142372"><ele>363.0</ele><time>2026-04-04T10:37:34Z</time></trkpt><trkpt lat="44.06201914522214" lon="12.146762404656528"><ele>362.0</ele><time>2026-04-04T10:37:35Z</time></trkpt><trkpt lat="44.06206070038334" lon="12.146639133120003"><ele>361.0</ele><time>2026-04-04T10:37:36Z</time></trkpt><trkpt lat="44.06209831277444" lon="12.146522345813574"><ele>360.0</ele><time>2026-04-04T10:37:37Z</time></trkpt><trkpt lat="44.06213243939055" lon="12.146415310026198"><ele>360.0</ele><time>2026-04-04T10:37:38Z</time></trkpt><trkpt lat="44.06215789064469" lon="12.146323206159588"><ele>360.0</ele><time>2026-04-04T10:37:39Z</time></trkpt><trkpt lat="44.062157646689435" lon="12.146198468410928"><ele>360.0</ele><time>2026-04-04T10:37:41Z</time></trkpt><trkpt lat="44.06207054856916" lon="12.146130803080577"><ele>360.0</ele><time>2026-04-04T10:37:43Z</time></trkpt><trkpt lat="44.061998084285854" lon="12.14618454690378"><ele>360.0</ele><time>2026-04-04T10:37:45Z</time></trkpt><trkpt lat="44.06194496607746" lon="12.146312133951556"><ele>360.0</ele><time>2026-04-04T10:37:47Z</time></trkpt><trkpt lat="44.06190731310345" lon="12.146484957656746"><ele>359.8</ele><time>2026-04-04T10:37:49.001Z</time></trkpt><trkpt lat="44.06188081301422" lon="12.146591625869208"><ele>359.6</ele><time>2026-04-04T10:37:50.001Z</time></trkpt><trkpt lat="44.06184359184906" lon="12.146699947018279"><ele>359.4</ele><time>2026-04-04T10:37:51.001Z</time></trkpt><trkpt lat="44.0617994271009" lon="12.146805883319784"><ele>359.2</ele><time>2026-04-04T10:37:52.001Z</time></trkpt><trkpt lat="44.061747828451715" lon="12.146916088606686"><ele>359.0</ele><time>2026-04-04T10:37:53.001Z</time></trkpt><trkpt lat="44.06168491661029" lon="12.147026613110494"><ele>359.0</ele><time>2026-04-04T10:37:54.001Z</time></trkpt><trkpt lat="44.06161958517244" lon="12.147134070209257"><ele>359.0</ele><time>2026-04-04T10:37:55.001Z</time></trkpt><trkpt lat="44.06155127137591" lon="12.147250374319205"><ele>359.0</ele><time>2026-04-04T10:37:56.001Z</time></trkpt><trkpt lat="44.06148307365877" lon="12.147368669259736"><ele>359.0</ele><time>2026-04-04T10:37:57.001Z</time></trkpt><trkpt lat="44.06143145673658" lon="12.14749637295517"><ele>359.0</ele><time>2026-04-04T10:37:58.001Z</time></trkpt><trkpt lat="44.061397596946826" lon="12.147635361845294"><ele>355.25</ele><time>2026-04-04T10:37:59.001Z</time></trkpt><trkpt lat="44.061386305155985" lon="12.147785001376521"><ele>351.5</ele><time>2026-04-04T10:38:00.001Z</time></trkpt><trkpt lat="44.0613841445052" lon="12.147941372111147"><ele>347.75</ele><time>2026-04-04T10:38:01.001Z</time></trkpt><trkpt lat="44.06137656459145" lon="12.148109456498927"><ele>344.0</ele><time>2026-04-04T10:38:02.001Z</time></trkpt><trkpt lat="44.06135236447303" lon="12.148284700881952"><ele>344.0</ele><time>2026-04-04T10:38:03.001Z</time></trkpt><trkpt lat="44.061323450979756" lon="12.148452726711772"><ele>344.0</ele><time>2026-04-04T10:38:04.001Z</time></trkpt><trkpt lat="44.06128447855766" lon="12.1486063428789"><ele>344.0</ele><time>2026-04-04T10:38:05.001Z</time></trkpt><trkpt lat="44.06123694459765" lon="12.14875512004384"><ele>344.0</ele><time>2026-04-04T10:38:06.001Z</time></trkpt><trkpt lat="44.06118095389493" lon="12.14888977007586"><ele>344.0</ele><time>2026-04-04T10:38:07.001Z</time></trkpt><trkpt lat="44.061121667837" lon="12.14900416558743"><ele>344.0</ele><time>2026-04-04T10:38:08.001Z</time></trkpt><trkpt lat="44.06107685354603" lon="12.149118471320506"><ele>344.0</ele><time>2026-04-04T10:38:09.001Z</time></trkpt><trkpt lat="44.06105417202783" lon="12.149246209943033"><ele>344.0</ele><time>2026-04-04T10:38:10.001Z</time></trkpt><trkpt lat="44.06104271896242" lon="12.149382482077328"><ele>344.0</ele><time>2026-04-04T10:38:11.001Z</time></trkpt><trkpt lat="44.06103622504764" lon="12.14953513151928"><ele>345.5</ele><time>2026-04-04T10:38:12.001Z</time></trkpt><trkpt lat="44.061027043539006" lon="12.149691938809728"><ele>347.0</ele><time>2026-04-04T10:38:13.001Z</time></trkpt><trkpt lat="44.061013163232644" lon="12.149870921331637"><ele>348.5</ele><time>2026-04-04T10:38:14.001Z</time></trkpt><trkpt lat="44.0609860705383" lon="12.150046881341856"><ele>350.0</ele><time>2026-04-04T10:38:15.001Z</time></trkpt><trkpt lat="44.06095291933944" lon="12.150209395023422"><ele>350.4</ele><time>2026-04-04T10:38:16.001Z</time></trkpt><trkpt lat="44.06092175748101" lon="12.150359748300525"><ele>350.8</ele><time>2026-04-04T10:38:17.001Z</time></trkpt><trkpt lat="44.06088992370999" lon="12.150484297449273"><ele>351.20000000000005</ele><time>2026-04-04T10:38:18.001Z</time></trkpt><trkpt lat="44.06082212882374" lon="12.150608062887562"><ele>351.6</ele><time>2026-04-04T10:38:19.001Z</time></trkpt><trkpt lat="44.060751411403594" lon="12.150713707114473"><ele>352.0</ele><time>2026-04-04T10:38:20.001Z</time></trkpt><trkpt lat="44.06066732351219" lon="12.150821811795112"><ele>348.75</ele><time>2026-04-04T10:38:21.001Z</time></trkpt><trkpt lat="44.060567723950754" lon="12.15092424713359"><ele>345.5</ele><time>2026-04-04T10:38:22.001Z</time></trkpt><trkpt lat="44.06046014836423" lon="12.151030989957583"><ele>342.25</ele><time>2026-04-04T10:38:23.001Z</time></trkpt><trkpt lat="44.060346499767704" lon="12.151137209552791"><ele>339.0</ele><time>2026-04-04T10:38:24.001Z</time></trkpt><trkpt lat="44.06022953673396" lon="12.151248928632139"><ele>339.0</ele><time>2026-04-04T10:38:25.001Z</time></trkpt><trkpt lat="44.060115936728316" lon="12.151369328585112"><ele>339.0</ele><time>2026-04-04T10:38:26.001Z</time></trkpt><trkpt lat="44.060004825344315" lon="12.15149550488939"><ele>339.0</ele><time>2026-04-04T10:38:27.001Z</time></trkpt><trkpt lat="44.059900207422956" lon="12.151630954222139"><ele>339.0</ele><time>2026-04-04T10:38:28.001Z</time></trkpt><trkpt lat="44.059797625868306" lon="12.151758558620658"><ele>335.25</ele><time>2026-04-04T10:38:29.001Z</time></trkpt><trkpt lat="44.05968981111697" lon="12.15188623712513"><ele>331.5</ele><time>2026-04-04T10:38:30.001Z</time></trkpt><trkpt lat="44.05957676471469" lon="12.15200625298736"><ele>327.75</ele><time>2026-04-04T10:38:31.001Z</time></trkpt><trkpt lat="44.05946073359772" lon="12.152123694625475"><ele>324.0</ele><time>2026-04-04T10:38:32.001Z</time></trkpt><trkpt lat="44.05934587512191" lon="12.152228185062611"><ele>324.0</ele><time>2026-04-04T10:38:33.001Z</time></trkpt><trkpt lat="44.05923465704817" lon="12.152331081143263"><ele>324.0</ele><time>2026-04-04T10:38:34.001Z</time></trkpt><trkpt lat="44.05913394912241" lon="12.15244183726169"><ele>324.0</ele><time>2026-04-04T10:38:35.001Z</time></trkpt><trkpt lat="44.05904080561974" lon="12.152550285657174"><ele>324.0</ele><time>2026-04-04T10:38:36.001Z</time></trkpt><trkpt lat="44.058953866316145" lon="12.152652290394498"><ele>323.2</ele><time>2026-04-04T10:38:37.001Z</time></trkpt><trkpt lat="44.058881288721054" lon="12.15276550674756"><ele>322.4</ele><time>2026-04-04T10:38:38.001Z</time></trkpt><trkpt lat="44.05882470641496" lon="12.152881181555458"><ele>321.6</ele><time>2026-04-04T10:38:39.001Z</time></trkpt><trkpt lat="44.05878476191821" lon="12.153024139209473"><ele>320.8</ele><time>2026-04-04T10:38:40.001Z</time></trkpt><trkpt lat="44.05876577960004" lon="12.153193285820134"><ele>320.0</ele><time>2026-04-04T10:38:41.001Z</time></trkpt><trkpt lat="44.0587541483275" lon="12.153371277871654"><ele>320.0</ele><time>2026-04-04T10:38:42.001Z</time></trkpt><trkpt lat="44.05874036101415" lon="12.153547348075877"><ele>320.0</ele><time>2026-04-04T10:38:43.001Z</time></trkpt><trkpt lat="44.05873106170168" lon="12.153721391423373"><ele>320.0</ele><time>2026-04-04T10:38:44.001Z</time></trkpt><trkpt lat="44.05871738179002" lon="12.153903457048443"><ele>320.0</ele><time>2026-04-04T10:38:45.001Z</time></trkpt><trkpt lat="44.0587004905408" lon="12.154075603115368"><ele>319.0</ele><time>2026-04-04T10:38:46.001Z</time></trkpt><trkpt lat="44.0586854037521" lon="12.15424656296176"><ele>318.0</ele><time>2026-04-04T10:38:47.001Z</time></trkpt><trkpt lat="44.05866669047646" lon="12.154414726924196"><ele>317.0</ele><time>2026-04-04T10:38:48.001Z</time></trkpt><trkpt lat="44.058638390886344" lon="12.154579905595732"><ele>316.0</ele><time>2026-04-04T10:38:49.001Z</time></trkpt><trkpt lat="44.05860352643992" lon="12.15473497461152"><ele>316.8</ele><time>2026-04-04T10:38:50.001Z</time></trkpt><trkpt lat="44.05857607568421" lon="12.154886984249648"><ele>317.6</ele><time>2026-04-04T10:38:51.001Z</time></trkpt><trkpt lat="44.05851823412364" lon="12.1550222806873"><ele>318.4</ele><time>2026-04-04T10:38:52.001Z</time></trkpt><trkpt lat="44.05845502965598" lon="12.155144669820249"><ele>319.2</ele><time>2026-04-04T10:38:53.001Z</time></trkpt><trkpt lat="44.05837892149218" lon="12.155257853455664"><ele>320.0</ele><time>2026-04-04T10:38:54.001Z</time></trkpt><trkpt lat="44.058300747060656" lon="12.15537573122506"><ele>315.5</ele><time>2026-04-04T10:38:55.001Z</time></trkpt><trkpt lat="44.05821681579401" lon="12.155494195333254"><ele>311.0</ele><time>2026-04-04T10:38:56.001Z</time></trkpt><trkpt lat="44.05813236591352" lon="12.155611749477039"><ele>306.5</ele><time>2026-04-04T10:38:57.001Z</time></trkpt><trkpt lat="44.058036736065404" lon="12.155720615204439"><ele>302.0</ele><time>2026-04-04T10:38:58.001Z</time></trkpt><trkpt lat="44.05793562170136" lon="12.155823299390669"><ele>302.0</ele><time>2026-04-04T10:38:59.001Z</time></trkpt><trkpt lat="44.0578275802867" lon="12.155921765360008"><ele>302.0</ele><time>2026-04-04T10:39:00.001Z</time></trkpt><trkpt lat="44.05771697211122" lon="12.156020506353668"><ele>302.0</ele><time>2026-04-04T10:39:01.001Z</time></trkpt><trkpt lat="44.05760598613397" lon="12.156125870438478"><ele>302.0</ele><time>2026-04-04T10:39:02.001Z</time></trkpt><trkpt lat="44.05749702086525" lon="12.156241127468867"><ele>300.75</ele><time>2026-04-04T10:39:03.001Z</time></trkpt><trkpt lat="44.0573951615686" lon="12.156378654313452"><ele>299.5</ele><time>2026-04-04T10:39:04.001Z</time></trkpt><trkpt lat="44.05729572443416" lon="12.156524179662615"><ele>298.25</ele><time>2026-04-04T10:39:05.002Z</time></trkpt><trkpt lat="44.057199890265466" lon="12.156686092103188"><ele>297.0</ele><time>2026-04-04T10:39:06.002Z</time></trkpt><trkpt lat="44.05710366643721" lon="12.156855236922757"><ele>297.0</ele><time>2026-04-04T10:39:07.002Z</time></trkpt><trkpt lat="44.05700771182616" lon="12.15702642374351"><ele>297.0</ele><time>2026-04-04T10:39:08.002Z</time></trkpt><trkpt lat="44.056914651246856" lon="12.157199839792732"><ele>297.0</ele><time>2026-04-04T10:39:09.002Z</time></trkpt><trkpt lat="44.05682539985669" lon="12.157369112117427"><ele>296.5</ele><time>2026-04-04T10:39:10.002Z</time></trkpt><trkpt lat="44.05674932240286" lon="12.157528299077299"><ele>296.0</ele><time>2026-04-04T10:39:11Z</time></trkpt><trkpt lat="44.05667232875317" lon="12.157687820836674"><ele>295.5</ele><time>2026-04-04T10:39:12Z</time></trkpt><trkpt lat="44.05659206670942" lon="12.157835859567138"><ele>295.0</ele><time>2026-04-04T10:39:13Z</time></trkpt><trkpt lat="44.05652056338129" lon="12.157980069667836"><ele>295.0</ele><time>2026-04-04T10:39:14Z</time></trkpt><trkpt lat="44.05644119941643" lon="12.158128769254628"><ele>295.0</ele><time>2026-04-04T10:39:15Z</time></trkpt><trkpt lat="44.05636063223295" lon="12.158256717383956"><ele>295.0</ele><time>2026-04-04T10:39:16Z</time></trkpt><trkpt lat="44.05627653111438" lon="12.158363559234694"><ele>295.0</ele><time>2026-04-04T10:39:17Z</time></trkpt><trkpt lat="44.05617777278686" lon="12.158464413712982"><ele>294.5</ele><time>2026-04-04T10:39:18Z</time></trkpt><trkpt lat="44.05609284022132" lon="12.15856829047371"><ele>294.0</ele><time>2026-04-04T10:39:19Z</time></trkpt><trkpt lat="44.05602970400581" lon="12.158702071482363"><ele>293.5</ele><time>2026-04-04T10:39:20Z</time></trkpt><trkpt lat="44.05598918855238" lon="12.158857659249401"><ele>293.0</ele><time>2026-04-04T10:39:21Z</time></trkpt><trkpt lat="44.05597357727573" lon="12.159026842094562"><ele>292.75</ele><time>2026-04-04T10:39:22Z</time></trkpt><trkpt lat="44.05596985576115" lon="12.159203449464217"><ele>292.5</ele><time>2026-04-04T10:39:23Z</time></trkpt><trkpt lat="44.05597549869992" lon="12.15937812928005"><ele>292.25</ele><time>2026-04-04T10:39:24Z</time></trkpt><trkpt lat="44.05596551528254" lon="12.159546502970269"><ele>292.0</ele><time>2026-04-04T10:39:25Z</time></trkpt><trkpt lat="44.05593351058863" lon="12.159710518147783"><ele>292.0</ele><time>2026-04-04T10:39:26Z</time></trkpt><trkpt lat="44.05588124651449" lon="12.159870044622622"><ele>292.0</ele><time>2026-04-04T10:39:27Z</time></trkpt><trkpt lat="44.055804588836175" lon="12.160001744090536"><ele>292.0</ele><time>2026-04-04T10:39:28Z</time></trkpt><trkpt lat="44.05571969659488" lon="12.160140413639958"><ele>292.0</ele><time>2026-04-04T10:39:29Z</time></trkpt><trkpt lat="44.05565234232146" lon="12.16028996892613"><ele>293.5</ele><time>2026-04-04T10:39:30Z</time></trkpt><trkpt lat="44.0555989251376" lon="12.160456565303539"><ele>295.0</ele><time>2026-04-04T10:39:31Z</time></trkpt><trkpt lat="44.055566582356796" lon="12.16063074113009"><ele>296.5</ele><time>2026-04-04T10:39:32Z</time></trkpt><trkpt lat="44.05556047604894" lon="12.160812238656618"><ele>298.0</ele><time>2026-04-04T10:39:33Z</time></trkpt><trkpt lat="44.05556858764112" lon="12.160991576751963"><ele>298.0</ele><time>2026-04-04T10:39:34Z</time></trkpt><trkpt lat="44.05557115528872" lon="12.161154758880384"><ele>298.0</ele><time>2026-04-04T10:39:35Z</time></trkpt><trkpt lat="44.05554588604284" lon="12.161300475247451"><ele>298.0</ele><time>2026-04-04T10:39:36Z</time></trkpt><trkpt lat="44.05549347781154" lon="12.161398016955209"><ele>298.0</ele><time>2026-04-04T10:39:37Z</time></trkpt><trkpt lat="44.05541265074425" lon="12.16146621259263"><ele>298.0</ele><time>2026-04-04T10:39:38Z</time></trkpt><trkpt lat="44.0553217291647" lon="12.161481810612337"><ele>298.0</ele><time>2026-04-04T10:39:39Z</time></trkpt><trkpt lat="44.05523308317815" lon="12.16147763262332"><ele>298.0</ele><time>2026-04-04T10:39:40Z</time></trkpt><trkpt lat="44.055170986999705" lon="12.16149224295879"><ele>298.0</ele><time>2026-04-04T10:39:41Z</time></trkpt><trkpt lat="44.055114810950116" lon="12.161623342062489"><ele>298.0</ele><time>2026-04-04T10:39:43Z</time></trkpt><trkpt lat="44.055122506639336" lon="12.161730147756769"><ele>298.0</ele><time>2026-04-04T10:39:44Z</time></trkpt><trkpt lat="44.05516402877276" lon="12.161840913922992"><ele>298.0</ele><time>2026-04-04T10:39:45Z</time></trkpt><trkpt lat="44.05522732077296" lon="12.161943273353076"><ele>296.66666666666663</ele><time>2026-04-04T10:39:46Z</time></trkpt><trkpt lat="44.05528773490388" lon="12.162048092981243"><ele>295.3333333333333</ele><time>2026-04-04T10:39:47Z</time></trkpt><trkpt lat="44.05535092771596" lon="12.162150637690143"><ele>294.0</ele><time>2026-04-04T10:39:48Z</time></trkpt><trkpt lat="44.055416658790485" lon="12.162229255912738"><ele>292.6666666666667</ele><time>2026-04-04T10:39:49Z</time></trkpt><trkpt lat="44.05548438277709" lon="12.162281185650592"><ele>291.33333333333337</ele><time>2026-04-04T10:39:50Z</time></trkpt><trkpt lat="44.05556226259914" lon="12.162302311283641"><ele>290.0</ele><time>2026-04-04T10:39:51Z</time></trkpt><trkpt lat="44.055640676708855" lon="12.162281764663163"><ele>290.0</ele><time>2026-04-04T10:39:52Z</time></trkpt><trkpt lat="44.0557162539493" lon="12.16222365099474"><ele>290.0</ele><time>2026-04-04T10:39:53Z</time></trkpt><trkpt lat="44.055772849670376" lon="12.16212977451789"><ele>290.0</ele><time>2026-04-04T10:39:54Z</time></trkpt><trkpt lat="44.05582822753914" lon="12.162020784029439"><ele>290.0</ele><time>2026-04-04T10:39:55Z</time></trkpt><trkpt lat="44.05588062785407" lon="12.161907219394525"><ele>290.0</ele><time>2026-04-04T10:39:56Z</time></trkpt><trkpt lat="44.055944369018704" lon="12.161795022709098"><ele>289.4</ele><time>2026-04-04T10:39:57Z</time></trkpt><trkpt lat="44.05601082985851" lon="12.161672037832595"><ele>288.8</ele><time>2026-04-04T10:39:58Z</time></trkpt><trkpt lat="44.05607543593002" lon="12.161551392823279"><ele>288.2</ele><time>2026-04-04T10:39:59.001Z</time></trkpt><trkpt lat="44.05613796678674" lon="12.16143762384034"><ele>287.6</ele><time>2026-04-04T10:40:00.001Z</time></trkpt><trkpt lat="44.056196965023105" lon="12.161317808496266"><ele>287.0</ele><time>2026-04-04T10:40:01.001Z</time></trkpt><trkpt lat="44.056247150326676" lon="12.161201300537575"><ele>287.0</ele><time>2026-04-04T10:40:02.001Z</time></trkpt><trkpt lat="44.05629669408796" lon="12.161102411316927"><ele>287.0</ele><time>2026-04-04T10:40:03.001Z</time></trkpt><trkpt lat="44.05634816353107" lon="12.161017801799801"><ele>287.0</ele><time>2026-04-04T10:40:04.001Z</time></trkpt><trkpt lat="44.056394584563044" lon="12.160951721905858"><ele>287.0</ele><time>2026-04-04T10:40:05.001Z</time></trkpt><trkpt lat="44.05649288266739" lon="12.1609182390995"><ele>287.0</ele><time>2026-04-04T10:40:07.001Z</time></trkpt><trkpt lat="44.05655994417352" lon="12.161034279709291"><ele>287.0</ele><time>2026-04-04T10:40:09.001Z</time></trkpt><trkpt lat="44.0565610746214" lon="12.161138413312187"><ele>287.0</ele><time>2026-04-04T10:40:10.001Z</time></trkpt><trkpt lat="44.05654610912781" lon="12.161252768828346"><ele>287.0</ele><time>2026-04-04T10:40:11.001Z</time></trkpt><trkpt lat="44.0565270403844" lon="12.161383822938372"><ele>287.0</ele><time>2026-04-04T10:40:12.001Z</time></trkpt><trkpt lat="44.056523716546955" lon="12.161527327166622"><ele>287.0</ele><time>2026-04-04T10:40:13.001Z</time></trkpt><trkpt lat="44.05653627213095" lon="12.161684977496268"><ele>287.0</ele><time>2026-04-04T10:40:14.001Z</time></trkpt><trkpt lat="44.05656067488989" lon="12.161868305513792"><ele>285.5</ele><time>2026-04-04T10:40:15.001Z</time></trkpt><trkpt lat="44.05659049768048" lon="12.162049494840685"><ele>284.0</ele><time>2026-04-04T10:40:16.001Z</time></trkpt><trkpt lat="44.0566245092264" lon="12.162240900540908"><ele>282.5</ele><time>2026-04-04T10:40:17.001Z</time></trkpt><trkpt lat="44.05665258633112" lon="12.162436570762528"><ele>281.0</ele><time>2026-04-04T10:40:18.001Z</time></trkpt><trkpt lat="44.05667325789874" lon="12.162635348859066"><ele>273.25</ele><time>2026-04-04T10:40:19.001Z</time></trkpt><trkpt lat="44.05668075322869" lon="12.162838155810523"><ele>265.5</ele><time>2026-04-04T10:40:20.001Z</time></trkpt><trkpt lat="44.0566810132835" lon="12.163040847985165"><ele>257.75</ele><time>2026-04-04T10:40:21.001Z</time></trkpt><trkpt lat="44.05668391682595" lon="12.163247970611625"><ele>250.0</ele><time>2026-04-04T10:40:22.001Z</time></trkpt><trkpt lat="44.056682676032665" lon="12.163459632309758"><ele>248.25</ele><time>2026-04-04T10:40:23.001Z</time></trkpt><trkpt lat="44.05668561317164" lon="12.163661896136892"><ele>246.5</ele><time>2026-04-04T10:40:24.001Z</time></trkpt><trkpt lat="44.056697612604076" lon="12.163848304179549"><ele>244.75</ele><time>2026-04-04T10:40:25.001Z</time></trkpt><trkpt lat="44.05672938325615" lon="12.164016897548017"><ele>243.0</ele><time>2026-04-04T10:40:26.001Z</time></trkpt><trkpt lat="44.056782655975915" lon="12.164171056952155"><ele>240.0</ele><time>2026-04-04T10:40:27.001Z</time></trkpt><trkpt lat="44.056866650499245" lon="12.164289234671369"><ele>237.0</ele><time>2026-04-04T10:40:28.001Z</time></trkpt><trkpt lat="44.0569697137954" lon="12.164403125199026"><ele>234.0</ele><time>2026-04-04T10:40:29.001Z</time></trkpt><trkpt lat="44.057071336211486" lon="12.164533393091556"><ele>231.0</ele><time>2026-04-04T10:40:30.001Z</time></trkpt><trkpt lat="44.057149702489205" lon="12.164671283279652"><ele>229.0</ele><time>2026-04-04T10:40:31.001Z</time></trkpt><trkpt lat="44.057183123005906" lon="12.164865073691647"><ele>227.0</ele><time>2026-04-04T10:40:32.001Z</time></trkpt><trkpt lat="44.05720894594868" lon="12.165048792890845"><ele>225.0</ele><time>2026-04-04T10:40:33.001Z</time></trkpt><trkpt lat="44.05721149295265" lon="12.165242590382734"><ele>223.0</ele><time>2026-04-04T10:40:34.001Z</time></trkpt><trkpt lat="44.05720202297724" lon="12.165427225878098"><ele>223.0</ele><time>2026-04-04T10:40:35.001Z</time></trkpt><trkpt lat="44.05719691727955" lon="12.165599321454172"><ele>223.0</ele><time>2026-04-04T10:40:36.001Z</time></trkpt><trkpt lat="44.057200241786894" lon="12.165762758607388"><ele>223.0</ele><time>2026-04-04T10:40:37.001Z</time></trkpt><trkpt lat="44.05720838108202" lon="12.165906960436983"><ele>223.0</ele><time>2026-04-04T10:40:38.001Z</time></trkpt><trkpt lat="44.0572164907817" lon="12.166015055829368"><ele>223.0</ele><time>2026-04-04T10:40:39.001Z</time></trkpt><trkpt lat="44.057280041205445" lon="12.166135796775697"><ele>221.66666666666666</ele><time>2026-04-04T10:40:41.001Z</time></trkpt><trkpt lat="44.057347824718605" lon="12.166137618005195"><ele>220.33333333333331</ele><time>2026-04-04T10:40:42.001Z</time></trkpt><trkpt lat="44.05741370139737" lon="12.166082491328698"><ele>219.0</ele><time>2026-04-04T10:40:43.001Z</time></trkpt><trkpt lat="44.057462620228804" lon="12.165985526712165"><ele>217.66666666666669</ele><time>2026-04-04T10:40:44.001Z</time></trkpt><trkpt lat="44.05749225161778" lon="12.165892788043553"><ele>216.33333333333334</ele><time>2026-04-04T10:40:45.001Z</time></trkpt><trkpt lat="44.057589212344595" lon="12.165821150839397"><ele>215.0</ele><time>2026-04-04T10:40:47.001Z</time></trkpt><trkpt lat="44.05765964773654" lon="12.165967552453244"><ele>215.0</ele><time>2026-04-04T10:40:49.001Z</time></trkpt><trkpt lat="44.05763228940629" lon="12.166080244911528"><ele>215.0</ele><time>2026-04-04T10:40:50.001Z</time></trkpt><trkpt lat="44.0575933022262" lon="12.166189920712545"><ele>215.0</ele><time>2026-04-04T10:40:51.001Z</time></trkpt><trkpt lat="44.05753173859574" lon="12.166307692453536"><ele>215.0</ele><time>2026-04-04T10:40:52.001Z</time></trkpt><trkpt lat="44.05746142333737" lon="12.166426360061168"><ele>215.0</ele><time>2026-04-04T10:40:53.001Z</time></trkpt><trkpt lat="44.05739126977096" lon="12.166579494828373"><ele>210.5</ele><time>2026-04-04T10:40:54.001Z</time></trkpt><trkpt lat="44.0573292305136" lon="12.166749048028295"><ele>206.0</ele><time>2026-04-04T10:40:55.001Z</time></trkpt><trkpt lat="44.05728035585867" lon="12.166930634853237"><ele>201.5</ele><time>2026-04-04T10:40:56.001Z</time></trkpt><trkpt lat="44.05724127327417" lon="12.167124060887504"><ele>197.0</ele><time>2026-04-04T10:40:57.001Z</time></trkpt><trkpt lat="44.05720649637437" lon="12.16731239303026"><ele>196.33333333333334</ele><time>2026-04-04T10:40:58.001Z</time></trkpt><trkpt lat="44.057134940698525" lon="12.167522528828691"><ele>195.66666666666669</ele><time>2026-04-04T10:40:59.001Z</time></trkpt><trkpt lat="44.05707021768397" lon="12.167724445986366"><ele>195.0</ele><time>2026-04-04T10:41:00.001Z</time></trkpt><trkpt lat="44.05699866073824" lon="12.16792997225211"><ele>195.0</ele><time>2026-04-04T10:41:01.001Z</time></trkpt><trkpt lat="44.05692430996912" lon="12.168130747139047"><ele>195.0</ele><time>2026-04-04T10:41:02.001Z</time></trkpt><trkpt lat="44.056848497055135" lon="12.168331986449557"><ele>195.0</ele><time>2026-04-04T10:41:03.001Z</time></trkpt><trkpt lat="44.05677547424042" lon="12.168551643723161"><ele>194.66666666666669</ele><time>2026-04-04T10:41:04.001Z</time></trkpt><trkpt lat="44.05670557460172" lon="12.168768134167259"><ele>194.33333333333334</ele><time>2026-04-04T10:41:05.001Z</time></trkpt><trkpt lat="44.05664910650429" lon="12.168976867478607"><ele>194.0</ele><time>2026-04-04T10:41:06.001Z</time></trkpt><trkpt lat="44.056570716496395" lon="12.169226959682018"><ele>187.33333333333334</ele><time>2026-04-04T10:41:07.001Z</time></trkpt><trkpt lat="44.056529228237686" lon="12.169443838621321"><ele>180.66666666666669</ele><time>2026-04-04T10:41:08.001Z</time></trkpt><trkpt lat="44.0564889673503" lon="12.169650785040979"><ele>174.0</ele><time>2026-04-04T10:41:09.001Z</time></trkpt><trkpt lat="44.056448461898654" lon="12.169859637704727"><ele>174.0</ele><time>2026-04-04T10:41:10.001Z</time></trkpt><trkpt lat="44.056401737886446" lon="12.170061683438814"><ele>174.0</ele><time>2026-04-04T10:41:11.001Z</time></trkpt><trkpt lat="44.05634895460997" lon="12.170270927288152"><ele>174.0</ele><time>2026-04-04T10:41:12.001Z</time></trkpt><trkpt lat="44.0563041337567" lon="12.170481781501865"><ele>174.66666666666666</ele><time>2026-04-04T10:41:13.001Z</time></trkpt><trkpt lat="44.05627200599765" lon="12.170700090421342"><ele>175.33333333333331</ele><time>2026-04-04T10:41:14.001Z</time></trkpt><trkpt lat="44.056249089408425" lon="12.17091396689517"><ele>176.0</ele><time>2026-04-04T10:41:15.001Z</time></trkpt><trkpt lat="44.056222265602614" lon="12.171104863066535"><ele>176.0</ele><time>2026-04-04T10:41:16.002Z</time></trkpt><trkpt lat="44.05619755954444" lon="12.171268865438593"><ele>176.0</ele><time>2026-04-04T10:41:17Z</time></trkpt><trkpt lat="44.05616225305956" lon="12.171393185121088"><ele>176.0</ele><time>2026-04-04T10:41:18Z</time></trkpt><trkpt lat="44.05610423800312" lon="12.171523044098224"><ele>176.0</ele><time>2026-04-04T10:41:19Z</time></trkpt><trkpt lat="44.056026358594224" lon="12.171646151819433"><ele>176.0</ele><time>2026-04-04T10:41:20Z</time></trkpt><trkpt lat="44.055954790029304" lon="12.17174163757235"><ele>174.8</ele><time>2026-04-04T10:41:21Z</time></trkpt><trkpt lat="44.05586354194959" lon="12.171823501272154"><ele>173.60000000000002</ele><time>2026-04-04T10:41:22Z</time></trkpt><trkpt lat="44.05576741648231" lon="12.171865690336137"><ele>172.4</ele><time>2026-04-04T10:41:23Z</time></trkpt><trkpt lat="44.055679189198266" lon="12.171848453781758"><ele>171.2</ele><time>2026-04-04T10:41:24Z</time></trkpt><trkpt lat="44.055606553914195" lon="12.171810481926837"><ele>170.0</ele><time>2026-04-04T10:41:25Z</time></trkpt><trkpt lat="44.055504395346645" lon="12.171871281108372"><ele>166.4</ele><time>2026-04-04T10:41:27Z</time></trkpt><trkpt lat="44.05548805128479" lon="12.171992366224599"><ele>162.8</ele><time>2026-04-04T10:41:28Z</time></trkpt><trkpt lat="44.0555109252538" lon="12.17210399939806"><ele>159.2</ele><time>2026-04-04T10:41:29Z</time></trkpt><trkpt lat="44.05556101751976" lon="12.17222337547086"><ele>155.6</ele><time>2026-04-04T10:41:30Z</time></trkpt><trkpt lat="44.05564103887709" lon="12.17232864187155"><ele>152.0</ele><time>2026-04-04T10:41:31Z</time></trkpt><trkpt lat="44.055737185049104" lon="12.172414595398731"><ele>152.79999999999998</ele><time>2026-04-04T10:41:32Z</time></trkpt><trkpt lat="44.0558240929988" lon="12.172506201029183"><ele>153.6</ele><time>2026-04-04T10:41:33Z</time></trkpt><trkpt lat="44.055918023638355" lon="12.172605662525227"><ele>154.39999999999998</ele><time>2026-04-04T10:41:34Z</time></trkpt><trkpt lat="44.056008627555016" lon="12.17267579476263"><ele>155.2</ele><time>2026-04-04T10:41:35Z</time></trkpt><trkpt lat="44.05609659863092" lon="12.17274978269754"><ele>156.0</ele><time>2026-04-04T10:41:36Z</time></trkpt><trkpt lat="44.056173371801144" lon="12.172840174914572"><ele>156.0</ele><time>2026-04-04T10:41:37Z</time></trkpt><trkpt lat="44.05623369035888" lon="12.172938246362587"><ele>156.0</ele><time>2026-04-04T10:41:38Z</time></trkpt><trkpt lat="44.05627244160246" lon="12.173051523913596"><ele>156.0</ele><time>2026-04-04T10:41:39Z</time></trkpt><trkpt lat="44.05627337985255" lon="12.17316680744108"><ele>156.0</ele><time>2026-04-04T10:41:40Z</time></trkpt><trkpt lat="44.056244300485005" lon="12.173260360763402"><ele>156.0</ele><time>2026-04-04T10:41:41Z</time></trkpt><trkpt lat="44.05618477933258" lon="12.173322184749518"><ele>156.0</ele><time>2026-04-04T10:41:42Z</time></trkpt><trkpt lat="44.05610800552467" lon="12.173361584164452"><ele>153.6</ele><time>2026-04-04T10:41:43Z</time></trkpt><trkpt lat="44.05601392015513" lon="12.173379454785309"><ele>151.2</ele><time>2026-04-04T10:41:44Z</time></trkpt><trkpt lat="44.05591786718211" lon="12.173386681375844"><ele>148.8</ele><time>2026-04-04T10:41:45Z</time></trkpt><trkpt lat="44.055811623504155" lon="12.173401858568528"><ele>146.4</ele><time>2026-04-04T10:41:46Z</time></trkpt><trkpt lat="44.05570312906657" lon="12.173432491111706"><ele>144.0</ele><time>2026-04-04T10:41:47Z</time></trkpt><trkpt lat="44.05560318313046" lon="12.173467797980917"><ele>143.2</ele><time>2026-04-04T10:41:48Z</time></trkpt><trkpt lat="44.05551219884518" lon="12.173513230486419"><ele>142.4</ele><time>2026-04-04T10:41:49Z</time></trkpt><trkpt lat="44.05543473285023" lon="12.173589530368957"><ele>141.6</ele><time>2026-04-04T10:41:50Z</time></trkpt><trkpt lat="44.05536692904538" lon="12.173697997876507"><ele>140.8</ele><time>2026-04-04T10:41:51Z</time></trkpt><trkpt lat="44.05531371438596" lon="12.17383752596547"><ele>140.0</ele><time>2026-04-04T10:41:52Z</time></trkpt><trkpt lat="44.05526877081754" lon="12.173969002824608"><ele>138.5</ele><time>2026-04-04T10:41:53Z</time></trkpt><trkpt lat="44.0552243148342" lon="12.174081792998786"><ele>137.0</ele><time>2026-04-04T10:41:54Z</time></trkpt><trkpt lat="44.055184135675454" lon="12.174189660701904"><ele>135.5</ele><time>2026-04-04T10:41:55Z</time></trkpt><trkpt lat="44.05516283665463" lon="12.174303035871421"><ele>134.0</ele><time>2026-04-04T10:41:56Z</time></trkpt><trkpt lat="44.05517157577899" lon="12.174414140824728"><ele>132.5</ele><time>2026-04-04T10:41:57Z</time></trkpt><trkpt lat="44.055211316837585" lon="12.174513012345027"><ele>131.0</ele><time>2026-04-04T10:41:58Z</time></trkpt><trkpt lat="44.055276416143776" lon="12.174596946020577"><ele>131.0</ele><time>2026-04-04T10:41:59Z</time></trkpt><trkpt lat="44.0553513637993" lon="12.174679188160408"><ele>131.0</ele><time>2026-04-04T10:42:00Z</time></trkpt><trkpt lat="44.05542841378781" lon="12.174770188383654"><ele>131.0</ele><time>2026-04-04T10:42:01Z</time></trkpt><trkpt lat="44.055502173636874" lon="12.174877506648862"><ele>131.0</ele><time>2026-04-04T10:42:02Z</time></trkpt><trkpt lat="44.055579585754586" lon="12.174983410229668"><ele>131.0</ele><time>2026-04-04T10:42:03Z</time></trkpt><trkpt lat="44.05564677429995" lon="12.175091784736187"><ele>129.2</ele><time>2026-04-04T10:42:04Z</time></trkpt><trkpt lat="44.05569904297119" lon="12.175216454675878"><ele>127.39999999999999</ele><time>2026-04-04T10:42:05Z</time></trkpt><trkpt lat="44.05572113050435" lon="12.175364315986624"><ele>125.6</ele><time>2026-04-04T10:42:06Z</time></trkpt><trkpt lat="44.055726090504464" lon="12.175520759837068"><ele>123.8</ele><time>2026-04-04T10:42:07Z</time></trkpt><trkpt lat="44.055721479869476" lon="12.175683633920123"><ele>122.0</ele><time>2026-04-04T10:42:08Z</time></trkpt><trkpt lat="44.05572237986653" lon="12.175850080341132"><ele>120.0</ele><time>2026-04-04T10:42:09Z</time></trkpt><trkpt lat="44.05572824272242" lon="12.176007987798348"><ele>117.99999999999999</ele><time>2026-04-04T10:42:10.001Z</time></trkpt><trkpt lat="44.05573091588253" lon="12.176159215049044"><ele>115.99999999999999</ele><time>2026-04-04T10:42:11.001Z</time></trkpt><trkpt lat="44.05573202096953" lon="12.176303850834959"><ele>114.0</ele><time>2026-04-04T10:42:12.001Z</time></trkpt><trkpt lat="44.05573409347875" lon="12.176438890397193"><ele>112.0</ele><time>2026-04-04T10:42:13.001Z</time></trkpt><trkpt lat="44.0557464931452" lon="12.176547905116152"><ele>112.00000000000001</ele><time>2026-04-04T10:42:14.001Z</time></trkpt><trkpt lat="44.05573464146137" lon="12.176637378193195"><ele>112.0</ele><time>2026-04-04T10:42:15.001Z</time></trkpt><trkpt lat="44.05563665638976" lon="12.176726958604776"><ele>112.0</ele><time>2026-04-04T10:42:17.001Z</time></trkpt><trkpt lat="44.05556092857543" lon="12.176693407417472"><ele>112.0</ele><time>2026-04-04T10:42:18.001Z</time></trkpt><trkpt lat="44.0554953813002" lon="12.17662627864892"><ele>112.00000000000001</ele><time>2026-04-04T10:42:19.001Z</time></trkpt><trkpt lat="44.055428623998296" lon="12.176541240452122"><ele>112.0</ele><time>2026-04-04T10:42:20.001Z</time></trkpt><trkpt lat="44.05536961394451" lon="12.176442817815747"><ele>112.0</ele><time>2026-04-04T10:42:21.001Z</time></trkpt><trkpt lat="44.05531708170276" lon="12.176344298267672"><ele>112.0</ele><time>2026-04-04T10:42:22.001Z</time></trkpt><trkpt lat="44.05526922735639" lon="12.176254471689672"><ele>112.0</ele><time>2026-04-04T10:42:23.001Z</time></trkpt><trkpt lat="44.05521467810056" lon="12.176185976700213"><ele>112.0</ele><time>2026-04-04T10:42:24.001Z</time></trkpt><trkpt lat="44.0551558879817" lon="12.176144975848466"><ele>112.0</ele><time>2026-04-04T10:42:25.001Z</time></trkpt><trkpt lat="44.0550926311396" lon="12.176153400250614"><ele>112.0</ele><time>2026-04-04T10:42:26.001Z</time></trkpt><trkpt lat="44.05503862182534" lon="12.176202278305967"><ele>112.0</ele><time>2026-04-04T10:42:27.001Z</time></trkpt><trkpt lat="44.0550103175126" lon="12.176284344023218"><ele>112.00000000000001</ele><time>2026-04-04T10:42:28.001Z</time></trkpt><trkpt lat="44.05501072117108" lon="12.176379053728333"><ele>112.0</ele><time>2026-04-04T10:42:29.001Z</time></trkpt><trkpt lat="44.05503891196712" lon="12.176475949099485"><ele>112.0</ele><time>2026-04-04T10:42:30.001Z</time></trkpt><trkpt lat="44.05507742109116" lon="12.176584026064193"><ele>112.0</ele><time>2026-04-04T10:42:31.001Z</time></trkpt><trkpt lat="44.05511227555169" lon="12.176696303463677"><ele>112.00000000000001</ele><time>2026-04-04T10:42:32.001Z</time></trkpt><trkpt lat="44.05515189574565" lon="12.176816728071824"><ele>112.0</ele><time>2026-04-04T10:42:33.001Z</time></trkpt><trkpt lat="44.0551931017827" lon="12.17694246313103"><ele>110.0</ele><time>2026-04-04T10:42:34.001Z</time></trkpt><trkpt lat="44.0552347532257" lon="12.177067542119238"><ele>107.99999999999999</ele><time>2026-04-04T10:42:35.001Z</time></trkpt><trkpt lat="44.05527917492908" lon="12.17719081852673"><ele>106.0</ele><time>2026-04-04T10:42:36.001Z</time></trkpt><trkpt lat="44.05532089599745" lon="12.177317437271402"><ele>104.0</ele><time>2026-04-04T10:42:37.001Z</time></trkpt><trkpt lat="44.05535908148178" lon="12.177449013976961"><ele>102.0</ele><time>2026-04-04T10:42:38.001Z</time></trkpt><trkpt lat="44.055393373134926" lon="12.17757402827192"><ele>100.19999999999999</ele><time>2026-04-04T10:42:39.001Z</time></trkpt><trkpt lat="44.055438751579956" lon="12.177706212645623"><ele>98.4</ele><time>2026-04-04T10:42:40.001Z</time></trkpt><trkpt lat="44.0554866888216" lon="12.177830066019492"><ele>96.6</ele><time>2026-04-04T10:42:41.001Z</time></trkpt><trkpt lat="44.055531933234604" lon="12.177955357873854"><ele>94.80000000000001</ele><time>2026-04-04T10:42:42.001Z</time></trkpt><trkpt lat="44.05557703225252" lon="12.178079066933348"><ele>93.0</ele><time>2026-04-04T10:42:43.001Z</time></trkpt><trkpt lat="44.05561766797265" lon="12.178202337451028"><ele>93.4</ele><time>2026-04-04T10:42:44.001Z</time></trkpt><trkpt lat="44.05565700811691" lon="12.178325122862484"><ele>93.80000000000001</ele><time>2026-04-04T10:42:45.001Z</time></trkpt><trkpt lat="44.05569627292028" lon="12.178453872419444"><ele>94.2</ele><time>2026-04-04T10:42:46.001Z</time></trkpt><trkpt lat="44.055732407740706" lon="12.178581117016533"><ele>94.6</ele><time>2026-04-04T10:42:47.001Z</time></trkpt><trkpt lat="44.05577855819737" lon="12.178699503811234"><ele>95.0</ele><time>2026-04-04T10:42:48.001Z</time></trkpt><trkpt lat="44.055823909420205" lon="12.178819097760103"><ele>95.0</ele><time>2026-04-04T10:42:49.001Z</time></trkpt><trkpt lat="44.055866502505495" lon="12.178925038095887"><ele>95.0</ele><time>2026-04-04T10:42:50.001Z</time></trkpt><trkpt lat="44.0558753265845" lon="12.17902764470663"><ele>95.0</ele><time>2026-04-04T10:42:51.001Z</time></trkpt><trkpt lat="44.05580875435558" lon="12.179200589884568"><ele>95.0</ele><time>2026-04-04T10:42:53.001Z</time></trkpt><trkpt lat="44.05574460369085" lon="12.179257898777255"><ele>95.0</ele><time>2026-04-04T10:42:54.001Z</time></trkpt><trkpt lat="44.05567933628082" lon="12.179301839243612"><ele>92.2</ele><time>2026-04-04T10:42:55.001Z</time></trkpt><trkpt lat="44.05561634985809" lon="12.179330908326904"><ele>89.4</ele><time>2026-04-04T10:42:56.001Z</time></trkpt><trkpt lat="44.05550441416055" lon="12.179370666682651"><ele>86.6</ele><time>2026-04-04T10:42:58.001Z</time></trkpt><trkpt lat="44.05544553281942" lon="12.179487140316818"><ele>83.8</ele><time>2026-04-04T10:43:00.001Z</time></trkpt><trkpt lat="44.05548612476904" lon="12.17962466121046"><ele>81.0</ele><time>2026-04-04T10:43:02.001Z</time></trkpt><trkpt lat="44.0555503843253" lon="12.179683287835255"><ele>81.0</ele><time>2026-04-04T10:43:04.001Z</time></trkpt><trkpt lat="44.05553567385152" lon="12.179776490023858"><ele>81.0</ele><time>2026-04-04T10:43:08.001Z</time></trkpt><trkpt lat="44.05545481222892" lon="12.179745517423802"><ele>81.0</ele><time>2026-04-04T10:43:10.001Z</time></trkpt><trkpt lat="44.055355540596885" lon="12.179666877169497"><ele>81.0</ele><time>2026-04-04T10:43:12.001Z</time></trkpt><trkpt lat="44.055292894357386" lon="12.179621534101033"><ele>81.0</ele><time>2026-04-04T10:43:13.001Z</time></trkpt><trkpt lat="44.05522808897705" lon="12.179572262002981"><ele>81.0</ele><time>2026-04-04T10:43:14.001Z</time></trkpt><trkpt lat="44.05515927971474" lon="12.179518145378069"><ele>81.0</ele><time>2026-04-04T10:43:15.001Z</time></trkpt><trkpt lat="44.055088613839146" lon="12.179464208448577"><ele>81.0</ele><time>2026-04-04T10:43:16.001Z</time></trkpt><trkpt lat="44.05501740029107" lon="12.17941109700491"><ele>81.0</ele><time>2026-04-04T10:43:17.001Z</time></trkpt><trkpt lat="44.054938353535924" lon="12.179353282488435"><ele>81.0</ele><time>2026-04-04T10:43:18.001Z</time></trkpt><trkpt lat="44.05485909077331" lon="12.17928972650243"><ele>81.0</ele><time>2026-04-04T10:43:19.001Z</time></trkpt><trkpt lat="44.05477702270934" lon="12.179221222016928"><ele>81.0</ele><time>2026-04-04T10:43:20.001Z</time></trkpt><trkpt lat="44.05469368456588" lon="12.17915677976263"><ele>80.39999999999999</ele><time>2026-04-04T10:43:21.001Z</time></trkpt><trkpt lat="44.054612420292024" lon="12.179096597961"><ele>79.8</ele><time>2026-04-04T10:43:22.001Z</time></trkpt><trkpt lat="44.054532746858094" lon="12.179027380643348"><ele>79.19999999999999</ele><time>2026-04-04T10:43:23Z</time></trkpt><trkpt lat="44.05445447027867" lon="12.17894661871076"><ele>78.6</ele><time>2026-04-04T10:43:24Z</time></trkpt><trkpt lat="44.05437537224979" lon="12.178872009468895"><ele>78.0</ele><time>2026-04-04T10:43:25Z</time></trkpt><trkpt lat="44.05429607704388" lon="12.178801581744214"><ele>78.0</ele><time>2026-04-04T10:43:26Z</time></trkpt><trkpt lat="44.05422347733919" lon="12.178739973031895"><ele>78.0</ele><time>2026-04-04T10:43:27Z</time></trkpt><trkpt lat="44.054151004656795" lon="12.178683556192304"><ele>78.0</ele><time>2026-04-04T10:43:28Z</time></trkpt><trkpt lat="44.054086852845714" lon="12.178629669825527"><ele>78.0</ele><time>2026-04-04T10:43:29Z</time></trkpt><trkpt lat="44.054027559813974" lon="12.178577103761995"><ele>78.0</ele><time>2026-04-04T10:43:30Z</time></trkpt><trkpt lat="44.05396590467899" lon="12.178528123736479"><ele>78.0</ele><time>2026-04-04T10:43:31Z</time></trkpt><trkpt lat="44.053907190310404" lon="12.178483632298583"><ele>77.66666666666667</ele><time>2026-04-04T10:43:32Z</time></trkpt><trkpt lat="44.05379697938726" lon="12.178381095301235"><ele>77.33333333333333</ele><time>2026-04-04T10:43:34Z</time></trkpt><trkpt lat="44.05373525808254" lon="12.178329496038367"><ele>77.0</ele><time>2026-04-04T10:43:35Z</time></trkpt><trkpt lat="44.05366741221024" lon="12.178281755000276"><ele>76.66666666666666</ele><time>2026-04-04T10:43:36Z</time></trkpt><trkpt lat="44.05360008124973" lon="12.178227224017977"><ele>76.33333333333333</ele><time>2026-04-04T10:43:37Z</time></trkpt><trkpt lat="44.053532948585236" lon="12.178172791261227"><ele>76.0</ele><time>2026-04-04T10:43:38Z</time></trkpt><trkpt lat="44.05346335555173" lon="12.17811453646035"><ele>76.0</ele><time>2026-04-04T10:43:39Z</time></trkpt><trkpt lat="44.05340178434916" lon="12.178054274445843"><ele>76.0</ele><time>2026-04-04T10:43:40Z</time></trkpt><trkpt lat="44.05330782250159" lon="12.177969037353636"><ele>76.0</ele><time>2026-04-04T10:43:42Z</time></trkpt><trkpt lat="44.05322750930767" lon="12.177899401710471"><ele>76.0</ele><time>2026-04-04T10:43:44Z</time></trkpt><trkpt lat="44.05315067862871" lon="12.177833857180419"><ele>76.0</ele><time>2026-04-04T10:43:46Z</time></trkpt><trkpt lat="44.05305426660633" lon="12.177753010582961"><ele>75.16666666666666</ele><time>2026-04-04T10:43:48Z</time></trkpt><trkpt lat="44.052991499219736" lon="12.177703190639463"><ele>74.33333333333333</ele><time>2026-04-04T10:43:49Z</time></trkpt><trkpt lat="44.05292371597002" lon="12.177647476878267"><ele>73.5</ele><time>2026-04-04T10:43:50Z</time></trkpt><trkpt lat="44.05285691490685" lon="12.17758418372532"><ele>72.66666666666667</ele><time>2026-04-04T10:43:51Z</time></trkpt><trkpt lat="44.05279234847064" lon="12.177521253476597"><ele>71.83333333333334</ele><time>2026-04-04T10:43:52Z</time></trkpt><trkpt lat="44.05273629463108" lon="12.17744589696255"><ele>71.0</ele><time>2026-04-04T10:43:53Z</time></trkpt><trkpt lat="44.052686108222574" lon="12.177373917594162"><ele>71.0</ele><time>2026-04-04T10:43:54Z</time></trkpt><trkpt lat="44.05263803819214" lon="12.177304438181901"><ele>71.0</ele><time>2026-04-04T10:43:55Z</time></trkpt><trkpt lat="44.05257512488831" lon="12.177237458818892"><ele>71.0</ele><time>2026-04-04T10:43:56Z</time></trkpt><trkpt lat="44.052535298305095" lon="12.177140023060062"><ele>71.0</ele><time>2026-04-04T10:43:57Z</time></trkpt><trkpt lat="44.05248816360268" lon="12.1770542069921"><ele>71.0</ele><time>2026-04-04T10:43:58Z</time></trkpt><trkpt lat="44.052444339432725" lon="12.176969597805003"><ele>71.0</ele><time>2026-04-04T10:43:59Z</time></trkpt><trkpt lat="44.05240130633836" lon="12.176895480679569"><ele>71.0</ele><time>2026-04-04T10:44:00Z</time></trkpt><trkpt lat="44.0523120632868" lon="12.176759183787475"><ele>71.0</ele><time>2026-04-04T10:44:02Z</time></trkpt><trkpt lat="44.05228259400231" lon="12.176665983036138"><ele>71.0</ele><time>2026-04-04T10:44:03Z</time></trkpt><trkpt lat="44.0522291598583" lon="12.176577158047074"><ele>71.0</ele><time>2026-04-04T10:44:04Z</time></trkpt><trkpt lat="44.052174026337575" lon="12.176493165544395"><ele>71.0</ele><time>2026-04-04T10:44:05Z</time></trkpt><trkpt lat="44.05211769052652" lon="12.176391065085337"><ele>71.16666666666667</ele><time>2026-04-04T10:44:06Z</time></trkpt><trkpt lat="44.05205490696907" lon="12.176303713541751"><ele>71.33333333333334</ele><time>2026-04-04T10:44:07Z</time></trkpt><trkpt lat="44.05199623340859" lon="12.17621514429187"><ele>71.5</ele><time>2026-04-04T10:44:08Z</time></trkpt><trkpt lat="44.051935142001746" lon="12.176134305014305"><ele>71.66666666666667</ele><time>2026-04-04T10:44:09Z</time></trkpt><trkpt lat="44.05188292331844" lon="12.176063254662797"><ele>71.83333333333333</ele><time>2026-04-04T10:44:10Z</time></trkpt><trkpt lat="44.05183761876072" lon="12.175981719740964"><ele>72.0</ele><time>2026-04-04T10:44:11Z</time></trkpt><trkpt lat="44.05179216859713" lon="12.175904068501456"><ele>72.00000000000001</ele><time>2026-04-04T10:44:12Z</time></trkpt><trkpt lat="44.05176235366007" lon="12.175819305763536"><ele>72.0</ele><time>2026-04-04T10:44:13Z</time></trkpt><trkpt lat="44.05173725545102" lon="12.175728553112092"><ele>72.0</ele><time>2026-04-04T10:44:14Z</time></trkpt><trkpt lat="44.05172020285595" lon="12.175635130962148"><ele>72.0</ele><time>2026-04-04T10:44:15.001Z</time></trkpt><trkpt lat="44.05168411045178" lon="12.175536290807212"><ele>72.0</ele><time>2026-04-04T10:44:16.001Z</time></trkpt><trkpt lat="44.051646045193664" lon="12.175446850078208"><ele>72.00000000000001</ele><time>2026-04-04T10:44:17.001Z</time></trkpt><trkpt lat="44.051603183330165" lon="12.175348327267718"><ele>72.0</ele><time>2026-04-04T10:44:18.001Z</time></trkpt><trkpt lat="44.05154574765219" lon="12.175248418965726"><ele>72.2</ele><time>2026-04-04T10:44:19.001Z</time></trkpt><trkpt lat="44.05148126923952" lon="12.175145592648375"><ele>72.4</ele><time>2026-04-04T10:44:20.001Z</time></trkpt><trkpt lat="44.05142792242597" lon="12.175040171621896"><ele>72.6</ele><time>2026-04-04T10:44:21.001Z</time></trkpt><trkpt lat="44.05137626977631" lon="12.174934049259154"><ele>72.8</ele><time>2026-04-04T10:44:22.001Z</time></trkpt><trkpt lat="44.051319740005816" lon="12.174836427278704"><ele>73.0</ele><time>2026-04-04T10:44:23.001Z</time></trkpt><trkpt lat="44.051268360032346" lon="12.174740173311001"><ele>73.16666666666666</ele><time>2026-04-04T10:44:24.001Z</time></trkpt><trkpt lat="44.05122034459931" lon="12.174645651553604"><ele>73.33333333333333</ele><time>2026-04-04T10:44:25.001Z</time></trkpt><trkpt lat="44.0511766851062" lon="12.174546681013032"><ele>73.5</ele><time>2026-04-04T10:44:26.001Z</time></trkpt><trkpt lat="44.05113005646648" lon="12.17445877520105"><ele>73.66666666666667</ele><time>2026-04-04T10:44:27.001Z</time></trkpt><trkpt lat="44.05109125322354" lon="12.174369703633339"><ele>73.83333333333334</ele><time>2026-04-04T10:44:28.001Z</time></trkpt><trkpt lat="44.051047135309474" lon="12.174286044926385"><ele>74.0</ele><time>2026-04-04T10:44:29.001Z</time></trkpt><trkpt lat="44.051005451829724" lon="12.174204565593909"><ele>74.0</ele><time>2026-04-04T10:44:30.001Z</time></trkpt><trkpt lat="44.050965931214584" lon="12.174122695905984"><ele>74.0</ele><time>2026-04-04T10:44:31.001Z</time></trkpt><trkpt lat="44.0509179083543" lon="12.174039495823797"><ele>74.0</ele><time>2026-04-04T10:44:32.001Z</time></trkpt><trkpt lat="44.050861678708365" lon="12.17396207461239"><ele>74.0</ele><time>2026-04-04T10:44:33.001Z</time></trkpt><trkpt lat="44.05079325792607" lon="12.173889547765086"><ele>74.0</ele><time>2026-04-04T10:44:34.001Z</time></trkpt><trkpt lat="44.05066665954364" lon="12.17378216450537"><ele>74.66666666666667</ele><time>2026-04-04T10:44:36.001Z</time></trkpt><trkpt lat="44.050600433697" lon="12.173734295455517"><ele>75.33333333333334</ele><time>2026-04-04T10:44:37.001Z</time></trkpt><trkpt lat="44.05053825539641" lon="12.173703385792498"><ele>76.0</ele><time>2026-04-04T10:44:38.001Z</time></trkpt><trkpt lat="44.050424882161174" lon="12.173666699587265"><ele>76.66666666666667</ele><time>2026-04-04T10:44:40.001Z</time></trkpt><trkpt lat="44.050364459108266" lon="12.173637575035526"><ele>77.33333333333333</ele><time>2026-04-04T10:45:33Z</time></trkpt><trkpt lat="44.05030543785679" lon="12.173671932364979"><ele>78.0</ele><time>2026-04-04T10:45:36Z</time></trkpt><trkpt lat="44.050382532667854" lon="12.173735502012244"><ele>78.0</ele><time>2026-04-04T10:45:40Z</time></trkpt><trkpt lat="44.050467216166105" lon="12.173749540465684"><ele>78.0</ele><time>2026-04-04T10:45:42Z</time></trkpt><trkpt lat="44.05055600888207" lon="12.173774512569791"><ele>78.0</ele><time>2026-04-04T10:45:44Z</time></trkpt><trkpt lat="44.05063505177041" lon="12.173789274924806"><ele>78.0</ele><time>2026-04-04T10:45:46Z</time></trkpt><trkpt lat="44.05072892031011" lon="12.17383990414704"><ele>78.0</ele><time>2026-04-04T10:45:48Z</time></trkpt><trkpt lat="44.050804095982116" lon="12.173909765034763"><ele>78.0</ele><time>2026-04-04T10:45:50Z</time></trkpt><trkpt lat="44.050893225460435" lon="12.174024037870039"><ele>77.0</ele><time>2026-04-04T10:45:52Z</time></trkpt><trkpt lat="44.051014898381055" lon="12.17423630071677"><ele>76.0</ele><time>2026-04-04T10:45:54Z</time></trkpt><trkpt lat="44.05107549954807" lon="12.174340700013845"><ele>75.0</ele><time>2026-04-04T10:45:55Z</time></trkpt><trkpt lat="44.05113325578034" lon="12.174452997426489"><ele>74.0</ele><time>2026-04-04T10:45:56Z</time></trkpt><trkpt lat="44.051197178726625" lon="12.174570763723832"><ele>74.0</ele><time>2026-04-04T10:45:57Z</time></trkpt><trkpt lat="44.05126254716424" lon="12.174681200935526"><ele>74.0</ele><time>2026-04-04T10:45:58Z</time></trkpt><trkpt lat="44.05132811949802" lon="12.174795987288263"><ele>74.0</ele><time>2026-04-04T10:45:59Z</time></trkpt><trkpt lat="44.05139882933938" lon="12.174910019535456"><ele>74.0</ele><time>2026-04-04T10:46:00Z</time></trkpt><trkpt lat="44.05147463666585" lon="12.175021526789816"><ele>74.0</ele><time>2026-04-04T10:46:01Z</time></trkpt><trkpt lat="44.051531724159176" lon="12.175138673518976"><ele>73.8</ele><time>2026-04-04T10:46:02Z</time></trkpt><trkpt lat="44.05158995693935" lon="12.175251790444346"><ele>73.60000000000001</ele><time>2026-04-04T10:46:03Z</time></trkpt><trkpt lat="44.05165530802294" lon="12.175361266657687"><ele>73.4</ele><time>2026-04-04T10:46:04Z</time></trkpt><trkpt lat="44.051706280958484" lon="12.175462465389364"><ele>73.2</ele><time>2026-04-04T10:46:05Z</time></trkpt><trkpt lat="44.051728824763664" lon="12.17556162766144"><ele>73.0</ele><time>2026-04-04T10:46:06Z</time></trkpt><trkpt lat="44.05173001948035" lon="12.175683859524007"><ele>72.8</ele><time>2026-04-04T10:46:08Z</time></trkpt><trkpt lat="44.05170937340375" lon="12.175797786026587"><ele>72.6</ele><time>2026-04-04T10:46:11Z</time></trkpt><trkpt lat="44.051601316565325" lon="12.175880849954847"><ele>72.4</ele><time>2026-04-04T10:46:13Z</time></trkpt><trkpt lat="44.051524194257965" lon="12.17590354853019"><ele>72.2</ele><time>2026-04-04T10:46:14Z</time></trkpt><trkpt lat="44.0514470849829" lon="12.175935061136697"><ele>72.0</ele><time>2026-04-04T10:46:15Z</time></trkpt><trkpt lat="44.051366288396785" lon="12.175985414548492"><ele>71.8</ele><time>2026-04-04T10:46:16Z</time></trkpt><trkpt lat="44.051282508678305" lon="12.176070995770074"><ele>71.6</ele><time>2026-04-04T10:46:17Z</time></trkpt><trkpt lat="44.05120459501695" lon="12.17617236124479"><ele>71.39999999999999</ele><time>2026-04-04T10:46:18Z</time></trkpt><trkpt lat="44.05113077587393" lon="12.176277751751693"><ele>71.2</ele><time>2026-04-04T10:46:19Z</time></trkpt><trkpt lat="44.05105936451632" lon="12.176392550088307"><ele>71.0</ele><time>2026-04-04T10:46:20Z</time></trkpt><trkpt lat="44.0509992999139" lon="12.17652224548109"><ele>70.8</ele><time>2026-04-04T10:46:21Z</time></trkpt><trkpt lat="44.05095864935889" lon="12.17665010189708"><ele>70.6</ele><time>2026-04-04T10:46:22Z</time></trkpt><trkpt lat="44.050918653740105" lon="12.176785641526134"><ele>70.4</ele><time>2026-04-04T10:46:23Z</time></trkpt><trkpt lat="44.05087947520815" lon="12.176925596095831"><ele>70.2</ele><time>2026-04-04T10:46:24Z</time></trkpt><trkpt lat="44.050833840544435" lon="12.17707068232864"><ele>70.0</ele><time>2026-04-04T10:46:25Z</time></trkpt><trkpt lat="44.05078244341508" lon="12.177214968242886"><ele>71.0</ele><time>2026-04-04T10:46:26Z</time></trkpt><trkpt lat="44.05073621269176" lon="12.177361113271377"><ele>72.0</ele><time>2026-04-04T10:46:27Z</time></trkpt><trkpt lat="44.05068985532128" lon="12.177510282608567"><ele>73.0</ele><time>2026-04-04T10:46:28Z</time></trkpt><trkpt lat="44.0506446846242" lon="12.177660879807698"><ele>74.0</ele><time>2026-04-04T10:46:29Z</time></trkpt><trkpt lat="44.05060042376786" lon="12.17781155322314"><ele>74.0</ele><time>2026-04-04T10:46:30Z</time></trkpt><trkpt lat="44.05056513443418" lon="12.177970978390896"><ele>74.0</ele><time>2026-04-04T10:46:31Z</time></trkpt><trkpt lat="44.050546997336525" lon="12.17812975277494"><ele>74.0</ele><time>2026-04-04T10:46:32Z</time></trkpt><trkpt lat="44.050548954017316" lon="12.178306529768733"><ele>74.0</ele><time>2026-04-04T10:46:33Z</time></trkpt><trkpt lat="44.05057785684124" lon="12.17848950638631"><ele>74.5</ele><time>2026-04-04T10:46:34.001Z</time></trkpt><trkpt lat="44.05062677888274" lon="12.178672993287178"><ele>75.0</ele><time>2026-04-04T10:46:35.001Z</time></trkpt><trkpt lat="44.05068124305723" lon="12.17886759806273"><ele>75.5</ele><time>2026-04-04T10:46:36.001Z</time></trkpt><trkpt lat="44.05075403395659" lon="12.179052415231457"><ele>76.0</ele><time>2026-04-04T10:46:37.001Z</time></trkpt><trkpt lat="44.05081958781217" lon="12.179249011061026"><ele>76.0</ele><time>2026-04-04T10:46:38.001Z</time></trkpt><trkpt lat="44.05086877474027" lon="12.179466366395694"><ele>76.0</ele><time>2026-04-04T10:46:39.001Z</time></trkpt><trkpt lat="44.050900470829085" lon="12.179694259380105"><ele>76.0</ele><time>2026-04-04T10:46:40.001Z</time></trkpt><trkpt lat="44.05092365788386" lon="12.179927112065931"><ele>76.33333333333333</ele><time>2026-04-04T10:46:41.001Z</time></trkpt><trkpt lat="44.05093982001622" lon="12.1801590150351"><ele>76.66666666666667</ele><time>2026-04-04T10:46:42.001Z</time></trkpt><trkpt lat="44.05095351982322" lon="12.180386604262162"><ele>77.0</ele><time>2026-04-04T10:46:43.001Z</time></trkpt><trkpt lat="44.050961758387835" lon="12.180607839995123"><ele>78.33333333333334</ele><time>2026-04-04T10:46:44.001Z</time></trkpt><trkpt lat="44.05097252055717" lon="12.180822859289165"><ele>79.66666666666667</ele><time>2026-04-04T10:46:45.001Z</time></trkpt><trkpt lat="44.0509798951272" lon="12.181032989739755"><ele>81.0</ele><time>2026-04-04T10:46:46.001Z</time></trkpt><trkpt lat="44.050969435975354" lon="12.18124494043502"><ele>81.0</ele><time>2026-04-04T10:46:47.001Z</time></trkpt><trkpt lat="44.050946338831444" lon="12.18145398533712"><ele>81.0</ele><time>2026-04-04T10:46:48.001Z</time></trkpt><trkpt lat="44.0508947269387" lon="12.181656424469972"><ele>81.0</ele><time>2026-04-04T10:46:49.001Z</time></trkpt><trkpt lat="44.05081770035314" lon="12.18184587281051"><ele>82.66666666666667</ele><time>2026-04-04T10:46:50.001Z</time></trkpt><trkpt lat="44.050718269195265" lon="12.182020755784176"><ele>84.33333333333334</ele><time>2026-04-04T10:46:51.001Z</time></trkpt><trkpt lat="44.05060150413503" lon="12.182170035630149"><ele>86.0</ele><time>2026-04-04T10:46:52.001Z</time></trkpt><trkpt lat="44.0504653738474" lon="12.18227961918341"><ele>82.66666666666667</ele><time>2026-04-04T10:46:53.001Z</time></trkpt><trkpt lat="44.0503220350399" lon="12.182356544437104"><ele>79.33333333333333</ele><time>2026-04-04T10:46:54.001Z</time></trkpt><trkpt lat="44.050166206521205" lon="12.182396014993827"><ele>76.0</ele><time>2026-04-04T10:46:55.001Z</time></trkpt><trkpt lat="44.05001109449463" lon="12.182418580446416"><ele>77.0</ele><time>2026-04-04T10:46:56.001Z</time></trkpt><trkpt lat="44.04985406127757" lon="12.182432553194026"><ele>78.0</ele><time>2026-04-04T10:46:57.001Z</time></trkpt><trkpt lat="44.049696042071304" lon="12.182447367004693"><ele>79.0</ele><time>2026-04-04T10:46:58.001Z</time></trkpt><trkpt lat="44.049539023474104" lon="12.18246303092079"><ele>79.0</ele><time>2026-04-04T10:46:59.001Z</time></trkpt><trkpt lat="44.049384979879775" lon="12.18247859033299"><ele>79.0</ele><time>2026-04-04T10:47:00.001Z</time></trkpt><trkpt lat="44.04923699529943" lon="12.18249417786155"><ele>79.0</ele><time>2026-04-04T10:47:01.001Z</time></trkpt><trkpt lat="44.04909071142599" lon="12.182513664692086"><ele>80.0</ele><time>2026-04-04T10:47:02.001Z</time></trkpt><trkpt lat="44.048944802734454" lon="12.182531922025406"><ele>81.0</ele><time>2026-04-04T10:47:03.001Z</time></trkpt><trkpt lat="44.048807123484146" lon="12.182546915748132"><ele>82.0</ele><time>2026-04-04T10:47:04.001Z</time></trkpt><trkpt lat="44.04867721211181" lon="12.182556913417317"><ele>83.0</ele><time>2026-04-04T10:47:05.001Z</time></trkpt><trkpt lat="44.04855796876394" lon="12.182565073817589"><ele>83.0</ele><time>2026-04-04T10:47:06.001Z</time></trkpt><trkpt lat="44.048456566068865" lon="12.182572018865171"><ele>83.0</ele><time>2026-04-04T10:47:07.001Z</time></trkpt><trkpt lat="44.048369486238215" lon="12.182579573714165"><ele>83.0</ele><time>2026-04-04T10:47:08.001Z</time></trkpt><trkpt lat="44.04829535710279" lon="12.182587781019986"><ele>83.0</ele><time>2026-04-04T10:47:09.001Z</time></trkpt><trkpt lat="44.048229964774215" lon="12.182592319147929"><ele>83.0</ele><time>2026-04-04T10:47:10.001Z</time></trkpt><trkpt lat="44.048119568594295" lon="12.182610434719585"><ele>83.0</ele><time>2026-04-04T10:47:12.001Z</time></trkpt><trkpt lat="44.04804341378063" lon="12.182621527943784"><ele>83.4</ele><time>2026-04-04T10:47:14.001Z</time></trkpt><trkpt lat="44.04795324611597" lon="12.182637765977688"><ele>83.80000000000001</ele><time>2026-04-04T10:47:16.001Z</time></trkpt><trkpt lat="44.04782622284364" lon="12.18268786285296"><ele>84.2</ele><time>2026-04-04T10:47:18.001Z</time></trkpt><trkpt lat="44.04775238682447" lon="12.182743492180064"><ele>84.6</ele><time>2026-04-04T10:47:19.001Z</time></trkpt><trkpt lat="44.04768866718102" lon="12.182825866956517"><ele>85.0</ele><time>2026-04-04T10:47:20.001Z</time></trkpt><trkpt lat="44.047636125339416" lon="12.182932821573722"><ele>85.0</ele><time>2026-04-04T10:47:21.001Z</time></trkpt><trkpt lat="44.047602751658424" lon="12.183058440983864"><ele>85.0</ele><time>2026-04-04T10:47:22.001Z</time></trkpt><trkpt lat="44.047582818003825" lon="12.183195155923292"><ele>85.0</ele><time>2026-04-04T10:47:23.001Z</time></trkpt><trkpt lat="44.047582198062614" lon="12.183330118464685"><ele>85.0</ele><time>2026-04-04T10:47:24.001Z</time></trkpt><trkpt lat="44.047575236808726" lon="12.183463089094289"><ele>85.0</ele><time>2026-04-04T10:47:25.001Z</time></trkpt><trkpt lat="44.04754476738045" lon="12.183600338469944"><ele>85.0</ele><time>2026-04-04T10:47:26.001Z</time></trkpt><trkpt lat="44.04750470271513" lon="12.183731377250746"><ele>85.0</ele><time>2026-04-04T10:47:27.001Z</time></trkpt><trkpt lat="44.0474459022024" lon="12.183846403886161"><ele>85.0</ele><time>2026-04-04T10:47:28.001Z</time></trkpt><trkpt lat="44.04736698417908" lon="12.183946594984878"><ele>85.0</ele><time>2026-04-04T10:47:29.001Z</time></trkpt><trkpt lat="44.04727999056238" lon="12.184030680148831"><ele>85.0</ele><time>2026-04-04T10:47:30.001Z</time></trkpt><trkpt lat="44.04718359506845" lon="12.18410525560337"><ele>84.25</ele><time>2026-04-04T10:47:31.001Z</time></trkpt><trkpt lat="44.04707648656045" lon="12.184165992955416"><ele>83.5</ele><time>2026-04-04T10:47:32.001Z</time></trkpt><trkpt lat="44.046963346972895" lon="12.18422297839682"><ele>82.75</ele><time>2026-04-04T10:47:33.001Z</time></trkpt><trkpt lat="44.046847542871014" lon="12.184286535835973"><ele>82.0</ele><time>2026-04-04T10:47:34.001Z</time></trkpt><trkpt lat="44.04673932470425" lon="12.18434538297611"><ele>82.0</ele><time>2026-04-04T10:47:35Z</time></trkpt><trkpt lat="44.04663504408486" lon="12.18440605208289"><ele>82.0</ele><time>2026-04-04T10:47:36Z</time></trkpt><trkpt lat="44.04651643759759" lon="12.184474207634302"><ele>82.0</ele><time>2026-04-04T10:47:37Z</time></trkpt><trkpt lat="44.046415292807886" lon="12.184529949221343"><ele>82.0</ele><time>2026-04-04T10:47:38Z</time></trkpt><trkpt lat="44.046327758419594" lon="12.184573177465797"><ele>82.0</ele><time>2026-04-04T10:47:39Z</time></trkpt><trkpt lat="44.046251451109136" lon="12.184617382566268"><ele>81.33333333333333</ele><time>2026-04-04T10:47:40Z</time></trkpt><trkpt lat="44.04618648839308" lon="12.184656153552599"><ele>80.66666666666666</ele><time>2026-04-04T10:47:41Z</time></trkpt><trkpt lat="44.046119095560755" lon="12.184692236241338"><ele>80.0</ele><time>2026-04-04T10:47:42Z</time></trkpt><trkpt lat="44.046060412918536" lon="12.184729449303061"><ele>79.33333333333333</ele><time>2026-04-04T10:47:43Z</time></trkpt><trkpt lat="44.046001291199" lon="12.18476907425986"><ele>78.66666666666667</ele><time>2026-04-04T10:47:44Z</time></trkpt><trkpt lat="44.04592103952409" lon="12.1848227593267"><ele>78.0</ele><time>2026-04-04T10:47:45Z</time></trkpt><trkpt lat="44.04582686237396" lon="12.184878859341506"><ele>77.5</ele><time>2026-04-04T10:47:46Z</time></trkpt><trkpt lat="44.045720453846066" lon="12.184937710465992"><ele>77.0</ele><time>2026-04-04T10:47:47Z</time></trkpt><trkpt lat="44.04560307725094" lon="12.185007161234179"><ele>76.5</ele><time>2026-04-04T10:47:48Z</time></trkpt><trkpt lat="44.0454800493927" lon="12.185081174563413"><ele>76.0</ele><time>2026-04-04T10:47:49Z</time></trkpt><trkpt lat="44.04534739219788" lon="12.185155177410868"><ele>76.0</ele><time>2026-04-04T10:47:50Z</time></trkpt><trkpt lat="44.04521086950257" lon="12.185230846971875"><ele>76.0</ele><time>2026-04-04T10:47:51Z</time></trkpt><trkpt lat="44.045070898399295" lon="12.185305556332677"><ele>76.0</ele><time>2026-04-04T10:47:52Z</time></trkpt><trkpt lat="44.044925710243156" lon="12.18538772598127"><ele>76.33333333333333</ele><time>2026-04-04T10:47:53Z</time></trkpt><trkpt lat="44.04477577044035" lon="12.185473091593494"><ele>76.66666666666667</ele><time>2026-04-04T10:47:54Z</time></trkpt><trkpt lat="44.04462026889051" lon="12.185560030017209"><ele>77.0</ele><time>2026-04-04T10:47:55Z</time></trkpt><trkpt lat="44.04446090223732" lon="12.185650081384269"><ele>76.0</ele><time>2026-04-04T10:47:56Z</time></trkpt><trkpt lat="44.04429626158268" lon="12.185742247140167"><ele>75.0</ele><time>2026-04-04T10:47:57Z</time></trkpt><trkpt lat="44.04413119030261" lon="12.185835311607248"><ele>74.0</ele><time>2026-04-04T10:47:58Z</time></trkpt><trkpt lat="44.04396522854534" lon="12.185930522521762"><ele>73.66666666666667</ele><time>2026-04-04T10:47:59Z</time></trkpt><trkpt lat="44.04379932095799" lon="12.186024067728605"><ele>73.33333333333333</ele><time>2026-04-04T10:48:00Z</time></trkpt><trkpt lat="44.0436291047525" lon="12.186115787970945"><ele>73.0</ele><time>2026-04-04T10:48:01Z</time></trkpt><trkpt lat="44.043462089039664" lon="12.186210540570588"><ele>73.33333333333333</ele><time>2026-04-04T10:48:02Z</time></trkpt><trkpt lat="44.043294263373646" lon="12.186308193348086"><ele>73.66666666666667</ele><time>2026-04-04T10:48:03Z</time></trkpt><trkpt lat="44.043122999835695" lon="12.186404810401367"><ele>74.0</ele><time>2026-04-04T10:48:04Z</time></trkpt><trkpt lat="44.042951238442065" lon="12.186505132567717"><ele>73.66666666666667</ele><time>2026-04-04T10:48:05Z</time></trkpt><trkpt lat="44.0427777923131" lon="12.186603037580694"><ele>73.33333333333333</ele><time>2026-04-04T10:48:06Z</time></trkpt><trkpt lat="44.042601711487116" lon="12.186700321483437"><ele>73.0</ele><time>2026-04-04T10:48:07Z</time></trkpt><trkpt lat="44.04242915285598" lon="12.186796049793676"><ele>73.0</ele><time>2026-04-04T10:48:08Z</time></trkpt><trkpt lat="44.04225524723769" lon="12.186889609174015"><ele>73.0</ele><time>2026-04-04T10:48:09Z</time></trkpt><trkpt lat="44.04208336310891" lon="12.186985534209505"><ele>73.0</ele><time>2026-04-04T10:48:10Z</time></trkpt><trkpt lat="44.04190893895409" lon="12.187083521156609"><ele>73.0</ele><time>2026-04-04T10:48:11Z</time></trkpt><trkpt lat="44.04173430711668" lon="12.187185830690353"><ele>73.0</ele><time>2026-04-04T10:48:12Z</time></trkpt><trkpt lat="44.041559147236725" lon="12.187286425275053"><ele>73.0</ele><time>2026-04-04T10:48:13Z</time></trkpt><trkpt lat="44.041382570561545" lon="12.187389239509182"><ele>71.33333333333333</ele><time>2026-04-04T10:48:14Z</time></trkpt><trkpt lat="44.04120237167487" lon="12.187492006137113"><ele>69.66666666666667</ele><time>2026-04-04T10:48:15Z</time></trkpt><trkpt lat="44.04102644084539" lon="12.187590419519008"><ele>68.0</ele><time>2026-04-04T10:48:16Z</time></trkpt><trkpt lat="44.04084849732291" lon="12.187690172997836"><ele>68.0</ele><time>2026-04-04T10:48:17Z</time></trkpt><trkpt lat="44.04066920174969" lon="12.187789560558535"><ele>68.0</ele><time>2026-04-04T10:48:18Z</time></trkpt><trkpt lat="44.04048321318026" lon="12.187887102216216"><ele>68.0</ele><time>2026-04-04T10:48:19Z</time></trkpt><trkpt lat="44.04030142448224" lon="12.187988425372902"><ele>68.0</ele><time>2026-04-04T10:48:20Z</time></trkpt><trkpt lat="44.04011161540777" lon="12.188078570893985"><ele>68.0</ele><time>2026-04-04T10:48:21Z</time></trkpt><trkpt lat="44.03992427271466" lon="12.188179185488055"><ele>68.0</ele><time>2026-04-04T10:48:22Z</time></trkpt><trkpt lat="44.03974435282527" lon="12.188291121613853"><ele>68.66666666666667</ele><time>2026-04-04T10:48:23Z</time></trkpt><trkpt lat="44.03955674649899" lon="12.188408586889555"><ele>69.33333333333333</ele><time>2026-04-04T10:48:24Z</time></trkpt><trkpt lat="44.03936716751596" lon="12.188516460118297"><ele>70.0</ele><time>2026-04-04T10:48:25Z</time></trkpt><trkpt lat="44.03917777183246" lon="12.188622748610385"><ele>70.33333333333333</ele><time>2026-04-04T10:48:26Z</time></trkpt><trkpt lat="44.03898827916306" lon="12.188729946379963"><ele>70.66666666666667</ele><time>2026-04-04T10:48:27Z</time></trkpt><trkpt lat="44.03879782382211" lon="12.188836877769477"><ele>71.0</ele><time>2026-04-04T10:48:28Z</time></trkpt><trkpt lat="44.03860417670823" lon="12.18894519231314"><ele>71.66666666666667</ele><time>2026-04-04T10:48:29.001Z</time></trkpt><trkpt lat="44.038417541268565" lon="12.189050171009313"><ele>72.33333333333333</ele><time>2026-04-04T10:48:30.001Z</time></trkpt><trkpt lat="44.0382266466912" lon="12.189158999614873"><ele>73.0</ele><time>2026-04-04T10:48:31.001Z</time></trkpt><trkpt lat="44.038032557493366" lon="12.18926850028966"><ele>73.0</ele><time>2026-04-04T10:48:32.001Z</time></trkpt><trkpt lat="44.03784129675317" lon="12.189380201432167"><ele>73.0</ele><time>2026-04-04T10:48:33.001Z</time></trkpt><trkpt lat="44.03765090635936" lon="12.189489828503726"><ele>73.0</ele><time>2026-04-04T10:48:34.001Z</time></trkpt><trkpt lat="44.03745704546721" lon="12.18959921856777"><ele>73.0</ele><time>2026-04-04T10:48:35.001Z</time></trkpt><trkpt lat="44.03726347545292" lon="12.189711505703414"><ele>73.0</ele><time>2026-04-04T10:48:36.001Z</time></trkpt><trkpt lat="44.037070428965635" lon="12.189825470850137"><ele>73.0</ele><time>2026-04-04T10:48:37.001Z</time></trkpt><trkpt lat="44.03687509291227" lon="12.189943338377331"><ele>73.0</ele><time>2026-04-04T10:48:38.001Z</time></trkpt><trkpt lat="44.036683525421736" lon="12.190066206930723"><ele>73.0</ele><time>2026-04-04T10:48:39.001Z</time></trkpt><trkpt lat="44.03649486371771" lon="12.190198887922064"><ele>73.0</ele><time>2026-04-04T10:48:40.001Z</time></trkpt><trkpt lat="44.03631140693746" lon="12.190339678999345"><ele>72.66666666666666</ele><time>2026-04-04T10:48:41.001Z</time></trkpt><trkpt lat="44.03612952666112" lon="12.190484223788062"><ele>72.33333333333333</ele><time>2026-04-04T10:48:42.001Z</time></trkpt><trkpt lat="44.035949968543186" lon="12.190632842961692"><ele>72.0</ele><time>2026-04-04T10:48:43.001Z</time></trkpt><trkpt lat="44.03577431267899" lon="12.190786798917037"><ele>71.66666666666667</ele><time>2026-04-04T10:48:44.001Z</time></trkpt><trkpt lat="44.03560024310919" lon="12.190948087923363"><ele>71.33333333333334</ele><time>2026-04-04T10:48:45.001Z</time></trkpt><trkpt lat="44.035431728381575" lon="12.191112537393103"><ele>71.0</ele><time>2026-04-04T10:48:46.001Z</time></trkpt><trkpt lat="44.0352628352997" lon="12.191283634724973"><ele>71.0</ele><time>2026-04-04T10:48:47.001Z</time></trkpt><trkpt lat="44.03509735607559" lon="12.191459239563088"><ele>71.0</ele><time>2026-04-04T10:48:48.001Z</time></trkpt><trkpt lat="44.03493526258318" lon="12.191637670717633"><ele>71.0</ele><time>2026-04-04T10:48:49.001Z</time></trkpt><trkpt lat="44.034775128124906" lon="12.191819354209924"><ele>70.66666666666667</ele><time>2026-04-04T10:48:50.001Z</time></trkpt><trkpt lat="44.03461542794122" lon="12.192002060841666"><ele>70.33333333333333</ele><time>2026-04-04T10:48:51.001Z</time></trkpt><trkpt lat="44.03445232835959" lon="12.19218065152791"><ele>70.0</ele><time>2026-04-04T10:48:52.001Z</time></trkpt><trkpt lat="44.034288782696635" lon="12.192356812502029"><ele>70.66666666666666</ele><time>2026-04-04T10:48:53.001Z</time></trkpt><trkpt lat="44.03412697660065" lon="12.19253850011791"><ele>71.33333333333333</ele><time>2026-04-04T10:48:54.001Z</time></trkpt><trkpt lat="44.033963571087014" lon="12.192714441472774"><ele>72.0</ele><time>2026-04-04T10:48:55.001Z</time></trkpt><trkpt lat="44.03380179052567" lon="12.192891687347315"><ele>72.0</ele><time>2026-04-04T10:48:56.001Z</time></trkpt><trkpt lat="44.0336417277267" lon="12.193063732772922"><ele>72.0</ele><time>2026-04-04T10:48:57.001Z</time></trkpt><trkpt lat="44.033484713420876" lon="12.193241350782301"><ele>72.0</ele><time>2026-04-04T10:48:58.001Z</time></trkpt><trkpt lat="44.03332776854747" lon="12.193416340420802"><ele>72.33333333333333</ele><time>2026-04-04T10:48:59.001Z</time></trkpt><trkpt lat="44.03316970916834" lon="12.193590941172621"><ele>72.66666666666666</ele><time>2026-04-04T10:49:00.001Z</time></trkpt><trkpt lat="44.033010843207435" lon="12.193759367503409"><ele>73.0</ele><time>2026-04-04T10:49:01.001Z</time></trkpt><trkpt lat="44.032857538362165" lon="12.193933180882748"><ele>73.0</ele><time>2026-04-04T10:49:02.001Z</time></trkpt><trkpt lat="44.03269836461483" lon="12.194108194170994"><ele>73.0</ele><time>2026-04-04T10:49:03.001Z</time></trkpt><trkpt lat="44.03254173202185" lon="12.194283293930585"><ele>73.0</ele><time>2026-04-04T10:49:04.001Z</time></trkpt><trkpt lat="44.0323857335478" lon="12.194457894534377"><ele>77.0</ele><time>2026-04-04T10:49:05.001Z</time></trkpt><trkpt lat="44.03223109527512" lon="12.194630611500987"><ele>81.0</ele><time>2026-04-04T10:49:06.001Z</time></trkpt><trkpt lat="44.032076398586675" lon="12.194803519031469"><ele>85.0</ele><time>2026-04-04T10:49:07.001Z</time></trkpt><trkpt lat="44.031919280386475" lon="12.19498093517833"><ele>85.0</ele><time>2026-04-04T10:49:08.001Z</time></trkpt><trkpt lat="44.03176107371874" lon="12.195155521526024"><ele>85.0</ele><time>2026-04-04T10:49:09.001Z</time></trkpt><trkpt lat="44.03160340560339" lon="12.19532956937393"><ele>85.0</ele><time>2026-04-04T10:49:10.001Z</time></trkpt><trkpt lat="44.03144447222178" lon="12.195508456625403"><ele>85.66666666666666</ele><time>2026-04-04T10:49:11.001Z</time></trkpt><trkpt lat="44.03128689510511" lon="12.19568416430513"><ele>86.33333333333333</ele><time>2026-04-04T10:49:12.001Z</time></trkpt><trkpt lat="44.0311295642654" lon="12.195861934344242"><ele>87.0</ele><time>2026-04-04T10:49:13.001Z</time></trkpt><trkpt lat="44.03097260715117" lon="12.196039477507744"><ele>87.0</ele><time>2026-04-04T10:49:14.001Z</time></trkpt><trkpt lat="44.03080992896039" lon="12.19621916586053"><ele>87.0</ele><time>2026-04-04T10:49:15.001Z</time></trkpt><trkpt lat="44.03065012232747" lon="12.196391925853206"><ele>87.0</ele><time>2026-04-04T10:49:16.001Z</time></trkpt><trkpt lat="44.030488826657574" lon="12.196568069571738"><ele>84.66666666666667</ele><time>2026-04-04T10:49:17.001Z</time></trkpt><trkpt lat="44.03032664163642" lon="12.19674374029566"><ele>82.33333333333334</ele><time>2026-04-04T10:49:18.001Z</time></trkpt><trkpt lat="44.03016707678808" lon="12.196921786300582"><ele>80.0</ele><time>2026-04-04T10:49:19.001Z</time></trkpt><trkpt lat="44.03000818511037" lon="12.197100713587751"><ele>81.0</ele><time>2026-04-04T10:49:20.001Z</time></trkpt><trkpt lat="44.02984841399371" lon="12.197274297516246"><ele>82.0</ele><time>2026-04-04T10:49:21.001Z</time></trkpt><trkpt lat="44.02968795938347" lon="12.197451458871146"><ele>83.0</ele><time>2026-04-04T10:49:22.001Z</time></trkpt><trkpt lat="44.02952797018432" lon="12.197629560616617"><ele>82.0</ele><time>2026-04-04T10:49:23.001Z</time></trkpt><trkpt lat="44.029368147544126" lon="12.197806868622925"><ele>81.0</ele><time>2026-04-04T10:49:24.001Z</time></trkpt><trkpt lat="44.029208354360705" lon="12.19798314173728"><ele>80.0</ele><time>2026-04-04T10:49:25.001Z</time></trkpt><trkpt lat="44.02904560022471" lon="12.198161175921376"><ele>78.0</ele><time>2026-04-04T10:49:26.001Z</time></trkpt><trkpt lat="44.028884181036844" lon="12.198339748275332"><ele>76.0</ele><time>2026-04-04T10:49:27.001Z</time></trkpt><trkpt lat="44.0287234102189" lon="12.198524124599468"><ele>74.0</ele><time>2026-04-04T10:49:28.001Z</time></trkpt><trkpt lat="44.02856244078472" lon="12.198703584543475"><ele>74.0</ele><time>2026-04-04T10:49:29.001Z</time></trkpt><trkpt lat="44.028401088900665" lon="12.19888404047723"><ele>74.0</ele><time>2026-04-04T10:49:30.001Z</time></trkpt><trkpt lat="44.02824092207013" lon="12.199061797735057"><ele>74.0</ele><time>2026-04-04T10:49:31.001Z</time></trkpt><trkpt lat="44.02807958416398" lon="12.199239470374968"><ele>74.33333333333334</ele><time>2026-04-04T10:49:32.001Z</time></trkpt><trkpt lat="44.02791879606048" lon="12.19941629803214"><ele>74.66666666666667</ele><time>2026-04-04T10:49:33.001Z</time></trkpt><trkpt lat="44.02776068555642" lon="12.19959236124012"><ele>75.0</ele><time>2026-04-04T10:49:34.001Z</time></trkpt><trkpt lat="44.02760417013306" lon="12.199765333718156"><ele>75.66666666666667</ele><time>2026-04-04T10:49:35.001Z</time></trkpt><trkpt lat="44.02744604423173" lon="12.199939714439587"><ele>76.33333333333334</ele><time>2026-04-04T10:49:36.001Z</time></trkpt><trkpt lat="44.027286877049164" lon="12.20011100922276"><ele>77.0</ele><time>2026-04-04T10:49:37.001Z</time></trkpt><trkpt lat="44.02712798510496" lon="12.200277537476124"><ele>77.0</ele><time>2026-04-04T10:49:38.001Z</time></trkpt><trkpt lat="44.02696666665439" lon="12.200438946564859"><ele>77.0</ele><time>2026-04-04T10:49:39.001Z</time></trkpt><trkpt lat="44.02680290003905" lon="12.200595044876366"><ele>77.0</ele><time>2026-04-04T10:49:40.001Z</time></trkpt><trkpt lat="44.02663671972862" lon="12.200746689942541"><ele>77.0</ele><time>2026-04-04T10:49:41Z</time></trkpt><trkpt lat="44.026466712026945" lon="12.200894915500136"><ele>77.0</ele><time>2026-04-04T10:49:42Z</time></trkpt><trkpt lat="44.02629646470775" lon="12.201035619684559"><ele>77.0</ele><time>2026-04-04T10:49:43Z</time></trkpt><trkpt lat="44.026122738762375" lon="12.201171057546192"><ele>77.0</ele><time>2026-04-04T10:49:44Z</time></trkpt><trkpt lat="44.025949161632965" lon="12.201298523842624"><ele>77.0</ele><time>2026-04-04T10:49:45Z</time></trkpt><trkpt lat="44.025773282199644" lon="12.201422143642107"><ele>77.0</ele><time>2026-04-04T10:49:46Z</time></trkpt><trkpt lat="44.02559668809365" lon="12.20154082612483"><ele>78.0</ele><time>2026-04-04T10:49:47Z</time></trkpt><trkpt lat="44.02541919340084" lon="12.201652983702896"><ele>79.0</ele><time>2026-04-04T10:49:48Z</time></trkpt><trkpt lat="44.025237511350184" lon="12.201759236937637"><ele>80.0</ele><time>2026-04-04T10:49:49Z</time></trkpt><trkpt lat="44.02505437428971" lon="12.20185863716618"><ele>80.0</ele><time>2026-04-04T10:49:50Z</time></trkpt><trkpt lat="44.02486914378609" lon="12.201953131175301"><ele>80.0</ele><time>2026-04-04T10:49:51Z</time></trkpt><trkpt lat="44.02468311535922" lon="12.202042039421684"><ele>80.0</ele><time>2026-04-04T10:49:52Z</time></trkpt><trkpt lat="44.02449601094355" lon="12.20212466561989"><ele>80.0</ele><time>2026-04-04T10:49:53Z</time></trkpt><trkpt lat="44.02430878028973" lon="12.202200060358596"><ele>80.0</ele><time>2026-04-04T10:49:54Z</time></trkpt><trkpt lat="44.024121160676316" lon="12.20227291855232"><ele>80.0</ele><time>2026-04-04T10:49:55Z</time></trkpt><trkpt lat="44.0239318442585" lon="12.202342042555896"><ele>81.0</ele><time>2026-04-04T10:49:56Z</time></trkpt><trkpt lat="44.02374129398811" lon="12.20240839576612"><ele>82.0</ele><time>2026-04-04T10:49:57Z</time></trkpt><trkpt lat="44.02355092178611" lon="12.20247666059802"><ele>83.0</ele><time>2026-04-04T10:49:58Z</time></trkpt><trkpt lat="44.023361981602484" lon="12.20254394782161"><ele>84.0</ele><time>2026-04-04T10:49:59Z</time></trkpt><trkpt lat="44.02317430641346" lon="12.202607147206322"><ele>85.0</ele><time>2026-04-04T10:50:00Z</time></trkpt><trkpt lat="44.02298480879681" lon="12.202674366365327"><ele>86.0</ele><time>2026-04-04T10:50:01Z</time></trkpt><trkpt lat="44.022796046896055" lon="12.202741046650031"><ele>86.0</ele><time>2026-04-04T10:50:02Z</time></trkpt><trkpt lat="44.02260726347175" lon="12.202806867167146"><ele>86.0</ele><time>2026-04-04T10:50:03Z</time></trkpt><trkpt lat="44.02241692807792" lon="12.202871756333696"><ele>86.0</ele><time>2026-04-04T10:50:04Z</time></trkpt><trkpt lat="44.02223010957449" lon="12.202942314415235"><ele>86.0</ele><time>2026-04-04T10:50:05Z</time></trkpt><trkpt lat="44.022042848489036" lon="12.203004035177237"><ele>86.0</ele><time>2026-04-04T10:50:06Z</time></trkpt><trkpt lat="44.021855727756666" lon="12.203071179890738"><ele>86.0</ele><time>2026-04-04T10:50:07Z</time></trkpt><trkpt lat="44.02166767387748" lon="12.20313714104984"><ele>87.0</ele><time>2026-04-04T10:50:08Z</time></trkpt><trkpt lat="44.0214799851374" lon="12.203204660325598"><ele>88.0</ele><time>2026-04-04T10:50:09Z</time></trkpt><trkpt lat="44.021293036366906" lon="12.203275430578126"><ele>89.0</ele><time>2026-04-04T10:50:10Z</time></trkpt><trkpt lat="44.02110504739153" lon="12.203344814913063"><ele>89.0</ele><time>2026-04-04T10:50:11Z</time></trkpt><trkpt lat="44.02091691515746" lon="12.203412628145495"><ele>89.0</ele><time>2026-04-04T10:50:12Z</time></trkpt><trkpt lat="44.020724963672635" lon="12.203482594937434"><ele>89.0</ele><time>2026-04-04T10:50:13Z</time></trkpt><trkpt lat="44.02052914527584" lon="12.203549713878072"><ele>88.33333333333334</ele><time>2026-04-04T10:50:14Z</time></trkpt><trkpt lat="44.02033526974774" lon="12.203622344796628"><ele>87.66666666666667</ele><time>2026-04-04T10:50:15Z</time></trkpt><trkpt lat="44.02013536074362" lon="12.203690614510263"><ele>87.0</ele><time>2026-04-04T10:50:16Z</time></trkpt><trkpt lat="44.019934754364485" lon="12.203761133158688"><ele>87.0</ele><time>2026-04-04T10:50:17Z</time></trkpt><trkpt lat="44.01973251911314" lon="12.203831236642738"><ele>87.0</ele><time>2026-04-04T10:50:18Z</time></trkpt><trkpt lat="44.01953042498887" lon="12.20390158165923"><ele>87.0</ele><time>2026-04-04T10:50:19Z</time></trkpt><trkpt lat="44.0193269626921" lon="12.203974428126434"><ele>87.0</ele><time>2026-04-04T10:50:20Z</time></trkpt><trkpt lat="44.019125272221025" lon="12.204048266511741"><ele>87.0</ele><time>2026-04-04T10:50:21Z</time></trkpt><trkpt lat="44.01892525255436" lon="12.204119241150023"><ele>87.0</ele><time>2026-04-04T10:50:22Z</time></trkpt><trkpt lat="44.0187265661758" lon="12.204192061548895"><ele>87.0</ele><time>2026-04-04T10:50:23Z</time></trkpt><trkpt lat="44.018524560239264" lon="12.20426647276808"><ele>87.0</ele><time>2026-04-04T10:50:24Z</time></trkpt><trkpt lat="44.01832090571412" lon="12.204331931226806"><ele>87.0</ele><time>2026-04-04T10:50:25Z</time></trkpt><trkpt lat="44.018118303129675" lon="12.204398433639621"><ele>85.66666666666667</ele><time>2026-04-04T10:50:26.001Z</time></trkpt><trkpt lat="44.01791707895546" lon="12.204468416779283"><ele>84.33333333333334</ele><time>2026-04-04T10:50:27.001Z</time></trkpt><trkpt lat="44.01771736442888" lon="12.204528317620452"><ele>83.0</ele><time>2026-04-04T10:50:28.001Z</time></trkpt><trkpt lat="44.01751507051872" lon="12.204584396881245"><ele>83.33333333333334</ele><time>2026-04-04T10:50:29.001Z</time></trkpt><trkpt lat="44.01731290468503" lon="12.204627895894497"><ele>83.66666666666667</ele><time>2026-04-04T10:50:30.001Z</time></trkpt><trkpt lat="44.01711099371383" lon="12.204655567129699"><ele>84.0</ele><time>2026-04-04T10:50:31.001Z</time></trkpt><trkpt lat="44.01690954270435" lon="12.204675841730504"><ele>84.0</ele><time>2026-04-04T10:50:32.001Z</time></trkpt><trkpt lat="44.01671175586105" lon="12.20468363931852"><ele>84.0</ele><time>2026-04-04T10:50:33.001Z</time></trkpt><trkpt lat="44.01651947735638" lon="12.204677620149498"><ele>84.0</ele><time>2026-04-04T10:50:34.001Z</time></trkpt><trkpt lat="44.01633224258158" lon="12.204667287057964"><ele>84.66666666666667</ele><time>2026-04-04T10:50:35.001Z</time></trkpt><trkpt lat="44.01615590648461" lon="12.204647342211885"><ele>85.33333333333334</ele><time>2026-04-04T10:50:36.001Z</time></trkpt><trkpt lat="44.01599064563416" lon="12.204620672111428"><ele>86.0</ele><time>2026-04-04T10:50:37.001Z</time></trkpt><trkpt lat="44.015836177001574" lon="12.204585950191378"><ele>86.0</ele><time>2026-04-04T10:50:38.001Z</time></trkpt><trkpt lat="44.015695314970465" lon="12.204548013419783"><ele>86.0</ele><time>2026-04-04T10:50:39.001Z</time></trkpt><trkpt lat="44.015569632338305" lon="12.204508318954163"><ele>86.0</ele><time>2026-04-04T10:50:40.001Z</time></trkpt><trkpt lat="44.015446413840856" lon="12.204457075127117"><ele>86.0</ele><time>2026-04-04T10:50:41.001Z</time></trkpt><trkpt lat="44.01534447435196" lon="12.204405507470621"><ele>86.0</ele><time>2026-04-04T10:50:42.001Z</time></trkpt><trkpt lat="44.01525580720655" lon="12.204363089777651"><ele>86.0</ele><time>2026-04-04T10:50:43.001Z</time></trkpt><trkpt lat="44.015183357330855" lon="12.204337038995849"><ele>86.0</ele><time>2026-04-04T10:50:44.001Z</time></trkpt><trkpt lat="44.01505571916542" lon="12.20433904675657"><ele>86.0</ele><time>2026-04-04T10:50:46.001Z</time></trkpt><trkpt lat="44.01497190999914" lon="12.20444579737567"><ele>86.0</ele><time>2026-04-04T10:50:48.001Z</time></trkpt><trkpt lat="44.01495033067619" lon="12.204533571502953"><ele>86.0</ele><time>2026-04-04T10:50:49.001Z</time></trkpt><trkpt lat="44.01493538185515" lon="12.20463239975797"><ele>86.0</ele><time>2026-04-04T10:50:50.001Z</time></trkpt><trkpt lat="44.01492414535084" lon="12.204736955938476"><ele>86.0</ele><time>2026-04-04T10:50:51.001Z</time></trkpt><trkpt lat="44.014902585402105" lon="12.20486360259099"><ele>86.0</ele><time>2026-04-04T10:50:52.001Z</time></trkpt><trkpt lat="44.014881811810355" lon="12.204966788895305"><ele>86.0</ele><time>2026-04-04T10:50:53.001Z</time></trkpt><trkpt lat="44.01486471381603" lon="12.205056033156133"><ele>86.0</ele><time>2026-04-04T10:50:54.001Z</time></trkpt><trkpt lat="44.01481706180031" lon="12.205184291861144"><ele>86.19999999999999</ele><time>2026-04-04T10:50:56.001Z</time></trkpt><trkpt lat="44.01471450930667" lon="12.205315701853708"><ele>86.39999999999999</ele><time>2026-04-04T10:50:58.001Z</time></trkpt><trkpt lat="44.01465022925456" lon="12.205380884131657"><ele>86.6</ele><time>2026-04-04T10:50:59.001Z</time></trkpt><trkpt lat="44.01458312099047" lon="12.205448661295758"><ele>86.8</ele><time>2026-04-04T10:51:00.001Z</time></trkpt><trkpt lat="44.01450322433194" lon="12.205507514921488"><ele>87.0</ele><time>2026-04-04T10:51:01.001Z</time></trkpt><trkpt lat="44.014413418934794" lon="12.205539242300333"><ele>87.0</ele><time>2026-04-04T10:51:02.001Z</time></trkpt><trkpt lat="44.014315378114006" lon="12.20554574430793"><ele>87.0</ele><time>2026-04-04T10:51:03.001Z</time></trkpt><trkpt lat="44.014193835524786" lon="12.20553241718253"><ele>87.0</ele><time>2026-04-04T10:51:04.001Z</time></trkpt><trkpt lat="44.0140893969506" lon="12.205504890186367"><ele>87.0</ele><time>2026-04-04T10:51:05.001Z</time></trkpt><trkpt lat="44.0139821749474" lon="12.205471275629138"><ele>87.0</ele><time>2026-04-04T10:51:06.001Z</time></trkpt><trkpt lat="44.01387621647761" lon="12.205434063347871"><ele>87.0</ele><time>2026-04-04T10:51:07.001Z</time></trkpt><trkpt lat="44.013769239928585" lon="12.205401725956085"><ele>87.0</ele><time>2026-04-04T10:51:08.001Z</time></trkpt><trkpt lat="44.01365932006456" lon="12.205363100949672"><ele>87.0</ele><time>2026-04-04T10:51:09.001Z</time></trkpt><trkpt lat="44.013543983257904" lon="12.205311508148124"><ele>87.0</ele><time>2026-04-04T10:51:10.001Z</time></trkpt><trkpt lat="44.01343091963559" lon="12.205256118869453"><ele>87.25</ele><time>2026-04-04T10:51:11.001Z</time></trkpt><trkpt lat="44.01331615385729" lon="12.20520313364934"><ele>87.5</ele><time>2026-04-04T10:51:12.001Z</time></trkpt><trkpt lat="44.01319995642357" lon="12.205147756986513"><ele>87.75</ele><time>2026-04-04T10:51:13.001Z</time></trkpt><trkpt lat="44.01307967803132" lon="12.205096797233708"><ele>88.0</ele><time>2026-04-04T10:51:14.001Z</time></trkpt><trkpt lat="44.01296250334058" lon="12.205040836991678"><ele>88.0</ele><time>2026-04-04T10:51:15.001Z</time></trkpt><trkpt lat="44.012840031080195" lon="12.204984337150725"><ele>88.0</ele><time>2026-04-04T10:51:16.001Z</time></trkpt><trkpt lat="44.01271323845601" lon="12.204930718950752"><ele>88.0</ele><time>2026-04-04T10:51:17.001Z</time></trkpt><trkpt lat="44.012587206204635" lon="12.204876661045697"><ele>88.0</ele><time>2026-04-04T10:51:18.001Z</time></trkpt><trkpt lat="44.01245901944678" lon="12.204819887145375"><ele>88.25</ele><time>2026-04-04T10:51:19.001Z</time></trkpt><trkpt lat="44.01233001531583" lon="12.204764349311189"><ele>88.5</ele><time>2026-04-04T10:51:20.001Z</time></trkpt><trkpt lat="44.01219776786393" lon="12.204706041321193"><ele>88.75</ele><time>2026-04-04T10:51:21.001Z</time></trkpt><trkpt lat="44.0120685954426" lon="12.204651258505342"><ele>89.0</ele><time>2026-04-04T10:51:22.001Z</time></trkpt><trkpt lat="44.01194931298926" lon="12.204594636499069"><ele>89.0</ele><time>2026-04-04T10:51:23.001Z</time></trkpt><trkpt lat="44.01183341395081" lon="12.204539368831295"><ele>89.0</ele><time>2026-04-04T10:51:24.001Z</time></trkpt><trkpt lat="44.01171421180086" lon="12.204488757913069"><ele>89.0</ele><time>2026-04-04T10:51:25.001Z</time></trkpt><trkpt lat="44.011601108715666" lon="12.204440378968796"><ele>89.0</ele><time>2026-04-04T10:51:26.001Z</time></trkpt><trkpt lat="44.01149651217622" lon="12.204397045904422"><ele>89.80000000000001</ele><time>2026-04-04T10:51:27.001Z</time></trkpt><trkpt lat="44.01139728616558" lon="12.20435144304392"><ele>90.60000000000001</ele><time>2026-04-04T10:51:28.001Z</time></trkpt><trkpt lat="44.011316522053235" lon="12.20430674484643"><ele>91.4</ele><time>2026-04-04T10:51:29.001Z</time></trkpt><trkpt lat="44.01123196541769" lon="12.204246179418002"><ele>92.2</ele><time>2026-04-04T10:51:31.001Z</time></trkpt><trkpt lat="44.011139936395175" lon="12.204256895271584"><ele>93.0</ele><time>2026-04-04T10:51:33.001Z</time></trkpt><trkpt lat="44.01104317005963" lon="12.204360883510203"><ele>93.0</ele><time>2026-04-04T10:51:35.001Z</time></trkpt><trkpt lat="44.0109849792492" lon="12.204394682812366"><ele>93.0</ele><time>2026-04-04T10:51:36.001Z</time></trkpt><trkpt lat="44.01086181051318" lon="12.204365030223592"><ele>93.0</ele><time>2026-04-04T10:51:38.001Z</time></trkpt><trkpt lat="44.010793657907996" lon="12.204318937423315"><ele>93.0</ele><time>2026-04-04T10:51:39.001Z</time></trkpt><trkpt lat="44.010728338123286" lon="12.204269464842993"><ele>93.0</ele><time>2026-04-04T10:51:40.001Z</time></trkpt><trkpt lat="44.01065332884471" lon="12.204211198510425"><ele>93.0</ele><time>2026-04-04T10:51:41.001Z</time></trkpt><trkpt lat="44.010574495045276" lon="12.20415410921525"><ele>95.0</ele><time>2026-04-04T10:51:42.001Z</time></trkpt><trkpt lat="44.01048841894656" lon="12.204094726622838"><ele>97.0</ele><time>2026-04-04T10:51:43.001Z</time></trkpt><trkpt lat="44.01039521494394" lon="12.204044847057482"><ele>99.0</ele><time>2026-04-04T10:51:44.001Z</time></trkpt><trkpt lat="44.01030186999909" lon="12.20401322181613"><ele>101.0</ele><time>2026-04-04T10:51:45.001Z</time></trkpt><trkpt lat="44.01020929846603" lon="12.20399928097532"><ele>103.0</ele><time>2026-04-04T10:51:46.002Z</time></trkpt><trkpt lat="44.01011871917699" lon="12.203999971199393"><ele>103.0</ele><time>2026-04-04T10:51:47Z</time></trkpt><trkpt lat="44.010027198317154" lon="12.204024445701593"><ele>103.0</ele><time>2026-04-04T10:51:48Z</time></trkpt><trkpt lat="44.00993461869771" lon="12.204052744993543"><ele>103.0</ele><time>2026-04-04T10:51:49Z</time></trkpt><trkpt lat="44.00983062251925" lon="12.204069859095355"><ele>103.0</ele><time>2026-04-04T10:51:50Z</time></trkpt><trkpt lat="44.00973736848269" lon="12.20409308269309"><ele>103.0</ele><time>2026-04-04T10:51:51Z</time></trkpt><trkpt lat="44.009644523257336" lon="12.204119422352782"><ele>103.33333333333334</ele><time>2026-04-04T10:51:52Z</time></trkpt><trkpt lat="44.00955731958947" lon="12.204145691668117"><ele>103.66666666666667</ele><time>2026-04-04T10:51:53Z</time></trkpt><trkpt lat="44.00947190473808" lon="12.204164323960775"><ele>104.0</ele><time>2026-04-04T10:51:54Z</time></trkpt><trkpt lat="44.00939482038885" lon="12.204175546253358"><ele>104.33333333333334</ele><time>2026-04-04T10:51:55Z</time></trkpt><trkpt lat="44.00932719691865" lon="12.204189494613944"><ele>104.66666666666667</ele><time>2026-04-04T10:51:56Z</time></trkpt><trkpt lat="44.0092363784355" lon="12.204205772034443"><ele>105.0</ele><time>2026-04-04T10:51:58Z</time></trkpt><trkpt lat="44.009159985474525" lon="12.204190877860459"><ele>103.66666666666667</ele><time>2026-04-04T10:52:01Z</time></trkpt><trkpt lat="44.00906145682756" lon="12.204179988739382"><ele>102.33333333333334</ele><time>2026-04-04T10:53:33.001Z</time></trkpt><trkpt lat="44.00899579003949" lon="12.204177823534224"><ele>101.0</ele><time>2026-04-04T10:53:34.001Z</time></trkpt><trkpt lat="44.00892142853938" lon="12.204166834149799"><ele>99.66666666666667</ele><time>2026-04-04T10:53:35.001Z</time></trkpt><trkpt lat="44.00884597940618" lon="12.204191331875894"><ele>98.33333333333334</ele><time>2026-04-04T10:53:36.001Z</time></trkpt><trkpt lat="44.00877958305334" lon="12.204244325537049"><ele>97.0</ele><time>2026-04-04T10:53:37.001Z</time></trkpt><trkpt lat="44.00874589239947" lon="12.204332382300903"><ele>97.0</ele><time>2026-04-04T10:53:38.001Z</time></trkpt><trkpt lat="44.00873519204246" lon="12.204472423919082"><ele>97.0</ele><time>2026-04-04T10:53:39.001Z</time></trkpt><trkpt lat="44.008763759009085" lon="12.204625070996117"><ele>97.0</ele><time>2026-04-04T10:53:40.001Z</time></trkpt><trkpt lat="44.00881188728827" lon="12.20478509348656"><ele>97.0</ele><time>2026-04-04T10:53:41.001Z</time></trkpt><trkpt lat="44.00885884788569" lon="12.204959346306817"><ele>99.75</ele><time>2026-04-04T10:53:42.001Z</time></trkpt><trkpt lat="44.00891417631262" lon="12.205138333283472"><ele>102.5</ele><time>2026-04-04T10:53:43.001Z</time></trkpt><trkpt lat="44.008967795338734" lon="12.20532117626405"><ele>105.25</ele><time>2026-04-04T10:53:44.001Z</time></trkpt><trkpt lat="44.00899570700733" lon="12.20550464778231"><ele>108.0</ele><time>2026-04-04T10:53:45.001Z</time></trkpt><trkpt lat="44.009019208410635" lon="12.205719775804528"><ele>109.4</ele><time>2026-04-04T10:53:46.001Z</time></trkpt><trkpt lat="44.0089895461898" lon="12.20590136629267"><ele>110.80000000000001</ele><time>2026-04-04T10:53:47.001Z</time></trkpt><trkpt lat="44.008969190006155" lon="12.206046744115058"><ele>112.2</ele><time>2026-04-04T10:53:48.001Z</time></trkpt><trkpt lat="44.00898207595254" lon="12.206143354617353"><ele>113.6</ele><time>2026-04-04T10:53:49.001Z</time></trkpt><trkpt lat="44.00905075862" lon="12.20620056072928"><ele>115.0</ele><time>2026-04-04T10:53:50.001Z</time></trkpt><trkpt lat="44.009130351613706" lon="12.206203969467587"><ele>115.25</ele><time>2026-04-04T10:53:51.001Z</time></trkpt><trkpt lat="44.00919248019636" lon="12.206092267281619"><ele>115.5</ele><time>2026-04-04T10:53:52.001Z</time></trkpt><trkpt lat="44.00922256633891" lon="12.205930101887413"><ele>115.75</ele><time>2026-04-04T10:53:53Z</time></trkpt><trkpt lat="44.00922752042819" lon="12.205743059213457"><ele>116.0</ele><time>2026-04-04T10:53:54Z</time></trkpt><trkpt lat="44.00923807487134" lon="12.205549533122362"><ele>115.99999999999999</ele><time>2026-04-04T10:53:55Z</time></trkpt><trkpt lat="44.00927996016599" lon="12.205420201581662"><ele>116.0</ele><time>2026-04-04T10:53:56Z</time></trkpt><trkpt lat="44.00934951650014" lon="12.205350313664189"><ele>116.0</ele><time>2026-04-04T10:53:57Z</time></trkpt><trkpt lat="44.00942288265048" lon="12.20536563548272"><ele>116.0</ele><time>2026-04-04T10:53:58Z</time></trkpt><trkpt lat="44.00946372515712" lon="12.205488462355072"><ele>115.99999999999999</ele><time>2026-04-04T10:53:59Z</time></trkpt><trkpt lat="44.00947287707774" lon="12.205603684553893"><ele>116.0</ele><time>2026-04-04T10:54:00Z</time></trkpt><trkpt lat="44.009437557663475" lon="12.205755554733015"><ele>118.25</ele><time>2026-04-04T10:54:01Z</time></trkpt><trkpt lat="44.009393629898504" lon="12.205918215379368"><ele>120.5</ele><time>2026-04-04T10:54:02Z</time></trkpt><trkpt lat="44.00942060971355" lon="12.206112963574022"><ele>122.75</ele><time>2026-04-04T10:54:03Z</time></trkpt><trkpt lat="44.00946875799032" lon="12.206344670691584"><ele>125.0</ele><time>2026-04-04T10:54:04Z</time></trkpt><trkpt lat="44.009526773310114" lon="12.206571514966797"><ele>126.33333333333333</ele><time>2026-04-04T10:54:05Z</time></trkpt><trkpt lat="44.009528042667334" lon="12.20682949606714"><ele>127.66666666666666</ele><time>2026-04-04T10:54:06Z</time></trkpt><trkpt lat="44.009513432867635" lon="12.207114353045283"><ele>129.0</ele><time>2026-04-04T10:54:07Z</time></trkpt><trkpt lat="44.009546211493685" lon="12.207377409542426"><ele>132.0</ele><time>2026-04-04T10:54:08Z</time></trkpt><trkpt lat="44.009580617974336" lon="12.207635682827942"><ele>135.0</ele><time>2026-04-04T10:54:09Z</time></trkpt><trkpt lat="44.00954896680144" lon="12.207864215937931"><ele>138.0</ele><time>2026-04-04T10:54:10Z</time></trkpt><trkpt lat="44.00952790430538" lon="12.208052789819087"><ele>139.4</ele><time>2026-04-04T10:54:11Z</time></trkpt><trkpt lat="44.00952008298467" lon="12.208200264397522"><ele>140.8</ele><time>2026-04-04T10:54:12Z</time></trkpt><trkpt lat="44.00953280732048" lon="12.208300265812564"><ele>142.2</ele><time>2026-04-04T10:54:13Z</time></trkpt><trkpt lat="44.009597899579" lon="12.208368332410434"><ele>143.6</ele><time>2026-04-04T10:54:14Z</time></trkpt><trkpt lat="44.00968738600606" lon="12.208355762999451"><ele>145.0</ele><time>2026-04-04T10:54:15Z</time></trkpt><trkpt lat="44.00977429801723" lon="12.208271875114347"><ele>142.66666666666669</ele><time>2026-04-04T10:54:16Z</time></trkpt><trkpt lat="44.00983088309218" lon="12.20809733765637"><ele>140.33333333333334</ele><time>2026-04-04T10:54:17Z</time></trkpt><trkpt lat="44.00988689783619" lon="12.207883627344948"><ele>138.0</ele><time>2026-04-04T10:54:18Z</time></trkpt><trkpt lat="44.00997371631582" lon="12.207667545209347"><ele>138.0</ele><time>2026-04-04T10:54:19Z</time></trkpt><trkpt lat="44.01005380958802" lon="12.207486532684555"><ele>138.0</ele><time>2026-04-04T10:54:20Z</time></trkpt><trkpt lat="44.01013420350199" lon="12.207333353946737"><ele>138.0</ele><time>2026-04-04T10:54:21Z</time></trkpt><trkpt lat="44.010219207126525" lon="12.207276824895898"><ele>138.0</ele><time>2026-04-04T10:54:22Z</time></trkpt><trkpt lat="44.01030732328698" lon="12.207294978714843"><ele>138.0</ele><time>2026-04-04T10:54:23Z</time></trkpt><trkpt lat="44.01041249507262" lon="12.207291098306445"><ele>138.0</ele><time>2026-04-04T10:54:24Z</time></trkpt><trkpt lat="44.01048546783603" lon="12.207419498489742"><ele>138.0</ele><time>2026-04-04T10:54:25Z</time></trkpt><trkpt lat="44.01045437623426" lon="12.207589762109208"><ele>138.0</ele><time>2026-04-04T10:54:26Z</time></trkpt><trkpt lat="44.01044996676442" lon="12.207777813488844"><ele>140.0</ele><time>2026-04-04T10:54:27Z</time></trkpt><trkpt lat="44.010464401403205" lon="12.20795928999422"><ele>142.0</ele><time>2026-04-04T10:54:28Z</time></trkpt><trkpt lat="44.010526866581046" lon="12.208132239984735"><ele>144.0</ele><time>2026-04-04T10:54:29Z</time></trkpt><trkpt lat="44.01058976959792" lon="12.208342938242081"><ele>146.0</ele><time>2026-04-04T10:54:30Z</time></trkpt><trkpt lat="44.01053964910323" lon="12.20851788268606"><ele>148.0</ele><time>2026-04-04T10:54:31Z</time></trkpt><trkpt lat="44.01051437257362" lon="12.208726637903728"><ele>150.0</ele><time>2026-04-04T10:54:32Z</time></trkpt><trkpt lat="44.010464806496394" lon="12.20892157371273"><ele>152.0</ele><time>2026-04-04T10:54:33Z</time></trkpt><trkpt lat="44.0104346708566" lon="12.209139702580998"><ele>154.33333333333331</ele><time>2026-04-04T10:54:34Z</time></trkpt><trkpt lat="44.01041147525968" lon="12.209361733310622"><ele>156.66666666666666</ele><time>2026-04-04T10:54:35Z</time></trkpt><trkpt lat="44.01039107031472" lon="12.209602385556586"><ele>159.0</ele><time>2026-04-04T10:54:36Z</time></trkpt><trkpt lat="44.01037983970552" lon="12.209837062388491"><ele>161.0</ele><time>2026-04-04T10:54:37Z</time></trkpt><trkpt lat="44.01037671680921" lon="12.21005279571461"><ele>163.0</ele><time>2026-04-04T10:54:38Z</time></trkpt><trkpt lat="44.010378509327104" lon="12.210257059406052"><ele>165.0</ele><time>2026-04-04T10:54:39Z</time></trkpt><trkpt lat="44.01033921288998" lon="12.210422168258493"><ele>167.0</ele><time>2026-04-04T10:54:40Z</time></trkpt><trkpt lat="44.01027051971032" lon="12.210585847089952"><ele>169.0</ele><time>2026-04-04T10:54:41Z</time></trkpt><trkpt lat="44.01016611020399" lon="12.210709261021368"><ele>171.0</ele><time>2026-04-04T10:54:42Z</time></trkpt><trkpt lat="44.01006174939018" lon="12.21083698873454"><ele>173.0</ele><time>2026-04-04T10:54:43Z</time></trkpt><trkpt lat="44.00998236596975" lon="12.210961474693878"><ele>175.0</ele><time>2026-04-04T10:54:44Z</time></trkpt><trkpt lat="44.009914634817434" lon="12.21107701897284"><ele>175.8</ele><time>2026-04-04T10:54:45Z</time></trkpt><trkpt lat="44.00987019051959" lon="12.21119327696841"><ele>176.6</ele><time>2026-04-04T10:54:46Z</time></trkpt><trkpt lat="44.009847036601585" lon="12.211315970482907"><ele>177.39999999999998</ele><time>2026-04-04T10:54:47Z</time></trkpt><trkpt lat="44.00987257940359" lon="12.21145105446754"><ele>178.2</ele><time>2026-04-04T10:54:48Z</time></trkpt><trkpt lat="44.009953747690666" lon="12.211579633922607"><ele>179.0</ele><time>2026-04-04T10:54:49Z</time></trkpt><trkpt lat="44.0100680556121" lon="12.21167198788571"><ele>180.75</ele><time>2026-04-04T10:54:50Z</time></trkpt><trkpt lat="44.01022187292002" lon="12.21173292590252"><ele>182.5</ele><time>2026-04-04T10:54:51Z</time></trkpt><trkpt lat="44.01035108866356" lon="12.211805044205398"><ele>184.25</ele><time>2026-04-04T10:54:52Z</time></trkpt><trkpt lat="44.010454325857616" lon="12.211870162493813"><ele>186.0</ele><time>2026-04-04T10:54:53Z</time></trkpt><trkpt lat="44.01053959819953" lon="12.211921362796316"><ele>186.0</ele><time>2026-04-04T10:54:54Z</time></trkpt><trkpt lat="44.01060144598694" lon="12.21198660282676"><ele>186.0</ele><time>2026-04-04T10:54:55Z</time></trkpt><trkpt lat="44.01064015218181" lon="12.21210520023417"><ele>186.0</ele><time>2026-04-04T10:54:56Z</time></trkpt><trkpt lat="44.010630747428856" lon="12.212249812426219"><ele>186.0</ele><time>2026-04-04T10:54:57Z</time></trkpt><trkpt lat="44.01055011394953" lon="12.212383633684345"><ele>186.0</ele><time>2026-04-04T10:54:58.001Z</time></trkpt><trkpt lat="44.01046319538415" lon="12.212533113401767"><ele>188.0</ele><time>2026-04-04T10:54:59.001Z</time></trkpt><trkpt lat="44.010369071544474" lon="12.212717663176463"><ele>190.0</ele><time>2026-04-04T10:55:00.001Z</time></trkpt><trkpt lat="44.01026033904809" lon="12.212893971559987"><ele>192.0</ele><time>2026-04-04T10:55:01.001Z</time></trkpt><trkpt lat="44.010163240445785" lon="12.2130852407153"><ele>193.33333333333331</ele><time>2026-04-04T10:55:02.001Z</time></trkpt><trkpt lat="44.01006113417022" lon="12.21328460371285"><ele>194.66666666666666</ele><time>2026-04-04T10:55:03.001Z</time></trkpt><trkpt lat="44.009935878666795" lon="12.213453680626397"><ele>196.0</ele><time>2026-04-04T10:55:04.001Z</time></trkpt><trkpt lat="44.00980134216778" lon="12.213597146699545"><ele>197.0</ele><time>2026-04-04T10:55:05.001Z</time></trkpt><trkpt lat="44.00965517820089" lon="12.213713963351681"><ele>198.0</ele><time>2026-04-04T10:55:06.001Z</time></trkpt><trkpt lat="44.00950696604294" lon="12.21383364341209"><ele>199.0</ele><time>2026-04-04T10:55:07.001Z</time></trkpt><trkpt lat="44.00935159385948" lon="12.213919619053947"><ele>203.0</ele><time>2026-04-04T10:55:08.001Z</time></trkpt><trkpt lat="44.009219735446145" lon="12.214044895748337"><ele>207.0</ele><time>2026-04-04T10:55:09.001Z</time></trkpt><trkpt lat="44.00910458966303" lon="12.214194610817799"><ele>211.0</ele><time>2026-04-04T10:55:10.001Z</time></trkpt><trkpt lat="44.00899285951177" lon="12.214339683140633"><ele>211.25</ele><time>2026-04-04T10:55:11.001Z</time></trkpt><trkpt lat="44.00888575541297" lon="12.21447602970047"><ele>211.5</ele><time>2026-04-04T10:55:12.001Z</time></trkpt><trkpt lat="44.008786727282256" lon="12.214601167890539"><ele>211.75</ele><time>2026-04-04T10:55:13.001Z</time></trkpt><trkpt lat="44.008720514812126" lon="12.214734265045944"><ele>212.0</ele><time>2026-04-04T10:55:14.001Z</time></trkpt><trkpt lat="44.008693103699805" lon="12.214896533338463"><ele>215.75</ele><time>2026-04-04T10:55:15.001Z</time></trkpt><trkpt lat="44.00870536035583" lon="12.215079261016328"><ele>219.5</ele><time>2026-04-04T10:55:16.001Z</time></trkpt><trkpt lat="44.00873409536235" lon="12.215256558286594"><ele>223.25</ele><time>2026-04-04T10:55:17.001Z</time></trkpt><trkpt lat="44.00872726674183" lon="12.215429962038769"><ele>227.0</ele><time>2026-04-04T10:55:18.001Z</time></trkpt><trkpt lat="44.008686830166546" lon="12.215591264894357"><ele>228.5</ele><time>2026-04-04T10:55:19.001Z</time></trkpt><trkpt lat="44.00865167706744" lon="12.215746304610429"><ele>230.0</ele><time>2026-04-04T10:55:20.001Z</time></trkpt><trkpt lat="44.008508327141456" lon="12.215891008421378"><ele>231.5</ele><time>2026-04-04T10:55:21.001Z</time></trkpt><trkpt lat="44.00841605974069" lon="12.216049285247909"><ele>233.0</ele><time>2026-04-04T10:55:22.001Z</time></trkpt><trkpt lat="44.00833170329957" lon="12.216209322188309"><ele>234.0</ele><time>2026-04-04T10:55:23.001Z</time></trkpt><trkpt lat="44.00826758884325" lon="12.216379512177216"><ele>235.0</ele><time>2026-04-04T10:55:24.001Z</time></trkpt><trkpt lat="44.0082268638171" lon="12.21655063177018"><ele>236.0</ele><time>2026-04-04T10:55:25.001Z</time></trkpt><trkpt lat="44.0082239751404" lon="12.216703688877935"><ele>237.0</ele><time>2026-04-04T10:55:26.001Z</time></trkpt><trkpt lat="44.008206607012866" lon="12.216830279126555"><ele>238.39999999999998</ele><time>2026-04-04T10:55:27.001Z</time></trkpt><trkpt lat="44.0081370413857" lon="12.216885466885682"><ele>239.79999999999998</ele><time>2026-04-04T10:55:28.001Z</time></trkpt><trkpt lat="44.008040890773486" lon="12.216866816592304"><ele>241.2</ele><time>2026-04-04T10:55:29.001Z</time></trkpt><trkpt lat="44.00797219411642" lon="12.216760840426911"><ele>242.6</ele><time>2026-04-04T10:55:30.001Z</time></trkpt><trkpt lat="44.0078924471182" lon="12.216638135211815"><ele>244.0</ele><time>2026-04-04T10:55:31.001Z</time></trkpt><trkpt lat="44.0078016133045" lon="12.216577427049197"><ele>244.0</ele><time>2026-04-04T10:55:32.001Z</time></trkpt><trkpt lat="44.007727472107455" lon="12.21653729054009"><ele>243.99999999999997</ele><time>2026-04-04T10:55:33.001Z</time></trkpt><trkpt lat="44.00765225744654" lon="12.216625655765695"><ele>243.99999999999997</ele><time>2026-04-04T10:55:34.001Z</time></trkpt><trkpt lat="44.00759995947257" lon="12.216727820445856"><ele>244.0</ele><time>2026-04-04T10:55:35.001Z</time></trkpt><trkpt lat="44.00761793283685" lon="12.216898648923806"><ele>244.0</ele><time>2026-04-04T10:55:36.001Z</time></trkpt><trkpt lat="44.007666025973336" lon="12.217088019045198"><ele>244.0</ele><time>2026-04-04T10:55:37.001Z</time></trkpt><trkpt lat="44.007709286979484" lon="12.217301070592312"><ele>244.0</ele><time>2026-04-04T10:55:38.001Z</time></trkpt><trkpt lat="44.00774888454327" lon="12.217533490188108"><ele>244.0</ele><time>2026-04-04T10:55:39.001Z</time></trkpt><trkpt lat="44.007776847385145" lon="12.217759378587896"><ele>246.5</ele><time>2026-04-04T10:55:40.001Z</time></trkpt><trkpt lat="44.0078057453524" lon="12.21796698072937"><ele>249.0</ele><time>2026-04-04T10:55:41.001Z</time></trkpt><trkpt lat="44.00782750127863" lon="12.218166149906018"><ele>251.5</ele><time>2026-04-04T10:55:42.001Z</time></trkpt><trkpt lat="44.007805425182724" lon="12.218372543117107"><ele>254.0</ele><time>2026-04-04T10:55:43.001Z</time></trkpt><trkpt lat="44.00777222949117" lon="12.218585506335925"><ele>255.25</ele><time>2026-04-04T10:55:44.001Z</time></trkpt><trkpt lat="44.007743422393204" lon="12.218801241471924"><ele>256.5</ele><time>2026-04-04T10:55:45.001Z</time></trkpt><trkpt lat="44.00770760281781" lon="12.218980654809325"><ele>257.75</ele><time>2026-04-04T10:55:46.001Z</time></trkpt><trkpt lat="44.00766288132815" lon="12.2191203948906"><ele>259.0</ele><time>2026-04-04T10:55:47.001Z</time></trkpt><trkpt lat="44.007629844874" lon="12.219234171564608"><ele>259.0</ele><time>2026-04-04T10:55:48.001Z</time></trkpt><trkpt lat="44.007582701322896" lon="12.21934095440612"><ele>259.0</ele><time>2026-04-04T10:55:49.001Z</time></trkpt><trkpt lat="44.00749725375389" lon="12.219404117442263"><ele>259.0</ele><time>2026-04-04T10:55:50.001Z</time></trkpt><trkpt lat="44.00739333499905" lon="12.219515590025184"><ele>259.0</ele><time>2026-04-04T10:55:51.001Z</time></trkpt><trkpt lat="44.00728202435707" lon="12.219603504631786"><ele>259.0</ele><time>2026-04-04T10:55:52.001Z</time></trkpt><trkpt lat="44.00719806443176" lon="12.219765458642794"><ele>257.0</ele><time>2026-04-04T10:55:53.001Z</time></trkpt><trkpt lat="44.007130976924714" lon="12.219955715163627"><ele>255.0</ele><time>2026-04-04T10:55:54.001Z</time></trkpt><trkpt lat="44.00707111319451" lon="12.220169815282786"><ele>253.0</ele><time>2026-04-04T10:55:55.001Z</time></trkpt><trkpt lat="44.00700951522075" lon="12.220367015783028"><ele>253.0</ele><time>2026-04-04T10:55:56.001Z</time></trkpt><trkpt lat="44.00691739292007" lon="12.220543222507668"><ele>253.0</ele><time>2026-04-04T10:55:57.001Z</time></trkpt><trkpt lat="44.00681974775229" lon="12.220706125270247"><ele>253.0</ele><time>2026-04-04T10:55:58.001Z</time></trkpt><trkpt lat="44.00672405092192" lon="12.220871735499733"><ele>250.33333333333331</ele><time>2026-04-04T10:55:59Z</time></trkpt><trkpt lat="44.006633531872914" lon="12.221049081130413"><ele>247.66666666666669</ele><time>2026-04-04T10:56:00Z</time></trkpt><trkpt lat="44.00655039289847" lon="12.221236568055787"><ele>245.0</ele><time>2026-04-04T10:56:01Z</time></trkpt><trkpt lat="44.00646326220166" lon="12.221379863953274"><ele>248.25</ele><time>2026-04-04T10:56:02Z</time></trkpt><trkpt lat="44.006380403994115" lon="12.22153155324173"><ele>251.5</ele><time>2026-04-04T10:56:03Z</time></trkpt><trkpt lat="44.00626715765472" lon="12.2216053951708"><ele>254.75</ele><time>2026-04-04T10:56:04Z</time></trkpt><trkpt lat="44.00614735800581" lon="12.221644392290932"><ele>258.0</ele><time>2026-04-04T10:56:05Z</time></trkpt><trkpt lat="44.006041726076546" lon="12.221691016052956"><ele>258.0</ele><time>2026-04-04T10:56:06Z</time></trkpt><trkpt lat="44.005952369095894" lon="12.221774954620747"><ele>258.0</ele><time>2026-04-04T10:56:07Z</time></trkpt><trkpt lat="44.00588324071905" lon="12.221903811986115"><ele>258.0</ele><time>2026-04-04T10:56:08Z</time></trkpt><trkpt lat="44.005838959999444" lon="12.22206179241416"><ele>258.0</ele><time>2026-04-04T10:56:09Z</time></trkpt><trkpt lat="44.00582488285691" lon="12.222243122602796"><ele>258.0</ele><time>2026-04-04T10:56:10Z</time></trkpt><trkpt lat="44.00583763945214" lon="12.222434398429098"><ele>258.0</ele><time>2026-04-04T10:56:11Z</time></trkpt><trkpt lat="44.00586776747222" lon="12.22261761037691"><ele>258.0</ele><time>2026-04-04T10:56:12Z</time></trkpt><trkpt lat="44.00589628898303" lon="12.222780408817966"><ele>258.0</ele><time>2026-04-04T10:56:13Z</time></trkpt><trkpt lat="44.005927299494346" lon="12.22292883523533"><ele>258.0</ele><time>2026-04-04T10:56:14Z</time></trkpt><trkpt lat="44.00597688232301" lon="12.223065866612357"><ele>258.0</ele><time>2026-04-04T10:56:15Z</time></trkpt><trkpt lat="44.00605303268506" lon="12.223183785781991"><ele>258.0</ele><time>2026-04-04T10:56:16Z</time></trkpt><trkpt lat="44.00615101869362" lon="12.223274594995974"><ele>258.0</ele><time>2026-04-04T10:56:17Z</time></trkpt><trkpt lat="44.00623944678406" lon="12.223332718565777"><ele>258.0</ele><time>2026-04-04T10:56:18Z</time></trkpt><trkpt lat="44.00629688129588" lon="12.22341126244443"><ele>255.8</ele><time>2026-04-04T10:56:19Z</time></trkpt><trkpt lat="44.00629704146641" lon="12.223513662860002"><ele>253.60000000000002</ele><time>2026-04-04T10:56:20Z</time></trkpt><trkpt lat="44.00628338358808" lon="12.223643555316345"><ele>251.39999999999998</ele><time>2026-04-04T10:56:21Z</time></trkpt><trkpt lat="44.006212322230205" lon="12.223755564591222"><ele>249.2</ele><time>2026-04-04T10:56:22Z</time></trkpt><trkpt lat="44.00614085434675" lon="12.223871313437327"><ele>247.0</ele><time>2026-04-04T10:56:23Z</time></trkpt><trkpt lat="44.00607157510414" lon="12.224000348871748"><ele>245.75</ele><time>2026-04-04T10:56:24Z</time></trkpt><trkpt lat="44.00602214781557" lon="12.224130701768418"><ele>244.5</ele><time>2026-04-04T10:56:25Z</time></trkpt><trkpt lat="44.005957033827094" lon="12.224266744170215"><ele>243.25</ele><time>2026-04-04T10:56:26Z</time></trkpt><trkpt lat="44.005905618837254" lon="12.22441171580901"><ele>242.0</ele><time>2026-04-04T10:56:27Z</time></trkpt><trkpt lat="44.005871456955646" lon="12.224577104075465"><ele>242.0</ele><time>2026-04-04T10:56:28Z</time></trkpt><trkpt lat="44.0058556299798" lon="12.224753069083457"><ele>242.0</ele><time>2026-04-04T10:56:29Z</time></trkpt><trkpt lat="44.00585627907951" lon="12.22493176054775"><ele>242.0</ele><time>2026-04-04T10:56:30Z</time></trkpt><trkpt lat="44.005868024393266" lon="12.225120091861218"><ele>242.0</ele><time>2026-04-04T10:56:31Z</time></trkpt><trkpt lat="44.00588848722132" lon="12.22531144922038"><ele>242.0</ele><time>2026-04-04T10:56:32Z</time></trkpt><trkpt lat="44.005900949543005" lon="12.225508433421803"><ele>242.0</ele><time>2026-04-04T10:56:33Z</time></trkpt><trkpt lat="44.005911778877625" lon="12.225708235603843"><ele>242.0</ele><time>2026-04-04T10:56:34Z</time></trkpt><trkpt lat="44.005917659518396" lon="12.22592543310972"><ele>242.0</ele><time>2026-04-04T10:56:35Z</time></trkpt><trkpt lat="44.00589447585003" lon="12.226134037831535"><ele>242.0</ele><time>2026-04-04T10:56:36Z</time></trkpt><trkpt lat="44.00585716009412" lon="12.226342980233698"><ele>242.0</ele><time>2026-04-04T10:56:37Z</time></trkpt><trkpt lat="44.00581158832468" lon="12.226555515884737"><ele>242.0</ele><time>2026-04-04T10:56:38Z</time></trkpt><trkpt lat="44.00576883973545" lon="12.226757179330688"><ele>242.25</ele><time>2026-04-04T10:56:39Z</time></trkpt><trkpt lat="44.005741020461684" lon="12.226960461798438"><ele>242.5</ele><time>2026-04-04T10:56:40Z</time></trkpt><trkpt lat="44.00574227220155" lon="12.227148408036404"><ele>242.75</ele><time>2026-04-04T10:56:41Z</time></trkpt><trkpt lat="44.00577662795966" lon="12.227322559467735"><ele>243.0</ele><time>2026-04-04T10:56:42Z</time></trkpt><trkpt lat="44.005775665938366" lon="12.227494817067992"><ele>245.2</ele><time>2026-04-04T10:56:43Z</time></trkpt><trkpt lat="44.00590118746957" lon="12.227636057696762"><ele>247.4</ele><time>2026-04-04T10:56:44Z</time></trkpt><trkpt lat="44.00596390900027" lon="12.227771099167931"><ele>249.59999999999997</ele><time>2026-04-04T10:56:45Z</time></trkpt><trkpt lat="44.00601331574705" lon="12.227873149449398"><ele>251.79999999999998</ele><time>2026-04-04T10:56:46Z</time></trkpt><trkpt lat="44.00604648988679" lon="12.227976023925079"><ele>254.0</ele><time>2026-04-04T10:56:47Z</time></trkpt><trkpt lat="44.00603526884567" lon="12.228077561315725"><ele>254.39999999999998</ele><time>2026-04-04T10:56:48Z</time></trkpt><trkpt lat="44.00598418263946" lon="12.2281684655082"><ele>254.79999999999998</ele><time>2026-04-04T10:56:49Z</time></trkpt><trkpt lat="44.00590035366009" lon="12.22823261821289"><ele>255.20000000000002</ele><time>2026-04-04T10:56:50Z</time></trkpt><trkpt lat="44.00579653207296" lon="12.228277224038356"><ele>255.60000000000002</ele><time>2026-04-04T10:56:51Z</time></trkpt><trkpt lat="44.0056801615056" lon="12.228315447152726"><ele>256.0</ele><time>2026-04-04T10:56:52Z</time></trkpt><trkpt lat="44.005555315803484" lon="12.22837391250854"><ele>256.5</ele><time>2026-04-04T10:56:53Z</time></trkpt><trkpt lat="44.005433958568915" lon="12.228458044363377"><ele>257.0</ele><time>2026-04-04T10:56:54Z</time></trkpt><trkpt lat="44.00532839673697" lon="12.228570758319984"><ele>257.5</ele><time>2026-04-04T10:56:55.001Z</time></trkpt><trkpt lat="44.00524178283015" lon="12.228682588199035"><ele>258.0</ele><time>2026-04-04T10:56:56.001Z</time></trkpt><trkpt lat="44.00514487978901" lon="12.228751797725666"><ele>258.0</ele><time>2026-04-04T10:56:57.001Z</time></trkpt><trkpt lat="44.00504364382489" lon="12.228762110447121"><ele>258.0</ele><time>2026-04-04T10:56:58.001Z</time></trkpt><trkpt lat="44.00495108765203" lon="12.228710461240308"><ele>258.0</ele><time>2026-04-04T10:56:59.001Z</time></trkpt><trkpt lat="44.00487274098247" lon="12.228612361598652"><ele>258.0</ele><time>2026-04-04T10:57:00.001Z</time></trkpt><trkpt lat="44.00478392830088" lon="12.22852901972607"><ele>258.0</ele><time>2026-04-04T10:57:01.001Z</time></trkpt><trkpt lat="44.00467963151504" lon="12.228488582368934"><ele>257.8</ele><time>2026-04-04T10:57:02.001Z</time></trkpt><trkpt lat="44.00456889856877" lon="12.228484426458397"><ele>257.6</ele><time>2026-04-04T10:57:03.001Z</time></trkpt><trkpt lat="44.00446083900063" lon="12.22851431390322"><ele>257.4</ele><time>2026-04-04T10:57:04.001Z</time></trkpt><trkpt lat="44.00437201061248" lon="12.228564278832124"><ele>257.2</ele><time>2026-04-04T10:57:05.001Z</time></trkpt><trkpt lat="44.00429998279258" lon="12.228627145918605"><ele>257.0</ele><time>2026-04-04T10:57:06.001Z</time></trkpt><trkpt lat="44.0042600965133" lon="12.228703150267002"><ele>257.0</ele><time>2026-04-04T10:57:07.001Z</time></trkpt><trkpt lat="44.00428214271555" lon="12.228857342810393"><ele>257.0</ele><time>2026-04-04T10:57:09.001Z</time></trkpt><trkpt lat="44.00434602658785" lon="12.228897927286877"><ele>257.0</ele><time>2026-04-04T10:57:10.001Z</time></trkpt><trkpt lat="44.00442540537636" lon="12.228889866048792"><ele>257.0</ele><time>2026-04-04T10:57:11.001Z</time></trkpt><trkpt lat="44.00451594521215" lon="12.228869070857305"><ele>257.0</ele><time>2026-04-04T10:57:12.001Z</time></trkpt><trkpt lat="44.00459491279334" lon="12.2288959013198"><ele>257.0</ele><time>2026-04-04T10:57:13.001Z</time></trkpt><trkpt lat="44.004653448619955" lon="12.228981339928296"><ele>261.2</ele><time>2026-04-04T10:57:14.001Z</time></trkpt><trkpt lat="44.004681358503746" lon="12.229103672833594"><ele>265.4</ele><time>2026-04-04T10:57:15.001Z</time></trkpt><trkpt lat="44.00466717559673" lon="12.2292409856033"><ele>269.6</ele><time>2026-04-04T10:57:16.001Z</time></trkpt><trkpt lat="44.00461324755832" lon="12.229366222472361"><ele>273.8</ele><time>2026-04-04T10:57:17.001Z</time></trkpt><trkpt lat="44.00454327166288" lon="12.229478355449114"><ele>278.0</ele><time>2026-04-04T10:57:18.001Z</time></trkpt><trkpt lat="44.004466131320704" lon="12.229589033702826"><ele>278.0</ele><time>2026-04-04T10:57:19.001Z</time></trkpt><trkpt lat="44.00438345989606" lon="12.229694915016658"><ele>278.0</ele><time>2026-04-04T10:57:20.001Z</time></trkpt><trkpt lat="44.004293502283346" lon="12.229788502056932"><ele>278.0</ele><time>2026-04-04T10:57:21.001Z</time></trkpt><trkpt lat="44.00420283020827" lon="12.2298739284177"><ele>278.0</ele><time>2026-04-04T10:57:22.001Z</time></trkpt><trkpt lat="44.004113018381275" lon="12.229956175070484"><ele>278.0</ele><time>2026-04-04T10:57:23.001Z</time></trkpt><trkpt lat="44.00401616965275" lon="12.230051249885973"><ele>279.0</ele><time>2026-04-04T10:57:24.001Z</time></trkpt><trkpt lat="44.00393095700178" lon="12.230157998264144"><ele>280.0</ele><time>2026-04-04T10:57:25.001Z</time></trkpt><trkpt lat="44.00386220771366" lon="12.230275173331446"><ele>281.0</ele><time>2026-04-04T10:57:26.001Z</time></trkpt><trkpt lat="44.003808045933035" lon="12.230407997968152"><ele>282.0</ele><time>2026-04-04T10:57:27.001Z</time></trkpt><trkpt lat="44.00377510825543" lon="12.230561084641533"><ele>283.0</ele><time>2026-04-04T10:57:28.001Z</time></trkpt><trkpt lat="44.00376721298282" lon="12.230724553552275"><ele>287.5</ele><time>2026-04-04T10:57:29.001Z</time></trkpt><trkpt lat="44.003772770618774" lon="12.230893988089198"><ele>292.0</ele><time>2026-04-04T10:57:30.001Z</time></trkpt><trkpt lat="44.00376680800163" lon="12.231056626520706"><ele>296.5</ele><time>2026-04-04T10:57:31.001Z</time></trkpt><trkpt lat="44.00375705514937" lon="12.231202941599904"><ele>301.0</ele><time>2026-04-04T10:57:32.001Z</time></trkpt><trkpt lat="44.003723169314426" lon="12.231340853929256"><ele>301.5</ele><time>2026-04-04T10:57:33.001Z</time></trkpt><trkpt lat="44.003657818404086" lon="12.231484697122346"><ele>302.0</ele><time>2026-04-04T10:57:34.001Z</time></trkpt><trkpt lat="44.0035751819222" lon="12.231649942356666"><ele>302.5</ele><time>2026-04-04T10:57:35.001Z</time></trkpt><trkpt lat="44.00347816871213" lon="12.231841612682647"><ele>303.0</ele><time>2026-04-04T10:57:36.001Z</time></trkpt><trkpt lat="44.00337875464077" lon="12.232058439513349"><ele>297.6666666666667</ele><time>2026-04-04T10:57:37.001Z</time></trkpt><trkpt lat="44.00327027003104" lon="12.232276444900931"><ele>292.33333333333337</ele><time>2026-04-04T10:57:38.001Z</time></trkpt><trkpt lat="44.00316717390921" lon="12.23246947518607"><ele>287.0</ele><time>2026-04-04T10:57:39.001Z</time></trkpt><trkpt lat="44.00307656585039" lon="12.232653813117299"><ele>287.0</ele><time>2026-04-04T10:57:40.001Z</time></trkpt><trkpt lat="44.0030052985719" lon="12.232859707964323"><ele>287.0</ele><time>2026-04-04T10:57:41.001Z</time></trkpt><trkpt lat="44.00295792482903" lon="12.233094396262253"><ele>287.0</ele><time>2026-04-04T10:57:42.001Z</time></trkpt><trkpt lat="44.00293585561108" lon="12.233340348911451"><ele>289.33333333333337</ele><time>2026-04-04T10:57:43.001Z</time></trkpt><trkpt lat="44.00292268461927" lon="12.23356529605204"><ele>291.6666666666667</ele><time>2026-04-04T10:57:44.001Z</time></trkpt><trkpt lat="44.00289554689193" lon="12.233773835918159"><ele>294.0</ele><time>2026-04-04T10:57:45.001Z</time></trkpt><trkpt lat="44.0028556242515" lon="12.233976656385119"><ele>295.0</ele><time>2026-04-04T10:57:46.001Z</time></trkpt><trkpt lat="44.00279253264313" lon="12.23416820258048"><ele>296.0</ele><time>2026-04-04T10:57:47.001Z</time></trkpt><trkpt lat="44.00270821033945" lon="12.234348323210364"><ele>297.0</ele><time>2026-04-04T10:57:48.001Z</time></trkpt><trkpt lat="44.002615195080615" lon="12.23452430957228"><ele>297.0</ele><time>2026-04-04T10:57:49.001Z</time></trkpt><trkpt lat="44.002529062067964" lon="12.23468939688732"><ele>297.0</ele><time>2026-04-04T10:57:50.001Z</time></trkpt><trkpt lat="44.002460603830144" lon="12.234870273312525"><ele>297.0</ele><time>2026-04-04T10:57:51.001Z</time></trkpt><trkpt lat="44.0024116807384" lon="12.235059453981723"><ele>297.0</ele><time>2026-04-04T10:57:52.001Z</time></trkpt><trkpt lat="44.00238402883481" lon="12.235250054162604"><ele>295.0</ele><time>2026-04-04T10:57:53.001Z</time></trkpt><trkpt lat="44.00236720066108" lon="12.23543907564829"><ele>293.0</ele><time>2026-04-04T10:57:54.001Z</time></trkpt><trkpt lat="44.00237240859195" lon="12.23561411326747"><ele>291.0</ele><time>2026-04-04T10:57:55.001Z</time></trkpt><trkpt lat="44.00241026212313" lon="12.23577820571446"><ele>289.0</ele><time>2026-04-04T10:57:56.001Z</time></trkpt><trkpt lat="44.002476500262134" lon="12.235942175772625"><ele>292.75</ele><time>2026-04-04T10:57:57.001Z</time></trkpt><trkpt lat="44.00255376905635" lon="12.236099202137705"><ele>296.5</ele><time>2026-04-04T10:57:58.001Z</time></trkpt><trkpt lat="44.00262953033856" lon="12.236263458251285"><ele>300.25</ele><time>2026-04-04T10:57:59.001Z</time></trkpt><trkpt lat="44.00270354105624" lon="12.236424760373106"><ele>304.0</ele><time>2026-04-04T10:58:00.001Z</time></trkpt><trkpt lat="44.00277064018794" lon="12.236582850608993"><ele>305.59999999999997</ele><time>2026-04-04T10:58:01.001Z</time></trkpt><trkpt lat="44.00283223950807" lon="12.236724511850701"><ele>307.2</ele><time>2026-04-04T10:58:02.001Z</time></trkpt><trkpt lat="44.002891729081746" lon="12.236858763567701"><ele>308.79999999999995</ele><time>2026-04-04T10:58:03.001Z</time></trkpt><trkpt lat="44.00293971879539" lon="12.236991919336937"><ele>310.4</ele><time>2026-04-04T10:58:04.001Z</time></trkpt><trkpt lat="44.00297678174079" lon="12.23712029228906"><ele>312.0</ele><time>2026-04-04T10:58:05Z</time></trkpt><trkpt lat="44.00300625956543" lon="12.237245202960096"><ele>314.2</ele><time>2026-04-04T10:58:06Z</time></trkpt><trkpt lat="44.00301615827265" lon="12.237364125734445"><ele>316.4</ele><time>2026-04-04T10:58:07Z</time></trkpt><trkpt lat="44.0029993318936" lon="12.237486723334024"><ele>318.59999999999997</ele><time>2026-04-04T10:58:08Z</time></trkpt><trkpt lat="44.002975083302616" lon="12.237615587773375"><ele>320.79999999999995</ele><time>2026-04-04T10:58:09Z</time></trkpt><trkpt lat="44.002946598005835" lon="12.237743256476925"><ele>323.0</ele><time>2026-04-04T10:58:10Z</time></trkpt><trkpt lat="44.00290794891392" lon="12.237875386455217"><ele>323.0</ele><time>2026-04-04T10:58:11Z</time></trkpt><trkpt lat="44.00285502531394" lon="12.237997372589598"><ele>323.0</ele><time>2026-04-04T10:58:12Z</time></trkpt><trkpt lat="44.00277953948195" lon="12.238111575436093"><ele>323.0</ele><time>2026-04-04T10:58:13Z</time></trkpt><trkpt lat="44.00268357746665" lon="12.23821765877299"><ele>323.0</ele><time>2026-04-04T10:58:14Z</time></trkpt><trkpt lat="44.00258166487313" lon="12.23831119854749"><ele>322.79999999999995</ele><time>2026-04-04T10:58:15Z</time></trkpt><trkpt lat="44.00248468148668" lon="12.238377648265883"><ele>322.6</ele><time>2026-04-04T10:58:16Z</time></trkpt><trkpt lat="44.0023874482448" lon="12.238417920955783"><ele>322.4</ele><time>2026-04-04T10:58:17Z</time></trkpt><trkpt lat="44.00227850583896" lon="12.238438754028893"><ele>322.20000000000005</ele><time>2026-04-04T10:58:18Z</time></trkpt><trkpt lat="44.00215679266796" lon="12.238426592517728"><ele>322.0</ele><time>2026-04-04T10:58:19Z</time></trkpt><trkpt lat="44.002030057329996" lon="12.238399912697119"><ele>322.0</ele><time>2026-04-04T10:58:20Z</time></trkpt><trkpt lat="44.00190182051698" lon="12.238361916848065"><ele>322.0</ele><time>2026-04-04T10:58:21Z</time></trkpt><trkpt lat="44.00177086355239" lon="12.238307991685845"><ele>322.0</ele><time>2026-04-04T10:58:22Z</time></trkpt><trkpt lat="44.0016553635095" lon="12.238246585227728"><ele>322.0</ele><time>2026-04-04T10:58:23Z</time></trkpt><trkpt lat="44.001560610575794" lon="12.238178031106525"><ele>321.5</ele><time>2026-04-04T10:58:24Z</time></trkpt><trkpt lat="44.00145490394134" lon="12.238138226441935"><ele>321.0</ele><time>2026-04-04T10:58:25Z</time></trkpt><trkpt lat="44.00134218996543" lon="12.238138590149962"><ele>320.5</ele><time>2026-04-04T10:58:26Z</time></trkpt><trkpt lat="44.00121891762157" lon="12.238183437825652"><ele>320.0</ele><time>2026-04-04T10:58:27Z</time></trkpt><trkpt lat="44.00109329704376" lon="12.238264176901342"><ele>320.0</ele><time>2026-04-04T10:58:28Z</time></trkpt><trkpt lat="44.00096258403246" lon="12.238358576577758"><ele>320.0</ele><time>2026-04-04T10:58:29Z</time></trkpt><trkpt lat="44.00083187255294" lon="12.23844580378709"><ele>320.0</ele><time>2026-04-04T10:58:30Z</time></trkpt><trkpt lat="44.00070639273856" lon="12.238548455909736"><ele>320.0</ele><time>2026-04-04T10:58:31Z</time></trkpt><trkpt lat="44.0005836893511" lon="12.238695834474516"><ele>318.0</ele><time>2026-04-04T10:58:32Z</time></trkpt><trkpt lat="44.00046768551956" lon="12.238863912268709"><ele>316.0</ele><time>2026-04-04T10:58:33Z</time></trkpt><trkpt lat="44.00036642750425" lon="12.239030768109387"><ele>314.0</ele><time>2026-04-04T10:58:34Z</time></trkpt><trkpt lat="44.00027628359499" lon="12.239191692140368"><ele>314.0</ele><time>2026-04-04T10:58:35Z</time></trkpt><trkpt lat="44.00019879513653" lon="12.239330596848129"><ele>314.0</ele><time>2026-04-04T10:58:36Z</time></trkpt><trkpt lat="44.0001296033732" lon="12.23945070327957"><ele>314.0</ele><time>2026-04-04T10:58:37Z</time></trkpt><trkpt lat="44.00007155104156" lon="12.239559414530168"><ele>314.0</ele><time>2026-04-04T10:58:38Z</time></trkpt><trkpt lat="43.99999790194925" lon="12.239659891316135"><ele>314.0</ele><time>2026-04-04T10:58:39Z</time></trkpt><trkpt lat="43.99992052573552" lon="12.239764406904541"><ele>315.25</ele><time>2026-04-04T10:58:40Z</time></trkpt><trkpt lat="43.99983398634451" lon="12.23985895702189"><ele>316.5</ele><time>2026-04-04T10:58:41Z</time></trkpt><trkpt lat="43.99972868324445" lon="12.239924796595307"><ele>317.75</ele><time>2026-04-04T10:58:42Z</time></trkpt><trkpt lat="43.999606520623686" lon="12.239962086469145"><ele>319.0</ele><time>2026-04-04T10:58:43Z</time></trkpt><trkpt lat="43.99947712604041" lon="12.239974263612801"><ele>319.0</ele><time>2026-04-04T10:58:44Z</time></trkpt><trkpt lat="43.99935521841882" lon="12.239972283075874"><ele>319.0</ele><time>2026-04-04T10:58:45Z</time></trkpt><trkpt lat="43.999240600852794" lon="12.240015750142199"><ele>319.0</ele><time>2026-04-04T10:58:46Z</time></trkpt><trkpt lat="43.99912658293979" lon="12.240102785259669"><ele>319.0</ele><time>2026-04-04T10:58:47Z</time></trkpt><trkpt lat="43.99903239069115" lon="12.240213818660147"><ele>318.5</ele><time>2026-04-04T10:58:48Z</time></trkpt><trkpt lat="43.998938342159434" lon="12.240346523109828"><ele>318.0</ele><time>2026-04-04T10:58:49Z</time></trkpt><trkpt lat="43.99884719784813" lon="12.240470409686914"><ele>317.5</ele><time>2026-04-04T10:58:50Z</time></trkpt><trkpt lat="43.9987574331483" lon="12.240585904168098"><ele>317.0</ele><time>2026-04-04T10:58:51Z</time></trkpt><trkpt lat="43.99865395407661" lon="12.240685267772891"><ele>317.0</ele><time>2026-04-04T10:58:52Z</time></trkpt><trkpt lat="43.99853990836594" lon="12.240780715422435"><ele>317.0</ele><time>2026-04-04T10:58:53Z</time></trkpt><trkpt lat="43.99841711712107" lon="12.240868697587532"><ele>317.0</ele><time>2026-04-04T10:58:54Z</time></trkpt><trkpt lat="43.998286325915124" lon="12.240947940827523"><ele>317.0</ele><time>2026-04-04T10:58:55Z</time></trkpt><trkpt lat="43.99814810551512" lon="12.241005666000568"><ele>317.0</ele><time>2026-04-04T10:58:56Z</time></trkpt><trkpt lat="43.99800911025269" lon="12.241052108938216"><ele>317.0</ele><time>2026-04-04T10:58:57Z</time></trkpt><trkpt lat="43.99788218506126" lon="12.241108456406737"><ele>317.0</ele><time>2026-04-04T10:58:58Z</time></trkpt><trkpt lat="43.997770498736706" lon="12.24118572210385"><ele>317.0</ele><time>2026-04-04T10:58:59Z</time></trkpt><trkpt lat="43.9976618274467" lon="12.24129493200781"><ele>317.0</ele><time>2026-04-04T10:59:00Z</time></trkpt><trkpt lat="43.99758095976125" lon="12.241416516714018"><ele>317.0</ele><time>2026-04-04T10:59:01.001Z</time></trkpt><trkpt lat="43.99751398259938" lon="12.241577895713682"><ele>317.0</ele><time>2026-04-04T10:59:02.001Z</time></trkpt><trkpt lat="43.9974584953" lon="12.241755762485766"><ele>317.0</ele><time>2026-04-04T10:59:03.001Z</time></trkpt><trkpt lat="43.99739880131704" lon="12.24193721305806"><ele>314.5</ele><time>2026-04-04T10:59:04.001Z</time></trkpt><trkpt lat="43.99733979101573" lon="12.242110112316192"><ele>312.0</ele><time>2026-04-04T10:59:05.001Z</time></trkpt><trkpt lat="43.9972732183946" lon="12.242263092537607"><ele>309.5</ele><time>2026-04-04T10:59:06.001Z</time></trkpt><trkpt lat="43.99719060592603" lon="12.24240055136405"><ele>307.0</ele><time>2026-04-04T10:59:07.001Z</time></trkpt><trkpt lat="43.99709217533535" lon="12.24250141821488"><ele>305.0</ele><time>2026-04-04T10:59:08.001Z</time></trkpt><trkpt lat="43.99699352097346" lon="12.242587878407548"><ele>303.0</ele><time>2026-04-04T10:59:09.001Z</time></trkpt><trkpt lat="43.99692026214272" lon="12.242678940271578"><ele>301.0</ele><time>2026-04-04T10:59:10.001Z</time></trkpt><trkpt lat="43.99686092436931" lon="12.242791997282781"><ele>299.0</ele><time>2026-04-04T10:59:11.001Z</time></trkpt><trkpt lat="43.99682187086522" lon="12.242924215187896"><ele>297.0</ele><time>2026-04-04T10:59:12.001Z</time></trkpt><trkpt lat="43.99680342789044" lon="12.243065193042753"><ele>294.0</ele><time>2026-04-04T10:59:13.001Z</time></trkpt><trkpt lat="43.996805270090036" lon="12.243222225361285"><ele>291.0</ele><time>2026-04-04T10:59:14.001Z</time></trkpt><trkpt lat="43.99681152385009" lon="12.243385197189255"><ele>288.0</ele><time>2026-04-04T10:59:15.001Z</time></trkpt><trkpt lat="43.99680104464857" lon="12.243555301068048"><ele>285.0</ele><time>2026-04-04T10:59:16.001Z</time></trkpt><trkpt lat="43.996760779548005" lon="12.243726480983225"><ele>285.0</ele><time>2026-04-04T10:59:17.001Z</time></trkpt><trkpt lat="43.996700427726786" lon="12.243889557798214"><ele>285.0</ele><time>2026-04-04T10:59:18.001Z</time></trkpt><trkpt lat="43.996631924214675" lon="12.24404380956612"><ele>285.0</ele><time>2026-04-04T10:59:19.001Z</time></trkpt><trkpt lat="43.99655846029767" lon="12.24419987811576"><ele>285.0</ele><time>2026-04-04T10:59:20.001Z</time></trkpt><trkpt lat="43.99648638195836" lon="12.244353621122581"><ele>289.25</ele><time>2026-04-04T10:59:21.001Z</time></trkpt><trkpt lat="43.99641447172299" lon="12.244501890651577"><ele>293.5</ele><time>2026-04-04T10:59:22.001Z</time></trkpt><trkpt lat="43.99634333094878" lon="12.2446407551753"><ele>297.75</ele><time>2026-04-04T10:59:23.001Z</time></trkpt><trkpt lat="43.99627769494994" lon="12.24477661233905"><ele>302.0</ele><time>2026-04-04T10:59:24.001Z</time></trkpt><trkpt lat="43.99622440419795" lon="12.24491927581758"><ele>302.0</ele><time>2026-04-04T10:59:25.001Z</time></trkpt><trkpt lat="43.996190326045046" lon="12.245083156108988"><ele>302.0</ele><time>2026-04-04T10:59:26.001Z</time></trkpt><trkpt lat="43.996165499875055" lon="12.245249592780375"><ele>302.0</ele><time>2026-04-04T10:59:27.001Z</time></trkpt><trkpt lat="43.996147508122895" lon="12.245419125236868"><ele>302.0</ele><time>2026-04-04T10:59:28.001Z</time></trkpt><trkpt lat="43.99613133882439" lon="12.245590693205232"><ele>300.75</ele><time>2026-04-04T10:59:29.001Z</time></trkpt><trkpt lat="43.99610915871357" lon="12.245763625436393"><ele>299.5</ele><time>2026-04-04T10:59:30.001Z</time></trkpt><trkpt lat="43.99606658471268" lon="12.245933505024725"><ele>298.25</ele><time>2026-04-04T10:59:31.001Z</time></trkpt><trkpt lat="43.996002980276444" lon="12.246082394107384"><ele>297.0</ele><time>2026-04-04T10:59:32.001Z</time></trkpt><trkpt lat="43.99592325774927" lon="12.246213328319946"><ele>301.0</ele><time>2026-04-04T10:59:33.001Z</time></trkpt><trkpt lat="43.995822365785465" lon="12.246297937115024"><ele>305.0</ele><time>2026-04-04T10:59:34.001Z</time></trkpt><trkpt lat="43.995718488653054" lon="12.246348453695076"><ele>309.0</ele><time>2026-04-04T10:59:35.001Z</time></trkpt><trkpt lat="43.995631310766235" lon="12.24641735429089"><ele>313.0</ele><time>2026-04-04T10:59:36.001Z</time></trkpt><trkpt lat="43.99557532588785" lon="12.246519785765264"><ele>317.0</ele><time>2026-04-04T10:59:37.001Z</time></trkpt><trkpt lat="43.99554916923871" lon="12.2466453047389"><ele>319.2</ele><time>2026-04-04T10:59:38.001Z</time></trkpt><trkpt lat="43.9955511857572" lon="12.246784233634367"><ele>321.4</ele><time>2026-04-04T10:59:39.001Z</time></trkpt><trkpt lat="43.99558579540658" lon="12.246917373884521"><ele>323.59999999999997</ele><time>2026-04-04T10:59:40.001Z</time></trkpt><trkpt lat="43.99562896189735" lon="12.247047239329056"><ele>325.79999999999995</ele><time>2026-04-04T10:59:41.001Z</time></trkpt><trkpt lat="43.99564689166805" lon="12.247184356446438"><ele>328.0</ele><time>2026-04-04T10:59:42.001Z</time></trkpt><trkpt lat="43.995612661319036" lon="12.24731062157954"><ele>330.0</ele><time>2026-04-04T10:59:43.001Z</time></trkpt><trkpt lat="43.995547110762224" lon="12.247413178276663"><ele>332.0</ele><time>2026-04-04T10:59:44.001Z</time></trkpt><trkpt lat="43.9954751671876" lon="12.247508758323114"><ele>334.0</ele><time>2026-04-04T10:59:45.001Z</time></trkpt><trkpt lat="43.995410615183644" lon="12.24762073615496"><ele>336.0</ele><time>2026-04-04T10:59:46.001Z</time></trkpt><trkpt lat="43.99536086450142" lon="12.24775217505191"><ele>338.0</ele><time>2026-04-04T10:59:47.001Z</time></trkpt><trkpt lat="43.9953111682241" lon="12.247887523144952"><ele>338.0</ele><time>2026-04-04T10:59:48.001Z</time></trkpt><trkpt lat="43.995263297468796" lon="12.248027818094153"><ele>338.0</ele><time>2026-04-04T10:59:49.001Z</time></trkpt><trkpt lat="43.99521350030841" lon="12.248171215196663"><ele>338.0</ele><time>2026-04-04T10:59:50.001Z</time></trkpt><trkpt lat="43.99515305871649" lon="12.248319277963596"><ele>338.0</ele><time>2026-04-04T10:59:51.001Z</time></trkpt><trkpt lat="43.995088851609914" lon="12.248473229619712"><ele>339.75</ele><time>2026-04-04T10:59:52.001Z</time></trkpt><trkpt lat="43.99502979330971" lon="12.24863293905291"><ele>341.5</ele><time>2026-04-04T10:59:53.001Z</time></trkpt><trkpt lat="43.99498115236601" lon="12.248803367082719"><ele>343.25</ele><time>2026-04-04T10:59:54.001Z</time></trkpt><trkpt lat="43.99493340773642" lon="12.248960940110763"><ele>345.0</ele><time>2026-04-04T10:59:55.001Z</time></trkpt><trkpt lat="43.99487787682078" lon="12.249107565176102"><ele>345.0</ele><time>2026-04-04T10:59:56.001Z</time></trkpt><trkpt lat="43.99479174468683" lon="12.249231633215302"><ele>345.0</ele><time>2026-04-04T10:59:57.001Z</time></trkpt><trkpt lat="43.99468044313597" lon="12.249323894769866"><ele>345.0</ele><time>2026-04-04T10:59:58.001Z</time></trkpt><trkpt lat="43.99457184810365" lon="12.249408965953194"><ele>345.0</ele><time>2026-04-04T10:59:59.001Z</time></trkpt><trkpt lat="43.99449147725534" lon="12.249549250549794"><ele>345.0</ele><time>2026-04-04T11:00:00.001Z</time></trkpt><trkpt lat="43.994442463480496" lon="12.249734712703585"><ele>345.0</ele><time>2026-04-04T11:00:01.001Z</time></trkpt><trkpt lat="43.994423326221124" lon="12.249934642119829"><ele>345.0</ele><time>2026-04-04T11:00:02.001Z</time></trkpt><trkpt lat="43.994397812804536" lon="12.2501182595254"><ele>345.0</ele><time>2026-04-04T11:00:03.001Z</time></trkpt><trkpt lat="43.99433365760838" lon="12.250272171733211"><ele>346.0</ele><time>2026-04-04T11:00:04.001Z</time></trkpt><trkpt lat="43.99424167750745" lon="12.25039216302547"><ele>347.0</ele><time>2026-04-04T11:00:05.001Z</time></trkpt><trkpt lat="43.994141834506394" lon="12.250470676400031"><ele>348.0</ele><time>2026-04-04T11:00:06.001Z</time></trkpt><trkpt lat="43.994049901436696" lon="12.250530100184765"><ele>349.0</ele><time>2026-04-04T11:00:07.001Z</time></trkpt><trkpt lat="43.993982387894334" lon="12.250575848498283"><ele>350.0</ele><time>2026-04-04T11:00:08.001Z</time></trkpt><trkpt lat="43.993904924886415" lon="12.250625466703935"><ele>350.0</ele><time>2026-04-04T11:00:10Z</time></trkpt><trkpt lat="43.9938264210056" lon="12.250690077158579"><ele>350.0</ele><time>2026-04-04T11:01:30.001Z</time></trkpt><trkpt lat="43.99371323853269" lon="12.250729892838251"><ele>350.0</ele><time>2026-04-04T11:01:32.001Z</time></trkpt><trkpt lat="43.99359913537021" lon="12.250682934020572"><ele>350.0</ele><time>2026-04-04T11:01:34.001Z</time></trkpt><trkpt lat="43.99354536095592" lon="12.250635643464932"><ele>350.0</ele><time>2026-04-04T11:01:35.001Z</time></trkpt><trkpt lat="43.99348776602576" lon="12.250575455343881"><ele>350.6666666666667</ele><time>2026-04-04T11:01:36.001Z</time></trkpt><trkpt lat="43.99342700915349" lon="12.250500601228916"><ele>351.33333333333337</ele><time>2026-04-04T11:01:37.001Z</time></trkpt><trkpt lat="43.993367551733265" lon="12.25041648980785"><ele>352.0</ele><time>2026-04-04T11:01:38.001Z</time></trkpt><trkpt lat="43.993297983168965" lon="12.250339781278305"><ele>352.6666666666667</ele><time>2026-04-04T11:01:39.001Z</time></trkpt><trkpt lat="43.993222474471935" lon="12.250276821879174"><ele>353.3333333333333</ele><time>2026-04-04T11:01:40.001Z</time></trkpt><trkpt lat="43.993148351141635" lon="12.250230201668652"><ele>354.0</ele><time>2026-04-04T11:01:41.001Z</time></trkpt><trkpt lat="43.993082738944885" lon="12.25018583776602"><ele>355.7142857142857</ele><time>2026-04-04T11:01:42.001Z</time></trkpt><trkpt lat="43.993028648212885" lon="12.250139401377105"><ele>357.4285714285714</ele><time>2026-04-04T11:01:43.001Z</time></trkpt><trkpt lat="43.99297194849961" lon="12.250093266554247"><ele>359.1428571428571</ele><time>2026-04-04T11:01:44.001Z</time></trkpt><trkpt lat="43.99291191778018" lon="12.250053625345524"><ele>360.8571428571429</ele><time>2026-04-04T11:01:45.001Z</time></trkpt><trkpt lat="43.9928529183455" lon="12.250008912154016"><ele>362.57142857142856</ele><time>2026-04-04T11:01:46.001Z</time></trkpt><trkpt lat="43.99279152538867" lon="12.249987670691757"><ele>364.2857142857143</ele><time>2026-04-04T11:01:47.001Z</time></trkpt><trkpt lat="43.992725038035715" lon="12.249989337337283"><ele>366.0</ele><time>2026-04-04T11:01:48.001Z</time></trkpt><trkpt lat="43.992653010119724" lon="12.25002008201153"><ele>366.0</ele><time>2026-04-04T11:01:49.001Z</time></trkpt><trkpt lat="43.99257254298179" lon="12.250063107665113"><ele>366.0</ele><time>2026-04-04T11:01:50.001Z</time></trkpt><trkpt lat="43.99249061093058" lon="12.25011740681797"><ele>366.0</ele><time>2026-04-04T11:01:51.001Z</time></trkpt><trkpt lat="43.99242133389483" lon="12.250204421192896"><ele>366.0</ele><time>2026-04-04T11:01:52.001Z</time></trkpt><trkpt lat="43.99236106216189" lon="12.250293553079436"><ele>366.0</ele><time>2026-04-04T11:01:53.001Z</time></trkpt><trkpt lat="43.99231216072361" lon="12.250370560089001"><ele>366.0</ele><time>2026-04-04T11:01:54.001Z</time></trkpt><trkpt lat="43.992269872377726" lon="12.250517417307154"><ele>366.0</ele><time>2026-04-04T11:01:56.001Z</time></trkpt><trkpt lat="43.992328745080634" lon="12.250640717546837"><ele>366.0</ele><time>2026-04-04T11:01:58.001Z</time></trkpt><trkpt lat="43.992390102903876" lon="12.250662972667081"><ele>366.0</ele><time>2026-04-04T11:01:59.001Z</time></trkpt><trkpt lat="43.99245515249729" lon="12.250636144939337"><ele>366.0</ele><time>2026-04-04T11:02:00.001Z</time></trkpt><trkpt lat="43.9925305367186" lon="12.25057239536146"><ele>366.0</ele><time>2026-04-04T11:02:01.001Z</time></trkpt><trkpt lat="43.99260932469231" lon="12.250486223169478"><ele>366.0</ele><time>2026-04-04T11:02:02.001Z</time></trkpt><trkpt lat="43.99268561261055" lon="12.250426368428924"><ele>366.0</ele><time>2026-04-04T11:02:03.001Z</time></trkpt><trkpt lat="43.99277334101867" lon="12.250409700565411"><ele>366.0</ele><time>2026-04-04T11:02:04.001Z</time></trkpt><trkpt lat="43.99286320898522" lon="12.250441741256397"><ele>366.0</ele><time>2026-04-04T11:02:05.001Z</time></trkpt><trkpt lat="43.99294185898251" lon="12.25052029325909"><ele>366.0</ele><time>2026-04-04T11:02:06.001Z</time></trkpt><trkpt lat="43.99300005250001" lon="12.250641552134558"><ele>366.0</ele><time>2026-04-04T11:02:07.001Z</time></trkpt><trkpt lat="43.99301644166338" lon="12.250778401950592"><ele>369.20000000000005</ele><time>2026-04-04T11:02:08.001Z</time></trkpt><trkpt lat="43.993000866337375" lon="12.250889159181805"><ele>372.40000000000003</ele><time>2026-04-04T11:02:09.001Z</time></trkpt><trkpt lat="43.99294825456394" lon="12.250969088663062"><ele>375.6</ele><time>2026-04-04T11:02:10.001Z</time></trkpt><trkpt lat="43.992866689693365" lon="12.251037236580634"><ele>378.8</ele><time>2026-04-04T11:02:11.001Z</time></trkpt><trkpt lat="43.99276757736454" lon="12.251105358643722"><ele>382.0</ele><time>2026-04-04T11:02:12.001Z</time></trkpt><trkpt lat="43.99265148080663" lon="12.251175470499316"><ele>382.0</ele><time>2026-04-04T11:02:13.001Z</time></trkpt><trkpt lat="43.992527753613665" lon="12.251268199849088"><ele>382.0</ele><time>2026-04-04T11:02:14.002Z</time></trkpt><trkpt lat="43.99240194253646" lon="12.251372229678893"><ele>382.0</ele><time>2026-04-04T11:02:15.002Z</time></trkpt><trkpt lat="43.99228636774387" lon="12.25145538425592"><ele>382.0</ele><time>2026-04-04T11:02:16Z</time></trkpt><trkpt lat="43.992180548192444" lon="12.251537873696645"><ele>389.25</ele><time>2026-04-04T11:02:17Z</time></trkpt><trkpt lat="43.99206665222071" lon="12.251581023120094"><ele>396.5</ele><time>2026-04-04T11:02:18Z</time></trkpt><trkpt lat="43.991946965612215" lon="12.251586803090436"><ele>403.75</ele><time>2026-04-04T11:02:19Z</time></trkpt><trkpt lat="43.99182343956911" lon="12.251560225204242"><ele>411.0</ele><time>2026-04-04T11:02:20Z</time></trkpt><trkpt lat="43.99171027500351" lon="12.251518398801606"><ele>413.6</ele><time>2026-04-04T11:02:21Z</time></trkpt><trkpt lat="43.991595124144006" lon="12.251490126909578"><ele>416.20000000000005</ele><time>2026-04-04T11:02:22Z</time></trkpt><trkpt lat="43.991483544938234" lon="12.25147394700052"><ele>418.79999999999995</ele><time>2026-04-04T11:02:23Z</time></trkpt><trkpt lat="43.9913894756573" lon="12.25149182415327"><ele>421.4</ele><time>2026-04-04T11:02:24Z</time></trkpt><trkpt lat="43.991295537901095" lon="12.251567294852991"><ele>424.0</ele><time>2026-04-04T11:02:25Z</time></trkpt><trkpt lat="43.99120264302003" lon="12.251687653386071"><ele>424.0</ele><time>2026-04-04T11:02:26Z</time></trkpt><trkpt lat="43.9911303661614" lon="12.251833976986296"><ele>424.0</ele><time>2026-04-04T11:02:27Z</time></trkpt><trkpt lat="43.991071791124426" lon="12.252000620125468"><ele>424.0</ele><time>2026-04-04T11:02:28Z</time></trkpt><trkpt lat="43.99101659462615" lon="12.252160128807992"><ele>424.0</ele><time>2026-04-04T11:02:29Z</time></trkpt><trkpt lat="43.99093349753303" lon="12.252300643493816"><ele>421.75</ele><time>2026-04-04T11:02:30Z</time></trkpt><trkpt lat="43.99084791255505" lon="12.252424721623692"><ele>419.5</ele><time>2026-04-04T11:02:31Z</time></trkpt><trkpt lat="43.990765720726834" lon="12.252564226736483"><ele>417.25</ele><time>2026-04-04T11:02:32Z</time></trkpt><trkpt lat="43.99070055390705" lon="12.252727443595973"><ele>415.0</ele><time>2026-04-04T11:02:33Z</time></trkpt><trkpt lat="43.99065511209765" lon="12.252884481860804"><ele>417.00000000000006</ele><time>2026-04-04T11:02:34Z</time></trkpt><trkpt lat="43.99062306327864" lon="12.253023416293875"><ele>419.0</ele><time>2026-04-04T11:02:35Z</time></trkpt><trkpt lat="43.99059250581068" lon="12.253159062891257"><ele>421.0</ele><time>2026-04-04T11:02:36Z</time></trkpt><trkpt lat="43.99056520586906" lon="12.253273013462072"><ele>423.0</ele><time>2026-04-04T11:02:37Z</time></trkpt><trkpt lat="43.9905388064869" lon="12.25335520617737"><ele>425.00000000000006</ele><time>2026-04-04T11:02:38Z</time></trkpt><trkpt lat="43.990485744969064" lon="12.253456646886246"><ele>427.0</ele><time>2026-04-04T11:02:40Z</time></trkpt><trkpt lat="43.99043064830541" lon="12.253521910855461"><ele>427.0</ele><time>2026-04-04T11:02:47Z</time></trkpt><trkpt lat="43.99040818892541" lon="12.25370295587004"><ele>427.0</ele><time>2026-04-04T11:02:49Z</time></trkpt><trkpt lat="43.99042290671855" lon="12.253835353334884"><ele>427.0</ele><time>2026-04-04T11:02:50Z</time></trkpt><trkpt lat="43.99043329175792" lon="12.253988876654885"><ele>427.0</ele><time>2026-04-04T11:02:51Z</time></trkpt><trkpt lat="43.9904396366527" lon="12.254171261667238"><ele>427.0</ele><time>2026-04-04T11:02:52Z</time></trkpt><trkpt lat="43.990435539019956" lon="12.254384045180618"><ele>427.0</ele><time>2026-04-04T11:02:53Z</time></trkpt><trkpt lat="43.99040574747079" lon="12.254617743072435"><ele>427.0</ele><time>2026-04-04T11:02:54Z</time></trkpt><trkpt lat="43.99035618475951" lon="12.25486134969742"><ele>427.0</ele><time>2026-04-04T11:02:55.001Z</time></trkpt><trkpt lat="43.99032326107359" lon="12.255118554384609"><ele>427.0</ele><time>2026-04-04T11:02:56.001Z</time></trkpt><trkpt lat="43.990332478608465" lon="12.25539387013567"><ele>427.0</ele><time>2026-04-04T11:02:57.001Z</time></trkpt><trkpt lat="43.99036751107152" lon="12.25569185130018"><ele>432.0</ele><time>2026-04-04T11:02:58.001Z</time></trkpt><trkpt lat="43.990431540840234" lon="12.256008781950207"><ele>437.0</ele><time>2026-04-04T11:02:59.001Z</time></trkpt><trkpt lat="43.99051230273967" lon="12.256294237441663"><ele>441.66666666666663</ele><time>2026-04-04T11:03:00.001Z</time></trkpt><trkpt lat="43.9905887359648" lon="12.25653712540842"><ele>446.33333333333337</ele><time>2026-04-04T11:03:01.001Z</time></trkpt><trkpt lat="43.99063230363591" lon="12.256771245963831"><ele>451.0</ele><time>2026-04-04T11:03:02.001Z</time></trkpt><trkpt lat="43.99063305093957" lon="12.257020394703803"><ele>451.0</ele><time>2026-04-04T11:03:03.001Z</time></trkpt><trkpt lat="43.99060037970407" lon="12.25728173460459"><ele>451.0</ele><time>2026-04-04T11:03:04.001Z</time></trkpt><trkpt lat="43.99056922061111" lon="12.257535889766842"><ele>451.0</ele><time>2026-04-04T11:03:05.001Z</time></trkpt><trkpt lat="43.99052821375418" lon="12.2577857398955"><ele>453.0</ele><time>2026-04-04T11:03:06.001Z</time></trkpt><trkpt lat="43.99048230146809" lon="12.258027689611486"><ele>455.0</ele><time>2026-04-04T11:03:07.001Z</time></trkpt><trkpt lat="43.99043829184501" lon="12.258244625662543"><ele>457.0</ele><time>2026-04-04T11:03:08.001Z</time></trkpt><trkpt lat="43.99041588886261" lon="12.258458940893787"><ele>460.0</ele><time>2026-04-04T11:03:09.001Z</time></trkpt><trkpt lat="43.9904055086298" lon="12.258696737916795"><ele>463.0</ele><time>2026-04-04T11:03:10.001Z</time></trkpt><trkpt lat="43.990410526532244" lon="12.258931271213365"><ele>466.0</ele><time>2026-04-04T11:03:11.001Z</time></trkpt><trkpt lat="43.990418172984164" lon="12.259164697945753"><ele>466.6666666666667</ele><time>2026-04-04T11:03:12.001Z</time></trkpt><trkpt lat="43.99043224917138" lon="12.259391373946462"><ele>467.33333333333337</ele><time>2026-04-04T11:03:13.001Z</time></trkpt><trkpt lat="43.99045005992077" lon="12.259606253994349"><ele>468.0</ele><time>2026-04-04T11:03:14.001Z</time></trkpt><trkpt lat="43.99044038120075" lon="12.259808745810243"><ele>468.5</ele><time>2026-04-04T11:03:15.001Z</time></trkpt><trkpt lat="43.9904087057578" lon="12.260005252657635"><ele>469.0</ele><time>2026-04-04T11:03:16.001Z</time></trkpt><trkpt lat="43.990356607677114" lon="12.260195144080384"><ele>469.5</ele><time>2026-04-04T11:03:17.001Z</time></trkpt><trkpt lat="43.99030815307328" lon="12.260369181142968"><ele>470.0</ele><time>2026-04-04T11:03:18.001Z</time></trkpt><trkpt lat="43.99029221799745" lon="12.26054910959024"><ele>470.75</ele><time>2026-04-04T11:03:19.001Z</time></trkpt><trkpt lat="43.990291263872024" lon="12.260729431794541"><ele>471.5</ele><time>2026-04-04T11:03:20.001Z</time></trkpt><trkpt lat="43.99030619892463" lon="12.260916695720649"><ele>472.25</ele><time>2026-04-04T11:03:21.001Z</time></trkpt><trkpt lat="43.99033866839209" lon="12.261115194680118"><ele>473.0</ele><time>2026-04-04T11:03:22.001Z</time></trkpt><trkpt lat="43.990369094069685" lon="12.2613154069063"><ele>472.0</ele><time>2026-04-04T11:03:23.001Z</time></trkpt><trkpt lat="43.990401926010364" lon="12.261515446450408"><ele>471.0</ele><time>2026-04-04T11:03:24.001Z</time></trkpt><trkpt lat="43.9904339310532" lon="12.261731536012004"><ele>470.0</ele><time>2026-04-04T11:03:25.001Z</time></trkpt><trkpt lat="43.990469183566226" lon="12.261948063699842"><ele>470.0</ele><time>2026-04-04T11:03:26.001Z</time></trkpt><trkpt lat="43.99050282287359" lon="12.262166800586535"><ele>470.0</ele><time>2026-04-04T11:03:27.001Z</time></trkpt><trkpt lat="43.990533496968276" lon="12.262383237384364"><ele>470.0</ele><time>2026-04-04T11:03:28.001Z</time></trkpt><trkpt lat="43.99056422550036" lon="12.262597667324249"><ele>467.3333333333333</ele><time>2026-04-04T11:03:29.001Z</time></trkpt><trkpt lat="43.99059628632062" lon="12.262814334193662"><ele>464.66666666666663</ele><time>2026-04-04T11:03:30.001Z</time></trkpt><trkpt lat="43.99062667096586" lon="12.263021357004844"><ele>462.0</ele><time>2026-04-04T11:03:31.001Z</time></trkpt><trkpt lat="43.99065147629526" lon="12.263215092622241"><ele>459.75</ele><time>2026-04-04T11:03:32.001Z</time></trkpt><trkpt lat="43.99067033713839" lon="12.263394431543968"><ele>457.5</ele><time>2026-04-04T11:03:33.001Z</time></trkpt><trkpt lat="43.99070194443272" lon="12.263557234525939"><ele>455.25</ele><time>2026-04-04T11:03:34.001Z</time></trkpt><trkpt lat="43.99075561620869" lon="12.26369882040288"><ele>453.0</ele><time>2026-04-04T11:03:35.001Z</time></trkpt><trkpt lat="43.990833960460755" lon="12.263821917202636"><ele>457.75</ele><time>2026-04-04T11:03:36.001Z</time></trkpt><trkpt lat="43.990944972233834" lon="12.263922819467231"><ele>462.5</ele><time>2026-04-04T11:03:37.001Z</time></trkpt><trkpt lat="43.991059501867845" lon="12.26400478711295"><ele>467.25</ele><time>2026-04-04T11:03:38.001Z</time></trkpt><trkpt lat="43.991139567980355" lon="12.264109324200595"><ele>472.0</ele><time>2026-04-04T11:03:39.001Z</time></trkpt><trkpt lat="43.99118223925847" lon="12.264274879315012"><ele>472.0</ele><time>2026-04-04T11:03:40.001Z</time></trkpt><trkpt lat="43.99116662697214" lon="12.264497397371526"><ele>472.0</ele><time>2026-04-04T11:03:41.001Z</time></trkpt><trkpt lat="43.99116352781137" lon="12.264715851537423"><ele>472.0</ele><time>2026-04-04T11:03:42.001Z</time></trkpt><trkpt lat="43.991180190933214" lon="12.264962384473545"><ele>470.6666666666667</ele><time>2026-04-04T11:03:43.001Z</time></trkpt><trkpt lat="43.991229374831214" lon="12.26521809276418"><ele>469.33333333333337</ele><time>2026-04-04T11:03:44.001Z</time></trkpt><trkpt lat="43.99126679993016" lon="12.265451446176586"><ele>468.0</ele><time>2026-04-04T11:03:45.001Z</time></trkpt><trkpt lat="43.99128857649282" lon="12.265693467563272"><ele>464.66666666666663</ele><time>2026-04-04T11:03:46.001Z</time></trkpt><trkpt lat="43.99130812747751" lon="12.265931523944738"><ele>461.3333333333333</ele><time>2026-04-04T11:03:47.001Z</time></trkpt><trkpt lat="43.99132284892067" lon="12.266159114993325"><ele>458.0</ele><time>2026-04-04T11:03:48.001Z</time></trkpt><trkpt lat="43.99134650159738" lon="12.266380291651851"><ele>455.5</ele><time>2026-04-04T11:03:49.001Z</time></trkpt><trkpt lat="43.991384425055244" lon="12.266579538612161"><ele>453.0</ele><time>2026-04-04T11:03:50.001Z</time></trkpt><trkpt lat="43.99143075273299" lon="12.266760477331292"><ele>450.5</ele><time>2026-04-04T11:03:51.001Z</time></trkpt><trkpt lat="43.99148008073795" lon="12.266915261065881"><ele>448.0</ele><time>2026-04-04T11:03:52.001Z</time></trkpt><trkpt lat="43.99154708757815" lon="12.267038245353833"><ele>448.0</ele><time>2026-04-04T11:03:53.001Z</time></trkpt><trkpt lat="43.99162929311238" lon="12.267123964557525"><ele>448.0</ele><time>2026-04-04T11:03:54.001Z</time></trkpt><trkpt lat="43.99173197641674" lon="12.267143886107894"><ele>448.0</ele><time>2026-04-04T11:03:55.001Z</time></trkpt><trkpt lat="43.99186504009433" lon="12.267124250899403"><ele>448.0</ele><time>2026-04-04T11:03:56.001Z</time></trkpt><trkpt lat="43.99200570119708" lon="12.267059460424184"><ele>448.75</ele><time>2026-04-04T11:03:57.001Z</time></trkpt><trkpt lat="43.9921467010409" lon="12.266991559306968"><ele>449.5</ele><time>2026-04-04T11:03:58.001Z</time></trkpt><trkpt lat="43.99229190424868" lon="12.266949957942382"><ele>450.25</ele><time>2026-04-04T11:03:59.001Z</time></trkpt><trkpt lat="43.99243553316004" lon="12.266916530845386"><ele>451.0</ele><time>2026-04-04T11:04:00.001Z</time></trkpt><trkpt lat="43.99257668863074" lon="12.266878400464057"><ele>449.25</ele><time>2026-04-04T11:04:01.001Z</time></trkpt><trkpt lat="43.99271661894327" lon="12.266844795099976"><ele>447.5</ele><time>2026-04-04T11:04:02.001Z</time></trkpt><trkpt lat="43.992846713699684" lon="12.266838815996104"><ele>445.75</ele><time>2026-04-04T11:04:03.001Z</time></trkpt><trkpt lat="43.99297433247082" lon="12.266865455696546"><ele>444.0</ele><time>2026-04-04T11:04:04.002Z</time></trkpt><trkpt lat="43.99308947229928" lon="12.266941622704866"><ele>444.0</ele><time>2026-04-04T11:04:05.002Z</time></trkpt><trkpt lat="43.99319751328109" lon="12.267073342389384"><ele>444.0</ele><time>2026-04-04T11:04:06.002Z</time></trkpt><trkpt lat="43.9932851212918" lon="12.267241867525248"><ele>444.0</ele><time>2026-04-04T11:04:07.002Z</time></trkpt><trkpt lat="43.99335525037931" lon="12.26741774794153"><ele>444.0</ele><time>2026-04-04T11:04:08.002Z</time></trkpt><trkpt lat="43.993416562842306" lon="12.267599843886495"><ele>446.33333333333337</ele><time>2026-04-04T11:04:09.002Z</time></trkpt><trkpt lat="43.99346886969646" lon="12.267809597188883"><ele>448.6666666666667</ele><time>2026-04-04T11:04:10.002Z</time></trkpt><trkpt lat="43.993501136453986" lon="12.268032976337514"><ele>451.0</ele><time>2026-04-04T11:04:11.002Z</time></trkpt><trkpt lat="43.993514307421954" lon="12.26825600977531"><ele>451.0</ele><time>2026-04-04T11:04:12.002Z</time></trkpt><trkpt lat="43.9935127278307" lon="12.268486314826738"><ele>451.0</ele><time>2026-04-04T11:04:13.002Z</time></trkpt><trkpt lat="43.993504108587054" lon="12.268713523498274"><ele>451.0</ele><time>2026-04-04T11:04:14.002Z</time></trkpt><trkpt lat="43.993485559303394" lon="12.26893588472027"><ele>451.25</ele><time>2026-04-04T11:04:15.002Z</time></trkpt><trkpt lat="43.99347339047739" lon="12.269144302417885"><ele>451.5</ele><time>2026-04-04T11:04:16.002Z</time></trkpt><trkpt lat="43.99346694383087" lon="12.269334817392737"><ele>451.75</ele><time>2026-04-04T11:04:17.002Z</time></trkpt><trkpt lat="43.9934581403658" lon="12.269522302221938"><ele>452.0</ele><time>2026-04-04T11:04:18.002Z</time></trkpt><trkpt lat="43.993450467266015" lon="12.269704620836919"><ele>450.20000000000005</ele><time>2026-04-04T11:04:19.002Z</time></trkpt><trkpt lat="43.9934414191492" lon="12.269873866431036"><ele>448.40000000000003</ele><time>2026-04-04T11:04:20.002Z</time></trkpt><trkpt lat="43.99343450149846" lon="12.270032182620486"><ele>446.59999999999997</ele><time>2026-04-04T11:04:21.002Z</time></trkpt><trkpt lat="43.99343034788515" lon="12.2701818228614"><ele>444.79999999999995</ele><time>2026-04-04T11:04:22Z</time></trkpt><trkpt lat="43.9934310727203" lon="12.270321634193465"><ele>443.0</ele><time>2026-04-04T11:04:23Z</time></trkpt><trkpt lat="43.99343000128541" lon="12.270453062100165"><ele>443.0</ele><time>2026-04-04T11:04:24Z</time></trkpt><trkpt lat="43.99342672029892" lon="12.270571381067478"><ele>442.99999999999994</ele><time>2026-04-04T11:04:25Z</time></trkpt><trkpt lat="43.993432451251884" lon="12.270696250535226"><ele>442.99999999999994</ele><time>2026-04-04T11:04:26Z</time></trkpt><trkpt lat="43.993447802628864" lon="12.270835661278435"><ele>443.0</ele><time>2026-04-04T11:04:27Z</time></trkpt><trkpt lat="43.99348171431375" lon="12.270971287213946"><ele>443.0</ele><time>2026-04-04T11:04:28Z</time></trkpt><trkpt lat="43.99353577411615" lon="12.271108635487026"><ele>440.25</ele><time>2026-04-04T11:04:29Z</time></trkpt><trkpt lat="43.9935998309137" lon="12.271249096789651"><ele>437.5</ele><time>2026-04-04T11:04:30Z</time></trkpt><trkpt lat="43.9936761834054" lon="12.27138917384982"><ele>434.75</ele><time>2026-04-04T11:04:31Z</time></trkpt><trkpt lat="43.99375105646985" lon="12.271540028126367"><ele>432.0</ele><time>2026-04-04T11:04:32Z</time></trkpt><trkpt lat="43.9938268307797" lon="12.271687380704112"><ele>429.75</ele><time>2026-04-04T11:04:33Z</time></trkpt><trkpt lat="43.99390056379168" lon="12.27183282981889"><ele>427.5</ele><time>2026-04-04T11:04:34Z</time></trkpt><trkpt lat="43.99396974250408" lon="12.27196851808889"><ele>425.25</ele><time>2026-04-04T11:04:35Z</time></trkpt><trkpt lat="43.994029623987466" lon="12.272097604317976"><ele>423.0</ele><time>2026-04-04T11:04:36Z</time></trkpt><trkpt lat="43.99406609895257" lon="12.272240759140102"><ele>421.25</ele><time>2026-04-04T11:04:37Z</time></trkpt><trkpt lat="43.994073014512544" lon="12.272390747465758"><ele>419.5</ele><time>2026-04-04T11:04:38Z</time></trkpt><trkpt lat="43.99404291619766" lon="12.27253839621117"><ele>417.75</ele><time>2026-04-04T11:04:39Z</time></trkpt><trkpt lat="43.99398488822589" lon="12.2726865043585"><ele>416.0</ele><time>2026-04-04T11:04:40Z</time></trkpt><trkpt lat="43.99391241090276" lon="12.272835105165917"><ele>416.0</ele><time>2026-04-04T11:04:41Z</time></trkpt><trkpt lat="43.99383756153642" lon="12.272993744998562"><ele>416.0</ele><time>2026-04-04T11:04:42Z</time></trkpt><trkpt lat="43.993760025832536" lon="12.27315173373499"><ele>416.0</ele><time>2026-04-04T11:04:43Z</time></trkpt><trkpt lat="43.993680046309244" lon="12.273303802077342"><ele>416.0</ele><time>2026-04-04T11:04:44Z</time></trkpt><trkpt lat="43.99360490019421" lon="12.273455082183808"><ele>414.5</ele><time>2026-04-04T11:04:45Z</time></trkpt><trkpt lat="43.993533471000184" lon="12.27360713830966"><ele>413.0</ele><time>2026-04-04T11:04:46Z</time></trkpt><trkpt lat="43.99346258293245" lon="12.273758136333232"><ele>411.5</ele><time>2026-04-04T11:04:47Z</time></trkpt><trkpt lat="43.99339969329208" lon="12.273895755817346"><ele>410.0</ele><time>2026-04-04T11:04:48Z</time></trkpt><trkpt lat="43.99334152919843" lon="12.274038811592405"><ele>411.25</ele><time>2026-04-04T11:04:49Z</time></trkpt><trkpt lat="43.99328855175887" lon="12.274189622279595"><ele>412.5</ele><time>2026-04-04T11:04:50Z</time></trkpt><trkpt lat="43.993239072085466" lon="12.274344931219847"><ele>413.75</ele><time>2026-04-04T11:04:51Z</time></trkpt><trkpt lat="43.99318479906262" lon="12.274500523229065"><ele>415.0</ele><time>2026-04-04T11:04:52Z</time></trkpt><trkpt lat="43.99312835755899" lon="12.274660703868133"><ele>413.25</ele><time>2026-04-04T11:04:53Z</time></trkpt><trkpt lat="43.99307491814446" lon="12.274820919277284"><ele>411.5</ele><time>2026-04-04T11:04:54Z</time></trkpt><trkpt lat="43.99302393189987" lon="12.274988836502908"><ele>409.75</ele><time>2026-04-04T11:04:55Z</time></trkpt><trkpt lat="43.99296807814033" lon="12.275158635999984"><ele>408.0</ele><time>2026-04-04T11:04:56Z</time></trkpt><trkpt lat="43.99291567837044" lon="12.275334679580206"><ele>408.0</ele><time>2026-04-04T11:04:57Z</time></trkpt><trkpt lat="43.99287272842683" lon="12.275519510337446"><ele>408.0</ele><time>2026-04-04T11:04:58Z</time></trkpt><trkpt lat="43.9928404802707" lon="12.275709998080677"><ele>408.0</ele><time>2026-04-04T11:04:59Z</time></trkpt><trkpt lat="43.992815774059146" lon="12.27590491855591"><ele>408.0</ele><time>2026-04-04T11:05:00Z</time></trkpt><trkpt lat="43.99278926800549" lon="12.276102546350499"><ele>406.25</ele><time>2026-04-04T11:05:01Z</time></trkpt><trkpt lat="43.99276436053645" lon="12.276301849021058"><ele>404.5</ele><time>2026-04-04T11:05:02Z</time></trkpt><trkpt lat="43.99273960120924" lon="12.276494234113956"><ele>402.75</ele><time>2026-04-04T11:05:03Z</time></trkpt><trkpt lat="43.99272088747957" lon="12.27666202381551"><ele>401.0</ele><time>2026-04-04T11:05:04Z</time></trkpt><trkpt lat="43.99270476750601" lon="12.27681950310903"><ele>401.0</ele><time>2026-04-04T11:05:05Z</time></trkpt><trkpt lat="43.99268823837084" lon="12.276971459935387"><ele>401.0</ele><time>2026-04-04T11:05:06Z</time></trkpt><trkpt lat="43.992672298065116" lon="12.277120671592696"><ele>401.0</ele><time>2026-04-04T11:05:07Z</time></trkpt><trkpt lat="43.99265340977458" lon="12.27726586701357"><ele>401.0</ele><time>2026-04-04T11:05:08.001Z</time></trkpt><trkpt lat="43.99263848388607" lon="12.277408630888802"><ele>401.0</ele><time>2026-04-04T11:05:09.001Z</time></trkpt><trkpt lat="43.99262145370614" lon="12.277551149482697"><ele>400.5</ele><time>2026-04-04T11:05:10.001Z</time></trkpt><trkpt lat="43.992605773175086" lon="12.277690267885635"><ele>400.0</ele><time>2026-04-04T11:05:11.001Z</time></trkpt><trkpt lat="43.992585249336855" lon="12.277837776466594"><ele>399.5</ele><time>2026-04-04T11:05:12.001Z</time></trkpt><trkpt lat="43.99255195812499" lon="12.277994460315401"><ele>399.0</ele><time>2026-04-04T11:05:13.001Z</time></trkpt><trkpt lat="43.992501751674105" lon="12.278165291549062"><ele>406.0</ele><time>2026-04-04T11:05:14.001Z</time></trkpt><trkpt lat="43.992445479901896" lon="12.278342005643356"><ele>413.0</ele><time>2026-04-04T11:05:15.001Z</time></trkpt><trkpt lat="43.99238643688945" lon="12.278537538473252"><ele>420.0</ele><time>2026-04-04T11:05:16.001Z</time></trkpt><trkpt lat="43.99232722835575" lon="12.278748301999382"><ele>418.66666666666663</ele><time>2026-04-04T11:05:17.001Z</time></trkpt><trkpt lat="43.99226714919171" lon="12.27897255037832"><ele>417.3333333333333</ele><time>2026-04-04T11:05:18.001Z</time></trkpt><trkpt lat="43.99220444805883" lon="12.27919143638312"><ele>416.0</ele><time>2026-04-04T11:05:19.001Z</time></trkpt><trkpt lat="43.992124826409245" lon="12.2793927760914"><ele>416.0</ele><time>2026-04-04T11:05:20.001Z</time></trkpt><trkpt lat="43.99203821577303" lon="12.279577766008252"><ele>416.0</ele><time>2026-04-04T11:05:21.001Z</time></trkpt><trkpt lat="43.991975542688245" lon="12.279752421173148"><ele>416.0</ele><time>2026-04-04T11:05:22.001Z</time></trkpt><trkpt lat="43.991935829339496" lon="12.279951200991421"><ele>416.0</ele><time>2026-04-04T11:05:23.001Z</time></trkpt><trkpt lat="43.99190511204622" lon="12.280169299770176"><ele>417.25</ele><time>2026-04-04T11:05:24.001Z</time></trkpt><trkpt lat="43.99187798772967" lon="12.280391115611593"><ele>418.5</ele><time>2026-04-04T11:05:25.001Z</time></trkpt><trkpt lat="43.99185673237382" lon="12.280600055945289"><ele>419.75</ele><time>2026-04-04T11:05:26.001Z</time></trkpt><trkpt lat="43.99183915340921" lon="12.280776432894314"><ele>421.0</ele><time>2026-04-04T11:05:27.001Z</time></trkpt><trkpt lat="43.99183066214486" lon="12.28093220718926"><ele>420.20000000000005</ele><time>2026-04-04T11:05:28.001Z</time></trkpt><trkpt lat="43.99184079496788" lon="12.281085079621805"><ele>419.40000000000003</ele><time>2026-04-04T11:05:29.001Z</time></trkpt><trkpt lat="43.991886148861624" lon="12.281216130751602"><ele>418.6</ele><time>2026-04-04T11:05:30.001Z</time></trkpt><trkpt lat="43.99196151134933" lon="12.281329662298623"><ele>417.8</ele><time>2026-04-04T11:05:31.001Z</time></trkpt><trkpt lat="43.99206703113615" lon="12.281413023291421"><ele>417.0</ele><time>2026-04-04T11:05:32.001Z</time></trkpt><trkpt lat="43.99218343620942" lon="12.281476542897705"><ele>417.0</ele><time>2026-04-04T11:05:33.001Z</time></trkpt><trkpt lat="43.9923098000425" lon="12.281536174306384"><ele>417.0</ele><time>2026-04-04T11:05:34.001Z</time></trkpt><trkpt lat="43.992434988282575" lon="12.28162389292047"><ele>417.0</ele><time>2026-04-04T11:05:35.001Z</time></trkpt><trkpt lat="43.99255146308517" lon="12.281744372011227"><ele>417.0</ele><time>2026-04-04T11:05:36.001Z</time></trkpt><trkpt lat="43.99267280044002" lon="12.281879596376504"><ele>414.0</ele><time>2026-04-04T11:05:37.001Z</time></trkpt><trkpt lat="43.99281161935877" lon="12.282013174581337"><ele>411.0</ele><time>2026-04-04T11:05:38.001Z</time></trkpt><trkpt lat="43.99296432218789" lon="12.282142998389213"><ele>408.0</ele><time>2026-04-04T11:05:39.001Z</time></trkpt><trkpt lat="43.99310402556098" lon="12.282276191531587"><ele>408.0</ele><time>2026-04-04T11:05:40.001Z</time></trkpt><trkpt lat="43.99323007699987" lon="12.282391572807155"><ele>408.0</ele><time>2026-04-04T11:05:41.001Z</time></trkpt><trkpt lat="43.99336304301142" lon="12.282522018870905"><ele>408.0</ele><time>2026-04-04T11:05:42.001Z</time></trkpt><trkpt lat="43.99349608660938" lon="12.282650735273778"><ele>402.66666666666663</ele><time>2026-04-04T11:05:43.001Z</time></trkpt><trkpt lat="43.99363123024264" lon="12.282781482144971"><ele>397.3333333333333</ele><time>2026-04-04T11:05:44.001Z</time></trkpt><trkpt lat="43.99376601633579" lon="12.282919197676573"><ele>392.0</ele><time>2026-04-04T11:05:45.001Z</time></trkpt><trkpt lat="43.99389688455636" lon="12.28305139060295"><ele>393.25</ele><time>2026-04-04T11:05:46.001Z</time></trkpt><trkpt lat="43.99401425596573" lon="12.283174777362321"><ele>394.5</ele><time>2026-04-04T11:05:47.001Z</time></trkpt><trkpt lat="43.99412871740014" lon="12.283298070957033"><ele>395.75</ele><time>2026-04-04T11:05:48.001Z</time></trkpt><trkpt lat="43.994235483165305" lon="12.283417677905723"><ele>397.0</ele><time>2026-04-04T11:05:49.001Z</time></trkpt><trkpt lat="43.994338781747814" lon="12.283542265436436"><ele>397.0</ele><time>2026-04-04T11:05:50.001Z</time></trkpt><trkpt lat="43.99443915302157" lon="12.283663188072795"><ele>397.0</ele><time>2026-04-04T11:05:51.001Z</time></trkpt><trkpt lat="43.9945381373853" lon="12.283777477676404"><ele>397.0</ele><time>2026-04-04T11:05:52.001Z</time></trkpt><trkpt lat="43.9946291895647" lon="12.283904795058993"><ele>397.0</ele><time>2026-04-04T11:05:53.001Z</time></trkpt><trkpt lat="43.99470799101595" lon="12.284048679252141"><ele>396.0</ele><time>2026-04-04T11:05:54.001Z</time></trkpt><trkpt lat="43.994782364952094" lon="12.284212085862883"><ele>395.0</ele><time>2026-04-04T11:05:55.001Z</time></trkpt><trkpt lat="43.99485286619415" lon="12.284393981114034"><ele>394.0</ele><time>2026-04-04T11:05:56.001Z</time></trkpt><trkpt lat="43.99492662926195" lon="12.28459179903765"><ele>393.0</ele><time>2026-04-04T11:05:57.001Z</time></trkpt><trkpt lat="43.99501158570954" lon="12.284803288007884"><ele>393.0</ele><time>2026-04-04T11:05:58.001Z</time></trkpt><trkpt lat="43.995109079421894" lon="12.285010507881777"><ele>393.0</ele><time>2026-04-04T11:05:59.001Z</time></trkpt><trkpt lat="43.9952134338472" lon="12.285206337258812"><ele>393.0</ele><time>2026-04-04T11:06:00.001Z</time></trkpt><trkpt lat="43.995313853088675" lon="12.285399014739534"><ele>393.0</ele><time>2026-04-04T11:06:01.001Z</time></trkpt><trkpt lat="43.99540076553311" lon="12.285581687330737"><ele>393.0</ele><time>2026-04-04T11:06:02.001Z</time></trkpt><trkpt lat="43.99546621943312" lon="12.285766034865397"><ele>393.0</ele><time>2026-04-04T11:06:03.001Z</time></trkpt><trkpt lat="43.99551431969956" lon="12.285953129192809"><ele>393.0</ele><time>2026-04-04T11:06:04.001Z</time></trkpt><trkpt lat="43.99554806420241" lon="12.286148767978453"><ele>393.5</ele><time>2026-04-04T11:06:05.001Z</time></trkpt><trkpt lat="43.99557286865415" lon="12.286347414733923"><ele>394.0</ele><time>2026-04-04T11:06:06.001Z</time></trkpt><trkpt lat="43.995593586736476" lon="12.286548489152088"><ele>394.5</ele><time>2026-04-04T11:06:07.001Z</time></trkpt><trkpt lat="43.995609091111376" lon="12.286754898684613"><ele>395.0</ele><time>2026-04-04T11:06:08.001Z</time></trkpt><trkpt lat="43.995616925331475" lon="12.286959340220157"><ele>393.66666666666663</ele><time>2026-04-04T11:06:09.001Z</time></trkpt><trkpt lat="43.995624233465364" lon="12.28716451445061"><ele>392.33333333333337</ele><time>2026-04-04T11:06:10.001Z</time></trkpt><trkpt lat="43.995619175338504" lon="12.287374859597833"><ele>391.0</ele><time>2026-04-04T11:06:11.001Z</time></trkpt><trkpt lat="43.995592528364256" lon="12.28758513809931"><ele>390.33333333333337</ele><time>2026-04-04T11:06:12.001Z</time></trkpt><trkpt lat="43.99555553265266" lon="12.287793012113019"><ele>389.66666666666663</ele><time>2026-04-04T11:06:13.001Z</time></trkpt><trkpt lat="43.995494920095936" lon="12.288006069457506"><ele>389.0</ele><time>2026-04-04T11:06:14.001Z</time></trkpt><trkpt lat="43.9954343589877" lon="12.288213194857248"><ele>390.25</ele><time>2026-04-04T11:06:15.001Z</time></trkpt><trkpt lat="43.99537770472076" lon="12.288418778653854"><ele>391.5</ele><time>2026-04-04T11:06:16.001Z</time></trkpt><trkpt lat="43.99532328544527" lon="12.28861063779352"><ele>392.75</ele><time>2026-04-04T11:06:17.001Z</time></trkpt><trkpt lat="43.9952555112543" lon="12.288783101998227"><ele>394.0</ele><time>2026-04-04T11:06:18.001Z</time></trkpt><trkpt lat="43.99516978894733" lon="12.288931258102515"><ele>392.75</ele><time>2026-04-04T11:06:19.001Z</time></trkpt><trkpt lat="43.99507606096736" lon="12.289050863080494"><ele>391.5</ele><time>2026-04-04T11:06:20.001Z</time></trkpt><trkpt lat="43.99498676771423" lon="12.289172065154546"><ele>390.25</ele><time>2026-04-04T11:06:21.001Z</time></trkpt><trkpt lat="43.99489633073932" lon="12.28929958084211"><ele>389.0</ele><time>2026-04-04T11:06:22.001Z</time></trkpt><trkpt lat="43.99479945497876" lon="12.289422499861123"><ele>389.0</ele><time>2026-04-04T11:06:23.002Z</time></trkpt><trkpt lat="43.994688368439824" lon="12.289532387472683"><ele>389.0</ele><time>2026-04-04T11:06:24.002Z</time></trkpt><trkpt lat="43.994550609005294" lon="12.289619781662852"><ele>389.0</ele><time>2026-04-04T11:06:25.002Z</time></trkpt><trkpt lat="43.994416640663374" lon="12.289678106790294"><ele>389.0</ele><time>2026-04-04T11:06:26.002Z</time></trkpt><trkpt lat="43.99429220360312" lon="12.28971764586973"><ele>387.0</ele><time>2026-04-04T11:06:27.002Z</time></trkpt><trkpt lat="43.99416894059995" lon="12.289782593448304"><ele>385.0</ele><time>2026-04-04T11:06:28Z</time></trkpt><trkpt lat="43.9940578198991" lon="12.289895366005492"><ele>383.0</ele><time>2026-04-04T11:06:29Z</time></trkpt><trkpt lat="43.99395845828192" lon="12.290051752423622"><ele>381.0</ele><time>2026-04-04T11:06:30Z</time></trkpt><trkpt lat="43.99386544444774" lon="12.290210316051372"><ele>381.0</ele><time>2026-04-04T11:06:31Z</time></trkpt><trkpt lat="43.99377495392003" lon="12.290350023858126"><ele>381.0</ele><time>2026-04-04T11:06:32Z</time></trkpt><trkpt lat="43.99369797317034" lon="12.290465751957521"><ele>381.0</ele><time>2026-04-04T11:06:33Z</time></trkpt><trkpt lat="43.99365047955321" lon="12.290587552309042"><ele>381.0</ele><time>2026-04-04T11:06:34Z</time></trkpt><trkpt lat="43.99363694339503" lon="12.290735923569487"><ele>381.0</ele><time>2026-04-04T11:06:35Z</time></trkpt><trkpt lat="43.993661211763666" lon="12.290875582371488"><ele>381.0</ele><time>2026-04-04T11:06:36Z</time></trkpt><trkpt lat="43.99372287121574" lon="12.291000387032552"><ele>381.0</ele><time>2026-04-04T11:06:37Z</time></trkpt><trkpt lat="43.9938199268879" lon="12.291081214833548"><ele>381.0</ele><time>2026-04-04T11:06:38Z</time></trkpt><trkpt lat="43.99394904394577" lon="12.291106367465886"><ele>381.0</ele><time>2026-04-04T11:06:39Z</time></trkpt><trkpt lat="43.99409416283144" lon="12.291106957820894"><ele>381.0</ele><time>2026-04-04T11:06:40Z</time></trkpt><trkpt lat="43.9942600617242" lon="12.291105041483199"><ele>381.0</ele><time>2026-04-04T11:06:41Z</time></trkpt><trkpt lat="43.994439102927934" lon="12.291107804662358"><ele>383.0</ele><time>2026-04-04T11:06:42Z</time></trkpt><trkpt lat="43.99460745235068" lon="12.291107927369286"><ele>385.0</ele><time>2026-04-04T11:06:43Z</time></trkpt><trkpt lat="43.994759685082435" lon="12.291102544071205"><ele>387.0</ele><time>2026-04-04T11:06:44Z</time></trkpt><trkpt lat="43.99489370920131" lon="12.291127024859064"><ele>387.75</ele><time>2026-04-04T11:06:45Z</time></trkpt><trkpt lat="43.99501217807189" lon="12.291203985010506"><ele>388.5</ele><time>2026-04-04T11:06:46Z</time></trkpt><trkpt lat="43.99510258310337" lon="12.291312061897754"><ele>389.25</ele><time>2026-04-04T11:06:47Z</time></trkpt><trkpt lat="43.99515272242134" lon="12.291472690615928"><ele>390.0</ele><time>2026-04-04T11:06:48Z</time></trkpt><trkpt lat="43.99518337301952" lon="12.2916737089132"><ele>390.0</ele><time>2026-04-04T11:06:49Z</time></trkpt><trkpt lat="43.99521092462821" lon="12.291911640785235"><ele>390.0</ele><time>2026-04-04T11:06:50Z</time></trkpt><trkpt lat="43.995241464326554" lon="12.292135164169762"><ele>390.0</ele><time>2026-04-04T11:06:51Z</time></trkpt><trkpt lat="43.99527395755095" lon="12.292350045404211"><ele>387.0</ele><time>2026-04-04T11:06:52Z</time></trkpt><trkpt lat="43.995311429494215" lon="12.29255074237168"><ele>384.0</ele><time>2026-04-04T11:06:53Z</time></trkpt><trkpt lat="43.99535068448206" lon="12.29273754251115"><ele>381.0</ele><time>2026-04-04T11:06:54Z</time></trkpt><trkpt lat="43.99538070167675" lon="12.292908626485419"><ele>378.0</ele><time>2026-04-04T11:06:55Z</time></trkpt><trkpt lat="43.99540977375527" lon="12.293063244664907"><ele>375.5</ele><time>2026-04-04T11:06:56Z</time></trkpt><trkpt lat="43.99545277674664" lon="12.293218275922724"><ele>373.0</ele><time>2026-04-04T11:06:57Z</time></trkpt><trkpt lat="43.99551872582665" lon="12.293369600768967"><ele>370.5</ele><time>2026-04-04T11:06:58Z</time></trkpt><trkpt lat="43.99560650401087" lon="12.29350157484748"><ele>368.0</ele><time>2026-04-04T11:06:59Z</time></trkpt><trkpt lat="43.995709583210086" lon="12.293619535652605"><ele>368.0</ele><time>2026-04-04T11:07:00Z</time></trkpt><trkpt lat="43.99581040129009" lon="12.293730629719152"><ele>368.0</ele><time>2026-04-04T11:07:01Z</time></trkpt><trkpt lat="43.995910675625005" lon="12.293823924536875"><ele>368.0</ele><time>2026-04-04T11:07:02Z</time></trkpt><trkpt lat="43.996023233540846" lon="12.293883680570382"><ele>368.0</ele><time>2026-04-04T11:07:03Z</time></trkpt><trkpt lat="43.99616305215695" lon="12.293900160687905"><ele>368.33333333333337</ele><time>2026-04-04T11:07:04Z</time></trkpt><trkpt lat="43.996323864611654" lon="12.29387141923791"><ele>368.6666666666667</ele><time>2026-04-04T11:07:05Z</time></trkpt><trkpt lat="43.99649067665203" lon="12.293816315157374"><ele>369.0</ele><time>2026-04-04T11:07:06Z</time></trkpt><trkpt lat="43.99665154909756" lon="12.29378471331273"><ele>370.0</ele><time>2026-04-04T11:07:07Z</time></trkpt><trkpt lat="43.99680100601236" lon="12.29378615035304"><ele>371.0</ele><time>2026-04-04T11:07:08Z</time></trkpt><trkpt lat="43.99693808521232" lon="12.2938196305032"><ele>372.0</ele><time>2026-04-04T11:07:09Z</time></trkpt><trkpt lat="43.99707335558961" lon="12.2938803893463"><ele>373.0</ele><time>2026-04-04T11:07:10Z</time></trkpt><trkpt lat="43.9971928385286" lon="12.2939656517447"><ele>369.5</ele><time>2026-04-04T11:07:11.001Z</time></trkpt><trkpt lat="43.997301143330816" lon="12.294070641541907"><ele>366.0</ele><time>2026-04-04T11:07:12.001Z</time></trkpt><trkpt lat="43.99739396912092" lon="12.294197434093912"><ele>362.5</ele><time>2026-04-04T11:07:13.001Z</time></trkpt><trkpt lat="43.997468126800634" lon="12.294339481246753"><ele>359.0</ele><time>2026-04-04T11:07:14.001Z</time></trkpt><trkpt lat="43.99753041062985" lon="12.294498466813529"><ele>359.0</ele><time>2026-04-04T11:07:15.001Z</time></trkpt><trkpt lat="43.997582080051586" lon="12.294674833212827"><ele>359.0</ele><time>2026-04-04T11:07:16.001Z</time></trkpt><trkpt lat="43.99762619337221" lon="12.294847218714038"><ele>359.0</ele><time>2026-04-04T11:07:17.001Z</time></trkpt><trkpt lat="43.997662203096525" lon="12.295020544648311"><ele>359.0</ele><time>2026-04-04T11:07:18.001Z</time></trkpt><trkpt lat="43.997708982067614" lon="12.295183786893505"><ele>358.6</ele><time>2026-04-04T11:07:19.001Z</time></trkpt><trkpt lat="43.99777156464828" lon="12.29531682976066"><ele>358.2</ele><time>2026-04-04T11:07:20.001Z</time></trkpt><trkpt lat="43.997836298763985" lon="12.295429192360285"><ele>357.8</ele><time>2026-04-04T11:07:21.001Z</time></trkpt><trkpt lat="43.9979067956434" lon="12.295525684622715"><ele>357.40000000000003</ele><time>2026-04-04T11:07:22.001Z</time></trkpt><trkpt lat="43.99798226262856" lon="12.295612395698058"><ele>357.0</ele><time>2026-04-04T11:07:23.001Z</time></trkpt><trkpt lat="43.99806582727457" lon="12.295690042933419"><ele>354.6</ele><time>2026-04-04T11:07:24.001Z</time></trkpt><trkpt lat="43.99815392212687" lon="12.295757321124485"><ele>352.20000000000005</ele><time>2026-04-04T11:07:25.001Z</time></trkpt><trkpt lat="43.99824051305021" lon="12.295808562253676"><ele>349.8</ele><time>2026-04-04T11:07:26.001Z</time></trkpt><trkpt lat="43.998317453314975" lon="12.295848048916811"><ele>347.4</ele><time>2026-04-04T11:07:27.001Z</time></trkpt><trkpt lat="43.99839874288158" lon="12.295884535054928"><ele>345.0</ele><time>2026-04-04T11:07:28.001Z</time></trkpt><trkpt lat="43.99848916383191" lon="12.295920036722734"><ele>343.2</ele><time>2026-04-04T11:07:29.001Z</time></trkpt><trkpt lat="43.99858926370941" lon="12.295935346732827"><ele>341.4</ele><time>2026-04-04T11:07:30.001Z</time></trkpt><trkpt lat="43.9986874712937" lon="12.295919961270268"><ele>339.6</ele><time>2026-04-04T11:07:31.001Z</time></trkpt><trkpt lat="43.998781397940775" lon="12.295886433480065"><ele>337.8</ele><time>2026-04-04T11:07:32.001Z</time></trkpt><trkpt lat="43.99886991154834" lon="12.295851263795962"><ele>336.0</ele><time>2026-04-04T11:07:33.001Z</time></trkpt><trkpt lat="43.998952223573795" lon="12.295815906559458"><ele>336.0</ele><time>2026-04-04T11:07:34.001Z</time></trkpt><trkpt lat="43.99902477639525" lon="12.295774679954478"><ele>336.0</ele><time>2026-04-04T11:07:35.001Z</time></trkpt><trkpt lat="43.99908549156569" lon="12.295739559354276"><ele>336.0</ele><time>2026-04-04T11:07:36.001Z</time></trkpt><trkpt lat="43.999177493437045" lon="12.29572813819483"><ele>336.0</ele><time>2026-04-04T11:07:38.001Z</time></trkpt><trkpt lat="43.99922993661624" lon="12.295816666823516"><ele>336.0</ele><time>2026-04-04T11:07:40.001Z</time></trkpt><trkpt lat="43.99918531357955" lon="12.295926784931485"><ele>336.0</ele><time>2026-04-04T11:07:42.001Z</time></trkpt><trkpt lat="43.999121918256286" lon="12.295961525775734"><ele>336.0</ele><time>2026-04-04T11:07:43.001Z</time></trkpt><trkpt lat="43.99903743380201" lon="12.295962840315001"><ele>336.0</ele><time>2026-04-04T11:07:44.001Z</time></trkpt><trkpt lat="43.99895139978409" lon="12.295981229378963"><ele>336.0</ele><time>2026-04-04T11:07:45.001Z</time></trkpt><trkpt lat="43.998858363206494" lon="12.296020248493354"><ele>336.0</ele><time>2026-04-04T11:07:46.001Z</time></trkpt><trkpt lat="43.998752330448994" lon="12.296075442929688"><ele>336.0</ele><time>2026-04-04T11:07:47.001Z</time></trkpt><trkpt lat="43.998644092954265" lon="12.29614235062597"><ele>336.0</ele><time>2026-04-04T11:07:48.001Z</time></trkpt><trkpt lat="43.998539280263" lon="12.296208383004519"><ele>336.0</ele><time>2026-04-04T11:07:49.001Z</time></trkpt><trkpt lat="43.99843415846123" lon="12.296275279129013"><ele>336.0</ele><time>2026-04-04T11:07:50.001Z</time></trkpt><trkpt lat="43.99833519563778" lon="12.296343582854437"><ele>336.0</ele><time>2026-04-04T11:07:51.001Z</time></trkpt><trkpt lat="43.99823760935116" lon="12.296410211305785"><ele>334.6</ele><time>2026-04-04T11:07:52.001Z</time></trkpt><trkpt lat="43.99814392074171" lon="12.296470255394723"><ele>333.20000000000005</ele><time>2026-04-04T11:07:53.001Z</time></trkpt><trkpt lat="43.998052960334135" lon="12.296526991605186"><ele>331.79999999999995</ele><time>2026-04-04T11:07:54.001Z</time></trkpt><trkpt lat="43.997961192888646" lon="12.296582774867884"><ele>330.4</ele><time>2026-04-04T11:07:55.001Z</time></trkpt><trkpt lat="43.997867962975455" lon="12.296637502316038"><ele>329.0</ele><time>2026-04-04T11:07:56.001Z</time></trkpt><trkpt lat="43.99777993398103" lon="12.296690795121492"><ele>329.0</ele><time>2026-04-04T11:07:57.001Z</time></trkpt><trkpt lat="43.99770254630612" lon="12.2967438517847"><ele>329.0</ele><time>2026-04-04T11:07:58.001Z</time></trkpt><trkpt lat="43.99762531067467" lon="12.296789575385075"><ele>329.0</ele><time>2026-04-04T11:07:59.001Z</time></trkpt><trkpt lat="43.99754966624237" lon="12.296854600828668"><ele>329.0</ele><time>2026-04-04T11:08:00.001Z</time></trkpt><trkpt lat="43.997485037393794" lon="12.2969447283285"><ele>329.0</ele><time>2026-04-04T11:08:01.001Z</time></trkpt><trkpt lat="43.997432394978226" lon="12.297057172055425"><ele>329.0</ele><time>2026-04-04T11:08:02.001Z</time></trkpt><trkpt lat="43.99738923177965" lon="12.297182193720888"><ele>328.5</ele><time>2026-04-04T11:08:03.001Z</time></trkpt><trkpt lat="43.99735249780659" lon="12.297320329011605"><ele>328.0</ele><time>2026-04-04T11:08:04.001Z</time></trkpt><trkpt lat="43.99731625352658" lon="12.297470067468184"><ele>327.5</ele><time>2026-04-04T11:08:05.001Z</time></trkpt><trkpt lat="43.99728139460034" lon="12.297626142865164"><ele>327.0</ele><time>2026-04-04T11:08:06.001Z</time></trkpt><trkpt lat="43.99724807198028" lon="12.29777748751263"><ele>327.0</ele><time>2026-04-04T11:08:07.001Z</time></trkpt><trkpt lat="43.99721322758281" lon="12.297925488538509"><ele>327.0</ele><time>2026-04-04T11:08:08.001Z</time></trkpt><trkpt lat="43.9971616059526" lon="12.298064338996221"><ele>327.0</ele><time>2026-04-04T11:08:09.001Z</time></trkpt><trkpt lat="43.9970980674241" lon="12.298184749558903"><ele>327.0</ele><time>2026-04-04T11:08:10.001Z</time></trkpt><trkpt lat="43.997025355346224" lon="12.29828672435472"><ele>327.0</ele><time>2026-04-04T11:08:11.001Z</time></trkpt><trkpt lat="43.996950886996316" lon="12.298363567189629"><ele>327.1666666666667</ele><time>2026-04-04T11:08:12.001Z</time></trkpt><trkpt lat="43.99688401195098" lon="12.298433334953804"><ele>327.3333333333333</ele><time>2026-04-04T11:08:13.001Z</time></trkpt><trkpt lat="43.99681968386111" lon="12.298517023632213"><ele>327.5</ele><time>2026-04-04T11:08:14.001Z</time></trkpt><trkpt lat="43.996763628034614" lon="12.298623413765556"><ele>327.66666666666663</ele><time>2026-04-04T11:08:15.001Z</time></trkpt><trkpt lat="43.99672052308404" lon="12.298735696964629"><ele>327.8333333333333</ele><time>2026-04-04T11:08:16.001Z</time></trkpt><trkpt lat="43.99668605660427" lon="12.29884556897635"><ele>328.0</ele><time>2026-04-04T11:08:17.001Z</time></trkpt><trkpt lat="43.99665700089916" lon="12.298966009360283"><ele>328.0</ele><time>2026-04-04T11:08:18.001Z</time></trkpt><trkpt lat="43.99662728938327" lon="12.299087155270888"><ele>328.0</ele><time>2026-04-04T11:08:19.001Z</time></trkpt><trkpt lat="43.996602496944234" lon="12.299214123296725"><ele>328.0</ele><time>2026-04-04T11:08:20.001Z</time></trkpt><trkpt lat="43.996578757830335" lon="12.299351189626758"><ele>328.0</ele><time>2026-04-04T11:08:21.001Z</time></trkpt><trkpt lat="43.996549668673886" lon="12.299490961028264"><ele>328.0</ele><time>2026-04-04T11:08:22.001Z</time></trkpt><trkpt lat="43.99651795477646" lon="12.29964324557819"><ele>327.5</ele><time>2026-04-04T11:08:23.001Z</time></trkpt><trkpt lat="43.996481804619705" lon="12.299805411613697"><ele>327.0</ele><time>2026-04-04T11:08:24.001Z</time></trkpt><trkpt lat="43.996444172542866" lon="12.299971041548407"><ele>326.5</ele><time>2026-04-04T11:08:25.001Z</time></trkpt><trkpt lat="43.99639894043923" lon="12.300133460139673"><ele>326.0</ele><time>2026-04-04T11:08:26.001Z</time></trkpt><trkpt lat="43.99634575315697" lon="12.300288080512948"><ele>326.0</ele><time>2026-04-04T11:08:27.002Z</time></trkpt><trkpt lat="43.99627726777535" lon="12.300432468811923"><ele>326.0</ele><time>2026-04-04T11:08:28.002Z</time></trkpt><trkpt lat="43.99619343497267" lon="12.30056359061731"><ele>326.0</ele><time>2026-04-04T11:08:29.002Z</time></trkpt><trkpt lat="43.996109437893544" lon="12.300689596480098"><ele>326.0</ele><time>2026-04-04T11:08:30.002Z</time></trkpt><trkpt lat="43.99602189748305" lon="12.300808286167836"><ele>325.4</ele><time>2026-04-04T11:08:31.002Z</time></trkpt><trkpt lat="43.99593299238922" lon="12.300928979153571"><ele>324.8</ele><time>2026-04-04T11:08:32.002Z</time></trkpt><trkpt lat="43.995845167149085" lon="12.301032068341138"><ele>324.2</ele><time>2026-04-04T11:08:33.002Z</time></trkpt><trkpt lat="43.99577006909995" lon="12.301112166010999"><ele>323.59999999999997</ele><time>2026-04-04T11:08:34Z</time></trkpt><trkpt lat="43.99569693072934" lon="12.301182283793745"><ele>323.0</ele><time>2026-04-04T11:08:35Z</time></trkpt><trkpt lat="43.99561816824801" lon="12.30124745424407"><ele>322.4</ele><time>2026-04-04T11:08:36Z</time></trkpt><trkpt lat="43.9955286177951" lon="12.301297413100604"><ele>321.79999999999995</ele><time>2026-04-04T11:08:37Z</time></trkpt><trkpt lat="43.995428196505316" lon="12.301318398170572"><ele>321.2</ele><time>2026-04-04T11:08:38Z</time></trkpt><trkpt lat="43.99532034314274" lon="12.301317730735523"><ele>320.6</ele><time>2026-04-04T11:08:39Z</time></trkpt><trkpt lat="43.99520821818797" lon="12.301292898026716"><ele>320.0</ele><time>2026-04-04T11:08:40Z</time></trkpt><trkpt lat="43.99510138383817" lon="12.301250404763644"><ele>317.25</ele><time>2026-04-04T11:08:41Z</time></trkpt><trkpt lat="43.99499658501383" lon="12.30119643116503"><ele>314.5</ele><time>2026-04-04T11:08:42Z</time></trkpt><trkpt lat="43.99489605661282" lon="12.301130631011326"><ele>311.75</ele><time>2026-04-04T11:08:43Z</time></trkpt><trkpt lat="43.9947937312682" lon="12.30106384547699"><ele>309.0</ele><time>2026-04-04T11:08:44Z</time></trkpt><trkpt lat="43.994685312445476" lon="12.301014569489414"><ele>309.0</ele><time>2026-04-04T11:08:45Z</time></trkpt><trkpt lat="43.994573748031414" lon="12.300991105583963"><ele>309.0</ele><time>2026-04-04T11:08:46Z</time></trkpt><trkpt lat="43.99447003921039" lon="12.300998886322482"><ele>309.0</ele><time>2026-04-04T11:08:47Z</time></trkpt><trkpt lat="43.99436900427141" lon="12.301037430215775"><ele>309.0</ele><time>2026-04-04T11:08:48Z</time></trkpt><trkpt lat="43.994285325820975" lon="12.301138331036821"><ele>309.0</ele><time>2026-04-04T11:08:49Z</time></trkpt><trkpt lat="43.994216795596365" lon="12.301261529633955"><ele>308.2</ele><time>2026-04-04T11:08:50Z</time></trkpt><trkpt lat="43.99414168870839" lon="12.301368322092323"><ele>307.4</ele><time>2026-04-04T11:08:51Z</time></trkpt><trkpt lat="43.99404883353178" lon="12.301419909571008"><ele>306.6</ele><time>2026-04-04T11:08:52Z</time></trkpt><trkpt lat="43.993935518128374" lon="12.301426983631305"><ele>305.8</ele><time>2026-04-04T11:08:53Z</time></trkpt><trkpt lat="43.993824505432904" lon="12.301380785349933"><ele>305.0</ele><time>2026-04-04T11:08:54Z</time></trkpt><trkpt lat="43.993716264377426" lon="12.30129572678577"><ele>305.0</ele><time>2026-04-04T11:08:55Z</time></trkpt><trkpt lat="43.99360740825343" lon="12.301177576657858"><ele>305.0</ele><time>2026-04-04T11:08:56Z</time></trkpt><trkpt lat="43.99349963419956" lon="12.301037120746752"><ele>305.0</ele><time>2026-04-04T11:08:57Z</time></trkpt><trkpt lat="43.99340246369174" lon="12.30090209622162"><ele>305.0</ele><time>2026-04-04T11:08:58Z</time></trkpt><trkpt lat="43.99332192341885" lon="12.300805370669357"><ele>305.6666666666667</ele><time>2026-04-04T11:08:59Z</time></trkpt><trkpt lat="43.99326429602057" lon="12.30074453201333"><ele>306.33333333333337</ele><time>2026-04-04T11:09:00Z</time></trkpt><trkpt lat="43.993217831867796" lon="12.300677858113337"><ele>307.0</ele><time>2026-04-04T11:09:11.001Z</time></trkpt><trkpt lat="43.99316601077603" lon="12.30061007764447"><ele>307.6666666666667</ele><time>2026-04-04T11:09:18.001Z</time></trkpt><trkpt lat="43.99310886689647" lon="12.300545737756536"><ele>308.3333333333333</ele><time>2026-04-04T11:09:23.001Z</time></trkpt><trkpt lat="43.99303282070948" lon="12.300499355919507"><ele>309.0</ele><time>2026-04-04T11:09:28.001Z</time></trkpt><trkpt lat="43.99294537855111" lon="12.300474520915735"><ele>309.0</ele><time>2026-04-04T11:09:30.001Z</time></trkpt><trkpt lat="43.99281643716075" lon="12.300509756694938"><ele>309.0</ele><time>2026-04-04T11:09:32.001Z</time></trkpt><trkpt lat="43.99274565847996" lon="12.30056036962978"><ele>309.0</ele><time>2026-04-04T11:09:33.001Z</time></trkpt><trkpt lat="43.99267088314173" lon="12.300629547827437"><ele>309.0</ele><time>2026-04-04T11:09:34.001Z</time></trkpt><trkpt lat="43.9925897767659" lon="12.300687521210246"><ele>309.0</ele><time>2026-04-04T11:09:35.001Z</time></trkpt><trkpt lat="43.99249039142031" lon="12.300718765882616"><ele>310.0</ele><time>2026-04-04T11:09:36.001Z</time></trkpt><trkpt lat="43.99238188481648" lon="12.300719658929234"><ele>311.0</ele><time>2026-04-04T11:09:37.001Z</time></trkpt><trkpt lat="43.99227385632784" lon="12.300687316855917"><ele>312.0</ele><time>2026-04-04T11:09:38.001Z</time></trkpt><trkpt lat="43.99217278564836" lon="12.300611951358174"><ele>313.0</ele><time>2026-04-04T11:09:39.001Z</time></trkpt><trkpt lat="43.992080281999534" lon="12.300518086614048"><ele>314.0</ele><time>2026-04-04T11:09:40.001Z</time></trkpt><trkpt lat="43.99199388671358" lon="12.30043403116608"><ele>313.4</ele><time>2026-04-04T11:09:41.001Z</time></trkpt><trkpt lat="43.99191290165957" lon="12.30038223589377"><ele>312.79999999999995</ele><time>2026-04-04T11:09:42.001Z</time></trkpt><trkpt lat="43.99183201707289" lon="12.300368223167258"><ele>312.20000000000005</ele><time>2026-04-04T11:09:43.001Z</time></trkpt><trkpt lat="43.991746856431774" lon="12.300408305748704"><ele>311.6</ele><time>2026-04-04T11:09:44.001Z</time></trkpt><trkpt lat="43.99167279217382" lon="12.300481162457393"><ele>311.0</ele><time>2026-04-04T11:09:45.001Z</time></trkpt><trkpt lat="43.99160846702351" lon="12.300597520972019"><ele>311.0</ele><time>2026-04-04T11:09:46.001Z</time></trkpt><trkpt lat="43.99155978454213" lon="12.300742072915007"><ele>311.0</ele><time>2026-04-04T11:09:47.001Z</time></trkpt><trkpt lat="43.991511246384945" lon="12.300896618639351"><ele>311.0</ele><time>2026-04-04T11:09:48.001Z</time></trkpt><trkpt lat="43.99146400188672" lon="12.301052573087402"><ele>311.0</ele><time>2026-04-04T11:09:49.001Z</time></trkpt><trkpt lat="43.99139557050224" lon="12.30119005270028"><ele>311.0</ele><time>2026-04-04T11:09:50.001Z</time></trkpt><trkpt lat="43.99130301485645" lon="12.30128927171056"><ele>311.0</ele><time>2026-04-04T11:09:51.001Z</time></trkpt><trkpt lat="43.991203615814364" lon="12.30134367550129"><ele>311.0</ele><time>2026-04-04T11:09:52.001Z</time></trkpt><trkpt lat="43.991094110800645" lon="12.301349274818477"><ele>311.0</ele><time>2026-04-04T11:09:53.001Z</time></trkpt><trkpt lat="43.990986624584124" lon="12.301295897031455"><ele>311.0</ele><time>2026-04-04T11:09:54.001Z</time></trkpt><trkpt lat="43.99089052417732" lon="12.301199578870031"><ele>308.40000000000003</ele><time>2026-04-04T11:09:55.001Z</time></trkpt><trkpt lat="43.99080908068956" lon="12.301082918768824"><ele>305.8</ele><time>2026-04-04T11:09:56.001Z</time></trkpt><trkpt lat="43.99076023738658" lon="12.300946859472392"><ele>303.20000000000005</ele><time>2026-04-04T11:09:57.001Z</time></trkpt><trkpt lat="43.99072056517324" lon="12.300822202004854"><ele>300.6</ele><time>2026-04-04T11:09:58.001Z</time></trkpt><trkpt lat="43.99066374535096" lon="12.300724635921583"><ele>298.0</ele><time>2026-04-04T11:09:59.001Z</time></trkpt><trkpt lat="43.99058632758125" lon="12.300676423590508"><ele>298.0</ele><time>2026-04-04T11:10:00.001Z</time></trkpt><trkpt lat="43.99049830256443" lon="12.30068968975421"><ele>298.0</ele><time>2026-04-04T11:10:01.001Z</time></trkpt><trkpt lat="43.990425651529435" lon="12.300761917188478"><ele>298.0</ele><time>2026-04-04T11:10:02.001Z</time></trkpt><trkpt lat="43.99036950197203" lon="12.300878908248508"><ele>298.0</ele><time>2026-04-04T11:10:03.001Z</time></trkpt><trkpt lat="43.99031334460752" lon="12.301011037293735"><ele>298.0</ele><time>2026-04-04T11:10:04.001Z</time></trkpt><trkpt lat="43.99022923674405" lon="12.301108228343818"><ele>298.0</ele><time>2026-04-04T11:10:05.001Z</time></trkpt><trkpt lat="43.990134501381974" lon="12.301154057505707"><ele>298.0</ele><time>2026-04-04T11:10:06.001Z</time></trkpt><trkpt lat="43.990044910470345" lon="12.301183314669052"><ele>298.0</ele><time>2026-04-04T11:10:07.001Z</time></trkpt><trkpt lat="43.98996007344755" lon="12.301207033820912"><ele>298.0</ele><time>2026-04-04T11:10:08.001Z</time></trkpt><trkpt lat="43.989873958858546" lon="12.301228856160398"><ele>298.0</ele><time>2026-04-04T11:10:09.001Z</time></trkpt><trkpt lat="43.98978509253007" lon="12.30124630211221"><ele>296.4</ele><time>2026-04-04T11:10:10.001Z</time></trkpt><trkpt lat="43.98968981602034" lon="12.301276107154816"><ele>294.8</ele><time>2026-04-04T11:10:11.001Z</time></trkpt><trkpt lat="43.98959366307951" lon="12.30129924470614"><ele>293.2</ele><time>2026-04-04T11:10:12.001Z</time></trkpt><trkpt lat="43.98949578442848" lon="12.301291766147623"><ele>291.6</ele><time>2026-04-04T11:10:13.001Z</time></trkpt><trkpt lat="43.989395329839596" lon="12.301256348180113"><ele>290.0</ele><time>2026-04-04T11:10:14.001Z</time></trkpt><trkpt lat="43.989297338349594" lon="12.301182195230565"><ele>290.0</ele><time>2026-04-04T11:10:15.001Z</time></trkpt><trkpt lat="43.98920646188014" lon="12.301073730389662"><ele>290.0</ele><time>2026-04-04T11:10:16.001Z</time></trkpt><trkpt lat="43.98912709323588" lon="12.300934773989738"><ele>290.0</ele><time>2026-04-04T11:10:17.001Z</time></trkpt><trkpt lat="43.989055953057445" lon="12.30078907177842"><ele>290.0</ele><time>2026-04-04T11:10:18.001Z</time></trkpt><trkpt lat="43.98897944751226" lon="12.300648363985234"><ele>286.6</ele><time>2026-04-04T11:10:19.001Z</time></trkpt><trkpt lat="43.98890456221027" lon="12.300512345188118"><ele>283.2</ele><time>2026-04-04T11:10:20.001Z</time></trkpt><trkpt lat="43.98883495076726" lon="12.300377355186496"><ele>279.8</ele><time>2026-04-04T11:10:21.001Z</time></trkpt><trkpt lat="43.9887715653551" lon="12.300265634357558"><ele>276.4</ele><time>2026-04-04T11:10:22.001Z</time></trkpt><trkpt lat="43.988717391859474" lon="12.300170161364075"><ele>273.0</ele><time>2026-04-04T11:10:23.001Z</time></trkpt><trkpt lat="43.98866502029006" lon="12.300097830638997"><ele>273.0</ele><time>2026-04-04T11:10:24.001Z</time></trkpt><trkpt lat="43.98860308993513" lon="12.300062321235488"><ele>273.0</ele><time>2026-04-04T11:10:25.001Z</time></trkpt><trkpt lat="43.98851963751944" lon="12.300061922718827"><ele>273.0</ele><time>2026-04-04T11:10:26.001Z</time></trkpt><trkpt lat="43.98843693648152" lon="12.300103479454833"><ele>273.0</ele><time>2026-04-04T11:10:27.001Z</time></trkpt><trkpt lat="43.98835328227254" lon="12.300175436207555"><ele>273.0</ele><time>2026-04-04T11:10:28.001Z</time></trkpt><trkpt lat="43.988259434429864" lon="12.30025187457016"><ele>273.0</ele><time>2026-04-04T11:10:29.001Z</time></trkpt><trkpt lat="43.98815601560013" lon="12.30031835700061"><ele>275.0</ele><time>2026-04-04T11:10:30.001Z</time></trkpt><trkpt lat="43.98804638473947" lon="12.300355925297275"><ele>277.0</ele><time>2026-04-04T11:10:31.002Z</time></trkpt><trkpt lat="43.98793102870319" lon="12.30036679475941"><ele>279.0</ele><time>2026-04-04T11:10:32.002Z</time></trkpt><trkpt lat="43.98781676566857" lon="12.300337292828438"><ele>281.0</ele><time>2026-04-04T11:10:33.002Z</time></trkpt><trkpt lat="43.98771052141613" lon="12.300261423707651"><ele>281.0</ele><time>2026-04-04T11:10:34.002Z</time></trkpt><trkpt lat="43.98762975251923" lon="12.300144534007933"><ele>281.0</ele><time>2026-04-04T11:10:35.002Z</time></trkpt><trkpt lat="43.9875352385453" lon="12.299990267597131"><ele>281.0</ele><time>2026-04-04T11:10:36.002Z</time></trkpt><trkpt lat="43.98746472164707" lon="12.299822574164164"><ele>281.0</ele><time>2026-04-04T11:10:37.002Z</time></trkpt><trkpt lat="43.987414108473146" lon="12.299657629310385"><ele>278.0</ele><time>2026-04-04T11:10:38.002Z</time></trkpt><trkpt lat="43.98737294788021" lon="12.299499431775553"><ele>275.0</ele><time>2026-04-04T11:10:39.002Z</time></trkpt><trkpt lat="43.98732341290803" lon="12.299357250330287"><ele>272.0</ele><time>2026-04-04T11:10:40Z</time></trkpt><trkpt lat="43.98725723765741" lon="12.299240314553822"><ele>269.0</ele><time>2026-04-04T11:10:41Z</time></trkpt><trkpt lat="43.987165213533885" lon="12.299156686694335"><ele>269.0</ele><time>2026-04-04T11:10:42Z</time></trkpt><trkpt lat="43.98705295708921" lon="12.299129240349469"><ele>269.0</ele><time>2026-04-04T11:10:43Z</time></trkpt><trkpt lat="43.986937600098884" lon="12.299157146231035"><ele>269.0</ele><time>2026-04-04T11:10:44Z</time></trkpt><trkpt lat="43.98681962384317" lon="12.299216385294015"><ele>269.0</ele><time>2026-04-04T11:10:45Z</time></trkpt><trkpt lat="43.986694864522015" lon="12.299256030103791"><ele>270.75</ele><time>2026-04-04T11:10:46Z</time></trkpt><trkpt lat="43.9865664684712" lon="12.299224043288762"><ele>272.5</ele><time>2026-04-04T11:10:47Z</time></trkpt><trkpt lat="43.98645058125643" lon="12.299142851693912"><ele>274.25</ele><time>2026-04-04T11:10:48Z</time></trkpt><trkpt lat="43.986351817584705" lon="12.2990268676845"><ele>276.0</ele><time>2026-04-04T11:10:49Z</time></trkpt><trkpt lat="43.986261176257884" lon="12.29891130310217"><ele>275.40000000000003</ele><time>2026-04-04T11:10:50Z</time></trkpt><trkpt lat="43.98616136177716" lon="12.29883799326788"><ele>274.8</ele><time>2026-04-04T11:10:51Z</time></trkpt><trkpt lat="43.98605794708218" lon="12.298815896733993"><ele>274.20000000000005</ele><time>2026-04-04T11:10:52Z</time></trkpt><trkpt lat="43.98595719771711" lon="12.29882899461323"><ele>273.6</ele><time>2026-04-04T11:10:53Z</time></trkpt><trkpt lat="43.98585708269739" lon="12.298878296358126"><ele>273.0</ele><time>2026-04-04T11:10:54Z</time></trkpt><trkpt lat="43.9857560468575" lon="12.29897154373323"><ele>273.0</ele><time>2026-04-04T11:10:55Z</time></trkpt><trkpt lat="43.98564905007246" lon="12.299070860273229"><ele>273.0</ele><time>2026-04-04T11:10:56Z</time></trkpt><trkpt lat="43.98553535229149" lon="12.299175169775243"><ele>273.0</ele><time>2026-04-04T11:10:57Z</time></trkpt><trkpt lat="43.98541894817156" lon="12.299288029840636"><ele>273.0</ele><time>2026-04-04T11:10:58Z</time></trkpt><trkpt lat="43.98530422354188" lon="12.299418900758855"><ele>273.0</ele><time>2026-04-04T11:10:59Z</time></trkpt><trkpt lat="43.985193647013325" lon="12.299548650874778"><ele>273.0</ele><time>2026-04-04T11:11:00Z</time></trkpt><trkpt lat="43.98509260835777" lon="12.299674689384997"><ele>273.0</ele><time>2026-04-04T11:11:01Z</time></trkpt><trkpt lat="43.984998023638894" lon="12.299798769095993"><ele>273.0</ele><time>2026-04-04T11:11:02Z</time></trkpt><trkpt lat="43.984907378927424" lon="12.299908946429452"><ele>271.25</ele><time>2026-04-04T11:11:03Z</time></trkpt><trkpt lat="43.984827098978826" lon="12.30002391984173"><ele>269.5</ele><time>2026-04-04T11:11:04Z</time></trkpt><trkpt lat="43.9847637296469" lon="12.300172529016631"><ele>267.75</ele><time>2026-04-04T11:11:05Z</time></trkpt><trkpt lat="43.98471992924913" lon="12.30034978117325"><ele>266.0</ele><time>2026-04-04T11:11:06Z</time></trkpt><trkpt lat="43.9846797241443" lon="12.30053307269543"><ele>267.5</ele><time>2026-04-04T11:11:07Z</time></trkpt><trkpt lat="43.984622920459614" lon="12.300704657184431"><ele>269.0</ele><time>2026-04-04T11:11:08Z</time></trkpt><trkpt lat="43.98455318310165" lon="12.300855258679354"><ele>270.5</ele><time>2026-04-04T11:11:09Z</time></trkpt><trkpt lat="43.984491443120255" lon="12.300991284255561"><ele>272.0</ele><time>2026-04-04T11:11:10Z</time></trkpt><trkpt lat="43.984441012414585" lon="12.301130515612412"><ele>272.0</ele><time>2026-04-04T11:11:11Z</time></trkpt><trkpt lat="43.98440328103422" lon="12.301261997651732"><ele>272.0</ele><time>2026-04-04T11:11:12Z</time></trkpt><trkpt lat="43.98438011457072" lon="12.301386561887282"><ele>272.0</ele><time>2026-04-04T11:11:13Z</time></trkpt><trkpt lat="43.98438006078084" lon="12.301519222864364"><ele>272.0</ele><time>2026-04-04T11:11:14Z</time></trkpt><trkpt lat="43.98440599476525" lon="12.301646371141182"><ele>272.0</ele><time>2026-04-04T11:11:15Z</time></trkpt><trkpt lat="43.984457061433204" lon="12.301765898951777"><ele>269.5</ele><time>2026-04-04T11:11:16Z</time></trkpt><trkpt lat="43.98452693312928" lon="12.301870033424137"><ele>267.0</ele><time>2026-04-04T11:11:17Z</time></trkpt><trkpt lat="43.98461947161542" lon="12.301952438002655"><ele>264.5</ele><time>2026-04-04T11:11:18Z</time></trkpt><trkpt lat="43.98473132341717" lon="12.30200263477346"><ele>262.0</ele><time>2026-04-04T11:11:19Z</time></trkpt><trkpt lat="43.98485251410679" lon="12.302027266849699"><ele>262.0</ele><time>2026-04-04T11:11:20Z</time></trkpt><trkpt lat="43.98497754909908" lon="12.302042509816264"><ele>262.0</ele><time>2026-04-04T11:11:21Z</time></trkpt><trkpt lat="43.98510593767726" lon="12.302060075096342"><ele>262.0</ele><time>2026-04-04T11:11:22Z</time></trkpt><trkpt lat="43.98522528054111" lon="12.302076062642543"><ele>262.0</ele><time>2026-04-04T11:11:23Z</time></trkpt><trkpt lat="43.98533114587753" lon="12.302091982765598"><ele>262.5</ele><time>2026-04-04T11:11:24Z</time></trkpt><trkpt lat="43.98541173113085" lon="12.302137345964999"><ele>263.0</ele><time>2026-04-04T11:11:25.001Z</time></trkpt><trkpt lat="43.985462181971485" lon="12.302225746660303"><ele>263.5</ele><time>2026-04-04T11:11:26.001Z</time></trkpt><trkpt lat="43.98548736573843" lon="12.302342280458413"><ele>264.0</ele><time>2026-04-04T11:11:27.001Z</time></trkpt><trkpt lat="43.98546546848119" lon="12.302453350961803"><ele>264.5</ele><time>2026-04-04T11:11:28.001Z</time></trkpt><trkpt lat="43.9854099781404" lon="12.302537901903106"><ele>265.0</ele><time>2026-04-04T11:11:29.001Z</time></trkpt><trkpt lat="43.98532629453491" lon="12.302573890417865"><ele>261.2</ele><time>2026-04-04T11:11:30.001Z</time></trkpt><trkpt lat="43.98523280385996" lon="12.302576126300588"><ele>257.4</ele><time>2026-04-04T11:11:31.001Z</time></trkpt><trkpt lat="43.985131412280055" lon="12.302547416300174"><ele>253.60000000000002</ele><time>2026-04-04T11:11:32.001Z</time></trkpt><trkpt lat="43.985022442368184" lon="12.302516013816945"><ele>249.8</ele><time>2026-04-04T11:11:33.001Z</time></trkpt><trkpt lat="43.984903291726894" lon="12.302480509893055"><ele>246.0</ele><time>2026-04-04T11:11:34.001Z</time></trkpt><trkpt lat="43.98477965508578" lon="12.302436267185834"><ele>245.75</ele><time>2026-04-04T11:11:35.001Z</time></trkpt><trkpt lat="43.98465950552268" lon="12.302389910568523"><ele>245.5</ele><time>2026-04-04T11:11:36.001Z</time></trkpt><trkpt lat="43.98454137756588" lon="12.302324092513762"><ele>245.25</ele><time>2026-04-04T11:11:37.001Z</time></trkpt><trkpt lat="43.984425233838294" lon="12.302238879891625"><ele>245.0</ele><time>2026-04-04T11:11:38.001Z</time></trkpt><trkpt lat="43.984324914295456" lon="12.302135702228991"><ele>244.5</ele><time>2026-04-04T11:11:39.001Z</time></trkpt><trkpt lat="43.984232453631485" lon="12.30202381276012"><ele>244.0</ele><time>2026-04-04T11:11:40.001Z</time></trkpt><trkpt lat="43.98414544524527" lon="12.301904586224616"><ele>243.5</ele><time>2026-04-04T11:11:41.001Z</time></trkpt><trkpt lat="43.984072581185934" lon="12.301770978078714"><ele>243.0</ele><time>2026-04-04T11:11:42.001Z</time></trkpt><trkpt lat="43.984021596763775" lon="12.30162548901936"><ele>243.0</ele><time>2026-04-04T11:11:43.001Z</time></trkpt><trkpt lat="43.9839942188213" lon="12.301470567509536"><ele>243.0</ele><time>2026-04-04T11:11:44.001Z</time></trkpt><trkpt lat="43.983991822336094" lon="12.30131529756483"><ele>243.0</ele><time>2026-04-04T11:11:45.001Z</time></trkpt><trkpt lat="43.98400841602457" lon="12.301153427985934"><ele>243.0</ele><time>2026-04-04T11:11:46.001Z</time></trkpt><trkpt lat="43.984036844282215" lon="12.300988122051507"><ele>242.25</ele><time>2026-04-04T11:11:47.001Z</time></trkpt><trkpt lat="43.984068682082544" lon="12.300810681169871"><ele>241.5</ele><time>2026-04-04T11:11:48.001Z</time></trkpt><trkpt lat="43.98409931558905" lon="12.3006307625559"><ele>240.75</ele><time>2026-04-04T11:11:49.001Z</time></trkpt><trkpt lat="43.98413284003798" lon="12.300448125314725"><ele>240.0</ele><time>2026-04-04T11:11:50.001Z</time></trkpt><trkpt lat="43.98416616802108" lon="12.30026595020314"><ele>242.25</ele><time>2026-04-04T11:11:51.001Z</time></trkpt><trkpt lat="43.9841953150716" lon="12.300086315377483"><ele>244.5</ele><time>2026-04-04T11:11:52.001Z</time></trkpt><trkpt lat="43.98420652121215" lon="12.299906643637758"><ele>246.75</ele><time>2026-04-04T11:11:53.001Z</time></trkpt><trkpt lat="43.98419685358791" lon="12.299715388792743"><ele>249.0</ele><time>2026-04-04T11:11:54.001Z</time></trkpt><trkpt lat="43.984182392545634" lon="12.299526401620202"><ele>249.0</ele><time>2026-04-04T11:11:55.001Z</time></trkpt><trkpt lat="43.98418028558363" lon="12.29934312190382"><ele>249.0</ele><time>2026-04-04T11:11:56.001Z</time></trkpt><trkpt lat="43.98419741817766" lon="12.299150316770213"><ele>249.0</ele><time>2026-04-04T11:11:57.001Z</time></trkpt><trkpt lat="43.984240167995466" lon="12.298962739412252"><ele>249.0</ele><time>2026-04-04T11:11:58.001Z</time></trkpt><trkpt lat="43.98430040753354" lon="12.29879704854756"><ele>245.6</ele><time>2026-04-04T11:11:59.001Z</time></trkpt><trkpt lat="43.98435319402423" lon="12.298653608464349"><ele>242.2</ele><time>2026-04-04T11:12:00.001Z</time></trkpt><trkpt lat="43.9843926766706" lon="12.298512602155888"><ele>238.79999999999998</ele><time>2026-04-04T11:12:01.001Z</time></trkpt><trkpt lat="43.98440814925362" lon="12.298402637366598"><ele>235.39999999999998</ele><time>2026-04-04T11:12:02.001Z</time></trkpt><trkpt lat="43.984398494663964" lon="12.298300571637158"><ele>232.0</ele><time>2026-04-04T11:12:03.001Z</time></trkpt><trkpt lat="43.98435125573496" lon="12.298206723741812"><ele>232.0</ele><time>2026-04-04T11:12:04.001Z</time></trkpt><trkpt lat="43.98427691088822" lon="12.298145411011825"><ele>232.0</ele><time>2026-04-04T11:12:05.001Z</time></trkpt><trkpt lat="43.98418995555459" lon="12.298137288536232"><ele>232.0</ele><time>2026-04-04T11:12:06.001Z</time></trkpt><trkpt lat="43.984115037714645" lon="12.298188080164403"><ele>232.0</ele><time>2026-04-04T11:12:07.001Z</time></trkpt><trkpt lat="43.98405893954701" lon="12.298289126580393"><ele>232.0</ele><time>2026-04-04T11:12:08.001Z</time></trkpt><trkpt lat="43.984031599207334" lon="12.298426475457005"><ele>230.5</ele><time>2026-04-04T11:12:09.001Z</time></trkpt><trkpt lat="43.984023037080014" lon="12.298585638204354"><ele>229.0</ele><time>2026-04-04T11:12:10.001Z</time></trkpt><trkpt lat="43.98401105674684" lon="12.29875852134866"><ele>227.5</ele><time>2026-04-04T11:12:11.001Z</time></trkpt><trkpt lat="43.98397490463572" lon="12.298940915002985"><ele>226.0</ele><time>2026-04-04T11:12:12.001Z</time></trkpt><trkpt lat="43.983916778117866" lon="12.299129377602096"><ele>226.0</ele><time>2026-04-04T11:12:13.001Z</time></trkpt><trkpt lat="43.983840766137966" lon="12.299312111517876"><ele>226.0</ele><time>2026-04-04T11:12:14.001Z</time></trkpt><trkpt lat="43.983750079769464" lon="12.299487673673836"><ele>226.0</ele><time>2026-04-04T11:12:15.001Z</time></trkpt><trkpt lat="43.98365799745657" lon="12.299664550247638"><ele>228.33333333333331</ele><time>2026-04-04T11:12:16.001Z</time></trkpt><trkpt lat="43.983564897424735" lon="12.299842505002493"><ele>230.66666666666669</ele><time>2026-04-04T11:12:17.001Z</time></trkpt><trkpt lat="43.98347131851082" lon="12.300018831572023"><ele>233.0</ele><time>2026-04-04T11:12:18.001Z</time></trkpt><trkpt lat="43.98337901671081" lon="12.300194870247319"><ele>226.33333333333334</ele><time>2026-04-04T11:12:19.001Z</time></trkpt><trkpt lat="43.98328258278141" lon="12.30037639643058"><ele>219.66666666666669</ele><time>2026-04-04T11:12:20.001Z</time></trkpt><trkpt lat="43.983188672991425" lon="12.300564141230398"><ele>213.0</ele><time>2026-04-04T11:12:21.001Z</time></trkpt><trkpt lat="43.98309406309482" lon="12.300744525482996"><ele>213.0</ele><time>2026-04-04T11:12:22.001Z</time></trkpt><trkpt lat="43.983006401844534" lon="12.300913471813377"><ele>213.0</ele><time>2026-04-04T11:12:23.001Z</time></trkpt><trkpt lat="43.98292372406645" lon="12.301072750353619"><ele>213.0</ele><time>2026-04-04T11:12:24.001Z</time></trkpt><trkpt lat="43.982837756804116" lon="12.301221390983699"><ele>213.0</ele><time>2026-04-04T11:12:25.001Z</time></trkpt><trkpt lat="43.98275271468894" lon="12.301361471790914"><ele>214.0</ele><time>2026-04-04T11:12:26.001Z</time></trkpt><trkpt lat="43.98266956769777" lon="12.301496309956152"><ele>215.0</ele><time>2026-04-04T11:12:27.001Z</time></trkpt><trkpt lat="43.98258757506584" lon="12.301621861151713"><ele>216.0</ele><time>2026-04-04T11:12:28.001Z</time></trkpt><trkpt lat="43.98250657259225" lon="12.301739850371911"><ele>217.0</ele><time>2026-04-04T11:12:29.001Z</time></trkpt><trkpt lat="43.98242686987796" lon="12.301848219197337"><ele>213.2</ele><time>2026-04-04T11:12:30.001Z</time></trkpt><trkpt lat="43.982352800664614" lon="12.301958336060949"><ele>209.39999999999998</ele><time>2026-04-04T11:12:31.001Z</time></trkpt><trkpt lat="43.982281089578024" lon="12.302065407633712"><ele>205.60000000000002</ele><time>2026-04-04T11:12:32.001Z</time></trkpt><trkpt lat="43.98222428867073" lon="12.302185861442625"><ele>201.8</ele><time>2026-04-04T11:12:33.001Z</time></trkpt><trkpt lat="43.98220070569998" lon="12.302334281429772"><ele>198.0</ele><time>2026-04-04T11:12:34.001Z</time></trkpt><trkpt lat="43.98221298319748" lon="12.302487220352265"><ele>198.0</ele><time>2026-04-04T11:12:35.001Z</time></trkpt><trkpt lat="43.982257453388534" lon="12.302634896382452"><ele>198.0</ele><time>2026-04-04T11:12:36.001Z</time></trkpt><trkpt lat="43.982327883726676" lon="12.302765678287136"><ele>198.0</ele><time>2026-04-04T11:12:37.001Z</time></trkpt><trkpt lat="43.982413941398804" lon="12.302874453457296"><ele>198.0</ele><time>2026-04-04T11:12:38.001Z</time></trkpt><trkpt lat="43.98249865220368" lon="12.30296810425327"><ele>197.83333333333334</ele><time>2026-04-04T11:12:39.001Z</time></trkpt><trkpt lat="43.982552845559056" lon="12.303070039376777"><ele>197.66666666666669</ele><time>2026-04-04T11:12:40.001Z</time></trkpt><trkpt lat="43.982572212443934" lon="12.303185123809675"><ele>197.5</ele><time>2026-04-04T11:12:41.001Z</time></trkpt><trkpt lat="43.98255715759965" lon="12.30329664612281"><ele>197.33333333333334</ele><time>2026-04-04T11:12:42.001Z</time></trkpt><trkpt lat="43.982497846683884" lon="12.303381584589504"><ele>197.16666666666669</ele><time>2026-04-04T11:12:43.001Z</time></trkpt><trkpt lat="43.98241626717696" lon="12.303406079560387"><ele>197.0</ele><time>2026-04-04T11:12:44.001Z</time></trkpt><trkpt lat="43.982336261630046" lon="12.303370467678084"><ele>197.25</ele><time>2026-04-04T11:12:45.001Z</time></trkpt><trkpt lat="43.98226394667046" lon="12.303280578541052"><ele>197.5</ele><time>2026-04-04T11:12:46Z</time></trkpt><trkpt lat="43.982202238187725" lon="12.303150673170439"><ele>197.75</ele><time>2026-04-04T11:12:47Z</time></trkpt><trkpt lat="43.98213947265007" lon="12.30300054722834"><ele>198.0</ele><time>2026-04-04T11:12:48Z</time></trkpt><trkpt lat="43.98208150545115" lon="12.302833440621232"><ele>198.0</ele><time>2026-04-04T11:12:49Z</time></trkpt><trkpt lat="43.98202713464314" lon="12.302658026761113"><ele>198.0</ele><time>2026-04-04T11:12:50Z</time></trkpt><trkpt lat="43.98198082902898" lon="12.302476713606744"><ele>198.0</ele><time>2026-04-04T11:12:51Z</time></trkpt><trkpt lat="43.98194981423976" lon="12.302293891831726"><ele>198.0</ele><time>2026-04-04T11:12:52Z</time></trkpt><trkpt lat="43.981934191556654" lon="12.302111075468705"><ele>198.0</ele><time>2026-04-04T11:12:53Z</time></trkpt><trkpt lat="43.981942950790206" lon="12.301930825191729"><ele>198.0</ele><time>2026-04-04T11:12:54Z</time></trkpt><trkpt lat="43.981968918312425" lon="12.30175526832833"><ele>198.0</ele><time>2026-04-04T11:12:55Z</time></trkpt><trkpt lat="43.982002186996446" lon="12.30158170845783"><ele>198.0</ele><time>2026-04-04T11:12:56Z</time></trkpt><trkpt lat="43.98204664748157" lon="12.301409706097347"><ele>196.25</ele><time>2026-04-04T11:12:57Z</time></trkpt><trkpt lat="43.98209705644946" lon="12.301255010961933"><ele>194.5</ele><time>2026-04-04T11:12:58Z</time></trkpt><trkpt lat="43.98215561456213" lon="12.301111125246901"><ele>192.75</ele><time>2026-04-04T11:12:59Z</time></trkpt><trkpt lat="43.98221493847863" lon="12.300980234173611"><ele>191.0</ele><time>2026-04-04T11:13:00Z</time></trkpt><trkpt lat="43.98226740431535" lon="12.300862747242373"><ele>191.0</ele><time>2026-04-04T11:13:01Z</time></trkpt><trkpt lat="43.98230407601376" lon="12.300737844224528"><ele>191.0</ele><time>2026-04-04T11:13:02Z</time></trkpt><trkpt lat="43.98231320250043" lon="12.300608924692465"><ele>191.0</ele><time>2026-04-04T11:13:03Z</time></trkpt><trkpt lat="43.98228415735967" lon="12.300491415489924"><ele>191.0</ele><time>2026-04-04T11:13:04Z</time></trkpt><trkpt lat="43.98221896664769" lon="12.300402605160873"><ele>191.0</ele><time>2026-04-04T11:13:05Z</time></trkpt><trkpt lat="43.98213036729802" lon="12.300365077267623"><ele>191.0</ele><time>2026-04-04T11:13:06Z</time></trkpt><trkpt lat="43.98204409108981" lon="12.300398596796091"><ele>191.0</ele><time>2026-04-04T11:13:07Z</time></trkpt><trkpt lat="43.981983091703626" lon="12.300481430542366"><ele>191.0</ele><time>2026-04-04T11:13:08Z</time></trkpt><trkpt lat="43.98193678875318" lon="12.300595591162192"><ele>191.0</ele><time>2026-04-04T11:13:09Z</time></trkpt><trkpt lat="43.981896240638946" lon="12.300739388994288"><ele>191.0</ele><time>2026-04-04T11:13:10Z</time></trkpt><trkpt lat="43.98184449397127" lon="12.30089220218855"><ele>191.0</ele><time>2026-04-04T11:13:11Z</time></trkpt><trkpt lat="43.98178760160646" lon="12.30105540803072"><ele>191.0</ele><time>2026-04-04T11:13:12Z</time></trkpt><trkpt lat="43.98172445054604" lon="12.301223417159006"><ele>191.0</ele><time>2026-04-04T11:13:13Z</time></trkpt><trkpt lat="43.981663379279176" lon="12.301374881223357"><ele>191.0</ele><time>2026-04-04T11:13:14Z</time></trkpt><trkpt lat="43.981605904339276" lon="12.301512499121033"><ele>187.8</ele><time>2026-04-04T11:13:15Z</time></trkpt><trkpt lat="43.98154976996079" lon="12.301642243019831"><ele>184.60000000000002</ele><time>2026-04-04T11:13:16Z</time></trkpt><trkpt lat="43.9814976782703" lon="12.301769361350836"><ele>181.4</ele><time>2026-04-04T11:13:17Z</time></trkpt><trkpt lat="43.98144982313925" lon="12.301886690018595"><ele>178.2</ele><time>2026-04-04T11:13:18Z</time></trkpt><trkpt lat="43.98140982330964" lon="12.302006058279504"><ele>175.0</ele><time>2026-04-04T11:13:19Z</time></trkpt><trkpt lat="43.981364111988306" lon="12.302125254484878"><ele>175.0</ele><time>2026-04-04T11:13:20Z</time></trkpt><trkpt lat="43.98131849821552" lon="12.302245387021918"><ele>175.0</ele><time>2026-04-04T11:13:21Z</time></trkpt><trkpt lat="43.98127252295497" lon="12.302367791661094"><ele>175.0</ele><time>2026-04-04T11:13:22Z</time></trkpt><trkpt lat="43.981225409523105" lon="12.302483205305302"><ele>175.0</ele><time>2026-04-04T11:13:23Z</time></trkpt><trkpt lat="43.98118072256229" lon="12.302593818856653"><ele>175.0</ele><time>2026-04-04T11:13:24Z</time></trkpt><trkpt lat="43.98114241099255" lon="12.302697113046754"><ele>175.66666666666669</ele><time>2026-04-04T11:13:25Z</time></trkpt><trkpt lat="43.981109871243625" lon="12.302782573465635"><ele>176.33333333333334</ele><time>2026-04-04T11:13:26Z</time></trkpt><trkpt lat="43.98105344224156" lon="12.30291109420703"><ele>177.0</ele><time>2026-04-04T11:13:28Z</time></trkpt><trkpt lat="43.98098457007006" lon="12.302916196728374"><ele>177.66666666666666</ele><time>2026-04-04T11:13:32Z</time></trkpt><trkpt lat="43.98090720405549" lon="12.302883900922737"><ele>178.33333333333331</ele><time>2026-04-04T11:17:44Z</time></trkpt><trkpt lat="43.98083506183753" lon="12.302827165334213"><ele>179.0</ele><time>2026-04-04T11:17:46Z</time></trkpt><trkpt lat="43.98073926291488" lon="12.302725780355319"><ele>176.33333333333331</ele><time>2026-04-04T11:17:48Z</time></trkpt><trkpt lat="43.98068187500792" lon="12.302670696600197"><ele>173.66666666666666</ele><time>2026-04-04T11:17:49Z</time></trkpt><trkpt lat="43.98062267737589" lon="12.302612399354564"><ele>171.0</ele><time>2026-04-04T11:17:50Z</time></trkpt><trkpt lat="43.98056132812359" lon="12.302543743704303"><ele>168.33333333333334</ele><time>2026-04-04T11:17:51Z</time></trkpt><trkpt lat="43.980493956076124" lon="12.302475463145685"><ele>165.66666666666669</ele><time>2026-04-04T11:17:52Z</time></trkpt><trkpt lat="43.98042277661612" lon="12.30240835052674"><ele>163.0</ele><time>2026-04-04T11:17:53Z</time></trkpt><trkpt lat="43.98035474046871" lon="12.302353626690016"><ele>163.0</ele><time>2026-04-04T11:17:54Z</time></trkpt><trkpt lat="43.98028956154746" lon="12.302317827317166"><ele>163.0</ele><time>2026-04-04T11:17:55Z</time></trkpt><trkpt lat="43.98023048854539" lon="12.30228718626415"><ele>163.0</ele><time>2026-04-04T11:17:56Z</time></trkpt><trkpt lat="43.980123117380295" lon="12.302240882261058"><ele>163.0</ele><time>2026-04-04T11:17:58Z</time></trkpt><trkpt lat="43.980070732560534" lon="12.302187036692283"><ele>163.0</ele><time>2026-04-04T11:18:00Z</time></trkpt><trkpt lat="43.98010789145875" lon="12.302049344732048"><ele>163.0</ele><time>2026-04-04T11:18:02Z</time></trkpt><trkpt lat="43.98016604565353" lon="12.301984454673331"><ele>163.5</ele><time>2026-04-04T11:18:03Z</time></trkpt><trkpt lat="43.980255420529446" lon="12.301887888304442"><ele>164.0</ele><time>2026-04-04T11:18:05Z</time></trkpt><trkpt lat="43.98024278153077" lon="12.301784831503662"><ele>164.5</ele><time>2026-04-04T11:18:07Z</time></trkpt><trkpt lat="43.980135369244216" lon="12.301790702641227"><ele>165.0</ele><time>2026-04-04T11:18:09.001Z</time></trkpt><trkpt lat="43.98008296546627" lon="12.301853790271954"><ele>165.5</ele><time>2026-04-04T11:18:10.001Z</time></trkpt><trkpt lat="43.98002088334958" lon="12.30190051598712"><ele>166.0</ele><time>2026-04-04T11:18:11.001Z</time></trkpt><trkpt lat="43.97993920369022" lon="12.30190390138075"><ele>167.33333333333334</ele><time>2026-04-04T11:18:12.001Z</time></trkpt><trkpt lat="43.9798577634872" lon="12.301868341943429"><ele>168.66666666666669</ele><time>2026-04-04T11:18:13.001Z</time></trkpt><trkpt lat="43.979780648000464" lon="12.3018080415548"><ele>170.0</ele><time>2026-04-04T11:18:14.001Z</time></trkpt><trkpt lat="43.97971768450867" lon="12.30173293955732"><ele>171.33333333333334</ele><time>2026-04-04T11:18:15.001Z</time></trkpt><trkpt lat="43.979680254738945" lon="12.301638619883065"><ele>172.66666666666666</ele><time>2026-04-04T11:18:16.001Z</time></trkpt><trkpt lat="43.979678489043785" lon="12.301532613524405"><ele>174.0</ele><time>2026-04-04T11:18:17.001Z</time></trkpt><trkpt lat="43.979704057523534" lon="12.30142364447089"><ele>173.16666666666666</ele><time>2026-04-04T11:18:18.001Z</time></trkpt><trkpt lat="43.97975609424202" lon="12.301326970986567"><ele>172.33333333333334</ele><time>2026-04-04T11:18:19.001Z</time></trkpt><trkpt lat="43.97982536810769" lon="12.301253262578909"><ele>171.5</ele><time>2026-04-04T11:18:20.001Z</time></trkpt><trkpt lat="43.979905031223076" lon="12.301205707893676"><ele>170.66666666666669</ele><time>2026-04-04T11:18:21.001Z</time></trkpt><trkpt lat="43.979991166532166" lon="12.30119378744704"><ele>169.83333333333334</ele><time>2026-04-04T11:18:22.001Z</time></trkpt><trkpt lat="43.980075169243186" lon="12.301177788285349"><ele>169.0</ele><time>2026-04-04T11:18:23.001Z</time></trkpt><trkpt lat="43.98014561346121" lon="12.301127413713452"><ele>169.0</ele><time>2026-04-04T11:18:24.001Z</time></trkpt><trkpt lat="43.980191031613856" lon="12.30105810484419"><ele>169.0</ele><time>2026-04-04T11:18:25.001Z</time></trkpt><trkpt lat="43.980204789889314" lon="12.30097196178548"><ele>169.0</ele><time>2026-04-04T11:18:26.001Z</time></trkpt><trkpt lat="43.98018067959485" lon="12.300890517229561"><ele>169.0</ele><time>2026-04-04T11:18:27.001Z</time></trkpt><trkpt lat="43.98011447992926" lon="12.300841175018112"><ele>169.0</ele><time>2026-04-04T11:18:28.001Z</time></trkpt><trkpt lat="43.98001557697962" lon="12.30082153829921"><ele>169.0</ele><time>2026-04-04T11:18:29.001Z</time></trkpt><trkpt lat="43.9799031343719" lon="12.300789740065596"><ele>172.0</ele><time>2026-04-04T11:18:30.001Z</time></trkpt><trkpt lat="43.979790979395126" lon="12.300734744856358"><ele>175.0</ele><time>2026-04-04T11:18:31.001Z</time></trkpt><trkpt lat="43.97968693963791" lon="12.300687962814445"><ele>178.0</ele><time>2026-04-04T11:18:32.001Z</time></trkpt><trkpt lat="43.979603470154174" lon="12.300607724799535"><ele>181.0</ele><time>2026-04-04T11:18:33.001Z</time></trkpt><trkpt lat="43.97953904569159" lon="12.30047741013447"><ele>184.0</ele><time>2026-04-04T11:18:34.001Z</time></trkpt><trkpt lat="43.97949033676561" lon="12.30035361997614"><ele>185.83333333333334</ele><time>2026-04-04T11:18:35.001Z</time></trkpt><trkpt lat="43.97947596864923" lon="12.300242819196034"><ele>187.66666666666669</ele><time>2026-04-04T11:18:36.001Z</time></trkpt><trkpt lat="43.97955871643789" lon="12.300126532839288"><ele>189.5</ele><time>2026-04-04T11:18:38.001Z</time></trkpt><trkpt lat="43.979634025030876" lon="12.300115451593536"><ele>191.33333333333334</ele><time>2026-04-04T11:18:39.001Z</time></trkpt><trkpt lat="43.9797140922387" lon="12.30013284103439"><ele>193.16666666666666</ele><time>2026-04-04T11:18:40.001Z</time></trkpt><trkpt lat="43.97979675907202" lon="12.300103557283844"><ele>195.0</ele><time>2026-04-04T11:18:41.001Z</time></trkpt><trkpt lat="43.97988054938361" lon="12.300038665856354"><ele>195.0</ele><time>2026-04-04T11:18:42.001Z</time></trkpt><trkpt lat="43.97995455968457" lon="12.299957010588153"><ele>195.0</ele><time>2026-04-04T11:18:43.001Z</time></trkpt><trkpt lat="43.980015047994556" lon="12.29983803501024"><ele>195.0</ele><time>2026-04-04T11:18:44.001Z</time></trkpt><trkpt lat="43.98005365175275" lon="12.299697350717397"><ele>195.0</ele><time>2026-04-04T11:18:45.001Z</time></trkpt><trkpt lat="43.98007435550788" lon="12.299584985051505"><ele>195.0</ele><time>2026-04-04T11:18:46.001Z</time></trkpt><trkpt lat="43.980022912540875" lon="12.299450454585964"><ele>197.4</ele><time>2026-04-04T11:18:48.001Z</time></trkpt><trkpt lat="43.97995529809404" lon="12.29946145919471"><ele>199.8</ele><time>2026-04-04T11:18:49.001Z</time></trkpt><trkpt lat="43.979877778033504" lon="12.299538741220676"><ele>202.2</ele><time>2026-04-04T11:18:50.001Z</time></trkpt><trkpt lat="43.979795953061895" lon="12.299550349969463"><ele>204.6</ele><time>2026-04-04T11:18:51.001Z</time></trkpt><trkpt lat="43.97969876127368" lon="12.299484452235735"><ele>207.0</ele><time>2026-04-04T11:18:52.001Z</time></trkpt><trkpt lat="43.979588898079605" lon="12.299407375359921"><ele>207.0</ele><time>2026-04-04T11:18:53.001Z</time></trkpt><trkpt lat="43.97947671127229" lon="12.299328508019064"><ele>207.0</ele><time>2026-04-04T11:18:54.001Z</time></trkpt><trkpt lat="43.9793672459824" lon="12.299226721810982"><ele>207.0</ele><time>2026-04-04T11:18:55.001Z</time></trkpt><trkpt lat="43.97926952696955" lon="12.29912674428846"><ele>207.0</ele><time>2026-04-04T11:18:56.001Z</time></trkpt><trkpt lat="43.97919279034887" lon="12.299060100822176"><ele>207.33333333333334</ele><time>2026-04-04T11:18:57.001Z</time></trkpt><trkpt lat="43.97914589606264" lon="12.299000927174871"><ele>207.66666666666669</ele><time>2026-04-04T11:18:58.001Z</time></trkpt><trkpt lat="43.97918263141806" lon="12.298856664437162"><ele>208.0</ele><time>2026-04-04T11:19:00.001Z</time></trkpt><trkpt lat="43.97924526393311" lon="12.298842769022691"><ele>208.33333333333334</ele><time>2026-04-04T11:19:01.001Z</time></trkpt><trkpt lat="43.979323526080904" lon="12.29888758091434"><ele>208.66666666666669</ele><time>2026-04-04T11:19:02.001Z</time></trkpt><trkpt lat="43.97939560607451" lon="12.29890527206349"><ele>209.0</ele><time>2026-04-04T11:19:03.001Z</time></trkpt><trkpt lat="43.979451733805284" lon="12.298850973336759"><ele>210.2</ele><time>2026-04-04T11:19:04Z</time></trkpt><trkpt lat="43.979464520564306" lon="12.298755626516655"><ele>211.39999999999998</ele><time>2026-04-04T11:19:05Z</time></trkpt><trkpt lat="43.97941361140519" lon="12.29866271045338"><ele>212.6</ele><time>2026-04-04T11:19:06Z</time></trkpt><trkpt lat="43.979305234906825" lon="12.298584851954107"><ele>213.8</ele><time>2026-04-04T11:19:07Z</time></trkpt><trkpt lat="43.97917997893715" lon="12.29848740636358"><ele>215.0</ele><time>2026-04-04T11:19:08Z</time></trkpt><trkpt lat="43.979055841186046" lon="12.29835123908271"><ele>218.33333333333334</ele><time>2026-04-04T11:19:09Z</time></trkpt><trkpt lat="43.97892975094919" lon="12.29820889205135"><ele>221.66666666666669</ele><time>2026-04-04T11:19:10Z</time></trkpt><trkpt lat="43.97880224674841" lon="12.298084952968548"><ele>225.0</ele><time>2026-04-04T11:19:11Z</time></trkpt><trkpt lat="43.97868095203605" lon="12.297979322008905"><ele>228.0</ele><time>2026-04-04T11:19:12Z</time></trkpt><trkpt lat="43.978560065765514" lon="12.297891267198585"><ele>231.0</ele><time>2026-04-04T11:19:13Z</time></trkpt><trkpt lat="43.97842373454536" lon="12.297840702944958"><ele>234.0</ele><time>2026-04-04T11:19:14Z</time></trkpt><trkpt lat="43.978279985473904" lon="12.297825874493848"><ele>237.0</ele><time>2026-04-04T11:19:15Z</time></trkpt><trkpt lat="43.97813640742475" lon="12.297817920732921"><ele>237.5</ele><time>2026-04-04T11:19:16Z</time></trkpt><trkpt lat="43.978000141479356" lon="12.29780394034777"><ele>238.0</ele><time>2026-04-04T11:19:17Z</time></trkpt><trkpt lat="43.97787441633919" lon="12.297822066697798"><ele>238.5</ele><time>2026-04-04T11:19:18Z</time></trkpt><trkpt lat="43.97776004048945" lon="12.297898573097033"><ele>239.0</ele><time>2026-04-04T11:19:19Z</time></trkpt><trkpt lat="43.977658018910816" lon="12.297979928741945"><ele>239.00000000000003</ele><time>2026-04-04T11:19:20Z</time></trkpt><trkpt lat="43.97755630725711" lon="12.298026834252205"><ele>239.0</ele><time>2026-04-04T11:19:21Z</time></trkpt><trkpt lat="43.97745761317211" lon="12.298025025294576"><ele>239.0</ele><time>2026-04-04T11:19:22Z</time></trkpt><trkpt lat="43.977382187972395" lon="12.297969656863456"><ele>239.0</ele><time>2026-04-04T11:19:23Z</time></trkpt><trkpt lat="43.97736150622562" lon="12.297876502943959"><ele>239.00000000000003</ele><time>2026-04-04T11:19:24Z</time></trkpt><trkpt lat="43.97738709932099" lon="12.29777955922047"><ele>239.0</ele><time>2026-04-04T11:19:25Z</time></trkpt><trkpt lat="43.97746028061662" lon="12.297694527627526"><ele>239.0</ele><time>2026-04-04T11:19:26Z</time></trkpt><trkpt lat="43.97754675324275" lon="12.297606043853675"><ele>238.99999999999997</ele><time>2026-04-04T11:19:27Z</time></trkpt><trkpt lat="43.97763907734462" lon="12.29751066006129"><ele>238.99999999999997</ele><time>2026-04-04T11:19:28Z</time></trkpt><trkpt lat="43.977731513532255" lon="12.297441662325959"><ele>239.0</ele><time>2026-04-04T11:19:29Z</time></trkpt><trkpt lat="43.97778992630079" lon="12.297369717406651"><ele>239.0</ele><time>2026-04-04T11:19:30Z</time></trkpt><trkpt lat="43.97780740446868" lon="12.297272144605449"><ele>242.39999999999998</ele><time>2026-04-04T11:19:31Z</time></trkpt><trkpt lat="43.97777149460721" lon="12.297190342511495"><ele>245.79999999999998</ele><time>2026-04-04T11:19:32Z</time></trkpt><trkpt lat="43.97769550101221" lon="12.297139056988707"><ele>249.20000000000002</ele><time>2026-04-04T11:19:33Z</time></trkpt><trkpt lat="43.977578163513456" lon="12.297114380805485"><ele>252.60000000000002</ele><time>2026-04-04T11:19:34Z</time></trkpt><trkpt lat="43.97746391757683" lon="12.297045519815299"><ele>256.0</ele><time>2026-04-04T11:19:35Z</time></trkpt><trkpt lat="43.97736303111575" lon="12.296928506208523"><ele>256.6</ele><time>2026-04-04T11:19:36Z</time></trkpt><trkpt lat="43.977280028992624" lon="12.296820921724017"><ele>257.20000000000005</ele><time>2026-04-04T11:19:37Z</time></trkpt><trkpt lat="43.97723088444008" lon="12.296719191397829"><ele>257.79999999999995</ele><time>2026-04-04T11:19:38Z</time></trkpt><trkpt lat="43.97721996451379" lon="12.296585572434124"><ele>258.4</ele><time>2026-04-04T11:19:39Z</time></trkpt><trkpt lat="43.977245184624906" lon="12.296440870496907"><ele>259.0</ele><time>2026-04-04T11:19:40Z</time></trkpt><trkpt lat="43.97728938007542" lon="12.296293861535458"><ele>260.25</ele><time>2026-04-04T11:19:41Z</time></trkpt><trkpt lat="43.97734119061098" lon="12.296129438885902"><ele>261.5</ele><time>2026-04-04T11:19:42Z</time></trkpt><trkpt lat="43.97739611601685" lon="12.295956121720991"><ele>262.75</ele><time>2026-04-04T11:19:43Z</time></trkpt><trkpt lat="43.97744592886765" lon="12.29576758075663"><ele>264.0</ele><time>2026-04-04T11:19:44Z</time></trkpt><trkpt lat="43.977499795467835" lon="12.295577632191396"><ele>266.75</ele><time>2026-04-04T11:19:45Z</time></trkpt><trkpt lat="43.97755374281805" lon="12.295397001933905"><ele>269.5</ele><time>2026-04-04T11:19:46Z</time></trkpt><trkpt lat="43.97759871306188" lon="12.295223656250812"><ele>272.25</ele><time>2026-04-04T11:19:47Z</time></trkpt><trkpt lat="43.97762268095336" lon="12.295062611462773"><ele>275.0</ele><time>2026-04-04T11:19:48Z</time></trkpt><trkpt lat="43.97760826295292" lon="12.294918051333791"><ele>275.0</ele><time>2026-04-04T11:19:49Z</time></trkpt><trkpt lat="43.97754857802981" lon="12.294772267917308"><ele>275.0</ele><time>2026-04-04T11:19:50Z</time></trkpt><trkpt lat="43.977458133721484" lon="12.294633373122009"><ele>275.0</ele><time>2026-04-04T11:19:51Z</time></trkpt><trkpt lat="43.97735789836817" lon="12.294483403529256"><ele>275.0</ele><time>2026-04-04T11:19:52Z</time></trkpt><trkpt lat="43.97727971496708" lon="12.294308718357273"><ele>272.6666666666667</ele><time>2026-04-04T11:19:53Z</time></trkpt><trkpt lat="43.97721364370932" lon="12.294118307191127"><ele>270.3333333333333</ele><time>2026-04-04T11:19:54Z</time></trkpt><trkpt lat="43.9771487525749" lon="12.293920654385836"><ele>268.0</ele><time>2026-04-04T11:19:55Z</time></trkpt><trkpt lat="43.977080242321684" lon="12.293719981288897"><ele>268.0</ele><time>2026-04-04T11:19:56Z</time></trkpt><trkpt lat="43.97700651687508" lon="12.293520351707958"><ele>268.0</ele><time>2026-04-04T11:19:57Z</time></trkpt><trkpt lat="43.97693420916131" lon="12.293319029011453"><ele>268.0</ele><time>2026-04-04T11:19:58Z</time></trkpt><trkpt lat="43.97687089990196" lon="12.29312138235656"><ele>269.0</ele><time>2026-04-04T11:19:59Z</time></trkpt><trkpt lat="43.97681246815627" lon="12.292931527586939"><ele>270.0</ele><time>2026-04-04T11:20:00Z</time></trkpt><trkpt lat="43.97675695456359" lon="12.292743578897447"><ele>271.0</ele><time>2026-04-04T11:20:01Z</time></trkpt><trkpt lat="43.9767080362372" lon="12.292561214394194"><ele>272.0</ele><time>2026-04-04T11:20:02Z</time></trkpt><trkpt lat="43.976663416933086" lon="12.29237326349687"><ele>270.5</ele><time>2026-04-04T11:20:03Z</time></trkpt><trkpt lat="43.97662617057595" lon="12.292190696373536"><ele>269.0</ele><time>2026-04-04T11:20:04.001Z</time></trkpt><trkpt lat="43.97659236758892" lon="12.292008297718471"><ele>267.5</ele><time>2026-04-04T11:20:05.001Z</time></trkpt><trkpt lat="43.97656344331019" lon="12.291825644141353"><ele>266.0</ele><time>2026-04-04T11:20:06.001Z</time></trkpt><trkpt lat="43.97653482897093" lon="12.291645139536662"><ele>266.0</ele><time>2026-04-04T11:20:07.001Z</time></trkpt><trkpt lat="43.97651108262047" lon="12.291467670639364"><ele>266.0</ele><time>2026-04-04T11:20:08.001Z</time></trkpt><trkpt lat="43.97649304978528" lon="12.291299379674225"><ele>266.0</ele><time>2026-04-04T11:20:09.001Z</time></trkpt><trkpt lat="43.976471102843526" lon="12.29114951360081"><ele>266.0</ele><time>2026-04-04T11:20:10.001Z</time></trkpt><trkpt lat="43.97644390651857" lon="12.29101711170681"><ele>266.33333333333337</ele><time>2026-04-04T11:20:11.001Z</time></trkpt><trkpt lat="43.97643656326749" lon="12.290899740154755"><ele>266.6666666666667</ele><time>2026-04-04T11:20:12.001Z</time></trkpt><trkpt lat="43.97646619051119" lon="12.290799069898572"><ele>267.0</ele><time>2026-04-04T11:20:13.001Z</time></trkpt><trkpt lat="43.97652495274451" lon="12.290721405582644"><ele>267.3333333333333</ele><time>2026-04-04T11:20:14.001Z</time></trkpt><trkpt lat="43.976599611121166" lon="12.290666157817215"><ele>267.66666666666663</ele><time>2026-04-04T11:20:15.001Z</time></trkpt><trkpt lat="43.976683650348804" lon="12.290614236879254"><ele>268.0</ele><time>2026-04-04T11:20:16.001Z</time></trkpt><trkpt lat="43.97677657039981" lon="12.290580121037733"><ele>270.0</ele><time>2026-04-04T11:20:17.001Z</time></trkpt><trkpt lat="43.976874189958274" lon="12.290569782137828"><ele>272.0</ele><time>2026-04-04T11:20:18.001Z</time></trkpt><trkpt lat="43.9769748847477" lon="12.290576201787424"><ele>274.0</ele><time>2026-04-04T11:20:19.001Z</time></trkpt><trkpt lat="43.9770846165244" lon="12.290552556597515"><ele>276.0</ele><time>2026-04-04T11:20:20.001Z</time></trkpt><trkpt lat="43.97719382891861" lon="12.290492472576094"><ele>278.0</ele><time>2026-04-04T11:20:21.001Z</time></trkpt><trkpt lat="43.97730078956713" lon="12.29042143392655"><ele>278.0</ele><time>2026-04-04T11:20:22.001Z</time></trkpt><trkpt lat="43.97739957348233" lon="12.290369053367561"><ele>278.0</ele><time>2026-04-04T11:20:23.001Z</time></trkpt><trkpt lat="43.977470880963736" lon="12.290317045007253"><ele>278.0</ele><time>2026-04-04T11:20:24.001Z</time></trkpt><trkpt lat="43.977534516892845" lon="12.290302866318095"><ele>278.0</ele><time>2026-04-04T11:20:25.001Z</time></trkpt><trkpt lat="43.97760056999871" lon="12.290410027515726"><ele>278.0</ele><time>2026-04-04T11:20:27.001Z</time></trkpt><trkpt lat="43.97754525226052" lon="12.29056295976925"><ele>282.2</ele><time>2026-04-04T11:20:29.001Z</time></trkpt><trkpt lat="43.97756410318852" lon="12.290686599215775"><ele>286.4</ele><time>2026-04-04T11:20:31.001Z</time></trkpt><trkpt lat="43.977686548411675" lon="12.290641124774652"><ele>290.59999999999997</ele><time>2026-04-04T11:20:33.001Z</time></trkpt><trkpt lat="43.97774287067668" lon="12.290535001883859"><ele>294.8</ele><time>2026-04-04T11:20:34.001Z</time></trkpt><trkpt lat="43.97781518507624" lon="12.29043280612643"><ele>299.0</ele><time>2026-04-04T11:20:35.001Z</time></trkpt><trkpt lat="43.97789786407438" lon="12.290314688959539"><ele>299.0</ele><time>2026-04-04T11:20:36.001Z</time></trkpt><trkpt lat="43.97798482310318" lon="12.29018095502329"><ele>299.0</ele><time>2026-04-04T11:20:37.001Z</time></trkpt><trkpt lat="43.97807302776984" lon="12.290045309042434"><ele>299.0</ele><time>2026-04-04T11:20:38.001Z</time></trkpt><trkpt lat="43.978161710445534" lon="12.289917621161251"><ele>299.0</ele><time>2026-04-04T11:20:39.001Z</time></trkpt><trkpt lat="43.97825298648343" lon="12.289811506014889"><ele>300.75</ele><time>2026-04-04T11:20:40.001Z</time></trkpt><trkpt lat="43.97833939456338" lon="12.289709912603618"><ele>302.5</ele><time>2026-04-04T11:20:41.001Z</time></trkpt><trkpt lat="43.97843093998954" lon="12.289610955890545"><ele>304.25</ele><time>2026-04-04T11:20:42.001Z</time></trkpt><trkpt lat="43.97852169224712" lon="12.289506844975879"><ele>306.0</ele><time>2026-04-04T11:20:43.001Z</time></trkpt><trkpt lat="43.978614233116375" lon="12.289402637296334"><ele>306.0</ele><time>2026-04-04T11:20:44.001Z</time></trkpt><trkpt lat="43.97870853683422" lon="12.289307504871983"><ele>306.0</ele><time>2026-04-04T11:20:45.001Z</time></trkpt><trkpt lat="43.97881154809328" lon="12.289228786528579"><ele>306.0</ele><time>2026-04-04T11:20:46.001Z</time></trkpt><trkpt lat="43.97892220387739" lon="12.289160394487235"><ele>306.0</ele><time>2026-04-04T11:20:47.001Z</time></trkpt><trkpt lat="43.97902079730623" lon="12.28905613537228"><ele>305.25</ele><time>2026-04-04T11:20:48.001Z</time></trkpt><trkpt lat="43.9791002157948" lon="12.288910600054283"><ele>304.5</ele><time>2026-04-04T11:20:49.001Z</time></trkpt><trkpt lat="43.97916530274886" lon="12.288745658039405"><ele>303.75</ele><time>2026-04-04T11:20:50.001Z</time></trkpt><trkpt lat="43.97924768458574" lon="12.28860326540826"><ele>303.0</ele><time>2026-04-04T11:20:51.001Z</time></trkpt><trkpt lat="43.97933496105513" lon="12.288476663504962"><ele>304.6</ele><time>2026-04-04T11:20:52.001Z</time></trkpt><trkpt lat="43.97938765589235" lon="12.288341959466196"><ele>306.20000000000005</ele><time>2026-04-04T11:20:53.001Z</time></trkpt><trkpt lat="43.979442816638745" lon="12.288218909964087"><ele>307.8</ele><time>2026-04-04T11:20:54.001Z</time></trkpt><trkpt lat="43.97953513174317" lon="12.288130245252034"><ele>309.40000000000003</ele><time>2026-04-04T11:20:55.001Z</time></trkpt><trkpt lat="43.97963592659063" lon="12.28804919931189"><ele>311.0</ele><time>2026-04-04T11:20:56.001Z</time></trkpt><trkpt lat="43.97972650223816" lon="12.287947542542083"><ele>311.25</ele><time>2026-04-04T11:20:57.001Z</time></trkpt><trkpt lat="43.979817575218604" lon="12.287846740796457"><ele>311.5</ele><time>2026-04-04T11:20:58.001Z</time></trkpt><trkpt lat="43.97991362810445" lon="12.287745944091899"><ele>311.75</ele><time>2026-04-04T11:20:59.001Z</time></trkpt><trkpt lat="43.980008992532085" lon="12.287641223260797"><ele>312.0</ele><time>2026-04-04T11:21:00.001Z</time></trkpt><trkpt lat="43.980090759185025" lon="12.287520276763088"><ele>312.2</ele><time>2026-04-04T11:21:01.001Z</time></trkpt><trkpt lat="43.980148401880356" lon="12.287378969829403"><ele>312.4</ele><time>2026-04-04T11:21:02.001Z</time></trkpt><trkpt lat="43.9801700228471" lon="12.287245878656934"><ele>312.6</ele><time>2026-04-04T11:21:03.001Z</time></trkpt><trkpt lat="43.98017421298863" lon="12.28712967108967"><ele>312.8</ele><time>2026-04-04T11:21:04.001Z</time></trkpt><trkpt lat="43.980188660197065" lon="12.287020391745243"><ele>313.0</ele><time>2026-04-04T11:21:05.001Z</time></trkpt><trkpt lat="43.980218492090096" lon="12.286914727960562"><ele>314.2</ele><time>2026-04-04T11:21:06.001Z</time></trkpt><trkpt lat="43.98026088093718" lon="12.286813123281464"><ele>315.4</ele><time>2026-04-04T11:21:07.001Z</time></trkpt><trkpt lat="43.980310718471564" lon="12.286709128835955"><ele>316.59999999999997</ele><time>2026-04-04T11:21:08.001Z</time></trkpt><trkpt lat="43.98037706302673" lon="12.286607773498408"><ele>317.8</ele><time>2026-04-04T11:21:09.001Z</time></trkpt><trkpt lat="43.98044822133392" lon="12.286502776865461"><ele>319.0</ele><time>2026-04-04T11:21:10Z</time></trkpt><trkpt lat="43.98051773917312" lon="12.286383051309222"><ele>319.5</ele><time>2026-04-04T11:21:11Z</time></trkpt><trkpt lat="43.980577507347455" lon="12.28624994551038"><ele>320.0</ele><time>2026-04-04T11:21:12Z</time></trkpt><trkpt lat="43.98061622312492" lon="12.286096098094516"><ele>320.5</ele><time>2026-04-04T11:21:13Z</time></trkpt><trkpt lat="43.980638618446044" lon="12.28593052559732"><ele>321.0</ele><time>2026-04-04T11:21:14Z</time></trkpt><trkpt lat="43.980665599048635" lon="12.285769580552193"><ele>321.0</ele><time>2026-04-04T11:21:15Z</time></trkpt><trkpt lat="43.98071527407366" lon="12.285621716404663"><ele>321.0</ele><time>2026-04-04T11:21:16Z</time></trkpt><trkpt lat="43.980796481619535" lon="12.285495964127863"><ele>321.0</ele><time>2026-04-04T11:21:17Z</time></trkpt><trkpt lat="43.98089648586098" lon="12.285388512629925"><ele>321.0</ele><time>2026-04-04T11:21:18Z</time></trkpt><trkpt lat="43.98097382219151" lon="12.285266596529292"><ele>322.5</ele><time>2026-04-04T11:21:19Z</time></trkpt><trkpt lat="43.98103700853388" lon="12.285152763542557"><ele>324.0</ele><time>2026-04-04T11:21:20Z</time></trkpt><trkpt lat="43.98112185032342" lon="12.285082813532155"><ele>325.5</ele><time>2026-04-04T11:21:21Z</time></trkpt><trkpt lat="43.98122238221246" lon="12.285068119623295"><ele>327.0</ele><time>2026-04-04T11:21:22Z</time></trkpt><trkpt lat="43.98129923623059" lon="12.28507066651352"><ele>328.5</ele><time>2026-04-04T11:21:23Z</time></trkpt><trkpt lat="43.98134970048335" lon="12.285016340719284"><ele>330.0</ele><time>2026-04-04T11:21:24Z</time></trkpt><trkpt lat="43.981384066739366" lon="12.284910882475844"><ele>330.0</ele><time>2026-04-04T11:21:25Z</time></trkpt><trkpt lat="43.981408677714505" lon="12.28478337309741"><ele>330.0</ele><time>2026-04-04T11:21:26Z</time></trkpt><trkpt lat="43.9814528418924" lon="12.284663372979393"><ele>330.0</ele><time>2026-04-04T11:21:27Z</time></trkpt><trkpt lat="43.98151333985143" lon="12.284560435846052"><ele>330.0</ele><time>2026-04-04T11:21:28Z</time></trkpt><trkpt lat="43.9815638926661" lon="12.284481610056844"><ele>330.0</ele><time>2026-04-04T11:21:29Z</time></trkpt><trkpt lat="43.98158919633012" lon="12.284385927668414"><ele>330.0</ele><time>2026-04-04T11:21:30Z</time></trkpt><trkpt lat="43.981589172576996" lon="12.284276256366129"><ele>330.6</ele><time>2026-04-04T11:21:31Z</time></trkpt><trkpt lat="43.981563840521254" lon="12.284161277437429"><ele>331.2</ele><time>2026-04-04T11:21:32Z</time></trkpt><trkpt lat="43.981521194961665" lon="12.284045342381969"><ele>331.79999999999995</ele><time>2026-04-04T11:21:33Z</time></trkpt><trkpt lat="43.98147420321185" lon="12.2839151380188"><ele>332.4</ele><time>2026-04-04T11:21:34Z</time></trkpt><trkpt lat="43.981435367457856" lon="12.283775234387393"><ele>333.0</ele><time>2026-04-04T11:21:35Z</time></trkpt><trkpt lat="43.981396118148005" lon="12.283627158505372"><ele>331.75</ele><time>2026-04-04T11:21:36Z</time></trkpt><trkpt lat="43.981356127008546" lon="12.283471027583824"><ele>330.5</ele><time>2026-04-04T11:21:37Z</time></trkpt><trkpt lat="43.9813206593319" lon="12.283309143286433"><ele>329.25</ele><time>2026-04-04T11:21:38Z</time></trkpt><trkpt lat="43.981276037146955" lon="12.28314547385836"><ele>328.0</ele><time>2026-04-04T11:21:39Z</time></trkpt><trkpt lat="43.98122921637088" lon="12.282990105920765"><ele>328.0</ele><time>2026-04-04T11:21:40Z</time></trkpt><trkpt lat="43.98118146222432" lon="12.282840829176653"><ele>328.0</ele><time>2026-04-04T11:21:41Z</time></trkpt><trkpt lat="43.981145195069615" lon="12.282694231442559"><ele>328.0</ele><time>2026-04-04T11:21:42Z</time></trkpt><trkpt lat="43.98113821232939" lon="12.282541425932825"><ele>328.0</ele><time>2026-04-04T11:21:43Z</time></trkpt><trkpt lat="43.981168182283895" lon="12.2823898250743"><ele>330.79999999999995</ele><time>2026-04-04T11:21:44Z</time></trkpt><trkpt lat="43.981228456790085" lon="12.282259924775433"><ele>333.6</ele><time>2026-04-04T11:21:45Z</time></trkpt><trkpt lat="43.9813041340905" lon="12.282149876754277"><ele>336.4</ele><time>2026-04-04T11:21:46Z</time></trkpt><trkpt lat="43.98137288068684" lon="12.282052227468464"><ele>339.20000000000005</ele><time>2026-04-04T11:21:47Z</time></trkpt><trkpt lat="43.98144129276504" lon="12.281962790906839"><ele>342.0</ele><time>2026-04-04T11:21:48Z</time></trkpt><trkpt lat="43.98150828599342" lon="12.281873918389213"><ele>342.0</ele><time>2026-04-04T11:21:49Z</time></trkpt><trkpt lat="43.98158335128182" lon="12.281793096056667"><ele>342.0</ele><time>2026-04-04T11:21:50Z</time></trkpt><trkpt lat="43.981673249018655" lon="12.281753242166129"><ele>342.0</ele><time>2026-04-04T11:21:51Z</time></trkpt><trkpt lat="43.98177142453333" lon="12.281732452535826"><ele>342.0</ele><time>2026-04-04T11:21:52Z</time></trkpt><trkpt lat="43.98186606068892" lon="12.281710530845261"><ele>342.0</ele><time>2026-04-04T11:21:53Z</time></trkpt><trkpt lat="43.98195220259562" lon="12.281684209600572"><ele>341.3333333333333</ele><time>2026-04-04T11:21:54Z</time></trkpt><trkpt lat="43.98203033440506" lon="12.281651491671909"><ele>340.6666666666667</ele><time>2026-04-04T11:21:55Z</time></trkpt><trkpt lat="43.98209330764449" lon="12.281609163869025"><ele>340.0</ele><time>2026-04-04T11:21:56Z</time></trkpt><trkpt lat="43.9821440478253" lon="12.281472526294953"><ele>339.33333333333337</ele><time>2026-04-04T11:21:58Z</time></trkpt><trkpt lat="43.98213239918168" lon="12.281383342414527"><ele>338.6666666666667</ele><time>2026-04-04T11:21:59Z</time></trkpt><trkpt lat="43.98210887308527" lon="12.281292001054593"><ele>338.0</ele><time>2026-04-04T11:22:00Z</time></trkpt><trkpt lat="43.982094592203474" lon="12.281187054394465"><ele>339.79999999999995</ele><time>2026-04-04T11:22:01Z</time></trkpt><trkpt lat="43.98207239048677" lon="12.281077467209451"><ele>341.6</ele><time>2026-04-04T11:22:02Z</time></trkpt><trkpt lat="43.982054791004906" lon="12.280963493522354"><ele>343.4</ele><time>2026-04-04T11:22:03Z</time></trkpt><trkpt lat="43.982036340728754" lon="12.280839927833865"><ele>345.20000000000005</ele><time>2026-04-04T11:22:04Z</time></trkpt><trkpt lat="43.98201627351018" lon="12.280707560169276"><ele>347.0</ele><time>2026-04-04T11:22:05Z</time></trkpt><trkpt lat="43.981994083144095" lon="12.280568871755516"><ele>347.40000000000003</ele><time>2026-04-04T11:22:06Z</time></trkpt><trkpt lat="43.981970391944465" lon="12.280426501281212"><ele>347.8</ele><time>2026-04-04T11:22:07.001Z</time></trkpt><trkpt lat="43.9819405217439" lon="12.28028590467609"><ele>348.2</ele><time>2026-04-04T11:22:08.001Z</time></trkpt><trkpt lat="43.98189423395681" lon="12.280152800714282"><ele>348.6</ele><time>2026-04-04T11:22:09.001Z</time></trkpt><trkpt lat="43.98182129896382" lon="12.280041234599953"><ele>349.0</ele><time>2026-04-04T11:22:10.001Z</time></trkpt><trkpt lat="43.98173317312195" lon="12.27995688011015"><ele>351.6</ele><time>2026-04-04T11:22:11.001Z</time></trkpt><trkpt lat="43.9816468605751" lon="12.279882194127579"><ele>354.2</ele><time>2026-04-04T11:22:12.001Z</time></trkpt><trkpt lat="43.98156922956763" lon="12.279801336589664"><ele>356.8</ele><time>2026-04-04T11:22:13.001Z</time></trkpt><trkpt lat="43.98149319719859" lon="12.279714792101814"><ele>359.40000000000003</ele><time>2026-04-04T11:22:14.001Z</time></trkpt><trkpt lat="43.981419133226325" lon="12.279625957635298"><ele>362.0</ele><time>2026-04-04T11:22:15.001Z</time></trkpt><trkpt lat="43.981342629996455" lon="12.27952939018255"><ele>362.0</ele><time>2026-04-04T11:22:16.001Z</time></trkpt><trkpt lat="43.98127329914432" lon="12.279427973288582"><ele>362.0</ele><time>2026-04-04T11:22:17.001Z</time></trkpt><trkpt lat="43.9812162341296" lon="12.279308273340586"><ele>362.0</ele><time>2026-04-04T11:22:18.001Z</time></trkpt><trkpt lat="43.981171312002864" lon="12.279174347886045"><ele>362.0</ele><time>2026-04-04T11:22:19.001Z</time></trkpt><trkpt lat="43.98113106642504" lon="12.27903449929942"><ele>362.0</ele><time>2026-04-04T11:22:20.001Z</time></trkpt><trkpt lat="43.98108050548561" lon="12.27890733657397"><ele>359.20000000000005</ele><time>2026-04-04T11:22:21.001Z</time></trkpt><trkpt lat="43.98102767036122" lon="12.27878819262871"><ele>356.4</ele><time>2026-04-04T11:22:22.001Z</time></trkpt><trkpt lat="43.98099059006998" lon="12.278652113096776"><ele>353.6</ele><time>2026-04-04T11:22:23.001Z</time></trkpt><trkpt lat="43.980967766811006" lon="12.278502861666462"><ele>350.79999999999995</ele><time>2026-04-04T11:22:24.001Z</time></trkpt><trkpt lat="43.98095330317725" lon="12.278350862678895"><ele>348.0</ele><time>2026-04-04T11:22:25.001Z</time></trkpt><trkpt lat="43.98093428829733" lon="12.278201542898145"><ele>348.2</ele><time>2026-04-04T11:22:26.001Z</time></trkpt><trkpt lat="43.980898444489156" lon="12.278056743116105"><ele>348.4</ele><time>2026-04-04T11:22:27.001Z</time></trkpt><trkpt lat="43.98085226744529" lon="12.277916495331796"><ele>348.59999999999997</ele><time>2026-04-04T11:22:28.001Z</time></trkpt><trkpt lat="43.98080583153186" lon="12.277778757420766"><ele>348.79999999999995</ele><time>2026-04-04T11:22:29.001Z</time></trkpt><trkpt lat="43.98076404356154" lon="12.277635925889502"><ele>349.0</ele><time>2026-04-04T11:22:30.001Z</time></trkpt><trkpt lat="43.98072174656651" lon="12.277494532488213"><ele>349.0</ele><time>2026-04-04T11:22:31.001Z</time></trkpt><trkpt lat="43.98068016146439" lon="12.27735443736656"><ele>349.0</ele><time>2026-04-04T11:22:32.001Z</time></trkpt><trkpt lat="43.98064256292745" lon="12.277220240238952"><ele>349.0</ele><time>2026-04-04T11:22:33.001Z</time></trkpt><trkpt lat="43.98060859970439" lon="12.277096148257952"><ele>349.0</ele><time>2026-04-04T11:22:34.001Z</time></trkpt><trkpt lat="43.98058091586661" lon="12.276976452064819"><ele>349.0</ele><time>2026-04-04T11:22:35.001Z</time></trkpt><trkpt lat="43.980553892429505" lon="12.276866229592791"><ele>349.8333333333333</ele><time>2026-04-04T11:22:36.001Z</time></trkpt><trkpt lat="43.9805298210063" lon="12.276763450031824"><ele>350.66666666666663</ele><time>2026-04-04T11:22:37.001Z</time></trkpt><trkpt lat="43.98051049454054" lon="12.27666024805447"><ele>351.5</ele><time>2026-04-04T11:22:38.001Z</time></trkpt><trkpt lat="43.98049393610804" lon="12.276558586489962"><ele>352.3333333333333</ele><time>2026-04-04T11:22:39.001Z</time></trkpt><trkpt lat="43.980476459822384" lon="12.276453579382027"><ele>353.1666666666667</ele><time>2026-04-04T11:22:40.001Z</time></trkpt><trkpt lat="43.98046078877016" lon="12.276347214534741"><ele>354.0</ele><time>2026-04-04T11:22:41.001Z</time></trkpt><trkpt lat="43.98044868258978" lon="12.276241876554696"><ele>354.8571428571429</ele><time>2026-04-04T11:22:42.001Z</time></trkpt><trkpt lat="43.98043199333976" lon="12.276140559562181"><ele>355.71428571428567</ele><time>2026-04-04T11:22:43.001Z</time></trkpt><trkpt lat="43.98041685503426" lon="12.27604219352771"><ele>356.57142857142856</ele><time>2026-04-04T11:22:44.001Z</time></trkpt><trkpt lat="43.980403464839426" lon="12.275943805158265"><ele>357.42857142857144</ele><time>2026-04-04T11:22:45.001Z</time></trkpt><trkpt lat="43.98038029533247" lon="12.275844798202794"><ele>358.28571428571433</ele><time>2026-04-04T11:22:46.001Z</time></trkpt><trkpt lat="43.980346758725865" lon="12.275751958809455"><ele>359.1428571428571</ele><time>2026-04-04T11:22:47.001Z</time></trkpt><trkpt lat="43.980308703790676" lon="12.275657307279818"><ele>360.0</ele><time>2026-04-04T11:22:48.001Z</time></trkpt><trkpt lat="43.98026673448219" lon="12.275555727797107"><ele>360.2</ele><time>2026-04-04T11:22:49.001Z</time></trkpt><trkpt lat="43.9802166111166" lon="12.275451031028089"><ele>360.4</ele><time>2026-04-04T11:22:50.001Z</time></trkpt><trkpt lat="43.98015824099504" lon="12.275348675338988"><ele>360.6</ele><time>2026-04-04T11:22:51.001Z</time></trkpt><trkpt lat="43.980097735268984" lon="12.275247189948235"><ele>360.8</ele><time>2026-04-04T11:22:52.001Z</time></trkpt><trkpt lat="43.980037335485534" lon="12.275148116641413"><ele>361.0</ele><time>2026-04-04T11:22:53.001Z</time></trkpt><trkpt lat="43.97998317261693" lon="12.275054310067661"><ele>363.6</ele><time>2026-04-04T11:22:54.001Z</time></trkpt><trkpt lat="43.97994871759045" lon="12.274947968430087"><ele>366.20000000000005</ele><time>2026-04-04T11:22:55.001Z</time></trkpt><trkpt lat="43.979942270075" lon="12.274830304991974"><ele>368.79999999999995</ele><time>2026-04-04T11:22:56.001Z</time></trkpt><trkpt lat="43.979952025614935" lon="12.274696684221224"><ele>371.4</ele><time>2026-04-04T11:22:57.001Z</time></trkpt><trkpt lat="43.97997128355562" lon="12.274559278676591"><ele>374.0</ele><time>2026-04-04T11:22:58.001Z</time></trkpt><trkpt lat="43.979983968511185" lon="12.27441819902376"><ele>373.2</ele><time>2026-04-04T11:22:59.001Z</time></trkpt><trkpt lat="43.97998843550393" lon="12.274280131782213"><ele>372.4</ele><time>2026-04-04T11:23:00.001Z</time></trkpt><trkpt lat="43.97999485366537" lon="12.274141096261939"><ele>371.6</ele><time>2026-04-04T11:23:01.001Z</time></trkpt><trkpt lat="43.980008562043786" lon="12.274004578315969"><ele>370.8</ele><time>2026-04-04T11:23:02.001Z</time></trkpt><trkpt lat="43.9800313540835" lon="12.273874292267713"><ele>370.0</ele><time>2026-04-04T11:23:03.001Z</time></trkpt><trkpt lat="43.98005496018296" lon="12.27374758204117"><ele>370.0</ele><time>2026-04-04T11:23:04.001Z</time></trkpt><trkpt lat="43.98007704536618" lon="12.27362173000063"><ele>370.0</ele><time>2026-04-04T11:23:05.001Z</time></trkpt><trkpt lat="43.98010386975192" lon="12.273499780491997"><ele>370.0</ele><time>2026-04-04T11:23:06.001Z</time></trkpt><trkpt lat="43.98013467077162" lon="12.273381551402386"><ele>370.0</ele><time>2026-04-04T11:23:07.001Z</time></trkpt><trkpt lat="43.98017281090032" lon="12.273265529736857"><ele>370.0</ele><time>2026-04-04T11:23:08.001Z</time></trkpt><trkpt lat="43.980215170677134" lon="12.273156203640768"><ele>371.5</ele><time>2026-04-04T11:23:09.001Z</time></trkpt><trkpt lat="43.980264237358234" lon="12.273059343673555"><ele>373.0</ele><time>2026-04-04T11:23:10.001Z</time></trkpt><trkpt lat="43.98032147646302" lon="12.272971117032592"><ele>374.5</ele><time>2026-04-04T11:23:11.002Z</time></trkpt><trkpt lat="43.980380735749485" lon="12.272890427881038"><ele>376.0</ele><time>2026-04-04T11:23:12.002Z</time></trkpt><trkpt lat="43.98043528165431" lon="12.272817372246605"><ele>377.5</ele><time>2026-04-04T11:23:13.002Z</time></trkpt><trkpt lat="43.980485106723364" lon="12.272751826844562"><ele>379.0</ele><time>2026-04-04T11:23:14.002Z</time></trkpt><trkpt lat="43.98053100216918" lon="12.272689523388097"><ele>379.0</ele><time>2026-04-04T11:23:15.002Z</time></trkpt><trkpt lat="43.98060251665707" lon="12.272580876449647"><ele>379.0</ele><time>2026-04-04T11:23:17Z</time></trkpt><trkpt lat="43.98064481600355" lon="12.27249269867641"><ele>379.0</ele><time>2026-04-04T11:23:19Z</time></trkpt><trkpt lat="43.98062356180185" lon="12.272403035200757"><ele>379.0</ele><time>2026-04-04T11:23:55Z</time></trkpt><trkpt lat="43.98057830258323" lon="12.27247003163878"><ele>379.0</ele><time>2026-04-04T11:23:59Z</time></trkpt><trkpt lat="43.980663890145564" lon="12.272483442639293"><ele>379.0</ele><time>2026-04-04T11:29:41.999Z</time></trkpt><trkpt lat="43.98061086303706" lon="12.272428827645665"><ele>379.0</ele><time>2026-04-04T11:30:34.001Z</time></trkpt><trkpt lat="43.98054968193945" lon="12.272452345060321"><ele>379.0</ele><time>2026-04-04T11:30:44.001Z</time></trkpt><trkpt lat="43.980484851818055" lon="12.272570733756186"><ele>379.0</ele><time>2026-04-04T11:48:20.002Z</time></trkpt><trkpt lat="43.9803772729817" lon="12.272622263866593"><ele>379.0</ele><time>2026-04-04T11:48:22.002Z</time></trkpt><trkpt lat="43.980251277500805" lon="12.272665882222517"><ele>379.0</ele><time>2026-04-04T11:48:24.002Z</time></trkpt><trkpt lat="43.98018250914455" lon="12.27271051463896"><ele>379.0</ele><time>2026-04-04T11:48:25.002Z</time></trkpt><trkpt lat="43.98010779963952" lon="12.272755902683127"><ele>379.0</ele><time>2026-04-04T11:48:26.002Z</time></trkpt><trkpt lat="43.98003047491316" lon="12.272802332585098"><ele>379.0</ele><time>2026-04-04T11:48:27.002Z</time></trkpt><trkpt lat="43.97994960374538" lon="12.272849896994089"><ele>379.0</ele><time>2026-04-04T11:48:27.999Z</time></trkpt><trkpt lat="43.97986434854982" lon="12.272900039851487"><ele>379.0</ele><time>2026-04-04T11:48:28.999Z</time></trkpt><trkpt lat="43.97977227794139" lon="12.27295097113025"><ele>379.0</ele><time>2026-04-04T11:48:29.999Z</time></trkpt><trkpt lat="43.979677938286734" lon="12.272986819321696"><ele>379.79999999999995</ele><time>2026-04-04T11:48:30.999Z</time></trkpt><trkpt lat="43.979582147033234" lon="12.273011762171864"><ele>380.59999999999997</ele><time>2026-04-04T11:48:31.999Z</time></trkpt><trkpt lat="43.97948221355589" lon="12.273035598191367"><ele>381.4</ele><time>2026-04-04T11:48:32.999Z</time></trkpt><trkpt lat="43.97938006228964" lon="12.273083021952921"><ele>382.2</ele><time>2026-04-04T11:48:33.999Z</time></trkpt><trkpt lat="43.9792687134243" lon="12.273103419108766"><ele>383.0</ele><time>2026-04-04T11:48:34.999Z</time></trkpt><trkpt lat="43.97915022311375" lon="12.273131061015793"><ele>383.0</ele><time>2026-04-04T11:48:35.999Z</time></trkpt><trkpt lat="43.9790308538425" lon="12.273157066816912"><ele>383.0</ele><time>2026-04-04T11:48:36.999Z</time></trkpt><trkpt lat="43.9789110313362" lon="12.273187971678206"><ele>383.0</ele><time>2026-04-04T11:48:37.999Z</time></trkpt><trkpt lat="43.97878766758414" lon="12.273215715893325"><ele>383.0</ele><time>2026-04-04T11:48:38.999Z</time></trkpt><trkpt lat="43.97867102699471" lon="12.27323959434932"><ele>383.0</ele><time>2026-04-04T11:48:39.999Z</time></trkpt><trkpt lat="43.97856329180213" lon="12.273266766699026"><ele>383.0</ele><time>2026-04-04T11:48:40.999Z</time></trkpt><trkpt lat="43.97846047999405" lon="12.273294068041073"><ele>383.0</ele><time>2026-04-04T11:48:41.999Z</time></trkpt><trkpt lat="43.97835855999166" lon="12.2733107711511"><ele>383.0</ele><time>2026-04-04T11:48:42.999Z</time></trkpt><trkpt lat="43.97824852406056" lon="12.273303368148392"><ele>383.0</ele><time>2026-04-04T11:48:43.999Z</time></trkpt><trkpt lat="43.9781404347017" lon="12.273302308688294"><ele>380.2</ele><time>2026-04-04T11:48:44.999Z</time></trkpt><trkpt lat="43.978035856173" lon="12.273301750933458"><ele>377.4</ele><time>2026-04-04T11:48:45.999Z</time></trkpt><trkpt lat="43.97793418568631" lon="12.273323680463347"><ele>374.59999999999997</ele><time>2026-04-04T11:48:46.999Z</time></trkpt><trkpt lat="43.97783154427259" lon="12.273317611715086"><ele>371.79999999999995</ele><time>2026-04-04T11:48:47.999Z</time></trkpt><trkpt lat="43.9777313986344" lon="12.273320134500661"><ele>369.0</ele><time>2026-04-04T11:48:48.999Z</time></trkpt><trkpt lat="43.97763257856616" lon="12.273320345842055"><ele>369.0</ele><time>2026-04-04T11:48:49.999Z</time></trkpt><trkpt lat="43.977535966659396" lon="12.273319128817354"><ele>369.0</ele><time>2026-04-04T11:48:50.999Z</time></trkpt><trkpt lat="43.97744011537076" lon="12.273326178154415"><ele>369.0</ele><time>2026-04-04T11:48:51.999Z</time></trkpt><trkpt lat="43.97735313091804" lon="12.273330598049153"><ele>369.0</ele><time>2026-04-04T11:48:53Z</time></trkpt><trkpt lat="43.97726588035658" lon="12.273332120215363"><ele>369.0</ele><time>2026-04-04T11:48:54Z</time></trkpt><trkpt lat="43.977181127275024" lon="12.273346071196453"><ele>368.3333333333333</ele><time>2026-04-04T11:48:55Z</time></trkpt><trkpt lat="43.977097966964955" lon="12.273366044317088"><ele>367.6666666666667</ele><time>2026-04-04T11:48:56Z</time></trkpt><trkpt lat="43.97701781242251" lon="12.273390154842216"><ele>367.0</ele><time>2026-04-04T11:48:57Z</time></trkpt><trkpt lat="43.97693504839301" lon="12.273419666202154"><ele>366.33333333333337</ele><time>2026-04-04T11:48:58Z</time></trkpt><trkpt lat="43.97684960423221" lon="12.273447953498007"><ele>365.6666666666667</ele><time>2026-04-04T11:48:59Z</time></trkpt><trkpt lat="43.97675790521138" lon="12.273476284298708"><ele>365.0</ele><time>2026-04-04T11:49:00Z</time></trkpt><trkpt lat="43.976663275361894" lon="12.273499896963619"><ele>365.0</ele><time>2026-04-04T11:49:01Z</time></trkpt><trkpt lat="43.97656824371815" lon="12.273524020599554"><ele>365.0</ele><time>2026-04-04T11:49:02Z</time></trkpt><trkpt lat="43.97647361113821" lon="12.2735435642418"><ele>365.0</ele><time>2026-04-04T11:49:03Z</time></trkpt><trkpt lat="43.976378486600375" lon="12.273567632147312"><ele>365.0</ele><time>2026-04-04T11:49:04Z</time></trkpt><trkpt lat="43.97628323984018" lon="12.273593912359548"><ele>365.0</ele><time>2026-04-04T11:49:05Z</time></trkpt><trkpt lat="43.97618680793952" lon="12.27361617696814"><ele>365.0</ele><time>2026-04-04T11:49:06Z</time></trkpt><trkpt lat="43.97609109095412" lon="12.27364145628684"><ele>365.0</ele><time>2026-04-04T11:49:07Z</time></trkpt><trkpt lat="43.975993958431395" lon="12.27366943130027"><ele>365.0</ele><time>2026-04-04T11:49:08Z</time></trkpt><trkpt lat="43.97590239687472" lon="12.273704697465359"><ele>365.0</ele><time>2026-04-04T11:49:09Z</time></trkpt><trkpt lat="43.9758093031285" lon="12.273751648121678"><ele>365.0</ele><time>2026-04-04T11:49:10Z</time></trkpt><trkpt lat="43.97571870283105" lon="12.27382174250447"><ele>363.6</ele><time>2026-04-04T11:49:11Z</time></trkpt><trkpt lat="43.975631622306715" lon="12.273895732228405"><ele>362.2</ele><time>2026-04-04T11:49:12Z</time></trkpt><trkpt lat="43.975541456186505" lon="12.273975971341414"><ele>360.79999999999995</ele><time>2026-04-04T11:49:13Z</time></trkpt><trkpt lat="43.975450694780626" lon="12.274061256305751"><ele>359.4</ele><time>2026-04-04T11:49:14Z</time></trkpt><trkpt lat="43.9753619206803" lon="12.274144355965946"><ele>358.0</ele><time>2026-04-04T11:49:15Z</time></trkpt><trkpt lat="43.975265933946645" lon="12.274229640623346"><ele>358.0</ele><time>2026-04-04T11:49:16Z</time></trkpt><trkpt lat="43.975173869807946" lon="12.274327186413936"><ele>358.0</ele><time>2026-04-04T11:49:17Z</time></trkpt><trkpt lat="43.975084556381994" lon="12.274434800934626"><ele>358.0</ele><time>2026-04-04T11:49:18Z</time></trkpt><trkpt lat="43.974996062366436" lon="12.27454405061223"><ele>358.0</ele><time>2026-04-04T11:49:19Z</time></trkpt><trkpt lat="43.97490699832423" lon="12.27465948166972"><ele>357.0</ele><time>2026-04-04T11:49:20Z</time></trkpt><trkpt lat="43.97482089348002" lon="12.274778860858493"><ele>356.0</ele><time>2026-04-04T11:49:21Z</time></trkpt><trkpt lat="43.97473250355186" lon="12.274891637274818"><ele>355.0</ele><time>2026-04-04T11:49:22Z</time></trkpt><trkpt lat="43.97464407137998" lon="12.274995863837734"><ele>354.0</ele><time>2026-04-04T11:49:23Z</time></trkpt><trkpt lat="43.9745509480045" lon="12.27508734485826"><ele>354.0</ele><time>2026-04-04T11:49:24Z</time></trkpt><trkpt lat="43.97445323917639" lon="12.275154515604061"><ele>354.0</ele><time>2026-04-04T11:49:25Z</time></trkpt><trkpt lat="43.97434700938936" lon="12.275194062652302"><ele>354.0</ele><time>2026-04-04T11:49:26Z</time></trkpt><trkpt lat="43.974232243157324" lon="12.275216903811568"><ele>354.0</ele><time>2026-04-04T11:49:27Z</time></trkpt><trkpt lat="43.974112092988236" lon="12.275226995818127"><ele>354.75</ele><time>2026-04-04T11:49:28Z</time></trkpt><trkpt lat="43.9739882413349" lon="12.27523562756146"><ele>355.5</ele><time>2026-04-04T11:49:29.001Z</time></trkpt><trkpt lat="43.973861947476905" lon="12.27525036887929"><ele>356.25</ele><time>2026-04-04T11:49:30.001Z</time></trkpt><trkpt lat="43.973731510646964" lon="12.275262126297184"><ele>357.0</ele><time>2026-04-04T11:49:31.001Z</time></trkpt><trkpt lat="43.97361523341464" lon="12.27527169323866"><ele>357.0</ele><time>2026-04-04T11:49:32.001Z</time></trkpt><trkpt lat="43.97349626254192" lon="12.275275801195841"><ele>357.0</ele><time>2026-04-04T11:49:33.001Z</time></trkpt><trkpt lat="43.973383902135225" lon="12.275294809712387"><ele>357.0</ele><time>2026-04-04T11:49:34.001Z</time></trkpt><trkpt lat="43.97328452546985" lon="12.275325647861923"><ele>357.0</ele><time>2026-04-04T11:49:35.001Z</time></trkpt><trkpt lat="43.97319982202919" lon="12.275385834331573"><ele>357.0</ele><time>2026-04-04T11:49:36.001Z</time></trkpt><trkpt lat="43.973134245096254" lon="12.275470366794314"><ele>356.6</ele><time>2026-04-04T11:49:37.001Z</time></trkpt><trkpt lat="43.973085901205074" lon="12.27557194249846"><ele>356.20000000000005</ele><time>2026-04-04T11:49:38.001Z</time></trkpt><trkpt lat="43.97307296066377" lon="12.275689303336502"><ele>355.8</ele><time>2026-04-04T11:49:39.001Z</time></trkpt><trkpt lat="43.97309351441563" lon="12.27580856110791"><ele>355.4</ele><time>2026-04-04T11:49:40.001Z</time></trkpt><trkpt lat="43.97312738261486" lon="12.275927189329309"><ele>355.0</ele><time>2026-04-04T11:49:41.001Z</time></trkpt><trkpt lat="43.97314242636797" lon="12.276067640470313"><ele>355.75</ele><time>2026-04-04T11:49:42.001Z</time></trkpt><trkpt lat="43.97317425697374" lon="12.276218655969284"><ele>356.5</ele><time>2026-04-04T11:49:43.001Z</time></trkpt><trkpt lat="43.97321980002195" lon="12.27637201573873"><ele>357.25</ele><time>2026-04-04T11:49:44.001Z</time></trkpt><trkpt lat="43.97324690282774" lon="12.276535525003455"><ele>358.0</ele><time>2026-04-04T11:49:45.001Z</time></trkpt><trkpt lat="43.973275095112925" lon="12.276702132856691"><ele>358.0</ele><time>2026-04-04T11:49:46.001Z</time></trkpt><trkpt lat="43.97330640659244" lon="12.276875752917165"><ele>358.0</ele><time>2026-04-04T11:49:47.001Z</time></trkpt><trkpt lat="43.973340403657375" lon="12.277056801006376"><ele>358.0</ele><time>2026-04-04T11:49:48.001Z</time></trkpt><trkpt lat="43.97337688460507" lon="12.277231506492829"><ele>358.0</ele><time>2026-04-04T11:49:49.001Z</time></trkpt><trkpt lat="43.97341347828365" lon="12.277401356487312"><ele>355.0</ele><time>2026-04-04T11:49:50.001Z</time></trkpt><trkpt lat="43.973447635107355" lon="12.277558234920967"><ele>352.0</ele><time>2026-04-04T11:49:51.001Z</time></trkpt><trkpt lat="43.97347859040078" lon="12.277705209293153"><ele>349.0</ele><time>2026-04-04T11:49:52.001Z</time></trkpt><trkpt lat="43.97348456464119" lon="12.277850634521693"><ele>346.0</ele><time>2026-04-04T11:49:53.001Z</time></trkpt><trkpt lat="43.973479670433555" lon="12.277971479837117"><ele>343.0</ele><time>2026-04-04T11:49:54.001Z</time></trkpt><trkpt lat="43.97347357599099" lon="12.278079890538528"><ele>342.5</ele><time>2026-04-04T11:49:55.001Z</time></trkpt><trkpt lat="43.97343410898432" lon="12.278165648351465"><ele>342.0</ele><time>2026-04-04T11:49:56.001Z</time></trkpt><trkpt lat="43.97338260974083" lon="12.278236626971934"><ele>341.5</ele><time>2026-04-04T11:49:57.001Z</time></trkpt><trkpt lat="43.973307738204966" lon="12.278271137942024"><ele>341.0</ele><time>2026-04-04T11:49:58.001Z</time></trkpt><trkpt lat="43.97323075683344" lon="12.278317153602535"><ele>340.5</ele><time>2026-04-04T11:49:59.001Z</time></trkpt><trkpt lat="43.97314996868926" lon="12.278359505245847"><ele>340.0</ele><time>2026-04-04T11:50:00.001Z</time></trkpt><trkpt lat="43.973064632066745" lon="12.27840389422306"><ele>341.8</ele><time>2026-04-04T11:50:01.001Z</time></trkpt><trkpt lat="43.97298389702589" lon="12.278469847724994"><ele>343.6</ele><time>2026-04-04T11:50:02.001Z</time></trkpt><trkpt lat="43.972893976665844" lon="12.278512083108746"><ele>345.4</ele><time>2026-04-04T11:50:03.001Z</time></trkpt><trkpt lat="43.97280200045532" lon="12.278557666896262"><ele>347.2</ele><time>2026-04-04T11:50:04.001Z</time></trkpt><trkpt lat="43.97271117312028" lon="12.278612717088864"><ele>349.0</ele><time>2026-04-04T11:50:05.001Z</time></trkpt><trkpt lat="43.97262750021573" lon="12.278660876117602"><ele>349.0</ele><time>2026-04-04T11:50:06.001Z</time></trkpt><trkpt lat="43.97254932927079" lon="12.278705908865795"><ele>349.0</ele><time>2026-04-04T11:50:07.001Z</time></trkpt><trkpt lat="43.97247487466993" lon="12.278750189387207"><ele>349.0</ele><time>2026-04-04T11:50:08.001Z</time></trkpt><trkpt lat="43.972395008707736" lon="12.278791181878514"><ele>349.0</ele><time>2026-04-04T11:50:09.001Z</time></trkpt><trkpt lat="43.97230697904057" lon="12.278796725433734"><ele>349.0</ele><time>2026-04-04T11:50:10.001Z</time></trkpt><trkpt lat="43.97222139538219" lon="12.27881442235014"><ele>349.0</ele><time>2026-04-04T11:50:11.001Z</time></trkpt><trkpt lat="43.97213710012714" lon="12.278827025182661"><ele>349.66666666666663</ele><time>2026-04-04T11:50:12.001Z</time></trkpt><trkpt lat="43.97205446809638" lon="12.27885624846815"><ele>350.3333333333333</ele><time>2026-04-04T11:50:13.001Z</time></trkpt><trkpt lat="43.97196497786563" lon="12.278857305003738"><ele>351.0</ele><time>2026-04-04T11:50:14.001Z</time></trkpt><trkpt lat="43.97187624574567" lon="12.278865516963746"><ele>351.6666666666667</ele><time>2026-04-04T11:50:15.002Z</time></trkpt><trkpt lat="43.97178885230805" lon="12.278889734571699"><ele>352.33333333333337</ele><time>2026-04-04T11:50:16.002Z</time></trkpt><trkpt lat="43.97170494090332" lon="12.278906360670742"><ele>353.0</ele><time>2026-04-04T11:50:17.002Z</time></trkpt><trkpt lat="43.971620802961695" lon="12.278916874396463"><ele>354.0</ele><time>2026-04-04T11:50:18.002Z</time></trkpt><trkpt lat="43.971535642412576" lon="12.27891046070303"><ele>355.0</ele><time>2026-04-04T11:50:19.002Z</time></trkpt><trkpt lat="43.97145623457948" lon="12.278895524880653"><ele>356.0</ele><time>2026-04-04T11:50:20.002Z</time></trkpt><trkpt lat="43.97137762594759" lon="12.278873677636653"><ele>357.0</ele><time>2026-04-04T11:50:21.002Z</time></trkpt><trkpt lat="43.97129696791014" lon="12.278845641777226"><ele>358.0</ele><time>2026-04-04T11:50:22.002Z</time></trkpt><trkpt lat="43.971217812980875" lon="12.27881744188219"><ele>359.0</ele><time>2026-04-04T11:50:23.002Z</time></trkpt><trkpt lat="43.971136002866096" lon="12.278790606044565"><ele>359.0</ele><time>2026-04-04T11:50:24.002Z</time></trkpt><trkpt lat="43.971052464693884" lon="12.278773931121721"><ele>359.0</ele><time>2026-04-04T11:50:25.002Z</time></trkpt><trkpt lat="43.970964474613936" lon="12.278758537466631"><ele>359.0</ele><time>2026-04-04T11:50:26.002Z</time></trkpt><trkpt lat="43.97087394788692" lon="12.278752582434867"><ele>359.0</ele><time>2026-04-04T11:50:27.002Z</time></trkpt><trkpt lat="43.970787448870325" lon="12.278746829239216"><ele>359.0</ele><time>2026-04-04T11:50:28.002Z</time></trkpt><trkpt lat="43.970700718444306" lon="12.278742550032618"><ele>359.0</ele><time>2026-04-04T11:50:29.002Z</time></trkpt><trkpt lat="43.97061132682495" lon="12.278737124093666"><ele>357.6</ele><time>2026-04-04T11:50:30.002Z</time></trkpt><trkpt lat="43.97052508287948" lon="12.278732653682498"><ele>356.2</ele><time>2026-04-04T11:50:31.002Z</time></trkpt><trkpt lat="43.97043419798345" lon="12.278717994531549"><ele>354.8</ele><time>2026-04-04T11:50:32.002Z</time></trkpt><trkpt lat="43.97034496505509" lon="12.278684928135757"><ele>353.40000000000003</ele><time>2026-04-04T11:50:33.002Z</time></trkpt><trkpt lat="43.97026017199548" lon="12.278632621014834"><ele>352.0</ele><time>2026-04-04T11:50:34Z</time></trkpt><trkpt lat="43.970180759021844" lon="12.278571243481277"><ele>352.0</ele><time>2026-04-04T11:50:35Z</time></trkpt><trkpt lat="43.97011336804071" lon="12.278489349890988"><ele>352.0</ele><time>2026-04-04T11:50:36Z</time></trkpt><trkpt lat="43.97006375521881" lon="12.27839795200692"><ele>352.0</ele><time>2026-04-04T11:50:37Z</time></trkpt><trkpt lat="43.970030292920285" lon="12.278309702321788"><ele>352.0</ele><time>2026-04-04T11:50:38Z</time></trkpt><trkpt lat="43.969943523582714" lon="12.278213708119706"><ele>352.0</ele><time>2026-04-04T11:50:40Z</time></trkpt><trkpt lat="43.96982127027293" lon="12.278232817021046"><ele>350.0</ele><time>2026-04-04T11:50:42Z</time></trkpt><trkpt lat="43.96975411604753" lon="12.27828480714303"><ele>348.0</ele><time>2026-04-04T11:50:43Z</time></trkpt><trkpt lat="43.969693064283824" lon="12.278345123125595"><ele>346.0</ele><time>2026-04-04T11:50:44Z</time></trkpt><trkpt lat="43.9696292970039" lon="12.27840732827046"><ele>344.0</ele><time>2026-04-04T11:50:45Z</time></trkpt><trkpt lat="43.96956066461253" lon="12.278469803774728"><ele>342.0</ele><time>2026-04-04T11:50:46Z</time></trkpt><trkpt lat="43.96948633126628" lon="12.27853062562081"><ele>340.0</ele><time>2026-04-04T11:50:47Z</time></trkpt><trkpt lat="43.96941168142799" lon="12.278591143982279"><ele>340.0</ele><time>2026-04-04T11:50:48Z</time></trkpt><trkpt lat="43.96933839222469" lon="12.278657507374113"><ele>340.0</ele><time>2026-04-04T11:50:49Z</time></trkpt><trkpt lat="43.96925438762843" lon="12.278708406447837"><ele>340.0</ele><time>2026-04-04T11:50:50Z</time></trkpt><trkpt lat="43.96918020193408" lon="12.2787738397101"><ele>340.0</ele><time>2026-04-04T11:50:51Z</time></trkpt><trkpt lat="43.96911607790803" lon="12.278855067543306"><ele>340.0</ele><time>2026-04-04T11:50:52Z</time></trkpt><trkpt lat="43.96904482785586" lon="12.2789158773249"><ele>340.0</ele><time>2026-04-04T11:50:53Z</time></trkpt><trkpt lat="43.96895858441854" lon="12.278959481189085"><ele>336.0</ele><time>2026-04-04T11:50:54Z</time></trkpt><trkpt lat="43.96888764411869" lon="12.279038121119305"><ele>332.0</ele><time>2026-04-04T11:50:55Z</time></trkpt><trkpt lat="43.96880137457439" lon="12.279082617231905"><ele>328.0</ele><time>2026-04-04T11:50:56Z</time></trkpt><trkpt lat="43.96870660948802" lon="12.279112458533572"><ele>324.0</ele><time>2026-04-04T11:50:57Z</time></trkpt><trkpt lat="43.96860621455764" lon="12.279093146877203"><ele>320.0</ele><time>2026-04-04T11:50:58Z</time></trkpt><trkpt lat="43.96850590079403" lon="12.279108633126446"><ele>320.0</ele><time>2026-04-04T11:50:59Z</time></trkpt><trkpt lat="43.968407615459306" lon="12.279081363340332"><ele>320.0</ele><time>2026-04-04T11:51:00Z</time></trkpt><trkpt lat="43.968306191061195" lon="12.279039067926409"><ele>320.0</ele><time>2026-04-04T11:51:01Z</time></trkpt><trkpt lat="43.968200331541304" lon="12.278999820460395"><ele>320.0</ele><time>2026-04-04T11:51:02Z</time></trkpt><trkpt lat="43.96809280501926" lon="12.278961960989196"><ele>320.0</ele><time>2026-04-04T11:51:03Z</time></trkpt><trkpt lat="43.96798641824903" lon="12.278929123942483"><ele>317.2</ele><time>2026-04-04T11:51:04Z</time></trkpt><trkpt lat="43.96788390706471" lon="12.27889180642863"><ele>314.4</ele><time>2026-04-04T11:51:05Z</time></trkpt><trkpt lat="43.96778502168492" lon="12.27884298887036"><ele>311.6</ele><time>2026-04-04T11:51:06Z</time></trkpt><trkpt lat="43.967687738681114" lon="12.278776759455582"><ele>308.8</ele><time>2026-04-04T11:51:07Z</time></trkpt><trkpt lat="43.96759481042405" lon="12.278696110290992"><ele>306.0</ele><time>2026-04-04T11:51:08Z</time></trkpt><trkpt lat="43.967519602710915" lon="12.278615032301088"><ele>305.8</ele><time>2026-04-04T11:51:09Z</time></trkpt><trkpt lat="43.96745382168168" lon="12.278518105461844"><ele>305.6</ele><time>2026-04-04T11:51:10Z</time></trkpt><trkpt lat="43.96741150006789" lon="12.278401966908197"><ele>305.4</ele><time>2026-04-04T11:51:11Z</time></trkpt><trkpt lat="43.96741121831904" lon="12.278273834817893"><ele>305.2</ele><time>2026-04-04T11:51:12.001Z</time></trkpt><trkpt lat="43.967415071327544" lon="12.278145859131724"><ele>305.0</ele><time>2026-04-04T11:51:13.001Z</time></trkpt><trkpt lat="43.96739171822084" lon="12.27801789428028"><ele>302.1666666666667</ele><time>2026-04-04T11:51:14.001Z</time></trkpt><trkpt lat="43.967387322881" lon="12.277906944286958"><ele>299.33333333333337</ele><time>2026-04-04T11:51:15.001Z</time></trkpt><trkpt lat="43.96735515656012" lon="12.27782099091938"><ele>296.5</ele><time>2026-04-04T11:51:16.001Z</time></trkpt><trkpt lat="43.967278289400745" lon="12.277785180308218"><ele>293.6666666666667</ele><time>2026-04-04T11:51:17.001Z</time></trkpt><trkpt lat="43.96719997906711" lon="12.277796755661177"><ele>290.8333333333333</ele><time>2026-04-04T11:51:18.001Z</time></trkpt><trkpt lat="43.96714180671831" lon="12.277894773441673"><ele>288.0</ele><time>2026-04-04T11:51:19.001Z</time></trkpt><trkpt lat="43.96707748163088" lon="12.27797702770072"><ele>291.4</ele><time>2026-04-04T11:51:20.001Z</time></trkpt><trkpt lat="43.96704061099097" lon="12.278102791483553"><ele>294.8</ele><time>2026-04-04T11:51:21.001Z</time></trkpt><trkpt lat="43.966957405831145" lon="12.278195201725067"><ele>298.2</ele><time>2026-04-04T11:51:22.001Z</time></trkpt><trkpt lat="43.96687765576984" lon="12.278299860719535"><ele>301.6</ele><time>2026-04-04T11:51:23.001Z</time></trkpt><trkpt lat="43.966807426703355" lon="12.27840731417869"><ele>305.0</ele><time>2026-04-04T11:51:24.001Z</time></trkpt><trkpt lat="43.96673382633275" lon="12.278497023530944"><ele>303.1666666666667</ele><time>2026-04-04T11:51:25.001Z</time></trkpt><trkpt lat="43.96668062298533" lon="12.278597302304146"><ele>301.33333333333337</ele><time>2026-04-04T11:51:26.001Z</time></trkpt><trkpt lat="43.96666147026501" lon="12.278707509991753"><ele>299.5</ele><time>2026-04-04T11:51:27.001Z</time></trkpt><trkpt lat="43.96666241456982" lon="12.278802617552957"><ele>297.6666666666667</ele><time>2026-04-04T11:51:28.001Z</time></trkpt><trkpt lat="43.96659327349501" lon="12.278885683668953"><ele>295.8333333333333</ele><time>2026-04-04T11:51:30.001Z</time></trkpt><trkpt lat="43.96650617515906" lon="12.278790175512857"><ele>294.0</ele><time>2026-04-04T11:51:32.001Z</time></trkpt><trkpt lat="43.966503302248356" lon="12.278700152999932"><ele>294.0</ele><time>2026-04-04T11:51:33.001Z</time></trkpt><trkpt lat="43.96651445795128" lon="12.27859465234017"><ele>294.0</ele><time>2026-04-04T11:51:34.001Z</time></trkpt><trkpt lat="43.96656209015765" lon="12.278497467392704"><ele>294.0</ele><time>2026-04-04T11:51:35.001Z</time></trkpt><trkpt lat="43.966602335163735" lon="12.27839757095009"><ele>294.0</ele><time>2026-04-04T11:51:36.001Z</time></trkpt><trkpt lat="43.966622357208955" lon="12.278293397477821"><ele>294.0</ele><time>2026-04-04T11:51:37.001Z</time></trkpt><trkpt lat="43.96664362065265" lon="12.278210666207798"><ele>294.0</ele><time>2026-04-04T11:51:38.001Z</time></trkpt><trkpt lat="43.96660160981787" lon="12.27808598816834"><ele>294.0</ele><time>2026-04-04T11:51:40.001Z</time></trkpt><trkpt lat="43.96649260554838" lon="12.278128665445363"><ele>294.0</ele><time>2026-04-04T11:51:42.001Z</time></trkpt><trkpt lat="43.96646178251675" lon="12.278213096094206"><ele>294.0</ele><time>2026-04-04T11:51:43.001Z</time></trkpt><trkpt lat="43.96642235490321" lon="12.278309601402823"><ele>294.0</ele><time>2026-04-04T11:51:44.001Z</time></trkpt><trkpt lat="43.96635568285091" lon="12.278381589329689"><ele>294.0</ele><time>2026-04-04T11:51:45.001Z</time></trkpt><trkpt lat="43.9662666036433" lon="12.278396608451434"><ele>294.0</ele><time>2026-04-04T11:51:46.001Z</time></trkpt><trkpt lat="43.96617707191388" lon="12.27844280864937"><ele>294.0</ele><time>2026-04-04T11:51:47.001Z</time></trkpt><trkpt lat="43.96608311066339" lon="12.278497488835827"><ele>294.0</ele><time>2026-04-04T11:51:48.001Z</time></trkpt><trkpt lat="43.965986952481465" lon="12.27855504018818"><ele>294.0</ele><time>2026-04-04T11:51:49.001Z</time></trkpt><trkpt lat="43.96588625022804" lon="12.278591936860247"><ele>294.0</ele><time>2026-04-04T11:51:50.001Z</time></trkpt><trkpt lat="43.965778522176294" lon="12.278603674918728"><ele>294.0</ele><time>2026-04-04T11:51:51.001Z</time></trkpt><trkpt lat="43.96566492684739" lon="12.278615835023622"><ele>287.75</ele><time>2026-04-04T11:51:52.001Z</time></trkpt><trkpt lat="43.96554946385337" lon="12.278627678475516"><ele>281.5</ele><time>2026-04-04T11:51:53.001Z</time></trkpt><trkpt lat="43.96543254339876" lon="12.278638101607159"><ele>275.25</ele><time>2026-04-04T11:51:54.001Z</time></trkpt><trkpt lat="43.965309852873" lon="12.278652431359449"><ele>269.0</ele><time>2026-04-04T11:51:55.001Z</time></trkpt><trkpt lat="43.965187272474715" lon="12.278671922446666"><ele>269.0</ele><time>2026-04-04T11:51:56.002Z</time></trkpt><trkpt lat="43.96506642032464" lon="12.278696431123084"><ele>269.0</ele><time>2026-04-04T11:51:57.002Z</time></trkpt><trkpt lat="43.964942588044124" lon="12.278719751125955"><ele>269.0</ele><time>2026-04-04T11:51:58.002Z</time></trkpt><trkpt lat="43.96482180350619" lon="12.278739960990762"><ele>269.0</ele><time>2026-04-04T11:51:59.002Z</time></trkpt><trkpt lat="43.964697639629236" lon="12.278760784259012"><ele>267.25</ele><time>2026-04-04T11:52:00.002Z</time></trkpt><trkpt lat="43.964581002592844" lon="12.278778013381443"><ele>265.5</ele><time>2026-04-04T11:52:01.002Z</time></trkpt><trkpt lat="43.96446033211833" lon="12.278793096426892"><ele>263.75</ele><time>2026-04-04T11:52:02.002Z</time></trkpt><trkpt lat="43.964344705278265" lon="12.278804334065937"><ele>262.0</ele><time>2026-04-04T11:52:03.002Z</time></trkpt><trkpt lat="43.964230853852264" lon="12.278802078381972"><ele>261.6</ele><time>2026-04-04T11:52:04.002Z</time></trkpt><trkpt lat="43.96411891790685" lon="12.278788353130297"><ele>261.2</ele><time>2026-04-04T11:52:05.002Z</time></trkpt><trkpt lat="43.96401126709994" lon="12.278760989303729"><ele>260.8</ele><time>2026-04-04T11:52:06.002Z</time></trkpt><trkpt lat="43.96391349291265" lon="12.278723640971553"><ele>260.4</ele><time>2026-04-04T11:52:07.002Z</time></trkpt><trkpt lat="43.963822668280166" lon="12.278691937103169"><ele>260.0</ele><time>2026-04-04T11:52:08.002Z</time></trkpt><trkpt lat="43.963736384443955" lon="12.27868704620724"><ele>260.0</ele><time>2026-04-04T11:52:09.002Z</time></trkpt><trkpt lat="43.963658279108394" lon="12.278722118825556"><ele>260.0</ele><time>2026-04-04T11:52:10.002Z</time></trkpt><trkpt lat="43.963598002857196" lon="12.278822606151927"><ele>260.0</ele><time>2026-04-04T11:52:11.002Z</time></trkpt><trkpt lat="43.96355960318076" lon="12.278937409330455"><ele>260.0</ele><time>2026-04-04T11:52:12.002Z</time></trkpt><trkpt lat="43.963520881366414" lon="12.27904847341298"><ele>260.0</ele><time>2026-04-04T11:52:13.002Z</time></trkpt><trkpt lat="43.963478065077105" lon="12.279146873921412"><ele>260.0</ele><time>2026-04-04T11:52:14.002Z</time></trkpt><trkpt lat="43.96343633066898" lon="12.279246395450894"><ele>260.0</ele><time>2026-04-04T11:52:15.002Z</time></trkpt><trkpt lat="43.96336542419628" lon="12.27929219561588"><ele>260.0</ele><time>2026-04-04T11:52:16.002Z</time></trkpt><trkpt lat="43.963285396885105" lon="12.279287254559765"><ele>260.0</ele><time>2026-04-04T11:52:17.002Z</time></trkpt><trkpt lat="43.96320075128278" lon="12.279251013634012"><ele>260.0</ele><time>2026-04-04T11:52:18.002Z</time></trkpt><trkpt lat="43.96311535835397" lon="12.279210016332504"><ele>260.0</ele><time>2026-04-04T11:52:19.002Z</time></trkpt><trkpt lat="43.96303334161888" lon="12.27916051759492"><ele>260.0</ele><time>2026-04-04T11:52:20.002Z</time></trkpt><trkpt lat="43.962954078262484" lon="12.279120082674726"><ele>260.0</ele><time>2026-04-04T11:52:21.002Z</time></trkpt><trkpt lat="43.962874035228914" lon="12.279090448501195"><ele>260.0</ele><time>2026-04-04T11:52:22.002Z</time></trkpt><trkpt lat="43.96278985119391" lon="12.279125434340271"><ele>260.0</ele><time>2026-04-04T11:52:23.002Z</time></trkpt><trkpt lat="43.9627433064841" lon="12.279264372742489"><ele>260.0</ele><time>2026-04-04T11:52:24.002Z</time></trkpt><trkpt lat="43.962688891119036" lon="12.27936591919229"><ele>260.0</ele><time>2026-04-04T11:52:25.002Z</time></trkpt><trkpt lat="43.96262307172759" lon="12.279470789803757"><ele>260.0</ele><time>2026-04-04T11:52:26.002Z</time></trkpt><trkpt lat="43.962548424778305" lon="12.27956949037521"><ele>260.0</ele><time>2026-04-04T11:52:27.002Z</time></trkpt><trkpt lat="43.962476670660415" lon="12.279679259946294"><ele>260.0</ele><time>2026-04-04T11:52:28.002Z</time></trkpt><trkpt lat="43.962386721767324" lon="12.279776775533156"><ele>260.0</ele><time>2026-04-04T11:52:29.002Z</time></trkpt><trkpt lat="43.962287373587976" lon="12.279869114666973"><ele>260.0</ele><time>2026-04-04T11:52:30.002Z</time></trkpt><trkpt lat="43.96219824692666" lon="12.279968437277327"><ele>256.8</ele><time>2026-04-04T11:52:31.002Z</time></trkpt><trkpt lat="43.962111369517295" lon="12.280061036780367"><ele>253.6</ele><time>2026-04-04T11:52:32.002Z</time></trkpt><trkpt lat="43.96203020872056" lon="12.280148402552928"><ele>250.39999999999998</ele><time>2026-04-04T11:52:33.002Z</time></trkpt><trkpt lat="43.96196598664628" lon="12.280255205393978"><ele>247.2</ele><time>2026-04-04T11:52:34.002Z</time></trkpt><trkpt lat="43.961895849520516" lon="12.280323141013763"><ele>244.0</ele><time>2026-04-04T11:52:35.002Z</time></trkpt><trkpt lat="43.96185909583931" lon="12.28044076172159"><ele>243.99999999999997</ele><time>2026-04-04T11:52:36.002Z</time></trkpt><trkpt lat="43.96186939077498" lon="12.280568984714195"><ele>244.0</ele><time>2026-04-04T11:52:37.002Z</time></trkpt><trkpt lat="43.961931459571666" lon="12.280665081374686"><ele>244.0</ele><time>2026-04-04T11:52:38.002Z</time></trkpt><trkpt lat="43.961985910961175" lon="12.280743910938414"><ele>244.0</ele><time>2026-04-04T11:52:39.002Z</time></trkpt><trkpt lat="43.96207491211584" lon="12.280744829635207"><ele>243.99999999999997</ele><time>2026-04-04T11:52:40Z</time></trkpt><trkpt lat="43.96216014776503" lon="12.280728271761967"><ele>244.0</ele><time>2026-04-04T11:52:41Z</time></trkpt><trkpt lat="43.96223760159536" lon="12.28070176250333"><ele>241.83333333333331</ele><time>2026-04-04T11:52:42Z</time></trkpt><trkpt lat="43.96230545459763" lon="12.280727967167405"><ele>239.66666666666666</ele><time>2026-04-04T11:52:43Z</time></trkpt><trkpt lat="43.96238362649847" lon="12.280845889997934"><ele>237.5</ele><time>2026-04-04T11:52:45Z</time></trkpt><trkpt lat="43.96236952855153" lon="12.280942209947217"><ele>235.33333333333331</ele><time>2026-04-04T11:52:46Z</time></trkpt><trkpt lat="43.96232853415873" lon="12.281015745928654"><ele>233.16666666666666</ele><time>2026-04-04T11:52:47Z</time></trkpt><trkpt lat="43.962276499150654" lon="12.28109244911674"><ele>231.0</ele><time>2026-04-04T11:52:48Z</time></trkpt><trkpt lat="43.962205358612586" lon="12.281135489701425"><ele>231.0</ele><time>2026-04-04T11:52:49Z</time></trkpt><trkpt lat="43.96212714471228" lon="12.28113132014599"><ele>231.0</ele><time>2026-04-04T11:52:50Z</time></trkpt><trkpt lat="43.96203837299186" lon="12.2811172749537"><ele>231.0</ele><time>2026-04-04T11:52:51Z</time></trkpt><trkpt lat="43.96194964771949" lon="12.281112951516691"><ele>231.0</ele><time>2026-04-04T11:52:52Z</time></trkpt><trkpt lat="43.9618711059222" lon="12.281104247631578"><ele>231.0</ele><time>2026-04-04T11:52:53Z</time></trkpt><trkpt lat="43.961806539731036" lon="12.28114486151403"><ele>231.0</ele><time>2026-04-04T11:52:54Z</time></trkpt><trkpt lat="43.96175614220078" lon="12.281203935409316"><ele>231.0</ele><time>2026-04-04T11:52:55Z</time></trkpt><trkpt lat="43.96174741256286" lon="12.281319476678469"><ele>231.00000000000003</ele><time>2026-04-04T11:52:56Z</time></trkpt><trkpt lat="43.96180968824192" lon="12.281418572318495"><ele>231.00000000000003</ele><time>2026-04-04T11:52:57Z</time></trkpt><trkpt lat="43.961854599219166" lon="12.281526708049757"><ele>231.0</ele><time>2026-04-04T11:52:58Z</time></trkpt><trkpt lat="43.96190975417302" lon="12.28162053602674"><ele>231.0</ele><time>2026-04-04T11:52:59Z</time></trkpt><trkpt lat="43.96191499896952" lon="12.281757199441548"><ele>228.33333333333334</ele><time>2026-04-04T11:53:01Z</time></trkpt><trkpt lat="43.96181811122288" lon="12.281849949729713"><ele>225.66666666666669</ele><time>2026-04-04T11:53:03Z</time></trkpt><trkpt lat="43.96175379507698" lon="12.281818017486282"><ele>223.0</ele><time>2026-04-04T11:53:04Z</time></trkpt><trkpt lat="43.961681781193164" lon="12.281811957335805"><ele>220.33333333333334</ele><time>2026-04-04T11:53:05Z</time></trkpt><trkpt lat="43.961612029165885" lon="12.281830014574911"><ele>217.66666666666669</ele><time>2026-04-04T11:53:06Z</time></trkpt><trkpt lat="43.96153954623047" lon="12.281809260768988"><ele>215.0</ele><time>2026-04-04T11:53:07Z</time></trkpt><trkpt lat="43.96144721027544" lon="12.281812861759116"><ele>214.4</ele><time>2026-04-04T11:53:09.001Z</time></trkpt><trkpt lat="43.96137421160474" lon="12.281829456348087"><ele>213.8</ele><time>2026-04-04T11:53:12.001Z</time></trkpt><trkpt lat="43.961383464848794" lon="12.282030487353433"><ele>213.2</ele><time>2026-04-04T11:53:13.001Z</time></trkpt><trkpt lat="43.96141912932924" lon="12.282106133612613"><ele>212.6</ele><time>2026-04-04T11:53:14.001Z</time></trkpt><trkpt lat="43.96150134568762" lon="12.282246184170658"><ele>212.0</ele><time>2026-04-04T11:53:16.001Z</time></trkpt><trkpt lat="43.961566546912195" lon="12.282286743077476"><ele>212.6</ele><time>2026-04-04T11:53:17.001Z</time></trkpt><trkpt lat="43.961652317116915" lon="12.282287745947642"><ele>213.2</ele><time>2026-04-04T11:53:18.001Z</time></trkpt><trkpt lat="43.96174742062964" lon="12.282261449306993"><ele>213.8</ele><time>2026-04-04T11:53:19.001Z</time></trkpt><trkpt lat="43.961845332201634" lon="12.28223187133358"><ele>214.4</ele><time>2026-04-04T11:53:20.001Z</time></trkpt><trkpt lat="43.961947662295024" lon="12.28224795969098"><ele>215.0</ele><time>2026-04-04T11:53:21.001Z</time></trkpt><trkpt lat="43.9620402581246" lon="12.282238942840676"><ele>212.8</ele><time>2026-04-04T11:53:22.001Z</time></trkpt><trkpt lat="43.96212656688102" lon="12.282314743426488"><ele>210.6</ele><time>2026-04-04T11:53:23.001Z</time></trkpt><trkpt lat="43.962208269516914" lon="12.282391840796953"><ele>208.39999999999998</ele><time>2026-04-04T11:53:24.001Z</time></trkpt><trkpt lat="43.962270992805585" lon="12.282456075145001"><ele>206.2</ele><time>2026-04-04T11:53:25.001Z</time></trkpt><trkpt lat="43.96232245217619" lon="12.282511848833531"><ele>204.0</ele><time>2026-04-04T11:53:26.001Z</time></trkpt><trkpt lat="43.96230086814211" lon="12.282681502795592"><ele>204.0</ele><time>2026-04-04T11:53:28.001Z</time></trkpt><trkpt lat="43.962230169309485" lon="12.282749121818464"><ele>204.0</ele><time>2026-04-04T11:53:29.001Z</time></trkpt><trkpt lat="43.96217879171562" lon="12.282851008396388"><ele>204.0</ele><time>2026-04-04T11:53:30.001Z</time></trkpt><trkpt lat="43.96212100665786" lon="12.282950548178617"><ele>204.0</ele><time>2026-04-04T11:53:31.001Z</time></trkpt><trkpt lat="43.96206964429275" lon="12.283038686104772"><ele>204.0</ele><time>2026-04-04T11:53:32.001Z</time></trkpt><trkpt lat="43.96206795060158" lon="12.283157172047519"><ele>204.0</ele><time>2026-04-04T11:53:33.001Z</time></trkpt><trkpt lat="43.96214217423036" lon="12.283241699757436"><ele>204.79999999999998</ele><time>2026-04-04T11:53:34.001Z</time></trkpt><trkpt lat="43.96221261256173" lon="12.283302242249047"><ele>205.6</ele><time>2026-04-04T11:53:35.001Z</time></trkpt><trkpt lat="43.96229255158354" lon="12.2833817204686"><ele>206.4</ele><time>2026-04-04T11:53:36.001Z</time></trkpt><trkpt lat="43.96238926581632" lon="12.283448545431208"><ele>207.2</ele><time>2026-04-04T11:53:37.001Z</time></trkpt><trkpt lat="43.96248637346705" lon="12.283519639304087"><ele>208.0</ele><time>2026-04-04T11:53:38.001Z</time></trkpt><trkpt lat="43.962602562920246" lon="12.283583252859229"><ele>206.75</ele><time>2026-04-04T11:53:39.001Z</time></trkpt><trkpt lat="43.96271054655972" lon="12.283679932610312"><ele>205.5</ele><time>2026-04-04T11:53:40.001Z</time></trkpt><trkpt lat="43.9628180452153" lon="12.283793221723558"><ele>204.25</ele><time>2026-04-04T11:53:41.001Z</time></trkpt><trkpt lat="43.9629233207526" lon="12.28391048186959"><ele>203.0</ele><time>2026-04-04T11:53:42.001Z</time></trkpt><trkpt lat="43.96303899381111" lon="12.284038578872032"><ele>203.0</ele><time>2026-04-04T11:53:43.001Z</time></trkpt><trkpt lat="43.96316898856794" lon="12.284151956902468"><ele>203.0</ele><time>2026-04-04T11:53:44.001Z</time></trkpt><trkpt lat="43.963311059695855" lon="12.284245215976696"><ele>203.0</ele><time>2026-04-04T11:53:45.001Z</time></trkpt><trkpt lat="43.96344980087275" lon="12.28433549256111"><ele>200.66666666666669</ele><time>2026-04-04T11:53:46.001Z</time></trkpt><trkpt lat="43.963584734582845" lon="12.284432041262736"><ele>198.33333333333331</ele><time>2026-04-04T11:53:47.001Z</time></trkpt><trkpt lat="43.96372023382796" lon="12.284538614351627"><ele>196.0</ele><time>2026-04-04T11:53:48.001Z</time></trkpt><trkpt lat="43.96385220670461" lon="12.284647025895906"><ele>196.0</ele><time>2026-04-04T11:53:49.001Z</time></trkpt><trkpt lat="43.96398345294652" lon="12.284755536397928"><ele>196.0</ele><time>2026-04-04T11:53:50.001Z</time></trkpt><trkpt lat="43.964114008704236" lon="12.284863720017984"><ele>196.0</ele><time>2026-04-04T11:53:51.001Z</time></trkpt><trkpt lat="43.964243396622265" lon="12.284973801539275"><ele>194.33333333333331</ele><time>2026-04-04T11:53:52.001Z</time></trkpt><trkpt lat="43.964370612965105" lon="12.2850860428446"><ele>192.66666666666666</ele><time>2026-04-04T11:53:53.001Z</time></trkpt><trkpt lat="43.96449867312139" lon="12.285199173850636"><ele>191.0</ele><time>2026-04-04T11:53:54.001Z</time></trkpt><trkpt lat="43.964623894689225" lon="12.285319320537218"><ele>191.0</ele><time>2026-04-04T11:53:55.001Z</time></trkpt><trkpt lat="43.964750991752936" lon="12.285436163948534"><ele>191.0</ele><time>2026-04-04T11:53:56.001Z</time></trkpt><trkpt lat="43.96487487684719" lon="12.285558713153138"><ele>191.0</ele><time>2026-04-04T11:53:57.001Z</time></trkpt><trkpt lat="43.96499860826909" lon="12.285685733490181"><ele>187.66666666666666</ele><time>2026-04-04T11:53:58.001Z</time></trkpt><trkpt lat="43.96512463358482" lon="12.285809316543212"><ele>184.33333333333334</ele><time>2026-04-04T11:53:59.002Z</time></trkpt><trkpt lat="43.965240520805565" lon="12.285957256645446"><ele>181.0</ele><time>2026-04-04T11:54:00.002Z</time></trkpt><trkpt lat="43.965370981273956" lon="12.286073818229347"><ele>181.0</ele><time>2026-04-04T11:54:01.002Z</time></trkpt><trkpt lat="43.965490640593195" lon="12.286211201482953"><ele>181.0</ele><time>2026-04-04T11:54:02.002Z</time></trkpt><trkpt lat="43.96561110197824" lon="12.28635447504021"><ele>181.0</ele><time>2026-04-04T11:54:03.002Z</time></trkpt><trkpt lat="43.96573344408542" lon="12.286494303252306"><ele>180.33333333333334</ele><time>2026-04-04T11:54:04.002Z</time></trkpt><trkpt lat="43.96586495229393" lon="12.286633373152265"><ele>179.66666666666666</ele><time>2026-04-04T11:54:05.002Z</time></trkpt><trkpt lat="43.96599486985069" lon="12.286772526860496"><ele>179.0</ele><time>2026-04-04T11:54:06.002Z</time></trkpt><trkpt lat="43.966122645604784" lon="12.286910908703295"><ele>179.0</ele><time>2026-04-04T11:54:07.002Z</time></trkpt><trkpt lat="43.966249648763906" lon="12.287050594504693"><ele>179.0</ele><time>2026-04-04T11:54:08.002Z</time></trkpt><trkpt lat="43.96637460508114" lon="12.287183495518535"><ele>179.0</ele><time>2026-04-04T11:54:09.002Z</time></trkpt><trkpt lat="43.96649527910254" lon="12.287317518111552"><ele>178.33333333333331</ele><time>2026-04-04T11:54:10.002Z</time></trkpt><trkpt lat="43.96661923063547" lon="12.28745646177037"><ele>177.66666666666666</ele><time>2026-04-04T11:54:11.002Z</time></trkpt><trkpt lat="43.96674162766696" lon="12.287591645125936"><ele>177.0</ele><time>2026-04-04T11:54:12.002Z</time></trkpt><trkpt lat="43.966867382967834" lon="12.287726556863413"><ele>177.0</ele><time>2026-04-04T11:54:13.002Z</time></trkpt><trkpt lat="43.96699353769553" lon="12.287861174210796"><ele>177.0</ele><time>2026-04-04T11:54:14.002Z</time></trkpt><trkpt lat="43.96712156057539" lon="12.2879928577611"><ele>177.0</ele><time>2026-04-04T11:54:15.002Z</time></trkpt><trkpt lat="43.967249906768586" lon="12.288126870198601"><ele>175.66666666666666</ele><time>2026-04-04T11:54:16.002Z</time></trkpt><trkpt lat="43.96737834538455" lon="12.288260419572795"><ele>174.33333333333331</ele><time>2026-04-04T11:54:17.002Z</time></trkpt><trkpt lat="43.96751060814005" lon="12.28839616961567"><ele>173.0</ele><time>2026-04-04T11:54:18.002Z</time></trkpt><trkpt lat="43.967635516783595" lon="12.288536812738931"><ele>173.0</ele><time>2026-04-04T11:54:19.002Z</time></trkpt><trkpt lat="43.96776172221765" lon="12.288676647976846"><ele>173.0</ele><time>2026-04-04T11:54:20.002Z</time></trkpt><trkpt lat="43.96789062782883" lon="12.288817711806576"><ele>173.0</ele><time>2026-04-04T11:54:21.002Z</time></trkpt><trkpt lat="43.96802072158946" lon="12.28895548117229"><ele>172.33333333333331</ele><time>2026-04-04T11:54:22.002Z</time></trkpt><trkpt lat="43.968150268710346" lon="12.289094900871929"><ele>171.66666666666666</ele><time>2026-04-04T11:54:23.002Z</time></trkpt><trkpt lat="43.96827962041274" lon="12.289237013426556"><ele>171.0</ele><time>2026-04-04T11:54:24.002Z</time></trkpt><trkpt lat="43.96839915469459" lon="12.289393384583535"><ele>171.0</ele><time>2026-04-04T11:54:25.002Z</time></trkpt><trkpt lat="43.968538060342794" lon="12.28951139096349"><ele>171.0</ele><time>2026-04-04T11:54:26.002Z</time></trkpt><trkpt lat="43.968656309403286" lon="12.289663321076972"><ele>171.0</ele><time>2026-04-04T11:54:27.002Z</time></trkpt><trkpt lat="43.96877825743441" lon="12.289795147258197"><ele>171.66666666666666</ele><time>2026-04-04T11:54:28.002Z</time></trkpt><trkpt lat="43.968898624698255" lon="12.289925790106958"><ele>172.33333333333331</ele><time>2026-04-04T11:54:29.002Z</time></trkpt><trkpt lat="43.96901437202045" lon="12.290052776188546"><ele>173.0</ele><time>2026-04-04T11:54:30.002Z</time></trkpt><trkpt lat="43.969128315823994" lon="12.290192065298932"><ele>172.66666666666666</ele><time>2026-04-04T11:54:31.002Z</time></trkpt><trkpt lat="43.969244007748294" lon="12.29032603694195"><ele>172.33333333333334</ele><time>2026-04-04T11:54:32.002Z</time></trkpt><trkpt lat="43.969374647542296" lon="12.290441776925835"><ele>172.0</ele><time>2026-04-04T11:54:33.002Z</time></trkpt><trkpt lat="43.969489722907085" lon="12.290581428553747"><ele>172.0</ele><time>2026-04-04T11:54:34.002Z</time></trkpt><trkpt lat="43.969611057507365" lon="12.290710000150632"><ele>172.0</ele><time>2026-04-04T11:54:35.002Z</time></trkpt><trkpt lat="43.969736440711955" lon="12.29084178303686"><ele>172.0</ele><time>2026-04-04T11:54:36.002Z</time></trkpt><trkpt lat="43.969861250889714" lon="12.290973766353197"><ele>172.0</ele><time>2026-04-04T11:54:37.002Z</time></trkpt><trkpt lat="43.969982120063605" lon="12.291110912777762"><ele>172.0</ele><time>2026-04-04T11:54:38.002Z</time></trkpt><trkpt lat="43.97009983280713" lon="12.291260659847952"><ele>172.0</ele><time>2026-04-04T11:54:39.002Z</time></trkpt><trkpt lat="43.97020859056252" lon="12.291423986435502"><ele>171.33333333333334</ele><time>2026-04-04T11:54:40.002Z</time></trkpt><trkpt lat="43.97030710154913" lon="12.291597020454935"><ele>170.66666666666666</ele><time>2026-04-04T11:54:41.002Z</time></trkpt><trkpt lat="43.97039312630055" lon="12.29178338034183"><ele>170.0</ele><time>2026-04-04T11:54:42.002Z</time></trkpt><trkpt lat="43.970447362599714" lon="12.291991186691963"><ele>170.0</ele><time>2026-04-04T11:54:43.002Z</time></trkpt><trkpt lat="43.97049594050812" lon="12.292194496178"><ele>170.0</ele><time>2026-04-04T11:54:44.002Z</time></trkpt><trkpt lat="43.97054419717173" lon="12.292400994751969"><ele>170.0</ele><time>2026-04-04T11:54:45.002Z</time></trkpt><trkpt lat="43.97059210701219" lon="12.292610342808404"><ele>169.66666666666666</ele><time>2026-04-04T11:54:46Z</time></trkpt><trkpt lat="43.97064000007899" lon="12.292823530958625"><ele>169.33333333333334</ele><time>2026-04-04T11:54:47Z</time></trkpt><trkpt lat="43.97068820672695" lon="12.293039172339943"><ele>169.0</ele><time>2026-04-04T11:54:48Z</time></trkpt><trkpt lat="43.97073535435453" lon="12.293255031377152"><ele>169.0</ele><time>2026-04-04T11:54:49Z</time></trkpt><trkpt lat="43.970783456300126" lon="12.293475259648964"><ele>169.0</ele><time>2026-04-04T11:54:50Z</time></trkpt><trkpt lat="43.97083100239191" lon="12.293692943178579"><ele>169.0</ele><time>2026-04-04T11:54:51Z</time></trkpt><trkpt lat="43.97088003216329" lon="12.293909961752579"><ele>169.33333333333334</ele><time>2026-04-04T11:54:52Z</time></trkpt><trkpt lat="43.97092923922138" lon="12.294127227446051"><ele>169.66666666666666</ele><time>2026-04-04T11:54:53Z</time></trkpt><trkpt lat="43.970977667445005" lon="12.294341054728937"><ele>170.0</ele><time>2026-04-04T11:54:54Z</time></trkpt><trkpt lat="43.971042255289376" lon="12.294549985192928"><ele>169.0</ele><time>2026-04-04T11:54:55Z</time></trkpt><trkpt lat="43.97107512609102" lon="12.294775170872132"><ele>168.0</ele><time>2026-04-04T11:54:56Z</time></trkpt><trkpt lat="43.97112367795881" lon="12.294994157621451"><ele>167.0</ele><time>2026-04-04T11:54:57Z</time></trkpt><trkpt lat="43.97117235484244" lon="12.29521370760423"><ele>167.0</ele><time>2026-04-04T11:54:58Z</time></trkpt><trkpt lat="43.971221526261516" lon="12.295426927243232"><ele>167.0</ele><time>2026-04-04T11:54:59Z</time></trkpt><trkpt lat="43.97128518098331" lon="12.295627244358476"><ele>167.0</ele><time>2026-04-04T11:55:00Z</time></trkpt><trkpt lat="43.97132600369428" lon="12.295834947222206"><ele>167.0</ele><time>2026-04-04T11:55:01Z</time></trkpt><trkpt lat="43.971382445811294" lon="12.296026580636237"><ele>167.0</ele><time>2026-04-04T11:55:02Z</time></trkpt><trkpt lat="43.97143605006088" lon="12.296216881098614"><ele>167.0</ele><time>2026-04-04T11:55:03Z</time></trkpt><trkpt lat="43.971497695584496" lon="12.296396192907386"><ele>167.0</ele><time>2026-04-04T11:55:04Z</time></trkpt><trkpt lat="43.97153554447006" lon="12.296580745733038"><ele>167.0</ele><time>2026-04-04T11:55:05Z</time></trkpt><trkpt lat="43.971566461351244" lon="12.296750462541752"><ele>167.0</ele><time>2026-04-04T11:55:06Z</time></trkpt><trkpt lat="43.97159394562853" lon="12.296910257316902"><ele>167.0</ele><time>2026-04-04T11:55:07Z</time></trkpt><trkpt lat="43.97161320293908" lon="12.29706380557158"><ele>167.0</ele><time>2026-04-04T11:55:08Z</time></trkpt><trkpt lat="43.97161963060125" lon="12.29721500709415"><ele>167.0</ele><time>2026-04-04T11:55:09Z</time></trkpt><trkpt lat="43.97161435813775" lon="12.297370920798986"><ele>167.0</ele><time>2026-04-04T11:55:10Z</time></trkpt><trkpt lat="43.971577251324355" lon="12.297522449477084"><ele>167.0</ele><time>2026-04-04T11:55:11.001Z</time></trkpt><trkpt lat="43.97154576919577" lon="12.297687434035462"><ele>167.0</ele><time>2026-04-04T11:55:12.001Z</time></trkpt><trkpt lat="43.97151614675341" lon="12.297857363269525"><ele>167.0</ele><time>2026-04-04T11:55:13.001Z</time></trkpt><trkpt lat="43.971503781438486" lon="12.298038308875983"><ele>167.0</ele><time>2026-04-04T11:55:14.001Z</time></trkpt><trkpt lat="43.971472421007654" lon="12.298224296175958"><ele>167.0</ele><time>2026-04-04T11:55:15.001Z</time></trkpt><trkpt lat="43.971437524254235" lon="12.298420765582954"><ele>167.0</ele><time>2026-04-04T11:55:16.001Z</time></trkpt><trkpt lat="43.97140444116703" lon="12.298620214963421"><ele>166.75</ele><time>2026-04-04T11:55:17.001Z</time></trkpt><trkpt lat="43.97135163263379" lon="12.298798921253999"><ele>166.5</ele><time>2026-04-04T11:55:18.001Z</time></trkpt><trkpt lat="43.97132068131936" lon="12.298978561079249"><ele>166.25</ele><time>2026-04-04T11:55:19.001Z</time></trkpt><trkpt lat="43.97129120278293" lon="12.299152965608032"><ele>166.0</ele><time>2026-04-04T11:55:20.001Z</time></trkpt><trkpt lat="43.97126212062666" lon="12.299329278196746"><ele>165.25</ele><time>2026-04-04T11:55:21.001Z</time></trkpt><trkpt lat="43.97123464105764" lon="12.299495874861492"><ele>164.5</ele><time>2026-04-04T11:55:22.001Z</time></trkpt><trkpt lat="43.971218184009764" lon="12.299667366454475"><ele>163.75</ele><time>2026-04-04T11:55:23.001Z</time></trkpt><trkpt lat="43.9711880065304" lon="12.299824708760799"><ele>163.0</ele><time>2026-04-04T11:55:24.001Z</time></trkpt><trkpt lat="43.971146001543225" lon="12.299994378214063"><ele>162.25</ele><time>2026-04-04T11:55:25.001Z</time></trkpt><trkpt lat="43.9711474202264" lon="12.300178791392185"><ele>161.5</ele><time>2026-04-04T11:55:26.001Z</time></trkpt><trkpt lat="43.97114998097672" lon="12.30035779738195"><ele>160.75</ele><time>2026-04-04T11:55:27.001Z</time></trkpt><trkpt lat="43.9711635817918" lon="12.300549729495678"><ele>160.0</ele><time>2026-04-04T11:55:28.001Z</time></trkpt><trkpt lat="43.971209378838275" lon="12.300729783601858"><ele>160.0</ele><time>2026-04-04T11:55:29.001Z</time></trkpt><trkpt lat="43.97124937133174" lon="12.300915316902646"><ele>160.0</ele><time>2026-04-04T11:55:30.001Z</time></trkpt><trkpt lat="43.97129229460924" lon="12.301098237999586"><ele>160.0</ele><time>2026-04-04T11:55:31.001Z</time></trkpt><trkpt lat="43.97132953924035" lon="12.301268520600651"><ele>160.0</ele><time>2026-04-04T11:55:32.001Z</time></trkpt><trkpt lat="43.971365823005684" lon="12.301434982118279"><ele>160.0</ele><time>2026-04-04T11:55:33.001Z</time></trkpt><trkpt lat="43.97138593535841" lon="12.30160065389795"><ele>160.0</ele><time>2026-04-04T11:55:34.001Z</time></trkpt><trkpt lat="43.971428374798045" lon="12.30175118471211"><ele>160.0</ele><time>2026-04-04T11:55:35.001Z</time></trkpt><trkpt lat="43.97147910337141" lon="12.30188725034136"><ele>160.0</ele><time>2026-04-04T11:55:36.001Z</time></trkpt><trkpt lat="43.971546783143594" lon="12.302014635094153"><ele>160.0</ele><time>2026-04-04T11:55:37.001Z</time></trkpt></trkseg><trkseg><trkpt lat="43.89690558430194" lon="12.343454221275023"><ele>578.0</ele><time>2026-04-04T13:19:01Z</time></trkpt><trkpt lat="43.89689764115481" lon="12.343545562424215"><ele>578.0</ele><time>2026-04-04T13:19:19Z</time></trkpt><trkpt lat="43.896966312783135" lon="12.343515399729474"><ele>578.0</ele><time>2026-04-04T13:19:34Z</time></trkpt><trkpt lat="43.8968910726253" lon="12.343563401827101"><ele>578.0</ele><time>2026-04-04T13:19:48Z</time></trkpt><trkpt lat="43.89694311150525" lon="12.343495674898376"><ele>578.0</ele><time>2026-04-04T13:20:35Z</time></trkpt><trkpt lat="43.896993027366314" lon="12.343549968128658"><ele>578.0</ele><time>2026-04-04T13:21:53Z</time></trkpt><trkpt lat="43.896988182256166" lon="12.343668024677187"><ele>578.0</ele><time>2026-04-04T13:21:58Z</time></trkpt><trkpt lat="43.89698344787099" lon="12.343769189567908"><ele>578.0</ele><time>2026-04-04T13:22:02Z</time></trkpt><trkpt lat="43.89698483973654" lon="12.34385941535618"><ele>578.0</ele><time>2026-04-04T13:22:07Z</time></trkpt><trkpt lat="43.896981894838106" lon="12.343962695296163"><ele>578.0</ele><time>2026-04-04T13:22:13Z</time></trkpt><trkpt lat="43.89699479205412" lon="12.344061170714648"><ele>578.0</ele><time>2026-04-04T13:22:25Z</time></trkpt><trkpt lat="43.896963084656356" lon="12.34413697127999"><ele>578.0</ele><time>2026-04-04T13:22:29Z</time></trkpt><trkpt lat="43.896876994246846" lon="12.34412703758661"><ele>578.0</ele><time>2026-04-04T13:22:32Z</time></trkpt><trkpt lat="43.89676610615755" lon="12.344098321608875"><ele>578.7142857142858</ele><time>2026-04-04T13:22:35Z</time></trkpt><trkpt lat="43.896689986155124" lon="12.34408646791322"><ele>579.4285714285714</ele><time>2026-04-04T13:22:37Z</time></trkpt><trkpt lat="43.896671088841906" lon="12.343981536574153"><ele>580.1428571428571</ele><time>2026-04-04T13:22:41Z</time></trkpt><trkpt lat="43.89667476408774" lon="12.343882893990138"><ele>580.8571428571429</ele><time>2026-04-04T13:22:44Z</time></trkpt><trkpt lat="43.89667831966344" lon="12.343783219703731"><ele>581.5714285714286</ele><time>2026-04-04T13:22:46.999Z</time></trkpt><trkpt lat="43.89667615910813" lon="12.343694933299627"><ele>582.2857142857143</ele><time>2026-04-04T13:22:48.999Z</time></trkpt><trkpt lat="43.896669359631744" lon="12.343598428405585"><ele>583.0</ele><time>2026-04-04T13:22:50.999Z</time></trkpt><trkpt lat="43.89666996874298" lon="12.343500319567916"><ele>583.0</ele><time>2026-04-04T13:22:52.999Z</time></trkpt><trkpt lat="43.89666354230542" lon="12.343409251944196"><ele>583.0</ele><time>2026-04-04T13:22:54.999Z</time></trkpt><trkpt lat="43.896623188711544" lon="12.34332429691861"><ele>583.0</ele><time>2026-04-04T13:22:56.999Z</time></trkpt><trkpt lat="43.89653410474394" lon="12.343277448445358"><ele>583.0</ele><time>2026-04-04T13:22:58.999Z</time></trkpt><trkpt lat="43.896442368347344" lon="12.34329622234264"><ele>583.0</ele><time>2026-04-04T13:23:00.999Z</time></trkpt><trkpt lat="43.89635751826638" lon="12.343324828037963"><ele>583.0</ele><time>2026-04-04T13:23:02.999Z</time></trkpt><trkpt lat="43.8962857281772" lon="12.343302087966963"><ele>583.0</ele><time>2026-04-04T13:23:03.999Z</time></trkpt><trkpt lat="43.89619781102055" lon="12.343367090374667"><ele>583.0</ele><time>2026-04-04T13:23:19Z</time></trkpt><trkpt lat="43.896134585172554" lon="12.34340591084632"><ele>583.0</ele><time>2026-04-04T13:23:21Z</time></trkpt><trkpt lat="43.896073384399116" lon="12.34342763562908"><ele>583.0</ele><time>2026-04-04T13:23:23Z</time></trkpt><trkpt lat="43.896020967166535" lon="12.343504275903845"><ele>583.0</ele><time>2026-04-04T13:23:25Z</time></trkpt><trkpt lat="43.895954555041875" lon="12.343521967756505"><ele>583.0</ele><time>2026-04-04T13:23:26Z</time></trkpt><trkpt lat="43.89586468015292" lon="12.343567951296299"><ele>582.0000000000001</ele><time>2026-04-04T13:23:28Z</time></trkpt><trkpt lat="43.895825242560065" lon="12.343636800919628"><ele>581.0</ele><time>2026-04-04T13:23:30Z</time></trkpt><trkpt lat="43.89580664594004" lon="12.343728679084135"><ele>580.0</ele><time>2026-04-04T13:23:32Z</time></trkpt><trkpt lat="43.8958082861046" lon="12.34381843835506"><ele>579.0</ele><time>2026-04-04T13:23:33Z</time></trkpt><trkpt lat="43.89574198915615" lon="12.343909494776216"><ele>578.0</ele><time>2026-04-04T13:23:35Z</time></trkpt><trkpt lat="43.89567924075148" lon="12.343962297089018"><ele>577.0000000000001</ele><time>2026-04-04T13:23:37Z</time></trkpt><trkpt lat="43.89563311411706" lon="12.344054676025507"><ele>576.0</ele><time>2026-04-04T13:23:39Z</time></trkpt><trkpt lat="43.895604997406494" lon="12.344143121760371"><ele>576.0</ele><time>2026-04-04T13:23:41Z</time></trkpt><trkpt lat="43.89554909731614" lon="12.344189267952233"><ele>576.0</ele><time>2026-04-04T13:23:46Z</time></trkpt><trkpt lat="43.895553974425525" lon="12.344340381417211"><ele>576.0</ele><time>2026-04-04T13:23:50Z</time></trkpt><trkpt lat="43.895573859854515" lon="12.344435458769887"><ele>576.0</ele><time>2026-04-04T13:23:53Z</time></trkpt><trkpt lat="43.89559813582505" lon="12.344549507277252"><ele>576.0</ele><time>2026-04-04T13:23:56Z</time></trkpt><trkpt lat="43.895612070105884" lon="12.344642041419926"><ele>576.0</ele><time>2026-04-04T13:23:58Z</time></trkpt><trkpt lat="43.895598233953955" lon="12.344733137800581"><ele>577.0</ele><time>2026-04-04T13:24:01Z</time></trkpt><trkpt lat="43.89557218357297" lon="12.344814058379411"><ele>578.0</ele><time>2026-04-04T13:24:04Z</time></trkpt><trkpt lat="43.895539088290306" lon="12.344952846771537"><ele>579.0</ele><time>2026-04-04T13:24:07Z</time></trkpt><trkpt lat="43.895546672835344" lon="12.345083475065547"><ele>580.0</ele><time>2026-04-04T13:24:09Z</time></trkpt><trkpt lat="43.895587529452996" lon="12.345212313964215"><ele>581.0</ele><time>2026-04-04T13:24:11Z</time></trkpt><trkpt lat="43.89562106733328" lon="12.345327871056003"><ele>581.0</ele><time>2026-04-04T13:24:13Z</time></trkpt><trkpt lat="43.89565875379532" lon="12.345467270775412"><ele>581.0</ele><time>2026-04-04T13:24:15Z</time></trkpt><trkpt lat="43.89569471919604" lon="12.345544118841486"><ele>581.0</ele><time>2026-04-04T13:24:16Z</time></trkpt><trkpt lat="43.89571243023289" lon="12.345640201731767"><ele>581.0</ele><time>2026-04-04T13:24:17Z</time></trkpt><trkpt lat="43.895739532117005" lon="12.345733099046909"><ele>581.0</ele><time>2026-04-04T13:24:18Z</time></trkpt><trkpt lat="43.89576905127946" lon="12.345843459953638"><ele>581.0</ele><time>2026-04-04T13:24:19Z</time></trkpt><trkpt lat="43.8957981462143" lon="12.3459620309831"><ele>581.4</ele><time>2026-04-04T13:24:20Z</time></trkpt><trkpt lat="43.89582686314353" lon="12.346089561401293"><ele>581.8</ele><time>2026-04-04T13:24:21Z</time></trkpt><trkpt lat="43.89584769632649" lon="12.34621839551956"><ele>582.1999999999999</ele><time>2026-04-04T13:24:22Z</time></trkpt><trkpt lat="43.89585768734837" lon="12.346346497857741"><ele>582.6</ele><time>2026-04-04T13:24:23Z</time></trkpt><trkpt lat="43.89586987927948" lon="12.346475705795287"><ele>583.0</ele><time>2026-04-04T13:24:24Z</time></trkpt><trkpt lat="43.895886776254684" lon="12.346603675089026"><ele>583.8333333333334</ele><time>2026-04-04T13:24:25Z</time></trkpt><trkpt lat="43.89592935519118" lon="12.346727062376447"><ele>584.6666666666667</ele><time>2026-04-04T13:24:26Z</time></trkpt><trkpt lat="43.895935440218395" lon="12.346854059410232"><ele>585.5</ele><time>2026-04-04T13:24:27Z</time></trkpt><trkpt lat="43.89596010617369" lon="12.346976107826876"><ele>586.3333333333334</ele><time>2026-04-04T13:24:28Z</time></trkpt><trkpt lat="43.89598517536494" lon="12.34708872592595"><ele>587.1666666666666</ele><time>2026-04-04T13:24:29Z</time></trkpt><trkpt lat="43.89600728552313" lon="12.347198083416998"><ele>588.0</ele><time>2026-04-04T13:24:30Z</time></trkpt><trkpt lat="43.89602780838352" lon="12.347306499654653"><ele>585.5714285714286</ele><time>2026-04-04T13:24:31Z</time></trkpt><trkpt lat="43.89605050572441" lon="12.34741250091747"><ele>583.1428571428571</ele><time>2026-04-04T13:24:32Z</time></trkpt><trkpt lat="43.896057923688154" lon="12.347511252749433"><ele>580.7142857142858</ele><time>2026-04-04T13:24:33Z</time></trkpt><trkpt lat="43.89606959490306" lon="12.347602072136196"><ele>578.2857142857142</ele><time>2026-04-04T13:24:34Z</time></trkpt><trkpt lat="43.896102555509486" lon="12.347678867019289"><ele>575.8571428571429</ele><time>2026-04-04T13:24:35Z</time></trkpt><trkpt lat="43.89612794219681" lon="12.34778276283131"><ele>573.4285714285714</ele><time>2026-04-04T13:24:37Z</time></trkpt><trkpt lat="43.89614778377888" lon="12.34787891613065"><ele>571.0</ele><time>2026-04-04T13:24:39Z</time></trkpt><trkpt lat="43.896243440997594" lon="12.347992563912015"><ele>571.3333333333334</ele><time>2026-04-04T13:24:41Z</time></trkpt><trkpt lat="43.89629496400589" lon="12.348055843016507"><ele>571.6666666666667</ele><time>2026-04-04T13:24:42Z</time></trkpt><trkpt lat="43.8963468869304" lon="12.348120888139663"><ele>572.0</ele><time>2026-04-04T13:24:43.001Z</time></trkpt><trkpt lat="43.89639975835005" lon="12.348194530436864"><ele>572.3333333333334</ele><time>2026-04-04T13:24:44.001Z</time></trkpt><trkpt lat="43.89645555996821" lon="12.34827421227394"><ele>572.6666666666666</ele><time>2026-04-04T13:24:45.001Z</time></trkpt><trkpt lat="43.896514911398484" lon="12.348357003782281"><ele>573.0</ele><time>2026-04-04T13:24:46.001Z</time></trkpt><trkpt lat="43.89656223649931" lon="12.348455184449124"><ele>573.0</ele><time>2026-04-04T13:24:47.001Z</time></trkpt><trkpt lat="43.896573701198584" lon="12.34856949925147"><ele>573.0</ele><time>2026-04-04T13:24:48.001Z</time></trkpt><trkpt lat="43.896532713572725" lon="12.348674503293369"><ele>573.0</ele><time>2026-04-04T13:24:49.001Z</time></trkpt><trkpt lat="43.896494200733635" lon="12.348781096100389"><ele>573.0</ele><time>2026-04-04T13:24:50.001Z</time></trkpt><trkpt lat="43.89645946481965" lon="12.348911661813984"><ele>573.0</ele><time>2026-04-04T13:24:51.001Z</time></trkpt><trkpt lat="43.896391730532414" lon="12.34902454842594"><ele>573.5</ele><time>2026-04-04T13:24:52.001Z</time></trkpt><trkpt lat="43.89634307005881" lon="12.349162310334002"><ele>574.0</ele><time>2026-04-04T13:24:52.999Z</time></trkpt><trkpt lat="43.89628678928302" lon="12.34929883073935"><ele>574.5</ele><time>2026-04-04T13:24:53.999Z</time></trkpt><trkpt lat="43.89622307759465" lon="12.349446384637057"><ele>575.0</ele><time>2026-04-04T13:24:54.999Z</time></trkpt><trkpt lat="43.89616310011442" lon="12.349602841142094"><ele>574.5</ele><time>2026-04-04T13:24:55.999Z</time></trkpt><trkpt lat="43.896119471300956" lon="12.34976304588994"><ele>574.0</ele><time>2026-04-04T13:24:56.999Z</time></trkpt><trkpt lat="43.896106047259636" lon="12.349936751381732"><ele>573.5</ele><time>2026-04-04T13:24:57.999Z</time></trkpt><trkpt lat="43.896127715993856" lon="12.350098511604646"><ele>573.0</ele><time>2026-04-04T13:24:58.999Z</time></trkpt><trkpt lat="43.89616876826322" lon="12.350253647171218"><ele>573.0</ele><time>2026-04-04T13:24:59.999Z</time></trkpt><trkpt lat="43.89621913837195" lon="12.350412684488353"><ele>573.0</ele><time>2026-04-04T13:25:00.999Z</time></trkpt><trkpt lat="43.89628517243073" lon="12.35056785506236"><ele>573.0</ele><time>2026-04-04T13:25:01.999Z</time></trkpt><trkpt lat="43.896352747685725" lon="12.350723242389206"><ele>573.0</ele><time>2026-04-04T13:25:02.999Z</time></trkpt><trkpt lat="43.8964183315011" lon="12.350881092615769"><ele>574.0</ele><time>2026-04-04T13:25:03.999Z</time></trkpt><trkpt lat="43.89648353288121" lon="12.351038022478184"><ele>575.0</ele><time>2026-04-04T13:25:04.999Z</time></trkpt><trkpt lat="43.89654568075589" lon="12.351193662144984"><ele>576.0</ele><time>2026-04-04T13:25:05.999Z</time></trkpt><trkpt lat="43.89659881633406" lon="12.351343076701326"><ele>577.0</ele><time>2026-04-04T13:25:06.999Z</time></trkpt><trkpt lat="43.89663571820027" lon="12.351497962707679"><ele>578.75</ele><time>2026-04-04T13:25:07.999Z</time></trkpt><trkpt lat="43.896657769089614" lon="12.351660228143189"><ele>580.5</ele><time>2026-04-04T13:25:08.999Z</time></trkpt><trkpt lat="43.89666061403146" lon="12.351825024450216"><ele>582.25</ele><time>2026-04-04T13:25:09.999Z</time></trkpt><trkpt lat="43.89664547387282" lon="12.351984490632473"><ele>584.0</ele><time>2026-04-04T13:25:10.999Z</time></trkpt><trkpt lat="43.89663025685972" lon="12.352151252110703"><ele>584.25</ele><time>2026-04-04T13:25:11.999Z</time></trkpt><trkpt lat="43.89661491514651" lon="12.352319359812162"><ele>584.5</ele><time>2026-04-04T13:25:13Z</time></trkpt><trkpt lat="43.89659892633759" lon="12.35249438348923"><ele>584.75</ele><time>2026-04-04T13:25:14Z</time></trkpt><trkpt lat="43.89658241084533" lon="12.352675027480442"><ele>585.0</ele><time>2026-04-04T13:25:15Z</time></trkpt><trkpt lat="43.896581483011765" lon="12.352862688019533"><ele>585.0</ele><time>2026-04-04T13:25:16Z</time></trkpt><trkpt lat="43.896561527598685" lon="12.353050684193835"><ele>585.0</ele><time>2026-04-04T13:25:17Z</time></trkpt><trkpt lat="43.89653825693797" lon="12.353246019297924"><ele>585.0</ele><time>2026-04-04T13:25:18Z</time></trkpt><trkpt lat="43.89651890035019" lon="12.353444045451878"><ele>585.0</ele><time>2026-04-04T13:25:19Z</time></trkpt><trkpt lat="43.89649719983111" lon="12.353643440880491"><ele>585.0</ele><time>2026-04-04T13:25:20Z</time></trkpt><trkpt lat="43.89648792073074" lon="12.353829104463674"><ele>585.0</ele><time>2026-04-04T13:25:21Z</time></trkpt><trkpt lat="43.896483729278096" lon="12.353996319334199"><ele>585.0</ele><time>2026-04-04T13:25:22Z</time></trkpt><trkpt lat="43.89651579121339" lon="12.35414986003603"><ele>585.0</ele><time>2026-04-04T13:25:23Z</time></trkpt><trkpt lat="43.89657049788717" lon="12.35428691199753"><ele>583.0</ele><time>2026-04-04T13:25:24Z</time></trkpt><trkpt lat="43.896642784382436" lon="12.354396159072571"><ele>581.0</ele><time>2026-04-04T13:25:25Z</time></trkpt><trkpt lat="43.89674486461825" lon="12.35446111351499"><ele>579.0</ele><time>2026-04-04T13:25:26Z</time></trkpt><trkpt lat="43.89685047674398" lon="12.354520566130496"><ele>577.0</ele><time>2026-04-04T13:25:27Z</time></trkpt><trkpt lat="43.89696563178472" lon="12.35455850300259"><ele>576.25</ele><time>2026-04-04T13:25:28Z</time></trkpt><trkpt lat="43.8970862645279" lon="12.354563480661653"><ele>575.5</ele><time>2026-04-04T13:25:29Z</time></trkpt><trkpt lat="43.89720913239823" lon="12.354533767547226"><ele>574.75</ele><time>2026-04-04T13:25:30Z</time></trkpt><trkpt lat="43.897330625551774" lon="12.35447067655202"><ele>574.0</ele><time>2026-04-04T13:25:31Z</time></trkpt><trkpt lat="43.89745149782252" lon="12.3543911274247"><ele>574.0</ele><time>2026-04-04T13:25:32Z</time></trkpt><trkpt lat="43.897582733562764" lon="12.354312068774485"><ele>574.0</ele><time>2026-04-04T13:25:33Z</time></trkpt><trkpt lat="43.897723039424115" lon="12.354286761314285"><ele>574.0</ele><time>2026-04-04T13:25:34Z</time></trkpt><trkpt lat="43.89786585511993" lon="12.35430617328433"><ele>574.0</ele><time>2026-04-04T13:25:35Z</time></trkpt><trkpt lat="43.89800589778517" lon="12.354385695683012"><ele>574.0</ele><time>2026-04-04T13:25:36Z</time></trkpt><trkpt lat="43.89813989992076" lon="12.354470229018272"><ele>574.0</ele><time>2026-04-04T13:25:37Z</time></trkpt><trkpt lat="43.898257974163336" lon="12.354589790183912"><ele>574.0</ele><time>2026-04-04T13:25:38Z</time></trkpt><trkpt lat="43.898359121489584" lon="12.354744032556814"><ele>574.0</ele><time>2026-04-04T13:25:39Z</time></trkpt><trkpt lat="43.898459364184625" lon="12.354910581619471"><ele>573.0</ele><time>2026-04-04T13:25:40Z</time></trkpt><trkpt lat="43.89856123191307" lon="12.355084688037612"><ele>572.0</ele><time>2026-04-04T13:25:41Z</time></trkpt><trkpt lat="43.89867649362064" lon="12.35524920178677"><ele>571.0</ele><time>2026-04-04T13:25:42Z</time></trkpt><trkpt lat="43.89877866449956" lon="12.355434265811354"><ele>567.3333333333334</ele><time>2026-04-04T13:25:43Z</time></trkpt><trkpt lat="43.89887257207921" lon="12.355635436663976"><ele>563.6666666666666</ele><time>2026-04-04T13:25:44Z</time></trkpt><trkpt lat="43.8989789143844" lon="12.355822018954806"><ele>560.0</ele><time>2026-04-04T13:25:45Z</time></trkpt><trkpt lat="43.899081425227386" lon="12.35600034803186"><ele>560.0</ele><time>2026-04-04T13:25:46Z</time></trkpt><trkpt lat="43.89918484830085" lon="12.356173601014548"><ele>560.0</ele><time>2026-04-04T13:25:47Z</time></trkpt><trkpt lat="43.89929026694602" lon="12.356339718656795"><ele>560.0</ele><time>2026-04-04T13:25:48Z</time></trkpt><trkpt lat="43.899410693232944" lon="12.356484682864142"><ele>557.3333333333333</ele><time>2026-04-04T13:25:49Z</time></trkpt><trkpt lat="43.89952417832256" lon="12.356635088847542"><ele>554.6666666666666</ele><time>2026-04-04T13:25:50Z</time></trkpt><trkpt lat="43.899640358239594" lon="12.356775395832523"><ele>552.0</ele><time>2026-04-04T13:25:51Z</time></trkpt><trkpt lat="43.899759443383324" lon="12.356912848510053"><ele>552.0</ele><time>2026-04-04T13:25:52Z</time></trkpt><trkpt lat="43.899878204459" lon="12.357050882923152"><ele>552.0</ele><time>2026-04-04T13:25:53Z</time></trkpt><trkpt lat="43.89999969205746" lon="12.357189495839059"><ele>552.0</ele><time>2026-04-04T13:25:54Z</time></trkpt><trkpt lat="43.90012097291766" lon="12.357330237933569"><ele>549.6666666666666</ele><time>2026-04-04T13:25:55Z</time></trkpt><trkpt lat="43.900243010550774" lon="12.357471310753992"><ele>547.3333333333333</ele><time>2026-04-04T13:25:56Z</time></trkpt><trkpt lat="43.900368052970954" lon="12.357615869075502"><ele>545.0</ele><time>2026-04-04T13:25:57Z</time></trkpt><trkpt lat="43.900493837861035" lon="12.35776160357102"><ele>545.0</ele><time>2026-04-04T13:25:58Z</time></trkpt><trkpt lat="43.900619160399266" lon="12.3579029035296"><ele>545.0</ele><time>2026-04-04T13:25:59Z</time></trkpt><trkpt lat="43.900740033534895" lon="12.358038293591758"><ele>545.0</ele><time>2026-04-04T13:26:00Z</time></trkpt><trkpt lat="43.90085676940763" lon="12.35816311629396"><ele>541.25</ele><time>2026-04-04T13:26:01Z</time></trkpt><trkpt lat="43.900982475778086" lon="12.35827069192605"><ele>537.5</ele><time>2026-04-04T13:26:02Z</time></trkpt><trkpt lat="43.901119628147654" lon="12.358338216395655"><ele>533.75</ele><time>2026-04-04T13:26:03Z</time></trkpt><trkpt lat="43.901270181201255" lon="12.3583734217873"><ele>530.0</ele><time>2026-04-04T13:26:04Z</time></trkpt><trkpt lat="43.90142830357592" lon="12.358390255002128"><ele>530.0</ele><time>2026-04-04T13:26:05Z</time></trkpt><trkpt lat="43.90159049923469" lon="12.358404198005992"><ele>530.0</ele><time>2026-04-04T13:26:06Z</time></trkpt><trkpt lat="43.901756572546034" lon="12.35841949730662"><ele>530.0</ele><time>2026-04-04T13:26:07Z</time></trkpt><trkpt lat="43.901926040711345" lon="12.358436650815952"><ele>530.0</ele><time>2026-04-04T13:26:08Z</time></trkpt><trkpt lat="43.9020997501255" lon="12.358456740147382"><ele>530.0</ele><time>2026-04-04T13:26:09Z</time></trkpt><trkpt lat="43.90226964848184" lon="12.358479452449807"><ele>530.0</ele><time>2026-04-04T13:26:10Z</time></trkpt><trkpt lat="43.90242910661745" lon="12.358503504782604"><ele>530.0</ele><time>2026-04-04T13:26:11Z</time></trkpt><trkpt lat="43.90257791190296" lon="12.35852693658848"><ele>530.0</ele><time>2026-04-04T13:26:12Z</time></trkpt><trkpt lat="43.90271859213895" lon="12.358542715997647"><ele>530.0</ele><time>2026-04-04T13:26:13.001Z</time></trkpt><trkpt lat="43.90286046239358" lon="12.35853970853284"><ele>530.0</ele><time>2026-04-04T13:26:14.001Z</time></trkpt><trkpt lat="43.903002345955095" lon="12.35851288337531"><ele>528.5</ele><time>2026-04-04T13:26:15.001Z</time></trkpt><trkpt lat="43.90314950775284" lon="12.358468504022587"><ele>527.0</ele><time>2026-04-04T13:26:16.001Z</time></trkpt><trkpt lat="43.903287201972184" lon="12.358420008433647"><ele>525.5</ele><time>2026-04-04T13:26:17.001Z</time></trkpt><trkpt lat="43.90341780506312" lon="12.358373968113751"><ele>524.0</ele><time>2026-04-04T13:26:18.001Z</time></trkpt><trkpt lat="43.90354543694241" lon="12.358329350219126"><ele>522.75</ele><time>2026-04-04T13:26:19.001Z</time></trkpt><trkpt lat="43.903675120450174" lon="12.358288181873771"><ele>521.5</ele><time>2026-04-04T13:26:20.001Z</time></trkpt><trkpt lat="43.90380307492127" lon="12.358269223478253"><ele>520.25</ele><time>2026-04-04T13:26:21.001Z</time></trkpt><trkpt lat="43.90393961870326" lon="12.358275022851961"><ele>519.0</ele><time>2026-04-04T13:26:22.001Z</time></trkpt><trkpt lat="43.9040742431315" lon="12.358309584317096"><ele>519.0</ele><time>2026-04-04T13:26:23.001Z</time></trkpt><trkpt lat="43.9042025845688" lon="12.358373547411304"><ele>519.0</ele><time>2026-04-04T13:26:24.001Z</time></trkpt><trkpt lat="43.90432768793499" lon="12.358475580278206"><ele>519.0</ele><time>2026-04-04T13:26:25.001Z</time></trkpt><trkpt lat="43.90444547705111" lon="12.358606239683303"><ele>519.0</ele><time>2026-04-04T13:26:26.001Z</time></trkpt><trkpt lat="43.90455350768377" lon="12.358750642039565"><ele>516.6666666666666</ele><time>2026-04-04T13:26:27.001Z</time></trkpt><trkpt lat="43.90465188176408" lon="12.358910694951712"><ele>514.3333333333333</ele><time>2026-04-04T13:26:28.001Z</time></trkpt><trkpt lat="43.90474160928135" lon="12.359089127487483"><ele>512.0</ele><time>2026-04-04T13:26:29.001Z</time></trkpt><trkpt lat="43.904830814739555" lon="12.359275077669142"><ele>512.0</ele><time>2026-04-04T13:26:30.001Z</time></trkpt><trkpt lat="43.90492456123566" lon="12.359462522350288"><ele>512.0</ele><time>2026-04-04T13:26:31.001Z</time></trkpt><trkpt lat="43.90502160923831" lon="12.359650865148776"><ele>512.0</ele><time>2026-04-04T13:26:32.001Z</time></trkpt><trkpt lat="43.905120995565284" lon="12.359838279512275"><ele>511.0</ele><time>2026-04-04T13:26:33.001Z</time></trkpt><trkpt lat="43.905218119285884" lon="12.360029225588569"><ele>510.0</ele><time>2026-04-04T13:26:34.001Z</time></trkpt><trkpt lat="43.9053171531002" lon="12.360225177593259"><ele>509.0</ele><time>2026-04-04T13:26:35.001Z</time></trkpt><trkpt lat="43.90541652592385" lon="12.360414069616796"><ele>505.0</ele><time>2026-04-04T13:26:36.001Z</time></trkpt><trkpt lat="43.90551899041157" lon="12.360606118635411"><ele>501.0</ele><time>2026-04-04T13:26:37.001Z</time></trkpt><trkpt lat="43.90562287652999" lon="12.360806756273382"><ele>497.0</ele><time>2026-04-04T13:26:38.001Z</time></trkpt><trkpt lat="43.90572468114406" lon="12.361007956008445"><ele>497.0</ele><time>2026-04-04T13:26:39.001Z</time></trkpt><trkpt lat="43.90582221374374" lon="12.361214270840927"><ele>497.0</ele><time>2026-04-04T13:26:40.001Z</time></trkpt><trkpt lat="43.905912047014084" lon="12.361427914689225"><ele>497.0</ele><time>2026-04-04T13:26:41.001Z</time></trkpt><trkpt lat="43.90598968270636" lon="12.361647161979342"><ele>495.66666666666663</ele><time>2026-04-04T13:26:42.001Z</time></trkpt><trkpt lat="43.90604618209142" lon="12.361863688951209"><ele>494.33333333333337</ele><time>2026-04-04T13:26:43.001Z</time></trkpt><trkpt lat="43.906091594194436" lon="12.362080869446162"><ele>493.0</ele><time>2026-04-04T13:26:44.001Z</time></trkpt><trkpt lat="43.90612241552556" lon="12.36229518479588"><ele>490.5</ele><time>2026-04-04T13:26:45.001Z</time></trkpt><trkpt lat="43.906139869102304" lon="12.362505491564624"><ele>488.0</ele><time>2026-04-04T13:26:46.001Z</time></trkpt><trkpt lat="43.90614692368952" lon="12.36271036987049"><ele>485.5</ele><time>2026-04-04T13:26:47.001Z</time></trkpt><trkpt lat="43.90614156010262" lon="12.362911602265651"><ele>483.0</ele><time>2026-04-04T13:26:48.001Z</time></trkpt><trkpt lat="43.90613272419002" lon="12.363103297219332"><ele>481.0</ele><time>2026-04-04T13:26:49.001Z</time></trkpt><trkpt lat="43.90612990096638" lon="12.36326815000873"><ele>478.99999999999994</ele><time>2026-04-04T13:26:50.001Z</time></trkpt><trkpt lat="43.90614962572363" lon="12.363408285901667"><ele>476.99999999999994</ele><time>2026-04-04T13:26:51.001Z</time></trkpt><trkpt lat="43.906205106628555" lon="12.363527355245521"><ele>475.0</ele><time>2026-04-04T13:26:52.001Z</time></trkpt><trkpt lat="43.906294965660834" lon="12.363612605602956"><ele>473.0</ele><time>2026-04-04T13:26:53.001Z</time></trkpt><trkpt lat="43.90640136270412" lon="12.363648009610024"><ele>473.0</ele><time>2026-04-04T13:26:54.001Z</time></trkpt><trkpt lat="43.906517160104706" lon="12.36364648210495"><ele>473.0</ele><time>2026-04-04T13:26:55.001Z</time></trkpt><trkpt lat="43.90664033672115" lon="12.363632090663415"><ele>473.0</ele><time>2026-04-04T13:26:56.001Z</time></trkpt><trkpt lat="43.90675501662828" lon="12.363624705630208"><ele>473.0</ele><time>2026-04-04T13:26:57.001Z</time></trkpt><trkpt lat="43.90686156215526" lon="12.363633877714873"><ele>472.79999999999995</ele><time>2026-04-04T13:26:58.001Z</time></trkpt><trkpt lat="43.90695959833378" lon="12.363665553191995"><ele>472.59999999999997</ele><time>2026-04-04T13:26:58.999Z</time></trkpt><trkpt lat="43.90704357081527" lon="12.363742814208251"><ele>472.40000000000003</ele><time>2026-04-04T13:26:59.999Z</time></trkpt><trkpt lat="43.907107390571184" lon="12.363864046975742"><ele>472.20000000000005</ele><time>2026-04-04T13:27:00.999Z</time></trkpt><trkpt lat="43.90714641532892" lon="12.364011554059571"><ele>472.0</ele><time>2026-04-04T13:27:01.999Z</time></trkpt><trkpt lat="43.90715639489087" lon="12.364172456548962"><ele>470.25</ele><time>2026-04-04T13:27:02.999Z</time></trkpt><trkpt lat="43.907133167400104" lon="12.364344584341413"><ele>468.5</ele><time>2026-04-04T13:27:03.999Z</time></trkpt><trkpt lat="43.90708438141809" lon="12.364511674452768"><ele>466.75</ele><time>2026-04-04T13:27:04.999Z</time></trkpt><trkpt lat="43.90705000659122" lon="12.364668706947107"><ele>465.0</ele><time>2026-04-04T13:27:05.999Z</time></trkpt><trkpt lat="43.907049604888115" lon="12.364835495276676"><ele>463.5</ele><time>2026-04-04T13:27:06.999Z</time></trkpt><trkpt lat="43.90709005843877" lon="12.364991255426698"><ele>462.0</ele><time>2026-04-04T13:27:07.999Z</time></trkpt><trkpt lat="43.90717046893842" lon="12.365137369704277"><ele>460.5</ele><time>2026-04-04T13:27:08.999Z</time></trkpt><trkpt lat="43.90727988430711" lon="12.365264430231951"><ele>459.0</ele><time>2026-04-04T13:27:09.999Z</time></trkpt><trkpt lat="43.90740052115995" lon="12.365398430868279"><ele>457.5</ele><time>2026-04-04T13:27:10.999Z</time></trkpt><trkpt lat="43.90752453550768" lon="12.36553387183412"><ele>456.0</ele><time>2026-04-04T13:27:11.999Z</time></trkpt><trkpt lat="43.90762966184325" lon="12.36566222919025"><ele>454.5</ele><time>2026-04-04T13:27:12.999Z</time></trkpt><trkpt lat="43.90770058266765" lon="12.365820699143638"><ele>453.0</ele><time>2026-04-04T13:27:13.999Z</time></trkpt><trkpt lat="43.907739972576096" lon="12.366005211712574"><ele>453.0</ele><time>2026-04-04T13:27:14.999Z</time></trkpt><trkpt lat="43.90772378904794" lon="12.36620045155243"><ele>453.0</ele><time>2026-04-04T13:27:15.999Z</time></trkpt><trkpt lat="43.90765854342909" lon="12.366383887310489"><ele>453.0</ele><time>2026-04-04T13:27:17Z</time></trkpt><trkpt lat="43.907538603586744" lon="12.366530230732145"><ele>453.0</ele><time>2026-04-04T13:27:18Z</time></trkpt><trkpt lat="43.90746747157277" lon="12.366729162392335"><ele>449.66666666666663</ele><time>2026-04-04T13:27:19Z</time></trkpt><trkpt lat="43.90739512590692" lon="12.366908405933101"><ele>446.3333333333333</ele><time>2026-04-04T13:27:20Z</time></trkpt><trkpt lat="43.9073214846756" lon="12.367092783451758"><ele>443.0</ele><time>2026-04-04T13:27:21Z</time></trkpt><trkpt lat="43.90730115104187" lon="12.367308796650951"><ele>442.66666666666663</ele><time>2026-04-04T13:27:22Z</time></trkpt><trkpt lat="43.907331649740975" lon="12.36752246737387"><ele>442.33333333333337</ele><time>2026-04-04T13:27:23Z</time></trkpt><trkpt lat="43.90736941867292" lon="12.367742002850303"><ele>442.0</ele><time>2026-04-04T13:27:24Z</time></trkpt><trkpt lat="43.9074168681601" lon="12.36797906433179"><ele>439.6666666666667</ele><time>2026-04-04T13:27:25Z</time></trkpt><trkpt lat="43.90744063870929" lon="12.368225405978338"><ele>437.33333333333337</ele><time>2026-04-04T13:27:26Z</time></trkpt><trkpt lat="43.90748217786872" lon="12.368445214150452"><ele>435.0</ele><time>2026-04-04T13:27:27Z</time></trkpt><trkpt lat="43.90753895818232" lon="12.368644922962384"><ele>435.25</ele><time>2026-04-04T13:27:28Z</time></trkpt><trkpt lat="43.907636748271955" lon="12.36880914754496"><ele>435.5</ele><time>2026-04-04T13:27:29Z</time></trkpt><trkpt lat="43.90772197924128" lon="12.368960872617501"><ele>435.75</ele><time>2026-04-04T13:27:30Z</time></trkpt><trkpt lat="43.907857296062815" lon="12.369039758894669"><ele>436.0</ele><time>2026-04-04T13:27:31Z</time></trkpt><trkpt lat="43.907999405775165" lon="12.369081220700041"><ele>433.25</ele><time>2026-04-04T13:27:32Z</time></trkpt><trkpt lat="43.90814417268211" lon="12.369080376206197"><ele>430.5</ele><time>2026-04-04T13:27:33Z</time></trkpt><trkpt lat="43.908285539679206" lon="12.369025546358584"><ele>427.75</ele><time>2026-04-04T13:27:34Z</time></trkpt><trkpt lat="43.908413146551965" lon="12.368921213340938"><ele>425.0</ele><time>2026-04-04T13:27:35Z</time></trkpt><trkpt lat="43.90852250322078" lon="12.36877019876579"><ele>418.66666666666663</ele><time>2026-04-04T13:27:36Z</time></trkpt><trkpt lat="43.90859888898884" lon="12.368589692266275"><ele>412.33333333333337</ele><time>2026-04-04T13:27:37Z</time></trkpt><trkpt lat="43.90863964503216" lon="12.368376661344424"><ele>406.0</ele><time>2026-04-04T13:27:38Z</time></trkpt><trkpt lat="43.90866747901358" lon="12.36813883712165"><ele>410.33333333333337</ele><time>2026-04-04T13:27:39Z</time></trkpt><trkpt lat="43.90872447654404" lon="12.36789972740679"><ele>414.66666666666663</ele><time>2026-04-04T13:27:40Z</time></trkpt><trkpt lat="43.9088304879961" lon="12.36766671523989"><ele>419.0</ele><time>2026-04-04T13:27:41Z</time></trkpt><trkpt lat="43.908947640920196" lon="12.36744743890349"><ele>419.0</ele><time>2026-04-04T13:27:42Z</time></trkpt><trkpt lat="43.90906353049122" lon="12.367255262201088"><ele>419.0</ele><time>2026-04-04T13:27:43Z</time></trkpt><trkpt lat="43.90918067990932" lon="12.367095293814653"><ele>419.0</ele><time>2026-04-04T13:27:44Z</time></trkpt><trkpt lat="43.90929674124894" lon="12.366972959327489"><ele>417.66666666666663</ele><time>2026-04-04T13:27:45Z</time></trkpt><trkpt lat="43.90942702792738" lon="12.366890076445506"><ele>416.33333333333337</ele><time>2026-04-04T13:27:46Z</time></trkpt><trkpt lat="43.909578812064844" lon="12.366842258490214"><ele>415.0</ele><time>2026-04-04T13:27:47Z</time></trkpt><trkpt lat="43.90975143848658" lon="12.366828492499065"><ele>415.0</ele><time>2026-04-04T13:27:48Z</time></trkpt><trkpt lat="43.90993530660178" lon="12.366827686391254"><ele>415.0</ele><time>2026-04-04T13:27:49Z</time></trkpt><trkpt lat="43.91011494459847" lon="12.366821140464564"><ele>415.0</ele><time>2026-04-04T13:27:50Z</time></trkpt><trkpt lat="43.9102935818758" lon="12.366818871479907"><ele>412.33333333333337</ele><time>2026-04-04T13:27:51Z</time></trkpt><trkpt lat="43.910467070570434" lon="12.366817154573244"><ele>409.66666666666663</ele><time>2026-04-04T13:27:52Z</time></trkpt><trkpt lat="43.9106254297905" lon="12.366826472706332"><ele>407.0</ele><time>2026-04-04T13:27:53Z</time></trkpt><trkpt lat="43.91077415120274" lon="12.366841565366254"><ele>403.8</ele><time>2026-04-04T13:27:54Z</time></trkpt><trkpt lat="43.910914461889845" lon="12.366858247913719"><ele>400.6</ele><time>2026-04-04T13:27:55Z</time></trkpt><trkpt lat="43.911031883326096" lon="12.36686883145301"><ele>397.40000000000003</ele><time>2026-04-04T13:27:56Z</time></trkpt><trkpt lat="43.91112019569717" lon="12.366907653220576"><ele>394.20000000000005</ele><time>2026-04-04T13:27:57Z</time></trkpt><trkpt lat="43.91120015208778" lon="12.366924454920092"><ele>391.0</ele><time>2026-04-04T13:27:58Z</time></trkpt><trkpt lat="43.91122557612007" lon="12.3670256614496"><ele>391.00000000000006</ele><time>2026-04-04T13:27:59Z</time></trkpt><trkpt lat="43.91123084714854" lon="12.367123777276431"><ele>391.0</ele><time>2026-04-04T13:28:00Z</time></trkpt><trkpt lat="43.9112096616198" lon="12.367211695204807"><ele>391.0</ele><time>2026-04-04T13:28:01Z</time></trkpt><trkpt lat="43.911157177218726" lon="12.367292672433017"><ele>391.0</ele><time>2026-04-04T13:28:02Z</time></trkpt><trkpt lat="43.91108042746356" lon="12.367319702480088"><ele>391.00000000000006</ele><time>2026-04-04T13:28:03Z</time></trkpt><trkpt lat="43.91100321353836" lon="12.367392309304112"><ele>391.0</ele><time>2026-04-04T13:28:04Z</time></trkpt><trkpt lat="43.910928765784945" lon="12.3674287188517"><ele>392.33333333333337</ele><time>2026-04-04T13:28:05Z</time></trkpt><trkpt lat="43.910856049289215" lon="12.367471164307505"><ele>393.6666666666667</ele><time>2026-04-04T13:28:06Z</time></trkpt><trkpt lat="43.910794352052825" lon="12.367524259198253"><ele>395.0</ele><time>2026-04-04T13:28:07Z</time></trkpt><trkpt lat="43.91074890406492" lon="12.367597774257513"><ele>396.33333333333337</ele><time>2026-04-04T13:28:08.001Z</time></trkpt><trkpt lat="43.91072081817809" lon="12.367697733122613"><ele>397.6666666666667</ele><time>2026-04-04T13:28:09.001Z</time></trkpt><trkpt lat="43.910730791295556" lon="12.367802452756301"><ele>399.0</ele><time>2026-04-04T13:28:10.001Z</time></trkpt><trkpt lat="43.91078101396753" lon="12.367895718031447"><ele>399.0</ele><time>2026-04-04T13:28:11.001Z</time></trkpt><trkpt lat="43.91085691748167" lon="12.367958087473781"><ele>399.0</ele><time>2026-04-04T13:28:12.001Z</time></trkpt><trkpt lat="43.91095073780462" lon="12.36797355900196"><ele>399.0</ele><time>2026-04-04T13:28:13.001Z</time></trkpt><trkpt lat="43.911054920096724" lon="12.367973371976195"><ele>399.0</ele><time>2026-04-04T13:28:14.001Z</time></trkpt><trkpt lat="43.911167567996" lon="12.367982947056156"><ele>399.0</ele><time>2026-04-04T13:28:15.001Z</time></trkpt><trkpt lat="43.91129149785046" lon="12.367989207274613"><ele>396.25</ele><time>2026-04-04T13:28:16.001Z</time></trkpt><trkpt lat="43.91142336711617" lon="12.367989686787267"><ele>393.5</ele><time>2026-04-04T13:28:17.001Z</time></trkpt><trkpt lat="43.91154940891758" lon="12.367994660962426"><ele>390.75</ele><time>2026-04-04T13:28:18.001Z</time></trkpt><trkpt lat="43.91165254349331" lon="12.36803264974402"><ele>388.0</ele><time>2026-04-04T13:28:19.001Z</time></trkpt><trkpt lat="43.91173665474323" lon="12.368105851024655"><ele>384.0</ele><time>2026-04-04T13:28:20.001Z</time></trkpt><trkpt lat="43.91179511391947" lon="12.368226325673904"><ele>380.0</ele><time>2026-04-04T13:28:21.001Z</time></trkpt><trkpt lat="43.91179411856563" lon="12.368389059042604"><ele>376.0</ele><time>2026-04-04T13:28:22.001Z</time></trkpt><trkpt lat="43.91179177600079" lon="12.368586068716851"><ele>372.0</ele><time>2026-04-04T13:28:23.001Z</time></trkpt><trkpt lat="43.911786550845925" lon="12.368781786632642"><ele>371.40000000000003</ele><time>2026-04-04T13:28:24.001Z</time></trkpt><trkpt lat="43.91178139278058" lon="12.368962254197049"><ele>370.8</ele><time>2026-04-04T13:28:25.001Z</time></trkpt><trkpt lat="43.911778115304905" lon="12.3691333310795"><ele>370.2</ele><time>2026-04-04T13:28:26.001Z</time></trkpt><trkpt lat="43.91177880693618" lon="12.369280362914441"><ele>369.6</ele><time>2026-04-04T13:28:27.001Z</time></trkpt><trkpt lat="43.91176894893022" lon="12.369389765449629"><ele>369.0</ele><time>2026-04-04T13:28:28.001Z</time></trkpt><trkpt lat="43.91174705920386" lon="12.369500732849586"><ele>369.0</ele><time>2026-04-04T13:28:30.001Z</time></trkpt><trkpt lat="43.91175991550102" lon="12.369363903909507"><ele>369.0</ele><time>2026-04-04T13:35:40Z</time></trkpt><trkpt lat="43.91176744505352" lon="12.369268820199173"><ele>369.0</ele><time>2026-04-04T13:35:42Z</time></trkpt><trkpt lat="43.91177315874293" lon="12.369169745770161"><ele>369.0</ele><time>2026-04-04T13:35:44Z</time></trkpt><trkpt lat="43.91177802150273" lon="12.369059376595247"><ele>369.0</ele><time>2026-04-04T13:35:46Z</time></trkpt><trkpt lat="43.91178219287913" lon="12.368939204222759"><ele>369.0</ele><time>2026-04-04T13:35:48Z</time></trkpt><trkpt lat="43.91178627792974" lon="12.368792009006519"><ele>369.6</ele><time>2026-04-04T13:35:50Z</time></trkpt><trkpt lat="43.9117910489417" lon="12.368613301833044"><ele>370.2</ele><time>2026-04-04T13:35:52Z</time></trkpt><trkpt lat="43.91179380829848" lon="12.368509944955859"><ele>370.8</ele><time>2026-04-04T13:35:53Z</time></trkpt><trkpt lat="43.91179665682676" lon="12.368403247944986"><ele>371.40000000000003</ele><time>2026-04-04T13:35:54Z</time></trkpt><trkpt lat="43.91179445090985" lon="12.368294901365388"><ele>372.0</ele><time>2026-04-04T13:35:55Z</time></trkpt><trkpt lat="43.911803735998596" lon="12.36811732426416"><ele>375.20000000000005</ele><time>2026-04-04T13:35:56Z</time></trkpt><trkpt lat="43.91173438016144" lon="12.368020346731324"><ele>378.4</ele><time>2026-04-04T13:35:57Z</time></trkpt><trkpt lat="43.911640648058174" lon="12.367965785318024"><ele>381.6</ele><time>2026-04-04T13:35:58Z</time></trkpt><trkpt lat="43.911524964007654" lon="12.367946483422225"><ele>384.79999999999995</ele><time>2026-04-04T13:35:59Z</time></trkpt><trkpt lat="43.911394309847104" lon="12.367940182065448"><ele>388.0</ele><time>2026-04-04T13:36:00Z</time></trkpt><trkpt lat="43.91125925234651" lon="12.36793188797961"><ele>388.0</ele><time>2026-04-04T13:36:01.001Z</time></trkpt><trkpt lat="43.911120770602544" lon="12.367922679407757"><ele>388.0</ele><time>2026-04-04T13:36:02.001Z</time></trkpt><trkpt lat="43.910992513571834" lon="12.367924091646218"><ele>388.0</ele><time>2026-04-04T13:36:03.001Z</time></trkpt><trkpt lat="43.91088824125716" lon="12.367911803246852"><ele>388.0</ele><time>2026-04-04T13:36:04.001Z</time></trkpt><trkpt lat="43.910818809452344" lon="12.367849849866952"><ele>388.00000000000006</ele><time>2026-04-04T13:36:05.001Z</time></trkpt><trkpt lat="43.91078119733703" lon="12.367759467266527"><ele>388.0</ele><time>2026-04-04T13:36:06.001Z</time></trkpt><trkpt lat="43.91078129993242" lon="12.367657762401873"><ele>388.0</ele><time>2026-04-04T13:36:07.001Z</time></trkpt><trkpt lat="43.91082295071431" lon="12.367559180196851"><ele>388.0</ele><time>2026-04-04T13:36:08.001Z</time></trkpt><trkpt lat="43.91090127834198" lon="12.36749091931313"><ele>388.00000000000006</ele><time>2026-04-04T13:36:09.001Z</time></trkpt><trkpt lat="43.91100373135455" lon="12.367439055518911"><ele>388.0</ele><time>2026-04-04T13:36:10.001Z</time></trkpt><trkpt lat="43.91110676557643" lon="12.367387584055377"><ele>388.0</ele><time>2026-04-04T13:36:11.001Z</time></trkpt><trkpt lat="43.911198480337546" lon="12.3673119154159"><ele>388.0</ele><time>2026-04-04T13:36:12.001Z</time></trkpt><trkpt lat="43.911254379542214" lon="12.36720756770104"><ele>388.0</ele><time>2026-04-04T13:36:13.001Z</time></trkpt><trkpt lat="43.91127306086865" lon="12.367090864923838"><ele>388.0</ele><time>2026-04-04T13:36:14.001Z</time></trkpt><trkpt lat="43.91124693617963" lon="12.366985512981433"><ele>388.0</ele><time>2026-04-04T13:36:15.001Z</time></trkpt><trkpt lat="43.911182724600614" lon="12.366898805275925"><ele>388.75</ele><time>2026-04-04T13:36:16.001Z</time></trkpt><trkpt lat="43.911089092701566" lon="12.366852311578835"><ele>389.5</ele><time>2026-04-04T13:36:17.001Z</time></trkpt><trkpt lat="43.910968194546854" lon="12.366837679647977"><ele>390.25</ele><time>2026-04-04T13:36:18.001Z</time></trkpt><trkpt lat="43.91083137195366" lon="12.36682311497274"><ele>391.0</ele><time>2026-04-04T13:36:19.001Z</time></trkpt><trkpt lat="43.91069001807351" lon="12.36680249248274"><ele>396.33333333333337</ele><time>2026-04-04T13:36:20.001Z</time></trkpt><trkpt lat="43.91053525897804" lon="12.366787963154358"><ele>401.66666666666663</ele><time>2026-04-04T13:36:21.001Z</time></trkpt><trkpt lat="43.91037168377203" lon="12.366774484008326"><ele>407.0</ele><time>2026-04-04T13:36:22.001Z</time></trkpt><trkpt lat="43.91020631932866" lon="12.366768372437638"><ele>409.66666666666663</ele><time>2026-04-04T13:36:23.001Z</time></trkpt><trkpt lat="43.91003950406355" lon="12.36677422901716"><ele>412.33333333333337</ele><time>2026-04-04T13:36:24.001Z</time></trkpt><trkpt lat="43.90987061077078" lon="12.366785632427806"><ele>415.0</ele><time>2026-04-04T13:36:25.001Z</time></trkpt><trkpt lat="43.90970217890637" lon="12.366791713167965"><ele>415.0</ele><time>2026-04-04T13:36:26.001Z</time></trkpt><trkpt lat="43.90953982726116" lon="12.366818193709099"><ele>415.0</ele><time>2026-04-04T13:36:27.001Z</time></trkpt><trkpt lat="43.909392965205384" lon="12.36687140940506"><ele>415.0</ele><time>2026-04-04T13:36:28.001Z</time></trkpt><trkpt lat="43.90926008954851" lon="12.366956089159432"><ele>416.33333333333337</ele><time>2026-04-04T13:36:29.001Z</time></trkpt><trkpt lat="43.90913611775499" lon="12.367061136057323"><ele>417.66666666666663</ele><time>2026-04-04T13:36:30.001Z</time></trkpt><trkpt lat="43.909048219509785" lon="12.36723220514043"><ele>419.0</ele><time>2026-04-04T13:36:31.001Z</time></trkpt><trkpt lat="43.9089358002888" lon="12.3673811742112"><ele>419.0</ele><time>2026-04-04T13:36:32.001Z</time></trkpt><trkpt lat="43.90883529181174" lon="12.367554500813462"><ele>419.0</ele><time>2026-04-04T13:36:33.001Z</time></trkpt><trkpt lat="43.90874934066126" lon="12.367748577874572"><ele>419.0</ele><time>2026-04-04T13:36:34.001Z</time></trkpt><trkpt lat="43.90865504838816" lon="12.36792532793214"><ele>414.66666666666663</ele><time>2026-04-04T13:36:35.001Z</time></trkpt><trkpt lat="43.908600357154775" lon="12.368132402618054"><ele>410.33333333333337</ele><time>2026-04-04T13:36:36.001Z</time></trkpt><trkpt lat="43.90857884865354" lon="12.368348320497601"><ele>406.0</ele><time>2026-04-04T13:36:37.001Z</time></trkpt><trkpt lat="43.90855665489025" lon="12.36853381537812"><ele>406.0</ele><time>2026-04-04T13:36:38.001Z</time></trkpt><trkpt lat="43.90850232979679" lon="12.36867958462464"><ele>406.0</ele><time>2026-04-04T13:36:39.001Z</time></trkpt><trkpt lat="43.90844454094899" lon="12.368836608949183"><ele>406.0</ele><time>2026-04-04T13:36:40.001Z</time></trkpt><trkpt lat="43.90833402348861" lon="12.368947679643018"><ele>406.0</ele><time>2026-04-04T13:36:41.001Z</time></trkpt><trkpt lat="43.90820567949771" lon="12.369018976070091"><ele>410.75</ele><time>2026-04-04T13:36:42.001Z</time></trkpt><trkpt lat="43.90806940674323" lon="12.369047207895974"><ele>415.5</ele><time>2026-04-04T13:36:43.001Z</time></trkpt><trkpt lat="43.90794601839803" lon="12.369031501565246"><ele>420.25</ele><time>2026-04-04T13:36:44.001Z</time></trkpt><trkpt lat="43.90783337214692" lon="12.368981828243653"><ele>425.0</ele><time>2026-04-04T13:36:45.001Z</time></trkpt><trkpt lat="43.907733587966206" lon="12.368897831772967"><ele>427.5</ele><time>2026-04-04T13:36:46.001Z</time></trkpt><trkpt lat="43.907656519193644" lon="12.368767198534501"><ele>430.0</ele><time>2026-04-04T13:36:47.001Z</time></trkpt><trkpt lat="43.90759556624359" lon="12.368615070578127"><ele>432.5</ele><time>2026-04-04T13:36:48.001Z</time></trkpt><trkpt lat="43.907541955535876" lon="12.368456622157813"><ele>435.0</ele><time>2026-04-04T13:36:49.001Z</time></trkpt><trkpt lat="43.90749994592484" lon="12.36828288778223"><ele>435.0</ele><time>2026-04-04T13:36:50.001Z</time></trkpt><trkpt lat="43.907471916908925" lon="12.368098216841432"><ele>435.0</ele><time>2026-04-04T13:36:51.001Z</time></trkpt><trkpt lat="43.90744098666002" lon="12.367907605178837"><ele>435.0</ele><time>2026-04-04T13:36:52.001Z</time></trkpt><trkpt lat="43.90741020053412" lon="12.367720077657445"><ele>435.0</ele><time>2026-04-04T13:36:53.001Z</time></trkpt><trkpt lat="43.9073779333869" lon="12.36753463246594"><ele>436.75</ele><time>2026-04-04T13:36:54.001Z</time></trkpt><trkpt lat="43.907353227258014" lon="12.367353216270423"><ele>438.5</ele><time>2026-04-04T13:36:55.001Z</time></trkpt><trkpt lat="43.907362109964374" lon="12.367172496457883"><ele>440.25</ele><time>2026-04-04T13:36:56.001Z</time></trkpt><trkpt lat="43.90739925365822" lon="12.366994246451048"><ele>442.0</ele><time>2026-04-04T13:36:57.001Z</time></trkpt><trkpt lat="43.90745728806205" lon="12.366829449299123"><ele>442.25</ele><time>2026-04-04T13:36:58.001Z</time></trkpt><trkpt lat="43.90752993176428" lon="12.366677175814871"><ele>442.5</ele><time>2026-04-04T13:36:59.001Z</time></trkpt><trkpt lat="43.90760228195252" lon="12.366517062775564"><ele>442.75</ele><time>2026-04-04T13:37:00.001Z</time></trkpt><trkpt lat="43.907671254389264" lon="12.366360854763633"><ele>443.0</ele><time>2026-04-04T13:37:01.001Z</time></trkpt><trkpt lat="43.90773249789058" lon="12.366208202125998"><ele>445.5</ele><time>2026-04-04T13:37:02.001Z</time></trkpt><trkpt lat="43.907763821831836" lon="12.36604992648666"><ele>448.0</ele><time>2026-04-04T13:37:03.001Z</time></trkpt><trkpt lat="43.907739937997285" lon="12.365875402338615"><ele>450.5</ele><time>2026-04-04T13:37:04.001Z</time></trkpt><trkpt lat="43.9076746126925" lon="12.365719404099487"><ele>453.0</ele><time>2026-04-04T13:37:05.001Z</time></trkpt><trkpt lat="43.907584408543464" lon="12.365584065665344"><ele>454.5</ele><time>2026-04-04T13:37:06.001Z</time></trkpt><trkpt lat="43.90747842841361" lon="12.365460391772395"><ele>456.0</ele><time>2026-04-04T13:37:07.002Z</time></trkpt><trkpt lat="43.90737551185444" lon="12.365334220840992"><ele>457.5</ele><time>2026-04-04T13:37:08.002Z</time></trkpt><trkpt lat="43.907272492812986" lon="12.36521006204484"><ele>459.0</ele><time>2026-04-04T13:37:09.002Z</time></trkpt><trkpt lat="43.907176737426106" lon="12.365084416527846"><ele>459.0</ele><time>2026-04-04T13:37:10.002Z</time></trkpt><trkpt lat="43.90710631913348" lon="12.364937043518257"><ele>459.0</ele><time>2026-04-04T13:37:11.002Z</time></trkpt><trkpt lat="43.9070698714584" lon="12.364775975820901"><ele>459.0</ele><time>2026-04-04T13:37:12.002Z</time></trkpt><trkpt lat="43.90708095342861" lon="12.36460718301651"><ele>459.0</ele><time>2026-04-04T13:37:13.002Z</time></trkpt><trkpt lat="43.907120362358775" lon="12.364440109708854"><ele>460.5</ele><time>2026-04-04T13:37:14.002Z</time></trkpt><trkpt lat="43.90716788037264" lon="12.364270420526287"><ele>462.0</ele><time>2026-04-04T13:37:15.002Z</time></trkpt><trkpt lat="43.907185203996136" lon="12.364091759737043"><ele>463.5</ele><time>2026-04-04T13:37:16.002Z</time></trkpt><trkpt lat="43.9071560109865" lon="12.363910858993773"><ele>465.0</ele><time>2026-04-04T13:37:17.002Z</time></trkpt><trkpt lat="43.907079956317226" lon="12.363749662144874"><ele>466.75</ele><time>2026-04-04T13:37:18.002Z</time></trkpt><trkpt lat="43.90697291654117" lon="12.363628775319839"><ele>468.5</ele><time>2026-04-04T13:37:19.002Z</time></trkpt><trkpt lat="43.90684024932494" lon="12.363572936026529"><ele>470.25</ele><time>2026-04-04T13:37:20.002Z</time></trkpt><trkpt lat="43.90669951506577" lon="12.363580767290951"><ele>472.0</ele><time>2026-04-04T13:37:21.002Z</time></trkpt><trkpt lat="43.90655859695735" lon="12.363604840266998"><ele>472.25</ele><time>2026-04-04T13:37:22.002Z</time></trkpt><trkpt lat="43.90643337355046" lon="12.363592172416794"><ele>472.5</ele><time>2026-04-04T13:37:23.002Z</time></trkpt><trkpt lat="43.90631537473186" lon="12.363596220204299"><ele>472.75</ele><time>2026-04-04T13:37:24.002Z</time></trkpt><trkpt lat="43.90621801378347" lon="12.363505921671528"><ele>473.0</ele><time>2026-04-04T13:37:25.002Z</time></trkpt><trkpt lat="43.90615658451194" lon="12.363364479416008"><ele>473.0</ele><time>2026-04-04T13:37:26.002Z</time></trkpt><trkpt lat="43.906145958335685" lon="12.363189192774652"><ele>473.0</ele><time>2026-04-04T13:37:27.002Z</time></trkpt><trkpt lat="43.906158402061386" lon="12.362998789116224"><ele>473.0</ele><time>2026-04-04T13:37:28.002Z</time></trkpt><trkpt lat="43.90617261080551" lon="12.362790455621775"><ele>473.0</ele><time>2026-04-04T13:37:29.001Z</time></trkpt><trkpt lat="43.9061717166053" lon="12.36257275296772"><ele>476.3333333333333</ele><time>2026-04-04T13:37:30.001Z</time></trkpt><trkpt lat="43.906151173314136" lon="12.362351737588734"><ele>479.66666666666663</ele><time>2026-04-04T13:37:31.001Z</time></trkpt><trkpt lat="43.90611895117054" lon="12.362136858025506"><ele>483.0</ele><time>2026-04-04T13:37:32.001Z</time></trkpt><trkpt lat="43.90607760707963" lon="12.361926471152998"><ele>485.5</ele><time>2026-04-04T13:37:33.001Z</time></trkpt><trkpt lat="43.9060322512059" lon="12.361728936478066"><ele>488.0</ele><time>2026-04-04T13:37:34.001Z</time></trkpt><trkpt lat="43.90597808448725" lon="12.361549130498013"><ele>490.5</ele><time>2026-04-04T13:37:35.001Z</time></trkpt><trkpt lat="43.905917273800206" lon="12.361386418327095"><ele>493.0</ele><time>2026-04-04T13:37:36.001Z</time></trkpt><trkpt lat="43.90585711240173" lon="12.361235830580616"><ele>494.0</ele><time>2026-04-04T13:37:37.001Z</time></trkpt><trkpt lat="43.90579440284757" lon="12.361093204006105"><ele>495.0</ele><time>2026-04-04T13:37:38.001Z</time></trkpt><trkpt lat="43.9057307522657" lon="12.360962993771757"><ele>496.0</ele><time>2026-04-04T13:37:39.001Z</time></trkpt><trkpt lat="43.905666840871035" lon="12.360838514038539"><ele>497.0</ele><time>2026-04-04T13:37:40.001Z</time></trkpt><trkpt lat="43.905604539604816" lon="12.360716565332208"><ele>497.0</ele><time>2026-04-04T13:37:41.001Z</time></trkpt><trkpt lat="43.90554281702755" lon="12.3605963121667"><ele>497.00000000000006</ele><time>2026-04-04T13:37:42.001Z</time></trkpt><trkpt lat="43.90548031390682" lon="12.360477009002613"><ele>497.00000000000006</ele><time>2026-04-04T13:37:43.001Z</time></trkpt><trkpt lat="43.90542132671748" lon="12.360351020100035"><ele>497.0</ele><time>2026-04-04T13:37:44.001Z</time></trkpt><trkpt lat="43.90536132730474" lon="12.360223933867879"><ele>497.0</ele><time>2026-04-04T13:37:45.001Z</time></trkpt><trkpt lat="43.9052949935705" lon="12.36009582775591"><ele>500.0</ele><time>2026-04-04T13:37:46.001Z</time></trkpt><trkpt lat="43.905223277367604" lon="12.359965800169725"><ele>503.0</ele><time>2026-04-04T13:37:47.001Z</time></trkpt><trkpt lat="43.90515367659366" lon="12.35983154859417"><ele>506.0</ele><time>2026-04-04T13:37:48.001Z</time></trkpt><trkpt lat="43.90508140058472" lon="12.359692979710436"><ele>509.0</ele><time>2026-04-04T13:37:49.001Z</time></trkpt><trkpt lat="43.90500573546446" lon="12.359551808557514"><ele>509.75</ele><time>2026-04-04T13:37:50.001Z</time></trkpt><trkpt lat="43.904926087233264" lon="12.35940415862653"><ele>510.5</ele><time>2026-04-04T13:37:51.001Z</time></trkpt><trkpt lat="43.904849497941555" lon="12.359248290449052"><ele>511.25</ele><time>2026-04-04T13:37:52.001Z</time></trkpt><trkpt lat="43.90476490530735" lon="12.359088722090128"><ele>512.0</ele><time>2026-04-04T13:37:53.001Z</time></trkpt><trkpt lat="43.90468060381061" lon="12.358929195971555"><ele>517.5</ele><time>2026-04-04T13:37:54.001Z</time></trkpt><trkpt lat="43.90459528854138" lon="12.35876966584239"><ele>523.0</ele><time>2026-04-04T13:37:55.001Z</time></trkpt><trkpt lat="43.90450671476197" lon="12.35862625175374"><ele>528.5</ele><time>2026-04-04T13:37:56.001Z</time></trkpt><trkpt lat="43.90439981103361" lon="12.35850168351242"><ele>534.0</ele><time>2026-04-04T13:37:57.001Z</time></trkpt><trkpt lat="43.904281791994045" lon="12.358392161925467"><ele>530.25</ele><time>2026-04-04T13:37:58.001Z</time></trkpt><trkpt lat="43.90415606139331" lon="12.35830613470191"><ele>526.5</ele><time>2026-04-04T13:37:59.001Z</time></trkpt><trkpt lat="43.90402664153144" lon="12.358237018017027"><ele>522.75</ele><time>2026-04-04T13:38:00.001Z</time></trkpt><trkpt lat="43.90387754975818" lon="12.35823559793589"><ele>519.0</ele><time>2026-04-04T13:38:01.001Z</time></trkpt><trkpt lat="43.90373044819644" lon="12.358245316103174"><ele>519.0</ele><time>2026-04-04T13:38:02.001Z</time></trkpt><trkpt lat="43.90357605016724" lon="12.358279436933202"><ele>519.0</ele><time>2026-04-04T13:38:03.001Z</time></trkpt><trkpt lat="43.90343157427832" lon="12.358332377484361"><ele>519.0</ele><time>2026-04-04T13:38:04.001Z</time></trkpt><trkpt lat="43.90328065532202" lon="12.358387370074373"><ele>520.6666666666666</ele><time>2026-04-04T13:38:05.001Z</time></trkpt><trkpt lat="43.90312916729655" lon="12.3584442724787"><ele>522.3333333333333</ele><time>2026-04-04T13:38:06.001Z</time></trkpt><trkpt lat="43.90297752675286" lon="12.358465908530102"><ele>524.0</ele><time>2026-04-04T13:38:07.001Z</time></trkpt><trkpt lat="43.902829215172154" lon="12.358507436711824"><ele>524.0</ele><time>2026-04-04T13:38:08.001Z</time></trkpt><trkpt lat="43.902674354675455" lon="12.358501672999955"><ele>524.0</ele><time>2026-04-04T13:38:09.001Z</time></trkpt><trkpt lat="43.902513257951526" lon="12.35848726126954"><ele>524.0</ele><time>2026-04-04T13:38:10.001Z</time></trkpt><trkpt lat="43.902345940402384" lon="12.358460221456077"><ele>526.0</ele><time>2026-04-04T13:38:11.001Z</time></trkpt><trkpt lat="43.902173371296236" lon="12.358432455181514"><ele>528.0</ele><time>2026-04-04T13:38:12.001Z</time></trkpt><trkpt lat="43.901996215666955" lon="12.35840512445752"><ele>530.0</ele><time>2026-04-04T13:38:13.001Z</time></trkpt><trkpt lat="43.90182009365991" lon="12.358384813296647"><ele>530.0</ele><time>2026-04-04T13:38:14.001Z</time></trkpt><trkpt lat="43.90164553008012" lon="12.358369700657702"><ele>530.0</ele><time>2026-04-04T13:38:15.001Z</time></trkpt><trkpt lat="43.901473450277244" lon="12.358354509989393"><ele>530.0</ele><time>2026-04-04T13:38:16.001Z</time></trkpt><trkpt lat="43.90131017275997" lon="12.358339428578367"><ele>530.0</ele><time>2026-04-04T13:38:17.001Z</time></trkpt><trkpt lat="43.90115791873494" lon="12.358310981793228"><ele>530.0</ele><time>2026-04-04T13:38:18.001Z</time></trkpt><trkpt lat="43.901009215939055" lon="12.358247512859073"><ele>530.0</ele><time>2026-04-04T13:38:19.001Z</time></trkpt><trkpt lat="43.900870885107196" lon="12.358139218951848"><ele>535.0</ele><time>2026-04-04T13:38:20.001Z</time></trkpt><trkpt lat="43.900741838768" lon="12.357997069877023"><ele>540.0</ele><time>2026-04-04T13:38:21.001Z</time></trkpt><trkpt lat="43.9006178614655" lon="12.35784087113487"><ele>545.0</ele><time>2026-04-04T13:38:22.001Z</time></trkpt><trkpt lat="43.90048682193683" lon="12.357680731643999"><ele>545.0</ele><time>2026-04-04T13:38:23.001Z</time></trkpt><trkpt lat="43.90034444865258" lon="12.35752101952568"><ele>545.0</ele><time>2026-04-04T13:38:24.001Z</time></trkpt><trkpt lat="43.90019690200046" lon="12.357361899275563"><ele>545.0</ele><time>2026-04-04T13:38:25.001Z</time></trkpt><trkpt lat="43.90005091568598" lon="12.357199064986306"><ele>547.3333333333333</ele><time>2026-04-04T13:38:26.001Z</time></trkpt><trkpt lat="43.899906165888055" lon="12.357031603493438"><ele>549.6666666666666</ele><time>2026-04-04T13:38:27.001Z</time></trkpt><trkpt lat="43.89976260883075" lon="12.35686431012535"><ele>552.0</ele><time>2026-04-04T13:38:28.001Z</time></trkpt><trkpt lat="43.899614818758465" lon="12.356700930800454"><ele>552.0</ele><time>2026-04-04T13:38:29.001Z</time></trkpt><trkpt lat="43.89947009105405" lon="12.356530574542925"><ele>552.0</ele><time>2026-04-04T13:38:30.001Z</time></trkpt><trkpt lat="43.89933349071214" lon="12.356345738660599"><ele>552.0</ele><time>2026-04-04T13:38:31.001Z</time></trkpt><trkpt lat="43.899204922542694" lon="12.35615007757963"><ele>554.6666666666666</ele><time>2026-04-04T13:38:32.001Z</time></trkpt><trkpt lat="43.89908684354733" lon="12.355945580147191"><ele>557.3333333333333</ele><time>2026-04-04T13:38:33.001Z</time></trkpt><trkpt lat="43.898973298482915" lon="12.35572990160726"><ele>560.0</ele><time>2026-04-04T13:38:34.001Z</time></trkpt><trkpt lat="43.89885634319242" lon="12.35551420339296"><ele>563.6666666666666</ele><time>2026-04-04T13:38:35.001Z</time></trkpt><trkpt lat="43.898733444620426" lon="12.355301198367256"><ele>567.3333333333334</ele><time>2026-04-04T13:38:36.001Z</time></trkpt><trkpt lat="43.898609586779045" lon="12.35508765337211"><ele>571.0</ele><time>2026-04-04T13:38:37.001Z</time></trkpt><trkpt lat="43.89849371159993" lon="12.354881870845809"><ele>572.0</ele><time>2026-04-04T13:38:38.001Z</time></trkpt><trkpt lat="43.89838471938221" lon="12.354689256112085"><ele>573.0</ele><time>2026-04-04T13:38:39.001Z</time></trkpt><trkpt lat="43.89826197711189" lon="12.35452757851623"><ele>574.0</ele><time>2026-04-04T13:38:40.001Z</time></trkpt><trkpt lat="43.89811784591945" lon="12.354399829526272"><ele>574.0</ele><time>2026-04-04T13:38:41.001Z</time></trkpt><trkpt lat="43.89795705693892" lon="12.354307563116876"><ele>574.0</ele><time>2026-04-04T13:38:42.001Z</time></trkpt><trkpt lat="43.897795550413505" lon="12.354261945289835"><ele>574.0</ele><time>2026-04-04T13:38:43.001Z</time></trkpt><trkpt lat="43.897641699937296" lon="12.354266444833351"><ele>574.0</ele><time>2026-04-04T13:38:44.001Z</time></trkpt><trkpt lat="43.89748851759082" lon="12.354332669957405"><ele>574.0</ele><time>2026-04-04T13:38:45.001Z</time></trkpt><trkpt lat="43.89734246633347" lon="12.354430119133635"><ele>574.0</ele><time>2026-04-04T13:38:46.001Z</time></trkpt><trkpt lat="43.897199225578234" lon="12.354510038309618"><ele>574.0</ele><time>2026-04-04T13:38:47.001Z</time></trkpt><trkpt lat="43.897050198243434" lon="12.354524758539174"><ele>574.0</ele><time>2026-04-04T13:38:48.001Z</time></trkpt><trkpt lat="43.896910383055456" lon="12.354528204217045"><ele>574.0</ele><time>2026-04-04T13:38:49.001Z</time></trkpt><trkpt lat="43.89677859178526" lon="12.354462586258109"><ele>574.0</ele><time>2026-04-04T13:38:50.001Z</time></trkpt><trkpt lat="43.89666266128303" lon="12.354354014601025"><ele>574.75</ele><time>2026-04-04T13:38:51.001Z</time></trkpt><trkpt lat="43.8965801428273" lon="12.354204352872424"><ele>575.5</ele><time>2026-04-04T13:38:52.001Z</time></trkpt><trkpt lat="43.89653867291657" lon="12.354026936861331"><ele>576.25</ele><time>2026-04-04T13:38:53.001Z</time></trkpt><trkpt lat="43.8965215887571" lon="12.35382510388116"><ele>577.0</ele><time>2026-04-04T13:38:54.001Z</time></trkpt><trkpt lat="43.89653838853267" lon="12.353620161511232"><ele>579.6666666666667</ele><time>2026-04-04T13:38:55.001Z</time></trkpt><trkpt lat="43.89655575420521" lon="12.353401115703452"><ele>582.3333333333334</ele><time>2026-04-04T13:38:56.001Z</time></trkpt><trkpt lat="43.896578844446786" lon="12.35317542176409"><ele>585.0</ele><time>2026-04-04T13:38:57.001Z</time></trkpt><trkpt lat="43.896606606159615" lon="12.352943427337912"><ele>585.0</ele><time>2026-04-04T13:38:58.001Z</time></trkpt><trkpt lat="43.896630939822565" lon="12.35270541307664"><ele>585.0</ele><time>2026-04-04T13:38:59.001Z</time></trkpt><trkpt lat="43.89664972655731" lon="12.352475563791812"><ele>585.0</ele><time>2026-04-04T13:39:00.001Z</time></trkpt><trkpt lat="43.896665440120145" lon="12.352253956873769"><ele>584.75</ele><time>2026-04-04T13:39:01.001Z</time></trkpt><trkpt lat="43.89668606559834" lon="12.3520510734691"><ele>584.5</ele><time>2026-04-04T13:39:02.001Z</time></trkpt><trkpt lat="43.89670462557223" lon="12.351853383219941"><ele>584.25</ele><time>2026-04-04T13:39:03.001Z</time></trkpt><trkpt lat="43.8967037905831" lon="12.351656733782491"><ele>584.0</ele><time>2026-04-04T13:39:04.001Z</time></trkpt><trkpt lat="43.89667738908304" lon="12.351451418768885"><ele>581.6666666666666</ele><time>2026-04-04T13:39:05.001Z</time></trkpt><trkpt lat="43.89662123728188" lon="12.35124225674354"><ele>579.3333333333334</ele><time>2026-04-04T13:39:06.001Z</time></trkpt><trkpt lat="43.89654271105004" lon="12.351040357635688"><ele>577.0</ele><time>2026-04-04T13:39:07.001Z</time></trkpt><trkpt lat="43.89645364137871" lon="12.350840131731637"><ele>577.0</ele><time>2026-04-04T13:39:08.001Z</time></trkpt><trkpt lat="43.89636776348374" lon="12.350641610657338"><ele>577.0</ele><time>2026-04-04T13:39:09.001Z</time></trkpt><trkpt lat="43.896289527894176" lon="12.350452323525012"><ele>577.0</ele><time>2026-04-04T13:39:10.001Z</time></trkpt><trkpt lat="43.89621388809986" lon="12.350279928740456"><ele>576.5</ele><time>2026-04-04T13:39:11.002Z</time></trkpt><trkpt lat="43.89616381721071" lon="12.350107432943908"><ele>576.0</ele><time>2026-04-04T13:39:12.002Z</time></trkpt><trkpt lat="43.896143471118904" lon="12.34993020091832"><ele>575.5</ele><time>2026-04-04T13:39:13.002Z</time></trkpt><trkpt lat="43.89615474074181" lon="12.349747406183694"><ele>575.0</ele><time>2026-04-04T13:39:14.002Z</time></trkpt><trkpt lat="43.896202778027714" lon="12.349565379253313"><ele>575.0</ele><time>2026-04-04T13:39:15.002Z</time></trkpt><trkpt lat="43.89627761315311" lon="12.349389482010391"><ele>575.0</ele><time>2026-04-04T13:39:16.002Z</time></trkpt><trkpt lat="43.896361629051384" lon="12.349212690444215"><ele>575.0</ele><time>2026-04-04T13:39:17.002Z</time></trkpt><trkpt lat="43.8964469520069" lon="12.349028645464259"><ele>574.5</ele><time>2026-04-04T13:39:18.002Z</time></trkpt><trkpt lat="43.89652679513197" lon="12.348849474350464"><ele>574.0</ele><time>2026-04-04T13:39:19.002Z</time></trkpt><trkpt lat="43.89658539341944" lon="12.348688710511237"><ele>573.5</ele><time>2026-04-04T13:39:20.002Z</time></trkpt><trkpt lat="43.89661154224349" lon="12.348539901052533"><ele>573.0</ele><time>2026-04-04T13:39:21.002Z</time></trkpt><trkpt lat="43.896621338638624" lon="12.34841191623448"><ele>573.0</ele><time>2026-04-04T13:39:22.002Z</time></trkpt><trkpt lat="43.89662925771527" lon="12.34826650986589"><ele>573.0</ele><time>2026-04-04T13:39:24.002Z</time></trkpt><trkpt lat="43.89637272414037" lon="12.34809481079348"><ele>573.0</ele><time>2026-04-04T13:39:25.002Z</time></trkpt><trkpt lat="43.896301824581705" lon="12.34799692326883"><ele>572.6</ele><time>2026-04-04T13:39:26.002Z</time></trkpt><trkpt lat="43.8962304611461" lon="12.347921775138005"><ele>572.1999999999999</ele><time>2026-04-04T13:39:27.002Z</time></trkpt><trkpt lat="43.89614293059273" lon="12.347871779187267"><ele>571.8</ele><time>2026-04-04T13:39:28.002Z</time></trkpt><trkpt lat="43.89604188381423" lon="12.34784443085077"><ele>571.4</ele><time>2026-04-04T13:39:29.002Z</time></trkpt><trkpt lat="43.89593104441011" lon="12.347852143813622"><ele>571.0</ele><time>2026-04-04T13:39:30.002Z</time></trkpt><trkpt lat="43.895821929090985" lon="12.347859985515363"><ele>572.0</ele><time>2026-04-04T13:39:31.002Z</time></trkpt><trkpt lat="43.895709951499555" lon="12.347842675903648"><ele>573.0</ele><time>2026-04-04T13:39:32.002Z</time></trkpt><trkpt lat="43.895604863581475" lon="12.347816577434926"><ele>574.0</ele><time>2026-04-04T13:39:33.002Z</time></trkpt><trkpt lat="43.89550826481179" lon="12.347777979672092"><ele>575.0</ele><time>2026-04-04T13:39:34.002Z</time></trkpt><trkpt lat="43.895428156554026" lon="12.347734752685874"><ele>576.0</ele><time>2026-04-04T13:39:35.001Z</time></trkpt><trkpt lat="43.895367498053616" lon="12.347689767250973"><ele>576.0</ele><time>2026-04-04T13:39:36.001Z</time></trkpt><trkpt lat="43.89530653049313" lon="12.347644781848933"><ele>576.0</ele><time>2026-04-04T13:39:37.001Z</time></trkpt><trkpt lat="43.89523428862982" lon="12.34760277343939"><ele>576.0</ele><time>2026-04-04T13:39:38.001Z</time></trkpt><trkpt lat="43.895155714295626" lon="12.347562909454705"><ele>576.0</ele><time>2026-04-04T13:39:39.001Z</time></trkpt><trkpt lat="43.89507266726997" lon="12.347536715653309"><ele>576.0</ele><time>2026-04-04T13:39:40.001Z</time></trkpt><trkpt lat="43.89497902579154" lon="12.347535257993666"><ele>576.0</ele><time>2026-04-04T13:39:41.001Z</time></trkpt><trkpt lat="43.89488732884519" lon="12.347563582954024"><ele>575.4</ele><time>2026-04-04T13:39:42.001Z</time></trkpt><trkpt lat="43.89480364678894" lon="12.34763542341731"><ele>574.8</ele><time>2026-04-04T13:39:43.001Z</time></trkpt><trkpt lat="43.89473900924023" lon="12.34774759356034"><ele>574.1999999999999</ele><time>2026-04-04T13:39:44.001Z</time></trkpt><trkpt lat="43.89469439034022" lon="12.347890785861166"><ele>573.6</ele><time>2026-04-04T13:39:45.001Z</time></trkpt><trkpt lat="43.89467786129216" lon="12.348051842141086"><ele>573.0</ele><time>2026-04-04T13:39:46.001Z</time></trkpt><trkpt lat="43.89467352968563" lon="12.348223107808206"><ele>578.0</ele><time>2026-04-04T13:39:47.001Z</time></trkpt><trkpt lat="43.89467227084874" lon="12.34840319831368"><ele>583.0</ele><time>2026-04-04T13:39:48.001Z</time></trkpt><trkpt lat="43.894667926363795" lon="12.348585825801543"><ele>588.0</ele><time>2026-04-04T13:39:49.001Z</time></trkpt><trkpt lat="43.89466395937916" lon="12.34876486111541"><ele>593.0</ele><time>2026-04-04T13:39:50.001Z</time></trkpt><trkpt lat="43.89468292490031" lon="12.34893923258354"><ele>593.75</ele><time>2026-04-04T13:39:51.001Z</time></trkpt><trkpt lat="43.894738051910466" lon="12.349098068282068"><ele>594.5</ele><time>2026-04-04T13:39:52.001Z</time></trkpt><trkpt lat="43.8948095038194" lon="12.349253492521838"><ele>595.25</ele><time>2026-04-04T13:39:53.001Z</time></trkpt><trkpt lat="43.89487200738022" lon="12.349420519892606"><ele>596.0</ele><time>2026-04-04T13:39:54.001Z</time></trkpt><trkpt lat="43.89491432838363" lon="12.34960356934907"><ele>594.75</ele><time>2026-04-04T13:39:55.001Z</time></trkpt><trkpt lat="43.89492533863036" lon="12.3498005030384"><ele>593.5</ele><time>2026-04-04T13:39:56.001Z</time></trkpt><trkpt lat="43.89490684129576" lon="12.350002168605888"><ele>592.25</ele><time>2026-04-04T13:39:57.001Z</time></trkpt><trkpt lat="43.894863082285276" lon="12.350197956219697"><ele>591.0</ele><time>2026-04-04T13:39:58.001Z</time></trkpt><trkpt lat="43.894811849201" lon="12.350387661038674"><ele>590.5</ele><time>2026-04-04T13:39:59.001Z</time></trkpt><trkpt lat="43.89475328789834" lon="12.350568509638304"><ele>590.0</ele><time>2026-04-04T13:40:00.001Z</time></trkpt><trkpt lat="43.894677171026444" lon="12.350740439550203"><ele>589.5</ele><time>2026-04-04T13:40:01.001Z</time></trkpt><trkpt lat="43.89459147692964" lon="12.350892122771535"><ele>589.0</ele><time>2026-04-04T13:40:02.001Z</time></trkpt><trkpt lat="43.894481759108594" lon="12.351017183465906"><ele>589.0</ele><time>2026-04-04T13:40:03.001Z</time></trkpt><trkpt lat="43.89435860094187" lon="12.351116366869586"><ele>589.0</ele><time>2026-04-04T13:40:04.001Z</time></trkpt><trkpt lat="43.89422411946879" lon="12.351195364654384"><ele>589.0</ele><time>2026-04-04T13:40:05.001Z</time></trkpt><trkpt lat="43.89408274370423" lon="12.351272770789446"><ele>589.0</ele><time>2026-04-04T13:40:06.001Z</time></trkpt><trkpt lat="43.89394279921855" lon="12.351340810336747"><ele>586.0</ele><time>2026-04-04T13:40:07.001Z</time></trkpt><trkpt lat="43.89379809172449" lon="12.35140606134698"><ele>583.0</ele><time>2026-04-04T13:40:08.001Z</time></trkpt><trkpt lat="43.893653550183885" lon="12.351471434555526"><ele>580.0</ele><time>2026-04-04T13:40:09.001Z</time></trkpt><trkpt lat="43.893506630031816" lon="12.351539857465031"><ele>582.6666666666667</ele><time>2026-04-04T13:40:10.001Z</time></trkpt><trkpt lat="43.893361466058515" lon="12.351607459546692"><ele>585.3333333333334</ele><time>2026-04-04T13:40:11.001Z</time></trkpt><trkpt lat="43.89321421978317" lon="12.351668374227618"><ele>588.0</ele><time>2026-04-04T13:40:12.001Z</time></trkpt><trkpt lat="43.89307022365224" lon="12.351732651736437"><ele>588.0</ele><time>2026-04-04T13:40:13.001Z</time></trkpt><trkpt lat="43.892923595692025" lon="12.351791290742588"><ele>588.0</ele><time>2026-04-04T13:40:14.001Z</time></trkpt><trkpt lat="43.89277064246152" lon="12.351823808669664"><ele>588.0</ele><time>2026-04-04T13:40:15.001Z</time></trkpt><trkpt lat="43.89261805750051" lon="12.351835473128888"><ele>587.6666666666666</ele><time>2026-04-04T13:40:16.001Z</time></trkpt><trkpt lat="43.8924625218239" lon="12.35184643347386"><ele>587.3333333333333</ele><time>2026-04-04T13:40:17.001Z</time></trkpt><trkpt lat="43.8923032515319" lon="12.351860475322322"><ele>587.0</ele><time>2026-04-04T13:40:18.001Z</time></trkpt><trkpt lat="43.89214450122922" lon="12.351874569058655"><ele>587.0</ele><time>2026-04-04T13:40:19.001Z</time></trkpt><trkpt lat="43.89198608296001" lon="12.351887139466204"><ele>587.0</ele><time>2026-04-04T13:40:20.001Z</time></trkpt><trkpt lat="43.891822108978744" lon="12.35190545888447"><ele>587.0</ele><time>2026-04-04T13:40:21.001Z</time></trkpt><trkpt lat="43.89165928577882" lon="12.351924761806638"><ele>588.3333333333333</ele><time>2026-04-04T13:40:22.001Z</time></trkpt><trkpt lat="43.891493860274416" lon="12.35194714105438"><ele>589.6666666666666</ele><time>2026-04-04T13:40:23.001Z</time></trkpt><trkpt lat="43.89132729755256" lon="12.351973087388672"><ele>591.0</ele><time>2026-04-04T13:40:24.001Z</time></trkpt><trkpt lat="43.891159264075846" lon="12.351997812383074"><ele>591.0</ele><time>2026-04-04T13:40:25.001Z</time></trkpt><trkpt lat="43.89099108681357" lon="12.352017790533782"><ele>591.0</ele><time>2026-04-04T13:40:26.001Z</time></trkpt><trkpt lat="43.89082407073468" lon="12.352033364259494"><ele>591.0</ele><time>2026-04-04T13:40:27.001Z</time></trkpt><trkpt lat="43.89065885890698" lon="12.35205044319005"><ele>592.0</ele><time>2026-04-04T13:40:28.001Z</time></trkpt><trkpt lat="43.89049555226715" lon="12.352070057853128"><ele>593.0</ele><time>2026-04-04T13:40:29.001Z</time></trkpt><trkpt lat="43.89033260020664" lon="12.352084327849642"><ele>594.0</ele><time>2026-04-04T13:40:30.001Z</time></trkpt><trkpt lat="43.89016905079262" lon="12.352094506902418"><ele>593.3333333333334</ele><time>2026-04-04T13:40:31.001Z</time></trkpt><trkpt lat="43.89000680728929" lon="12.352108400135036"><ele>592.6666666666667</ele><time>2026-04-04T13:40:32.001Z</time></trkpt><trkpt lat="43.88984548207612" lon="12.352128194124498"><ele>592.0</ele><time>2026-04-04T13:40:33.001Z</time></trkpt><trkpt lat="43.889683760646314" lon="12.352147046336725"><ele>592.0</ele><time>2026-04-04T13:40:34.001Z</time></trkpt><trkpt lat="43.88952412970992" lon="12.352156175122664"><ele>592.0</ele><time>2026-04-04T13:40:35.001Z</time></trkpt><trkpt lat="43.889365025322014" lon="12.352167000668155"><ele>592.0</ele><time>2026-04-04T13:40:36.001Z</time></trkpt><trkpt lat="43.889211718850895" lon="12.352197169861846"><ele>595.6666666666667</ele><time>2026-04-04T13:40:37.001Z</time></trkpt><trkpt lat="43.889063064750545" lon="12.352256519308145"><ele>599.3333333333334</ele><time>2026-04-04T13:40:38.001Z</time></trkpt><trkpt lat="43.888922064765325" lon="12.352335434536284"><ele>603.0</ele><time>2026-04-04T13:40:39.001Z</time></trkpt><trkpt lat="43.88878539777089" lon="12.352434949281097"><ele>603.0</ele><time>2026-04-04T13:40:40.001Z</time></trkpt><trkpt lat="43.88865212195976" lon="12.35254699134906"><ele>603.0</ele><time>2026-04-04T13:40:41.001Z</time></trkpt><trkpt lat="43.88852014111479" lon="12.352658312070623"><ele>603.0</ele><time>2026-04-04T13:40:42.001Z</time></trkpt><trkpt lat="43.888390785470484" lon="12.35277606868749"><ele>607.3333333333334</ele><time>2026-04-04T13:40:43.001Z</time></trkpt><trkpt lat="43.88825789679133" lon="12.352889289197376"><ele>611.6666666666667</ele><time>2026-04-04T13:40:44.001Z</time></trkpt><trkpt lat="43.888113679160796" lon="12.35296686017207"><ele>616.0</ele><time>2026-04-04T13:40:45.001Z</time></trkpt><trkpt lat="43.88796169513795" lon="12.353008880260552"><ele>616.0</ele><time>2026-04-04T13:40:46.001Z</time></trkpt><trkpt lat="43.88780863318387" lon="12.353019709780508"><ele>616.0</ele><time>2026-04-04T13:40:47.001Z</time></trkpt><trkpt lat="43.88765674501972" lon="12.352992511379645"><ele>616.0</ele><time>2026-04-04T13:40:48.001Z</time></trkpt><trkpt lat="43.887512630567244" lon="12.352927564725443"><ele>620.3333333333334</ele><time>2026-04-04T13:40:49.001Z</time></trkpt><trkpt lat="43.887370127335345" lon="12.352832562023709"><ele>624.6666666666666</ele><time>2026-04-04T13:40:50.001Z</time></trkpt><trkpt lat="43.88723415107863" lon="12.352724035521794"><ele>629.0</ele><time>2026-04-04T13:40:51.001Z</time></trkpt><trkpt lat="43.88709917617036" lon="12.35261825933074"><ele>629.0</ele><time>2026-04-04T13:40:52.001Z</time></trkpt><trkpt lat="43.88696166757615" lon="12.352507785790943"><ele>629.0</ele><time>2026-04-04T13:40:53.001Z</time></trkpt><trkpt lat="43.8868254282618" lon="12.352393824936183"><ele>629.0</ele><time>2026-04-04T13:40:54.001Z</time></trkpt><trkpt lat="43.886691325044936" lon="12.352278107211118"><ele>630.0</ele><time>2026-04-04T13:40:55.001Z</time></trkpt><trkpt lat="43.886551771389804" lon="12.352172797204503"><ele>631.0</ele><time>2026-04-04T13:40:56.001Z</time></trkpt><trkpt lat="43.886406850060354" lon="12.352065957705388"><ele>632.0</ele><time>2026-04-04T13:40:57.001Z</time></trkpt><trkpt lat="43.886261757110326" lon="12.351955491228292"><ele>632.0</ele><time>2026-04-04T13:40:58.001Z</time></trkpt><trkpt lat="43.88612875651844" lon="12.351842059293421"><ele>632.0</ele><time>2026-04-04T13:40:59.001Z</time></trkpt><trkpt lat="43.8859923807234" lon="12.351740241308246"><ele>632.0</ele><time>2026-04-04T13:41:00.001Z</time></trkpt><trkpt lat="43.88584169065253" lon="12.351671874209247"><ele>636.0</ele><time>2026-04-04T13:41:01.001Z</time></trkpt><trkpt lat="43.885686949527795" lon="12.351637247529936"><ele>640.0</ele><time>2026-04-04T13:41:02.001Z</time></trkpt><trkpt lat="43.88552761425373" lon="12.351632181993363"><ele>644.0</ele><time>2026-04-04T13:41:03.001Z</time></trkpt><trkpt lat="43.88537091993604" lon="12.351657328710646"><ele>644.0</ele><time>2026-04-04T13:41:04.001Z</time></trkpt><trkpt lat="43.88521696847728" lon="12.351708467557843"><ele>644.0</ele><time>2026-04-04T13:41:05.001Z</time></trkpt><trkpt lat="43.88506405003713" lon="12.351770924386424"><ele>644.0</ele><time>2026-04-04T13:41:06.001Z</time></trkpt><trkpt lat="43.88491063025481" lon="12.351834766666451"><ele>647.0</ele><time>2026-04-04T13:41:07.001Z</time></trkpt><trkpt lat="43.88475801024557" lon="12.351901869378885"><ele>650.0</ele><time>2026-04-04T13:41:08.001Z</time></trkpt><trkpt lat="43.884604906967674" lon="12.351968035457144"><ele>653.0</ele><time>2026-04-04T13:41:09.001Z</time></trkpt><trkpt lat="43.88445815769865" lon="12.352050494993883"><ele>653.0</ele><time>2026-04-04T13:41:10.001Z</time></trkpt><trkpt lat="43.884326879490374" lon="12.352168722785434"><ele>653.0</ele><time>2026-04-04T13:41:11.001Z</time></trkpt><trkpt lat="43.884217284174376" lon="12.352323055164051"><ele>653.0</ele><time>2026-04-04T13:41:12.001Z</time></trkpt><trkpt lat="43.88412962554462" lon="12.352502952233724"><ele>656.0</ele><time>2026-04-04T13:41:13.001Z</time></trkpt><trkpt lat="43.88406645265467" lon="12.352700508991703"><ele>659.0</ele><time>2026-04-04T13:41:14.001Z</time></trkpt><trkpt lat="43.88401327688177" lon="12.352903346826961"><ele>662.0</ele><time>2026-04-04T13:41:15.001Z</time></trkpt><trkpt lat="43.88400221460987" lon="12.353121893180802"><ele>662.6666666666666</ele><time>2026-04-04T13:41:16.001Z</time></trkpt><trkpt lat="43.884014043130215" lon="12.353336537374174"><ele>663.3333333333334</ele><time>2026-04-04T13:41:17.001Z</time></trkpt><trkpt lat="43.88403633967063" lon="12.353548669831124"><ele>664.0</ele><time>2026-04-04T13:41:18.001Z</time></trkpt><trkpt lat="43.884059353440485" lon="12.353750785377274"><ele>664.5</ele><time>2026-04-04T13:41:19.001Z</time></trkpt><trkpt lat="43.88406633509952" lon="12.353927666812151"><ele>665.0</ele><time>2026-04-04T13:41:20.001Z</time></trkpt><trkpt lat="43.88404211314459" lon="12.354060422123082"><ele>665.5</ele><time>2026-04-04T13:41:21.001Z</time></trkpt><trkpt lat="43.8839990940767" lon="12.35420023846823"><ele>666.0</ele><time>2026-04-04T13:41:22.001Z</time></trkpt><trkpt lat="43.883905906209" lon="12.354317250185893"><ele>666.0</ele><time>2026-04-04T13:41:23.001Z</time></trkpt><trkpt lat="43.883796427215515" lon="12.354425504679366"><ele>666.0</ele><time>2026-04-04T13:41:24.001Z</time></trkpt><trkpt lat="43.88368339901939" lon="12.354533875971823"><ele>666.0</ele><time>2026-04-04T13:41:25.001Z</time></trkpt><trkpt lat="43.8835607471093" lon="12.354635024858087"><ele>666.0</ele><time>2026-04-04T13:41:26.001Z</time></trkpt><trkpt lat="43.88345200549285" lon="12.354754032150229"><ele>670.25</ele><time>2026-04-04T13:41:27.001Z</time></trkpt><trkpt lat="43.88337725674158" lon="12.354903694425072"><ele>674.5</ele><time>2026-04-04T13:41:28.001Z</time></trkpt><trkpt lat="43.88330797937936" lon="12.355073045899077"><ele>678.75</ele><time>2026-04-04T13:41:29.001Z</time></trkpt><trkpt lat="43.88330550432178" lon="12.355273198505122"><ele>683.0</ele><time>2026-04-04T13:41:30.001Z</time></trkpt><trkpt lat="43.88328854373285" lon="12.355469398237425"><ele>682.75</ele><time>2026-04-04T13:41:31.001Z</time></trkpt><trkpt lat="43.883279613259596" lon="12.355658960713868"><ele>682.5</ele><time>2026-04-04T13:41:32.001Z</time></trkpt><trkpt lat="43.88324009102381" lon="12.355841653317968"><ele>682.25</ele><time>2026-04-04T13:41:33.002Z</time></trkpt><trkpt lat="43.883176267161566" lon="12.355997705931062"><ele>682.0</ele><time>2026-04-04T13:41:34.002Z</time></trkpt><trkpt lat="43.88307766619942" lon="12.356133635194562"><ele>682.0</ele><time>2026-04-04T13:41:35.002Z</time></trkpt><trkpt lat="43.882987839663116" lon="12.35627436307706"><ele>682.0</ele><time>2026-04-04T13:41:36.002Z</time></trkpt><trkpt lat="43.88287793312608" lon="12.356392108355971"><ele>682.0</ele><time>2026-04-04T13:41:37.002Z</time></trkpt><trkpt lat="43.8827734478878" lon="12.356518029500698"><ele>682.0</ele><time>2026-04-04T13:41:38.002Z</time></trkpt><trkpt lat="43.88267068232868" lon="12.356634528210877"><ele>684.75</ele><time>2026-04-04T13:41:39.002Z</time></trkpt><trkpt lat="43.88256268016533" lon="12.356717750330814"><ele>687.5</ele><time>2026-04-04T13:41:40.002Z</time></trkpt><trkpt lat="43.88243575788764" lon="12.356765996507864"><ele>690.25</ele><time>2026-04-04T13:41:41Z</time></trkpt><trkpt lat="43.882300288045144" lon="12.356790165069835"><ele>693.0</ele><time>2026-04-04T13:41:42Z</time></trkpt><trkpt lat="43.88216181454817" lon="12.356809690649873"><ele>693.0</ele><time>2026-04-04T13:41:43Z</time></trkpt><trkpt lat="43.88202078012455" lon="12.356826868735833"><ele>693.0</ele><time>2026-04-04T13:41:44Z</time></trkpt><trkpt lat="43.88186818996439" lon="12.356845478373542"><ele>693.0</ele><time>2026-04-04T13:41:45Z</time></trkpt><trkpt lat="43.881728219022825" lon="12.35687592230523"><ele>693.0</ele><time>2026-04-04T13:41:46Z</time></trkpt><trkpt lat="43.88158375292344" lon="12.356891082540908"><ele>696.3333333333334</ele><time>2026-04-04T13:41:47Z</time></trkpt><trkpt lat="43.88143629704883" lon="12.356857387603686"><ele>699.6666666666667</ele><time>2026-04-04T13:41:48Z</time></trkpt><trkpt lat="43.88129434490713" lon="12.356785038077488"><ele>703.0</ele><time>2026-04-04T13:41:49Z</time></trkpt><trkpt lat="43.88115922931074" lon="12.356678437151873"><ele>703.0</ele><time>2026-04-04T13:41:50Z</time></trkpt><trkpt lat="43.88101940287705" lon="12.35657219753829"><ele>703.0</ele><time>2026-04-04T13:41:51Z</time></trkpt><trkpt lat="43.88087326642254" lon="12.356477580546256"><ele>703.0</ele><time>2026-04-04T13:41:52Z</time></trkpt><trkpt lat="43.880717829669145" lon="12.356413175748848"><ele>703.0</ele><time>2026-04-04T13:41:53Z</time></trkpt><trkpt lat="43.88055666567549" lon="12.356397042897454"><ele>703.0</ele><time>2026-04-04T13:41:54Z</time></trkpt><trkpt lat="43.88039606901779" lon="12.356409399438355"><ele>703.0</ele><time>2026-04-04T13:41:55Z</time></trkpt><trkpt lat="43.880236057347375" lon="12.356404351553113"><ele>709.0</ele><time>2026-04-04T13:41:56Z</time></trkpt><trkpt lat="43.880085295612076" lon="12.356353379483105"><ele>715.0</ele><time>2026-04-04T13:41:57Z</time></trkpt><trkpt lat="43.87994881825989" lon="12.35625927143759"><ele>721.0</ele><time>2026-04-04T13:41:58Z</time></trkpt><trkpt lat="43.87983107087732" lon="12.356121465497557"><ele>721.0</ele><time>2026-04-04T13:41:59Z</time></trkpt><trkpt lat="43.87972449171079" lon="12.355962144509105"><ele>721.0</ele><time>2026-04-04T13:42:00Z</time></trkpt><trkpt lat="43.87961496080643" lon="12.355806388697546"><ele>721.0</ele><time>2026-04-04T13:42:01Z</time></trkpt><trkpt lat="43.87949776080014" lon="12.355673573810929"><ele>721.0</ele><time>2026-04-04T13:42:02Z</time></trkpt><trkpt lat="43.87936574099016" lon="12.355579055172255"><ele>721.0</ele><time>2026-04-04T13:42:03Z</time></trkpt><trkpt lat="43.87921752247157" lon="12.35552637766521"><ele>721.0</ele><time>2026-04-04T13:42:04Z</time></trkpt><trkpt lat="43.87906614765993" lon="12.355517391302719"><ele>719.6666666666667</ele><time>2026-04-04T13:42:05Z</time></trkpt><trkpt lat="43.8789138275282" lon="12.355546854981657"><ele>718.3333333333334</ele><time>2026-04-04T13:42:06Z</time></trkpt><trkpt lat="43.87876130800222" lon="12.355599022022256"><ele>717.0</ele><time>2026-04-04T13:42:07Z</time></trkpt><trkpt lat="43.87860697036641" lon="12.355662145585969"><ele>717.0</ele><time>2026-04-04T13:42:08Z</time></trkpt><trkpt lat="43.87844896914986" lon="12.35573916896256"><ele>717.0</ele><time>2026-04-04T13:42:09Z</time></trkpt><trkpt lat="43.87829507432494" lon="12.355836488284483"><ele>717.0</ele><time>2026-04-04T13:42:10Z</time></trkpt><trkpt lat="43.87814361444323" lon="12.355952771219782"><ele>719.3333333333334</ele><time>2026-04-04T13:42:11Z</time></trkpt><trkpt lat="43.8779988339518" lon="12.356082927496223"><ele>721.6666666666667</ele><time>2026-04-04T13:42:12Z</time></trkpt><trkpt lat="43.87785762950555" lon="12.356221229182507"><ele>724.0</ele><time>2026-04-04T13:42:13Z</time></trkpt><trkpt lat="43.877715079991155" lon="12.356356967700037"><ele>726.3333333333334</ele><time>2026-04-04T13:42:14Z</time></trkpt><trkpt lat="43.87756819743617" lon="12.356499834208421"><ele>728.6666666666666</ele><time>2026-04-04T13:42:15Z</time></trkpt><trkpt lat="43.87742159985309" lon="12.356640092646156"><ele>731.0</ele><time>2026-04-04T13:42:16Z</time></trkpt><trkpt lat="43.87727356972806" lon="12.356785152392112"><ele>731.0</ele><time>2026-04-04T13:42:17.001Z</time></trkpt><trkpt lat="43.87711999573181" lon="12.356922835908609"><ele>731.0</ele><time>2026-04-04T13:42:18.001Z</time></trkpt><trkpt lat="43.87697328014406" lon="12.357068261970305"><ele>731.0</ele><time>2026-04-04T13:42:19.001Z</time></trkpt><trkpt lat="43.87684463462644" lon="12.357241097335608"><ele>734.0</ele><time>2026-04-04T13:42:20.001Z</time></trkpt><trkpt lat="43.8767489912867" lon="12.357447824846114"><ele>737.0</ele><time>2026-04-04T13:42:21.001Z</time></trkpt><trkpt lat="43.87668249316987" lon="12.35767891771146"><ele>740.0</ele><time>2026-04-04T13:42:22.001Z</time></trkpt><trkpt lat="43.87664461557965" lon="12.357923374404898"><ele>741.6666666666666</ele><time>2026-04-04T13:42:23.001Z</time></trkpt><trkpt lat="43.87663457286785" lon="12.358178662953827"><ele>743.3333333333334</ele><time>2026-04-04T13:42:24.001Z</time></trkpt><trkpt lat="43.876621931683005" lon="12.358437877997753"><ele>745.0</ele><time>2026-04-04T13:42:25.001Z</time></trkpt><trkpt lat="43.876623888473034" lon="12.358700902825008"><ele>746.6666666666667</ele><time>2026-04-04T13:42:26.001Z</time></trkpt><trkpt lat="43.87662559935827" lon="12.358956809373632"><ele>748.3333333333334</ele><time>2026-04-04T13:42:27.001Z</time></trkpt><trkpt lat="43.87662492491142" lon="12.359202009593172"><ele>750.0</ele><time>2026-04-04T13:42:28.001Z</time></trkpt><trkpt lat="43.876618836667724" lon="12.359434683114983"><ele>750.0</ele><time>2026-04-04T13:42:29.001Z</time></trkpt><trkpt lat="43.8765816371884" lon="12.359646736014609"><ele>750.0</ele><time>2026-04-04T13:42:30.001Z</time></trkpt><trkpt lat="43.87651387750023" lon="12.359843589018427"><ele>750.0</ele><time>2026-04-04T13:42:31.001Z</time></trkpt><trkpt lat="43.876425290764324" lon="12.360006292882584"><ele>752.6666666666666</ele><time>2026-04-04T13:42:32.001Z</time></trkpt><trkpt lat="43.87638115250138" lon="12.360160629335232"><ele>755.3333333333333</ele><time>2026-04-04T13:42:33.001Z</time></trkpt><trkpt lat="43.87609629892671" lon="12.360161043088205"><ele>758.0</ele><time>2026-04-04T13:42:34.001Z</time></trkpt><trkpt lat="43.87592757867657" lon="12.360215272104343"><ele>759.3333333333333</ele><time>2026-04-04T13:42:35.001Z</time></trkpt><trkpt lat="43.87576102486037" lon="12.360278928748942"><ele>760.6666666666666</ele><time>2026-04-04T13:42:36.001Z</time></trkpt><trkpt lat="43.875599856672146" lon="12.36034309043784"><ele>762.0</ele><time>2026-04-04T13:42:37.001Z</time></trkpt><trkpt lat="43.87544095268025" lon="12.360408266640425"><ele>762.0</ele><time>2026-04-04T13:42:38.001Z</time></trkpt><trkpt lat="43.87528444292229" lon="12.36046716167399"><ele>762.0</ele><time>2026-04-04T13:42:39.001Z</time></trkpt><trkpt lat="43.87512767323724" lon="12.360500332648881"><ele>762.0</ele><time>2026-04-04T13:42:40.001Z</time></trkpt><trkpt lat="43.87497852370972" lon="12.360485727860105"><ele>767.3333333333333</ele><time>2026-04-04T13:42:41.001Z</time></trkpt><trkpt lat="43.87483646735291" lon="12.360426618447018"><ele>772.6666666666666</ele><time>2026-04-04T13:42:42.001Z</time></trkpt><trkpt lat="43.874696279623834" lon="12.36033616969196"><ele>778.0</ele><time>2026-04-04T13:42:43.001Z</time></trkpt><trkpt lat="43.87455767090026" lon="12.360245936603182"><ele>778.0</ele><time>2026-04-04T13:42:44.001Z</time></trkpt><trkpt lat="43.87441073056272" lon="12.360153307656812"><ele>778.0</ele><time>2026-04-04T13:42:45.001Z</time></trkpt><trkpt lat="43.87426873006279" lon="12.360059192618975"><ele>778.0</ele><time>2026-04-04T13:42:46.001Z</time></trkpt><trkpt lat="43.87413072021473" lon="12.359963771035295"><ele>778.0</ele><time>2026-04-04T13:42:47.001Z</time></trkpt><trkpt lat="43.87400699836001" lon="12.359845963337177"><ele>778.0</ele><time>2026-04-04T13:42:48.001Z</time></trkpt><trkpt lat="43.87390429190698" lon="12.359703795741694"><ele>778.0</ele><time>2026-04-04T13:42:49.001Z</time></trkpt><trkpt lat="43.873832662966" lon="12.359536312954516"><ele>778.0</ele><time>2026-04-04T13:42:50.001Z</time></trkpt><trkpt lat="43.87379551037835" lon="12.35935802683115"><ele>780.0</ele><time>2026-04-04T13:42:51.001Z</time></trkpt><trkpt lat="43.87377753685961" lon="12.35917102467895"><ele>782.0</ele><time>2026-04-04T13:42:52.001Z</time></trkpt><trkpt lat="43.87376283018788" lon="12.358979542253717"><ele>784.0</ele><time>2026-04-04T13:42:53.001Z</time></trkpt><trkpt lat="43.87374595184488" lon="12.358788533134616"><ele>786.0</ele><time>2026-04-04T13:42:54.001Z</time></trkpt><trkpt lat="43.87371979959384" lon="12.358597520547168"><ele>786.25</ele><time>2026-04-04T13:42:55.001Z</time></trkpt><trkpt lat="43.873686665229414" lon="12.358405703461111"><ele>786.5</ele><time>2026-04-04T13:42:56.001Z</time></trkpt><trkpt lat="43.87363877362287" lon="12.358220292118611"><ele>786.75</ele><time>2026-04-04T13:42:57.001Z</time></trkpt><trkpt lat="43.87358738655272" lon="12.358052238448156"><ele>787.0</ele><time>2026-04-04T13:42:58.001Z</time></trkpt><trkpt lat="43.87355151040229" lon="12.357903239960642"><ele>786.3333333333333</ele><time>2026-04-04T13:42:59.001Z</time></trkpt><trkpt lat="43.87354163848376" lon="12.357772191616522"><ele>785.6666666666666</ele><time>2026-04-04T13:43:00.001Z</time></trkpt><trkpt lat="43.87353011741561" lon="12.357663330072851"><ele>785.0</ele><time>2026-04-04T13:43:01.001Z</time></trkpt><trkpt lat="43.873507358599774" lon="12.35757462489717"><ele>784.3333333333333</ele><time>2026-04-04T13:43:02.001Z</time></trkpt><trkpt lat="43.87344678193513" lon="12.357484566733156"><ele>783.6666666666666</ele><time>2026-04-04T13:43:05.001Z</time></trkpt><trkpt lat="43.8733377575597" lon="12.35747853801334"><ele>783.0</ele><time>2026-04-04T13:43:07.001Z</time></trkpt><trkpt lat="43.873271798951734" lon="12.357483419314478"><ele>784.3333333333334</ele><time>2026-04-04T13:43:08.001Z</time></trkpt><trkpt lat="43.87319961135489" lon="12.357473405258181"><ele>785.6666666666667</ele><time>2026-04-04T13:43:09.001Z</time></trkpt><trkpt lat="43.8731226425393" lon="12.357443772821249"><ele>787.0</ele><time>2026-04-04T13:43:10.001Z</time></trkpt><trkpt lat="43.87303914056592" lon="12.35740613409802"><ele>788.3333333333334</ele><time>2026-04-04T13:43:11.001Z</time></trkpt><trkpt lat="43.872954937673875" lon="12.357355799049152"><ele>789.6666666666667</ele><time>2026-04-04T13:43:12.001Z</time></trkpt><trkpt lat="43.87286171029816" lon="12.357302082427646"><ele>791.0</ele><time>2026-04-04T13:43:13.001Z</time></trkpt><trkpt lat="43.87275941766309" lon="12.35724914882864"><ele>791.25</ele><time>2026-04-04T13:43:14.001Z</time></trkpt><trkpt lat="43.87265836174047" lon="12.357189899938025"><ele>791.5</ele><time>2026-04-04T13:43:15.001Z</time></trkpt><trkpt lat="43.87255611774144" lon="12.357126107972364"><ele>791.75</ele><time>2026-04-04T13:43:16.001Z</time></trkpt><trkpt lat="43.87245028891753" lon="12.357059759008717"><ele>792.0</ele><time>2026-04-04T13:43:17.001Z</time></trkpt><trkpt lat="43.87234303734707" lon="12.356992320524236"><ele>791.5</ele><time>2026-04-04T13:43:18.001Z</time></trkpt><trkpt lat="43.872232933144055" lon="12.35692438077127"><ele>791.0</ele><time>2026-04-04T13:43:19.001Z</time></trkpt><trkpt lat="43.87211864603072" lon="12.356865560618422"><ele>790.5</ele><time>2026-04-04T13:43:20.001Z</time></trkpt><trkpt lat="43.87199784602515" lon="12.35682699999018"><ele>790.0</ele><time>2026-04-04T13:43:21.001Z</time></trkpt><trkpt lat="43.871874832836916" lon="12.356816160094798"><ele>791.5</ele><time>2026-04-04T13:43:22.001Z</time></trkpt><trkpt lat="43.87175378399047" lon="12.356835688668983"><ele>793.0</ele><time>2026-04-04T13:43:23.001Z</time></trkpt><trkpt lat="43.87163001977122" lon="12.356871804692359"><ele>794.5</ele><time>2026-04-04T13:43:24.001Z</time></trkpt><trkpt lat="43.871506699176365" lon="12.356918629068776"><ele>796.0</ele><time>2026-04-04T13:43:25.001Z</time></trkpt><trkpt lat="43.871384170429685" lon="12.356975802822937"><ele>796.0</ele><time>2026-04-04T13:43:26.001Z</time></trkpt><trkpt lat="43.87126326723917" lon="12.357044346171625"><ele>796.0</ele><time>2026-04-04T13:43:27.001Z</time></trkpt><trkpt lat="43.871154516499416" lon="12.357139898824073"><ele>796.0</ele><time>2026-04-04T13:43:28.001Z</time></trkpt><trkpt lat="43.87105839287731" lon="12.357260847110066"><ele>796.0</ele><time>2026-04-04T13:43:29.001Z</time></trkpt><trkpt lat="43.87097616498783" lon="12.357407011814205"><ele>797.5</ele><time>2026-04-04T13:43:30.001Z</time></trkpt><trkpt lat="43.870920135366674" lon="12.357576362047539"><ele>799.0</ele><time>2026-04-04T13:43:31.001Z</time></trkpt><trkpt lat="43.87087819076145" lon="12.357754705400765"><ele>800.5</ele><time>2026-04-04T13:43:32.001Z</time></trkpt><trkpt lat="43.8708389545625" lon="12.357932186581131"><ele>802.0</ele><time>2026-04-04T13:43:33.001Z</time></trkpt><trkpt lat="43.87078868891109" lon="12.358090634723196"><ele>802.0</ele><time>2026-04-04T13:43:34.001Z</time></trkpt><trkpt lat="43.8707175841658" lon="12.358226971915432"><ele>802.0</ele><time>2026-04-04T13:43:35.001Z</time></trkpt><trkpt lat="43.87061512608041" lon="12.358319955569469"><ele>802.0</ele><time>2026-04-04T13:43:36.001Z</time></trkpt><trkpt lat="43.87048966927458" lon="12.358358889290475"><ele>802.0</ele><time>2026-04-04T13:43:37.001Z</time></trkpt><trkpt lat="43.87036158321246" lon="12.35834731145753"><ele>802.0</ele><time>2026-04-04T13:43:38.001Z</time></trkpt><trkpt lat="43.87023830660039" lon="12.358281077277681"><ele>802.0</ele><time>2026-04-04T13:43:39.001Z</time></trkpt><trkpt lat="43.87011919487061" lon="12.358171927965703"><ele>802.0</ele><time>2026-04-04T13:43:40.001Z</time></trkpt><trkpt lat="43.870000495836884" lon="12.358030602649189"><ele>802.0</ele><time>2026-04-04T13:43:41.001Z</time></trkpt><trkpt lat="43.8698849582334" lon="12.357884446294479"><ele>805.6666666666666</ele><time>2026-04-04T13:43:42.001Z</time></trkpt><trkpt lat="43.86977105276755" lon="12.357734803013088"><ele>809.3333333333333</ele><time>2026-04-04T13:43:43.001Z</time></trkpt><trkpt lat="43.86965832608327" lon="12.35758244072703"><ele>813.0</ele><time>2026-04-04T13:43:44.001Z</time></trkpt><trkpt lat="43.869545594014696" lon="12.357446266515499"><ele>813.0</ele><time>2026-04-04T13:43:45.001Z</time></trkpt><trkpt lat="43.86943165989484" lon="12.357324327568564"><ele>813.0</ele><time>2026-04-04T13:43:46.001Z</time></trkpt><trkpt lat="43.86930949990604" lon="12.357225634504731"><ele>813.0</ele><time>2026-04-04T13:43:47Z</time></trkpt><trkpt lat="43.86918473172174" lon="12.35714672548669"><ele>813.0</ele><time>2026-04-04T13:43:48Z</time></trkpt><trkpt lat="43.86905200820387" lon="12.357091187058147"><ele>816.5</ele><time>2026-04-04T13:43:49Z</time></trkpt><trkpt lat="43.868916882730076" lon="12.357050888750349"><ele>820.0</ele><time>2026-04-04T13:43:50Z</time></trkpt><trkpt lat="43.868779240242894" lon="12.357017791475416"><ele>823.5</ele><time>2026-04-04T13:43:51Z</time></trkpt><trkpt lat="43.86864405979248" lon="12.356980759735885"><ele>827.0</ele><time>2026-04-04T13:43:52Z</time></trkpt><trkpt lat="43.86851171351172" lon="12.35694256841386"><ele>828.0</ele><time>2026-04-04T13:43:53Z</time></trkpt><trkpt lat="43.86837797460722" lon="12.356907706856266"><ele>829.0</ele><time>2026-04-04T13:43:54Z</time></trkpt><trkpt lat="43.86826917796124" lon="12.356846843640806"><ele>830.0</ele><time>2026-04-04T13:43:55Z</time></trkpt><trkpt lat="43.86817427850661" lon="12.356733607091556"><ele>831.0</ele><time>2026-04-04T13:43:56Z</time></trkpt><trkpt lat="43.86808906227549" lon="12.356591841931738"><ele>831.0</ele><time>2026-04-04T13:43:57Z</time></trkpt><trkpt lat="43.868021038403505" lon="12.356432260808365"><ele>831.0</ele><time>2026-04-04T13:43:58Z</time></trkpt><trkpt lat="43.86797753721239" lon="12.35625840819314"><ele>831.0</ele><time>2026-04-04T13:43:59Z</time></trkpt><trkpt lat="43.86795232463434" lon="12.356070797214171"><ele>831.0</ele><time>2026-04-04T13:44:00Z</time></trkpt><trkpt lat="43.86793790241914" lon="12.355888750360851"><ele>833.75</ele><time>2026-04-04T13:44:01Z</time></trkpt><trkpt lat="43.86791458941212" lon="12.355701270949046"><ele>836.5</ele><time>2026-04-04T13:44:02Z</time></trkpt><trkpt lat="43.86788155164499" lon="12.355514798967537"><ele>839.25</ele><time>2026-04-04T13:44:03Z</time></trkpt><trkpt lat="43.86783354148194" lon="12.355333254953566"><ele>842.0</ele><time>2026-04-04T13:44:04Z</time></trkpt><trkpt lat="43.86776693843439" lon="12.355162285903338"><ele>842.25</ele><time>2026-04-04T13:44:05Z</time></trkpt><trkpt lat="43.867684875730134" lon="12.355005620982707"><ele>842.5</ele><time>2026-04-04T13:44:06Z</time></trkpt><trkpt lat="43.86759257385623" lon="12.35485871576926"><ele>842.75</ele><time>2026-04-04T13:44:07Z</time></trkpt><trkpt lat="43.86749110208327" lon="12.354721447985888"><ele>843.0</ele><time>2026-04-04T13:44:08Z</time></trkpt><trkpt lat="43.86738777735272" lon="12.354585402988778"><ele>843.0</ele><time>2026-04-04T13:44:09Z</time></trkpt><trkpt lat="43.86728956357538" lon="12.35444125134594"><ele>843.0</ele><time>2026-04-04T13:44:10Z</time></trkpt><trkpt lat="43.86720149096637" lon="12.354289293261111"><ele>843.0</ele><time>2026-04-04T13:44:11Z</time></trkpt><trkpt lat="43.8671098008899" lon="12.3541300404665"><ele>843.0</ele><time>2026-04-04T13:44:12Z</time></trkpt><trkpt lat="43.86702026634013" lon="12.353958312745181"><ele>843.6666666666667</ele><time>2026-04-04T13:44:13Z</time></trkpt><trkpt lat="43.86693095006794" lon="12.353786384726437"><ele>844.3333333333334</ele><time>2026-04-04T13:44:14Z</time></trkpt><trkpt lat="43.86683262215197" lon="12.353624344180382"><ele>845.0</ele><time>2026-04-04T13:44:15Z</time></trkpt><trkpt lat="43.866732425916574" lon="12.353466536710101"><ele>845.0</ele><time>2026-04-04T13:44:16Z</time></trkpt><trkpt lat="43.86663069031302" lon="12.353317577666289"><ele>845.0</ele><time>2026-04-04T13:44:17Z</time></trkpt><trkpt lat="43.86652310151574" lon="12.353166294545892"><ele>845.0</ele><time>2026-04-04T13:44:18Z</time></trkpt><trkpt lat="43.86641646721171" lon="12.353016994403246"><ele>844.25</ele><time>2026-04-04T13:44:19Z</time></trkpt><trkpt lat="43.86631325760521" lon="12.35286867078247"><ele>843.5</ele><time>2026-04-04T13:44:20Z</time></trkpt><trkpt lat="43.86621021805797" lon="12.352720789434972"><ele>842.75</ele><time>2026-04-04T13:44:21Z</time></trkpt><trkpt lat="43.86608981580949" lon="12.352597884771392"><ele>842.0</ele><time>2026-04-04T13:44:22Z</time></trkpt><trkpt lat="43.86595369161145" lon="12.352508690745058"><ele>846.0</ele><time>2026-04-04T13:44:23Z</time></trkpt><trkpt lat="43.865807939143544" lon="12.352446838966806"><ele>850.0</ele><time>2026-04-04T13:44:24Z</time></trkpt><trkpt lat="43.86565696995858" lon="12.352397045791324"><ele>854.0</ele><time>2026-04-04T13:44:25Z</time></trkpt><trkpt lat="43.865507377928594" lon="12.352332818839024"><ele>854.0</ele><time>2026-04-04T13:44:26Z</time></trkpt><trkpt lat="43.86535663318922" lon="12.352267547608617"><ele>854.0</ele><time>2026-04-04T13:44:27Z</time></trkpt><trkpt lat="43.865206498647176" lon="12.352205842856542"><ele>854.0</ele><time>2026-04-04T13:44:28Z</time></trkpt><trkpt lat="43.86505648490242" lon="12.352132272676393"><ele>857.6666666666667</ele><time>2026-04-04T13:44:29Z</time></trkpt><trkpt lat="43.86491534016705" lon="12.35203465537962"><ele>861.3333333333333</ele><time>2026-04-04T13:44:30Z</time></trkpt><trkpt lat="43.86478635468076" lon="12.351910578661697"><ele>865.0</ele><time>2026-04-04T13:44:31Z</time></trkpt><trkpt lat="43.86467392154975" lon="12.351758233722375"><ele>865.0</ele><time>2026-04-04T13:44:32Z</time></trkpt><trkpt lat="43.86457413957117" lon="12.351587418927846"><ele>865.0</ele><time>2026-04-04T13:44:33Z</time></trkpt><trkpt lat="43.864469912378375" lon="12.35141311746679"><ele>865.0</ele><time>2026-04-04T13:44:34Z</time></trkpt><trkpt lat="43.86435631080225" lon="12.351241052156102"><ele>866.6666666666666</ele><time>2026-04-04T13:44:35Z</time></trkpt><trkpt lat="43.86424714917685" lon="12.35106846993591"><ele>868.3333333333333</ele><time>2026-04-04T13:44:36Z</time></trkpt><trkpt lat="43.864133091688494" lon="12.35089992854072"><ele>870.0</ele><time>2026-04-04T13:44:37Z</time></trkpt><trkpt lat="43.8640143918868" lon="12.350742381380645"><ele>870.0</ele><time>2026-04-04T13:44:38Z</time></trkpt><trkpt lat="43.863888022295576" lon="12.350594774779392"><ele>870.0</ele><time>2026-04-04T13:44:39Z</time></trkpt><trkpt lat="43.86376106079573" lon="12.350451551389668"><ele>870.0</ele><time>2026-04-04T13:44:40Z</time></trkpt><trkpt lat="43.86363869388805" lon="12.350309381032105"><ele>872.3333333333333</ele><time>2026-04-04T13:44:41Z</time></trkpt><trkpt lat="43.86351969196011" lon="12.350162423593712"><ele>874.6666666666666</ele><time>2026-04-04T13:44:42.001Z</time></trkpt><trkpt lat="43.86339904598568" lon="12.350024967521744"><ele>877.0</ele><time>2026-04-04T13:44:43.001Z</time></trkpt><trkpt lat="43.86327455922159" lon="12.349908963387744"><ele>877.0</ele><time>2026-04-04T13:44:44.001Z</time></trkpt><trkpt lat="43.8631362862738" lon="12.3498297321089"><ele>877.0</ele><time>2026-04-04T13:44:45.001Z</time></trkpt><trkpt lat="43.862985907355345" lon="12.349812398098743"><ele>877.0</ele><time>2026-04-04T13:44:46.001Z</time></trkpt><trkpt lat="43.86283148289001" lon="12.349837081491215"><ele>877.0</ele><time>2026-04-04T13:44:47.001Z</time></trkpt><trkpt lat="43.862680344573825" lon="12.34989127881463"><ele>877.0</ele><time>2026-04-04T13:44:48.001Z</time></trkpt><trkpt lat="43.862534635496765" lon="12.349962022267356"><ele>877.0</ele><time>2026-04-04T13:44:49.001Z</time></trkpt><trkpt lat="43.86239416891988" lon="12.350062020722763"><ele>877.0</ele><time>2026-04-04T13:44:50.001Z</time></trkpt><trkpt lat="43.862252652413254" lon="12.350163909182683"><ele>877.0</ele><time>2026-04-04T13:44:51.001Z</time></trkpt><trkpt lat="43.86213883783372" lon="12.35031009714033"><ele>877.0</ele><time>2026-04-04T13:44:52.001Z</time></trkpt><trkpt lat="43.86204101831644" lon="12.35046945793085"><ele>876.25</ele><time>2026-04-04T13:44:53.001Z</time></trkpt><trkpt lat="43.861945887525856" lon="12.35062766095019"><ele>875.5</ele><time>2026-04-04T13:44:54.001Z</time></trkpt><trkpt lat="43.86186318900758" lon="12.35076937824865"><ele>874.75</ele><time>2026-04-04T13:44:55.001Z</time></trkpt><trkpt lat="43.86175151389039" lon="12.350817277765529"><ele>874.0</ele><time>2026-04-04T13:44:56.001Z</time></trkpt><trkpt lat="43.86163516134552" lon="12.35078422674838"><ele>874.0</ele><time>2026-04-04T13:44:57.001Z</time></trkpt><trkpt lat="43.861533522289925" lon="12.35069294729729"><ele>874.0</ele><time>2026-04-04T13:44:58.001Z</time></trkpt><trkpt lat="43.86143434572374" lon="12.35058093247913"><ele>874.0</ele><time>2026-04-04T13:44:59.001Z</time></trkpt><trkpt lat="43.86132587069038" lon="12.35048351918276"><ele>874.0</ele><time>2026-04-04T13:45:00.001Z</time></trkpt><trkpt lat="43.861213682824115" lon="12.350378196781385"><ele>877.5</ele><time>2026-04-04T13:45:01.001Z</time></trkpt><trkpt lat="43.86109437007679" lon="12.350281864400838"><ele>881.0</ele><time>2026-04-04T13:45:02.001Z</time></trkpt><trkpt lat="43.86096154736566" lon="12.350220854680824"><ele>884.5</ele><time>2026-04-04T13:45:03.001Z</time></trkpt><trkpt lat="43.860825340138796" lon="12.350177333708425"><ele>888.0</ele><time>2026-04-04T13:45:04.001Z</time></trkpt><trkpt lat="43.86068742667422" lon="12.350148921772172"><ele>888.5</ele><time>2026-04-04T13:45:05.001Z</time></trkpt><trkpt lat="43.860549405520686" lon="12.350120135192455"><ele>889.0</ele><time>2026-04-04T13:45:06.001Z</time></trkpt><trkpt lat="43.86041583858582" lon="12.350080727793513"><ele>889.5</ele><time>2026-04-04T13:45:07.001Z</time></trkpt><trkpt lat="43.86029092120513" lon="12.350016379422362"><ele>890.0</ele><time>2026-04-04T13:45:08.001Z</time></trkpt><trkpt lat="43.860185830114986" lon="12.349904125075966"><ele>889.25</ele><time>2026-04-04T13:45:09.001Z</time></trkpt><trkpt lat="43.86010365532669" lon="12.349761851546905"><ele>888.5</ele><time>2026-04-04T13:45:10.001Z</time></trkpt><trkpt lat="43.86004027079773" lon="12.349598520162276"><ele>887.75</ele><time>2026-04-04T13:45:11.001Z</time></trkpt><trkpt lat="43.85997126087978" lon="12.349440430920035"><ele>887.0</ele><time>2026-04-04T13:45:12.001Z</time></trkpt><trkpt lat="43.8599056466028" lon="12.349282000061228"><ele>889.0</ele><time>2026-04-04T13:45:13.001Z</time></trkpt><trkpt lat="43.859839430946565" lon="12.349130666993322"><ele>891.0</ele><time>2026-04-04T13:45:14.001Z</time></trkpt><trkpt lat="43.85977372048403" lon="12.348984689728177"><ele>893.0</ele><time>2026-04-04T13:45:15.001Z</time></trkpt><trkpt lat="43.85970764797365" lon="12.348842682295237"><ele>895.0</ele><time>2026-04-04T13:45:16.001Z</time></trkpt><trkpt lat="43.8596260155082" lon="12.34872300493286"><ele>897.25</ele><time>2026-04-04T13:45:17.001Z</time></trkpt><trkpt lat="43.8595221839981" lon="12.348640906712918"><ele>899.5</ele><time>2026-04-04T13:45:18.001Z</time></trkpt><trkpt lat="43.85940305112502" lon="12.348608444828448"><ele>901.75</ele><time>2026-04-04T13:45:19.001Z</time></trkpt><trkpt lat="43.85928017001259" lon="12.348630626896462"><ele>904.0</ele><time>2026-04-04T13:45:20.001Z</time></trkpt><trkpt lat="43.85916086017761" lon="12.348687787068302"><ele>903.0</ele><time>2026-04-04T13:45:21.001Z</time></trkpt><trkpt lat="43.8590543689849" lon="12.3487809743375"><ele>902.0</ele><time>2026-04-04T13:45:22.001Z</time></trkpt><trkpt lat="43.858953085336886" lon="12.348871250500139"><ele>901.0</ele><time>2026-04-04T13:45:23.001Z</time></trkpt><trkpt lat="43.85885787671796" lon="12.348936116208353"><ele>900.0</ele><time>2026-04-04T13:45:24.001Z</time></trkpt><trkpt lat="43.85876031445018" lon="12.348962356304327"><ele>900.0</ele><time>2026-04-04T13:45:25.001Z</time></trkpt><trkpt lat="43.858658254326365" lon="12.348943267537871"><ele>900.0</ele><time>2026-04-04T13:45:26.001Z</time></trkpt><trkpt lat="43.858558677321476" lon="12.348888381654403"><ele>900.0</ele><time>2026-04-04T13:45:27.001Z</time></trkpt><trkpt lat="43.858460612047956" lon="12.348811974899146"><ele>900.0</ele><time>2026-04-04T13:45:28.001Z</time></trkpt><trkpt lat="43.85835437216162" lon="12.34873197210071"><ele>900.0</ele><time>2026-04-04T13:45:29.001Z</time></trkpt><trkpt lat="43.85824544698127" lon="12.348652165907756"><ele>905.75</ele><time>2026-04-04T13:45:30.001Z</time></trkpt><trkpt lat="43.85814303526529" lon="12.348577915428447"><ele>911.5</ele><time>2026-04-04T13:45:31.001Z</time></trkpt><trkpt lat="43.858032702681086" lon="12.348502888278455"><ele>917.25</ele><time>2026-04-04T13:45:32.001Z</time></trkpt><trkpt lat="43.857922757485326" lon="12.34842620743458"><ele>923.0</ele><time>2026-04-04T13:45:33.001Z</time></trkpt><trkpt lat="43.857812202017364" lon="12.348354318103674"><ele>923.0</ele><time>2026-04-04T13:45:34.001Z</time></trkpt><trkpt lat="43.85769432849611" lon="12.348314008323166"><ele>923.0</ele><time>2026-04-04T13:45:35.001Z</time></trkpt><trkpt lat="43.85757381737745" lon="12.348314874471095"><ele>923.0</ele><time>2026-04-04T13:45:36.001Z</time></trkpt><trkpt lat="43.85745084034228" lon="12.348355707397895"><ele>923.0</ele><time>2026-04-04T13:45:37.001Z</time></trkpt><trkpt lat="43.85733537039735" lon="12.348422612541363"><ele>923.0</ele><time>2026-04-04T13:45:38.001Z</time></trkpt><trkpt lat="43.857211416945695" lon="12.348470623173082"><ele>923.0</ele><time>2026-04-04T13:45:39.001Z</time></trkpt><trkpt lat="43.85709588940783" lon="12.348538775575511"><ele>923.0</ele><time>2026-04-04T13:45:40.001Z</time></trkpt><trkpt lat="43.856972600376466" lon="12.348521474802538"><ele>923.0</ele><time>2026-04-04T13:45:41.001Z</time></trkpt><trkpt lat="43.85685793090311" lon="12.348464218086885"><ele>924.0</ele><time>2026-04-04T13:45:42.001Z</time></trkpt><trkpt lat="43.85675526589996" lon="12.348377437634566"><ele>925.0</ele><time>2026-04-04T13:45:43.001Z</time></trkpt><trkpt lat="43.85665005662388" lon="12.348274721045568"><ele>926.0</ele><time>2026-04-04T13:45:44.001Z</time></trkpt><trkpt lat="43.85654330277846" lon="12.34816351684232"><ele>927.0</ele><time>2026-04-04T13:45:45.001Z</time></trkpt><trkpt lat="43.8564375035231" lon="12.34805499936057"><ele>927.0</ele><time>2026-04-04T13:45:46.001Z</time></trkpt><trkpt lat="43.85632380598287" lon="12.347984674210082"><ele>927.0</ele><time>2026-04-04T13:45:47.001Z</time></trkpt><trkpt lat="43.85620424898988" lon="12.34797911950452"><ele>927.0</ele><time>2026-04-04T13:45:48.001Z</time></trkpt><trkpt lat="43.85608692590531" lon="12.348026297158606"><ele>927.0</ele><time>2026-04-04T13:45:49.001Z</time></trkpt><trkpt lat="43.85597611954128" lon="12.348117142652303"><ele>928.75</ele><time>2026-04-04T13:45:50.001Z</time></trkpt><trkpt lat="43.85585540576926" lon="12.348199388884959"><ele>930.5</ele><time>2026-04-04T13:45:51.001Z</time></trkpt><trkpt lat="43.85574365361243" lon="12.348300516753271"><ele>932.25</ele><time>2026-04-04T13:45:52.001Z</time></trkpt><trkpt lat="43.85562486051868" lon="12.348399580425435"><ele>934.0</ele><time>2026-04-04T13:45:53Z</time></trkpt><trkpt lat="43.8555046281967" lon="12.348498220652795"><ele>934.0</ele><time>2026-04-04T13:45:54Z</time></trkpt><trkpt lat="43.85539384177053" lon="12.348610351479786"><ele>934.0</ele><time>2026-04-04T13:45:55Z</time></trkpt><trkpt lat="43.855298443004784" lon="12.348744336281877"><ele>934.0</ele><time>2026-04-04T13:45:56Z</time></trkpt><trkpt lat="43.855219293281415" lon="12.348895855741887"><ele>934.0</ele><time>2026-04-04T13:45:57Z</time></trkpt><trkpt lat="43.855144954180524" lon="12.349041523825537"><ele>936.75</ele><time>2026-04-04T13:45:58Z</time></trkpt><trkpt lat="43.85507617325387" lon="12.349172236211418"><ele>939.5</ele><time>2026-04-04T13:45:59Z</time></trkpt><trkpt lat="43.85500174760966" lon="12.349278147267995"><ele>942.25</ele><time>2026-04-04T13:46:00Z</time></trkpt><trkpt lat="43.85491214786966" lon="12.349382379653443"><ele>945.0</ele><time>2026-04-04T13:46:01Z</time></trkpt><trkpt lat="43.85479966409946" lon="12.34945883651978"><ele>945.0</ele><time>2026-04-04T13:46:02Z</time></trkpt><trkpt lat="43.85468135997789" lon="12.349530925438739"><ele>945.0</ele><time>2026-04-04T13:46:03Z</time></trkpt><trkpt lat="43.85455932897147" lon="12.349607420370106"><ele>945.0</ele><time>2026-04-04T13:46:04Z</time></trkpt><trkpt lat="43.85442875864389" lon="12.349640264830217"><ele>945.0</ele><time>2026-04-04T13:46:05Z</time></trkpt><trkpt lat="43.854304832748596" lon="12.349670091241832"><ele>946.75</ele><time>2026-04-04T13:46:06Z</time></trkpt><trkpt lat="43.85418095474552" lon="12.34962700136094"><ele>948.5</ele><time>2026-04-04T13:46:07Z</time></trkpt><trkpt lat="43.85406879928888" lon="12.349564876581612"><ele>950.25</ele><time>2026-04-04T13:46:08Z</time></trkpt><trkpt lat="43.853966958438065" lon="12.349474838447408"><ele>952.0</ele><time>2026-04-04T13:46:09Z</time></trkpt><trkpt lat="43.853870316600585" lon="12.34937720952595"><ele>952.0</ele><time>2026-04-04T13:46:10Z</time></trkpt><trkpt lat="43.853774239907516" lon="12.349281551690623"><ele>952.0</ele><time>2026-04-04T13:46:11Z</time></trkpt><trkpt lat="43.85367228061808" lon="12.349211587930489"><ele>952.0</ele><time>2026-04-04T13:46:12Z</time></trkpt><trkpt lat="43.85356146479327" lon="12.349166042816996"><ele>952.0</ele><time>2026-04-04T13:46:13Z</time></trkpt><trkpt lat="43.85344424631627" lon="12.349142402699279"><ele>952.0</ele><time>2026-04-04T13:46:14Z</time></trkpt><trkpt lat="43.85332526711773" lon="12.349142368269398"><ele>952.0</ele><time>2026-04-04T13:46:15Z</time></trkpt><trkpt lat="43.85320573789078" lon="12.349170645378738"><ele>952.0</ele><time>2026-04-04T13:46:16Z</time></trkpt><trkpt lat="43.853084805031216" lon="12.3492099216721"><ele>952.0</ele><time>2026-04-04T13:46:17Z</time></trkpt><trkpt lat="43.85298250822562" lon="12.349318270157394"><ele>952.0</ele><time>2026-04-04T13:46:18Z</time></trkpt><trkpt lat="43.85287579298102" lon="12.349421361602932"><ele>952.0</ele><time>2026-04-04T13:46:19Z</time></trkpt><trkpt lat="43.85277037629008" lon="12.349529320295632"><ele>952.0</ele><time>2026-04-04T13:46:20Z</time></trkpt><trkpt lat="43.85265900251659" lon="12.349631337797339"><ele>952.0</ele><time>2026-04-04T13:46:21Z</time></trkpt><trkpt lat="43.852563046258815" lon="12.349763937441258"><ele>952.75</ele><time>2026-04-04T13:46:22Z</time></trkpt><trkpt lat="43.85248084155803" lon="12.349912198832403"><ele>953.5</ele><time>2026-04-04T13:46:23Z</time></trkpt><trkpt lat="43.85237235195682" lon="12.350027808073813"><ele>954.25</ele><time>2026-04-04T13:46:24Z</time></trkpt><trkpt lat="43.85224728266358" lon="12.350105327948965"><ele>955.0</ele><time>2026-04-04T13:46:25Z</time></trkpt><trkpt lat="43.85212799563318" lon="12.350198727169609"><ele>955.0</ele><time>2026-04-04T13:46:26Z</time></trkpt><trkpt lat="43.85200395447989" lon="12.350292440231362"><ele>955.0</ele><time>2026-04-04T13:46:27Z</time></trkpt><trkpt lat="43.85188693175423" lon="12.350404140787711"><ele>955.0</ele><time>2026-04-04T13:46:28Z</time></trkpt><trkpt lat="43.851760445410136" lon="12.350498123443737"><ele>955.0</ele><time>2026-04-04T13:46:29Z</time></trkpt><trkpt lat="43.85162898785716" lon="12.350576170523258"><ele>955.25</ele><time>2026-04-04T13:46:30Z</time></trkpt><trkpt lat="43.8515056171446" lon="12.350671814439796"><ele>955.5</ele><time>2026-04-04T13:46:31Z</time></trkpt><trkpt lat="43.851399150507966" lon="12.350788554220468"><ele>955.75</ele><time>2026-04-04T13:46:32Z</time></trkpt><trkpt lat="43.85127738214008" lon="12.350869640711455"><ele>956.0</ele><time>2026-04-04T13:46:33Z</time></trkpt><trkpt lat="43.85117174216312" lon="12.350975206860507"><ele>956.0</ele><time>2026-04-04T13:46:34Z</time></trkpt><trkpt lat="43.85106793307821" lon="12.351087169886792"><ele>956.0</ele><time>2026-04-04T13:46:35Z</time></trkpt><trkpt lat="43.85096342698577" lon="12.351194351456867"><ele>956.0</ele><time>2026-04-04T13:46:36Z</time></trkpt><trkpt lat="43.85085196498332" lon="12.351293194246905"><ele>956.0</ele><time>2026-04-04T13:46:37Z</time></trkpt><trkpt lat="43.850731268238256" lon="12.35137845218924"><ele>956.5</ele><time>2026-04-04T13:46:38Z</time></trkpt><trkpt lat="43.850606789629694" lon="12.351459003987294"><ele>957.0</ele><time>2026-04-04T13:46:39Z</time></trkpt><trkpt lat="43.85047989862013" lon="12.351535597162165"><ele>957.5</ele><time>2026-04-04T13:46:40Z</time></trkpt><trkpt lat="43.85034742738238" lon="12.351608105096709"><ele>958.0</ele><time>2026-04-04T13:46:41Z</time></trkpt><trkpt lat="43.850218534333685" lon="12.351691947021363"><ele>961.5</ele><time>2026-04-04T13:46:42Z</time></trkpt><trkpt lat="43.850100570477935" lon="12.351774317468886"><ele>965.0</ele><time>2026-04-04T13:46:43Z</time></trkpt><trkpt lat="43.84998268818199" lon="12.351877579698746"><ele>968.5</ele><time>2026-04-04T13:46:44Z</time></trkpt><trkpt lat="43.849888347102166" lon="12.351998206321994"><ele>972.0</ele><time>2026-04-04T13:46:45Z</time></trkpt><trkpt lat="43.849793036927025" lon="12.352115728340488"><ele>969.0</ele><time>2026-04-04T13:46:46Z</time></trkpt><trkpt lat="43.849701949499504" lon="12.352248268222855"><ele>966.0</ele><time>2026-04-04T13:46:47Z</time></trkpt><trkpt lat="43.849621590288805" lon="12.35236476637685"><ele>963.0</ele><time>2026-04-04T13:46:48Z</time></trkpt><trkpt lat="43.849513424738674" lon="12.352414052084997"><ele>960.0</ele><time>2026-04-04T13:46:49Z</time></trkpt><trkpt lat="43.84939148646613" lon="12.352412465354456"><ele>962.75</ele><time>2026-04-04T13:46:50Z</time></trkpt><trkpt lat="43.84928218410729" lon="12.35236150385177"><ele>965.5</ele><time>2026-04-04T13:46:51Z</time></trkpt><trkpt lat="43.849165413540184" lon="12.352301487329193"><ele>968.25</ele><time>2026-04-04T13:46:52Z</time></trkpt><trkpt lat="43.849039772657314" lon="12.352260640252288"><ele>971.0</ele><time>2026-04-04T13:46:53Z</time></trkpt><trkpt lat="43.84890858430127" lon="12.352249420833436"><ele>971.0</ele><time>2026-04-04T13:46:54Z</time></trkpt><trkpt lat="43.84877530795274" lon="12.352269671734033"><ele>971.0</ele><time>2026-04-04T13:46:55Z</time></trkpt><trkpt lat="43.84862977179021" lon="12.352299539923937"><ele>971.0</ele><time>2026-04-04T13:46:56Z</time></trkpt><trkpt lat="43.848496048408016" lon="12.352335464600912"><ele>971.0</ele><time>2026-04-04T13:46:57Z</time></trkpt><trkpt lat="43.84835894244002" lon="12.352363997849867"><ele>972.5</ele><time>2026-04-04T13:46:58Z</time></trkpt><trkpt lat="43.848220651977286" lon="12.352384361061597"><ele>974.0</ele><time>2026-04-04T13:46:59.001Z</time></trkpt><trkpt lat="43.848082096886124" lon="12.35240509928071"><ele>975.5</ele><time>2026-04-04T13:47:00.001Z</time></trkpt><trkpt lat="43.847941994471" lon="12.352412142849058"><ele>977.0</ele><time>2026-04-04T13:47:01.001Z</time></trkpt><trkpt lat="43.847803630309095" lon="12.352411809852093"><ele>977.0</ele><time>2026-04-04T13:47:02.001Z</time></trkpt><trkpt lat="43.84766799699086" lon="12.352435548035789"><ele>977.0</ele><time>2026-04-04T13:47:03.001Z</time></trkpt><trkpt lat="43.84753782902405" lon="12.352490850218484"><ele>977.0</ele><time>2026-04-04T13:47:04.001Z</time></trkpt><trkpt lat="43.847417350764935" lon="12.35256657071306"><ele>977.0</ele><time>2026-04-04T13:47:05.001Z</time></trkpt><trkpt lat="43.84730402981665" lon="12.352643999688464"><ele>978.75</ele><time>2026-04-04T13:47:06.001Z</time></trkpt><trkpt lat="43.84719305897515" lon="12.352710726165352"><ele>980.5</ele><time>2026-04-04T13:47:07.001Z</time></trkpt><trkpt lat="43.84708779638262" lon="12.35277128940282"><ele>982.25</ele><time>2026-04-04T13:47:08.001Z</time></trkpt><trkpt lat="43.84698269084818" lon="12.352818824452124"><ele>984.0</ele><time>2026-04-04T13:47:09.001Z</time></trkpt><trkpt lat="43.84687249569024" lon="12.352841094046068"><ele>983.75</ele><time>2026-04-04T13:47:10.001Z</time></trkpt><trkpt lat="43.84675541471144" lon="12.352840761950098"><ele>983.5</ele><time>2026-04-04T13:47:11.001Z</time></trkpt><trkpt lat="43.846634248248364" lon="12.352839550763761"><ele>983.25</ele><time>2026-04-04T13:47:12.001Z</time></trkpt><trkpt lat="43.84651678579469" lon="12.352843532871843"><ele>983.0</ele><time>2026-04-04T13:47:13.001Z</time></trkpt><trkpt lat="43.84640327279407" lon="12.35284809011086"><ele>983.0</ele><time>2026-04-04T13:47:14.001Z</time></trkpt><trkpt lat="43.846301002252204" lon="12.352846671167766"><ele>983.0</ele><time>2026-04-04T13:47:15.001Z</time></trkpt><trkpt lat="43.846204050718704" lon="12.352826856870207"><ele>983.0</ele><time>2026-04-04T13:47:16.001Z</time></trkpt><trkpt lat="43.846120643609694" lon="12.35278202903667"><ele>983.0</ele><time>2026-04-04T13:47:17.001Z</time></trkpt><trkpt lat="43.84604086583143" lon="12.352699548575483"><ele>983.0</ele><time>2026-04-04T13:47:18.001Z</time></trkpt><trkpt lat="43.84597686342401" lon="12.352586763246492"><ele>980.5999999999999</ele><time>2026-04-04T13:47:19.001Z</time></trkpt><trkpt lat="43.84593085799134" lon="12.352456766778342"><ele>978.1999999999999</ele><time>2026-04-04T13:47:20.001Z</time></trkpt><trkpt lat="43.84590033280933" lon="12.3523158735098"><ele>975.8</ele><time>2026-04-04T13:47:21.001Z</time></trkpt><trkpt lat="43.84588169735554" lon="12.352164578355554"><ele>973.4</ele><time>2026-04-04T13:47:22.001Z</time></trkpt><trkpt lat="43.8458644094791" lon="12.352007649875345"><ele>971.0</ele><time>2026-04-04T13:47:23.001Z</time></trkpt><trkpt lat="43.8458476707691" lon="12.351851767906586"><ele>971.0</ele><time>2026-04-04T13:47:24.001Z</time></trkpt><trkpt lat="43.8458221037348" lon="12.351713151814813"><ele>970.9999999999999</ele><time>2026-04-04T13:47:25.001Z</time></trkpt><trkpt lat="43.84577542525209" lon="12.351581965137479"><ele>970.9999999999999</ele><time>2026-04-04T13:47:26.001Z</time></trkpt><trkpt lat="43.84570761650195" lon="12.351470974608551"><ele>971.0</ele><time>2026-04-04T13:47:27.001Z</time></trkpt><trkpt lat="43.84560672875312" lon="12.35139498024634"><ele>971.0</ele><time>2026-04-04T13:47:28.001Z</time></trkpt><trkpt lat="43.8454938919831" lon="12.351357157754576"><ele>970.5</ele><time>2026-04-04T13:47:29.001Z</time></trkpt><trkpt lat="43.8453737035347" lon="12.351346750667883"><ele>970.0</ele><time>2026-04-04T13:47:30.001Z</time></trkpt><trkpt lat="43.84525029044108" lon="12.35135057374585"><ele>969.5</ele><time>2026-04-04T13:47:31.001Z</time></trkpt><trkpt lat="43.845125475964274" lon="12.351351845134653"><ele>969.0</ele><time>2026-04-04T13:47:32.001Z</time></trkpt><trkpt lat="43.8450005904095" lon="12.351353538866972"><ele>969.0</ele><time>2026-04-04T13:47:33.001Z</time></trkpt><trkpt lat="43.844874991834175" lon="12.35135552482313"><ele>969.0</ele><time>2026-04-04T13:47:34.001Z</time></trkpt><trkpt lat="43.844746452052995" lon="12.35135084961951"><ele>969.0</ele><time>2026-04-04T13:47:35.001Z</time></trkpt><trkpt lat="43.844614028363715" lon="12.35134492550036"><ele>969.0</ele><time>2026-04-04T13:47:36.001Z</time></trkpt><trkpt lat="43.84448102257472" lon="12.351337222988686"><ele>969.0</ele><time>2026-04-04T13:47:37.001Z</time></trkpt><trkpt lat="43.84435351546087" lon="12.35132843206905"><ele>969.0</ele><time>2026-04-04T13:47:38.001Z</time></trkpt><trkpt lat="43.8442328245028" lon="12.351307373524229"><ele>969.0</ele><time>2026-04-04T13:47:39.001Z</time></trkpt><trkpt lat="43.84411285577741" lon="12.351261190082683"><ele>969.0</ele><time>2026-04-04T13:47:40.001Z</time></trkpt><trkpt lat="43.84400361300554" lon="12.351182063485973"><ele>966.75</ele><time>2026-04-04T13:47:41.001Z</time></trkpt><trkpt lat="43.84391076840755" lon="12.35107014391338"><ele>964.5</ele><time>2026-04-04T13:47:42.001Z</time></trkpt><trkpt lat="43.84383377493193" lon="12.350936825324496"><ele>962.25</ele><time>2026-04-04T13:47:43.001Z</time></trkpt><trkpt lat="43.84375171453935" lon="12.350821566406335"><ele>960.0</ele><time>2026-04-04T13:47:44.001Z</time></trkpt><trkpt lat="43.84367953465463" lon="12.350712014672682"><ele>960.0</ele><time>2026-04-04T13:47:45.001Z</time></trkpt><trkpt lat="43.84361133485336" lon="12.35062133138832"><ele>960.0</ele><time>2026-04-04T13:47:46.001Z</time></trkpt><trkpt lat="43.84353226761985" lon="12.350551595229769"><ele>960.0</ele><time>2026-04-04T13:47:47.001Z</time></trkpt><trkpt lat="43.843443359081995" lon="12.350528069189695"><ele>960.0</ele><time>2026-04-04T13:47:48.001Z</time></trkpt><trkpt lat="43.84335612359427" lon="12.350545470101416"><ele>960.0</ele><time>2026-04-04T13:47:49.001Z</time></trkpt><trkpt lat="43.843280582518744" lon="12.350599692145975"><ele>957.8</ele><time>2026-04-04T13:47:50.001Z</time></trkpt><trkpt lat="43.84322227641215" lon="12.350687924489161"><ele>955.6</ele><time>2026-04-04T13:47:51.001Z</time></trkpt><trkpt lat="43.84318196909614" lon="12.35080326817484"><ele>953.4000000000001</ele><time>2026-04-04T13:47:52.001Z</time></trkpt><trkpt lat="43.8431484365574" lon="12.350928115454796"><ele>951.2</ele><time>2026-04-04T13:47:53.001Z</time></trkpt><trkpt lat="43.84311675171011" lon="12.351060531927295"><ele>949.0</ele><time>2026-04-04T13:47:54.001Z</time></trkpt><trkpt lat="43.84308330366211" lon="12.351196555092564"><ele>949.0</ele><time>2026-04-04T13:47:55.001Z</time></trkpt><trkpt lat="43.84304649464171" lon="12.35133417143565"><ele>949.0000000000001</ele><time>2026-04-04T13:47:56.001Z</time></trkpt><trkpt lat="43.84301509104642" lon="12.351474365333404"><ele>949.0000000000001</ele><time>2026-04-04T13:47:57.001Z</time></trkpt><trkpt lat="43.84298078975745" lon="12.351613762896676"><ele>949.0</ele><time>2026-04-04T13:47:58.001Z</time></trkpt><trkpt lat="43.84294751606907" lon="12.351755510486804"><ele>949.0</ele><time>2026-04-04T13:47:59Z</time></trkpt><trkpt lat="43.84291155518611" lon="12.35190100501908"><ele>948.25</ele><time>2026-04-04T13:48:00Z</time></trkpt><trkpt lat="43.8428729737866" lon="12.3520504003318"><ele>947.5</ele><time>2026-04-04T13:48:01Z</time></trkpt><trkpt lat="43.84283928443664" lon="12.352202551818268"><ele>946.75</ele><time>2026-04-04T13:48:02Z</time></trkpt><trkpt lat="43.84280761221371" lon="12.352360790163784"><ele>946.0</ele><time>2026-04-04T13:48:03Z</time></trkpt><trkpt lat="43.842779009195894" lon="12.352525628183582"><ele>945.25</ele><time>2026-04-04T13:48:04Z</time></trkpt><trkpt lat="43.842757829574495" lon="12.352699013342134"><ele>944.5</ele><time>2026-04-04T13:48:05Z</time></trkpt><trkpt lat="43.84273609636509" lon="12.35287931082164"><ele>943.75</ele><time>2026-04-04T13:48:06Z</time></trkpt><trkpt lat="43.84271628327152" lon="12.353062425123131"><ele>943.0</ele><time>2026-04-04T13:48:07Z</time></trkpt><trkpt lat="43.842692717374895" lon="12.35324761788665"><ele>941.75</ele><time>2026-04-04T13:48:08Z</time></trkpt><trkpt lat="43.842652716600846" lon="12.353434261812254"><ele>940.5</ele><time>2026-04-04T13:48:09Z</time></trkpt><trkpt lat="43.84259149631363" lon="12.353611717263592"><ele>939.25</ele><time>2026-04-04T13:48:10Z</time></trkpt><trkpt lat="43.842514195563155" lon="12.353775569765832"><ele>938.0</ele><time>2026-04-04T13:48:11Z</time></trkpt><trkpt lat="43.84242940812703" lon="12.353933345461861"><ele>935.5</ele><time>2026-04-04T13:48:12Z</time></trkpt><trkpt lat="43.84233995442261" lon="12.354085740734288"><ele>933.0</ele><time>2026-04-04T13:48:13Z</time></trkpt><trkpt lat="43.84225126576491" lon="12.354240574975346"><ele>930.5</ele><time>2026-04-04T13:48:14Z</time></trkpt><trkpt lat="43.84216873805158" lon="12.354403266732817"><ele>928.0</ele><time>2026-04-04T13:48:15Z</time></trkpt><trkpt lat="43.842092902692634" lon="12.354573054322985"><ele>928.5</ele><time>2026-04-04T13:48:16Z</time></trkpt><trkpt lat="43.84203546952386" lon="12.354755798944558"><ele>929.0</ele><time>2026-04-04T13:48:17Z</time></trkpt><trkpt lat="43.84199682803896" lon="12.354947809734279"><ele>929.5</ele><time>2026-04-04T13:48:18Z</time></trkpt><trkpt lat="43.84196796562284" lon="12.355126833412672"><ele>930.0</ele><time>2026-04-04T13:48:19Z</time></trkpt><trkpt lat="43.84194054348244" lon="12.355287169433726"><ele>930.0</ele><time>2026-04-04T13:48:20Z</time></trkpt><trkpt lat="43.84192347487153" lon="12.355424907794568"><ele>930.0</ele><time>2026-04-04T13:48:21Z</time></trkpt><trkpt lat="43.8418999947298" lon="12.355533970056998"><ele>930.0</ele><time>2026-04-04T13:48:22Z</time></trkpt><trkpt lat="43.84185272118909" lon="12.355621399587694"><ele>930.0</ele><time>2026-04-04T13:48:24Z</time></trkpt><trkpt lat="43.841716809287774" lon="12.355530800084038"><ele>930.0</ele><time>2026-04-04T13:48:28Z</time></trkpt><trkpt lat="43.84165189622162" lon="12.355407152932187"><ele>928.1666666666666</ele><time>2026-04-04T13:48:30Z</time></trkpt><trkpt lat="43.84160723068327" lon="12.355342756470332"><ele>926.3333333333333</ele><time>2026-04-04T13:48:31Z</time></trkpt><trkpt lat="43.84155782996557" lon="12.355267627319918"><ele>924.5</ele><time>2026-04-04T13:48:32Z</time></trkpt><trkpt lat="43.84150289413192" lon="12.355188703971212"><ele>922.6666666666666</ele><time>2026-04-04T13:48:33Z</time></trkpt><trkpt lat="43.841445733778514" lon="12.355101521330052"><ele>920.8333333333333</ele><time>2026-04-04T13:48:34Z</time></trkpt><trkpt lat="43.84138452301667" lon="12.355012130967323"><ele>919.0</ele><time>2026-04-04T13:48:35Z</time></trkpt><trkpt lat="43.841320343144915" lon="12.354912334202435"><ele>919.0</ele><time>2026-04-04T13:48:36Z</time></trkpt><trkpt lat="43.84125720034882" lon="12.35481210177509"><ele>919.0000000000001</ele><time>2026-04-04T13:48:37Z</time></trkpt><trkpt lat="43.84119190884136" lon="12.354712123942"><ele>919.0000000000001</ele><time>2026-04-04T13:48:38Z</time></trkpt><trkpt lat="43.841117730292815" lon="12.354623551324806"><ele>919.0</ele><time>2026-04-04T13:48:39Z</time></trkpt><trkpt lat="43.841043361218844" lon="12.35454084644507"><ele>919.0</ele><time>2026-04-04T13:48:40Z</time></trkpt><trkpt lat="43.84095290126014" lon="12.354487461410944"><ele>917.6</ele><time>2026-04-04T13:48:41Z</time></trkpt><trkpt lat="43.84085065944082" lon="12.354464503771199"><ele>916.2</ele><time>2026-04-04T13:48:42Z</time></trkpt><trkpt lat="43.84074562490587" lon="12.354481261532642"><ele>914.8000000000001</ele><time>2026-04-04T13:48:43Z</time></trkpt><trkpt lat="43.84063763101548" lon="12.354527417137472"><ele>913.4000000000001</ele><time>2026-04-04T13:48:44Z</time></trkpt><trkpt lat="43.840530095933666" lon="12.354585976736152"><ele>912.0</ele><time>2026-04-04T13:48:45Z</time></trkpt><trkpt lat="43.8404163966353" lon="12.354653694347933"><ele>911.2</ele><time>2026-04-04T13:48:46Z</time></trkpt><trkpt lat="43.8403110820818" lon="12.3547228503914"><ele>910.4000000000001</ele><time>2026-04-04T13:48:47Z</time></trkpt><trkpt lat="43.840201880072" lon="12.35479052959577"><ele>909.5999999999999</ele><time>2026-04-04T13:48:48Z</time></trkpt><trkpt lat="43.84010069505333" lon="12.354848290547762"><ele>908.8</ele><time>2026-04-04T13:48:49Z</time></trkpt><trkpt lat="43.840008707143056" lon="12.354899344468844"><ele>908.0</ele><time>2026-04-04T13:48:50Z</time></trkpt><trkpt lat="43.83991649200968" lon="12.354956019589777"><ele>906.5999999999999</ele><time>2026-04-04T13:48:51Z</time></trkpt><trkpt lat="43.83982095980692" lon="12.355009709107973"><ele>905.1999999999999</ele><time>2026-04-04T13:48:52Z</time></trkpt><trkpt lat="43.839731180518726" lon="12.355068776924112"><ele>903.8</ele><time>2026-04-04T13:48:53Z</time></trkpt><trkpt lat="43.83965030455735" lon="12.355139593607607"><ele>902.4</ele><time>2026-04-04T13:48:54Z</time></trkpt><trkpt lat="43.8395795891741" lon="12.355219564457785"><ele>901.0</ele><time>2026-04-04T13:48:55Z</time></trkpt><trkpt lat="43.83952113435755" lon="12.355312227816183"><ele>900.9999999999999</ele><time>2026-04-04T13:48:56Z</time></trkpt><trkpt lat="43.83949225131305" lon="12.35542078994423"><ele>901.0</ele><time>2026-04-04T13:48:57Z</time></trkpt><trkpt lat="43.83948502210143" lon="12.355526503557353"><ele>901.0</ele><time>2026-04-04T13:48:58Z</time></trkpt><trkpt lat="43.83949632687908" lon="12.355642069562414"><ele>901.0</ele><time>2026-04-04T13:48:59Z</time></trkpt><trkpt lat="43.83952184026782" lon="12.355751908975842"><ele>900.9999999999999</ele><time>2026-04-04T13:49:00Z</time></trkpt><trkpt lat="43.83956269884265" lon="12.355861133300726"><ele>901.0</ele><time>2026-04-04T13:49:01Z</time></trkpt><trkpt lat="43.83961632339084" lon="12.355963918391009"><ele>900.1999999999999</ele><time>2026-04-04T13:49:02.001Z</time></trkpt><trkpt lat="43.83967584919141" lon="12.356067396297432"><ele>899.3999999999999</ele><time>2026-04-04T13:49:03.001Z</time></trkpt><trkpt lat="43.83973715524462" lon="12.356165717521698"><ele>898.6</ele><time>2026-04-04T13:49:04.001Z</time></trkpt><trkpt lat="43.839795531501835" lon="12.356270407895257"><ele>897.8</ele><time>2026-04-04T13:49:05.001Z</time></trkpt><trkpt lat="43.83984249095687" lon="12.35637076124405"><ele>897.0</ele><time>2026-04-04T13:49:06.001Z</time></trkpt><trkpt lat="43.83987239576358" lon="12.356475661318179"><ele>896.0</ele><time>2026-04-04T13:49:07.001Z</time></trkpt><trkpt lat="43.839879070435636" lon="12.356581567020505"><ele>895.0</ele><time>2026-04-04T13:49:08.001Z</time></trkpt><trkpt lat="43.83986550628925" lon="12.356671424396511"><ele>894.0</ele><time>2026-04-04T13:49:09.001Z</time></trkpt><trkpt lat="43.83981360559355" lon="12.356803288626976"><ele>893.0</ele><time>2026-04-04T13:49:11.001Z</time></trkpt><trkpt lat="43.83976258365427" lon="12.356873733285866"><ele>892.0</ele><time>2026-04-04T13:49:13.001Z</time></trkpt><trkpt lat="43.839696629321935" lon="12.35685561802485"><ele>891.0</ele><time>2026-04-04T13:49:14.001Z</time></trkpt><trkpt lat="43.83959471464566" lon="12.356807662751395"><ele>891.0000000000001</ele><time>2026-04-04T13:49:16.001Z</time></trkpt><trkpt lat="43.839530058861406" lon="12.356787941987609"><ele>891.0</ele><time>2026-04-04T13:49:17.001Z</time></trkpt><trkpt lat="43.83946350388851" lon="12.356776595953999"><ele>891.0</ele><time>2026-04-04T13:49:18.001Z</time></trkpt><trkpt lat="43.839393840538584" lon="12.356784357577551"><ele>891.0</ele><time>2026-04-04T13:49:19.001Z</time></trkpt><trkpt lat="43.839323473805024" lon="12.356812401119733"><ele>891.0</ele><time>2026-04-04T13:49:20.001Z</time></trkpt><trkpt lat="43.839246934943915" lon="12.356862774866785"><ele>891.0000000000001</ele><time>2026-04-04T13:49:21.001Z</time></trkpt><trkpt lat="43.83917725423071" lon="12.35693563044044"><ele>891.0</ele><time>2026-04-04T13:49:22.001Z</time></trkpt><trkpt lat="43.83911498007807" lon="12.357024158638591"><ele>890.1666666666666</ele><time>2026-04-04T13:49:23.001Z</time></trkpt><trkpt lat="43.83906370943636" lon="12.357127181953624"><ele>889.3333333333333</ele><time>2026-04-04T13:49:24.001Z</time></trkpt><trkpt lat="43.839015353314295" lon="12.357219822165534"><ele>888.5</ele><time>2026-04-04T13:49:25.001Z</time></trkpt><trkpt lat="43.838973122786996" lon="12.357304063832311"><ele>887.6666666666666</ele><time>2026-04-04T13:49:26.001Z</time></trkpt><trkpt lat="43.838924094100335" lon="12.35738802063081"><ele>886.8333333333333</ele><time>2026-04-04T13:49:27.001Z</time></trkpt><trkpt lat="43.8388722277183" lon="12.357482094836602"><ele>886.0</ele><time>2026-04-04T13:49:28.001Z</time></trkpt><trkpt lat="43.83881767514598" lon="12.357580677401895"><ele>884.8</ele><time>2026-04-04T13:49:29.001Z</time></trkpt><trkpt lat="43.83875489065255" lon="12.357685018629978"><ele>883.5999999999999</ele><time>2026-04-04T13:49:30.001Z</time></trkpt><trkpt lat="43.838692862656586" lon="12.357793909542117"><ele>882.4</ele><time>2026-04-04T13:49:31.001Z</time></trkpt><trkpt lat="43.838631597336565" lon="12.357911830487751"><ele>881.2</ele><time>2026-04-04T13:49:32.001Z</time></trkpt><trkpt lat="43.838565167265784" lon="12.3580337675073"><ele>880.0</ele><time>2026-04-04T13:49:33.001Z</time></trkpt><trkpt lat="43.838493393019355" lon="12.35815578450523"><ele>877.0</ele><time>2026-04-04T13:49:34.001Z</time></trkpt><trkpt lat="43.83840181148484" lon="12.35825517113532"><ele>874.0</ele><time>2026-04-04T13:49:35.001Z</time></trkpt><trkpt lat="43.8382938316633" lon="12.358320706082363"><ele>871.0</ele><time>2026-04-04T13:49:36.001Z</time></trkpt><trkpt lat="43.838176255358405" lon="12.358350527575668"><ele>868.0</ele><time>2026-04-04T13:49:37.001Z</time></trkpt><trkpt lat="43.8380528258063" lon="12.358346443638728"><ele>868.0</ele><time>2026-04-04T13:49:38.001Z</time></trkpt><trkpt lat="43.837926475922096" lon="12.358310276045598"><ele>868.0</ele><time>2026-04-04T13:49:39.001Z</time></trkpt><trkpt lat="43.83780052043561" lon="12.35825851526445"><ele>868.0</ele><time>2026-04-04T13:49:40.001Z</time></trkpt><trkpt lat="43.837672434531555" lon="12.358210552146142"><ele>868.0</ele><time>2026-04-04T13:49:41.001Z</time></trkpt><trkpt lat="43.83753825695219" lon="12.3581646517409"><ele>868.5</ele><time>2026-04-04T13:49:42.001Z</time></trkpt><trkpt lat="43.83740970194977" lon="12.358117396601532"><ele>869.0</ele><time>2026-04-04T13:49:43.001Z</time></trkpt><trkpt lat="43.83727415064294" lon="12.35807589853104"><ele>869.5</ele><time>2026-04-04T13:49:44.001Z</time></trkpt><trkpt lat="43.837135147256625" lon="12.358042631114285"><ele>870.0</ele><time>2026-04-04T13:49:45.001Z</time></trkpt><trkpt lat="43.83699211117692" lon="12.358011711958627"><ele>870.0</ele><time>2026-04-04T13:49:46.001Z</time></trkpt><trkpt lat="43.83684824177242" lon="12.357974401144885"><ele>870.0</ele><time>2026-04-04T13:49:47.001Z</time></trkpt><trkpt lat="43.836702221213045" lon="12.357936396847137"><ele>870.0</ele><time>2026-04-04T13:49:48.001Z</time></trkpt><trkpt lat="43.83655403607313" lon="12.357902347339268"><ele>870.0</ele><time>2026-04-04T13:49:49.001Z</time></trkpt><trkpt lat="43.836403853071" lon="12.357867734551727"><ele>867.3333333333333</ele><time>2026-04-04T13:49:50.001Z</time></trkpt><trkpt lat="43.83625355969873" lon="12.357829938446063"><ele>864.6666666666666</ele><time>2026-04-04T13:49:51.001Z</time></trkpt><trkpt lat="43.83610139366419" lon="12.357792026327878"><ele>862.0</ele><time>2026-04-04T13:49:52.001Z</time></trkpt><trkpt lat="43.83594596330565" lon="12.357757758192195"><ele>859.3333333333333</ele><time>2026-04-04T13:49:53.001Z</time></trkpt><trkpt lat="43.83578494737987" lon="12.357739937984563"><ele>856.6666666666667</ele><time>2026-04-04T13:49:54.001Z</time></trkpt><trkpt lat="43.835617619250854" lon="12.35774278483896"><ele>854.0</ele><time>2026-04-04T13:49:55.001Z</time></trkpt><trkpt lat="43.835451734561666" lon="12.357767950069157"><ele>854.0</ele><time>2026-04-04T13:49:56.001Z</time></trkpt><trkpt lat="43.83528482880391" lon="12.357807057828431"><ele>854.0</ele><time>2026-04-04T13:49:57.001Z</time></trkpt><trkpt lat="43.83511782298625" lon="12.357848779673471"><ele>854.0</ele><time>2026-04-04T13:49:58.001Z</time></trkpt><trkpt lat="43.83495233905156" lon="12.35787146606161"><ele>852.6666666666667</ele><time>2026-04-04T13:49:59.001Z</time></trkpt><trkpt lat="43.83478397020636" lon="12.357886913553292"><ele>851.3333333333333</ele><time>2026-04-04T13:50:00.001Z</time></trkpt><trkpt lat="43.834615221973905" lon="12.357906418561239"><ele>850.0</ele><time>2026-04-04T13:50:01.001Z</time></trkpt><trkpt lat="43.83444596723114" lon="12.357927680165767"><ele>849.6666666666666</ele><time>2026-04-04T13:50:02.001Z</time></trkpt><trkpt lat="43.83428035548489" lon="12.357952777329755"><ele>849.3333333333333</ele><time>2026-04-04T13:50:03.001Z</time></trkpt><trkpt lat="43.83411101208942" lon="12.357976331881261"><ele>849.0</ele><time>2026-04-04T13:50:04.001Z</time></trkpt><trkpt lat="43.833951776714606" lon="12.357998283522265"><ele>849.0</ele><time>2026-04-04T13:50:05Z</time></trkpt><trkpt lat="43.83380353294605" lon="12.358024090432659"><ele>849.0</ele><time>2026-04-04T13:50:06Z</time></trkpt><trkpt lat="43.83365914337844" lon="12.35809146397443"><ele>849.0</ele><time>2026-04-04T13:50:07Z</time></trkpt><trkpt lat="43.83352528648025" lon="12.358205232405625"><ele>844.6666666666667</ele><time>2026-04-04T13:50:08Z</time></trkpt><trkpt lat="43.83340883829429" lon="12.35835859995081"><ele>840.3333333333334</ele><time>2026-04-04T13:50:09Z</time></trkpt><trkpt lat="43.833287270531514" lon="12.358514780545903"><ele>836.0</ele><time>2026-04-04T13:50:10Z</time></trkpt><trkpt lat="43.83314949168118" lon="12.358650565145153"><ele>836.0</ele><time>2026-04-04T13:50:11Z</time></trkpt><trkpt lat="43.83300480294931" lon="12.358763809592503"><ele>836.0</ele><time>2026-04-04T13:50:12Z</time></trkpt><trkpt lat="43.83285338483908" lon="12.358868474112576"><ele>836.0</ele><time>2026-04-04T13:50:13Z</time></trkpt><trkpt lat="43.832705387247366" lon="12.358981243248683"><ele>833.0</ele><time>2026-04-04T13:50:14Z</time></trkpt><trkpt lat="43.83256845805663" lon="12.359114392354737"><ele>830.0</ele><time>2026-04-04T13:50:15Z</time></trkpt><trkpt lat="43.832437930827" lon="12.359253993725595"><ele>827.0</ele><time>2026-04-04T13:50:16Z</time></trkpt><trkpt lat="43.83230838896394" lon="12.359386487005619"><ele>827.0</ele><time>2026-04-04T13:50:17Z</time></trkpt><trkpt lat="43.83217778266124" lon="12.359515453672033"><ele>827.0</ele><time>2026-04-04T13:50:18Z</time></trkpt><trkpt lat="43.83204756650691" lon="12.359640641573746"><ele>827.0</ele><time>2026-04-04T13:50:19Z</time></trkpt><trkpt lat="43.831913607523425" lon="12.359746634304331"><ele>825.0</ele><time>2026-04-04T13:50:20Z</time></trkpt><trkpt lat="43.83177683230318" lon="12.3598503842213"><ele>823.0</ele><time>2026-04-04T13:50:21Z</time></trkpt><trkpt lat="43.83163777982542" lon="12.35995261628069"><ele>821.0</ele><time>2026-04-04T13:50:22Z</time></trkpt><trkpt lat="43.831496808425605" lon="12.360051730970262"><ele>821.0</ele><time>2026-04-04T13:50:23Z</time></trkpt><trkpt lat="43.8313515367228" lon="12.36015383678562"><ele>821.0</ele><time>2026-04-04T13:50:24Z</time></trkpt><trkpt lat="43.83120241721496" lon="12.360264988374489"><ele>821.0</ele><time>2026-04-04T13:50:25Z</time></trkpt><trkpt lat="43.83104899183282" lon="12.360378870531486"><ele>822.3333333333334</ele><time>2026-04-04T13:50:26Z</time></trkpt><trkpt lat="43.83089741476393" lon="12.360496017876319"><ele>823.6666666666667</ele><time>2026-04-04T13:50:27Z</time></trkpt><trkpt lat="43.83074324710282" lon="12.36061087719687"><ele>825.0</ele><time>2026-04-04T13:50:28Z</time></trkpt><trkpt lat="43.83058880041255" lon="12.360726085367073"><ele>819.0</ele><time>2026-04-04T13:50:29Z</time></trkpt><trkpt lat="43.83043673830576" lon="12.360838182737153"><ele>813.0</ele><time>2026-04-04T13:50:30Z</time></trkpt><trkpt lat="43.83028954857779" lon="12.360939305401578"><ele>807.0</ele><time>2026-04-04T13:50:31Z</time></trkpt><trkpt lat="43.830154312953276" lon="12.361033277488703"><ele>804.3333333333333</ele><time>2026-04-04T13:50:32Z</time></trkpt><trkpt lat="43.83002663975176" lon="12.361150425792664"><ele>801.6666666666666</ele><time>2026-04-04T13:50:33Z</time></trkpt><trkpt lat="43.829919757770604" lon="12.361306670039665"><ele>799.0</ele><time>2026-04-04T13:50:34Z</time></trkpt><trkpt lat="43.82984739367951" lon="12.361497398390137"><ele>799.0</ele><time>2026-04-04T13:50:35Z</time></trkpt><trkpt lat="43.82979127891709" lon="12.361692981027636"><ele>799.0</ele><time>2026-04-04T13:50:36Z</time></trkpt><trkpt lat="43.829722019269646" lon="12.361868533377647"><ele>799.0</ele><time>2026-04-04T13:50:37Z</time></trkpt><trkpt lat="43.829625570393816" lon="12.362007018763803"><ele>799.0</ele><time>2026-04-04T13:50:38Z</time></trkpt><trkpt lat="43.8295043210806" lon="12.362080478805971"><ele>799.0</ele><time>2026-04-04T13:50:39Z</time></trkpt><trkpt lat="43.82936322034228" lon="12.362125970667043"><ele>799.0</ele><time>2026-04-04T13:50:40Z</time></trkpt><trkpt lat="43.82922501348065" lon="12.36216660302242"><ele>799.0</ele><time>2026-04-04T13:50:41Z</time></trkpt><trkpt lat="43.82909527747424" lon="12.362248906936587"><ele>799.0</ele><time>2026-04-04T13:50:42Z</time></trkpt><trkpt lat="43.82897262256252" lon="12.362378431629736"><ele>795.6666666666666</ele><time>2026-04-04T13:50:43Z</time></trkpt><trkpt lat="43.828857594482706" lon="12.362533165042224"><ele>792.3333333333333</ele><time>2026-04-04T13:50:44Z</time></trkpt><trkpt lat="43.82874608720834" lon="12.362704744053449"><ele>789.0</ele><time>2026-04-04T13:50:45Z</time></trkpt><trkpt lat="43.828635079393926" lon="12.362872825422485"><ele>789.0</ele><time>2026-04-04T13:50:46Z</time></trkpt><trkpt lat="43.82851202577386" lon="12.363022990748943"><ele>789.0</ele><time>2026-04-04T13:50:47Z</time></trkpt><trkpt lat="43.82837305437765" lon="12.363147359834873"><ele>789.0</ele><time>2026-04-04T13:50:48Z</time></trkpt><trkpt lat="43.828225517591335" lon="12.363266199156179"><ele>786.3333333333333</ele><time>2026-04-04T13:50:49Z</time></trkpt><trkpt lat="43.8280818188447" lon="12.363392925882172"><ele>783.6666666666666</ele><time>2026-04-04T13:50:50Z</time></trkpt><trkpt lat="43.827944808825336" lon="12.36353487672027"><ele>781.0</ele><time>2026-04-04T13:50:51Z</time></trkpt><trkpt lat="43.82781662910201" lon="12.363688027867042"><ele>781.0</ele><time>2026-04-04T13:50:52Z</time></trkpt><trkpt lat="43.82769169136661" lon="12.363839779487735"><ele>781.0</ele><time>2026-04-04T13:50:53Z</time></trkpt><trkpt lat="43.82756428828565" lon="12.363983857532231"><ele>781.0</ele><time>2026-04-04T13:50:54Z</time></trkpt><trkpt lat="43.82742579162937" lon="12.364126053121264"><ele>779.6666666666666</ele><time>2026-04-04T13:50:55Z</time></trkpt><trkpt lat="43.82728192885953" lon="12.364256494368835"><ele>778.3333333333333</ele><time>2026-04-04T13:50:56Z</time></trkpt><trkpt lat="43.82713241670258" lon="12.364367028675456"><ele>777.0</ele><time>2026-04-04T13:50:57Z</time></trkpt><trkpt lat="43.82699327246617" lon="12.364462579371734"><ele>777.0</ele><time>2026-04-04T13:50:58Z</time></trkpt><trkpt lat="43.826854490599345" lon="12.364546736820289"><ele>777.0</ele><time>2026-04-04T13:50:59Z</time></trkpt><trkpt lat="43.82670300718513" lon="12.364595856917065"><ele>777.0</ele><time>2026-04-04T13:51:00Z</time></trkpt><trkpt lat="43.82654863839297" lon="12.364583206069955"><ele>781.0</ele><time>2026-04-04T13:51:01Z</time></trkpt><trkpt lat="43.8263926257803" lon="12.364521751999836"><ele>785.0</ele><time>2026-04-04T13:51:02.001Z</time></trkpt><trkpt lat="43.826237201703826" lon="12.364445974217688"><ele>789.0</ele><time>2026-04-04T13:51:03.001Z</time></trkpt><trkpt lat="43.826080496108986" lon="12.364361682279467"><ele>782.3333333333333</ele><time>2026-04-04T13:51:04.001Z</time></trkpt><trkpt lat="43.82593708297664" lon="12.364247681597538"><ele>775.6666666666666</ele><time>2026-04-04T13:51:05.001Z</time></trkpt><trkpt lat="43.825804930015046" lon="12.364105336118698"><ele>769.0</ele><time>2026-04-04T13:51:06.001Z</time></trkpt><trkpt lat="43.8256809323391" lon="12.363941796070192"><ele>777.0</ele><time>2026-04-04T13:51:07.001Z</time></trkpt><trkpt lat="43.8255577125995" lon="12.363778525552972"><ele>785.0</ele><time>2026-04-04T13:51:08.001Z</time></trkpt><trkpt lat="43.8254295870181" lon="12.36362022791789"><ele>793.0</ele><time>2026-04-04T13:51:09.001Z</time></trkpt><trkpt lat="43.82528589747552" lon="12.3634772008458"><ele>783.6666666666666</ele><time>2026-04-04T13:51:10.001Z</time></trkpt><trkpt lat="43.8251408838827" lon="12.363350072500007"><ele>774.3333333333333</ele><time>2026-04-04T13:51:11.001Z</time></trkpt><trkpt lat="43.8249881324756" lon="12.363237142086689"><ele>765.0</ele><time>2026-04-04T13:51:12.001Z</time></trkpt><trkpt lat="43.82483469176435" lon="12.363168240104187"><ele>765.0</ele><time>2026-04-04T13:51:13.001Z</time></trkpt><trkpt lat="43.82466608384675" lon="12.363127700432079"><ele>765.0</ele><time>2026-04-04T13:51:14.001Z</time></trkpt><trkpt lat="43.82451280453294" lon="12.363125692301331"><ele>765.0</ele><time>2026-04-04T13:51:15.001Z</time></trkpt><trkpt lat="43.82437764558701" lon="12.363129818066453"><ele>762.0</ele><time>2026-04-04T13:51:16.001Z</time></trkpt><trkpt lat="43.8242672575813" lon="12.363095499352532"><ele>759.0</ele><time>2026-04-04T13:51:17.001Z</time></trkpt><trkpt lat="43.824195249056274" lon="12.363000187854935"><ele>756.0</ele><time>2026-04-04T13:51:18.001Z</time></trkpt><trkpt lat="43.824172629515104" lon="12.362870554620628"><ele>753.0</ele><time>2026-04-04T13:51:19.001Z</time></trkpt><trkpt lat="43.82420630945813" lon="12.362751593618517"><ele>750.0</ele><time>2026-04-04T13:51:20.001Z</time></trkpt><trkpt lat="43.824265091286115" lon="12.362656780939544"><ele>751.5</ele><time>2026-04-04T13:51:21.001Z</time></trkpt><trkpt lat="43.824317323391355" lon="12.362536900841649"><ele>753.0</ele><time>2026-04-04T13:51:22.001Z</time></trkpt><trkpt lat="43.82434664855473" lon="12.362388597458354"><ele>754.5</ele><time>2026-04-04T13:51:23.001Z</time></trkpt><trkpt lat="43.824336371832544" lon="12.362228579657426"><ele>756.0</ele><time>2026-04-04T13:51:24.001Z</time></trkpt><trkpt lat="43.824301344121565" lon="12.36206184641197"><ele>756.0</ele><time>2026-04-04T13:51:25.001Z</time></trkpt><trkpt lat="43.824242242447696" lon="12.36189770756204"><ele>756.0</ele><time>2026-04-04T13:51:26.001Z</time></trkpt><trkpt lat="43.82417165170412" lon="12.361746647866932"><ele>756.0</ele><time>2026-04-04T13:51:27.001Z</time></trkpt><trkpt lat="43.8240865432038" lon="12.361626438221462"><ele>756.0</ele><time>2026-04-04T13:51:28.001Z</time></trkpt><trkpt lat="43.82398140599575" lon="12.361529017227289"><ele>756.0</ele><time>2026-04-04T13:51:29.001Z</time></trkpt><trkpt lat="43.82386285463799" lon="12.361460665935496"><ele>756.0</ele><time>2026-04-04T13:51:30.001Z</time></trkpt><trkpt lat="43.823732073905695" lon="12.361429858797898"><ele>756.0</ele><time>2026-04-04T13:51:31.001Z</time></trkpt><trkpt lat="43.82359157219234" lon="12.361426686158168"><ele>756.0</ele><time>2026-04-04T13:51:32.001Z</time></trkpt><trkpt lat="43.82344542757357" lon="12.36145257213247"><ele>748.3333333333334</ele><time>2026-04-04T13:51:33.001Z</time></trkpt><trkpt lat="43.82329874148229" lon="12.36150527681697"><ele>740.6666666666667</ele><time>2026-04-04T13:51:34.001Z</time></trkpt><trkpt lat="43.8231521195103" lon="12.3615640862007"><ele>733.0</ele><time>2026-04-04T13:51:35.001Z</time></trkpt><trkpt lat="43.8230006649663" lon="12.361617837339656"><ele>733.0</ele><time>2026-04-04T13:51:36.001Z</time></trkpt><trkpt lat="43.82284640379668" lon="12.361666086776141"><ele>733.0</ele><time>2026-04-04T13:51:37.001Z</time></trkpt><trkpt lat="43.822693367142655" lon="12.361716485715577"><ele>733.0</ele><time>2026-04-04T13:51:38.001Z</time></trkpt><trkpt lat="43.82254098213271" lon="12.3617685076592"><ele>731.6666666666667</ele><time>2026-04-04T13:51:39.001Z</time></trkpt><trkpt lat="43.822389967332356" lon="12.36181776703539"><ele>730.3333333333334</ele><time>2026-04-04T13:51:40.001Z</time></trkpt><trkpt lat="43.82223783285594" lon="12.361867895999714"><ele>729.0</ele><time>2026-04-04T13:51:41.001Z</time></trkpt><trkpt lat="43.822093231317226" lon="12.36194482048094"><ele>729.0</ele><time>2026-04-04T13:51:42.001Z</time></trkpt><trkpt lat="43.82196142673771" lon="12.362063483882016"><ele>729.0</ele><time>2026-04-04T13:51:43.001Z</time></trkpt><trkpt lat="43.82183784171913" lon="12.362197103721648"><ele>729.0</ele><time>2026-04-04T13:51:44.001Z</time></trkpt><trkpt lat="43.82171794703023" lon="12.362341159799353"><ele>734.3333333333334</ele><time>2026-04-04T13:51:45.001Z</time></trkpt><trkpt lat="43.82160303691021" lon="12.362497612992739"><ele>739.6666666666667</ele><time>2026-04-04T13:51:46.001Z</time></trkpt><trkpt lat="43.82149122271968" lon="12.36266300609341"><ele>745.0</ele><time>2026-04-04T13:51:47.001Z</time></trkpt><trkpt lat="43.82137718204913" lon="12.362824232486249"><ele>745.0</ele><time>2026-04-04T13:51:48.001Z</time></trkpt><trkpt lat="43.82126745074017" lon="12.362985155738302"><ele>745.0</ele><time>2026-04-04T13:51:49.001Z</time></trkpt><trkpt lat="43.82116170236437" lon="12.363145138235534"><ele>745.0</ele><time>2026-04-04T13:51:50.001Z</time></trkpt><trkpt lat="43.82105715151276" lon="12.363305372098962"><ele>747.75</ele><time>2026-04-04T13:51:51.001Z</time></trkpt><trkpt lat="43.820948825529825" lon="12.363450247140557"><ele>750.5</ele><time>2026-04-04T13:51:52.001Z</time></trkpt><trkpt lat="43.820850916267844" lon="12.36357929061205"><ele>753.25</ele><time>2026-04-04T13:51:53.001Z</time></trkpt><trkpt lat="43.820747431186945" lon="12.363673896311393"><ele>756.0</ele><time>2026-04-04T13:51:54.001Z</time></trkpt><trkpt lat="43.82062332071628" lon="12.36372301125667"><ele>756.0</ele><time>2026-04-04T13:51:55.001Z</time></trkpt><trkpt lat="43.82049562846041" lon="12.36372651314246"><ele>756.0</ele><time>2026-04-04T13:51:56.001Z</time></trkpt><trkpt lat="43.820353813886285" lon="12.36371892200588"><ele>756.0</ele><time>2026-04-04T13:51:57.001Z</time></trkpt><trkpt lat="43.82020931133055" lon="12.363696807057032"><ele>756.0</ele><time>2026-04-04T13:51:58.001Z</time></trkpt><trkpt lat="43.82006224282418" lon="12.363664369851634"><ele>757.75</ele><time>2026-04-04T13:51:59.001Z</time></trkpt><trkpt lat="43.81992128584124" lon="12.363626857827256"><ele>759.5</ele><time>2026-04-04T13:52:00.001Z</time></trkpt><trkpt lat="43.819788665679525" lon="12.363585330369498"><ele>761.25</ele><time>2026-04-04T13:52:01.001Z</time></trkpt><trkpt lat="43.81966496286906" lon="12.363536809170537"><ele>763.0</ele><time>2026-04-04T13:52:02.001Z</time></trkpt><trkpt lat="43.81954290235523" lon="12.363461692002916"><ele>763.0</ele><time>2026-04-04T13:52:03.001Z</time></trkpt><trkpt lat="43.81942961472541" lon="12.363367452652982"><ele>763.0</ele><time>2026-04-04T13:52:04.001Z</time></trkpt><trkpt lat="43.81931744704853" lon="12.363271669167812"><ele>763.0</ele><time>2026-04-04T13:52:05.001Z</time></trkpt><trkpt lat="43.81920560516816" lon="12.363183694792875"><ele>763.0</ele><time>2026-04-04T13:52:06.001Z</time></trkpt><trkpt lat="43.81908057849659" lon="12.363135203457793"><ele>762.5</ele><time>2026-04-04T13:52:07.001Z</time></trkpt><trkpt lat="43.818942599055866" lon="12.363138409980975"><ele>762.0</ele><time>2026-04-04T13:52:08.001Z</time></trkpt><trkpt lat="43.81879950342405" lon="12.363165924707323"><ele>761.5</ele><time>2026-04-04T13:52:09.001Z</time></trkpt><trkpt lat="43.81865141558977" lon="12.363206172147041"><ele>761.0</ele><time>2026-04-04T13:52:10.001Z</time></trkpt><trkpt lat="43.81849799029443" lon="12.363243750053618"><ele>762.3333333333333</ele><time>2026-04-04T13:52:11Z</time></trkpt><trkpt lat="43.81834227283867" lon="12.36328592629111"><ele>763.6666666666666</ele><time>2026-04-04T13:52:12Z</time></trkpt><trkpt lat="43.8181852587785" lon="12.36333531079011"><ele>765.0</ele><time>2026-04-04T13:52:13Z</time></trkpt><trkpt lat="43.818026084558255" lon="12.363373732805165"><ele>765.0</ele><time>2026-04-04T13:52:14Z</time></trkpt><trkpt lat="43.81786280046673" lon="12.363392698035783"><ele>765.0</ele><time>2026-04-04T13:52:15Z</time></trkpt><trkpt lat="43.817694673582125" lon="12.363413989706693"><ele>765.0</ele><time>2026-04-04T13:52:16Z</time></trkpt><trkpt lat="43.81753261454555" lon="12.363437960525935"><ele>767.0</ele><time>2026-04-04T13:52:17Z</time></trkpt><trkpt lat="43.817383395444864" lon="12.363482281572166"><ele>769.0</ele><time>2026-04-04T13:52:18Z</time></trkpt><trkpt lat="43.81724248359764" lon="12.363573280726609"><ele>771.0</ele><time>2026-04-04T13:52:19Z</time></trkpt><trkpt lat="43.81713858855049" lon="12.363694827860567"><ele>773.0</ele><time>2026-04-04T13:52:20Z</time></trkpt><trkpt lat="43.81705433592718" lon="12.363832497437159"><ele>769.0</ele><time>2026-04-04T13:52:21Z</time></trkpt><trkpt lat="43.81698964998919" lon="12.363981141615755"><ele>765.0</ele><time>2026-04-04T13:52:22Z</time></trkpt><trkpt lat="43.81695714326576" lon="12.364141239032929"><ele>761.0</ele><time>2026-04-04T13:52:23Z</time></trkpt><trkpt lat="43.81694627619895" lon="12.364320072052683"><ele>757.0</ele><time>2026-04-04T13:52:24Z</time></trkpt><trkpt lat="43.81699681721065" lon="12.364500636857517"><ele>757.0</ele><time>2026-04-04T13:52:25Z</time></trkpt><trkpt lat="43.817053034990074" lon="12.364683839588077"><ele>757.0</ele><time>2026-04-04T13:52:26Z</time></trkpt><trkpt lat="43.81711125147419" lon="12.364854498596463"><ele>757.0</ele><time>2026-04-04T13:52:27Z</time></trkpt><trkpt lat="43.81713539226625" lon="12.365017096864579"><ele>757.0</ele><time>2026-04-04T13:52:28Z</time></trkpt><trkpt lat="43.817146131387105" lon="12.365172645516369"><ele>756.25</ele><time>2026-04-04T13:52:29Z</time></trkpt><trkpt lat="43.81709519988657" lon="12.365328327745765"><ele>755.5</ele><time>2026-04-04T13:52:30Z</time></trkpt><trkpt lat="43.81700400394688" lon="12.36545241725962"><ele>754.75</ele><time>2026-04-04T13:52:31Z</time></trkpt><trkpt lat="43.816892637330234" lon="12.365567111094617"><ele>754.0</ele><time>2026-04-04T13:52:32Z</time></trkpt><trkpt lat="43.81677572650914" lon="12.365673107798534"><ele>756.0</ele><time>2026-04-04T13:52:33Z</time></trkpt><trkpt lat="43.81665661616402" lon="12.365785889241627"><ele>758.0</ele><time>2026-04-04T13:52:34Z</time></trkpt><trkpt lat="43.816544922850134" lon="12.365910179964686"><ele>760.0</ele><time>2026-04-04T13:52:35Z</time></trkpt><trkpt lat="43.81644417140864" lon="12.36606066081494"><ele>762.0</ele><time>2026-04-04T13:52:36Z</time></trkpt><trkpt lat="43.8163665818807" lon="12.366231870673365"><ele>760.5</ele><time>2026-04-04T13:52:37Z</time></trkpt><trkpt lat="43.816296838189025" lon="12.366411298299774"><ele>759.0</ele><time>2026-04-04T13:52:38Z</time></trkpt><trkpt lat="43.81621834335858" lon="12.366587005125012"><ele>757.5</ele><time>2026-04-04T13:52:39Z</time></trkpt><trkpt lat="43.81614119465752" lon="12.366757013723921"><ele>756.0</ele><time>2026-04-04T13:52:40Z</time></trkpt><trkpt lat="43.81606755350609" lon="12.366922432163893"><ele>756.0</ele><time>2026-04-04T13:52:41Z</time></trkpt><trkpt lat="43.81599238089647" lon="12.367076660334504"><ele>756.0</ele><time>2026-04-04T13:52:42Z</time></trkpt><trkpt lat="43.81591303150536" lon="12.367223674199135"><ele>756.0</ele><time>2026-04-04T13:52:43Z</time></trkpt><trkpt lat="43.815830750218986" lon="12.36736880542099"><ele>756.0</ele><time>2026-04-04T13:52:44Z</time></trkpt><trkpt lat="43.81575149830108" lon="12.367517999912703"><ele>756.5</ele><time>2026-04-04T13:52:45Z</time></trkpt><trkpt lat="43.81566604119292" lon="12.367662655050331"><ele>757.0</ele><time>2026-04-04T13:52:46Z</time></trkpt><trkpt lat="43.81557681195163" lon="12.367800653684595"><ele>757.5</ele><time>2026-04-04T13:52:47Z</time></trkpt><trkpt lat="43.81548195604847" lon="12.36793395664576"><ele>758.0</ele><time>2026-04-04T13:52:48Z</time></trkpt><trkpt lat="43.81538743923081" lon="12.368071268788803"><ele>757.0</ele><time>2026-04-04T13:52:49Z</time></trkpt><trkpt lat="43.81529296470811" lon="12.368210238877282"><ele>756.0</ele><time>2026-04-04T13:52:50Z</time></trkpt><trkpt lat="43.81519040367544" lon="12.368344136830219"><ele>755.0</ele><time>2026-04-04T13:52:51Z</time></trkpt><trkpt lat="43.81508861935727" lon="12.368480741804772"><ele>754.0</ele><time>2026-04-04T13:52:52Z</time></trkpt><trkpt lat="43.814993976834906" lon="12.368638125683729"><ele>754.0</ele><time>2026-04-04T13:52:53Z</time></trkpt><trkpt lat="43.81490384720496" lon="12.368807911792116"><ele>754.0</ele><time>2026-04-04T13:52:54Z</time></trkpt><trkpt lat="43.814818075432214" lon="12.368983989499432"><ele>754.0</ele><time>2026-04-04T13:52:55Z</time></trkpt><trkpt lat="43.81472818107119" lon="12.369163431115874"><ele>752.3333333333334</ele><time>2026-04-04T13:52:56Z</time></trkpt><trkpt lat="43.814630373399645" lon="12.369334902604459"><ele>750.6666666666666</ele><time>2026-04-04T13:52:57Z</time></trkpt><trkpt lat="43.81452811226219" lon="12.369499888568207"><ele>749.0</ele><time>2026-04-04T13:52:58Z</time></trkpt><trkpt lat="43.81442521460156" lon="12.369653049788576"><ele>748.75</ele><time>2026-04-04T13:52:59Z</time></trkpt><trkpt lat="43.81431449576918" lon="12.36978877411505"><ele>748.5</ele><time>2026-04-04T13:53:00Z</time></trkpt><trkpt lat="43.814188993296995" lon="12.369896868153274"><ele>748.25</ele><time>2026-04-04T13:53:01Z</time></trkpt><trkpt lat="43.81404524738538" lon="12.369950233377821"><ele>748.0</ele><time>2026-04-04T13:53:02Z</time></trkpt><trkpt lat="43.813896848457816" lon="12.369962762103192"><ele>748.0</ele><time>2026-04-04T13:53:03.001Z</time></trkpt><trkpt lat="43.81376236607559" lon="12.369961726925279"><ele>748.0</ele><time>2026-04-04T13:53:04.001Z</time></trkpt><trkpt lat="43.81364801027189" lon="12.3699814258284"><ele>748.0</ele><time>2026-04-04T13:53:05.001Z</time></trkpt><trkpt lat="43.813546184555555" lon="12.37003587108169"><ele>748.0</ele><time>2026-04-04T13:53:06.001Z</time></trkpt><trkpt lat="43.81346047574036" lon="12.370138762762984"><ele>746.25</ele><time>2026-04-04T13:53:07.001Z</time></trkpt><trkpt lat="43.81340468050541" lon="12.370280219825597"><ele>744.5</ele><time>2026-04-04T13:53:08.001Z</time></trkpt><trkpt lat="43.8133643888491" lon="12.370441325051232"><ele>742.75</ele><time>2026-04-04T13:53:09.001Z</time></trkpt><trkpt lat="43.813327645369945" lon="12.370601686732977"><ele>741.0</ele><time>2026-04-04T13:53:10.001Z</time></trkpt><trkpt lat="43.81330670994865" lon="12.370765581785442"><ele>740.75</ele><time>2026-04-04T13:53:11.001Z</time></trkpt><trkpt lat="43.81330244867071" lon="12.370941647362732"><ele>740.5</ele><time>2026-04-04T13:53:12.001Z</time></trkpt><trkpt lat="43.81331457835641" lon="12.371125343073215"><ele>740.25</ele><time>2026-04-04T13:53:13.001Z</time></trkpt><trkpt lat="43.81333668320293" lon="12.371304586863719"><ele>740.0</ele><time>2026-04-04T13:53:14.001Z</time></trkpt><trkpt lat="43.8133615773341" lon="12.371488043971247"><ele>739.5</ele><time>2026-04-04T13:53:15.001Z</time></trkpt><trkpt lat="43.8133829780824" lon="12.3716703932256"><ele>739.0</ele><time>2026-04-04T13:53:16.001Z</time></trkpt><trkpt lat="43.81340520673887" lon="12.371839396446044"><ele>738.5</ele><time>2026-04-04T13:53:17.001Z</time></trkpt><trkpt lat="43.81342795961707" lon="12.37199975083027"><ele>738.0</ele><time>2026-04-04T13:53:18.001Z</time></trkpt><trkpt lat="43.81344705341538" lon="12.372139533471897"><ele>738.0</ele><time>2026-04-04T13:53:19.001Z</time></trkpt><trkpt lat="43.813456641407996" lon="12.372249759191961"><ele>738.0</ele><time>2026-04-04T13:53:20.001Z</time></trkpt><trkpt lat="43.81344299410649" lon="12.372338695662826"><ele>738.0</ele><time>2026-04-04T13:53:21.001Z</time></trkpt><trkpt lat="43.81335063423423" lon="12.372416577667835"><ele>738.0</ele><time>2026-04-04T13:53:23.001Z</time></trkpt><trkpt lat="43.81324998030729" lon="12.37230956284855"><ele>738.0</ele><time>2026-04-04T13:53:25.001Z</time></trkpt><trkpt lat="43.813225531134215" lon="12.37221182990504"><ele>738.0</ele><time>2026-04-04T13:53:26.001Z</time></trkpt><trkpt lat="43.813204024430256" lon="12.372100521630186"><ele>738.0</ele><time>2026-04-04T13:53:27.001Z</time></trkpt><trkpt lat="43.81317675247406" lon="12.371981491747265"><ele>738.0</ele><time>2026-04-04T13:53:28.001Z</time></trkpt><trkpt lat="43.813144255264376" lon="12.371855674445436"><ele>738.0</ele><time>2026-04-04T13:53:29.001Z</time></trkpt><trkpt lat="43.81310735372346" lon="12.371724420472122"><ele>738.0</ele><time>2026-04-04T13:53:30.001Z</time></trkpt><trkpt lat="43.81307507638678" lon="12.37158442407528"><ele>738.0</ele><time>2026-04-04T13:53:31.001Z</time></trkpt><trkpt lat="43.813041300803185" lon="12.371441295359498"><ele>738.0</ele><time>2026-04-04T13:53:32.001Z</time></trkpt><trkpt lat="43.81300120769817" lon="12.371295899144966"><ele>738.0</ele><time>2026-04-04T13:53:33.001Z</time></trkpt><trkpt lat="43.812965042294394" lon="12.371144236258877"><ele>738.0</ele><time>2026-04-04T13:53:34.001Z</time></trkpt><trkpt lat="43.8129277135232" lon="12.370981575404608"><ele>738.5</ele><time>2026-04-04T13:53:35.001Z</time></trkpt><trkpt lat="43.812887577915085" lon="12.370819810542667"><ele>739.0</ele><time>2026-04-04T13:53:36.001Z</time></trkpt><trkpt lat="43.8128451064148" lon="12.37065929308999"><ele>739.5</ele><time>2026-04-04T13:53:37.001Z</time></trkpt><trkpt lat="43.81279566799059" lon="12.370511128597553"><ele>740.0</ele><time>2026-04-04T13:53:38.001Z</time></trkpt><trkpt lat="43.8127159106397" lon="12.370388750640508"><ele>736.25</ele><time>2026-04-04T13:53:39.001Z</time></trkpt><trkpt lat="43.81261873225788" lon="12.370284475683336"><ele>732.5</ele><time>2026-04-04T13:53:40.001Z</time></trkpt><trkpt lat="43.81251872497566" lon="12.370175810799346"><ele>728.75</ele><time>2026-04-04T13:53:41.001Z</time></trkpt><trkpt lat="43.81242761114519" lon="12.37006886630631"><ele>725.0</ele><time>2026-04-04T13:53:42.001Z</time></trkpt><trkpt lat="43.81235028586954" lon="12.369960386756155"><ele>725.0</ele><time>2026-04-04T13:53:43.001Z</time></trkpt><trkpt lat="43.812295987462726" lon="12.369832834505331"><ele>725.0</ele><time>2026-04-04T13:53:44.001Z</time></trkpt><trkpt lat="43.812291335571906" lon="12.369687038070413"><ele>725.0</ele><time>2026-04-04T13:53:45.001Z</time></trkpt><trkpt lat="43.81233465305625" lon="12.369553723141092"><ele>725.0</ele><time>2026-04-04T13:53:46.001Z</time></trkpt><trkpt lat="43.8124045297259" lon="12.369436337128642"><ele>725.0</ele><time>2026-04-04T13:53:47.001Z</time></trkpt><trkpt lat="43.81248365316332" lon="12.36930942863179"><ele>725.25</ele><time>2026-04-04T13:53:48.001Z</time></trkpt><trkpt lat="43.81256398703861" lon="12.369168550248565"><ele>725.5</ele><time>2026-04-04T13:53:49.001Z</time></trkpt><trkpt lat="43.81264236049235" lon="12.369017661072563"><ele>725.75</ele><time>2026-04-04T13:53:50.001Z</time></trkpt><trkpt lat="43.81271454074678" lon="12.368855736524129"><ele>726.0</ele><time>2026-04-04T13:53:51.001Z</time></trkpt><trkpt lat="43.81275753965739" lon="12.368674161432754"><ele>726.0</ele><time>2026-04-04T13:53:52.001Z</time></trkpt><trkpt lat="43.81276754137471" lon="12.368476978542692"><ele>726.0</ele><time>2026-04-04T13:53:53.001Z</time></trkpt><trkpt lat="43.812763473345726" lon="12.368274114100513"><ele>726.0</ele><time>2026-04-04T13:53:54.001Z</time></trkpt><trkpt lat="43.81277545364663" lon="12.36807400214732"><ele>726.0</ele><time>2026-04-04T13:53:55.001Z</time></trkpt><trkpt lat="43.812809797073356" lon="12.367872662970404"><ele>723.3333333333334</ele><time>2026-04-04T13:53:56.001Z</time></trkpt><trkpt lat="43.812855244051164" lon="12.367673420008309"><ele>720.6666666666667</ele><time>2026-04-04T13:53:57.001Z</time></trkpt><trkpt lat="43.81290164540105" lon="12.36747360082623"><ele>718.0</ele><time>2026-04-04T13:53:58.001Z</time></trkpt><trkpt lat="43.81295810531462" lon="12.367279852602563"><ele>716.5</ele><time>2026-04-04T13:53:59.001Z</time></trkpt><trkpt lat="43.81302435090864" lon="12.367095515847213"><ele>715.0</ele><time>2026-04-04T13:54:00.001Z</time></trkpt><trkpt lat="43.81310398512719" lon="12.366924099896815"><ele>713.5</ele><time>2026-04-04T13:54:01.001Z</time></trkpt><trkpt lat="43.813190722175925" lon="12.366762534118838"><ele>712.0</ele><time>2026-04-04T13:54:02.001Z</time></trkpt><trkpt lat="43.8132753884871" lon="12.366598346908047"><ele>712.0</ele><time>2026-04-04T13:54:03.001Z</time></trkpt><trkpt lat="43.81334542366938" lon="12.366426112199676"><ele>712.0</ele><time>2026-04-04T13:54:04.001Z</time></trkpt><trkpt lat="43.8133657964235" lon="12.366242307746887"><ele>712.0</ele><time>2026-04-04T13:54:05.001Z</time></trkpt><trkpt lat="43.81332346996173" lon="12.36607155635441"><ele>712.0</ele><time>2026-04-04T13:54:06.001Z</time></trkpt><trkpt lat="43.81325046425857" lon="12.36592569908905"><ele>712.25</ele><time>2026-04-04T13:54:07.001Z</time></trkpt><trkpt lat="43.81315444098045" lon="12.36580745627735"><ele>712.5</ele><time>2026-04-04T13:54:08.001Z</time></trkpt><trkpt lat="43.8130323637725" lon="12.365728508610669"><ele>712.75</ele><time>2026-04-04T13:54:09.001Z</time></trkpt><trkpt lat="43.812894771485844" lon="12.36567426037106"><ele>713.0</ele><time>2026-04-04T13:54:10.001Z</time></trkpt><trkpt lat="43.812754565818565" lon="12.36561177840449"><ele>711.5</ele><time>2026-04-04T13:54:11.001Z</time></trkpt><trkpt lat="43.812615591897135" lon="12.365535175726446"><ele>710.0</ele><time>2026-04-04T13:54:12.001Z</time></trkpt><trkpt lat="43.8124808311202" lon="12.365459818216882"><ele>708.5</ele><time>2026-04-04T13:54:13.001Z</time></trkpt><trkpt lat="43.81235610523551" lon="12.365356654946737"><ele>707.0</ele><time>2026-04-04T13:54:14.001Z</time></trkpt><trkpt lat="43.812249576687016" lon="12.365224009288443"><ele>707.0</ele><time>2026-04-04T13:54:15.001Z</time></trkpt><trkpt lat="43.81214293633277" lon="12.365080085166761"><ele>707.0</ele><time>2026-04-04T13:54:16.001Z</time></trkpt><trkpt lat="43.81203568927212" lon="12.364943503576464"><ele>707.0</ele><time>2026-04-04T13:54:17Z</time></trkpt><trkpt lat="43.81192530457494" lon="12.364814135431315"><ele>707.0</ele><time>2026-04-04T13:54:18Z</time></trkpt><trkpt lat="43.81181282708261" lon="12.364685136899928"><ele>706.0</ele><time>2026-04-04T13:54:19Z</time></trkpt><trkpt lat="43.81169277823882" lon="12.364568181259916"><ele>705.0</ele><time>2026-04-04T13:54:20Z</time></trkpt><trkpt lat="43.811561317981834" lon="12.36448232326293"><ele>704.0</ele><time>2026-04-04T13:54:21Z</time></trkpt><trkpt lat="43.81141980173199" lon="12.36443933742675"><ele>703.0</ele><time>2026-04-04T13:54:22Z</time></trkpt><trkpt lat="43.811277629293286" lon="12.364414668261619"><ele>703.0</ele><time>2026-04-04T13:54:23Z</time></trkpt><trkpt lat="43.81113256282165" lon="12.364399724946951"><ele>703.0</ele><time>2026-04-04T13:54:24Z</time></trkpt><trkpt lat="43.81098917534682" lon="12.364392013588956"><ele>703.0</ele><time>2026-04-04T13:54:25Z</time></trkpt><trkpt lat="43.81084532377531" lon="12.364373967407849"><ele>703.0</ele><time>2026-04-04T13:54:26Z</time></trkpt><trkpt lat="43.81070393276279" lon="12.364347844541252"><ele>699.75</ele><time>2026-04-04T13:54:27Z</time></trkpt><trkpt lat="43.81056622757615" lon="12.364329920493258"><ele>696.5</ele><time>2026-04-04T13:54:28Z</time></trkpt><trkpt lat="43.810433720948595" lon="12.364327672895822"><ele>693.25</ele><time>2026-04-04T13:54:29Z</time></trkpt><trkpt lat="43.81030918452219" lon="12.364362983004554"><ele>690.0</ele><time>2026-04-04T13:54:30Z</time></trkpt><trkpt lat="43.810196687200914" lon="12.36443323387816"><ele>690.75</ele><time>2026-04-04T13:54:31Z</time></trkpt><trkpt lat="43.81009225948992" lon="12.364525046175341"><ele>691.5</ele><time>2026-04-04T13:54:32Z</time></trkpt><trkpt lat="43.80999624985428" lon="12.36462520284872"><ele>692.25</ele><time>2026-04-04T13:54:33Z</time></trkpt><trkpt lat="43.80989825877476" lon="12.364719631257467"><ele>693.0</ele><time>2026-04-04T13:54:34Z</time></trkpt><trkpt lat="43.80979118076176" lon="12.36480149190776"><ele>691.0</ele><time>2026-04-04T13:54:35Z</time></trkpt><trkpt lat="43.80967077444006" lon="12.364856661929661"><ele>689.0</ele><time>2026-04-04T13:54:36Z</time></trkpt><trkpt lat="43.80954301287729" lon="12.364886194712312"><ele>687.0</ele><time>2026-04-04T13:54:37Z</time></trkpt><trkpt lat="43.80940967767926" lon="12.364904924068773"><ele>685.0</ele><time>2026-04-04T13:54:38Z</time></trkpt><trkpt lat="43.80927511124991" lon="12.364921829677339"><ele>683.75</ele><time>2026-04-04T13:54:39Z</time></trkpt><trkpt lat="43.809136429001825" lon="12.364939153300165"><ele>682.5</ele><time>2026-04-04T13:54:40Z</time></trkpt><trkpt lat="43.80899473436876" lon="12.364959256637063"><ele>681.25</ele><time>2026-04-04T13:54:41Z</time></trkpt><trkpt lat="43.80885063387906" lon="12.364975775471232"><ele>680.0</ele><time>2026-04-04T13:54:42Z</time></trkpt><trkpt lat="43.80869832164891" lon="12.365009661782526"><ele>680.0</ele><time>2026-04-04T13:54:43Z</time></trkpt><trkpt lat="43.80855678504714" lon="12.365058151648627"><ele>680.0</ele><time>2026-04-04T13:54:44Z</time></trkpt><trkpt lat="43.808426659576675" lon="12.365135403357504"><ele>680.0</ele><time>2026-04-04T13:54:45Z</time></trkpt><trkpt lat="43.808305238468" lon="12.365249233558329"><ele>680.0</ele><time>2026-04-04T13:54:46Z</time></trkpt><trkpt lat="43.808181171691544" lon="12.365372271578396"><ele>679.6666666666666</ele><time>2026-04-04T13:54:47Z</time></trkpt><trkpt lat="43.808054250904206" lon="12.365496126234047"><ele>679.3333333333334</ele><time>2026-04-04T13:54:48Z</time></trkpt><trkpt lat="43.80793467693956" lon="12.36561656840239"><ele>679.0</ele><time>2026-04-04T13:54:49Z</time></trkpt><trkpt lat="43.807810337605126" lon="12.365730274221303"><ele>678.75</ele><time>2026-04-04T13:54:50Z</time></trkpt><trkpt lat="43.80767757960852" lon="12.365797412023737"><ele>678.5</ele><time>2026-04-04T13:54:51Z</time></trkpt><trkpt lat="43.80753577743491" lon="12.36581166440109"><ele>678.25</ele><time>2026-04-04T13:54:52Z</time></trkpt><trkpt lat="43.80739907261108" lon="12.365799093447503"><ele>678.0</ele><time>2026-04-04T13:54:53Z</time></trkpt><trkpt lat="43.807262009275604" lon="12.365757651063584"><ele>678.0</ele><time>2026-04-04T13:54:54Z</time></trkpt><trkpt lat="43.807122342495205" lon="12.365717273136717"><ele>678.0</ele><time>2026-04-04T13:54:55Z</time></trkpt><trkpt lat="43.80698001379229" lon="12.365684992090769"><ele>678.0</ele><time>2026-04-04T13:54:56Z</time></trkpt><trkpt lat="43.806843650001134" lon="12.36564395998447"><ele>678.0</ele><time>2026-04-04T13:54:57Z</time></trkpt><trkpt lat="43.8067186664592" lon="12.365564738833502"><ele>678.5</ele><time>2026-04-04T13:54:58Z</time></trkpt><trkpt lat="43.806604785918196" lon="12.365450180126782"><ele>679.0</ele><time>2026-04-04T13:54:59Z</time></trkpt><trkpt lat="43.80649641295804" lon="12.365317708566337"><ele>679.5</ele><time>2026-04-04T13:55:00Z</time></trkpt><trkpt lat="43.80638931236674" lon="12.36517845064218"><ele>680.0</ele><time>2026-04-04T13:55:01Z</time></trkpt><trkpt lat="43.80627742334476" lon="12.365033862350955"><ele>680.0</ele><time>2026-04-04T13:55:02Z</time></trkpt><trkpt lat="43.8061640111064" lon="12.364885155873317"><ele>680.0</ele><time>2026-04-04T13:55:03Z</time></trkpt><trkpt lat="43.80604218262435" lon="12.364744724119483"><ele>680.0</ele><time>2026-04-04T13:55:04Z</time></trkpt><trkpt lat="43.805904899407054" lon="12.364635194971399"><ele>680.6666666666666</ele><time>2026-04-04T13:55:05Z</time></trkpt><trkpt lat="43.80575337008484" lon="12.364558693250082"><ele>681.3333333333334</ele><time>2026-04-04T13:55:06Z</time></trkpt><trkpt lat="43.805602560541985" lon="12.364484378262278"><ele>682.0</ele><time>2026-04-04T13:55:07Z</time></trkpt><trkpt lat="43.80545507787264" lon="12.364413508155184"><ele>682.0</ele><time>2026-04-04T13:55:08Z</time></trkpt><trkpt lat="43.80530477826553" lon="12.364368032417818"><ele>682.0</ele><time>2026-04-04T13:55:09Z</time></trkpt><trkpt lat="43.80514750934783" lon="12.36436508761061"><ele>682.0</ele><time>2026-04-04T13:55:10Z</time></trkpt><trkpt lat="43.8049876205599" lon="12.36438885458426"><ele>681.6666666666667</ele><time>2026-04-04T13:55:11Z</time></trkpt><trkpt lat="43.80482529518782" lon="12.364424332927175"><ele>681.3333333333334</ele><time>2026-04-04T13:55:12Z</time></trkpt><trkpt lat="43.80466268725124" lon="12.364449179333116"><ele>681.0</ele><time>2026-04-04T13:55:13.001Z</time></trkpt><trkpt lat="43.80449656398736" lon="12.364471187506272"><ele>681.3333333333334</ele><time>2026-04-04T13:55:14.001Z</time></trkpt><trkpt lat="43.804326790812624" lon="12.36449460651868"><ele>681.6666666666667</ele><time>2026-04-04T13:55:15.001Z</time></trkpt><trkpt lat="43.80415661892057" lon="12.364516612436432"><ele>682.0</ele><time>2026-04-04T13:55:16.001Z</time></trkpt><trkpt lat="43.803986698633196" lon="12.364537528877293"><ele>682.0</ele><time>2026-04-04T13:55:17.001Z</time></trkpt><trkpt lat="43.803823201812406" lon="12.364552553823117"><ele>682.0</ele><time>2026-04-04T13:55:18.001Z</time></trkpt><trkpt lat="43.80368190213995" lon="12.364562519346373"><ele>682.0</ele><time>2026-04-04T13:55:19.001Z</time></trkpt><trkpt lat="43.80355795762171" lon="12.364568777177888"><ele>682.0</ele><time>2026-04-04T13:55:20.001Z</time></trkpt><trkpt lat="43.803454528716685" lon="12.364584739928365"><ele>681.4000000000001</ele><time>2026-04-04T13:55:21.001Z</time></trkpt><trkpt lat="43.80335473735961" lon="12.364610228913246"><ele>680.8000000000001</ele><time>2026-04-04T13:55:22.001Z</time></trkpt><trkpt lat="43.80327422978539" lon="12.36472246330847"><ele>680.2</ele><time>2026-04-04T13:55:23.001Z</time></trkpt><trkpt lat="43.80320456705723" lon="12.364826939172389"><ele>679.6</ele><time>2026-04-04T13:55:24.001Z</time></trkpt><trkpt lat="43.80314394823603" lon="12.364934767352867"><ele>679.0</ele><time>2026-04-04T13:55:25.001Z</time></trkpt><trkpt lat="43.803086351695676" lon="12.365044951453042"><ele>677.8333333333334</ele><time>2026-04-04T13:55:26.001Z</time></trkpt><trkpt lat="43.8030326449233" lon="12.365149519206799"><ele>676.6666666666667</ele><time>2026-04-04T13:55:27.001Z</time></trkpt><trkpt lat="43.80299015713423" lon="12.365227874141457"><ele>675.5</ele><time>2026-04-04T13:55:28.001Z</time></trkpt><trkpt lat="43.80293712211282" lon="12.365313999064593"><ele>674.3333333333334</ele><time>2026-04-04T13:55:30.001Z</time></trkpt><trkpt lat="43.80289941513962" lon="12.365389121731038"><ele>673.1666666666666</ele><time>2026-04-04T13:55:38.001Z</time></trkpt><trkpt lat="43.80295084169464" lon="12.365504708861918"><ele>672.0</ele><time>2026-04-04T13:55:39.001Z</time></trkpt><trkpt lat="43.802997034972115" lon="12.365570154754181"><ele>671.0</ele><time>2026-04-04T13:55:40.001Z</time></trkpt><trkpt lat="43.803042288519734" lon="12.365643514077385"><ele>670.0</ele><time>2026-04-04T13:55:41.001Z</time></trkpt><trkpt lat="43.80309130650336" lon="12.365728017584214"><ele>669.0</ele><time>2026-04-04T13:55:42.001Z</time></trkpt><trkpt lat="43.80314797881783" lon="12.365810483888641"><ele>668.0</ele><time>2026-04-04T13:55:43.001Z</time></trkpt><trkpt lat="43.80319015835388" lon="12.365915476110173"><ele>667.0</ele><time>2026-04-04T13:55:44.001Z</time></trkpt><trkpt lat="43.803245754359146" lon="12.366011044712192"><ele>666.0</ele><time>2026-04-04T13:55:45.001Z</time></trkpt><trkpt lat="43.803304926174036" lon="12.366111815540156"><ele>666.0</ele><time>2026-04-04T13:55:46.001Z</time></trkpt><trkpt lat="43.80338062062831" lon="12.36620854659907"><ele>666.0</ele><time>2026-04-04T13:55:47.001Z</time></trkpt><trkpt lat="43.803447742001055" lon="12.366328572795211"><ele>666.0</ele><time>2026-04-04T13:55:48.001Z</time></trkpt><trkpt lat="43.80351650606525" lon="12.366448771635675"><ele>666.0</ele><time>2026-04-04T13:55:49.001Z</time></trkpt><trkpt lat="43.80359243147568" lon="12.366574238523993"><ele>666.0</ele><time>2026-04-04T13:55:50.001Z</time></trkpt><trkpt lat="43.80368141687789" lon="12.366702317335283"><ele>663.75</ele><time>2026-04-04T13:55:51.001Z</time></trkpt><trkpt lat="43.80377800582658" lon="12.366830892541557"><ele>661.5</ele><time>2026-04-04T13:55:52.001Z</time></trkpt><trkpt lat="43.80388124836161" lon="12.366961016540385"><ele>659.25</ele><time>2026-04-04T13:55:53.001Z</time></trkpt><trkpt lat="43.80398849872217" lon="12.367093487135723"><ele>657.0</ele><time>2026-04-04T13:55:54.001Z</time></trkpt><trkpt lat="43.80409931338905" lon="12.367229153217995"><ele>654.6666666666666</ele><time>2026-04-04T13:55:55.001Z</time></trkpt><trkpt lat="43.80420260009296" lon="12.367385814750378"><ele>652.3333333333333</ele><time>2026-04-04T13:55:56.001Z</time></trkpt><trkpt lat="43.80431763190133" lon="12.367528852493434"><ele>650.0</ele><time>2026-04-04T13:55:57.001Z</time></trkpt><trkpt lat="43.80443561500558" lon="12.367669790583019"><ele>649.6666666666666</ele><time>2026-04-04T13:55:58.001Z</time></trkpt><trkpt lat="43.80455483377776" lon="12.367814537855095"><ele>649.3333333333334</ele><time>2026-04-04T13:55:59.001Z</time></trkpt><trkpt lat="43.804673549956625" lon="12.36796104452983"><ele>649.0</ele><time>2026-04-04T13:56:00.001Z</time></trkpt><trkpt lat="43.80479126420598" lon="12.368114039714836"><ele>647.3333333333334</ele><time>2026-04-04T13:56:01.001Z</time></trkpt><trkpt lat="43.80491079268518" lon="12.36826627335548"><ele>645.6666666666666</ele><time>2026-04-04T13:56:02.001Z</time></trkpt><trkpt lat="43.80503197762118" lon="12.36841872107385"><ele>644.0</ele><time>2026-04-04T13:56:03.001Z</time></trkpt><trkpt lat="43.805155983662765" lon="12.368569111418442"><ele>642.0</ele><time>2026-04-04T13:56:04.001Z</time></trkpt><trkpt lat="43.805280638194624" lon="12.368718282222945"><ele>640.0</ele><time>2026-04-04T13:56:05.001Z</time></trkpt><trkpt lat="43.805403600366525" lon="12.368870090898014"><ele>638.0</ele><time>2026-04-04T13:56:06.001Z</time></trkpt><trkpt lat="43.80552494539891" lon="12.369023581355219"><ele>637.6666666666666</ele><time>2026-04-04T13:56:07.001Z</time></trkpt><trkpt lat="43.8056449140194" lon="12.369174340997995"><ele>637.3333333333334</ele><time>2026-04-04T13:56:08.001Z</time></trkpt><trkpt lat="43.80576448911664" lon="12.369322157265769"><ele>637.0</ele><time>2026-04-04T13:56:09.001Z</time></trkpt><trkpt lat="43.805880751992206" lon="12.369464322010934"><ele>637.0</ele><time>2026-04-04T13:56:10.001Z</time></trkpt><trkpt lat="43.80599580360925" lon="12.369601433995513"><ele>637.0</ele><time>2026-04-04T13:56:11.001Z</time></trkpt><trkpt lat="43.806107733031816" lon="12.369737510839466"><ele>637.0</ele><time>2026-04-04T13:56:12.001Z</time></trkpt><trkpt lat="43.806217892427036" lon="12.36986990068782"><ele>637.0</ele><time>2026-04-04T13:56:13.001Z</time></trkpt><trkpt lat="43.80629389724491" lon="12.370044396760509"><ele>636.0</ele><time>2026-04-04T13:56:14.001Z</time></trkpt><trkpt lat="43.806352399456976" lon="12.370235252981548"><ele>635.0</ele><time>2026-04-04T13:56:15.001Z</time></trkpt><trkpt lat="43.806376135951645" lon="12.370434106748965"><ele>634.0</ele><time>2026-04-04T13:56:16.001Z</time></trkpt><trkpt lat="43.80637164844463" lon="12.370644079521155"><ele>633.0</ele><time>2026-04-04T13:56:17.001Z</time></trkpt><trkpt lat="43.806344694381814" lon="12.370849440046873"><ele>631.0</ele><time>2026-04-04T13:56:18.001Z</time></trkpt><trkpt lat="43.806296746030206" lon="12.371052266789388"><ele>629.0</ele><time>2026-04-04T13:56:19.001Z</time></trkpt><trkpt lat="43.80625666953894" lon="12.371259163937196"><ele>627.0</ele><time>2026-04-04T13:56:20.001Z</time></trkpt><trkpt lat="43.80621565683756" lon="12.371475512842665"><ele>624.0</ele><time>2026-04-04T13:56:21.001Z</time></trkpt><trkpt lat="43.80617534459684" lon="12.371693273391372"><ele>621.0</ele><time>2026-04-04T13:56:22.001Z</time></trkpt><trkpt lat="43.806137023632466" lon="12.37191054821946"><ele>618.0</ele><time>2026-04-04T13:56:23Z</time></trkpt><trkpt lat="43.8060956484973" lon="12.37212892655327"><ele>618.3333333333334</ele><time>2026-04-04T13:56:24Z</time></trkpt><trkpt lat="43.806048771101096" lon="12.372346307978763"><ele>618.6666666666667</ele><time>2026-04-04T13:56:25Z</time></trkpt><trkpt lat="43.80600596875337" lon="12.37256443997353"><ele>619.0</ele><time>2026-04-04T13:56:26Z</time></trkpt><trkpt lat="43.80596381064109" lon="12.37278708119161"><ele>619.0</ele><time>2026-04-04T13:56:27Z</time></trkpt><trkpt lat="43.80591063158744" lon="12.373005261152858"><ele>619.0</ele><time>2026-04-04T13:56:28Z</time></trkpt><trkpt lat="43.805845795705416" lon="12.37321676035118"><ele>619.0</ele><time>2026-04-04T13:56:29Z</time></trkpt><trkpt lat="43.8057736186747" lon="12.373427084622499"><ele>615.6666666666667</ele><time>2026-04-04T13:56:30Z</time></trkpt><trkpt lat="43.80569706028992" lon="12.373636016739885"><ele>612.3333333333334</ele><time>2026-04-04T13:56:31Z</time></trkpt><trkpt lat="43.80562028493717" lon="12.37384114305398"><ele>609.0</ele><time>2026-04-04T13:56:32Z</time></trkpt><trkpt lat="43.805545547903385" lon="12.374044739377398"><ele>604.6666666666666</ele><time>2026-04-04T13:56:33Z</time></trkpt><trkpt lat="43.80547081654312" lon="12.374251029642798"><ele>600.3333333333333</ele><time>2026-04-04T13:56:34Z</time></trkpt><trkpt lat="43.80539576608987" lon="12.374452817273301"><ele>596.0</ele><time>2026-04-04T13:56:35Z</time></trkpt><trkpt lat="43.80531891571132" lon="12.374648211188262"><ele>596.5</ele><time>2026-04-04T13:56:36Z</time></trkpt><trkpt lat="43.80524905067219" lon="12.374837236941017"><ele>597.0</ele><time>2026-04-04T13:56:37Z</time></trkpt><trkpt lat="43.80518285089785" lon="12.375019035236347"><ele>597.5</ele><time>2026-04-04T13:56:38Z</time></trkpt><trkpt lat="43.80510193773523" lon="12.375182234088843"><ele>598.0</ele><time>2026-04-04T13:56:39Z</time></trkpt><trkpt lat="43.80500045437696" lon="12.375330052397082"><ele>598.0</ele><time>2026-04-04T13:56:40Z</time></trkpt><trkpt lat="43.80488662643228" lon="12.375458161713743"><ele>598.0</ele><time>2026-04-04T13:56:41Z</time></trkpt><trkpt lat="43.804770181164834" lon="12.375574767458902"><ele>598.0</ele><time>2026-04-04T13:56:42Z</time></trkpt><trkpt lat="43.804659228251836" lon="12.375681950128683"><ele>598.0</ele><time>2026-04-04T13:56:43Z</time></trkpt><trkpt lat="43.804554330950836" lon="12.375792394903653"><ele>597.1999999999999</ele><time>2026-04-04T13:56:44Z</time></trkpt><trkpt lat="43.804458028136416" lon="12.375903091745338"><ele>596.4</ele><time>2026-04-04T13:56:45Z</time></trkpt><trkpt lat="43.80437286804902" lon="12.376012903708574"><ele>595.5999999999999</ele><time>2026-04-04T13:56:46Z</time></trkpt><trkpt lat="43.80429892317447" lon="12.376119481712063"><ele>594.8</ele><time>2026-04-04T13:56:47Z</time></trkpt><trkpt lat="43.80424023235714" lon="12.376217285327659"><ele>594.0</ele><time>2026-04-04T13:56:48Z</time></trkpt><trkpt lat="43.804196388666774" lon="12.376294738965498"><ele>593.0</ele><time>2026-04-04T13:56:49Z</time></trkpt><trkpt lat="43.80414786545166" lon="12.376361684050023"><ele>592.0</ele><time>2026-04-04T13:56:50Z</time></trkpt><trkpt lat="43.804081850920994" lon="12.376420133808907"><ele>591.0</ele><time>2026-04-04T13:56:51Z</time></trkpt><trkpt lat="43.80400219004688" lon="12.376470783857519"><ele>590.0</ele><time>2026-04-04T13:56:52Z</time></trkpt><trkpt lat="43.803915002233936" lon="12.376515183911609"><ele>589.0</ele><time>2026-04-04T13:56:53Z</time></trkpt><trkpt lat="43.80382552631199" lon="12.376567452405919"><ele>588.0</ele><time>2026-04-04T13:56:54Z</time></trkpt><trkpt lat="43.803735583089725" lon="12.376633793739943"><ele>588.0</ele><time>2026-04-04T13:56:55Z</time></trkpt><trkpt lat="43.80364556592486" lon="12.376709163574015"><ele>588.0</ele><time>2026-04-04T13:56:56Z</time></trkpt><trkpt lat="43.80355030727834" lon="12.376787670339251"><ele>588.0</ele><time>2026-04-04T13:56:57Z</time></trkpt><trkpt lat="43.80345211913946" lon="12.376873356922504"><ele>588.0</ele><time>2026-04-04T13:56:58Z</time></trkpt><trkpt lat="43.803352433126015" lon="12.376971530658817"><ele>586.75</ele><time>2026-04-04T13:56:59Z</time></trkpt><trkpt lat="43.803253428894756" lon="12.377080918808621"><ele>585.5</ele><time>2026-04-04T13:57:00Z</time></trkpt><trkpt lat="43.80316719076249" lon="12.377203235353289"><ele>584.25</ele><time>2026-04-04T13:57:01Z</time></trkpt><trkpt lat="43.80309473084072" lon="12.377342276115115"><ele>583.0</ele><time>2026-04-04T13:57:02Z</time></trkpt><trkpt lat="43.80303118936981" lon="12.377486145798024"><ele>581.75</ele><time>2026-04-04T13:57:03Z</time></trkpt><trkpt lat="43.802979564033" lon="12.377639047186502"><ele>580.5</ele><time>2026-04-04T13:57:04Z</time></trkpt><trkpt lat="43.80294135424007" lon="12.377804337710735"><ele>579.25</ele><time>2026-04-04T13:57:05Z</time></trkpt><trkpt lat="43.80291662541076" lon="12.377979311461484"><ele>578.0</ele><time>2026-04-04T13:57:06Z</time></trkpt><trkpt lat="43.80290502655741" lon="12.378160209202669"><ele>576.25</ele><time>2026-04-04T13:57:07Z</time></trkpt><trkpt lat="43.80289807777446" lon="12.378346241822275"><ele>574.5</ele><time>2026-04-04T13:57:08Z</time></trkpt><trkpt lat="43.802905989988005" lon="12.378538909956344"><ele>572.75</ele><time>2026-04-04T13:57:09Z</time></trkpt><trkpt lat="43.80291624629457" lon="12.37873270518521"><ele>571.0</ele><time>2026-04-04T13:57:10Z</time></trkpt><trkpt lat="43.80292380637592" lon="12.37893830368525"><ele>567.6666666666667</ele><time>2026-04-04T13:57:11Z</time></trkpt><trkpt lat="43.80293728837829" lon="12.379147980529655"><ele>564.3333333333334</ele><time>2026-04-04T13:57:12Z</time></trkpt><trkpt lat="43.802950038484965" lon="12.379363062735752"><ele>561.0</ele><time>2026-04-04T13:57:13Z</time></trkpt><trkpt lat="43.80296245073371" lon="12.379584580564211"><ele>559.0</ele><time>2026-04-04T13:57:14Z</time></trkpt><trkpt lat="43.80297311772165" lon="12.379814945424235"><ele>557.0</ele><time>2026-04-04T13:57:15Z</time></trkpt><trkpt lat="43.80298252154111" lon="12.380051175652104"><ele>555.0</ele><time>2026-04-04T13:57:16Z</time></trkpt><trkpt lat="43.80299277723566" lon="12.380290064791138"><ele>554.3333333333334</ele><time>2026-04-04T13:57:17Z</time></trkpt><trkpt lat="43.80300641780452" lon="12.38052656921847"><ele>553.6666666666667</ele><time>2026-04-04T13:57:18Z</time></trkpt><trkpt lat="43.80302192537032" lon="12.380763529122726"><ele>553.0</ele><time>2026-04-04T13:57:19.001Z</time></trkpt><trkpt lat="43.80303776886364" lon="12.380995963088493"><ele>553.0</ele><time>2026-04-04T13:57:20.001Z</time></trkpt><trkpt lat="43.80305318996206" lon="12.381228508438179"><ele>553.0</ele><time>2026-04-04T13:57:21.001Z</time></trkpt><trkpt lat="43.803066278803335" lon="12.381458462801683"><ele>553.0</ele><time>2026-04-04T13:57:22.001Z</time></trkpt><trkpt lat="43.803079983400984" lon="12.381683441956016"><ele>551.0</ele><time>2026-04-04T13:57:23.001Z</time></trkpt><trkpt lat="43.803100969068794" lon="12.381906637842125"><ele>549.0</ele><time>2026-04-04T13:57:24.001Z</time></trkpt><trkpt lat="43.803125040677195" lon="12.38212479904387"><ele>547.0</ele><time>2026-04-04T13:57:25.001Z</time></trkpt><trkpt lat="43.803151801722" lon="12.382340966536919"><ele>547.0</ele><time>2026-04-04T13:57:26.001Z</time></trkpt><trkpt lat="43.803181326742475" lon="12.382554452285861"><ele>547.0</ele><time>2026-04-04T13:57:27.001Z</time></trkpt><trkpt lat="43.8032111840066" lon="12.382766471191614"><ele>547.0</ele><time>2026-04-04T13:57:28.001Z</time></trkpt><trkpt lat="43.803238587723285" lon="12.382975853168041"><ele>545.25</ele><time>2026-04-04T13:57:29.001Z</time></trkpt><trkpt lat="43.803262590607595" lon="12.38317668631756"><ele>543.5</ele><time>2026-04-04T13:57:30.001Z</time></trkpt><trkpt lat="43.80328161119033" lon="12.383370647670295"><ele>541.75</ele><time>2026-04-04T13:57:31.001Z</time></trkpt><trkpt lat="43.803285716592086" lon="12.383559277811214"><ele>540.0</ele><time>2026-04-04T13:57:32.001Z</time></trkpt><trkpt lat="43.80326567551702" lon="12.383742427033168"><ele>538.75</ele><time>2026-04-04T13:57:33.001Z</time></trkpt><trkpt lat="43.803216398056584" lon="12.383910706238414"><ele>537.5</ele><time>2026-04-04T13:57:34.001Z</time></trkpt><trkpt lat="43.80314498721045" lon="12.384070255646392"><ele>536.25</ele><time>2026-04-04T13:57:35.001Z</time></trkpt><trkpt lat="43.80306624126858" lon="12.384225953629716"><ele>535.0</ele><time>2026-04-04T13:57:36.001Z</time></trkpt><trkpt lat="43.80298339005361" lon="12.384386467714199"><ele>535.0</ele><time>2026-04-04T13:57:37.001Z</time></trkpt><trkpt lat="43.80290191109894" lon="12.38455455477813"><ele>535.0</ele><time>2026-04-04T13:57:38.001Z</time></trkpt><trkpt lat="43.80282168712325" lon="12.384730937406088"><ele>535.0</ele><time>2026-04-04T13:57:39.001Z</time></trkpt><trkpt lat="43.80273899706024" lon="12.384910195351315"><ele>532.0</ele><time>2026-04-04T13:57:40.001Z</time></trkpt><trkpt lat="43.802651965247755" lon="12.385094292868844"><ele>529.0</ele><time>2026-04-04T13:57:41.001Z</time></trkpt><trkpt lat="43.80256402313402" lon="12.385281425934656"><ele>526.0</ele><time>2026-04-04T13:57:42.001Z</time></trkpt><trkpt lat="43.80247375131955" lon="12.385470491346469"><ele>525.6666666666667</ele><time>2026-04-04T13:57:43.001Z</time></trkpt><trkpt lat="43.802381741347816" lon="12.385656846809953"><ele>525.3333333333334</ele><time>2026-04-04T13:57:44.001Z</time></trkpt><trkpt lat="43.80228753027353" lon="12.385846770885044"><ele>525.0</ele><time>2026-04-04T13:57:45.001Z</time></trkpt><trkpt lat="43.80219536589144" lon="12.386040086024748"><ele>525.0</ele><time>2026-04-04T13:57:46.001Z</time></trkpt><trkpt lat="43.80210623952468" lon="12.386233155817012"><ele>525.0</ele><time>2026-04-04T13:57:47.001Z</time></trkpt><trkpt lat="43.8020136831492" lon="12.386420006448887"><ele>525.0</ele><time>2026-04-04T13:57:48.001Z</time></trkpt><trkpt lat="43.80192426799335" lon="12.386594933280161"><ele>524.5</ele><time>2026-04-04T13:57:49.001Z</time></trkpt><trkpt lat="43.80183872421648" lon="12.38676187340825"><ele>524.0</ele><time>2026-04-04T13:57:50.001Z</time></trkpt><trkpt lat="43.801760559772106" lon="12.386926202758081"><ele>523.5</ele><time>2026-04-04T13:57:51.001Z</time></trkpt><trkpt lat="43.80169377898511" lon="12.387087290398695"><ele>523.0</ele><time>2026-04-04T13:57:52.001Z</time></trkpt><trkpt lat="43.80164282337989" lon="12.387261830066878"><ele>520.75</ele><time>2026-04-04T13:57:53.001Z</time></trkpt><trkpt lat="43.801619510035856" lon="12.387442810551324"><ele>518.5</ele><time>2026-04-04T13:57:54.001Z</time></trkpt><trkpt lat="43.80162633486104" lon="12.387623145192514"><ele>516.25</ele><time>2026-04-04T13:57:55.001Z</time></trkpt><trkpt lat="43.80166164728069" lon="12.387802593527562"><ele>514.0</ele><time>2026-04-04T13:57:56.001Z</time></trkpt><trkpt lat="43.80171613543125" lon="12.387981121278086"><ele>513.5</ele><time>2026-04-04T13:57:57.001Z</time></trkpt><trkpt lat="43.80177893473985" lon="12.388159186760781"><ele>513.0</ele><time>2026-04-04T13:57:58.001Z</time></trkpt><trkpt lat="43.80183800079608" lon="12.38835123877237"><ele>512.5</ele><time>2026-04-04T13:57:59.001Z</time></trkpt><trkpt lat="43.801896700479816" lon="12.388549105915684"><ele>512.0</ele><time>2026-04-04T13:58:00.001Z</time></trkpt><trkpt lat="43.801959466723346" lon="12.388750651220093"><ele>510.0</ele><time>2026-04-04T13:58:01.001Z</time></trkpt><trkpt lat="43.80202115993282" lon="12.38895483574955"><ele>508.0</ele><time>2026-04-04T13:58:02.001Z</time></trkpt><trkpt lat="43.80208430847788" lon="12.389161423554595"><ele>506.0</ele><time>2026-04-04T13:58:03.001Z</time></trkpt><trkpt lat="43.802150467594586" lon="12.389366787973099"><ele>506.0</ele><time>2026-04-04T13:58:04.001Z</time></trkpt><trkpt lat="43.802217736922685" lon="12.38957176509991"><ele>506.0</ele><time>2026-04-04T13:58:05.001Z</time></trkpt><trkpt lat="43.80228348881967" lon="12.389773391364734"><ele>506.0</ele><time>2026-04-04T13:58:06.001Z</time></trkpt><trkpt lat="43.802345025335285" lon="12.389972879312463"><ele>505.0</ele><time>2026-04-04T13:58:07.001Z</time></trkpt><trkpt lat="43.802409509797194" lon="12.390169752739622"><ele>504.0</ele><time>2026-04-04T13:58:08.001Z</time></trkpt><trkpt lat="43.80247408981957" lon="12.390364316893766"><ele>503.0</ele><time>2026-04-04T13:58:09.001Z</time></trkpt><trkpt lat="43.80254500688494" lon="12.390562273353774"><ele>502.66666666666663</ele><time>2026-04-04T13:58:10.001Z</time></trkpt><trkpt lat="43.80262199645266" lon="12.390758772470194"><ele>502.33333333333337</ele><time>2026-04-04T13:58:11.001Z</time></trkpt><trkpt lat="43.80270708514495" lon="12.390949325013366"><ele>502.0</ele><time>2026-04-04T13:58:12.001Z</time></trkpt><trkpt lat="43.80279874600309" lon="12.39113553404501"><ele>502.0</ele><time>2026-04-04T13:58:13.001Z</time></trkpt><trkpt lat="43.8028944001429" lon="12.391321434448958"><ele>502.0</ele><time>2026-04-04T13:58:14.001Z</time></trkpt><trkpt lat="43.802985419794474" lon="12.391513407848036"><ele>502.0</ele><time>2026-04-04T13:58:15.001Z</time></trkpt><trkpt lat="43.803082160514556" lon="12.391696619644641"><ele>500.6666666666667</ele><time>2026-04-04T13:58:16.001Z</time></trkpt><trkpt lat="43.803174487494374" lon="12.391889209525559"><ele>499.33333333333337</ele><time>2026-04-04T13:58:17.001Z</time></trkpt><trkpt lat="43.80327047981208" lon="12.392078016782813"><ele>498.0</ele><time>2026-04-04T13:58:18.001Z</time></trkpt><trkpt lat="43.80336652178156" lon="12.392270050818267"><ele>496.33333333333337</ele><time>2026-04-04T13:58:19.001Z</time></trkpt><trkpt lat="43.80346566835153" lon="12.392461576021981"><ele>494.6666666666667</ele><time>2026-04-04T13:58:20.001Z</time></trkpt><trkpt lat="43.80356231083826" lon="12.392651197455484"><ele>493.0</ele><time>2026-04-04T13:58:21.001Z</time></trkpt><trkpt lat="43.80365326360025" lon="12.392835749408068"><ele>491.33333333333337</ele><time>2026-04-04T13:58:22.001Z</time></trkpt><trkpt lat="43.803750890276724" lon="12.393010959186414"><ele>489.66666666666663</ele><time>2026-04-04T13:58:23.001Z</time></trkpt><trkpt lat="43.80383541590991" lon="12.39319006087846"><ele>488.0</ele><time>2026-04-04T13:58:24.001Z</time></trkpt><trkpt lat="43.803925679249794" lon="12.393366471022043"><ele>488.0</ele><time>2026-04-04T13:58:25.001Z</time></trkpt><trkpt lat="43.8040120870739" lon="12.393539177657498"><ele>488.0</ele><time>2026-04-04T13:58:26.001Z</time></trkpt><trkpt lat="43.80408604729526" lon="12.393722492081466"><ele>488.0</ele><time>2026-04-04T13:58:27.001Z</time></trkpt><trkpt lat="43.804124384986636" lon="12.393926565702573"><ele>485.66666666666663</ele><time>2026-04-04T13:58:28.001Z</time></trkpt><trkpt lat="43.80413619238824" lon="12.39414490731605"><ele>483.33333333333337</ele><time>2026-04-04T13:58:29Z</time></trkpt><trkpt lat="43.80411829118292" lon="12.394365882470039"><ele>481.0</ele><time>2026-04-04T13:58:30Z</time></trkpt><trkpt lat="43.80409992857321" lon="12.394589680832445"><ele>478.6666666666667</ele><time>2026-04-04T13:58:31Z</time></trkpt><trkpt lat="43.804084044955786" lon="12.394820011566347"><ele>476.33333333333337</ele><time>2026-04-04T13:58:32Z</time></trkpt><trkpt lat="43.804067184891615" lon="12.395053439461584"><ele>474.0</ele><time>2026-04-04T13:58:33Z</time></trkpt><trkpt lat="43.804055757809444" lon="12.39528961521834"><ele>472.66666666666663</ele><time>2026-04-04T13:58:34Z</time></trkpt><trkpt lat="43.804042729830094" lon="12.395532766941189"><ele>471.3333333333333</ele><time>2026-04-04T13:58:35Z</time></trkpt><trkpt lat="43.80402890248929" lon="12.3957813789401"><ele>470.0</ele><time>2026-04-04T13:58:36Z</time></trkpt><trkpt lat="43.80401259620658" lon="12.396031909780339"><ele>470.0</ele><time>2026-04-04T13:58:37Z</time></trkpt><trkpt lat="43.80399665509436" lon="12.396280403648861"><ele>470.0</ele><time>2026-04-04T13:58:38Z</time></trkpt><trkpt lat="43.80398206395985" lon="12.396532631376454"><ele>470.0</ele><time>2026-04-04T13:58:39Z</time></trkpt><trkpt lat="43.80396695152794" lon="12.396782416734796"><ele>468.3333333333333</ele><time>2026-04-04T13:58:40Z</time></trkpt><trkpt lat="43.8039510854621" lon="12.39703190968667"><ele>466.66666666666663</ele><time>2026-04-04T13:58:41Z</time></trkpt><trkpt lat="43.80392835328878" lon="12.397279902884378"><ele>465.0</ele><time>2026-04-04T13:58:42Z</time></trkpt><trkpt lat="43.803910283392426" lon="12.39752407292386"><ele>462.66666666666663</ele><time>2026-04-04T13:58:43Z</time></trkpt><trkpt lat="43.80389416744252" lon="12.39776572318898"><ele>460.3333333333333</ele><time>2026-04-04T13:58:44Z</time></trkpt><trkpt lat="43.80386106021541" lon="12.398006837782628"><ele>458.0</ele><time>2026-04-04T13:58:45Z</time></trkpt><trkpt lat="43.80380179154701" lon="12.398237780594172"><ele>456.3333333333333</ele><time>2026-04-04T13:58:46Z</time></trkpt><trkpt lat="43.803723944259225" lon="12.398447953375836"><ele>454.66666666666663</ele><time>2026-04-04T13:58:47Z</time></trkpt><trkpt lat="43.80363668650895" lon="12.39865444954932"><ele>453.0</ele><time>2026-04-04T13:58:48Z</time></trkpt><trkpt lat="43.80354853785066" lon="12.398858746620217"><ele>455.0</ele><time>2026-04-04T13:58:49Z</time></trkpt><trkpt lat="43.80346319811044" lon="12.399065294762062"><ele>457.0</ele><time>2026-04-04T13:58:50Z</time></trkpt><trkpt lat="43.80337699096499" lon="12.399275378344463"><ele>459.0</ele><time>2026-04-04T13:58:51Z</time></trkpt><trkpt lat="43.80328985849609" lon="12.39948758811751"><ele>458.0</ele><time>2026-04-04T13:58:52Z</time></trkpt><trkpt lat="43.80320021472007" lon="12.39970092584296"><ele>457.0</ele><time>2026-04-04T13:58:53Z</time></trkpt><trkpt lat="43.80310766771939" lon="12.39991102669814"><ele>456.0</ele><time>2026-04-04T13:58:54Z</time></trkpt><trkpt lat="43.80301488088209" lon="12.400121491682514"><ele>456.0</ele><time>2026-04-04T13:58:55Z</time></trkpt><trkpt lat="43.802923169404494" lon="12.400331733392058"><ele>456.0</ele><time>2026-04-04T13:58:56Z</time></trkpt><trkpt lat="43.80282814926636" lon="12.400545093791226"><ele>456.0</ele><time>2026-04-04T13:58:57Z</time></trkpt><trkpt lat="43.80273468367951" lon="12.400759570335648"><ele>456.66666666666663</ele><time>2026-04-04T13:58:58Z</time></trkpt><trkpt lat="43.80264288449814" lon="12.400968581377459"><ele>457.3333333333333</ele><time>2026-04-04T13:58:59Z</time></trkpt><trkpt lat="43.80255359423882" lon="12.401177651121902"><ele>458.0</ele><time>2026-04-04T13:59:00Z</time></trkpt><trkpt lat="43.802462635954235" lon="12.401393745462027"><ele>456.66666666666663</ele><time>2026-04-04T13:59:01Z</time></trkpt><trkpt lat="43.802373210281466" lon="12.401605467718202"><ele>455.33333333333337</ele><time>2026-04-04T13:59:02Z</time></trkpt><trkpt lat="43.80228022190237" lon="12.401818516623022"><ele>454.0</ele><time>2026-04-04T13:59:03Z</time></trkpt><trkpt lat="43.802187931819624" lon="12.402024743727173"><ele>453.6666666666667</ele><time>2026-04-04T13:59:04Z</time></trkpt><trkpt lat="43.80209547180444" lon="12.402239015624339"><ele>453.33333333333337</ele><time>2026-04-04T13:59:05Z</time></trkpt><trkpt lat="43.80200618434122" lon="12.402454297829767"><ele>453.0</ele><time>2026-04-04T13:59:06Z</time></trkpt><trkpt lat="43.801916077693875" lon="12.402669722700999"><ele>452.0</ele><time>2026-04-04T13:59:07Z</time></trkpt><trkpt lat="43.8018277408482" lon="12.402880748947725"><ele>451.0</ele><time>2026-04-04T13:59:08Z</time></trkpt><trkpt lat="43.80173942041968" lon="12.40308879765291"><ele>450.0</ele><time>2026-04-04T13:59:09Z</time></trkpt><trkpt lat="43.80164633706043" lon="12.403293523775126"><ele>450.0</ele><time>2026-04-04T13:59:10Z</time></trkpt><trkpt lat="43.80156290070673" lon="12.403495885321437"><ele>450.0</ele><time>2026-04-04T13:59:11Z</time></trkpt><trkpt lat="43.80148118685097" lon="12.403695790319857"><ele>450.0</ele><time>2026-04-04T13:59:12Z</time></trkpt><trkpt lat="43.80139333509857" lon="12.403875380425864"><ele>450.0</ele><time>2026-04-04T13:59:13Z</time></trkpt><trkpt lat="43.801324139642546" lon="12.404089976213783"><ele>450.0</ele><time>2026-04-04T13:59:14Z</time></trkpt><trkpt lat="43.801275595814566" lon="12.404318426422455"><ele>450.0</ele><time>2026-04-04T13:59:15Z</time></trkpt><trkpt lat="43.80122173844426" lon="12.40454104585134"><ele>449.66666666666663</ele><time>2026-04-04T13:59:16Z</time></trkpt><trkpt lat="43.80117233186212" lon="12.404761280605237"><ele>449.3333333333333</ele><time>2026-04-04T13:59:17Z</time></trkpt><trkpt lat="43.801116811078" lon="12.404984629231983"><ele>449.0</ele><time>2026-04-04T13:59:18Z</time></trkpt><trkpt lat="43.80109074300016" lon="12.405216811407172"><ele>449.0</ele><time>2026-04-04T13:59:19Z</time></trkpt><trkpt lat="43.801075928667395" lon="12.405456187333447"><ele>449.0</ele><time>2026-04-04T13:59:20.001Z</time></trkpt><trkpt lat="43.80109257804015" lon="12.405695086732885"><ele>449.0</ele><time>2026-04-04T13:59:21.001Z</time></trkpt><trkpt lat="43.80110161258657" lon="12.405931549481013"><ele>447.3333333333333</ele><time>2026-04-04T13:59:22.001Z</time></trkpt><trkpt lat="43.80112440005748" lon="12.406165018389641"><ele>445.66666666666663</ele><time>2026-04-04T13:59:23.001Z</time></trkpt><trkpt lat="43.80114173130998" lon="12.406400451540582"><ele>444.0</ele><time>2026-04-04T13:59:24.001Z</time></trkpt><trkpt lat="43.80120069042548" lon="12.406629534974032"><ele>441.33333333333337</ele><time>2026-04-04T13:59:25.001Z</time></trkpt><trkpt lat="43.801257370711596" lon="12.40685836742927"><ele>438.6666666666667</ele><time>2026-04-04T13:59:26.001Z</time></trkpt><trkpt lat="43.80132771163198" lon="12.407076629786594"><ele>436.0</ele><time>2026-04-04T13:59:27.001Z</time></trkpt><trkpt lat="43.801407596208115" lon="12.40729092502601"><ele>435.33333333333337</ele><time>2026-04-04T13:59:28.001Z</time></trkpt><trkpt lat="43.801494074538326" lon="12.407499830484628"><ele>434.66666666666663</ele><time>2026-04-04T13:59:29.001Z</time></trkpt><trkpt lat="43.80158532958619" lon="12.40769828872816"><ele>434.0</ele><time>2026-04-04T13:59:30.001Z</time></trkpt><trkpt lat="43.801688612803254" lon="12.40789007452829"><ele>433.0</ele><time>2026-04-04T13:59:31.001Z</time></trkpt><trkpt lat="43.80178470232587" lon="12.408091882827165"><ele>432.0</ele><time>2026-04-04T13:59:32.001Z</time></trkpt><trkpt lat="43.80189559417181" lon="12.408278601605224"><ele>431.0</ele><time>2026-04-04T13:59:33.001Z</time></trkpt><trkpt lat="43.80202267832503" lon="12.408453847451934"><ele>427.3333333333333</ele><time>2026-04-04T13:59:34.001Z</time></trkpt><trkpt lat="43.80213608848747" lon="12.408640063273644"><ele>423.66666666666663</ele><time>2026-04-04T13:59:35.001Z</time></trkpt><trkpt lat="43.802251030692766" lon="12.40882780955924"><ele>420.0</ele><time>2026-04-04T13:59:36.001Z</time></trkpt><trkpt lat="43.80235907365767" lon="12.409005596923265"><ele>419.66666666666663</ele><time>2026-04-04T13:59:37.001Z</time></trkpt><trkpt lat="43.80245703633013" lon="12.409176997149178"><ele>419.3333333333333</ele><time>2026-04-04T13:59:38.001Z</time></trkpt><trkpt lat="43.802526269337285" lon="12.409361258874318"><ele>419.0</ele><time>2026-04-04T13:59:39.001Z</time></trkpt><trkpt lat="43.80256148612612" lon="12.409560431073333"><ele>418.0</ele><time>2026-04-04T13:59:40.001Z</time></trkpt><trkpt lat="43.80256204500846" lon="12.409771623894523"><ele>417.0</ele><time>2026-04-04T13:59:41.001Z</time></trkpt><trkpt lat="43.80252610396327" lon="12.40998008131356"><ele>416.0</ele><time>2026-04-04T13:59:42.001Z</time></trkpt><trkpt lat="43.802464366970185" lon="12.410174563001148"><ele>416.0</ele><time>2026-04-04T13:59:43.001Z</time></trkpt><trkpt lat="43.802384748516204" lon="12.41036523375197"><ele>416.0</ele><time>2026-04-04T13:59:44.001Z</time></trkpt><trkpt lat="43.80229780489897" lon="12.410562172259242"><ele>416.0</ele><time>2026-04-04T13:59:45.001Z</time></trkpt><trkpt lat="43.802210234935465" lon="12.410772750539445"><ele>413.3333333333333</ele><time>2026-04-04T13:59:46.001Z</time></trkpt><trkpt lat="43.802120278948344" lon="12.410982154652348"><ele>410.66666666666663</ele><time>2026-04-04T13:59:47.001Z</time></trkpt><trkpt lat="43.80203050101751" lon="12.411196443568018"><ele>408.0</ele><time>2026-04-04T13:59:48.001Z</time></trkpt><trkpt lat="43.801942908575604" lon="12.411412741290496"><ele>407.66666666666663</ele><time>2026-04-04T13:59:49.001Z</time></trkpt><trkpt lat="43.801856724915304" lon="12.41162806785754"><ele>407.3333333333333</ele><time>2026-04-04T13:59:50.001Z</time></trkpt><trkpt lat="43.80177211491378" lon="12.411841422720231"><ele>407.0</ele><time>2026-04-04T13:59:51.001Z</time></trkpt><trkpt lat="43.80168499742895" lon="12.412056017077127"><ele>405.0</ele><time>2026-04-04T13:59:52.001Z</time></trkpt><trkpt lat="43.80159652850133" lon="12.412268203303025"><ele>403.0</ele><time>2026-04-04T13:59:53.001Z</time></trkpt><trkpt lat="43.80150862319368" lon="12.412479428089357"><ele>401.0</ele><time>2026-04-04T13:59:54.001Z</time></trkpt><trkpt lat="43.80142151989363" lon="12.412691672696495"><ele>401.0</ele><time>2026-04-04T13:59:55.001Z</time></trkpt><trkpt lat="43.80133331507619" lon="12.412904504974286"><ele>401.0</ele><time>2026-04-04T13:59:56.001Z</time></trkpt><trkpt lat="43.80124738557001" lon="12.413115532718015"><ele>401.0</ele><time>2026-04-04T13:59:57.001Z</time></trkpt><trkpt lat="43.80116007671251" lon="12.413332962630019"><ele>399.66666666666663</ele><time>2026-04-04T13:59:58.001Z</time></trkpt><trkpt lat="43.801074825555595" lon="12.413550108458384"><ele>398.33333333333337</ele><time>2026-04-04T13:59:59.001Z</time></trkpt><trkpt lat="43.800988023756204" lon="12.413766988187149"><ele>397.0</ele><time>2026-04-04T14:00:00.001Z</time></trkpt><trkpt lat="43.800898867634075" lon="12.413983669907989"><ele>395.33333333333337</ele><time>2026-04-04T14:00:01.001Z</time></trkpt><trkpt lat="43.800809409153715" lon="12.414202562608036"><ele>393.66666666666663</ele><time>2026-04-04T14:00:02.001Z</time></trkpt><trkpt lat="43.800719819135324" lon="12.414416978865022"><ele>392.0</ele><time>2026-04-04T14:00:03.001Z</time></trkpt><trkpt lat="43.800629434820515" lon="12.414629140033044"><ele>390.3333333333333</ele><time>2026-04-04T14:00:04.001Z</time></trkpt><trkpt lat="43.80054275878251" lon="12.414833420162935"><ele>388.66666666666663</ele><time>2026-04-04T14:00:05.001Z</time></trkpt><trkpt lat="43.80046029260774" lon="12.415025877203394"><ele>387.0</ele><time>2026-04-04T14:00:06.001Z</time></trkpt><trkpt lat="43.800382952693305" lon="12.415213769810437"><ele>387.0</ele><time>2026-04-04T14:00:07.001Z</time></trkpt><trkpt lat="43.800318198783515" lon="12.415387817513988"><ele>387.0</ele><time>2026-04-04T14:00:08.001Z</time></trkpt><trkpt lat="43.80029007388515" lon="12.415550074781006"><ele>387.0</ele><time>2026-04-04T14:00:09.001Z</time></trkpt><trkpt lat="43.80028751774871" lon="12.415712967143337"><ele>387.0</ele><time>2026-04-04T14:00:10.001Z</time></trkpt><trkpt lat="43.80035153716723" lon="12.415844954985175"><ele>385.20000000000005</ele><time>2026-04-04T14:00:11.001Z</time></trkpt><trkpt lat="43.800423740368785" lon="12.415936546926675"><ele>383.4</ele><time>2026-04-04T14:00:12.001Z</time></trkpt><trkpt lat="43.80051887189196" lon="12.41599325887531"><ele>381.6</ele><time>2026-04-04T14:00:13.001Z</time></trkpt><trkpt lat="43.80062852702341" lon="12.416003846497723"><ele>379.79999999999995</ele><time>2026-04-04T14:00:14.001Z</time></trkpt><trkpt lat="43.800740219343176" lon="12.415973525699547"><ele>378.0</ele><time>2026-04-04T14:00:15.001Z</time></trkpt><trkpt lat="43.800844985747716" lon="12.41589765156781"><ele>378.0</ele><time>2026-04-04T14:00:16.001Z</time></trkpt><trkpt lat="43.800945912261994" lon="12.415796055941884"><ele>378.0</ele><time>2026-04-04T14:00:17.001Z</time></trkpt><trkpt lat="43.80105618132582" lon="12.41570589595105"><ele>378.0</ele><time>2026-04-04T14:00:18.001Z</time></trkpt><trkpt lat="43.80117792081292" lon="12.415634349921875"><ele>378.0</ele><time>2026-04-04T14:00:19.001Z</time></trkpt><trkpt lat="43.80131181747902" lon="12.415587136650837"><ele>375.75</ele><time>2026-04-04T14:00:20.001Z</time></trkpt><trkpt lat="43.80145411564275" lon="12.415556456005133"><ele>373.5</ele><time>2026-04-04T14:00:21.001Z</time></trkpt><trkpt lat="43.80160343328096" lon="12.415535841630618"><ele>371.25</ele><time>2026-04-04T14:00:22.001Z</time></trkpt><trkpt lat="43.80175469028423" lon="12.415524963251581"><ele>369.0</ele><time>2026-04-04T14:00:23.001Z</time></trkpt><trkpt lat="43.80190382821983" lon="12.415528673922104"><ele>370.0</ele><time>2026-04-04T14:00:24.001Z</time></trkpt><trkpt lat="43.80205197685999" lon="12.415523371015917"><ele>371.0</ele><time>2026-04-04T14:00:25.001Z</time></trkpt><trkpt lat="43.80218721932369" lon="12.415488612174514"><ele>372.0</ele><time>2026-04-04T14:00:26.001Z</time></trkpt><trkpt lat="43.80230592298869" lon="12.415415640390774"><ele>373.0</ele><time>2026-04-04T14:00:27.001Z</time></trkpt><trkpt lat="43.80241348697663" lon="12.415306627186183"><ele>373.0</ele><time>2026-04-04T14:00:28.001Z</time></trkpt><trkpt lat="43.802511869846164" lon="12.415187239525755"><ele>373.0</ele><time>2026-04-04T14:00:29.001Z</time></trkpt><trkpt lat="43.80261520010646" lon="12.41510221063456"><ele>373.0</ele><time>2026-04-04T14:00:30.001Z</time></trkpt><trkpt lat="43.802722912190106" lon="12.415061184071192"><ele>373.0</ele><time>2026-04-04T14:00:31.001Z</time></trkpt><trkpt lat="43.80282857002171" lon="12.415076118835014"><ele>371.59999999999997</ele><time>2026-04-04T14:00:32.001Z</time></trkpt><trkpt lat="43.80291062192407" lon="12.41516433652053"><ele>370.2</ele><time>2026-04-04T14:00:33.001Z</time></trkpt><trkpt lat="43.80300704187533" lon="12.415249458931907"><ele>368.8</ele><time>2026-04-04T14:00:34.001Z</time></trkpt><trkpt lat="43.80310650319656" lon="12.41532013903296"><ele>367.4</ele><time>2026-04-04T14:00:35Z</time></trkpt><trkpt lat="43.80319725630392" lon="12.415418203802274"><ele>366.0</ele><time>2026-04-04T14:00:36Z</time></trkpt><trkpt lat="43.8032941613254" lon="12.415523494001459"><ele>366.0</ele><time>2026-04-04T14:00:37Z</time></trkpt><trkpt lat="43.8033819183873" lon="12.415634144369236"><ele>366.0</ele><time>2026-04-04T14:00:38Z</time></trkpt><trkpt lat="43.80343623847828" lon="12.41577887909439"><ele>366.0</ele><time>2026-04-04T14:00:39Z</time></trkpt><trkpt lat="43.80343388325542" lon="12.415946240724887"><ele>366.0</ele><time>2026-04-04T14:00:40Z</time></trkpt><trkpt lat="43.803399991275356" lon="12.41608799525106"><ele>366.0</ele><time>2026-04-04T14:00:41Z</time></trkpt><trkpt lat="43.80333050223506" lon="12.416195594471722"><ele>366.0</ele><time>2026-04-04T14:00:42Z</time></trkpt><trkpt lat="43.80324109171161" lon="12.416300524366445"><ele>366.0</ele><time>2026-04-04T14:00:43Z</time></trkpt><trkpt lat="43.80312761210362" lon="12.416384739799305"><ele>366.0</ele><time>2026-04-04T14:00:44Z</time></trkpt><trkpt lat="43.80300250970007" lon="12.416478683606726"><ele>364.75</ele><time>2026-04-04T14:00:45Z</time></trkpt><trkpt lat="43.80288150420884" lon="12.41658275722094"><ele>363.5</ele><time>2026-04-04T14:00:46Z</time></trkpt><trkpt lat="43.80275934704786" lon="12.416687793120651"><ele>362.25</ele><time>2026-04-04T14:00:47Z</time></trkpt><trkpt lat="43.80263388383641" lon="12.41679306969975"><ele>361.0</ele><time>2026-04-04T14:00:48Z</time></trkpt><trkpt lat="43.802500803328215" lon="12.416899959159146"><ele>361.0</ele><time>2026-04-04T14:00:49Z</time></trkpt><trkpt lat="43.80237029792173" lon="12.417009050528925"><ele>361.0</ele><time>2026-04-04T14:00:50Z</time></trkpt><trkpt lat="43.80223578188735" lon="12.417117398447939"><ele>361.0</ele><time>2026-04-04T14:00:51Z</time></trkpt><trkpt lat="43.80210001129" lon="12.41722690423391"><ele>361.0</ele><time>2026-04-04T14:00:52Z</time></trkpt><trkpt lat="43.80196650436703" lon="12.41733188691933"><ele>361.0</ele><time>2026-04-04T14:00:53Z</time></trkpt><trkpt lat="43.801834409257204" lon="12.417440075893925"><ele>361.0</ele><time>2026-04-04T14:00:54Z</time></trkpt><trkpt lat="43.801715537879346" lon="12.417560649622542"><ele>361.0</ele><time>2026-04-04T14:00:55Z</time></trkpt><trkpt lat="43.80162097067619" lon="12.4177040138706"><ele>361.0</ele><time>2026-04-04T14:00:56Z</time></trkpt><trkpt lat="43.80154481766502" lon="12.417870655984418"><ele>361.0</ele><time>2026-04-04T14:00:57Z</time></trkpt><trkpt lat="43.80149080361782" lon="12.418060488566663"><ele>361.0</ele><time>2026-04-04T14:00:58Z</time></trkpt><trkpt lat="43.801462711219656" lon="12.418267050960825"><ele>362.3333333333333</ele><time>2026-04-04T14:00:59Z</time></trkpt><trkpt lat="43.80145613998748" lon="12.418484077427285"><ele>363.6666666666667</ele><time>2026-04-04T14:01:00Z</time></trkpt><trkpt lat="43.80145290710879" lon="12.418707428407098"><ele>365.0</ele><time>2026-04-04T14:01:01Z</time></trkpt><trkpt lat="43.801448042757286" lon="12.41893639321049"><ele>365.6666666666667</ele><time>2026-04-04T14:01:02Z</time></trkpt><trkpt lat="43.80144030757262" lon="12.419169474087202"><ele>366.3333333333333</ele><time>2026-04-04T14:01:03Z</time></trkpt><trkpt lat="43.801433083686106" lon="12.419407907878444"><ele>367.0</ele><time>2026-04-04T14:01:04Z</time></trkpt><trkpt lat="43.80142424317976" lon="12.419648360164182"><ele>368.0</ele><time>2026-04-04T14:01:05Z</time></trkpt><trkpt lat="43.80141969422102" lon="12.419889938946207"><ele>369.0</ele><time>2026-04-04T14:01:06Z</time></trkpt><trkpt lat="43.80139760455751" lon="12.420124743207777"><ele>370.0</ele><time>2026-04-04T14:01:07Z</time></trkpt><trkpt lat="43.801393550517886" lon="12.420360104031433"><ele>368.3333333333333</ele><time>2026-04-04T14:01:08Z</time></trkpt><trkpt lat="43.801399298985025" lon="12.4205973306633"><ele>366.6666666666667</ele><time>2026-04-04T14:01:09Z</time></trkpt><trkpt lat="43.80142805808373" lon="12.42083801034549"><ele>365.0</ele><time>2026-04-04T14:01:10Z</time></trkpt><trkpt lat="43.80148700684485" lon="12.42106574487568"><ele>365.0</ele><time>2026-04-04T14:01:11Z</time></trkpt><trkpt lat="43.80151675921485" lon="12.421299302679207"><ele>365.0</ele><time>2026-04-04T14:01:12Z</time></trkpt><trkpt lat="43.801562146598094" lon="12.42153054392848"><ele>365.0</ele><time>2026-04-04T14:01:13Z</time></trkpt><trkpt lat="43.80160728903386" lon="12.421760537223024"><ele>362.33333333333337</ele><time>2026-04-04T14:01:14Z</time></trkpt><trkpt lat="43.80165131675261" lon="12.421984851283515"><ele>359.6666666666667</ele><time>2026-04-04T14:01:15Z</time></trkpt><trkpt lat="43.8016966143784" lon="12.422213364847615"><ele>357.0</ele><time>2026-04-04T14:01:16Z</time></trkpt><trkpt lat="43.8017452130827" lon="12.422445977425324"><ele>357.0</ele><time>2026-04-04T14:01:17Z</time></trkpt><trkpt lat="43.80179943349086" lon="12.422664616433165"><ele>357.0</ele><time>2026-04-04T14:01:18Z</time></trkpt><trkpt lat="43.80186848412515" lon="12.422887833110781"><ele>357.0</ele><time>2026-04-04T14:01:19Z</time></trkpt><trkpt lat="43.801934999977114" lon="12.42309980941372"><ele>365.6666666666667</ele><time>2026-04-04T14:01:20Z</time></trkpt><trkpt lat="43.80199834108796" lon="12.423310213670984"><ele>374.33333333333337</ele><time>2026-04-04T14:01:21Z</time></trkpt><trkpt lat="43.80205563975452" lon="12.42352392181358"><ele>383.0</ele><time>2026-04-04T14:01:22Z</time></trkpt><trkpt lat="43.802092659968835" lon="12.42374573816886"><ele>379.0</ele><time>2026-04-04T14:01:23Z</time></trkpt><trkpt lat="43.80211195892243" lon="12.423973233523066"><ele>375.0</ele><time>2026-04-04T14:01:24Z</time></trkpt><trkpt lat="43.802109944175086" lon="12.42420719479766"><ele>371.0</ele><time>2026-04-04T14:01:25Z</time></trkpt><trkpt lat="43.80211063514256" lon="12.424441970149982"><ele>366.6666666666667</ele><time>2026-04-04T14:01:26Z</time></trkpt><trkpt lat="43.80211585228483" lon="12.42467231503454"><ele>362.3333333333333</ele><time>2026-04-04T14:01:27Z</time></trkpt><trkpt lat="43.80212717066427" lon="12.424894694495148"><ele>358.0</ele><time>2026-04-04T14:01:28.001Z</time></trkpt><trkpt lat="43.80215233501664" lon="12.425115704799177"><ele>358.0</ele><time>2026-04-04T14:01:29.001Z</time></trkpt><trkpt lat="43.8021934667969" lon="12.425333919074449"><ele>358.0</ele><time>2026-04-04T14:01:30.001Z</time></trkpt><trkpt lat="43.80223552535596" lon="12.425553812318624"><ele>358.0</ele><time>2026-04-04T14:01:31.001Z</time></trkpt><trkpt lat="43.80227804492267" lon="12.425770942850466"><ele>355.3333333333333</ele><time>2026-04-04T14:01:32.001Z</time></trkpt><trkpt lat="43.80232233532151" lon="12.425993715781846"><ele>352.6666666666667</ele><time>2026-04-04T14:01:33.001Z</time></trkpt><trkpt lat="43.802367647033044" lon="12.426217295357398"><ele>350.0</ele><time>2026-04-04T14:01:34.001Z</time></trkpt><trkpt lat="43.80241317889972" lon="12.4264427601425"><ele>348.6666666666667</ele><time>2026-04-04T14:01:35.001Z</time></trkpt><trkpt lat="43.80247330787396" lon="12.426662479321253"><ele>347.3333333333333</ele><time>2026-04-04T14:01:36.001Z</time></trkpt><trkpt lat="43.80251705869298" lon="12.426887804974696"><ele>346.0</ele><time>2026-04-04T14:01:37.001Z</time></trkpt><trkpt lat="43.802556277158665" lon="12.427114307422912"><ele>344.66666666666663</ele><time>2026-04-04T14:01:38.001Z</time></trkpt><trkpt lat="43.8025903480677" lon="12.427335482582254"><ele>343.3333333333333</ele><time>2026-04-04T14:01:39.001Z</time></trkpt><trkpt lat="43.80261102199296" lon="12.427552718475265"><ele>342.0</ele><time>2026-04-04T14:01:40.001Z</time></trkpt><trkpt lat="43.80261130007677" lon="12.42777024174477"><ele>340.6666666666667</ele><time>2026-04-04T14:01:41.001Z</time></trkpt><trkpt lat="43.8025933678266" lon="12.427984906258006"><ele>339.33333333333337</ele><time>2026-04-04T14:01:42.001Z</time></trkpt><trkpt lat="43.80255969152874" lon="12.42819149291255"><ele>338.0</ele><time>2026-04-04T14:01:43.001Z</time></trkpt><trkpt lat="43.80251476263089" lon="12.428403132850478"><ele>338.0</ele><time>2026-04-04T14:01:44.001Z</time></trkpt><trkpt lat="43.80245624282939" lon="12.428609127293095"><ele>338.0</ele><time>2026-04-04T14:01:45.001Z</time></trkpt><trkpt lat="43.80238348156489" lon="12.428803230356229"><ele>338.0</ele><time>2026-04-04T14:01:46.001Z</time></trkpt><trkpt lat="43.80231035979785" lon="12.428998339638422"><ele>336.33333333333337</ele><time>2026-04-04T14:01:47.001Z</time></trkpt><trkpt lat="43.80225101843209" lon="12.42919840755038"><ele>334.6666666666667</ele><time>2026-04-04T14:01:48.001Z</time></trkpt><trkpt lat="43.80223094115593" lon="12.429399152100881"><ele>333.0</ele><time>2026-04-04T14:01:49.001Z</time></trkpt><trkpt lat="43.802215590751196" lon="12.429607027609807"><ele>332.25</ele><time>2026-04-04T14:01:50.001Z</time></trkpt><trkpt lat="43.802219253031424" lon="12.429814747752728"><ele>331.5</ele><time>2026-04-04T14:01:51.001Z</time></trkpt><trkpt lat="43.80221533596595" lon="12.430007778480904"><ele>330.75</ele><time>2026-04-04T14:01:52.001Z</time></trkpt><trkpt lat="43.802230020189" lon="12.430197274333029"><ele>330.0</ele><time>2026-04-04T14:01:53.001Z</time></trkpt><trkpt lat="43.80224934605655" lon="12.430383392707537"><ele>330.0</ele><time>2026-04-04T14:01:54.001Z</time></trkpt><trkpt lat="43.802279584506984" lon="12.430557525820529"><ele>330.0</ele><time>2026-04-04T14:01:55.001Z</time></trkpt><trkpt lat="43.802325427325655" lon="12.430732141790042"><ele>330.0</ele><time>2026-04-04T14:01:56.001Z</time></trkpt><trkpt lat="43.80237338170616" lon="12.430892893639015"><ele>330.0</ele><time>2026-04-04T14:01:57.001Z</time></trkpt><trkpt lat="43.80242913784479" lon="12.431048727190092"><ele>330.0</ele><time>2026-04-04T14:01:58.001Z</time></trkpt><trkpt lat="43.80248963510102" lon="12.431202112191151"><ele>330.0</ele><time>2026-04-04T14:01:59.001Z</time></trkpt><trkpt lat="43.80255547114385" lon="12.431357257015735"><ele>330.0</ele><time>2026-04-04T14:02:00.001Z</time></trkpt><trkpt lat="43.80262144303724" lon="12.431516680660856"><ele>330.0</ele><time>2026-04-04T14:02:01.001Z</time></trkpt><trkpt lat="43.80269677972755" lon="12.431670152426165"><ele>331.25</ele><time>2026-04-04T14:02:02.001Z</time></trkpt><trkpt lat="43.802752333506994" lon="12.431845510100139"><ele>332.5</ele><time>2026-04-04T14:02:03.001Z</time></trkpt><trkpt lat="43.8028051665499" lon="12.432024370009204"><ele>333.75</ele><time>2026-04-04T14:02:04.001Z</time></trkpt><trkpt lat="43.80285754513706" lon="12.432205491121685"><ele>335.0</ele><time>2026-04-04T14:02:05.001Z</time></trkpt><trkpt lat="43.802912625468316" lon="12.432387599381947"><ele>335.75</ele><time>2026-04-04T14:02:06.001Z</time></trkpt><trkpt lat="43.80296655831602" lon="12.43257710597565"><ele>336.5</ele><time>2026-04-04T14:02:07.001Z</time></trkpt><trkpt lat="43.80301892885151" lon="12.432757215886426"><ele>337.25</ele><time>2026-04-04T14:02:08.001Z</time></trkpt><trkpt lat="43.803053142049045" lon="12.432940575444162"><ele>338.0</ele><time>2026-04-04T14:02:09.001Z</time></trkpt><trkpt lat="43.80311658266924" lon="12.433103906020666"><ele>338.0</ele><time>2026-04-04T14:02:10.001Z</time></trkpt><trkpt lat="43.80316179072653" lon="12.433270229043195"><ele>338.0</ele><time>2026-04-04T14:02:11.001Z</time></trkpt><trkpt lat="43.80320350249524" lon="12.433433331818247"><ele>338.0</ele><time>2026-04-04T14:02:12.001Z</time></trkpt><trkpt lat="43.80321638598807" lon="12.433605065837526"><ele>338.0</ele><time>2026-04-04T14:02:13.001Z</time></trkpt><trkpt lat="43.803222950073206" lon="12.433779822629935"><ele>337.25</ele><time>2026-04-04T14:02:14.001Z</time></trkpt><trkpt lat="43.80321859494921" lon="12.433952691468235"><ele>336.5</ele><time>2026-04-04T14:02:15.001Z</time></trkpt><trkpt lat="43.80322157179372" lon="12.434126848100993"><ele>335.75</ele><time>2026-04-04T14:02:16.001Z</time></trkpt><trkpt lat="43.803197942160736" lon="12.434294656002802"><ele>335.0</ele><time>2026-04-04T14:02:17.001Z</time></trkpt><trkpt lat="43.80316872593542" lon="12.434463236388352"><ele>334.25</ele><time>2026-04-04T14:02:18.001Z</time></trkpt><trkpt lat="43.803149644335875" lon="12.43464164536358"><ele>333.5</ele><time>2026-04-04T14:02:19.001Z</time></trkpt><trkpt lat="43.80312799270115" lon="12.43482158360958"><ele>332.75</ele><time>2026-04-04T14:02:20.001Z</time></trkpt><trkpt lat="43.803101156044995" lon="12.434994793566991"><ele>332.0</ele><time>2026-04-04T14:02:21.001Z</time></trkpt><trkpt lat="43.803067716172265" lon="12.435165016171453"><ele>332.0</ele><time>2026-04-04T14:02:22.001Z</time></trkpt><trkpt lat="43.80303289024217" lon="12.435332593692735"><ele>332.0</ele><time>2026-04-04T14:02:23.001Z</time></trkpt><trkpt lat="43.80299407793517" lon="12.435497535417694"><ele>332.0</ele><time>2026-04-04T14:02:24.001Z</time></trkpt><trkpt lat="43.80295190119669" lon="12.435662789144072"><ele>332.0</ele><time>2026-04-04T14:02:25.001Z</time></trkpt><trkpt lat="43.80291756425778" lon="12.43582911188798"><ele>332.5</ele><time>2026-04-04T14:02:26.001Z</time></trkpt><trkpt lat="43.80287415909479" lon="12.435993159354364"><ele>333.0</ele><time>2026-04-04T14:02:27.001Z</time></trkpt><trkpt lat="43.802867414615804" lon="12.436161047505834"><ele>333.5</ele><time>2026-04-04T14:02:28.001Z</time></trkpt><trkpt lat="43.80287485150574" lon="12.436327344860267"><ele>334.0</ele><time>2026-04-04T14:02:29.001Z</time></trkpt><trkpt lat="43.80288795189348" lon="12.436499092516721"><ele>334.0</ele><time>2026-04-04T14:02:30.001Z</time></trkpt><trkpt lat="43.802904462669524" lon="12.436661238401697"><ele>334.0</ele><time>2026-04-04T14:02:31.001Z</time></trkpt><trkpt lat="43.80293759406405" lon="12.436816746050493"><ele>334.0</ele><time>2026-04-04T14:02:32.001Z</time></trkpt><trkpt lat="43.80293810928133" lon="12.436981382112544"><ele>334.0</ele><time>2026-04-04T14:02:33.001Z</time></trkpt><trkpt lat="43.802954933564614" lon="12.437141461990585"><ele>333.0</ele><time>2026-04-04T14:02:34.001Z</time></trkpt><trkpt lat="43.802970084938245" lon="12.437293812108624"><ele>332.0</ele><time>2026-04-04T14:02:35.001Z</time></trkpt><trkpt lat="43.80298572006951" lon="12.43744822409137"><ele>331.0</ele><time>2026-04-04T14:02:36.001Z</time></trkpt><trkpt lat="43.803000447640166" lon="12.437596827683286"><ele>330.0</ele><time>2026-04-04T14:02:37.001Z</time></trkpt><trkpt lat="43.80303110152161" lon="12.437745022609164"><ele>329.0</ele><time>2026-04-04T14:02:38.001Z</time></trkpt><trkpt lat="43.8030397161481" lon="12.437891985879569"><ele>328.0</ele><time>2026-04-04T14:02:39.001Z</time></trkpt><trkpt lat="43.80305737633934" lon="12.438038817289371"><ele>327.0</ele><time>2026-04-04T14:02:40.001Z</time></trkpt><trkpt lat="43.803060155398" lon="12.438185898432073"><ele>326.0</ele><time>2026-04-04T14:02:41Z</time></trkpt><trkpt lat="43.80309783438658" lon="12.438326019666968"><ele>325.0</ele><time>2026-04-04T14:02:42Z</time></trkpt><trkpt lat="43.80310945636443" lon="12.438467361171748"><ele>324.0</ele><time>2026-04-04T14:02:43Z</time></trkpt><trkpt lat="43.80311995770693" lon="12.438611888937304"><ele>324.0</ele><time>2026-04-04T14:02:44Z</time></trkpt><trkpt lat="43.80312997839201" lon="12.438759162807287"><ele>324.0</ele><time>2026-04-04T14:02:45Z</time></trkpt><trkpt lat="43.80314472646773" lon="12.438903492784918"><ele>324.0</ele><time>2026-04-04T14:02:46Z</time></trkpt><trkpt lat="43.80315655776031" lon="12.439039324139554"><ele>324.0</ele><time>2026-04-04T14:02:47Z</time></trkpt><trkpt lat="43.80317081624746" lon="12.439178415421964"><ele>324.0</ele><time>2026-04-04T14:02:48Z</time></trkpt><trkpt lat="43.80318590807102" lon="12.439317698723181"><ele>323.79999999999995</ele><time>2026-04-04T14:02:49Z</time></trkpt><trkpt lat="43.80320283182324" lon="12.439450345038434"><ele>323.59999999999997</ele><time>2026-04-04T14:02:50Z</time></trkpt><trkpt lat="43.80319944643788" lon="12.439582938806074"><ele>323.4</ele><time>2026-04-04T14:02:51Z</time></trkpt><trkpt lat="43.80321223102986" lon="12.4397127647493"><ele>323.2</ele><time>2026-04-04T14:02:52Z</time></trkpt><trkpt lat="43.80324072177925" lon="12.439834188851929"><ele>323.0</ele><time>2026-04-04T14:02:53Z</time></trkpt><trkpt lat="43.80324529727491" lon="12.439963354728022"><ele>322.83333333333337</ele><time>2026-04-04T14:02:54Z</time></trkpt><trkpt lat="43.803255126292974" lon="12.440089768319858"><ele>322.6666666666667</ele><time>2026-04-04T14:02:55Z</time></trkpt><trkpt lat="43.80326344495147" lon="12.440202980334366"><ele>322.5</ele><time>2026-04-04T14:02:56Z</time></trkpt><trkpt lat="43.8032707093014" lon="12.440303321362107"><ele>322.3333333333333</ele><time>2026-04-04T14:02:57Z</time></trkpt><trkpt lat="43.803266042067264" lon="12.440449498672985"><ele>322.16666666666663</ele><time>2026-04-04T14:02:59Z</time></trkpt><trkpt lat="43.80320548230753" lon="12.440552418478404"><ele>322.0</ele><time>2026-04-04T14:03:02Z</time></trkpt><trkpt lat="43.80313445751099" lon="12.440637054840124"><ele>322.0</ele><time>2026-04-04T14:03:04Z</time></trkpt><trkpt lat="43.803036377211754" lon="12.440708765682622"><ele>322.0</ele><time>2026-04-04T14:03:06Z</time></trkpt><trkpt lat="43.802924235378335" lon="12.440777003577333"><ele>322.0</ele><time>2026-04-04T14:03:08Z</time></trkpt><trkpt lat="43.80286239817668" lon="12.440809577677369"><ele>322.0</ele><time>2026-04-04T14:03:09Z</time></trkpt><trkpt lat="43.80279504095296" lon="12.440840326550122"><ele>322.0</ele><time>2026-04-04T14:03:10Z</time></trkpt><trkpt lat="43.80272466073252" lon="12.440869280565927"><ele>322.0</ele><time>2026-04-04T14:03:11Z</time></trkpt><trkpt lat="43.80265185843327" lon="12.440899469727634"><ele>320.3333333333333</ele><time>2026-04-04T14:03:12Z</time></trkpt><trkpt lat="43.80257379869757" lon="12.44092380864607"><ele>318.66666666666663</ele><time>2026-04-04T14:03:13Z</time></trkpt><trkpt lat="43.802497908536246" lon="12.440961426258454"><ele>317.0</ele><time>2026-04-04T14:03:14Z</time></trkpt><trkpt lat="43.80241913615687" lon="12.441025825211755"><ele>315.3333333333333</ele><time>2026-04-04T14:03:15Z</time></trkpt><trkpt lat="43.8023542761627" lon="12.441111727176319"><ele>313.6666666666667</ele><time>2026-04-04T14:03:16Z</time></trkpt><trkpt lat="43.80230366324381" lon="12.441217741837205"><ele>312.0</ele><time>2026-04-04T14:03:17Z</time></trkpt><trkpt lat="43.80227236192533" lon="12.44133522577996"><ele>312.0</ele><time>2026-04-04T14:03:18Z</time></trkpt><trkpt lat="43.80225904357094" lon="12.441461192441107"><ele>312.0</ele><time>2026-04-04T14:03:19Z</time></trkpt><trkpt lat="43.802267667646085" lon="12.44159613826105"><ele>312.0</ele><time>2026-04-04T14:03:20Z</time></trkpt><trkpt lat="43.8022809867423" lon="12.441734608193443"><ele>312.0</ele><time>2026-04-04T14:03:21Z</time></trkpt><trkpt lat="43.80229620375233" lon="12.441877302257861"><ele>312.0</ele><time>2026-04-04T14:03:22Z</time></trkpt><trkpt lat="43.8023110109672" lon="12.442021606688444"><ele>311.75</ele><time>2026-04-04T14:03:23Z</time></trkpt><trkpt lat="43.80232798856929" lon="12.44217587807543"><ele>311.5</ele><time>2026-04-04T14:03:24Z</time></trkpt><trkpt lat="43.802347429750675" lon="12.442328238337447"><ele>311.25</ele><time>2026-04-04T14:03:25Z</time></trkpt><trkpt lat="43.80236985770045" lon="12.442482265854018"><ele>311.0</ele><time>2026-04-04T14:03:26Z</time></trkpt><trkpt lat="43.80239331552265" lon="12.442638884915686"><ele>311.0</ele><time>2026-04-04T14:03:27Z</time></trkpt><trkpt lat="43.802414656485446" lon="12.44279422277596"><ele>311.0</ele><time>2026-04-04T14:03:28Z</time></trkpt><trkpt lat="43.8024345589613" lon="12.442948180648852"><ele>311.0</ele><time>2026-04-04T14:03:29Z</time></trkpt><trkpt lat="43.80244459256728" lon="12.443105739895957"><ele>311.0</ele><time>2026-04-04T14:03:30Z</time></trkpt><trkpt lat="43.802435128385035" lon="12.4432638597258"><ele>309.75</ele><time>2026-04-04T14:03:31Z</time></trkpt><trkpt lat="43.80240827363514" lon="12.443420373442848"><ele>308.5</ele><time>2026-04-04T14:03:32Z</time></trkpt><trkpt lat="43.80237519714257" lon="12.443574185140465"><ele>307.25</ele><time>2026-04-04T14:03:33.001Z</time></trkpt><trkpt lat="43.80234074763722" lon="12.44372608305118"><ele>306.0</ele><time>2026-04-04T14:03:34.001Z</time></trkpt><trkpt lat="43.802302065699706" lon="12.443876044677744"><ele>306.0</ele><time>2026-04-04T14:03:35.001Z</time></trkpt><trkpt lat="43.8022627617162" lon="12.444020821011213"><ele>306.0</ele><time>2026-04-04T14:03:36.001Z</time></trkpt><trkpt lat="43.80221114439051" lon="12.444157035203407"><ele>306.0</ele><time>2026-04-04T14:03:37.001Z</time></trkpt><trkpt lat="43.802147054663784" lon="12.444284566972463"><ele>306.0</ele><time>2026-04-04T14:03:38.001Z</time></trkpt><trkpt lat="43.80207087700827" lon="12.444396273228676"><ele>306.0</ele><time>2026-04-04T14:03:39.001Z</time></trkpt><trkpt lat="43.80199066147505" lon="12.444502773305851"><ele>306.0</ele><time>2026-04-04T14:03:40.001Z</time></trkpt><trkpt lat="43.801903028741016" lon="12.444603219734072"><ele>306.0</ele><time>2026-04-04T14:03:41.001Z</time></trkpt><trkpt lat="43.80181307709323" lon="12.444701705609724"><ele>306.0</ele><time>2026-04-04T14:03:42.001Z</time></trkpt><trkpt lat="43.801720711318346" lon="12.444795833897128"><ele>306.0</ele><time>2026-04-04T14:03:43.001Z</time></trkpt><trkpt lat="43.80162254790207" lon="12.444897231009696"><ele>304.2</ele><time>2026-04-04T14:03:44.001Z</time></trkpt><trkpt lat="43.80153329402944" lon="12.444986954367488"><ele>302.40000000000003</ele><time>2026-04-04T14:03:45.001Z</time></trkpt><trkpt lat="43.801441621431344" lon="12.445086275753726"><ele>300.6</ele><time>2026-04-04T14:03:46.001Z</time></trkpt><trkpt lat="43.801351798508556" lon="12.445176286547023"><ele>298.8</ele><time>2026-04-04T14:03:47.001Z</time></trkpt><trkpt lat="43.80126876601861" lon="12.445255930948887"><ele>297.0</ele><time>2026-04-04T14:03:48.001Z</time></trkpt><trkpt lat="43.801195980947504" lon="12.445332902867635"><ele>297.0</ele><time>2026-04-04T14:03:49.001Z</time></trkpt><trkpt lat="43.80114127099468" lon="12.445419700439485"><ele>297.0</ele><time>2026-04-04T14:03:50.001Z</time></trkpt><trkpt lat="43.801094183013085" lon="12.44550660102298"><ele>297.0</ele><time>2026-04-04T14:03:51.001Z</time></trkpt><trkpt lat="43.80105560370897" lon="12.445603637478431"><ele>297.0</ele><time>2026-04-04T14:03:52.001Z</time></trkpt><trkpt lat="43.80102882250758" lon="12.44571198300058"><ele>297.0</ele><time>2026-04-04T14:03:53.001Z</time></trkpt><trkpt lat="43.80099612416661" lon="12.445830906333745"><ele>297.0</ele><time>2026-04-04T14:03:54.001Z</time></trkpt><trkpt lat="43.80099523779098" lon="12.4459674859869"><ele>296.8</ele><time>2026-04-04T14:03:55.001Z</time></trkpt><trkpt lat="43.80100457373112" lon="12.446097992675377"><ele>296.6</ele><time>2026-04-04T14:03:56.001Z</time></trkpt><trkpt lat="43.801030981746514" lon="12.4462275677826"><ele>296.40000000000003</ele><time>2026-04-04T14:03:57.001Z</time></trkpt><trkpt lat="43.801048184059184" lon="12.446356727148776"><ele>296.2</ele><time>2026-04-04T14:03:58.001Z</time></trkpt><trkpt lat="43.80107841763904" lon="12.44647362657823"><ele>296.0</ele><time>2026-04-04T14:03:59.001Z</time></trkpt><trkpt lat="43.80106986378982" lon="12.446609767083517"><ele>295.8</ele><time>2026-04-04T14:04:00.001Z</time></trkpt><trkpt lat="43.801037543906595" lon="12.446737096776767"><ele>295.6</ele><time>2026-04-04T14:04:01.001Z</time></trkpt><trkpt lat="43.800991301403215" lon="12.446850722579894"><ele>295.4</ele><time>2026-04-04T14:04:02.001Z</time></trkpt><trkpt lat="43.80092140584926" lon="12.446947208913356"><ele>295.2</ele><time>2026-04-04T14:04:03.001Z</time></trkpt><trkpt lat="43.8008351166988" lon="12.447019008097818"><ele>295.0</ele><time>2026-04-04T14:04:04.001Z</time></trkpt><trkpt lat="43.80073813937107" lon="12.447054189498994"><ele>295.0</ele><time>2026-04-04T14:04:05.001Z</time></trkpt><trkpt lat="43.800631025613626" lon="12.447072776028998"><ele>295.0</ele><time>2026-04-04T14:04:06.001Z</time></trkpt><trkpt lat="43.80052241031443" lon="12.44707997031719"><ele>295.0</ele><time>2026-04-04T14:04:07.001Z</time></trkpt><trkpt lat="43.80040870297302" lon="12.447085865889195"><ele>295.0</ele><time>2026-04-04T14:04:08.001Z</time></trkpt><trkpt lat="43.80029110273925" lon="12.44709117524384"><ele>295.0</ele><time>2026-04-04T14:04:09.001Z</time></trkpt><trkpt lat="43.80016807361522" lon="12.447093922489536"><ele>294.5</ele><time>2026-04-04T14:04:10.001Z</time></trkpt><trkpt lat="43.8000420553674" lon="12.44710375341279"><ele>294.0</ele><time>2026-04-04T14:04:11.001Z</time></trkpt><trkpt lat="43.79991629657823" lon="12.447124399329812"><ele>293.5</ele><time>2026-04-04T14:04:12.001Z</time></trkpt><trkpt lat="43.799785847986946" lon="12.447150484428278"><ele>293.0</ele><time>2026-04-04T14:04:13.001Z</time></trkpt><trkpt lat="43.7996559342637" lon="12.447180175943036"><ele>293.5</ele><time>2026-04-04T14:04:14.001Z</time></trkpt><trkpt lat="43.79952249542376" lon="12.447217512346118"><ele>294.0</ele><time>2026-04-04T14:04:15.001Z</time></trkpt><trkpt lat="43.79938997392378" lon="12.4472634990278"><ele>294.5</ele><time>2026-04-04T14:04:16.001Z</time></trkpt><trkpt lat="43.799253354970745" lon="12.447301184461919"><ele>295.0</ele><time>2026-04-04T14:04:17.001Z</time></trkpt><trkpt lat="43.799116034086616" lon="12.447328579285786"><ele>295.0</ele><time>2026-04-04T14:04:18.001Z</time></trkpt><trkpt lat="43.79896999072353" lon="12.447342277362944"><ele>295.0</ele><time>2026-04-04T14:04:19.001Z</time></trkpt><trkpt lat="43.798823259627284" lon="12.447340491681805"><ele>295.0</ele><time>2026-04-04T14:04:20.001Z</time></trkpt><trkpt lat="43.798671981102636" lon="12.447321390501136"><ele>295.0</ele><time>2026-04-04T14:04:21.001Z</time></trkpt><trkpt lat="43.79852207663814" lon="12.44729918587391"><ele>295.66666666666663</ele><time>2026-04-04T14:04:22.001Z</time></trkpt><trkpt lat="43.79837033459588" lon="12.447281073354834"><ele>296.3333333333333</ele><time>2026-04-04T14:04:23.001Z</time></trkpt><trkpt lat="43.79821861936402" lon="12.44727498294064"><ele>297.0</ele><time>2026-04-04T14:04:24.001Z</time></trkpt><trkpt lat="43.79806953562483" lon="12.447294182682388"><ele>297.0</ele><time>2026-04-04T14:04:25.001Z</time></trkpt><trkpt lat="43.79791919542843" lon="12.447353246618134"><ele>297.0</ele><time>2026-04-04T14:04:26.001Z</time></trkpt><trkpt lat="43.797772364583935" lon="12.447433030047502"><ele>297.0</ele><time>2026-04-04T14:04:27.001Z</time></trkpt><trkpt lat="43.797628265652456" lon="12.447531119065987"><ele>295.6666666666667</ele><time>2026-04-04T14:04:28.001Z</time></trkpt><trkpt lat="43.797481864084894" lon="12.447630868636715"><ele>294.33333333333337</ele><time>2026-04-04T14:04:29.001Z</time></trkpt><trkpt lat="43.79733171646322" lon="12.44773066987905"><ele>293.0</ele><time>2026-04-04T14:04:30.001Z</time></trkpt><trkpt lat="43.79718137767434" lon="12.447828361234343"><ele>293.0</ele><time>2026-04-04T14:04:31.001Z</time></trkpt><trkpt lat="43.79703109248095" lon="12.447914576481482"><ele>293.0</ele><time>2026-04-04T14:04:32.001Z</time></trkpt><trkpt lat="43.79686321004255" lon="12.447994927971633"><ele>293.0</ele><time>2026-04-04T14:04:33.001Z</time></trkpt><trkpt lat="43.79669681316536" lon="12.448049275843767"><ele>294.33333333333337</ele><time>2026-04-04T14:04:34.001Z</time></trkpt><trkpt lat="43.79653102348516" lon="12.448086636964687"><ele>295.6666666666667</ele><time>2026-04-04T14:04:35.001Z</time></trkpt><trkpt lat="43.79636115342936" lon="12.448107806031002"><ele>297.0</ele><time>2026-04-04T14:04:36.001Z</time></trkpt><trkpt lat="43.79619573421572" lon="12.448129094833835"><ele>297.0</ele><time>2026-04-04T14:04:37.001Z</time></trkpt><trkpt lat="43.7960236971203" lon="12.448152378976367"><ele>297.0</ele><time>2026-04-04T14:04:38.001Z</time></trkpt><trkpt lat="43.79585075998853" lon="12.448171927029176"><ele>297.0</ele><time>2026-04-04T14:04:39.001Z</time></trkpt><trkpt lat="43.795686189942806" lon="12.448199341389326"><ele>295.6666666666667</ele><time>2026-04-04T14:04:40.001Z</time></trkpt><trkpt lat="43.795516242814315" lon="12.448222616991787"><ele>294.33333333333337</ele><time>2026-04-04T14:04:41.001Z</time></trkpt><trkpt lat="43.79534435176753" lon="12.44824451456534"><ele>293.0</ele><time>2026-04-04T14:04:42.001Z</time></trkpt><trkpt lat="43.79517382871182" lon="12.448264029768977"><ele>291.33333333333337</ele><time>2026-04-04T14:04:43.001Z</time></trkpt><trkpt lat="43.79500538896333" lon="12.448283724566295"><ele>289.6666666666667</ele><time>2026-04-04T14:04:44.001Z</time></trkpt><trkpt lat="43.79483546941086" lon="12.44830685835259"><ele>288.0</ele><time>2026-04-04T14:04:45.001Z</time></trkpt><trkpt lat="43.79466337522117" lon="12.448331241622583"><ele>288.0</ele><time>2026-04-04T14:04:46.001Z</time></trkpt><trkpt lat="43.79449356946436" lon="12.448356623397885"><ele>288.0</ele><time>2026-04-04T14:04:47Z</time></trkpt><trkpt lat="43.79432081541408" lon="12.448383072610419"><ele>288.0</ele><time>2026-04-04T14:04:48Z</time></trkpt><trkpt lat="43.79415186811052" lon="12.44841034177716"><ele>286.6666666666667</ele><time>2026-04-04T14:04:49Z</time></trkpt><trkpt lat="43.79398014658982" lon="12.44844335935197"><ele>285.33333333333337</ele><time>2026-04-04T14:04:50Z</time></trkpt><trkpt lat="43.793810995583485" lon="12.44845776102931"><ele>284.0</ele><time>2026-04-04T14:04:51Z</time></trkpt><trkpt lat="43.7936419887409" lon="12.448497385691885"><ele>282.0</ele><time>2026-04-04T14:04:52Z</time></trkpt><trkpt lat="43.79346872947861" lon="12.448545481933275"><ele>280.0</ele><time>2026-04-04T14:04:53Z</time></trkpt><trkpt lat="43.79329438280303" lon="12.4485954602598"><ele>278.0</ele><time>2026-04-04T14:04:54Z</time></trkpt><trkpt lat="43.79311804729573" lon="12.448646767080655"><ele>278.0</ele><time>2026-04-04T14:04:55Z</time></trkpt><trkpt lat="43.79294416463099" lon="12.448699711175482"><ele>278.0</ele><time>2026-04-04T14:04:56Z</time></trkpt><trkpt lat="43.792772645333486" lon="12.448762308924806"><ele>278.0</ele><time>2026-04-04T14:04:57Z</time></trkpt><trkpt lat="43.792608332057576" lon="12.44884473049551"><ele>280.6666666666667</ele><time>2026-04-04T14:04:58Z</time></trkpt><trkpt lat="43.7924528650917" lon="12.448971068698675"><ele>283.3333333333333</ele><time>2026-04-04T14:04:59Z</time></trkpt><trkpt lat="43.79229491747507" lon="12.449106423441435"><ele>286.0</ele><time>2026-04-04T14:05:00Z</time></trkpt><trkpt lat="43.79215143705084" lon="12.449248584126156"><ele>286.0</ele><time>2026-04-04T14:05:01Z</time></trkpt><trkpt lat="43.79202105559323" lon="12.44940420327931"><ele>286.0</ele><time>2026-04-04T14:05:02Z</time></trkpt><trkpt lat="43.791872916483364" lon="12.449561570920517"><ele>286.0</ele><time>2026-04-04T14:05:03Z</time></trkpt><trkpt lat="43.79175412559514" lon="12.449760739712865"><ele>284.0</ele><time>2026-04-04T14:05:04Z</time></trkpt><trkpt lat="43.79164852160534" lon="12.449979540128473"><ele>282.0</ele><time>2026-04-04T14:05:05Z</time></trkpt><trkpt lat="43.7915618502804" lon="12.450217999384636"><ele>280.0</ele><time>2026-04-04T14:05:06Z</time></trkpt><trkpt lat="43.791479824434354" lon="12.450456517197562"><ele>283.3333333333333</ele><time>2026-04-04T14:05:07Z</time></trkpt><trkpt lat="43.79140996095668" lon="12.450697173611875"><ele>286.6666666666667</ele><time>2026-04-04T14:05:08Z</time></trkpt><trkpt lat="43.79129904556367" lon="12.45090625147836"><ele>290.0</ele><time>2026-04-04T14:05:09Z</time></trkpt><trkpt lat="43.79119599455341" lon="12.451111750333677"><ele>284.33333333333337</ele><time>2026-04-04T14:05:10Z</time></trkpt><trkpt lat="43.791090825342735" lon="12.451311289757067"><ele>278.6666666666667</ele><time>2026-04-04T14:05:11Z</time></trkpt><trkpt lat="43.79098780988645" lon="12.451506839996897"><ele>273.0</ele><time>2026-04-04T14:05:12Z</time></trkpt><trkpt lat="43.79089619517598" lon="12.451709996968876"><ele>273.0</ele><time>2026-04-04T14:05:13Z</time></trkpt><trkpt lat="43.79077018721291" lon="12.451864756275858"><ele>273.0</ele><time>2026-04-04T14:05:14Z</time></trkpt><trkpt lat="43.7906445961693" lon="12.452014111653531"><ele>273.0</ele><time>2026-04-04T14:05:15Z</time></trkpt><trkpt lat="43.79049640172022" lon="12.452094700395177"><ele>273.0</ele><time>2026-04-04T14:05:16Z</time></trkpt><trkpt lat="43.79033839766724" lon="12.45211957836954"><ele>273.0</ele><time>2026-04-04T14:05:17Z</time></trkpt><trkpt lat="43.790170040375635" lon="12.452105018093828"><ele>273.0</ele><time>2026-04-04T14:05:18Z</time></trkpt><trkpt lat="43.79000493419716" lon="12.452093271897315"><ele>269.3333333333333</ele><time>2026-04-04T14:05:19Z</time></trkpt><trkpt lat="43.78983426446034" lon="12.452088639849551"><ele>265.66666666666663</ele><time>2026-04-04T14:05:20Z</time></trkpt><trkpt lat="43.7896631671084" lon="12.452085089064168"><ele>262.0</ele><time>2026-04-04T14:05:21Z</time></trkpt><trkpt lat="43.78949831580911" lon="12.452076712359304"><ele>262.0</ele><time>2026-04-04T14:05:22Z</time></trkpt><trkpt lat="43.789341763800685" lon="12.452072349717433"><ele>262.0</ele><time>2026-04-04T14:05:23Z</time></trkpt><trkpt lat="43.78918522266084" lon="12.452088786252416"><ele>262.0</ele><time>2026-04-04T14:05:24Z</time></trkpt><trkpt lat="43.78903739443973" lon="12.452147820878123"><ele>263.66666666666663</ele><time>2026-04-04T14:05:25Z</time></trkpt><trkpt lat="43.788904872719534" lon="12.45225212070356"><ele>265.3333333333333</ele><time>2026-04-04T14:05:26Z</time></trkpt><trkpt lat="43.78879400744319" lon="12.452398881937482"><ele>267.0</ele><time>2026-04-04T14:05:27Z</time></trkpt><trkpt lat="43.78871517389993" lon="12.452583905795393"><ele>267.0</ele><time>2026-04-04T14:05:28Z</time></trkpt><trkpt lat="43.78865575214717" lon="12.45278449524004"><ele>267.0</ele><time>2026-04-04T14:05:29Z</time></trkpt><trkpt lat="43.78860746597013" lon="12.452991744326665"><ele>267.0</ele><time>2026-04-04T14:05:30Z</time></trkpt><trkpt lat="43.78858852272336" lon="12.453214178486315"><ele>268.0</ele><time>2026-04-04T14:05:31Z</time></trkpt><trkpt lat="43.788586936904906" lon="12.453441841028203"><ele>269.0</ele><time>2026-04-04T14:05:32Z</time></trkpt><trkpt lat="43.7885997298138" lon="12.453674060600404"><ele>270.0</ele><time>2026-04-04T14:05:33Z</time></trkpt><trkpt lat="43.78860760541858" lon="12.453906233271297"><ele>271.3333333333333</ele><time>2026-04-04T14:05:34Z</time></trkpt><trkpt lat="43.78861517480053" lon="12.454137171369528"><ele>272.66666666666663</ele><time>2026-04-04T14:05:35Z</time></trkpt><trkpt lat="43.78862907980692" lon="12.454373317353976"><ele>274.0</ele><time>2026-04-04T14:05:36Z</time></trkpt><trkpt lat="43.78866003574328" lon="12.45460932875129"><ele>274.3333333333333</ele><time>2026-04-04T14:05:37Z</time></trkpt><trkpt lat="43.788712193303255" lon="12.454841076501362"><ele>274.6666666666667</ele><time>2026-04-04T14:05:38Z</time></trkpt><trkpt lat="43.7887591662326" lon="12.45507656227696"><ele>275.0</ele><time>2026-04-04T14:05:39Z</time></trkpt><trkpt lat="43.788843272619324" lon="12.455290460253774"><ele>273.0</ele><time>2026-04-04T14:05:40Z</time></trkpt><trkpt lat="43.78889908512361" lon="12.45552739497572"><ele>271.0</ele><time>2026-04-04T14:05:41Z</time></trkpt><trkpt lat="43.7889855527565" lon="12.455744344758303"><ele>269.0</ele><time>2026-04-04T14:05:42Z</time></trkpt><trkpt lat="43.7890559222078" lon="12.455972526382325"><ele>269.0</ele><time>2026-04-04T14:05:43Z</time></trkpt><trkpt lat="43.78912779686356" lon="12.45620407137156"><ele>269.0</ele><time>2026-04-04T14:05:44.001Z</time></trkpt><trkpt lat="43.78920313381414" lon="12.456437411801726"><ele>269.0</ele><time>2026-04-04T14:05:45.001Z</time></trkpt><trkpt lat="43.789274550464675" lon="12.456667463624374"><ele>267.33333333333337</ele><time>2026-04-04T14:05:46.001Z</time></trkpt><trkpt lat="43.789335128080836" lon="12.45690127869997"><ele>265.6666666666667</ele><time>2026-04-04T14:05:47.001Z</time></trkpt><trkpt lat="43.78937312025647" lon="12.457140207076563"><ele>264.0</ele><time>2026-04-04T14:05:48.001Z</time></trkpt><trkpt lat="43.78936403631275" lon="12.45737768823086"><ele>262.6666666666667</ele><time>2026-04-04T14:05:49.001Z</time></trkpt><trkpt lat="43.78937288344424" lon="12.457614149443234"><ele>261.33333333333337</ele><time>2026-04-04T14:05:50.001Z</time></trkpt><trkpt lat="43.78935002241394" lon="12.457844763676881"><ele>260.0</ele><time>2026-04-04T14:05:51.001Z</time></trkpt><trkpt lat="43.789321505241325" lon="12.458073981455652"><ele>260.0</ele><time>2026-04-04T14:05:52.001Z</time></trkpt><trkpt lat="43.78928892765629" lon="12.45829907018194"><ele>260.0</ele><time>2026-04-04T14:05:53.001Z</time></trkpt><trkpt lat="43.78925699806175" lon="12.45852443184019"><ele>260.0</ele><time>2026-04-04T14:05:54.001Z</time></trkpt><trkpt lat="43.78923510710054" lon="12.458749976293902"><ele>259.6666666666667</ele><time>2026-04-04T14:05:55.001Z</time></trkpt><trkpt lat="43.78922710898046" lon="12.458974431587214"><ele>259.3333333333333</ele><time>2026-04-04T14:05:56.001Z</time></trkpt><trkpt lat="43.78923635664674" lon="12.459200185351422"><ele>259.0</ele><time>2026-04-04T14:05:57.001Z</time></trkpt><trkpt lat="43.78926039656375" lon="12.45942106929204"><ele>257.66666666666663</ele><time>2026-04-04T14:05:58.001Z</time></trkpt><trkpt lat="43.78930076832544" lon="12.459641707465401"><ele>256.3333333333333</ele><time>2026-04-04T14:05:59.001Z</time></trkpt><trkpt lat="43.78934535077566" lon="12.459859435961091"><ele>255.0</ele><time>2026-04-04T14:06:00.001Z</time></trkpt><trkpt lat="43.78941614427876" lon="12.46006415327284"><ele>257.6666666666667</ele><time>2026-04-04T14:06:01.001Z</time></trkpt><trkpt lat="43.789494220860824" lon="12.460260070058114"><ele>260.33333333333337</ele><time>2026-04-04T14:06:02.001Z</time></trkpt><trkpt lat="43.78957106016641" lon="12.460457533935731"><ele>263.0</ele><time>2026-04-04T14:06:03.001Z</time></trkpt><trkpt lat="43.78964619095877" lon="12.460657171479985"><ele>263.0</ele><time>2026-04-04T14:06:04.001Z</time></trkpt><trkpt lat="43.78971239061009" lon="12.460857584372656"><ele>263.0</ele><time>2026-04-04T14:06:05.001Z</time></trkpt><trkpt lat="43.78978205206446" lon="12.46105284997306"><ele>263.0</ele><time>2026-04-04T14:06:06.001Z</time></trkpt><trkpt lat="43.78981933748505" lon="12.461270343550387"><ele>263.33333333333337</ele><time>2026-04-04T14:06:07.001Z</time></trkpt><trkpt lat="43.78983971709611" lon="12.461492214463139"><ele>263.6666666666667</ele><time>2026-04-04T14:06:08.001Z</time></trkpt><trkpt lat="43.78984327197019" lon="12.461711872607037"><ele>264.0</ele><time>2026-04-04T14:06:09.001Z</time></trkpt><trkpt lat="43.789838672786594" lon="12.461927845634401"><ele>264.3333333333333</ele><time>2026-04-04T14:06:10.001Z</time></trkpt><trkpt lat="43.78981086222717" lon="12.462143987928927"><ele>264.66666666666663</ele><time>2026-04-04T14:06:11.001Z</time></trkpt><trkpt lat="43.789766661292504" lon="12.462361910444427"><ele>265.0</ele><time>2026-04-04T14:06:12.001Z</time></trkpt><trkpt lat="43.789704440983954" lon="12.462579841915206"><ele>265.0</ele><time>2026-04-04T14:06:13.001Z</time></trkpt><trkpt lat="43.78962688147836" lon="12.462785378288954"><ele>265.0</ele><time>2026-04-04T14:06:14.001Z</time></trkpt><trkpt lat="43.78953468958489" lon="12.462977334852596"><ele>265.0</ele><time>2026-04-04T14:06:15.001Z</time></trkpt><trkpt lat="43.7894341003318" lon="12.463159984400003"><ele>260.0</ele><time>2026-04-04T14:06:16.001Z</time></trkpt><trkpt lat="43.78933144276565" lon="12.463341445275145"><ele>255.0</ele><time>2026-04-04T14:06:17.001Z</time></trkpt><trkpt lat="43.7892332377672" lon="12.463519216013491"><ele>250.0</ele><time>2026-04-04T14:06:18.001Z</time></trkpt><trkpt lat="43.78914492886655" lon="12.463683227775231"><ele>251.0</ele><time>2026-04-04T14:06:19.001Z</time></trkpt><trkpt lat="43.78906577453988" lon="12.463832210360774"><ele>252.0</ele><time>2026-04-04T14:06:20.001Z</time></trkpt><trkpt lat="43.7889897540312" lon="12.463975690791756"><ele>253.0</ele><time>2026-04-04T14:06:21.001Z</time></trkpt><trkpt lat="43.78891522267726" lon="12.464113147114709"><ele>254.0</ele><time>2026-04-04T14:06:22.001Z</time></trkpt><trkpt lat="43.78884082805913" lon="12.464250581341913"><ele>254.0</ele><time>2026-04-04T14:06:23.001Z</time></trkpt><trkpt lat="43.78876540916278" lon="12.46439353179226"><ele>254.0</ele><time>2026-04-04T14:06:24.001Z</time></trkpt><trkpt lat="43.78868855559101" lon="12.464540343091267"><ele>254.0</ele><time>2026-04-04T14:06:25.001Z</time></trkpt><trkpt lat="43.78860800269916" lon="12.464689684697024"><ele>254.0</ele><time>2026-04-04T14:06:26.001Z</time></trkpt><trkpt lat="43.788525180546" lon="12.464839638084637"><ele>252.0</ele><time>2026-04-04T14:06:27.001Z</time></trkpt><trkpt lat="43.788439699570795" lon="12.464987404892158"><ele>250.0</ele><time>2026-04-04T14:06:28.001Z</time></trkpt><trkpt lat="43.78835685838021" lon="12.465136460952838"><ele>248.0</ele><time>2026-04-04T14:06:29.001Z</time></trkpt><trkpt lat="43.788275428750985" lon="12.465291690342548"><ele>246.0</ele><time>2026-04-04T14:06:30.001Z</time></trkpt><trkpt lat="43.78819394448523" lon="12.465442987790498"><ele>248.25</ele><time>2026-04-04T14:06:31.001Z</time></trkpt><trkpt lat="43.78811039048835" lon="12.46559473582605"><ele>250.5</ele><time>2026-04-04T14:06:32.001Z</time></trkpt><trkpt lat="43.78802721866997" lon="12.465745721262255"><ele>252.75</ele><time>2026-04-04T14:06:33.001Z</time></trkpt><trkpt lat="43.78793913325448" lon="12.46590059627656"><ele>255.0</ele><time>2026-04-04T14:06:34.001Z</time></trkpt><trkpt lat="43.787853041177016" lon="12.46605287353432"><ele>255.0</ele><time>2026-04-04T14:06:35.001Z</time></trkpt><trkpt lat="43.787767850806155" lon="12.466212369128545"><ele>255.0</ele><time>2026-04-04T14:06:36.001Z</time></trkpt><trkpt lat="43.78768780208679" lon="12.466378380724805"><ele>255.0</ele><time>2026-04-04T14:06:37.001Z</time></trkpt><trkpt lat="43.78760720556057" lon="12.466549585063422"><ele>255.0</ele><time>2026-04-04T14:06:38.001Z</time></trkpt><trkpt lat="43.787529634097424" lon="12.466728727898767"><ele>254.33333333333331</ele><time>2026-04-04T14:06:39.001Z</time></trkpt><trkpt lat="43.78744815058077" lon="12.466911435499682"><ele>253.66666666666666</ele><time>2026-04-04T14:06:40.001Z</time></trkpt><trkpt lat="43.78736859506052" lon="12.467096658261315"><ele>253.0</ele><time>2026-04-04T14:06:41.001Z</time></trkpt><trkpt lat="43.78729263778574" lon="12.467289422809468"><ele>253.0</ele><time>2026-04-04T14:06:42.001Z</time></trkpt><trkpt lat="43.787217359267295" lon="12.467491913782561"><ele>253.0</ele><time>2026-04-04T14:06:43.001Z</time></trkpt><trkpt lat="43.78714045693232" lon="12.467700133918411"><ele>253.0</ele><time>2026-04-04T14:06:44.001Z</time></trkpt><trkpt lat="43.7870604351352" lon="12.467912253738392"><ele>253.33333333333331</ele><time>2026-04-04T14:06:45.001Z</time></trkpt><trkpt lat="43.78697703539871" lon="12.468117721311184"><ele>253.66666666666669</ele><time>2026-04-04T14:06:46.001Z</time></trkpt><trkpt lat="43.786893545309475" lon="12.468320466518612"><ele>254.0</ele><time>2026-04-04T14:06:47.001Z</time></trkpt><trkpt lat="43.78681387065734" lon="12.468523145880704"><ele>252.0</ele><time>2026-04-04T14:06:48.001Z</time></trkpt><trkpt lat="43.78673467449738" lon="12.468724296250928"><ele>250.0</ele><time>2026-04-04T14:06:49.001Z</time></trkpt><trkpt lat="43.78665833518181" lon="12.46891939822068"><ele>248.0</ele><time>2026-04-04T14:06:50.001Z</time></trkpt><trkpt lat="43.78658655995908" lon="12.469102599279273"><ele>248.0</ele><time>2026-04-04T14:06:51.001Z</time></trkpt><trkpt lat="43.78651908361842" lon="12.469275836917488"><ele>248.0</ele><time>2026-04-04T14:06:52.001Z</time></trkpt><trkpt lat="43.7864557074936" lon="12.469443668048726"><ele>248.0</ele><time>2026-04-04T14:06:53Z</time></trkpt><trkpt lat="43.78639294998756" lon="12.469606024510338"><ele>248.0</ele><time>2026-04-04T14:06:54Z</time></trkpt><trkpt lat="43.786332426112374" lon="12.469761533796772"><ele>249.5</ele><time>2026-04-04T14:06:55Z</time></trkpt><trkpt lat="43.78626620795524" lon="12.46990828448171"><ele>251.0</ele><time>2026-04-04T14:06:56Z</time></trkpt><trkpt lat="43.78620043382013" lon="12.47004164433738"><ele>252.5</ele><time>2026-04-04T14:06:57Z</time></trkpt><trkpt lat="43.78613213422365" lon="12.470170746225648"><ele>254.0</ele><time>2026-04-04T14:06:58Z</time></trkpt><trkpt lat="43.78605703833516" lon="12.47029843052324"><ele>250.75</ele><time>2026-04-04T14:06:59Z</time></trkpt><trkpt lat="43.78597121309807" lon="12.47042819492631"><ele>247.5</ele><time>2026-04-04T14:07:00Z</time></trkpt><trkpt lat="43.78587605167515" lon="12.470557984145172"><ele>244.25</ele><time>2026-04-04T14:07:01Z</time></trkpt><trkpt lat="43.78575868373524" lon="12.470662491243091"><ele>241.0</ele><time>2026-04-04T14:07:02Z</time></trkpt><trkpt lat="43.78564279951483" lon="12.47078134125703"><ele>241.0</ele><time>2026-04-04T14:07:03Z</time></trkpt><trkpt lat="43.78552038502363" lon="12.470904591143482"><ele>241.0</ele><time>2026-04-04T14:07:04Z</time></trkpt><trkpt lat="43.785411716342374" lon="12.471058864099339"><ele>241.0</ele><time>2026-04-04T14:07:05Z</time></trkpt><trkpt lat="43.78528098685743" lon="12.471178103549118"><ele>238.0</ele><time>2026-04-04T14:07:06Z</time></trkpt><trkpt lat="43.78514663039491" lon="12.471301088256283"><ele>235.0</ele><time>2026-04-04T14:07:07Z</time></trkpt><trkpt lat="43.78501461387512" lon="12.471430833082731"><ele>232.0</ele><time>2026-04-04T14:07:08Z</time></trkpt><trkpt lat="43.784881572259714" lon="12.471559940936825"><ele>232.0</ele><time>2026-04-04T14:07:09Z</time></trkpt><trkpt lat="43.78475537760614" lon="12.471691746616008"><ele>232.0</ele><time>2026-04-04T14:07:10Z</time></trkpt><trkpt lat="43.78461265318932" lon="12.471832701201125"><ele>232.0</ele><time>2026-04-04T14:07:11Z</time></trkpt><trkpt lat="43.784471029911955" lon="12.471973106196659"><ele>231.66666666666666</ele><time>2026-04-04T14:07:12Z</time></trkpt><trkpt lat="43.78432839398525" lon="12.472111998860369"><ele>231.33333333333331</ele><time>2026-04-04T14:07:13Z</time></trkpt><trkpt lat="43.78418487689143" lon="12.472251232409262"><ele>231.0</ele><time>2026-04-04T14:07:14Z</time></trkpt><trkpt lat="43.78404073598146" lon="12.472392284847277"><ele>231.0</ele><time>2026-04-04T14:07:15Z</time></trkpt><trkpt lat="43.78389271002724" lon="12.47253625577535"><ele>231.0</ele><time>2026-04-04T14:07:16Z</time></trkpt><trkpt lat="43.78374468948059" lon="12.472681721919528"><ele>231.0</ele><time>2026-04-04T14:07:17Z</time></trkpt><trkpt lat="43.78359672707554" lon="12.472829369132944"><ele>231.33333333333331</ele><time>2026-04-04T14:07:18Z</time></trkpt><trkpt lat="43.783445478760754" lon="12.472980556185098"><ele>231.66666666666666</ele><time>2026-04-04T14:07:19Z</time></trkpt><trkpt lat="43.78329617298692" lon="12.473133171947573"><ele>232.0</ele><time>2026-04-04T14:07:20Z</time></trkpt><trkpt lat="43.78314476886841" lon="12.47328396297296"><ele>232.0</ele><time>2026-04-04T14:07:21Z</time></trkpt><trkpt lat="43.78299481487659" lon="12.47343290569225"><ele>232.0</ele><time>2026-04-04T14:07:22Z</time></trkpt><trkpt lat="43.78284556497222" lon="12.473581673278373"><ele>232.0</ele><time>2026-04-04T14:07:23Z</time></trkpt><trkpt lat="43.78269889383802" lon="12.473730221465928"><ele>232.0</ele><time>2026-04-04T14:07:24Z</time></trkpt><trkpt lat="43.782550707224644" lon="12.47388163879536"><ele>232.0</ele><time>2026-04-04T14:07:25Z</time></trkpt><trkpt lat="43.78240507770806" lon="12.474027819268814"><ele>232.0</ele><time>2026-04-04T14:07:26Z</time></trkpt><trkpt lat="43.782261425519025" lon="12.474171724129475"><ele>232.0</ele><time>2026-04-04T14:07:27Z</time></trkpt><trkpt lat="43.782117062612606" lon="12.474317200615783"><ele>232.0</ele><time>2026-04-04T14:07:28Z</time></trkpt><trkpt lat="43.78197249209454" lon="12.474460601748522"><ele>232.0</ele><time>2026-04-04T14:07:29Z</time></trkpt><trkpt lat="43.781828057061894" lon="12.474603062226718"><ele>230.33333333333331</ele><time>2026-04-04T14:07:30Z</time></trkpt><trkpt lat="43.78168365868617" lon="12.474743926742065"><ele>228.66666666666669</ele><time>2026-04-04T14:07:31Z</time></trkpt><trkpt lat="43.78153725356944" lon="12.474883819767992"><ele>227.0</ele><time>2026-04-04T14:07:32Z</time></trkpt><trkpt lat="43.781388369069745" lon="12.475018173956308"><ele>227.0</ele><time>2026-04-04T14:07:33Z</time></trkpt><trkpt lat="43.78123602196628" lon="12.475134617957522"><ele>227.0</ele><time>2026-04-04T14:07:34Z</time></trkpt><trkpt lat="43.7810820016314" lon="12.475240946223304"><ele>227.0</ele><time>2026-04-04T14:07:35Z</time></trkpt><trkpt lat="43.78092184702638" lon="12.475346050999063"><ele>227.33333333333334</ele><time>2026-04-04T14:07:36Z</time></trkpt><trkpt lat="43.78076431593997" lon="12.47544701664303"><ele>227.66666666666669</ele><time>2026-04-04T14:07:37Z</time></trkpt><trkpt lat="43.78060861659006" lon="12.475547956102988"><ele>228.0</ele><time>2026-04-04T14:07:38Z</time></trkpt><trkpt lat="43.78045012614219" lon="12.475647359140085"><ele>228.0</ele><time>2026-04-04T14:07:39Z</time></trkpt><trkpt lat="43.780294009685086" lon="12.475741805295781"><ele>228.0</ele><time>2026-04-04T14:07:40Z</time></trkpt><trkpt lat="43.780147713719636" lon="12.475831793132746"><ele>228.0</ele><time>2026-04-04T14:07:41Z</time></trkpt><trkpt lat="43.78001370103832" lon="12.475913088711012"><ele>227.0</ele><time>2026-04-04T14:07:42Z</time></trkpt><trkpt lat="43.77989729755845" lon="12.475987205835338"><ele>226.0</ele><time>2026-04-04T14:07:43Z</time></trkpt><trkpt lat="43.77979149788078" lon="12.47604962226673"><ele>225.0</ele><time>2026-04-04T14:07:44Z</time></trkpt><trkpt lat="43.7796987188334" lon="12.476097726868913"><ele>224.0</ele><time>2026-04-04T14:07:45Z</time></trkpt><trkpt lat="43.77961398581129" lon="12.47613545776199"><ele>223.0</ele><time>2026-04-04T14:07:46.001Z</time></trkpt><trkpt lat="43.77953307085934" lon="12.476138163085805"><ele>222.99999999999997</ele><time>2026-04-04T14:07:47.001Z</time></trkpt><trkpt lat="43.779457658308026" lon="12.476110311898896"><ele>223.0</ele><time>2026-04-04T14:07:48.001Z</time></trkpt><trkpt lat="43.779377279674165" lon="12.47605353190054"><ele>223.0</ele><time>2026-04-04T14:07:49.001Z</time></trkpt><trkpt lat="43.77929976142886" lon="12.476014614296886"><ele>223.0</ele><time>2026-04-04T14:07:50.001Z</time></trkpt><trkpt lat="43.77925707935429" lon="12.475896021829024"><ele>222.99999999999997</ele><time>2026-04-04T14:07:51.001Z</time></trkpt><trkpt lat="43.77921412994338" lon="12.475776040021007"><ele>223.0</ele><time>2026-04-04T14:07:52.001Z</time></trkpt><trkpt lat="43.779181093390925" lon="12.47563245053854"><ele>222.25</ele><time>2026-04-04T14:07:53.001Z</time></trkpt><trkpt lat="43.77914665362925" lon="12.475475924438037"><ele>221.5</ele><time>2026-04-04T14:07:54.001Z</time></trkpt><trkpt lat="43.77910905877689" lon="12.475308777494101"><ele>220.75</ele><time>2026-04-04T14:07:55.001Z</time></trkpt><trkpt lat="43.77906760082412" lon="12.47512875434301"><ele>220.0</ele><time>2026-04-04T14:07:56.001Z</time></trkpt><trkpt lat="43.779023393539774" lon="12.474949577939206"><ele>220.0</ele><time>2026-04-04T14:07:57.001Z</time></trkpt><trkpt lat="43.77898352141638" lon="12.474763496372413"><ele>220.0</ele><time>2026-04-04T14:07:58.001Z</time></trkpt><trkpt lat="43.77893196084867" lon="12.474570094645868"><ele>220.0</ele><time>2026-04-04T14:07:59.001Z</time></trkpt><trkpt lat="43.77886282163591" lon="12.474392940729132"><ele>220.0</ele><time>2026-04-04T14:08:00.001Z</time></trkpt><trkpt lat="43.778766255590625" lon="12.47423549182106"><ele>221.0</ele><time>2026-04-04T14:08:01.001Z</time></trkpt><trkpt lat="43.77865720106178" lon="12.474096676064699"><ele>222.0</ele><time>2026-04-04T14:08:02.001Z</time></trkpt><trkpt lat="43.778534449010216" lon="12.473975736622075"><ele>223.0</ele><time>2026-04-04T14:08:03.001Z</time></trkpt><trkpt lat="43.77840066879868" lon="12.473865498051085"><ele>228.0</ele><time>2026-04-04T14:08:04.001Z</time></trkpt><trkpt lat="43.77827700131493" lon="12.47373978261773"><ele>233.0</ele><time>2026-04-04T14:08:05.001Z</time></trkpt><trkpt lat="43.77815596821733" lon="12.473601290355765"><ele>238.0</ele><time>2026-04-04T14:08:06.001Z</time></trkpt><trkpt lat="43.778034627612094" lon="12.473460242633651"><ele>238.0</ele><time>2026-04-04T14:08:07.001Z</time></trkpt><trkpt lat="43.777911511078734" lon="12.473318110771674"><ele>238.0</ele><time>2026-04-04T14:08:08.001Z</time></trkpt><trkpt lat="43.77778831033246" lon="12.473178841709544"><ele>238.0</ele><time>2026-04-04T14:08:09.001Z</time></trkpt><trkpt lat="43.777672835858894" lon="12.473025718300782"><ele>236.33333333333331</ele><time>2026-04-04T14:08:10.001Z</time></trkpt><trkpt lat="43.77756483696332" lon="12.472852245033117"><ele>234.66666666666669</ele><time>2026-04-04T14:08:11.001Z</time></trkpt><trkpt lat="43.77746529206652" lon="12.472666532078842"><ele>233.0</ele><time>2026-04-04T14:08:12.001Z</time></trkpt><trkpt lat="43.777366561664806" lon="12.472470483748618"><ele>233.0</ele><time>2026-04-04T14:08:13.001Z</time></trkpt><trkpt lat="43.777274480711334" lon="12.47226948998653"><ele>233.0</ele><time>2026-04-04T14:08:14.001Z</time></trkpt><trkpt lat="43.777181959524576" lon="12.472066535697284"><ele>233.0</ele><time>2026-04-04T14:08:15.001Z</time></trkpt><trkpt lat="43.777085335661795" lon="12.471860841568434"><ele>235.33333333333334</ele><time>2026-04-04T14:08:16.001Z</time></trkpt><trkpt lat="43.77698927973356" lon="12.471653108203746"><ele>237.66666666666669</ele><time>2026-04-04T14:08:17.001Z</time></trkpt><trkpt lat="43.77689253027906" lon="12.471453794206058"><ele>240.0</ele><time>2026-04-04T14:08:18.001Z</time></trkpt><trkpt lat="43.776794714190466" lon="12.471258025495452"><ele>240.0</ele><time>2026-04-04T14:08:19.001Z</time></trkpt><trkpt lat="43.77669794432213" lon="12.471061025060678"><ele>240.0</ele><time>2026-04-04T14:08:20.001Z</time></trkpt><trkpt lat="43.77660242998896" lon="12.470863970824428"><ele>240.0</ele><time>2026-04-04T14:08:21.001Z</time></trkpt><trkpt lat="43.77651384290285" lon="12.470667818055524"><ele>240.0</ele><time>2026-04-04T14:08:22.001Z</time></trkpt><trkpt lat="43.776426042496695" lon="12.47047796460415"><ele>240.0</ele><time>2026-04-04T14:08:23.001Z</time></trkpt><trkpt lat="43.77634729046935" lon="12.470292823775326"><ele>240.0</ele><time>2026-04-04T14:08:24.001Z</time></trkpt><trkpt lat="43.77626827205176" lon="12.470111482499012"><ele>243.33333333333331</ele><time>2026-04-04T14:08:25.001Z</time></trkpt><trkpt lat="43.77619112746523" lon="12.469928352507614"><ele>246.66666666666666</ele><time>2026-04-04T14:08:26.001Z</time></trkpt><trkpt lat="43.776111789884425" lon="12.469744876200217"><ele>250.0</ele><time>2026-04-04T14:08:27.001Z</time></trkpt><trkpt lat="43.776031944795704" lon="12.46956834038569"><ele>246.66666666666666</ele><time>2026-04-04T14:08:28.001Z</time></trkpt><trkpt lat="43.77594409672905" lon="12.469394538808597"><ele>243.33333333333331</ele><time>2026-04-04T14:08:29.001Z</time></trkpt><trkpt lat="43.77584987348317" lon="12.469220780347888"><ele>240.0</ele><time>2026-04-04T14:08:30.001Z</time></trkpt><trkpt lat="43.77574861586615" lon="12.469051343812158"><ele>240.0</ele><time>2026-04-04T14:08:31.001Z</time></trkpt><trkpt lat="43.775638527692664" lon="12.468889442077867"><ele>240.0</ele><time>2026-04-04T14:08:32.001Z</time></trkpt><trkpt lat="43.775520883372955" lon="12.468729491662184"><ele>240.0</ele><time>2026-04-04T14:08:33.001Z</time></trkpt><trkpt lat="43.77539789342995" lon="12.468568857551528"><ele>238.33333333333331</ele><time>2026-04-04T14:08:34.001Z</time></trkpt><trkpt lat="43.775273884292794" lon="12.468405633275099"><ele>236.66666666666666</ele><time>2026-04-04T14:08:35.001Z</time></trkpt><trkpt lat="43.77514802631559" lon="12.468241598253188"><ele>235.0</ele><time>2026-04-04T14:08:36.001Z</time></trkpt><trkpt lat="43.77501861813555" lon="12.468077597443246"><ele>237.66666666666666</ele><time>2026-04-04T14:08:37.001Z</time></trkpt><trkpt lat="43.77488780549268" lon="12.467912529840294"><ele>240.33333333333331</ele><time>2026-04-04T14:08:38.001Z</time></trkpt><trkpt lat="43.774759667251466" lon="12.467744373982045"><ele>243.0</ele><time>2026-04-04T14:08:39.001Z</time></trkpt><trkpt lat="43.77463293641747" lon="12.467568350989854"><ele>243.0</ele><time>2026-04-04T14:08:40.001Z</time></trkpt><trkpt lat="43.7745057402418" lon="12.467391827594538"><ele>243.0</ele><time>2026-04-04T14:08:41.001Z</time></trkpt><trkpt lat="43.77438223130224" lon="12.467218182621439"><ele>243.0</ele><time>2026-04-04T14:08:42.001Z</time></trkpt><trkpt lat="43.77426188357666" lon="12.467046452884304"><ele>242.66666666666669</ele><time>2026-04-04T14:08:43.001Z</time></trkpt><trkpt lat="43.77414209405743" lon="12.466872547640783"><ele>242.33333333333334</ele><time>2026-04-04T14:08:44.001Z</time></trkpt><trkpt lat="43.774020885930135" lon="12.466701241721363"><ele>242.0</ele><time>2026-04-04T14:08:45.001Z</time></trkpt><trkpt lat="43.7739023522106" lon="12.46652726251974"><ele>242.0</ele><time>2026-04-04T14:08:46.001Z</time></trkpt><trkpt lat="43.77378624447957" lon="12.466354163144707"><ele>242.0</ele><time>2026-04-04T14:08:47.001Z</time></trkpt><trkpt lat="43.773670745034586" lon="12.466178918561356"><ele>242.0</ele><time>2026-04-04T14:08:48.001Z</time></trkpt><trkpt lat="43.77355529898229" lon="12.466005448426628"><ele>241.0</ele><time>2026-04-04T14:08:49.001Z</time></trkpt><trkpt lat="43.77344576191865" lon="12.465831802350813"><ele>240.0</ele><time>2026-04-04T14:08:50.001Z</time></trkpt><trkpt lat="43.77333218919094" lon="12.4656745103828"><ele>239.0</ele><time>2026-04-04T14:08:51.001Z</time></trkpt><trkpt lat="43.77322059293811" lon="12.465518667174353"><ele>241.33333333333334</ele><time>2026-04-04T14:08:52.001Z</time></trkpt><trkpt lat="43.77311414756848" lon="12.46535682872841"><ele>243.66666666666669</ele><time>2026-04-04T14:08:53.001Z</time></trkpt><trkpt lat="43.7730131626139" lon="12.465190849559708"><ele>246.0</ele><time>2026-04-04T14:08:54.001Z</time></trkpt><trkpt lat="43.77292397698118" lon="12.465012487174377"><ele>246.0</ele><time>2026-04-04T14:08:55.001Z</time></trkpt><trkpt lat="43.77284817311534" lon="12.464817920569844"><ele>246.0</ele><time>2026-04-04T14:08:56.001Z</time></trkpt><trkpt lat="43.77278455423385" lon="12.464619974451036"><ele>246.0</ele><time>2026-04-04T14:08:57.001Z</time></trkpt><trkpt lat="43.772727441698954" lon="12.464421839543466"><ele>242.0</ele><time>2026-04-04T14:08:58.001Z</time></trkpt><trkpt lat="43.77266727440916" lon="12.46422344327989"><ele>238.0</ele><time>2026-04-04T14:08:59Z</time></trkpt><trkpt lat="43.77260213670596" lon="12.464020939357882"><ele>234.0</ele><time>2026-04-04T14:09:00Z</time></trkpt><trkpt lat="43.77253050163569" lon="12.463814190474755"><ele>234.66666666666669</ele><time>2026-04-04T14:09:01Z</time></trkpt><trkpt lat="43.772452831333005" lon="12.463611263470431"><ele>235.33333333333334</ele><time>2026-04-04T14:09:02Z</time></trkpt><trkpt lat="43.77235879677116" lon="12.46341568377366"><ele>236.0</ele><time>2026-04-04T14:09:03Z</time></trkpt><trkpt lat="43.772253017041216" lon="12.463221631803592"><ele>236.0</ele><time>2026-04-04T14:09:04Z</time></trkpt><trkpt lat="43.772139897386474" lon="12.463027136935068"><ele>236.0</ele><time>2026-04-04T14:09:05Z</time></trkpt><trkpt lat="43.77201510688866" lon="12.462834790692567"><ele>236.0</ele><time>2026-04-04T14:09:06Z</time></trkpt><trkpt lat="43.77188455393371" lon="12.462639808276654"><ele>233.66666666666669</ele><time>2026-04-04T14:09:07Z</time></trkpt><trkpt lat="43.77174476215482" lon="12.46242744244302"><ele>231.33333333333331</ele><time>2026-04-04T14:09:08Z</time></trkpt><trkpt lat="43.77161070043925" lon="12.462196658943288"><ele>229.0</ele><time>2026-04-04T14:09:09Z</time></trkpt><trkpt lat="43.771477585805265" lon="12.461966527482243"><ele>229.0</ele><time>2026-04-04T14:09:10Z</time></trkpt><trkpt lat="43.77133399461591" lon="12.46172625478833"><ele>229.0</ele><time>2026-04-04T14:09:11Z</time></trkpt><trkpt lat="43.77119362608889" lon="12.461499801746017"><ele>229.0</ele><time>2026-04-04T14:09:12Z</time></trkpt><trkpt lat="43.77106205201" lon="12.46128447740462"><ele>231.66666666666666</ele><time>2026-04-04T14:09:13Z</time></trkpt><trkpt lat="43.770932400079445" lon="12.461082681921292"><ele>234.33333333333331</ele><time>2026-04-04T14:09:14Z</time></trkpt><trkpt lat="43.770800783282084" lon="12.46090492744116"><ele>237.0</ele><time>2026-04-04T14:09:15Z</time></trkpt><trkpt lat="43.770664886463855" lon="12.460751684010159"><ele>237.0</ele><time>2026-04-04T14:09:16Z</time></trkpt><trkpt lat="43.770522882728535" lon="12.460621261060467"><ele>237.0</ele><time>2026-04-04T14:09:17Z</time></trkpt><trkpt lat="43.770375781865" lon="12.460512221210573"><ele>237.0</ele><time>2026-04-04T14:09:18Z</time></trkpt><trkpt lat="43.77022594545821" lon="12.460425835307305"><ele>240.25</ele><time>2026-04-04T14:09:19Z</time></trkpt><trkpt lat="43.7700806487372" lon="12.460363855719102"><ele>243.5</ele><time>2026-04-04T14:09:20Z</time></trkpt><trkpt lat="43.76994082510914" lon="12.46031125008482"><ele>246.75</ele><time>2026-04-04T14:09:21Z</time></trkpt><trkpt lat="43.769802991445616" lon="12.460272116653728"><ele>250.0</ele><time>2026-04-04T14:09:22Z</time></trkpt><trkpt lat="43.76966963442262" lon="12.460245627686197"><ele>250.0</ele><time>2026-04-04T14:09:23Z</time></trkpt><trkpt lat="43.76954528904129" lon="12.460223358040828"><ele>250.0</ele><time>2026-04-04T14:09:24Z</time></trkpt><trkpt lat="43.76943191980251" lon="12.460200144122112"><ele>250.0</ele><time>2026-04-04T14:09:25Z</time></trkpt><trkpt lat="43.76932565375332" lon="12.46018055523539"><ele>250.0</ele><time>2026-04-04T14:09:26Z</time></trkpt><trkpt lat="43.76922549139193" lon="12.460163179231019"><ele>250.0</ele><time>2026-04-04T14:09:27Z</time></trkpt><trkpt lat="43.769123664820356" lon="12.460143060873493"><ele>249.4</ele><time>2026-04-04T14:09:28Z</time></trkpt><trkpt lat="43.76902158110691" lon="12.460123520778046"><ele>248.8</ele><time>2026-04-04T14:09:29Z</time></trkpt><trkpt lat="43.76891524830277" lon="12.46010349442791"><ele>248.2</ele><time>2026-04-04T14:09:30Z</time></trkpt><trkpt lat="43.76880916128231" lon="12.460086523649041"><ele>247.6</ele><time>2026-04-04T14:09:31Z</time></trkpt><trkpt lat="43.76870288153657" lon="12.460066560182003"><ele>247.0</ele><time>2026-04-04T14:09:32Z</time></trkpt><trkpt lat="43.76859736872593" lon="12.460045865399334"><ele>246.25</ele><time>2026-04-04T14:09:33Z</time></trkpt><trkpt lat="43.768487536124034" lon="12.460026661771414"><ele>245.5</ele><time>2026-04-04T14:09:34Z</time></trkpt><trkpt lat="43.76837792717939" lon="12.460008521607987"><ele>244.75</ele><time>2026-04-04T14:09:35Z</time></trkpt><trkpt lat="43.76826449451053" lon="12.459989070428351"><ele>244.0</ele><time>2026-04-04T14:09:36Z</time></trkpt><trkpt lat="43.76814856468604" lon="12.459970047951169"><ele>244.0</ele><time>2026-04-04T14:09:37Z</time></trkpt><trkpt lat="43.7680325668523" lon="12.459947918709252"><ele>244.0</ele><time>2026-04-04T14:09:38Z</time></trkpt><trkpt lat="43.767911717654655" lon="12.45992375423788"><ele>244.0</ele><time>2026-04-04T14:09:39Z</time></trkpt><trkpt lat="43.7677921146782" lon="12.459901293120495"><ele>244.0</ele><time>2026-04-04T14:09:40Z</time></trkpt><trkpt lat="43.767669699066744" lon="12.459877107972407"><ele>243.25</ele><time>2026-04-04T14:09:41Z</time></trkpt><trkpt lat="43.7675456854316" lon="12.45985878294797"><ele>242.5</ele><time>2026-04-04T14:09:42Z</time></trkpt><trkpt lat="43.7674127454285" lon="12.459837705963428"><ele>241.75</ele><time>2026-04-04T14:09:43Z</time></trkpt><trkpt lat="43.76727943674208" lon="12.459815678166365"><ele>241.0</ele><time>2026-04-04T14:09:44Z</time></trkpt><trkpt lat="43.76714451713234" lon="12.459794840468783"><ele>241.0</ele><time>2026-04-04T14:09:45Z</time></trkpt><trkpt lat="43.767006331573626" lon="12.4597722947564"><ele>241.0</ele><time>2026-04-04T14:09:46Z</time></trkpt><trkpt lat="43.7668655633237" lon="12.459746430681129"><ele>241.0</ele><time>2026-04-04T14:09:47Z</time></trkpt><trkpt lat="43.76672054908981" lon="12.45972042572155"><ele>241.0</ele><time>2026-04-04T14:09:48Z</time></trkpt><trkpt lat="43.76657547535096" lon="12.45969442761341"><ele>241.25</ele><time>2026-04-04T14:09:49.001Z</time></trkpt><trkpt lat="43.766429655353456" lon="12.459667665798191"><ele>241.5</ele><time>2026-04-04T14:09:50.001Z</time></trkpt><trkpt lat="43.7662829558881" lon="12.459643934272252"><ele>241.75</ele><time>2026-04-04T14:09:51.001Z</time></trkpt><trkpt lat="43.76613368275312" lon="12.459619890539457"><ele>242.0</ele><time>2026-04-04T14:09:52.001Z</time></trkpt><trkpt lat="43.76598642932531" lon="12.45959341584749"><ele>242.75</ele><time>2026-04-04T14:09:53.001Z</time></trkpt><trkpt lat="43.765841847771384" lon="12.459567705432733"><ele>243.5</ele><time>2026-04-04T14:09:54.001Z</time></trkpt><trkpt lat="43.765694410633465" lon="12.459531217658478"><ele>244.25</ele><time>2026-04-04T14:09:55.001Z</time></trkpt><trkpt lat="43.765547809648645" lon="12.45948793356436"><ele>245.0</ele><time>2026-04-04T14:09:56.001Z</time></trkpt><trkpt lat="43.76540305094692" lon="12.459432767790757"><ele>245.0</ele><time>2026-04-04T14:09:57.001Z</time></trkpt><trkpt lat="43.7652599319646" lon="12.459364387044555"><ele>245.0</ele><time>2026-04-04T14:09:58.001Z</time></trkpt><trkpt lat="43.76512054599251" lon="12.459281567447485"><ele>245.0</ele><time>2026-04-04T14:09:59.001Z</time></trkpt><trkpt lat="43.764986250282284" lon="12.459188317076688"><ele>244.75</ele><time>2026-04-04T14:10:00.001Z</time></trkpt><trkpt lat="43.764866083148526" lon="12.459073419216818"><ele>244.5</ele><time>2026-04-04T14:10:01.001Z</time></trkpt><trkpt lat="43.76474418793269" lon="12.458956207658591"><ele>244.25</ele><time>2026-04-04T14:10:02.001Z</time></trkpt><trkpt lat="43.76462892514726" lon="12.458822701180692"><ele>244.0</ele><time>2026-04-04T14:10:03.001Z</time></trkpt><trkpt lat="43.764522156453964" lon="12.458680371397849"><ele>244.75</ele><time>2026-04-04T14:10:04.001Z</time></trkpt><trkpt lat="43.76442244461767" lon="12.458533324030315"><ele>245.5</ele><time>2026-04-04T14:10:05.001Z</time></trkpt><trkpt lat="43.76432863885748" lon="12.45838184797393"><ele>246.25</ele><time>2026-04-04T14:10:06.001Z</time></trkpt><trkpt lat="43.76423397280817" lon="12.458233068126718"><ele>247.0</ele><time>2026-04-04T14:10:07.001Z</time></trkpt><trkpt lat="43.76414338068392" lon="12.458088653764516"><ele>249.25</ele><time>2026-04-04T14:10:08.001Z</time></trkpt><trkpt lat="43.764055003668595" lon="12.45794650327275"><ele>251.5</ele><time>2026-04-04T14:10:09.001Z</time></trkpt><trkpt lat="43.76396681427764" lon="12.457816414694982"><ele>253.75</ele><time>2026-04-04T14:10:10.001Z</time></trkpt><trkpt lat="43.76388549632452" lon="12.457683539864066"><ele>256.0</ele><time>2026-04-04T14:10:11.001Z</time></trkpt><trkpt lat="43.76380005922385" lon="12.457549746475863"><ele>256.0</ele><time>2026-04-04T14:10:12.001Z</time></trkpt><trkpt lat="43.76371489073086" lon="12.457422751401403"><ele>256.0</ele><time>2026-04-04T14:10:13.001Z</time></trkpt><trkpt lat="43.76362994917377" lon="12.45729764935985"><ele>256.0</ele><time>2026-04-04T14:10:14.001Z</time></trkpt><trkpt lat="43.76354677976677" lon="12.457173231112078"><ele>256.0</ele><time>2026-04-04T14:10:15.001Z</time></trkpt><trkpt lat="43.76346033243922" lon="12.457048035826393"><ele>256.5</ele><time>2026-04-04T14:10:16.001Z</time></trkpt><trkpt lat="43.76337157812536" lon="12.456931110888355"><ele>257.0</ele><time>2026-04-04T14:10:17.001Z</time></trkpt><trkpt lat="43.763275902126836" lon="12.456818560449754"><ele>257.5</ele><time>2026-04-04T14:10:18.001Z</time></trkpt><trkpt lat="43.763173885931465" lon="12.45671451139953"><ele>258.0</ele><time>2026-04-04T14:10:19.001Z</time></trkpt><trkpt lat="43.76306509403991" lon="12.456619778837064"><ele>258.0</ele><time>2026-04-04T14:10:20.001Z</time></trkpt><trkpt lat="43.762949380162794" lon="12.456533020259643"><ele>258.0</ele><time>2026-04-04T14:10:21.001Z</time></trkpt><trkpt lat="43.76283131989664" lon="12.456454892254731"><ele>258.0</ele><time>2026-04-04T14:10:22.001Z</time></trkpt><trkpt lat="43.7627055604682" lon="12.456384919017408"><ele>258.0</ele><time>2026-04-04T14:10:23.001Z</time></trkpt><trkpt lat="43.76257861389251" lon="12.456321257276079"><ele>256.75</ele><time>2026-04-04T14:10:24.001Z</time></trkpt><trkpt lat="43.76244546643411" lon="12.456263958585236"><ele>255.5</ele><time>2026-04-04T14:10:25.001Z</time></trkpt><trkpt lat="43.7623110270467" lon="12.456210555213348"><ele>254.25</ele><time>2026-04-04T14:10:26.001Z</time></trkpt><trkpt lat="43.76217487857901" lon="12.45616693388556"><ele>253.0</ele><time>2026-04-04T14:10:27.001Z</time></trkpt><trkpt lat="43.762035716311175" lon="12.456119343838731"><ele>253.0</ele><time>2026-04-04T14:10:28.001Z</time></trkpt><trkpt lat="43.76189651036674" lon="12.456070202825574"><ele>253.0</ele><time>2026-04-04T14:10:29.001Z</time></trkpt><trkpt lat="43.761758380486604" lon="12.456018370041987"><ele>253.0</ele><time>2026-04-04T14:10:30.001Z</time></trkpt><trkpt lat="43.761620522047416" lon="12.455966591663769"><ele>253.0</ele><time>2026-04-04T14:10:31.001Z</time></trkpt><trkpt lat="43.761482536503564" lon="12.455916367240537"><ele>252.25</ele><time>2026-04-04T14:10:32.001Z</time></trkpt><trkpt lat="43.76134955174506" lon="12.455864673047216"><ele>251.5</ele><time>2026-04-04T14:10:33.001Z</time></trkpt><trkpt lat="43.761217933289906" lon="12.455815146096192"><ele>250.75</ele><time>2026-04-04T14:10:34.001Z</time></trkpt><trkpt lat="43.761084343185736" lon="12.455762330412876"><ele>250.0</ele><time>2026-04-04T14:10:35.001Z</time></trkpt><trkpt lat="43.76095133088614" lon="12.455709267980819"><ele>250.0</ele><time>2026-04-04T14:10:36.001Z</time></trkpt><trkpt lat="43.760819497783686" lon="12.455649653949608"><ele>250.0</ele><time>2026-04-04T14:10:37.001Z</time></trkpt><trkpt lat="43.76068865166201" lon="12.45558592772278"><ele>250.0</ele><time>2026-04-04T14:10:38.001Z</time></trkpt><trkpt lat="43.76055986549265" lon="12.45551797216644"><ele>250.0</ele><time>2026-04-04T14:10:39.001Z</time></trkpt><trkpt lat="43.760437218492505" lon="12.455447375909833"><ele>250.0</ele><time>2026-04-04T14:10:40.001Z</time></trkpt><trkpt lat="43.76031323171589" lon="12.45537789372117"><ele>250.0</ele><time>2026-04-04T14:10:41.001Z</time></trkpt><trkpt lat="43.76018468610565" lon="12.45530211757994"><ele>250.0</ele><time>2026-04-04T14:10:42.001Z</time></trkpt><trkpt lat="43.76006356826882" lon="12.455231288172081"><ele>250.0</ele><time>2026-04-04T14:10:43.001Z</time></trkpt><trkpt lat="43.759941262346715" lon="12.455148521458925"><ele>250.0</ele><time>2026-04-04T14:10:44.001Z</time></trkpt><trkpt lat="43.759827282333774" lon="12.455061642653327"><ele>250.0</ele><time>2026-04-04T14:10:45.001Z</time></trkpt><trkpt lat="43.75971737187387" lon="12.454981519932518"><ele>250.0</ele><time>2026-04-04T14:10:46.001Z</time></trkpt><trkpt lat="43.759613409941224" lon="12.454905510281522"><ele>250.0</ele><time>2026-04-04T14:10:47.001Z</time></trkpt><trkpt lat="43.759517675017186" lon="12.454831327396445"><ele>250.0</ele><time>2026-04-04T14:10:48.001Z</time></trkpt><trkpt lat="43.759428657413494" lon="12.454757671819007"><ele>250.0</ele><time>2026-04-04T14:10:49.001Z</time></trkpt><trkpt lat="43.759338535599944" lon="12.454688620299239"><ele>250.0</ele><time>2026-04-04T14:10:50.001Z</time></trkpt><trkpt lat="43.75925532166448" lon="12.454605210760072"><ele>250.0</ele><time>2026-04-04T14:10:51.001Z</time></trkpt><trkpt lat="43.75917214778017" lon="12.454541009289851"><ele>250.0</ele><time>2026-04-04T14:10:52.001Z</time></trkpt><trkpt lat="43.75909409687163" lon="12.454478735957462"><ele>249.99999999999997</ele><time>2026-04-04T14:10:53.001Z</time></trkpt><trkpt lat="43.759031939866304" lon="12.454391414530125"><ele>250.0</ele><time>2026-04-04T14:10:54.001Z</time></trkpt><trkpt lat="43.75899412733314" lon="12.454288580263736"><ele>250.0</ele><time>2026-04-04T14:10:55.001Z</time></trkpt><trkpt lat="43.75898085983582" lon="12.454179135283066"><ele>250.0</ele><time>2026-04-04T14:10:56.001Z</time></trkpt><trkpt lat="43.75895080167519" lon="12.45408576914954"><ele>249.99999999999997</ele><time>2026-04-04T14:10:57.001Z</time></trkpt><trkpt lat="43.7588964011409" lon="12.45401108636352"><ele>250.0</ele><time>2026-04-04T14:10:58.001Z</time></trkpt><trkpt lat="43.7588318145069" lon="12.45397041790197"><ele>249.99999999999997</ele><time>2026-04-04T14:10:59.001Z</time></trkpt><trkpt lat="43.75875693385274" lon="12.45395960379936"><ele>250.0</ele><time>2026-04-04T14:11:00.001Z</time></trkpt><trkpt lat="43.75868137790945" lon="12.45398368342175"><ele>250.0</ele><time>2026-04-04T14:11:01.001Z</time></trkpt><trkpt lat="43.758597121342135" lon="12.453902447281447"><ele>250.0</ele><time>2026-04-04T14:11:02.001Z</time></trkpt><trkpt lat="43.75851887872686" lon="12.453833744595846"><ele>249.99999999999997</ele><time>2026-04-04T14:11:03.001Z</time></trkpt><trkpt lat="43.75843694254132" lon="12.453755585612535"><ele>250.0</ele><time>2026-04-04T14:11:04.001Z</time></trkpt><trkpt lat="43.758350677595686" lon="12.453666596963078"><ele>251.0</ele><time>2026-04-04T14:11:05Z</time></trkpt><trkpt lat="43.75826229941088" lon="12.453569050547845"><ele>252.0</ele><time>2026-04-04T14:11:06Z</time></trkpt><trkpt lat="43.758168806512344" lon="12.45346189720726"><ele>253.0</ele><time>2026-04-04T14:11:07Z</time></trkpt><trkpt lat="43.75806738376415" lon="12.453351205859066"><ele>254.0</ele><time>2026-04-04T14:11:08Z</time></trkpt><trkpt lat="43.75796165664808" lon="12.453239508071345"><ele>254.0</ele><time>2026-04-04T14:11:09Z</time></trkpt><trkpt lat="43.757854809408045" lon="12.453126267731129"><ele>254.0</ele><time>2026-04-04T14:11:10Z</time></trkpt><trkpt lat="43.75775627035286" lon="12.453026268821342"><ele>254.0</ele><time>2026-04-04T14:11:11Z</time></trkpt><trkpt lat="43.757653811946426" lon="12.452924571077222"><ele>254.0</ele><time>2026-04-04T14:11:12Z</time></trkpt><trkpt lat="43.75755474314766" lon="12.45281860207582"><ele>255.25</ele><time>2026-04-04T14:11:13Z</time></trkpt><trkpt lat="43.757453374783836" lon="12.452714839375908"><ele>256.5</ele><time>2026-04-04T14:11:14Z</time></trkpt><trkpt lat="43.75735279304753" lon="12.452615131537579"><ele>257.75</ele><time>2026-04-04T14:11:15Z</time></trkpt><trkpt lat="43.75724681408862" lon="12.452512779661788"><ele>259.0</ele><time>2026-04-04T14:11:16Z</time></trkpt><trkpt lat="43.757137473139146" lon="12.452416789842745"><ele>259.0</ele><time>2026-04-04T14:11:17Z</time></trkpt><trkpt lat="43.7570317860678" lon="12.452319763607855"><ele>259.0</ele><time>2026-04-04T14:11:18Z</time></trkpt><trkpt lat="43.75692051117261" lon="12.452218876332218"><ele>259.0</ele><time>2026-04-04T14:11:19Z</time></trkpt><trkpt lat="43.75680858984269" lon="12.452115132231866"><ele>259.0</ele><time>2026-04-04T14:11:20Z</time></trkpt><trkpt lat="43.75669196127184" lon="12.452009361692701"><ele>257.75</ele><time>2026-04-04T14:11:21Z</time></trkpt><trkpt lat="43.75657360054002" lon="12.451901461864802"><ele>256.5</ele><time>2026-04-04T14:11:22Z</time></trkpt><trkpt lat="43.756452767485726" lon="12.45179012763433"><ele>255.25</ele><time>2026-04-04T14:11:23Z</time></trkpt><trkpt lat="43.75633213900829" lon="12.451680520783729"><ele>254.0</ele><time>2026-04-04T14:11:24Z</time></trkpt><trkpt lat="43.756216208765224" lon="12.45157680621137"><ele>254.0</ele><time>2026-04-04T14:11:25Z</time></trkpt><trkpt lat="43.75610355357001" lon="12.451472418386897"><ele>254.0</ele><time>2026-04-04T14:11:26Z</time></trkpt><trkpt lat="43.75599204399879" lon="12.45137150567883"><ele>254.0</ele><time>2026-04-04T14:11:27Z</time></trkpt><trkpt lat="43.75588588558997" lon="12.451272914856746"><ele>254.0</ele><time>2026-04-04T14:11:28Z</time></trkpt><trkpt lat="43.7557855545666" lon="12.451177946233338"><ele>256.75</ele><time>2026-04-04T14:11:29Z</time></trkpt><trkpt lat="43.75568229610148" lon="12.4510857128894"><ele>259.5</ele><time>2026-04-04T14:11:30Z</time></trkpt><trkpt lat="43.755577537574354" lon="12.45099645835699"><ele>262.25</ele><time>2026-04-04T14:11:31Z</time></trkpt><trkpt lat="43.75547308455525" lon="12.450903290345169"><ele>265.0</ele><time>2026-04-04T14:11:32Z</time></trkpt><trkpt lat="43.755369781516464" lon="12.450802672283384"><ele>265.0</ele><time>2026-04-04T14:11:33Z</time></trkpt><trkpt lat="43.755264318324315" lon="12.450705810313732"><ele>265.0</ele><time>2026-04-04T14:11:34Z</time></trkpt><trkpt lat="43.755156558423764" lon="12.4506099198302"><ele>265.0</ele><time>2026-04-04T14:11:35Z</time></trkpt><trkpt lat="43.75504843332593" lon="12.450509671223315"><ele>265.0</ele><time>2026-04-04T14:11:36Z</time></trkpt><trkpt lat="43.754939881344306" lon="12.450415815925421"><ele>266.5</ele><time>2026-04-04T14:11:37Z</time></trkpt><trkpt lat="43.75483074499384" lon="12.450313966144748"><ele>268.0</ele><time>2026-04-04T14:11:38Z</time></trkpt><trkpt lat="43.754721296898865" lon="12.450211024749821"><ele>269.5</ele><time>2026-04-04T14:11:39Z</time></trkpt><trkpt lat="43.75460690572129" lon="12.450107155815868"><ele>271.0</ele><time>2026-04-04T14:11:40Z</time></trkpt><trkpt lat="43.754494920433004" lon="12.449998671004765"><ele>271.0</ele><time>2026-04-04T14:11:41Z</time></trkpt><trkpt lat="43.754380134221506" lon="12.44989532785065"><ele>271.0</ele><time>2026-04-04T14:11:42Z</time></trkpt><trkpt lat="43.75425914212614" lon="12.449804114981793"><ele>271.0</ele><time>2026-04-04T14:11:43Z</time></trkpt><trkpt lat="43.75414458530024" lon="12.449704908669359"><ele>271.0</ele><time>2026-04-04T14:11:44Z</time></trkpt><trkpt lat="43.75402323379709" lon="12.44959531570405"><ele>273.0</ele><time>2026-04-04T14:11:45Z</time></trkpt><trkpt lat="43.7539037967115" lon="12.449495592816543"><ele>275.0</ele><time>2026-04-04T14:11:46Z</time></trkpt><trkpt lat="43.75377682134418" lon="12.44940996758162"><ele>277.0</ele><time>2026-04-04T14:11:47Z</time></trkpt><trkpt lat="43.75364346870574" lon="12.44934402984642"><ele>279.0</ele><time>2026-04-04T14:11:48Z</time></trkpt><trkpt lat="43.75350694995904" lon="12.44928582368324"><ele>279.0</ele><time>2026-04-04T14:11:49Z</time></trkpt><trkpt lat="43.75336286879777" lon="12.449239167684302"><ele>279.0</ele><time>2026-04-04T14:11:50Z</time></trkpt><trkpt lat="43.753221709624825" lon="12.449208525578106"><ele>279.0</ele><time>2026-04-04T14:11:51Z</time></trkpt><trkpt lat="43.75307864510011" lon="12.449182374931492"><ele>279.0</ele><time>2026-04-04T14:11:52Z</time></trkpt><trkpt lat="43.75292709314976" lon="12.449174281610892"><ele>279.0</ele><time>2026-04-04T14:11:53Z</time></trkpt><trkpt lat="43.75277285771611" lon="12.449169722440669"><ele>279.0</ele><time>2026-04-04T14:11:54Z</time></trkpt><trkpt lat="43.752619463790076" lon="12.449169147097205"><ele>279.0</ele><time>2026-04-04T14:11:55Z</time></trkpt><trkpt lat="43.752461054253395" lon="12.449173348572558"><ele>278.6666666666667</ele><time>2026-04-04T14:11:56Z</time></trkpt><trkpt lat="43.75230279419542" lon="12.449180745418445"><ele>278.33333333333337</ele><time>2026-04-04T14:11:57.001Z</time></trkpt><trkpt lat="43.752141786554496" lon="12.449183953710238"><ele>278.0</ele><time>2026-04-04T14:11:58.001Z</time></trkpt><trkpt lat="43.75197913039211" lon="12.449189542903659"><ele>279.0</ele><time>2026-04-04T14:11:59.001Z</time></trkpt><trkpt lat="43.7518120546225" lon="12.449194967318853"><ele>280.0</ele><time>2026-04-04T14:12:00.001Z</time></trkpt><trkpt lat="43.75164569896579" lon="12.44919608934547"><ele>281.0</ele><time>2026-04-04T14:12:01.001Z</time></trkpt><trkpt lat="43.75147693042676" lon="12.449198058995448"><ele>281.0</ele><time>2026-04-04T14:12:02.001Z</time></trkpt><trkpt lat="43.75130890464528" lon="12.449200554083815"><ele>281.0</ele><time>2026-04-04T14:12:03.001Z</time></trkpt><trkpt lat="43.75114276380768" lon="12.449201677413518"><ele>281.0</ele><time>2026-04-04T14:12:04.001Z</time></trkpt><trkpt lat="43.75097805597359" lon="12.449199264207232"><ele>280.0</ele><time>2026-04-04T14:12:05.001Z</time></trkpt><trkpt lat="43.75081219639411" lon="12.449185665843043"><ele>279.0</ele><time>2026-04-04T14:12:06.001Z</time></trkpt><trkpt lat="43.750648044285455" lon="12.449158959117039"><ele>278.0</ele><time>2026-04-04T14:12:07.001Z</time></trkpt><trkpt lat="43.75048792711386" lon="12.449127424975659"><ele>278.0</ele><time>2026-04-04T14:12:08.001Z</time></trkpt><trkpt lat="43.75033049148275" lon="12.449092602146973"><ele>278.0</ele><time>2026-04-04T14:12:09.001Z</time></trkpt><trkpt lat="43.75017575601611" lon="12.449042559088577"><ele>278.0</ele><time>2026-04-04T14:12:10.001Z</time></trkpt><trkpt lat="43.75002022939869" lon="12.44898163193869"><ele>278.0</ele><time>2026-04-04T14:12:11.001Z</time></trkpt><trkpt lat="43.74987127925235" lon="12.448911429053453"><ele>278.0</ele><time>2026-04-04T14:12:12.001Z</time></trkpt><trkpt lat="43.749725490169325" lon="12.448834238990784"><ele>278.0</ele><time>2026-04-04T14:12:13.001Z</time></trkpt><trkpt lat="43.74958308120465" lon="12.448751187136502"><ele>279.0</ele><time>2026-04-04T14:12:14.001Z</time></trkpt><trkpt lat="43.74944137475291" lon="12.448669842412945"><ele>280.0</ele><time>2026-04-04T14:12:15.001Z</time></trkpt><trkpt lat="43.74929830633675" lon="12.448587382587"><ele>281.0</ele><time>2026-04-04T14:12:16.001Z</time></trkpt><trkpt lat="43.749157220949655" lon="12.44850612324236"><ele>281.0</ele><time>2026-04-04T14:12:17.001Z</time></trkpt><trkpt lat="43.74901485901576" lon="12.448426857991938"><ele>281.0</ele><time>2026-04-04T14:12:18.001Z</time></trkpt><trkpt lat="43.748876652230194" lon="12.448345544508296"><ele>281.0</ele><time>2026-04-04T14:12:19.001Z</time></trkpt><trkpt lat="43.74873619066463" lon="12.448266332069794"><ele>281.0</ele><time>2026-04-04T14:12:20.001Z</time></trkpt><trkpt lat="43.7485955285414" lon="12.448186935532581"><ele>281.0</ele><time>2026-04-04T14:12:21.001Z</time></trkpt><trkpt lat="43.74845365205888" lon="12.448108876099324"><ele>281.0</ele><time>2026-04-04T14:12:22.001Z</time></trkpt><trkpt lat="43.74830984415506" lon="12.44803451780694"><ele>281.33333333333337</ele><time>2026-04-04T14:12:23.001Z</time></trkpt><trkpt lat="43.74816494147407" lon="12.447961093607757"><ele>281.6666666666667</ele><time>2026-04-04T14:12:24.001Z</time></trkpt><trkpt lat="43.74802019485235" lon="12.44789679004513"><ele>282.0</ele><time>2026-04-04T14:12:25.001Z</time></trkpt><trkpt lat="43.747869664194845" lon="12.447844491382005"><ele>284.0</ele><time>2026-04-04T14:12:26.001Z</time></trkpt><trkpt lat="43.74771399751917" lon="12.447795309490516"><ele>286.0</ele><time>2026-04-04T14:12:27.001Z</time></trkpt><trkpt lat="43.74756039805883" lon="12.447761411790255"><ele>288.0</ele><time>2026-04-04T14:12:28.001Z</time></trkpt><trkpt lat="43.7474020555021" lon="12.447740075474458"><ele>288.0</ele><time>2026-04-04T14:12:29.001Z</time></trkpt><trkpt lat="43.747244384918964" lon="12.447731535635638"><ele>288.0</ele><time>2026-04-04T14:12:30.001Z</time></trkpt><trkpt lat="43.747086738916856" lon="12.447732039531074"><ele>288.0</ele><time>2026-04-04T14:12:31.001Z</time></trkpt><trkpt lat="43.74692513498615" lon="12.447730354716102"><ele>288.0</ele><time>2026-04-04T14:12:32.001Z</time></trkpt><trkpt lat="43.74676419449679" lon="12.44772729399162"><ele>288.0</ele><time>2026-04-04T14:12:33.001Z</time></trkpt><trkpt lat="43.74660031150444" lon="12.447728553796017"><ele>288.0</ele><time>2026-04-04T14:12:34.001Z</time></trkpt><trkpt lat="43.746433058181196" lon="12.447730618049519"><ele>288.0</ele><time>2026-04-04T14:12:35.001Z</time></trkpt><trkpt lat="43.74627137395215" lon="12.447731365650517"><ele>288.0</ele><time>2026-04-04T14:12:36.001Z</time></trkpt><trkpt lat="43.746108252297965" lon="12.447733847215476"><ele>288.0</ele><time>2026-04-04T14:12:37.001Z</time></trkpt><trkpt lat="43.74594605636658" lon="12.447739304537306"><ele>289.0</ele><time>2026-04-04T14:12:38.001Z</time></trkpt><trkpt lat="43.74578452811948" lon="12.447745951852403"><ele>290.0</ele><time>2026-04-04T14:12:39.001Z</time></trkpt><trkpt lat="43.74562032074474" lon="12.447752822708061"><ele>291.0</ele><time>2026-04-04T14:12:40.001Z</time></trkpt><trkpt lat="43.74545936530893" lon="12.447760971513143"><ele>291.0</ele><time>2026-04-04T14:12:41.001Z</time></trkpt><trkpt lat="43.7452997412659" lon="12.447771513964803"><ele>291.0</ele><time>2026-04-04T14:12:42.001Z</time></trkpt><trkpt lat="43.74513971311369" lon="12.447785497121345"><ele>291.0</ele><time>2026-04-04T14:12:43.001Z</time></trkpt><trkpt lat="43.74498076041697" lon="12.447802491224833"><ele>290.0</ele><time>2026-04-04T14:12:44.001Z</time></trkpt><trkpt lat="43.74482525614748" lon="12.447818322988857"><ele>289.0</ele><time>2026-04-04T14:12:45.001Z</time></trkpt><trkpt lat="43.744667272918676" lon="12.447829648950758"><ele>288.0</ele><time>2026-04-04T14:12:46.001Z</time></trkpt><trkpt lat="43.744506675467754" lon="12.447832180318404"><ele>286.3333333333333</ele><time>2026-04-04T14:12:47.001Z</time></trkpt><trkpt lat="43.74434688770846" lon="12.447833387670112"><ele>284.66666666666663</ele><time>2026-04-04T14:12:48.001Z</time></trkpt><trkpt lat="43.744191851747445" lon="12.447839596175859"><ele>283.0</ele><time>2026-04-04T14:12:49.001Z</time></trkpt><trkpt lat="43.7440345320947" lon="12.44784586976332"><ele>283.0</ele><time>2026-04-04T14:12:50.001Z</time></trkpt><trkpt lat="43.743876833003995" lon="12.447848987958313"><ele>283.0</ele><time>2026-04-04T14:12:51.001Z</time></trkpt><trkpt lat="43.74372066230446" lon="12.447851940697054"><ele>283.0</ele><time>2026-04-04T14:12:52.001Z</time></trkpt><trkpt lat="43.74356158858809" lon="12.447849152536929"><ele>281.66666666666663</ele><time>2026-04-04T14:12:53.001Z</time></trkpt><trkpt lat="43.74340335716364" lon="12.447835442803864"><ele>280.3333333333333</ele><time>2026-04-04T14:12:54.001Z</time></trkpt><trkpt lat="43.7432455541381" lon="12.447808902213515"><ele>279.0</ele><time>2026-04-04T14:12:55.001Z</time></trkpt><trkpt lat="43.74309161287588" lon="12.447769940061663"><ele>279.0</ele><time>2026-04-04T14:12:56.001Z</time></trkpt><trkpt lat="43.74293646366349" lon="12.447721405931247"><ele>279.0</ele><time>2026-04-04T14:12:57.001Z</time></trkpt><trkpt lat="43.742785667305924" lon="12.44765807581365"><ele>279.0</ele><time>2026-04-04T14:12:58.001Z</time></trkpt><trkpt lat="43.74263974109813" lon="12.447578806396367"><ele>276.25</ele><time>2026-04-04T14:12:59.001Z</time></trkpt><trkpt lat="43.742498807991524" lon="12.447488906938986"><ele>273.5</ele><time>2026-04-04T14:13:00.001Z</time></trkpt><trkpt lat="43.7423679816071" lon="12.447399297534059"><ele>270.75</ele><time>2026-04-04T14:13:01.001Z</time></trkpt><trkpt lat="43.74224715284381" lon="12.447314591505757"><ele>268.0</ele><time>2026-04-04T14:13:02.001Z</time></trkpt><trkpt lat="43.74213475037098" lon="12.447226707770925"><ele>268.0</ele><time>2026-04-04T14:13:03.001Z</time></trkpt><trkpt lat="43.742025448533624" lon="12.447137675011213"><ele>268.0</ele><time>2026-04-04T14:13:04.001Z</time></trkpt><trkpt lat="43.74191165515651" lon="12.447038231395634"><ele>268.0</ele><time>2026-04-04T14:13:05.001Z</time></trkpt><trkpt lat="43.741804219255414" lon="12.446945362836534"><ele>268.0</ele><time>2026-04-04T14:13:06.001Z</time></trkpt><trkpt lat="43.74170566106019" lon="12.446855951887647"><ele>269.2</ele><time>2026-04-04T14:13:07.001Z</time></trkpt><trkpt lat="43.74160686971598" lon="12.44676570236982"><ele>270.4</ele><time>2026-04-04T14:13:08.001Z</time></trkpt><trkpt lat="43.741514527659625" lon="12.446682466618766"><ele>271.59999999999997</ele><time>2026-04-04T14:13:09.001Z</time></trkpt><trkpt lat="43.7414234428819" lon="12.44660135746165"><ele>272.8</ele><time>2026-04-04T14:13:10.001Z</time></trkpt><trkpt lat="43.74133641715125" lon="12.446524145945988"><ele>274.0</ele><time>2026-04-04T14:13:11Z</time></trkpt><trkpt lat="43.741252289709124" lon="12.44644315385864"><ele>274.0</ele><time>2026-04-04T14:13:12Z</time></trkpt><trkpt lat="43.741170960254834" lon="12.446366162769364"><ele>274.0</ele><time>2026-04-04T14:13:13Z</time></trkpt><trkpt lat="43.74109330933783" lon="12.446296512474573"><ele>274.0</ele><time>2026-04-04T14:13:14Z</time></trkpt><trkpt lat="43.741022750192315" lon="12.44623542688109"><ele>274.0</ele><time>2026-04-04T14:13:15Z</time></trkpt><trkpt lat="43.740964045505386" lon="12.446184455058862"><ele>274.0</ele><time>2026-04-04T14:13:16Z</time></trkpt><trkpt lat="43.74090810738196" lon="12.446137120140337"><ele>274.0</ele><time>2026-04-04T14:13:17Z</time></trkpt><trkpt lat="43.74085020553902" lon="12.44609804468859"><ele>274.5</ele><time>2026-04-04T14:13:18Z</time></trkpt><trkpt lat="43.74079633600805" lon="12.44605280157886"><ele>275.0</ele><time>2026-04-04T14:13:19Z</time></trkpt><trkpt lat="43.740732960508836" lon="12.445959348858946"><ele>275.5</ele><time>2026-04-04T14:13:21Z</time></trkpt><trkpt lat="43.740669793358315" lon="12.44588214651592"><ele>276.0</ele><time>2026-04-04T14:14:24.001Z</time></trkpt><trkpt lat="43.74061658171342" lon="12.44582914235803"><ele>276.5</ele><time>2026-04-04T14:14:25.001Z</time></trkpt><trkpt lat="43.74055668905947" lon="12.445777269725374"><ele>277.0</ele><time>2026-04-04T14:14:26.001Z</time></trkpt><trkpt lat="43.74048353927463" lon="12.445712782669267"><ele>277.0</ele><time>2026-04-04T14:14:27.001Z</time></trkpt><trkpt lat="43.74040415748187" lon="12.445643992984634"><ele>277.0</ele><time>2026-04-04T14:14:28.001Z</time></trkpt><trkpt lat="43.74032110535095" lon="12.445571041171108"><ele>277.0</ele><time>2026-04-04T14:14:29.001Z</time></trkpt><trkpt lat="43.74023607721896" lon="12.445492573079152"><ele>277.0</ele><time>2026-04-04T14:14:30.001Z</time></trkpt><trkpt lat="43.7401480766388" lon="12.4454107651025"><ele>277.0</ele><time>2026-04-04T14:14:31.001Z</time></trkpt><trkpt lat="43.740051856895086" lon="12.445326955868122"><ele>277.25</ele><time>2026-04-04T14:14:32.001Z</time></trkpt><trkpt lat="43.73995334247857" lon="12.445239393003458"><ele>277.5</ele><time>2026-04-04T14:14:33.001Z</time></trkpt><trkpt lat="43.7398513686322" lon="12.445148939469123"><ele>277.75</ele><time>2026-04-04T14:14:34.001Z</time></trkpt><trkpt lat="43.73974699594092" lon="12.445060527218107"><ele>278.0</ele><time>2026-04-04T14:14:35.001Z</time></trkpt><trkpt lat="43.73963813065022" lon="12.444970887166557"><ele>278.0</ele><time>2026-04-04T14:14:36.001Z</time></trkpt><trkpt lat="43.73952581754991" lon="12.444879663740029"><ele>278.0</ele><time>2026-04-04T14:14:37.001Z</time></trkpt><trkpt lat="43.7394086523555" lon="12.44478780154284"><ele>278.0</ele><time>2026-04-04T14:14:38.001Z</time></trkpt><trkpt lat="43.739287236175116" lon="12.444703137542325"><ele>278.0</ele><time>2026-04-04T14:14:39.001Z</time></trkpt><trkpt lat="43.73915996311272" lon="12.44462344162072"><ele>278.5</ele><time>2026-04-04T14:14:40.001Z</time></trkpt><trkpt lat="43.739025969596455" lon="12.444553342958844"><ele>279.0</ele><time>2026-04-04T14:14:41.001Z</time></trkpt><trkpt lat="43.73888493814508" lon="12.444489664691947"><ele>279.5</ele><time>2026-04-04T14:14:42.001Z</time></trkpt><trkpt lat="43.7387404536511" lon="12.444436895075862"><ele>280.0</ele><time>2026-04-04T14:14:43.001Z</time></trkpt><trkpt lat="43.738589320952" lon="12.44439549115985"><ele>278.3333333333333</ele><time>2026-04-04T14:14:44.001Z</time></trkpt><trkpt lat="43.738435214036826" lon="12.44436848104767"><ele>276.6666666666667</ele><time>2026-04-04T14:14:45.001Z</time></trkpt><trkpt lat="43.73827550964881" lon="12.444352019644626"><ele>275.0</ele><time>2026-04-04T14:14:46.001Z</time></trkpt><trkpt lat="43.73811343200877" lon="12.444352983953365"><ele>275.0</ele><time>2026-04-04T14:14:47.001Z</time></trkpt><trkpt lat="43.73795153745658" lon="12.444362783288414"><ele>275.0</ele><time>2026-04-04T14:14:48.001Z</time></trkpt><trkpt lat="43.73778819418966" lon="12.44438599399139"><ele>275.0</ele><time>2026-04-04T14:14:49.001Z</time></trkpt><trkpt lat="43.73762665721005" lon="12.444430406230701"><ele>275.0</ele><time>2026-04-04T14:14:50.001Z</time></trkpt><trkpt lat="43.737466258741335" lon="12.444493470330162"><ele>275.0</ele><time>2026-04-04T14:14:51.001Z</time></trkpt><trkpt lat="43.737309924110825" lon="12.444570210486745"><ele>275.0</ele><time>2026-04-04T14:14:52.001Z</time></trkpt><trkpt lat="43.73715779931595" lon="12.44466147236526"><ele>273.33333333333337</ele><time>2026-04-04T14:14:53.001Z</time></trkpt><trkpt lat="43.737006838416754" lon="12.444763556582878"><ele>271.6666666666667</ele><time>2026-04-04T14:14:54.001Z</time></trkpt><trkpt lat="43.73685767048354" lon="12.444880128053596"><ele>270.0</ele><time>2026-04-04T14:14:55.001Z</time></trkpt><trkpt lat="43.7367097042671" lon="12.44500346896512"><ele>270.0</ele><time>2026-04-04T14:14:56.001Z</time></trkpt><trkpt lat="43.73656343634279" lon="12.445127981169717"><ele>270.0</ele><time>2026-04-04T14:14:57.001Z</time></trkpt><trkpt lat="43.736418703278474" lon="12.44525098930168"><ele>270.0</ele><time>2026-04-04T14:14:58.001Z</time></trkpt><trkpt lat="43.73627375135318" lon="12.445379741248786"><ele>269.0</ele><time>2026-04-04T14:14:59.001Z</time></trkpt><trkpt lat="43.73612864726551" lon="12.445503927601658"><ele>268.0</ele><time>2026-04-04T14:15:00.001Z</time></trkpt><trkpt lat="43.73598584444264" lon="12.445631182158982"><ele>267.0</ele><time>2026-04-04T14:15:01.001Z</time></trkpt><trkpt lat="43.735845140604596" lon="12.445759091690249"><ele>267.0</ele><time>2026-04-04T14:15:02.001Z</time></trkpt><trkpt lat="43.735695867901434" lon="12.445865745107145"><ele>267.0</ele><time>2026-04-04T14:15:03.001Z</time></trkpt><trkpt lat="43.73553860789683" lon="12.445955241651339"><ele>267.0</ele><time>2026-04-04T14:15:04.001Z</time></trkpt><trkpt lat="43.73537549748443" lon="12.44602734265689"><ele>268.3333333333333</ele><time>2026-04-04T14:15:05.001Z</time></trkpt><trkpt lat="43.73520653057973" lon="12.446076240744514"><ele>269.66666666666663</ele><time>2026-04-04T14:15:06.001Z</time></trkpt><trkpt lat="43.73503692524874" lon="12.44611319431499"><ele>271.0</ele><time>2026-04-04T14:15:07.001Z</time></trkpt><trkpt lat="43.73486481752216" lon="12.446132455216564"><ele>271.0</ele><time>2026-04-04T14:15:08.001Z</time></trkpt><trkpt lat="43.734692615926605" lon="12.446127409571876"><ele>271.0</ele><time>2026-04-04T14:15:09.001Z</time></trkpt><trkpt lat="43.73451791329564" lon="12.446107681737262"><ele>271.0</ele><time>2026-04-04T14:15:10.001Z</time></trkpt><trkpt lat="43.73434077689941" lon="12.446081811274894"><ele>270.3333333333333</ele><time>2026-04-04T14:15:11.001Z</time></trkpt><trkpt lat="43.73416384105899" lon="12.446056644957892"><ele>269.6666666666667</ele><time>2026-04-04T14:15:12.001Z</time></trkpt><trkpt lat="43.733987995525" lon="12.44602823925758"><ele>269.0</ele><time>2026-04-04T14:15:13.001Z</time></trkpt><trkpt lat="43.73381559561402" lon="12.446005661582488"><ele>269.0</ele><time>2026-04-04T14:15:14.001Z</time></trkpt><trkpt lat="43.733640738325114" lon="12.445982951908789"><ele>269.0</ele><time>2026-04-04T14:15:15.001Z</time></trkpt><trkpt lat="43.733470056673546" lon="12.445959832888809"><ele>269.0</ele><time>2026-04-04T14:15:16.001Z</time></trkpt><trkpt lat="43.73329365568657" lon="12.4459275923159"><ele>269.33333333333337</ele><time>2026-04-04T14:15:17Z</time></trkpt><trkpt lat="43.73312383353458" lon="12.445896968803885"><ele>269.6666666666667</ele><time>2026-04-04T14:15:18Z</time></trkpt><trkpt lat="43.732950033679884" lon="12.445858832536688"><ele>270.0</ele><time>2026-04-04T14:15:19Z</time></trkpt><trkpt lat="43.73277998582327" lon="12.445814258697833"><ele>271.0</ele><time>2026-04-04T14:15:20Z</time></trkpt><trkpt lat="43.7326081843377" lon="12.445767563172232"><ele>272.0</ele><time>2026-04-04T14:15:21Z</time></trkpt><trkpt lat="43.732436211591136" lon="12.445720335672487"><ele>273.0</ele><time>2026-04-04T14:15:22Z</time></trkpt><trkpt lat="43.73226468762863" lon="12.445675329229143"><ele>273.0</ele><time>2026-04-04T14:15:23Z</time></trkpt><trkpt lat="43.73209256688249" lon="12.445630127927078"><ele>273.0</ele><time>2026-04-04T14:15:24Z</time></trkpt><trkpt lat="43.7319218998853" lon="12.445583811736372"><ele>273.0</ele><time>2026-04-04T14:15:25Z</time></trkpt><trkpt lat="43.73175344802373" lon="12.445538016918915"><ele>273.3333333333333</ele><time>2026-04-04T14:15:26Z</time></trkpt><trkpt lat="43.731584685511" lon="12.445489767597946"><ele>273.66666666666663</ele><time>2026-04-04T14:15:27Z</time></trkpt><trkpt lat="43.73141565853291" lon="12.44544534560247"><ele>274.0</ele><time>2026-04-04T14:15:28Z</time></trkpt><trkpt lat="43.73124448700343" lon="12.445398309150832"><ele>274.66666666666663</ele><time>2026-04-04T14:15:29Z</time></trkpt><trkpt lat="43.73107571044311" lon="12.445340990346887"><ele>275.3333333333333</ele><time>2026-04-04T14:15:30Z</time></trkpt><trkpt lat="43.73091002862907" lon="12.445273665992834"><ele>276.0</ele><time>2026-04-04T14:15:31Z</time></trkpt><trkpt lat="43.73074868318823" lon="12.445202792132564"><ele>276.3333333333333</ele><time>2026-04-04T14:15:32Z</time></trkpt><trkpt lat="43.730593731205836" lon="12.445132067251594"><ele>276.66666666666663</ele><time>2026-04-04T14:15:33Z</time></trkpt><trkpt lat="43.73044185542832" lon="12.445060751500876"><ele>277.0</ele><time>2026-04-04T14:15:34Z</time></trkpt><trkpt lat="43.73028525046745" lon="12.444991366951047"><ele>276.0</ele><time>2026-04-04T14:15:35Z</time></trkpt><trkpt lat="43.73013044611955" lon="12.444923310674875"><ele>275.0</ele><time>2026-04-04T14:15:36Z</time></trkpt><trkpt lat="43.729972140534194" lon="12.444853455625829"><ele>274.0</ele><time>2026-04-04T14:15:37Z</time></trkpt><trkpt lat="43.72981987752023" lon="12.444782354617242"><ele>274.0</ele><time>2026-04-04T14:15:38Z</time></trkpt><trkpt lat="43.72966631228607" lon="12.44470641859832"><ele>274.0</ele><time>2026-04-04T14:15:39Z</time></trkpt><trkpt lat="43.72951181220324" lon="12.44462884661068"><ele>274.0</ele><time>2026-04-04T14:15:40Z</time></trkpt><trkpt lat="43.729354674364004" lon="12.444549440441877"><ele>274.66666666666663</ele><time>2026-04-04T14:15:41Z</time></trkpt><trkpt lat="43.729203626940766" lon="12.444457756036996"><ele>275.3333333333333</ele><time>2026-04-04T14:15:42Z</time></trkpt><trkpt lat="43.729057563760854" lon="12.44435816832269"><ele>276.0</ele><time>2026-04-04T14:15:43Z</time></trkpt><trkpt lat="43.72891157483204" lon="12.444250601650513"><ele>276.0</ele><time>2026-04-04T14:15:44Z</time></trkpt><trkpt lat="43.728768396871274" lon="12.444131865213013"><ele>276.0</ele><time>2026-04-04T14:15:45Z</time></trkpt><trkpt lat="43.72862835296577" lon="12.444006578750928"><ele>276.0</ele><time>2026-04-04T14:15:46Z</time></trkpt><trkpt lat="43.72849054323273" lon="12.443876853424129"><ele>277.0</ele><time>2026-04-04T14:15:47Z</time></trkpt><trkpt lat="43.728353375353315" lon="12.443748997654778"><ele>278.0</ele><time>2026-04-04T14:15:48Z</time></trkpt><trkpt lat="43.72821672848851" lon="12.443622255893414"><ele>279.0</ele><time>2026-04-04T14:15:49Z</time></trkpt><trkpt lat="43.728081593026175" lon="12.4434961227391"><ele>279.0</ele><time>2026-04-04T14:15:50Z</time></trkpt><trkpt lat="43.727946614148905" lon="12.443374792521512"><ele>279.0</ele><time>2026-04-04T14:15:51Z</time></trkpt><trkpt lat="43.72781337460768" lon="12.443252621064811"><ele>279.0</ele><time>2026-04-04T14:15:52Z</time></trkpt><trkpt lat="43.72768208841224" lon="12.443131539230109"><ele>278.5</ele><time>2026-04-04T14:15:53Z</time></trkpt><trkpt lat="43.72755535192063" lon="12.443010218980982"><ele>278.0</ele><time>2026-04-04T14:15:54Z</time></trkpt><trkpt lat="43.72743560948084" lon="12.442895787161898"><ele>277.5</ele><time>2026-04-04T14:15:55Z</time></trkpt><trkpt lat="43.72733292598609" lon="12.442785799065295"><ele>277.0</ele><time>2026-04-04T14:15:56Z</time></trkpt><trkpt lat="43.72726248504147" lon="12.442682275799607"><ele>278.5</ele><time>2026-04-04T14:15:57Z</time></trkpt><trkpt lat="43.727220013735945" lon="12.442563824792746"><ele>280.0</ele><time>2026-04-04T14:15:58Z</time></trkpt><trkpt lat="43.72720479146332" lon="12.442456415292725"><ele>281.5</ele><time>2026-04-04T14:15:59Z</time></trkpt><trkpt lat="43.72718299715253" lon="12.44235072784274"><ele>283.0</ele><time>2026-04-04T14:16:00Z</time></trkpt><trkpt lat="43.727131659506355" lon="12.442273182380195"><ele>284.5</ele><time>2026-04-04T14:16:01Z</time></trkpt><trkpt lat="43.7270584813729" lon="12.442215683229616"><ele>286.0</ele><time>2026-04-04T14:16:02Z</time></trkpt><trkpt lat="43.72697425182862" lon="12.442159917462826"><ele>286.2</ele><time>2026-04-04T14:16:03Z</time></trkpt><trkpt lat="43.72692999096146" lon="12.442049758690592"><ele>286.40000000000003</ele><time>2026-04-04T14:16:04Z</time></trkpt><trkpt lat="43.72689426277986" lon="12.441918104404474"><ele>286.6</ele><time>2026-04-04T14:16:05Z</time></trkpt><trkpt lat="43.72685230581524" lon="12.441778398998483"><ele>286.8</ele><time>2026-04-04T14:16:06Z</time></trkpt><trkpt lat="43.7268033283414" lon="12.441626068498245"><ele>287.0</ele><time>2026-04-04T14:16:07Z</time></trkpt><trkpt lat="43.72674783428964" lon="12.44146183749909"><ele>285.5</ele><time>2026-04-04T14:16:08Z</time></trkpt><trkpt lat="43.72668642364535" lon="12.441291098240661"><ele>284.0</ele><time>2026-04-04T14:16:09Z</time></trkpt><trkpt lat="43.7266271896633" lon="12.441105760235171"><ele>282.5</ele><time>2026-04-04T14:16:10.001Z</time></trkpt><trkpt lat="43.72656522689686" lon="12.440910548449674"><ele>281.0</ele><time>2026-04-04T14:16:11.001Z</time></trkpt><trkpt lat="43.72649990639473" lon="12.440707309370682"><ele>281.0</ele><time>2026-04-04T14:16:12.001Z</time></trkpt><trkpt lat="43.726434604293914" lon="12.440495373930215"><ele>281.0</ele><time>2026-04-04T14:16:13.001Z</time></trkpt><trkpt lat="43.726383381463705" lon="12.440269335883562"><ele>281.0</ele><time>2026-04-04T14:16:14.001Z</time></trkpt><trkpt lat="43.72635345821268" lon="12.440029919045298"><ele>282.0</ele><time>2026-04-04T14:16:15.001Z</time></trkpt><trkpt lat="43.72634135904452" lon="12.439788737100969"><ele>283.0</ele><time>2026-04-04T14:16:16.001Z</time></trkpt><trkpt lat="43.7263331509171" lon="12.439547611087459"><ele>284.0</ele><time>2026-04-04T14:16:17.001Z</time></trkpt><trkpt lat="43.72632772719019" lon="12.43930532269727"><ele>285.6666666666667</ele><time>2026-04-04T14:16:18.001Z</time></trkpt><trkpt lat="43.726323827571974" lon="12.439068286555427"><ele>287.3333333333333</ele><time>2026-04-04T14:16:19.001Z</time></trkpt><trkpt lat="43.726318332159956" lon="12.438827497826493"><ele>289.0</ele><time>2026-04-04T14:16:20.001Z</time></trkpt><trkpt lat="43.72631545367402" lon="12.438594138769774"><ele>289.5</ele><time>2026-04-04T14:16:21.001Z</time></trkpt><trkpt lat="43.72631401435131" lon="12.438373044700601"><ele>290.0</ele><time>2026-04-04T14:16:22.001Z</time></trkpt><trkpt lat="43.72631942999629" lon="12.438173391201252"><ele>290.5</ele><time>2026-04-04T14:16:23.001Z</time></trkpt><trkpt lat="43.726317661537614" lon="12.437985461941011"><ele>291.0</ele><time>2026-04-04T14:16:24.001Z</time></trkpt><trkpt lat="43.72630645324863" lon="12.437795924321952"><ele>292.5</ele><time>2026-04-04T14:16:25.001Z</time></trkpt><trkpt lat="43.72630113749643" lon="12.437619394313126"><ele>294.0</ele><time>2026-04-04T14:16:26.001Z</time></trkpt><trkpt lat="43.7262954765763" lon="12.437444731984549"><ele>295.5</ele><time>2026-04-04T14:16:27.001Z</time></trkpt><trkpt lat="43.72629308601311" lon="12.437276635591033"><ele>297.0</ele><time>2026-04-04T14:16:28.001Z</time></trkpt><trkpt lat="43.72629261946864" lon="12.437116030666697"><ele>297.5</ele><time>2026-04-04T14:16:29.001Z</time></trkpt><trkpt lat="43.72629288278452" lon="12.436954934373034"><ele>298.0</ele><time>2026-04-04T14:16:30.001Z</time></trkpt><trkpt lat="43.72629621433344" lon="12.436793862090024"><ele>298.5</ele><time>2026-04-04T14:16:31.001Z</time></trkpt><trkpt lat="43.72630375914021" lon="12.436629119182856"><ele>299.0</ele><time>2026-04-04T14:16:32.001Z</time></trkpt><trkpt lat="43.72631634432206" lon="12.43645632472726"><ele>298.25</ele><time>2026-04-04T14:16:33.001Z</time></trkpt><trkpt lat="43.72633710028938" lon="12.436283379671382"><ele>297.5</ele><time>2026-04-04T14:16:34.001Z</time></trkpt><trkpt lat="43.7263697968977" lon="12.436113577737471"><ele>296.75</ele><time>2026-04-04T14:16:35.001Z</time></trkpt><trkpt lat="43.726423594841805" lon="12.435949739993644"><ele>296.0</ele><time>2026-04-04T14:16:36.001Z</time></trkpt><trkpt lat="43.726495441026444" lon="12.435797084324813"><ele>296.0</ele><time>2026-04-04T14:16:37.001Z</time></trkpt><trkpt lat="43.72657985986862" lon="12.435658707264487"><ele>296.0</ele><time>2026-04-04T14:16:38.001Z</time></trkpt><trkpt lat="43.72667657869077" lon="12.4355333060155"><ele>296.0</ele><time>2026-04-04T14:16:39.001Z</time></trkpt><trkpt lat="43.72678486693477" lon="12.435420958454614"><ele>296.0</ele><time>2026-04-04T14:16:40.001Z</time></trkpt><trkpt lat="43.72690185385856" lon="12.435319117155998"><ele>298.33333333333337</ele><time>2026-04-04T14:16:41.001Z</time></trkpt><trkpt lat="43.72702468986898" lon="12.435216161566215"><ele>300.6666666666667</ele><time>2026-04-04T14:16:42.001Z</time></trkpt><trkpt lat="43.72715872442829" lon="12.435103465517312"><ele>303.0</ele><time>2026-04-04T14:16:43.001Z</time></trkpt><trkpt lat="43.727287524405696" lon="12.434976040273673"><ele>303.0</ele><time>2026-04-04T14:16:44.001Z</time></trkpt><trkpt lat="43.72741398643744" lon="12.43484025029662"><ele>303.0</ele><time>2026-04-04T14:16:45.001Z</time></trkpt><trkpt lat="43.72753334523774" lon="12.434690423775251"><ele>303.0</ele><time>2026-04-04T14:16:46.001Z</time></trkpt><trkpt lat="43.72763526623886" lon="12.43452017360471"><ele>300.0</ele><time>2026-04-04T14:16:47.001Z</time></trkpt><trkpt lat="43.727716921362635" lon="12.434330875378391"><ele>297.0</ele><time>2026-04-04T14:16:48.001Z</time></trkpt><trkpt lat="43.727773775224186" lon="12.43412764405357"><ele>294.0</ele><time>2026-04-04T14:16:49.001Z</time></trkpt><trkpt lat="43.72781497301362" lon="12.433915042095435"><ele>298.6666666666667</ele><time>2026-04-04T14:16:50.001Z</time></trkpt><trkpt lat="43.72782703682539" lon="12.43369243152943"><ele>303.33333333333337</ele><time>2026-04-04T14:16:51.001Z</time></trkpt><trkpt lat="43.72783314951714" lon="12.433471905708522"><ele>308.0</ele><time>2026-04-04T14:16:52.001Z</time></trkpt><trkpt lat="43.72783931192138" lon="12.433258023169008"><ele>308.0</ele><time>2026-04-04T14:16:53.001Z</time></trkpt><trkpt lat="43.72785564168593" lon="12.433060179596577"><ele>308.0</ele><time>2026-04-04T14:16:54.001Z</time></trkpt><trkpt lat="43.727887376769885" lon="12.43290276902247"><ele>308.0</ele><time>2026-04-04T14:16:55.001Z</time></trkpt><trkpt lat="43.72791936012783" lon="12.432775923566519"><ele>308.0</ele><time>2026-04-04T14:16:56.001Z</time></trkpt><trkpt lat="43.727952207811164" lon="12.432692369553658"><ele>308.0</ele><time>2026-04-04T14:16:57.001Z</time></trkpt><trkpt lat="43.72796895374921" lon="12.432598833799966"><ele>305.8</ele><time>2026-04-04T14:16:59.001Z</time></trkpt><trkpt lat="43.7279960344117" lon="12.432502112636113"><ele>303.6</ele><time>2026-04-04T14:17:01.001Z</time></trkpt><trkpt lat="43.72806338851993" lon="12.432392035614159"><ele>301.4</ele><time>2026-04-04T14:17:03.001Z</time></trkpt><trkpt lat="43.72813547091858" lon="12.432278219676885"><ele>299.2</ele><time>2026-04-04T14:17:05.001Z</time></trkpt><trkpt lat="43.728214982001596" lon="12.43218760463592"><ele>297.0</ele><time>2026-04-04T14:17:07.001Z</time></trkpt><trkpt lat="43.72826778000376" lon="12.432139134555122"><ele>296.1666666666667</ele><time>2026-04-04T14:17:09.001Z</time></trkpt><trkpt lat="43.72833933352526" lon="12.43208585762896"><ele>295.3333333333333</ele><time>2026-04-04T14:18:55.001Z</time></trkpt><trkpt lat="43.7284408876449" lon="12.432045679492616"><ele>294.5</ele><time>2026-04-04T14:18:57.001Z</time></trkpt><trkpt lat="43.72850740688722" lon="12.432038697772544"><ele>293.66666666666663</ele><time>2026-04-04T14:18:58.001Z</time></trkpt><trkpt lat="43.72857666118419" lon="12.43204413771268"><ele>292.8333333333333</ele><time>2026-04-04T14:18:59.001Z</time></trkpt><trkpt lat="43.72865244838267" lon="12.43206445861379"><ele>292.0</ele><time>2026-04-04T14:19:00.001Z</time></trkpt><trkpt lat="43.7287381433915" lon="12.432106125914341"><ele>294.16666666666663</ele><time>2026-04-04T14:19:01.001Z</time></trkpt><trkpt lat="43.72882106950159" lon="12.43216658308245"><ele>296.3333333333333</ele><time>2026-04-04T14:19:02.001Z</time></trkpt><trkpt lat="43.7288996054781" lon="12.432227058123976"><ele>298.5</ele><time>2026-04-04T14:19:03.001Z</time></trkpt><trkpt lat="43.7289848866948" lon="12.432272675974064"><ele>300.6666666666667</ele><time>2026-04-04T14:19:04.001Z</time></trkpt><trkpt lat="43.72907658144098" lon="12.432274206875597"><ele>302.83333333333337</ele><time>2026-04-04T14:19:05.001Z</time></trkpt><trkpt lat="43.72915166205292" lon="12.432248164627563"><ele>305.0</ele><time>2026-04-04T14:19:06.001Z</time></trkpt><trkpt lat="43.729206387136486" lon="12.432178006561267"><ele>303.0</ele><time>2026-04-04T14:19:07.001Z</time></trkpt><trkpt lat="43.72923443664353" lon="12.432079411228136"><ele>301.0</ele><time>2026-04-04T14:19:08.001Z</time></trkpt><trkpt lat="43.729278505753044" lon="12.432012053710185"><ele>299.0</ele><time>2026-04-04T14:19:09.001Z</time></trkpt><trkpt lat="43.72933736165001" lon="12.43190831192799"><ele>297.0</ele><time>2026-04-04T14:19:11.001Z</time></trkpt><trkpt lat="43.72940208302974" lon="12.431854976963903"><ele>295.0</ele><time>2026-04-04T14:19:13.001Z</time></trkpt><trkpt lat="43.72952560691276" lon="12.431857321205602"><ele>293.0</ele><time>2026-04-04T14:19:15.001Z</time></trkpt><trkpt lat="43.729613586238095" lon="12.431856177129701"><ele>293.0</ele><time>2026-04-04T14:19:16.001Z</time></trkpt><trkpt lat="43.72970148699491" lon="12.431870185049643"><ele>293.0</ele><time>2026-04-04T14:19:17.001Z</time></trkpt><trkpt lat="43.7297979644392" lon="12.431883656609024"><ele>293.0</ele><time>2026-04-04T14:19:18.001Z</time></trkpt><trkpt lat="43.7298869938902" lon="12.431909809710152"><ele>293.0</ele><time>2026-04-04T14:19:19.001Z</time></trkpt><trkpt lat="43.729960374263484" lon="12.431947284552553"><ele>293.0</ele><time>2026-04-04T14:19:20.001Z</time></trkpt><trkpt lat="43.73002391248843" lon="12.431971477303302"><ele>293.0</ele><time>2026-04-04T14:19:21.001Z</time></trkpt><trkpt lat="43.73012261910374" lon="12.431955535057584"><ele>293.0</ele><time>2026-04-04T14:19:23.001Z</time></trkpt><trkpt lat="43.73014890178693" lon="12.431853352306788"><ele>293.0</ele><time>2026-04-04T14:19:25.001Z</time></trkpt><trkpt lat="43.730083290733326" lon="12.431776742866415"><ele>293.0</ele><time>2026-04-04T14:19:27.001Z</time></trkpt><trkpt lat="43.72996922200584" lon="12.431795887306402"><ele>293.0</ele><time>2026-04-04T14:19:29Z</time></trkpt><trkpt lat="43.72990435733693" lon="12.431827836879819"><ele>293.0</ele><time>2026-04-04T14:19:30Z</time></trkpt><trkpt lat="43.72984546612881" lon="12.431898271335498"><ele>293.0</ele><time>2026-04-04T14:19:31Z</time></trkpt><trkpt lat="43.729726508121935" lon="12.431831537889389"><ele>293.0</ele><time>2026-04-04T14:19:32Z</time></trkpt><trkpt lat="43.7296196798653" lon="12.431816201604352"><ele>293.0</ele><time>2026-04-04T14:19:33Z</time></trkpt><trkpt lat="43.729507345537826" lon="12.431802098957322"><ele>293.0</ele><time>2026-04-04T14:19:34Z</time></trkpt><trkpt lat="43.72938405279018" lon="12.431784209635909"><ele>293.0</ele><time>2026-04-04T14:19:35Z</time></trkpt><trkpt lat="43.72925213144674" lon="12.431771791905044"><ele>292.75</ele><time>2026-04-04T14:19:36Z</time></trkpt><trkpt lat="43.72911559350182" lon="12.431756329481042"><ele>292.5</ele><time>2026-04-04T14:19:37Z</time></trkpt><trkpt lat="43.72897545360979" lon="12.431738643009195"><ele>292.25</ele><time>2026-04-04T14:19:38Z</time></trkpt><trkpt lat="43.72883544642681" lon="12.431728852298887"><ele>292.0</ele><time>2026-04-04T14:19:39Z</time></trkpt><trkpt lat="43.72868929031144" lon="12.431708843088128"><ele>290.66666666666663</ele><time>2026-04-04T14:19:40Z</time></trkpt><trkpt lat="43.7285350909067" lon="12.431684589901277"><ele>289.3333333333333</ele><time>2026-04-04T14:19:41Z</time></trkpt><trkpt lat="43.728378231038505" lon="12.431664800050275"><ele>288.0</ele><time>2026-04-04T14:19:42Z</time></trkpt><trkpt lat="43.728218285020425" lon="12.431643688543161"><ele>288.0</ele><time>2026-04-04T14:19:43Z</time></trkpt><trkpt lat="43.72805479981393" lon="12.431623421181616"><ele>288.0</ele><time>2026-04-04T14:19:44Z</time></trkpt><trkpt lat="43.7278889595895" lon="12.43160295112768"><ele>288.0</ele><time>2026-04-04T14:19:45Z</time></trkpt><trkpt lat="43.727718345424364" lon="12.431584219568164"><ele>285.6666666666667</ele><time>2026-04-04T14:19:46Z</time></trkpt><trkpt lat="43.72754450607932" lon="12.43156486644885"><ele>283.33333333333337</ele><time>2026-04-04T14:19:47Z</time></trkpt><trkpt lat="43.72736778557555" lon="12.43154311151231"><ele>281.0</ele><time>2026-04-04T14:19:48Z</time></trkpt><trkpt lat="43.72718762214456" lon="12.431519762832991"><ele>281.0</ele><time>2026-04-04T14:19:49Z</time></trkpt><trkpt lat="43.727005081298145" lon="12.431499071108222"><ele>281.0</ele><time>2026-04-04T14:19:50Z</time></trkpt><trkpt lat="43.72681921332745" lon="12.431477897747799"><ele>281.0</ele><time>2026-04-04T14:19:51Z</time></trkpt><trkpt lat="43.72663142724864" lon="12.431458115191708"><ele>280.33333333333337</ele><time>2026-04-04T14:19:52Z</time></trkpt><trkpt lat="43.72644550490594" lon="12.431433958915616"><ele>279.6666666666667</ele><time>2026-04-04T14:19:53Z</time></trkpt><trkpt lat="43.72625755924395" lon="12.431409318732596"><ele>279.0</ele><time>2026-04-04T14:19:54Z</time></trkpt><trkpt lat="43.726073445523824" lon="12.431384927014346"><ele>281.3333333333333</ele><time>2026-04-04T14:19:55Z</time></trkpt><trkpt lat="43.72588321777986" lon="12.431359972742323"><ele>283.66666666666663</ele><time>2026-04-04T14:19:56Z</time></trkpt><trkpt lat="43.72569299128662" lon="12.431333035411635"><ele>286.0</ele><time>2026-04-04T14:19:57Z</time></trkpt><trkpt lat="43.72550092980526" lon="12.431301345002908"><ele>286.66666666666663</ele><time>2026-04-04T14:19:58Z</time></trkpt><trkpt lat="43.72531074343739" lon="12.431270041496193"><ele>287.3333333333333</ele><time>2026-04-04T14:19:59Z</time></trkpt><trkpt lat="43.72511996844287" lon="12.431242288348932"><ele>288.0</ele><time>2026-04-04T14:20:00Z</time></trkpt><trkpt lat="43.72492828197707" lon="12.431213673142983"><ele>289.6666666666667</ele><time>2026-04-04T14:20:01Z</time></trkpt><trkpt lat="43.724738197729245" lon="12.431188407348875"><ele>291.33333333333337</ele><time>2026-04-04T14:20:02Z</time></trkpt><trkpt lat="43.72454796539565" lon="12.431166477691455"><ele>293.0</ele><time>2026-04-04T14:20:03Z</time></trkpt><trkpt lat="43.724360052591884" lon="12.431145120373316"><ele>296.0</ele><time>2026-04-04T14:20:04Z</time></trkpt><trkpt lat="43.724174402072535" lon="12.431124299419634"><ele>299.0</ele><time>2026-04-04T14:20:05Z</time></trkpt><trkpt lat="43.72398962063994" lon="12.431100437256788"><ele>302.0</ele><time>2026-04-04T14:20:06Z</time></trkpt><trkpt lat="43.723805827186766" lon="12.431079136608407"><ele>302.0</ele><time>2026-04-04T14:20:07Z</time></trkpt><trkpt lat="43.72362129647844" lon="12.431064645886044"><ele>302.0</ele><time>2026-04-04T14:20:08Z</time></trkpt><trkpt lat="43.723437480030206" lon="12.431060948426254"><ele>302.0</ele><time>2026-04-04T14:20:09Z</time></trkpt><trkpt lat="43.72325488932948" lon="12.431067109384331"><ele>303.33333333333337</ele><time>2026-04-04T14:20:10Z</time></trkpt><trkpt lat="43.72307031244612" lon="12.431086480210672"><ele>304.6666666666667</ele><time>2026-04-04T14:20:11Z</time></trkpt><trkpt lat="43.72288735837023" lon="12.431115027834453"><ele>306.0</ele><time>2026-04-04T14:20:12Z</time></trkpt><trkpt lat="43.7227003603578" lon="12.431147671841355"><ele>307.6666666666667</ele><time>2026-04-04T14:20:13Z</time></trkpt><trkpt lat="43.72251482834988" lon="12.43118849405918"><ele>309.33333333333337</ele><time>2026-04-04T14:20:14Z</time></trkpt><trkpt lat="43.722319843629364" lon="12.431247953908693"><ele>311.0</ele><time>2026-04-04T14:20:15Z</time></trkpt><trkpt lat="43.722133276064994" lon="12.431316716707965"><ele>311.0</ele><time>2026-04-04T14:20:16Z</time></trkpt><trkpt lat="43.72195654520322" lon="12.431394795462314"><ele>311.0</ele><time>2026-04-04T14:20:17Z</time></trkpt><trkpt lat="43.721771668180445" lon="12.431487653909262"><ele>311.0</ele><time>2026-04-04T14:20:18Z</time></trkpt><trkpt lat="43.72159282025943" lon="12.431591469203612"><ele>312.6666666666667</ele><time>2026-04-04T14:20:19Z</time></trkpt><trkpt lat="43.721413213214" lon="12.431705099065514"><ele>314.3333333333333</ele><time>2026-04-04T14:20:20Z</time></trkpt><trkpt lat="43.72123990953463" lon="12.431831944615805"><ele>316.0</ele><time>2026-04-04T14:20:21Z</time></trkpt><trkpt lat="43.7210711095545" lon="12.431969102509218"><ele>318.0</ele><time>2026-04-04T14:20:22Z</time></trkpt><trkpt lat="43.72090567904436" lon="12.432117931025088"><ele>320.0</ele><time>2026-04-04T14:20:23Z</time></trkpt><trkpt lat="43.720742933490776" lon="12.432276579092422"><ele>322.0</ele><time>2026-04-04T14:20:24Z</time></trkpt><trkpt lat="43.72058400207336" lon="12.43244451658968"><ele>322.0</ele><time>2026-04-04T14:20:25Z</time></trkpt><trkpt lat="43.72043048874888" lon="12.432622223399395"><ele>322.0</ele><time>2026-04-04T14:20:26.001Z</time></trkpt><trkpt lat="43.72028156237638" lon="12.4328099358404"><ele>322.0</ele><time>2026-04-04T14:20:27.001Z</time></trkpt><trkpt lat="43.72014088764384" lon="12.433005659652762"><ele>325.66666666666663</ele><time>2026-04-04T14:20:28.001Z</time></trkpt><trkpt lat="43.720003742349235" lon="12.433211094929055"><ele>329.3333333333333</ele><time>2026-04-04T14:20:29.001Z</time></trkpt><trkpt lat="43.71987027439078" lon="12.433424311249889"><ele>333.0</ele><time>2026-04-04T14:20:30.001Z</time></trkpt><trkpt lat="43.71974062317563" lon="12.433641513368995"><ele>331.3333333333333</ele><time>2026-04-04T14:20:31.001Z</time></trkpt><trkpt lat="43.71961298042932" lon="12.433861432254572"><ele>329.66666666666663</ele><time>2026-04-04T14:20:32.001Z</time></trkpt><trkpt lat="43.71948763080548" lon="12.434081781756538"><ele>328.0</ele><time>2026-04-04T14:20:33.001Z</time></trkpt><trkpt lat="43.71936067931113" lon="12.434305075552157"><ele>333.3333333333333</ele><time>2026-04-04T14:20:34.001Z</time></trkpt><trkpt lat="43.719234719831576" lon="12.434532094576225"><ele>338.6666666666667</ele><time>2026-04-04T14:20:35.001Z</time></trkpt><trkpt lat="43.71910877945767" lon="12.434761634854912"><ele>344.0</ele><time>2026-04-04T14:20:36.001Z</time></trkpt><trkpt lat="43.71897997759888" lon="12.434991806068432"><ele>344.0</ele><time>2026-04-04T14:20:37.001Z</time></trkpt><trkpt lat="43.71885148010152" lon="12.43522247027223"><ele>344.0</ele><time>2026-04-04T14:20:38.001Z</time></trkpt><trkpt lat="43.71872041096805" lon="12.435454049359622"><ele>344.0</ele><time>2026-04-04T14:20:39.001Z</time></trkpt><trkpt lat="43.71859119403978" lon="12.435688085592854"><ele>346.0</ele><time>2026-04-04T14:20:40.001Z</time></trkpt><trkpt lat="43.71844805532253" lon="12.435906997351992"><ele>348.0</ele><time>2026-04-04T14:20:41.001Z</time></trkpt><trkpt lat="43.71831704975986" lon="12.436138256804306"><ele>350.0</ele><time>2026-04-04T14:20:42.001Z</time></trkpt><trkpt lat="43.71818658904382" lon="12.436371680326175"><ele>350.0</ele><time>2026-04-04T14:20:43.001Z</time></trkpt><trkpt lat="43.71806855847894" lon="12.436623597077812"><ele>350.0</ele><time>2026-04-04T14:20:44.001Z</time></trkpt><trkpt lat="43.717936249011444" lon="12.43685811557467"><ele>350.0</ele><time>2026-04-04T14:20:45.001Z</time></trkpt><trkpt lat="43.717806120921644" lon="12.43709385981658"><ele>352.6666666666667</ele><time>2026-04-04T14:20:46.001Z</time></trkpt><trkpt lat="43.71767462701133" lon="12.43732782393674"><ele>355.3333333333333</ele><time>2026-04-04T14:20:47.001Z</time></trkpt><trkpt lat="43.71754564400873" lon="12.437562107669843"><ele>358.0</ele><time>2026-04-04T14:20:48.001Z</time></trkpt><trkpt lat="43.71740998878886" lon="12.43779392184193"><ele>356.3333333333333</ele><time>2026-04-04T14:20:49.001Z</time></trkpt><trkpt lat="43.71728094061865" lon="12.43802574769532"><ele>354.6666666666667</ele><time>2026-04-04T14:20:50.001Z</time></trkpt><trkpt lat="43.7171451576749" lon="12.438253396062803"><ele>353.0</ele><time>2026-04-04T14:20:51.001Z</time></trkpt><trkpt lat="43.71701021840887" lon="12.438479857312979"><ele>359.6666666666667</ele><time>2026-04-04T14:20:52.001Z</time></trkpt><trkpt lat="43.71687299338092" lon="12.43870577179882"><ele>366.3333333333333</ele><time>2026-04-04T14:20:53.001Z</time></trkpt><trkpt lat="43.71673282786228" lon="12.438928925868781"><ele>373.0</ele><time>2026-04-04T14:20:54.001Z</time></trkpt><trkpt lat="43.716588953127605" lon="12.439144306087748"><ele>373.0</ele><time>2026-04-04T14:20:55.001Z</time></trkpt><trkpt lat="43.71643759489058" lon="12.439355195390235"><ele>373.0</ele><time>2026-04-04T14:20:56.001Z</time></trkpt><trkpt lat="43.71627689883679" lon="12.439562792595225"><ele>373.0</ele><time>2026-04-04T14:20:57.017Z</time></trkpt><trkpt lat="43.71611119773753" lon="12.439759691077695"><ele>385.66666666666663</ele><time>2026-04-04T14:20:58.02Z</time></trkpt><trkpt lat="43.71593924437956" lon="12.439949488232298"><ele>398.3333333333333</ele><time>2026-04-04T14:20:59.021Z</time></trkpt><trkpt lat="43.7157595040483" lon="12.440128418995178"><ele>411.0</ele><time>2026-04-04T14:21:00.019Z</time></trkpt><trkpt lat="43.715564267860124" lon="12.440273264613218"><ele>435.0</ele><time>2026-04-04T14:21:01.013Z</time></trkpt><trkpt lat="43.71287075392138" lon="12.441401991897592"><ele>420.0</ele><time>2026-04-04T14:21:05.473Z</time></trkpt><trkpt lat="43.71207557739051" lon="12.441615032320367"><ele>423.0</ele><time>2026-04-04T14:21:06.473Z</time></trkpt><trkpt lat="43.7117926" lon="12.44169"><ele>426.0</ele><time>2026-04-04T14:21:07.471Z</time></trkpt><trkpt lat="43.69492363776712" lon="12.445457917805197"><ele>411.3333333333333</ele><time>2026-04-04T14:22:30.002Z</time></trkpt><trkpt lat="43.69476146177947" lon="12.445415311815209"><ele>396.66666666666663</ele><time>2026-04-04T14:22:31.002Z</time></trkpt><trkpt lat="43.69458541218528" lon="12.445342630166719"><ele>382.0</ele><time>2026-04-04T14:22:32.002Z</time></trkpt><trkpt lat="43.6944160247396" lon="12.445262642549409"><ele>380.66666666666663</ele><time>2026-04-04T14:22:33.002Z</time></trkpt><trkpt lat="43.69425223907077" lon="12.445163704474783"><ele>379.3333333333333</ele><time>2026-04-04T14:22:34.002Z</time></trkpt><trkpt lat="43.69408854423409" lon="12.44506213053722"><ele>378.0</ele><time>2026-04-04T14:22:35Z</time></trkpt><trkpt lat="43.69392566860917" lon="12.44495726015794"><ele>378.0</ele><time>2026-04-04T14:22:36Z</time></trkpt><trkpt lat="43.69377200011183" lon="12.444847417142563"><ele>378.0</ele><time>2026-04-04T14:22:37Z</time></trkpt><trkpt lat="43.69361981823602" lon="12.444728700355718"><ele>378.0</ele><time>2026-04-04T14:22:38Z</time></trkpt><trkpt lat="43.693465094488964" lon="12.444612474464373"><ele>376.3333333333333</ele><time>2026-04-04T14:22:39Z</time></trkpt><trkpt lat="43.69330957412288" lon="12.444497805739125"><ele>374.66666666666663</ele><time>2026-04-04T14:22:40Z</time></trkpt><trkpt lat="43.69315786513806" lon="12.444375206524466"><ele>373.0</ele><time>2026-04-04T14:22:41Z</time></trkpt><trkpt lat="43.693011898005395" lon="12.444247715989489"><ele>373.0</ele><time>2026-04-04T14:22:42Z</time></trkpt><trkpt lat="43.69286860382072" lon="12.44411649686488"><ele>373.0</ele><time>2026-04-04T14:22:43Z</time></trkpt><trkpt lat="43.69273070603927" lon="12.443998050861804"><ele>373.0</ele><time>2026-04-04T14:22:44Z</time></trkpt><trkpt lat="43.692590744508834" lon="12.443884459550905"><ele>375.66666666666663</ele><time>2026-04-04T14:22:45Z</time></trkpt><trkpt lat="43.69244948865763" lon="12.443772929417735"><ele>378.3333333333333</ele><time>2026-04-04T14:22:46Z</time></trkpt><trkpt lat="43.69231096472884" lon="12.443655490236509"><ele>381.0</ele><time>2026-04-04T14:22:47Z</time></trkpt><trkpt lat="43.6921759776799" lon="12.443543728432326"><ele>381.0</ele><time>2026-04-04T14:22:48Z</time></trkpt><trkpt lat="43.69204073972782" lon="12.443434131059322"><ele>381.0</ele><time>2026-04-04T14:22:49Z</time></trkpt><trkpt lat="43.691905711428745" lon="12.443329306860676"><ele>381.0</ele><time>2026-04-04T14:22:50Z</time></trkpt><trkpt lat="43.6917705690153" lon="12.443220682311964"><ele>382.66666666666663</ele><time>2026-04-04T14:22:51Z</time></trkpt><trkpt lat="43.691639188783206" lon="12.44310986821781"><ele>384.3333333333333</ele><time>2026-04-04T14:22:52Z</time></trkpt><trkpt lat="43.691504353675406" lon="12.44300430323337"><ele>386.0</ele><time>2026-04-04T14:22:53Z</time></trkpt><trkpt lat="43.691364148238925" lon="12.44290936789516"><ele>387.3333333333333</ele><time>2026-04-04T14:22:54Z</time></trkpt><trkpt lat="43.69122166969242" lon="12.442831594768514"><ele>388.66666666666663</ele><time>2026-04-04T14:22:55Z</time></trkpt><trkpt lat="43.69107629413669" lon="12.442771276283251"><ele>390.0</ele><time>2026-04-04T14:22:56Z</time></trkpt><trkpt lat="43.69093100325811" lon="12.442725646328373"><ele>392.33333333333337</ele><time>2026-04-04T14:22:57Z</time></trkpt><trkpt lat="43.69078313515301" lon="12.442693976155294"><ele>394.6666666666667</ele><time>2026-04-04T14:22:58Z</time></trkpt><trkpt lat="43.690634037849165" lon="12.442672160120926"><ele>397.0</ele><time>2026-04-04T14:22:59Z</time></trkpt><trkpt lat="43.69048408850297" lon="12.442653487718228"><ele>397.0</ele><time>2026-04-04T14:23:00Z</time></trkpt><trkpt lat="43.69033187410489" lon="12.442626863674654"><ele>397.0</ele><time>2026-04-04T14:23:01Z</time></trkpt><trkpt lat="43.690179386203276" lon="12.44258985814991"><ele>397.0</ele><time>2026-04-04T14:23:02Z</time></trkpt><trkpt lat="43.690026443527955" lon="12.442542950106684"><ele>398.0</ele><time>2026-04-04T14:23:03Z</time></trkpt><trkpt lat="43.689875046917365" lon="12.442485600404002"><ele>399.0</ele><time>2026-04-04T14:23:04Z</time></trkpt><trkpt lat="43.68972384034025" lon="12.442421498172328"><ele>400.0</ele><time>2026-04-04T14:23:05Z</time></trkpt><trkpt lat="43.68957215272576" lon="12.442356638682678"><ele>401.25</ele><time>2026-04-04T14:23:06Z</time></trkpt><trkpt lat="43.68942439522548" lon="12.442291830374037"><ele>402.5</ele><time>2026-04-04T14:23:07Z</time></trkpt><trkpt lat="43.689284717430326" lon="12.44223710025938"><ele>403.75</ele><time>2026-04-04T14:23:08Z</time></trkpt><trkpt lat="43.68915183125581" lon="12.442179514989846"><ele>405.0</ele><time>2026-04-04T14:23:09Z</time></trkpt><trkpt lat="43.68901825556557" lon="12.44211244960556"><ele>405.0</ele><time>2026-04-04T14:23:10Z</time></trkpt><trkpt lat="43.68888785134921" lon="12.442033609181488"><ele>405.0</ele><time>2026-04-04T14:23:11Z</time></trkpt><trkpt lat="43.688754110977555" lon="12.441945184297941"><ele>405.0</ele><time>2026-04-04T14:23:12Z</time></trkpt><trkpt lat="43.68861740249861" lon="12.441860060580568"><ele>405.0</ele><time>2026-04-04T14:23:13Z</time></trkpt><trkpt lat="43.68847691437794" lon="12.441775438548616"><ele>403.33333333333337</ele><time>2026-04-04T14:23:14Z</time></trkpt><trkpt lat="43.68833158881343" lon="12.441703176680965"><ele>401.6666666666667</ele><time>2026-04-04T14:23:15Z</time></trkpt><trkpt lat="43.68818361752332" lon="12.441640456904109"><ele>400.0</ele><time>2026-04-04T14:23:16Z</time></trkpt><trkpt lat="43.688029769966356" lon="12.441582423602098"><ele>400.0</ele><time>2026-04-04T14:23:17Z</time></trkpt><trkpt lat="43.687868449559716" lon="12.441527319810564"><ele>400.0</ele><time>2026-04-04T14:23:18Z</time></trkpt><trkpt lat="43.68770825099231" lon="12.441458675688212"><ele>400.0</ele><time>2026-04-04T14:23:19Z</time></trkpt><trkpt lat="43.68755241856155" lon="12.441371485167506"><ele>400.0</ele><time>2026-04-04T14:23:20Z</time></trkpt><trkpt lat="43.68739563072838" lon="12.44127600092964"><ele>400.0</ele><time>2026-04-04T14:23:21Z</time></trkpt><trkpt lat="43.68723743156982" lon="12.44118645100106"><ele>400.0</ele><time>2026-04-04T14:23:22Z</time></trkpt><trkpt lat="43.68707441684288" lon="12.44111344051074"><ele>397.6666666666667</ele><time>2026-04-04T14:23:23Z</time></trkpt><trkpt lat="43.68690545038701" lon="12.441062992330274"><ele>395.33333333333337</ele><time>2026-04-04T14:23:24Z</time></trkpt><trkpt lat="43.68673105545399" lon="12.441022365976712"><ele>393.0</ele><time>2026-04-04T14:23:25Z</time></trkpt><trkpt lat="43.68655377486135" lon="12.440991452678988"><ele>393.0</ele><time>2026-04-04T14:23:26Z</time></trkpt><trkpt lat="43.68637597461023" lon="12.440966858926531"><ele>393.0</ele><time>2026-04-04T14:23:27Z</time></trkpt><trkpt lat="43.686195784782186" lon="12.44094187265274"><ele>393.0</ele><time>2026-04-04T14:23:28Z</time></trkpt><trkpt lat="43.68601404610908" lon="12.440912074248036"><ele>390.66666666666663</ele><time>2026-04-04T14:23:29Z</time></trkpt><trkpt lat="43.6858308128246" lon="12.440881921507742"><ele>388.3333333333333</ele><time>2026-04-04T14:23:30Z</time></trkpt><trkpt lat="43.685646050299034" lon="12.440855424036911"><ele>386.0</ele><time>2026-04-04T14:23:31Z</time></trkpt><trkpt lat="43.685459867364806" lon="12.440828950659187"><ele>386.0</ele><time>2026-04-04T14:23:32Z</time></trkpt><trkpt lat="43.68528079192837" lon="12.44080482955099"><ele>386.0</ele><time>2026-04-04T14:23:33.001Z</time></trkpt><trkpt lat="43.68510684667476" lon="12.440785440627842"><ele>386.0</ele><time>2026-04-04T14:23:34.001Z</time></trkpt><trkpt lat="43.68493815618418" lon="12.44075712852006"><ele>385.3333333333333</ele><time>2026-04-04T14:23:35.001Z</time></trkpt><trkpt lat="43.68479287588853" lon="12.440686494371143"><ele>384.66666666666663</ele><time>2026-04-04T14:23:36.001Z</time></trkpt><trkpt lat="43.68467584584225" lon="12.440553669800327"><ele>384.0</ele><time>2026-04-04T14:23:37.001Z</time></trkpt><trkpt lat="43.684590256043535" lon="12.440374129385757"><ele>384.0</ele><time>2026-04-04T14:23:38.001Z</time></trkpt><trkpt lat="43.68451855705876" lon="12.440175449969463"><ele>384.0</ele><time>2026-04-04T14:23:39.001Z</time></trkpt><trkpt lat="43.684425910102185" lon="12.439989918920206"><ele>384.0</ele><time>2026-04-04T14:23:40.001Z</time></trkpt><trkpt lat="43.68431006850555" lon="12.439822014241921"><ele>383.3333333333333</ele><time>2026-04-04T14:23:41.001Z</time></trkpt><trkpt lat="43.68418668964996" lon="12.439664797478187"><ele>382.66666666666663</ele><time>2026-04-04T14:23:42.001Z</time></trkpt><trkpt lat="43.684055832801825" lon="12.439505457217553"><ele>382.0</ele><time>2026-04-04T14:23:43.001Z</time></trkpt><trkpt lat="43.683918874384304" lon="12.439352334610286"><ele>382.0</ele><time>2026-04-04T14:23:44.001Z</time></trkpt><trkpt lat="43.68378554066863" lon="12.439199448760446"><ele>382.0</ele><time>2026-04-04T14:23:45.001Z</time></trkpt><trkpt lat="43.683661860188444" lon="12.439040629866204"><ele>382.0</ele><time>2026-04-04T14:23:46.001Z</time></trkpt><trkpt lat="43.68355946520395" lon="12.438861860405686"><ele>380.0</ele><time>2026-04-04T14:23:47.001Z</time></trkpt><trkpt lat="43.68347679584791" lon="12.438656467500708"><ele>378.0</ele><time>2026-04-04T14:23:48.001Z</time></trkpt><trkpt lat="43.68341506576129" lon="12.438430110626697"><ele>376.0</ele><time>2026-04-04T14:23:49.001Z</time></trkpt><trkpt lat="43.68335668012465" lon="12.438203235727634"><ele>376.0</ele><time>2026-04-04T14:23:50.001Z</time></trkpt><trkpt lat="43.68327527037958" lon="12.437985945677259"><ele>376.0</ele><time>2026-04-04T14:23:51.001Z</time></trkpt><trkpt lat="43.683176520925244" lon="12.437772584162643"><ele>376.0</ele><time>2026-04-04T14:23:52.001Z</time></trkpt><trkpt lat="43.68307694843453" lon="12.437556516319786"><ele>377.0</ele><time>2026-04-04T14:23:53.001Z</time></trkpt><trkpt lat="43.68298275911654" lon="12.437335987619607"><ele>378.0</ele><time>2026-04-04T14:23:54.001Z</time></trkpt><trkpt lat="43.682896148651615" lon="12.437111676782578"><ele>379.0</ele><time>2026-04-04T14:23:55.001Z</time></trkpt><trkpt lat="43.68281532233366" lon="12.436891519695795"><ele>379.3333333333333</ele><time>2026-04-04T14:23:56.001Z</time></trkpt><trkpt lat="43.68276476883736" lon="12.436668079838514"><ele>379.6666666666667</ele><time>2026-04-04T14:23:57.001Z</time></trkpt><trkpt lat="43.682740021670384" lon="12.436431546484853"><ele>380.0</ele><time>2026-04-04T14:23:58.001Z</time></trkpt><trkpt lat="43.68273890734509" lon="12.436196231393716"><ele>378.0</ele><time>2026-04-04T14:23:59.001Z</time></trkpt><trkpt lat="43.68275811378122" lon="12.435968924825826"><ele>376.0</ele><time>2026-04-04T14:24:00.001Z</time></trkpt><trkpt lat="43.68278174943374" lon="12.435747520671434"><ele>374.0</ele><time>2026-04-04T14:24:01.001Z</time></trkpt><trkpt lat="43.68279055774737" lon="12.43554128322416"><ele>371.25</ele><time>2026-04-04T14:24:02.001Z</time></trkpt><trkpt lat="43.68275460923102" lon="12.435345943788054"><ele>368.5</ele><time>2026-04-04T14:24:03.001Z</time></trkpt><trkpt lat="43.6826858376637" lon="12.435171521356537"><ele>365.75</ele><time>2026-04-04T14:24:04.001Z</time></trkpt><trkpt lat="43.682580110408686" lon="12.43503773190216"><ele>363.0</ele><time>2026-04-04T14:24:05.001Z</time></trkpt><trkpt lat="43.68245800237921" lon="12.434945795229243"><ele>363.0</ele><time>2026-04-04T14:24:06.001Z</time></trkpt><trkpt lat="43.68232268814437" lon="12.434911038053523"><ele>363.0</ele><time>2026-04-04T14:24:07.001Z</time></trkpt><trkpt lat="43.68218873365302" lon="12.434939575197992"><ele>363.0</ele><time>2026-04-04T14:24:08.001Z</time></trkpt><trkpt lat="43.68206151271782" lon="12.43500347457492"><ele>363.0</ele><time>2026-04-04T14:24:09.001Z</time></trkpt><trkpt lat="43.681943574834364" lon="12.43508192644372"><ele>364.0</ele><time>2026-04-04T14:24:10.001Z</time></trkpt><trkpt lat="43.68183527181746" lon="12.435187820238983"><ele>365.0</ele><time>2026-04-04T14:24:11.001Z</time></trkpt><trkpt lat="43.681708824941644" lon="12.435230185745704"><ele>366.0</ele><time>2026-04-04T14:24:12.001Z</time></trkpt><trkpt lat="43.68157277481373" lon="12.435234837840218"><ele>367.0</ele><time>2026-04-04T14:24:13.001Z</time></trkpt><trkpt lat="43.68142958877624" lon="12.435220961967433"><ele>367.0</ele><time>2026-04-04T14:24:14.001Z</time></trkpt><trkpt lat="43.681283344578404" lon="12.43520805414252"><ele>367.0</ele><time>2026-04-04T14:24:15.001Z</time></trkpt><trkpt lat="43.68113448107608" lon="12.435197437623485"><ele>367.0</ele><time>2026-04-04T14:24:16.001Z</time></trkpt><trkpt lat="43.68098628301779" lon="12.435178376127237"><ele>367.0</ele><time>2026-04-04T14:24:17.001Z</time></trkpt><trkpt lat="43.68083543435342" lon="12.43514363685902"><ele>367.25</ele><time>2026-04-04T14:24:18.001Z</time></trkpt><trkpt lat="43.68069467946599" lon="12.435098771073921"><ele>367.5</ele><time>2026-04-04T14:24:19.001Z</time></trkpt><trkpt lat="43.680556763377766" lon="12.435033457757752"><ele>367.75</ele><time>2026-04-04T14:24:20.001Z</time></trkpt><trkpt lat="43.68043064150966" lon="12.434938602801395"><ele>368.0</ele><time>2026-04-04T14:24:21.001Z</time></trkpt><trkpt lat="43.680307938407026" lon="12.43484267204485"><ele>369.25</ele><time>2026-04-04T14:24:22.001Z</time></trkpt><trkpt lat="43.68018521113153" lon="12.434759902941027"><ele>370.5</ele><time>2026-04-04T14:24:23.001Z</time></trkpt><trkpt lat="43.680077081621825" lon="12.434661190903846"><ele>371.75</ele><time>2026-04-04T14:24:24.001Z</time></trkpt><trkpt lat="43.67996873229527" lon="12.434548750206728"><ele>373.0</ele><time>2026-04-04T14:24:25.001Z</time></trkpt><trkpt lat="43.67986630901487" lon="12.434428671654656"><ele>373.0</ele><time>2026-04-04T14:24:26.001Z</time></trkpt><trkpt lat="43.67976863660718" lon="12.434299854198672"><ele>373.0</ele><time>2026-04-04T14:24:27.001Z</time></trkpt><trkpt lat="43.679672944998" lon="12.434172297380897"><ele>373.0</ele><time>2026-04-04T14:24:28.001Z</time></trkpt><trkpt lat="43.67957475775834" lon="12.43404485058042"><ele>373.0</ele><time>2026-04-04T14:24:29.001Z</time></trkpt><trkpt lat="43.67947894218927" lon="12.433912303462781"><ele>372.5</ele><time>2026-04-04T14:24:30.001Z</time></trkpt><trkpt lat="43.679374572124004" lon="12.433777757430368"><ele>372.0</ele><time>2026-04-04T14:24:31.001Z</time></trkpt><trkpt lat="43.67926644267308" lon="12.433635796268385"><ele>371.5</ele><time>2026-04-04T14:24:32.001Z</time></trkpt><trkpt lat="43.679159421118065" lon="12.433489567269763"><ele>371.0</ele><time>2026-04-04T14:24:33.001Z</time></trkpt><trkpt lat="43.67904556622053" lon="12.433341756960258"><ele>371.0</ele><time>2026-04-04T14:24:34.001Z</time></trkpt><trkpt lat="43.67892813339443" lon="12.43319403076213"><ele>371.0</ele><time>2026-04-04T14:24:35.001Z</time></trkpt><trkpt lat="43.67880910413624" lon="12.43304208666405"><ele>371.0</ele><time>2026-04-04T14:24:36.001Z</time></trkpt><trkpt lat="43.678687343623984" lon="12.432887846285247"><ele>370.33333333333337</ele><time>2026-04-04T14:24:37.001Z</time></trkpt><trkpt lat="43.678558720531825" lon="12.432737770498798"><ele>369.6666666666667</ele><time>2026-04-04T14:24:38.001Z</time></trkpt><trkpt lat="43.67842781853762" lon="12.432595133445583"><ele>369.0</ele><time>2026-04-04T14:24:39.001Z</time></trkpt><trkpt lat="43.67828701095733" lon="12.432457429299967"><ele>369.0</ele><time>2026-04-04T14:24:40.001Z</time></trkpt><trkpt lat="43.678128362351195" lon="12.432333187690189"><ele>369.0</ele><time>2026-04-04T14:24:41Z</time></trkpt><trkpt lat="43.67797655027696" lon="12.432207952307863"><ele>369.0</ele><time>2026-04-04T14:24:42Z</time></trkpt><trkpt lat="43.67781809615055" lon="12.432090808069365"><ele>368.0</ele><time>2026-04-04T14:24:43Z</time></trkpt><trkpt lat="43.677652855026835" lon="12.431980991558229"><ele>367.0</ele><time>2026-04-04T14:24:44Z</time></trkpt><trkpt lat="43.67749499567695" lon="12.431878043030066"><ele>366.0</ele><time>2026-04-04T14:24:45Z</time></trkpt><trkpt lat="43.677334866321175" lon="12.43178060414151"><ele>366.0</ele><time>2026-04-04T14:24:46Z</time></trkpt><trkpt lat="43.677166157299496" lon="12.431679567797316"><ele>366.0</ele><time>2026-04-04T14:24:47Z</time></trkpt><trkpt lat="43.67700107368008" lon="12.431577974555836"><ele>366.0</ele><time>2026-04-04T14:24:48Z</time></trkpt><trkpt lat="43.676832293593385" lon="12.431482464821674"><ele>366.3333333333333</ele><time>2026-04-04T14:24:49Z</time></trkpt><trkpt lat="43.67665934987803" lon="12.431407095734778"><ele>366.66666666666663</ele><time>2026-04-04T14:24:50Z</time></trkpt><trkpt lat="43.67648236735076" lon="12.43134576558056"><ele>367.0</ele><time>2026-04-04T14:24:51Z</time></trkpt><trkpt lat="43.67630970492134" lon="12.431264829641327"><ele>367.0</ele><time>2026-04-04T14:24:52Z</time></trkpt><trkpt lat="43.676143593707735" lon="12.43114870080198"><ele>367.0</ele><time>2026-04-04T14:24:53Z</time></trkpt><trkpt lat="43.67598679753145" lon="12.431027002654877"><ele>367.0</ele><time>2026-04-04T14:24:54Z</time></trkpt><trkpt lat="43.675835439795236" lon="12.43091995806984"><ele>364.0</ele><time>2026-04-04T14:24:55Z</time></trkpt><trkpt lat="43.675686536446925" lon="12.430820723301228"><ele>361.0</ele><time>2026-04-04T14:24:56Z</time></trkpt><trkpt lat="43.67553622054115" lon="12.43074691555148"><ele>358.0</ele><time>2026-04-04T14:24:57Z</time></trkpt><trkpt lat="43.675382261910656" lon="12.43072676149181"><ele>356.75</ele><time>2026-04-04T14:24:58Z</time></trkpt><trkpt lat="43.675237039760624" lon="12.4307428221256"><ele>355.5</ele><time>2026-04-04T14:24:59Z</time></trkpt><trkpt lat="43.67510397118542" lon="12.4307341597475"><ele>354.25</ele><time>2026-04-04T14:25:00Z</time></trkpt><trkpt lat="43.67497895495232" lon="12.430660353198132"><ele>353.0</ele><time>2026-04-04T14:25:01Z</time></trkpt><trkpt lat="43.67487212314428" lon="12.43053139068393"><ele>353.6666666666667</ele><time>2026-04-04T14:25:02Z</time></trkpt><trkpt lat="43.67478061960311" lon="12.430365301241773"><ele>354.3333333333333</ele><time>2026-04-04T14:25:03Z</time></trkpt><trkpt lat="43.67468212672607" lon="12.4301992682209"><ele>355.0</ele><time>2026-04-04T14:25:04Z</time></trkpt><trkpt lat="43.674571070934554" lon="12.430045695573241"><ele>355.0</ele><time>2026-04-04T14:25:05Z</time></trkpt><trkpt lat="43.674458298573505" lon="12.429916293065737"><ele>355.0</ele><time>2026-04-04T14:25:06Z</time></trkpt><trkpt lat="43.67432056187382" lon="12.429866497250941"><ele>355.0</ele><time>2026-04-04T14:25:07Z</time></trkpt><trkpt lat="43.674174771635535" lon="12.429886166209247"><ele>355.0</ele><time>2026-04-04T14:25:08Z</time></trkpt><trkpt lat="43.67402947676137" lon="12.429927187594526"><ele>354.0</ele><time>2026-04-04T14:25:09Z</time></trkpt><trkpt lat="43.673884557872384" lon="12.429911084771655"><ele>353.0</ele><time>2026-04-04T14:25:10Z</time></trkpt><trkpt lat="43.67375395090299" lon="12.429817622487915"><ele>352.0</ele><time>2026-04-04T14:25:11Z</time></trkpt><trkpt lat="43.67364500328751" lon="12.429672220662873"><ele>351.0</ele><time>2026-04-04T14:25:12Z</time></trkpt><trkpt lat="43.67355719132829" lon="12.429500526350793"><ele>351.0</ele><time>2026-04-04T14:25:13Z</time></trkpt><trkpt lat="43.67346191390051" lon="12.429335771357534"><ele>351.0</ele><time>2026-04-04T14:25:14Z</time></trkpt><trkpt lat="43.673375838652845" lon="12.429188109753271"><ele>351.0</ele><time>2026-04-04T14:25:15Z</time></trkpt><trkpt lat="43.67329392870777" lon="12.429052121508077"><ele>351.0</ele><time>2026-04-04T14:25:16Z</time></trkpt><trkpt lat="43.67320818076752" lon="12.428931232426788"><ele>351.0</ele><time>2026-04-04T14:25:17Z</time></trkpt><trkpt lat="43.67310442430268" lon="12.42886841119868"><ele>351.0</ele><time>2026-04-04T14:25:18Z</time></trkpt><trkpt lat="43.67300818022912" lon="12.428851260999936"><ele>351.0</ele><time>2026-04-04T14:25:19Z</time></trkpt><trkpt lat="43.67290839751024" lon="12.42891132678033"><ele>351.0</ele><time>2026-04-04T14:25:20Z</time></trkpt><trkpt lat="43.67280833199939" lon="12.429030443234716"><ele>349.75</ele><time>2026-04-04T14:25:21Z</time></trkpt><trkpt lat="43.672716895425175" lon="12.429149065424669"><ele>348.5</ele><time>2026-04-04T14:25:22Z</time></trkpt><trkpt lat="43.67261707093096" lon="12.429278145124567"><ele>347.25</ele><time>2026-04-04T14:25:23Z</time></trkpt><trkpt lat="43.67251595849421" lon="12.429409559515005"><ele>346.0</ele><time>2026-04-04T14:25:24Z</time></trkpt><trkpt lat="43.672412154114475" lon="12.4295449608381"><ele>345.5</ele><time>2026-04-04T14:25:25Z</time></trkpt><trkpt lat="43.67230492454689" lon="12.429684830015464"><ele>345.0</ele><time>2026-04-04T14:25:26Z</time></trkpt><trkpt lat="43.672196343519765" lon="12.429826461997243"><ele>344.5</ele><time>2026-04-04T14:25:27Z</time></trkpt><trkpt lat="43.67208585319096" lon="12.429970142582432"><ele>344.0</ele><time>2026-04-04T14:25:28Z</time></trkpt><trkpt lat="43.6719760542333" lon="12.430112741040837"><ele>344.25</ele><time>2026-04-04T14:25:29Z</time></trkpt><trkpt lat="43.67186849819964" lon="12.430252426643378"><ele>344.5</ele><time>2026-04-04T14:25:30Z</time></trkpt><trkpt lat="43.671771705806165" lon="12.430378133213448"><ele>344.75</ele><time>2026-04-04T14:25:31Z</time></trkpt><trkpt lat="43.671683572802145" lon="12.430479820755009"><ele>345.0</ele><time>2026-04-04T14:25:32Z</time></trkpt><trkpt lat="43.671592187168365" lon="12.430554677558597"><ele>345.0</ele><time>2026-04-04T14:25:33Z</time></trkpt><trkpt lat="43.67148440286617" lon="12.430553954707563"><ele>345.0</ele><time>2026-04-04T14:25:34Z</time></trkpt><trkpt lat="43.671368506803496" lon="12.430510596485888"><ele>345.0</ele><time>2026-04-04T14:25:35Z</time></trkpt><trkpt lat="43.67124576246715" lon="12.430479884321848"><ele>345.0</ele><time>2026-04-04T14:25:36Z</time></trkpt><trkpt lat="43.671117103702336" lon="12.430491784242411"><ele>344.6</ele><time>2026-04-04T14:25:37.001Z</time></trkpt><trkpt lat="43.6710003333945" lon="12.430524601130315"><ele>344.2</ele><time>2026-04-04T14:25:38.001Z</time></trkpt><trkpt lat="43.67089600008923" lon="12.430569148905636"><ele>343.79999999999995</ele><time>2026-04-04T14:25:39.001Z</time></trkpt><trkpt lat="43.67080189091144" lon="12.43061769034901"><ele>343.4</ele><time>2026-04-04T14:25:40.001Z</time></trkpt><trkpt lat="43.670723892528464" lon="12.430671453331577"><ele>343.0</ele><time>2026-04-04T14:25:41.001Z</time></trkpt><trkpt lat="43.67065889354108" lon="12.430704433392462"><ele>343.0</ele><time>2026-04-04T14:25:42.001Z</time></trkpt><trkpt lat="43.67057589374476" lon="12.430742111714501"><ele>343.0</ele><time>2026-04-04T14:25:44.001Z</time></trkpt><trkpt lat="43.670509853227685" lon="12.430789747896059"><ele>343.0</ele><time>2026-04-04T14:25:55.001Z</time></trkpt><trkpt lat="43.670504369693795" lon="12.431003360159307"><ele>343.0</ele><time>2026-04-04T14:25:57.001Z</time></trkpt><trkpt lat="43.67052128480744" lon="12.431106125956191"><ele>343.0</ele><time>2026-04-04T14:25:58.001Z</time></trkpt><trkpt lat="43.670537827012446" lon="12.431206626077978"><ele>343.0</ele><time>2026-04-04T14:25:59.001Z</time></trkpt><trkpt lat="43.67055728875408" lon="12.431324863528667"><ele>343.0</ele><time>2026-04-04T14:26:00.001Z</time></trkpt><trkpt lat="43.67057918562185" lon="12.431457895412"><ele>343.0</ele><time>2026-04-04T14:26:01.001Z</time></trkpt><trkpt lat="43.670602514636016" lon="12.431599628032057"><ele>343.0</ele><time>2026-04-04T14:26:02.001Z</time></trkpt><trkpt lat="43.67062545683487" lon="12.431739010595951"><ele>343.0</ele><time>2026-04-04T14:26:03.001Z</time></trkpt><trkpt lat="43.67064909720948" lon="12.431883889083416"><ele>343.0</ele><time>2026-04-04T14:26:04.001Z</time></trkpt><trkpt lat="43.670671446673815" lon="12.43202348650187"><ele>343.0</ele><time>2026-04-04T14:26:05.001Z</time></trkpt><trkpt lat="43.670694729671624" lon="12.432168914902682"><ele>343.0</ele><time>2026-04-04T14:26:06.001Z</time></trkpt><trkpt lat="43.670718807161336" lon="12.432319305804313"><ele>343.0</ele><time>2026-04-04T14:26:07.001Z</time></trkpt><trkpt lat="43.67074335679672" lon="12.432475121923167"><ele>343.0</ele><time>2026-04-04T14:26:08.001Z</time></trkpt><trkpt lat="43.67076707858043" lon="12.43262843073715"><ele>342.79999999999995</ele><time>2026-04-04T14:26:09.001Z</time></trkpt><trkpt lat="43.67079003816902" lon="12.43277681366647"><ele>342.6</ele><time>2026-04-04T14:26:10.001Z</time></trkpt><trkpt lat="43.6708125848042" lon="12.432922527747554"><ele>342.4</ele><time>2026-04-04T14:26:11.001Z</time></trkpt><trkpt lat="43.67083616546245" lon="12.433074924491445"><ele>342.20000000000005</ele><time>2026-04-04T14:26:12.001Z</time></trkpt><trkpt lat="43.67086035317074" lon="12.433234762797019"><ele>342.0</ele><time>2026-04-04T14:26:13.001Z</time></trkpt><trkpt lat="43.67088574003417" lon="12.4334026101363"><ele>341.75</ele><time>2026-04-04T14:26:14.001Z</time></trkpt><trkpt lat="43.67091244949193" lon="12.433579201875794"><ele>341.5</ele><time>2026-04-04T14:26:15.001Z</time></trkpt><trkpt lat="43.67093906505171" lon="12.433755172849278"><ele>341.25</ele><time>2026-04-04T14:26:16.001Z</time></trkpt><trkpt lat="43.67096756337185" lon="12.433943591868767"><ele>341.0</ele><time>2026-04-04T14:26:17.001Z</time></trkpt><trkpt lat="43.67099705530973" lon="12.434135070862359"><ele>341.0</ele><time>2026-04-04T14:26:18.001Z</time></trkpt><trkpt lat="43.67102789836433" lon="12.43433248878094"><ele>341.0</ele><time>2026-04-04T14:26:19.001Z</time></trkpt><trkpt lat="43.67106057175528" lon="12.434530213011723"><ele>341.0</ele><time>2026-04-04T14:26:20.001Z</time></trkpt><trkpt lat="43.67109363024294" lon="12.43473026767272"><ele>341.0</ele><time>2026-04-04T14:26:21.001Z</time></trkpt><trkpt lat="43.67112814306015" lon="12.434939123290427"><ele>340.6666666666667</ele><time>2026-04-04T14:26:22.001Z</time></trkpt><trkpt lat="43.67116811016659" lon="12.435153984390869"><ele>340.3333333333333</ele><time>2026-04-04T14:26:23.001Z</time></trkpt><trkpt lat="43.67122169326221" lon="12.435367211549828"><ele>340.0</ele><time>2026-04-04T14:26:24.001Z</time></trkpt><trkpt lat="43.67128414453894" lon="12.435578284855822"><ele>339.66666666666663</ele><time>2026-04-04T14:26:25.001Z</time></trkpt><trkpt lat="43.67135518054329" lon="12.435788515756732"><ele>339.3333333333333</ele><time>2026-04-04T14:26:26.001Z</time></trkpt><trkpt lat="43.67143636027473" lon="12.435989442247612"><ele>339.0</ele><time>2026-04-04T14:26:27.001Z</time></trkpt><trkpt lat="43.671529450106576" lon="12.436179533427744"><ele>339.0</ele><time>2026-04-04T14:26:28.001Z</time></trkpt><trkpt lat="43.67164002176061" lon="12.436347935671005"><ele>339.0</ele><time>2026-04-04T14:26:29.001Z</time></trkpt><trkpt lat="43.67173757339602" lon="12.436526957126851"><ele>339.0</ele><time>2026-04-04T14:26:30.001Z</time></trkpt><trkpt lat="43.671841359286816" lon="12.436696585529928"><ele>339.6666666666667</ele><time>2026-04-04T14:26:31.001Z</time></trkpt><trkpt lat="43.67194681768299" lon="12.436868038233328"><ele>340.33333333333337</ele><time>2026-04-04T14:26:32.001Z</time></trkpt><trkpt lat="43.67205006010609" lon="12.437040585457554"><ele>341.0</ele><time>2026-04-04T14:26:33.001Z</time></trkpt><trkpt lat="43.67215534600968" lon="12.437214457198957"><ele>341.0</ele><time>2026-04-04T14:26:34.001Z</time></trkpt><trkpt lat="43.67225889602858" lon="12.437390713812073"><ele>341.0</ele><time>2026-04-04T14:26:35.001Z</time></trkpt><trkpt lat="43.672362251082376" lon="12.437566037101385"><ele>341.0</ele><time>2026-04-04T14:26:36.001Z</time></trkpt><trkpt lat="43.672469240410635" lon="12.43773788366378"><ele>341.0</ele><time>2026-04-04T14:26:37.001Z</time></trkpt><trkpt lat="43.67256988262564" lon="12.437919360632897"><ele>341.0</ele><time>2026-04-04T14:26:38.001Z</time></trkpt><trkpt lat="43.67266689211484" lon="12.43810172043528"><ele>341.0</ele><time>2026-04-04T14:26:39.001Z</time></trkpt><trkpt lat="43.6727586069407" lon="12.43828936880346"><ele>340.6666666666667</ele><time>2026-04-04T14:26:40.001Z</time></trkpt><trkpt lat="43.67284233968006" lon="12.43848350051411"><ele>340.3333333333333</ele><time>2026-04-04T14:26:41.001Z</time></trkpt><trkpt lat="43.67291420024213" lon="12.43868632898851"><ele>340.0</ele><time>2026-04-04T14:26:42.001Z</time></trkpt><trkpt lat="43.6729734295301" lon="12.438900004839399"><ele>342.66666666666663</ele><time>2026-04-04T14:26:43.001Z</time></trkpt><trkpt lat="43.673022211450835" lon="12.439117024351718"><ele>345.3333333333333</ele><time>2026-04-04T14:26:44.002Z</time></trkpt><trkpt lat="43.67306334809065" lon="12.439333855063163"><ele>348.0</ele><time>2026-04-04T14:26:45.002Z</time></trkpt><trkpt lat="43.67310002778777" lon="12.439556108511086"><ele>349.6666666666667</ele><time>2026-04-04T14:26:46.002Z</time></trkpt><trkpt lat="43.67311159097608" lon="12.439779745410286"><ele>351.33333333333337</ele><time>2026-04-04T14:26:47Z</time></trkpt><trkpt lat="43.67315087953782" lon="12.439995965305137"><ele>353.0</ele><time>2026-04-04T14:26:48Z</time></trkpt><trkpt lat="43.673171659391244" lon="12.440222544612531"><ele>353.0</ele><time>2026-04-04T14:26:49Z</time></trkpt><trkpt lat="43.6731898486516" lon="12.440449522435605"><ele>353.0</ele><time>2026-04-04T14:26:50Z</time></trkpt><trkpt lat="43.67321160828584" lon="12.440674899368524"><ele>353.0</ele><time>2026-04-04T14:26:51Z</time></trkpt><trkpt lat="43.6732336523704" lon="12.440900904449128"><ele>351.33333333333337</ele><time>2026-04-04T14:26:52Z</time></trkpt><trkpt lat="43.67325668378075" lon="12.441125993925526"><ele>349.6666666666667</ele><time>2026-04-04T14:26:53Z</time></trkpt><trkpt lat="43.67327797255892" lon="12.441349424679437"><ele>348.0</ele><time>2026-04-04T14:26:54Z</time></trkpt><trkpt lat="43.67329733213256" lon="12.441574182039437"><ele>345.6666666666667</ele><time>2026-04-04T14:26:55Z</time></trkpt><trkpt lat="43.67329454640299" lon="12.441798796742399"><ele>343.33333333333337</ele><time>2026-04-04T14:26:56Z</time></trkpt><trkpt lat="43.67329380642389" lon="12.44202264909419"><ele>341.0</ele><time>2026-04-04T14:26:57Z</time></trkpt><trkpt lat="43.6732901613909" lon="12.442243896417562"><ele>340.0</ele><time>2026-04-04T14:26:58Z</time></trkpt><trkpt lat="43.67328650678929" lon="12.442465724323956"><ele>339.0</ele><time>2026-04-04T14:26:59Z</time></trkpt><trkpt lat="43.67329510374388" lon="12.442688950376525"><ele>338.0</ele><time>2026-04-04T14:27:00Z</time></trkpt><trkpt lat="43.673288740965795" lon="12.442912174378188"><ele>338.6666666666667</ele><time>2026-04-04T14:27:01Z</time></trkpt><trkpt lat="43.67328256290408" lon="12.443134697128524"><ele>339.3333333333333</ele><time>2026-04-04T14:27:02Z</time></trkpt><trkpt lat="43.673284166641885" lon="12.443356146409533"><ele>340.0</ele><time>2026-04-04T14:27:03Z</time></trkpt><trkpt lat="43.67328963739256" lon="12.443579407903622"><ele>341.0</ele><time>2026-04-04T14:27:04Z</time></trkpt><trkpt lat="43.673301228677424" lon="12.443805403432375"><ele>342.0</ele><time>2026-04-04T14:27:05Z</time></trkpt><trkpt lat="43.673317112304645" lon="12.44403662218223"><ele>343.0</ele><time>2026-04-04T14:27:06Z</time></trkpt><trkpt lat="43.67332538729006" lon="12.44425911533873"><ele>343.0</ele><time>2026-04-04T14:27:07Z</time></trkpt><trkpt lat="43.67333329591158" lon="12.44450131497968"><ele>343.0</ele><time>2026-04-04T14:27:08Z</time></trkpt><trkpt lat="43.673335087339154" lon="12.444728661145888"><ele>343.0</ele><time>2026-04-04T14:27:09Z</time></trkpt><trkpt lat="43.67335017148907" lon="12.444966777551354"><ele>343.0</ele><time>2026-04-04T14:27:10Z</time></trkpt><trkpt lat="43.67336488810157" lon="12.44520701069658"><ele>343.0</ele><time>2026-04-04T14:27:11Z</time></trkpt><trkpt lat="43.67338187107893" lon="12.445456651113759"><ele>343.0</ele><time>2026-04-04T14:27:12Z</time></trkpt><trkpt lat="43.673397807802445" lon="12.445714024991304"><ele>342.3333333333333</ele><time>2026-04-04T14:27:13Z</time></trkpt><trkpt lat="43.67341900170973" lon="12.445963782787869"><ele>341.6666666666667</ele><time>2026-04-04T14:27:14Z</time></trkpt><trkpt lat="43.67344336755012" lon="12.446220394901522"><ele>341.0</ele><time>2026-04-04T14:27:15Z</time></trkpt><trkpt lat="43.67347122648656" lon="12.446483228368008"><ele>341.0</ele><time>2026-04-04T14:27:16Z</time></trkpt><trkpt lat="43.67350044483732" lon="12.446749934810475"><ele>341.0</ele><time>2026-04-04T14:27:17Z</time></trkpt><trkpt lat="43.67352875546058" lon="12.4470175848092"><ele>341.0</ele><time>2026-04-04T14:27:18Z</time></trkpt><trkpt lat="43.673555729204985" lon="12.447281466663206"><ele>340.0</ele><time>2026-04-04T14:27:19Z</time></trkpt><trkpt lat="43.67358562010248" lon="12.44754561541122"><ele>339.0</ele><time>2026-04-04T14:27:20Z</time></trkpt><trkpt lat="43.67361574907845" lon="12.447809418890785"><ele>338.0</ele><time>2026-04-04T14:27:21Z</time></trkpt><trkpt lat="43.6736424079905" lon="12.448068406266312"><ele>342.6666666666667</ele><time>2026-04-04T14:27:22Z</time></trkpt><trkpt lat="43.67366776088871" lon="12.44832741990912"><ele>347.3333333333333</ele><time>2026-04-04T14:27:23Z</time></trkpt><trkpt lat="43.67369293971191" lon="12.448586132118717"><ele>352.0</ele><time>2026-04-04T14:27:24Z</time></trkpt><trkpt lat="43.6737224550017" lon="12.448842034173568"><ele>352.0</ele><time>2026-04-04T14:27:25Z</time></trkpt><trkpt lat="43.673744949363645" lon="12.449095339438982"><ele>352.0</ele><time>2026-04-04T14:27:26Z</time></trkpt><trkpt lat="43.673756873615915" lon="12.449362368402564"><ele>352.0</ele><time>2026-04-04T14:27:27Z</time></trkpt><trkpt lat="43.67372938016034" lon="12.449614922664306"><ele>351.3333333333333</ele><time>2026-04-04T14:27:28Z</time></trkpt><trkpt lat="43.67369987474876" lon="12.449882651028462"><ele>350.6666666666667</ele><time>2026-04-04T14:27:29Z</time></trkpt><trkpt lat="43.67366792811175" lon="12.450117030052057"><ele>350.0</ele><time>2026-04-04T14:27:30Z</time></trkpt><trkpt lat="43.67363084825149" lon="12.450371370699019"><ele>345.33333333333337</ele><time>2026-04-04T14:27:31Z</time></trkpt><trkpt lat="43.673595535438395" lon="12.450613590682359"><ele>340.6666666666667</ele><time>2026-04-04T14:27:32Z</time></trkpt><trkpt lat="43.67355975664039" lon="12.45085001199164"><ele>336.0</ele><time>2026-04-04T14:27:33Z</time></trkpt><trkpt lat="43.67352736024802" lon="12.451093786269881"><ele>335.6666666666667</ele><time>2026-04-04T14:27:34Z</time></trkpt><trkpt lat="43.67351594095261" lon="12.451329835960488"><ele>335.33333333333337</ele><time>2026-04-04T14:27:35Z</time></trkpt><trkpt lat="43.67353063934169" lon="12.451577809593129"><ele>335.0</ele><time>2026-04-04T14:27:36Z</time></trkpt><trkpt lat="43.67355845368047" lon="12.451836054965664"><ele>335.0</ele><time>2026-04-04T14:27:37.001Z</time></trkpt><trkpt lat="43.673588255047775" lon="12.452081217199556"><ele>335.0</ele><time>2026-04-04T14:27:38.001Z</time></trkpt><trkpt lat="43.67361633266687" lon="12.452331057843457"><ele>335.0</ele><time>2026-04-04T14:27:39.001Z</time></trkpt><trkpt lat="43.67364695908773" lon="12.452583159750768"><ele>336.0</ele><time>2026-04-04T14:27:40.001Z</time></trkpt><trkpt lat="43.67368758613307" lon="12.452826178050461"><ele>337.0</ele><time>2026-04-04T14:27:41.001Z</time></trkpt><trkpt lat="43.67374205649101" lon="12.453065727479142"><ele>338.0</ele><time>2026-04-04T14:27:42.001Z</time></trkpt><trkpt lat="43.67381358556392" lon="12.453299692288656"><ele>336.0</ele><time>2026-04-04T14:27:43.001Z</time></trkpt><trkpt lat="43.67388870202279" lon="12.453530841030412"><ele>334.0</ele><time>2026-04-04T14:27:44.001Z</time></trkpt><trkpt lat="43.67396408594503" lon="12.453762812823923"><ele>332.0</ele><time>2026-04-04T14:27:45.001Z</time></trkpt><trkpt lat="43.674037813743325" lon="12.453989688349399"><ele>330.6666666666667</ele><time>2026-04-04T14:27:46.001Z</time></trkpt><trkpt lat="43.67411125234049" lon="12.454215673971547"><ele>329.3333333333333</ele><time>2026-04-04T14:27:47.001Z</time></trkpt><trkpt lat="43.674185780478076" lon="12.45444501235426"><ele>328.0</ele><time>2026-04-04T14:27:48.001Z</time></trkpt><trkpt lat="43.67425967407331" lon="12.454673705352281"><ele>328.0</ele><time>2026-04-04T14:27:49.001Z</time></trkpt><trkpt lat="43.674333471927014" lon="12.454902564025227"><ele>328.0</ele><time>2026-04-04T14:27:50.001Z</time></trkpt><trkpt lat="43.67440650305225" lon="12.45512904494189"><ele>328.0</ele><time>2026-04-04T14:27:51.001Z</time></trkpt><trkpt lat="43.67447887836299" lon="12.455353492075789"><ele>327.66666666666663</ele><time>2026-04-04T14:27:52.001Z</time></trkpt><trkpt lat="43.67455097090031" lon="12.455576226807855"><ele>327.3333333333333</ele><time>2026-04-04T14:27:53.001Z</time></trkpt><trkpt lat="43.67462286371359" lon="12.455797435466435"><ele>327.0</ele><time>2026-04-04T14:27:54.001Z</time></trkpt><trkpt lat="43.674693027429946" lon="12.456014002001908"><ele>327.0</ele><time>2026-04-04T14:27:55.001Z</time></trkpt><trkpt lat="43.67476277137367" lon="12.456230127841415"><ele>327.0</ele><time>2026-04-04T14:27:56.001Z</time></trkpt><trkpt lat="43.674832687549966" lon="12.456446787662806"><ele>327.0</ele><time>2026-04-04T14:27:57.001Z</time></trkpt><trkpt lat="43.67491898565273" lon="12.456649222864424"><ele>326.0</ele><time>2026-04-04T14:27:58.001Z</time></trkpt><trkpt lat="43.674983177819804" lon="12.456863973221521"><ele>325.0</ele><time>2026-04-04T14:27:59.001Z</time></trkpt><trkpt lat="43.67505015923973" lon="12.457073791566636"><ele>324.0</ele><time>2026-04-04T14:28:00.001Z</time></trkpt><trkpt lat="43.675116420381755" lon="12.457283175499736"><ele>324.0</ele><time>2026-04-04T14:28:01.001Z</time></trkpt><trkpt lat="43.67516855253943" lon="12.457499417832114"><ele>324.0</ele><time>2026-04-04T14:28:02.001Z</time></trkpt><trkpt lat="43.67524207169558" lon="12.457692744161635"><ele>324.0</ele><time>2026-04-04T14:28:03.001Z</time></trkpt><trkpt lat="43.67531045605562" lon="12.45789394882068"><ele>323.6666666666667</ele><time>2026-04-04T14:28:04.001Z</time></trkpt><trkpt lat="43.675375728038595" lon="12.458097472058947"><ele>323.33333333333337</ele><time>2026-04-04T14:28:05.001Z</time></trkpt><trkpt lat="43.6754418456008" lon="12.4583014500633"><ele>323.0</ele><time>2026-04-04T14:28:06.001Z</time></trkpt><trkpt lat="43.67550731010496" lon="12.458501681861055"><ele>323.0</ele><time>2026-04-04T14:28:07.001Z</time></trkpt><trkpt lat="43.67557354223611" lon="12.4587101588055"><ele>323.0</ele><time>2026-04-04T14:28:08.001Z</time></trkpt><trkpt lat="43.67562276986263" lon="12.458927204825269"><ele>323.0</ele><time>2026-04-04T14:28:09.001Z</time></trkpt><trkpt lat="43.67568779807839" lon="12.459136117119549"><ele>323.0</ele><time>2026-04-04T14:28:10.001Z</time></trkpt><trkpt lat="43.67575279450092" lon="12.459345814520157"><ele>323.0</ele><time>2026-04-04T14:28:11.001Z</time></trkpt><trkpt lat="43.67582076136176" lon="12.459550014914269"><ele>323.0</ele><time>2026-04-04T14:28:12.001Z</time></trkpt><trkpt lat="43.675889747973635" lon="12.459754572715246"><ele>322.6666666666667</ele><time>2026-04-04T14:28:13.001Z</time></trkpt><trkpt lat="43.67595657260615" lon="12.459962326420046"><ele>322.3333333333333</ele><time>2026-04-04T14:28:14.001Z</time></trkpt><trkpt lat="43.676023961950335" lon="12.46017255363424"><ele>322.0</ele><time>2026-04-04T14:28:15.001Z</time></trkpt><trkpt lat="43.67606066120366" lon="12.46038196814414"><ele>322.3333333333333</ele><time>2026-04-04T14:28:16.001Z</time></trkpt><trkpt lat="43.67609437358831" lon="12.460602365399758"><ele>322.6666666666667</ele><time>2026-04-04T14:28:17.001Z</time></trkpt><trkpt lat="43.676127093406556" lon="12.460816218044664"><ele>323.0</ele><time>2026-04-04T14:28:18.001Z</time></trkpt><trkpt lat="43.67616085534307" lon="12.461042112056582"><ele>322.6666666666667</ele><time>2026-04-04T14:28:19.001Z</time></trkpt><trkpt lat="43.67619430471566" lon="12.461265914712321"><ele>322.3333333333333</ele><time>2026-04-04T14:28:20.001Z</time></trkpt><trkpt lat="43.6762304370325" lon="12.461494571321044"><ele>322.0</ele><time>2026-04-04T14:28:21.001Z</time></trkpt><trkpt lat="43.67626828436552" lon="12.461726135603026"><ele>322.0</ele><time>2026-04-04T14:28:22.001Z</time></trkpt><trkpt lat="43.67631106503818" lon="12.46195799547899"><ele>322.0</ele><time>2026-04-04T14:28:23.001Z</time></trkpt><trkpt lat="43.67638630715501" lon="12.462169074915758"><ele>322.0</ele><time>2026-04-04T14:28:24.001Z</time></trkpt><trkpt lat="43.67645516860439" lon="12.462387055148579"><ele>321.66666666666663</ele><time>2026-04-04T14:28:25.001Z</time></trkpt><trkpt lat="43.67653006549709" lon="12.462597627286739"><ele>321.3333333333333</ele><time>2026-04-04T14:28:26.001Z</time></trkpt><trkpt lat="43.67661010287287" lon="12.462810787951675"><ele>321.0</ele><time>2026-04-04T14:28:27.001Z</time></trkpt><trkpt lat="43.67667911179134" lon="12.463011394208907"><ele>320.6666666666667</ele><time>2026-04-04T14:28:28.001Z</time></trkpt><trkpt lat="43.67675515631954" lon="12.463218407300678"><ele>320.33333333333337</ele><time>2026-04-04T14:28:29.001Z</time></trkpt><trkpt lat="43.676811142368656" lon="12.463434919129277"><ele>320.0</ele><time>2026-04-04T14:28:30.001Z</time></trkpt><trkpt lat="43.676881012929215" lon="12.463639044547195"><ele>319.6666666666667</ele><time>2026-04-04T14:28:31.001Z</time></trkpt><trkpt lat="43.676951996113004" lon="12.463846420510166"><ele>319.3333333333333</ele><time>2026-04-04T14:28:32.001Z</time></trkpt><trkpt lat="43.67704001509328" lon="12.464049449554247"><ele>319.0</ele><time>2026-04-04T14:28:33.001Z</time></trkpt><trkpt lat="43.677108720653855" lon="12.464256105811097"><ele>319.0</ele><time>2026-04-04T14:28:34.001Z</time></trkpt><trkpt lat="43.67718152646074" lon="12.464459857895434"><ele>319.0</ele><time>2026-04-04T14:28:35.001Z</time></trkpt><trkpt lat="43.67725171278425" lon="12.464662391535075"><ele>319.0</ele><time>2026-04-04T14:28:36.001Z</time></trkpt><trkpt lat="43.67732087110391" lon="12.464864220882072"><ele>319.3333333333333</ele><time>2026-04-04T14:28:37.001Z</time></trkpt><trkpt lat="43.67739047494946" lon="12.465067666049054"><ele>319.6666666666667</ele><time>2026-04-04T14:28:38.001Z</time></trkpt><trkpt lat="43.67746023407104" lon="12.465268492563666"><ele>320.0</ele><time>2026-04-04T14:28:39.001Z</time></trkpt><trkpt lat="43.677531379287316" lon="12.465472187419666"><ele>319.33333333333337</ele><time>2026-04-04T14:28:40.001Z</time></trkpt><trkpt lat="43.67760260713604" lon="12.465675107870336"><ele>318.6666666666667</ele><time>2026-04-04T14:28:41.001Z</time></trkpt><trkpt lat="43.67767362390314" lon="12.4658793061295"><ele>318.0</ele><time>2026-04-04T14:28:42.002Z</time></trkpt><trkpt lat="43.67774319872266" lon="12.46608430846934"><ele>317.0</ele><time>2026-04-04T14:28:43.002Z</time></trkpt><trkpt lat="43.677813265716104" lon="12.466291401502886"><ele>316.0</ele><time>2026-04-04T14:28:44.002Z</time></trkpt><trkpt lat="43.67788263976612" lon="12.466498754025897"><ele>315.0</ele><time>2026-04-04T14:28:45.002Z</time></trkpt><trkpt lat="43.67794984941997" lon="12.466704761787318"><ele>315.0</ele><time>2026-04-04T14:28:46.002Z</time></trkpt><trkpt lat="43.67800435948128" lon="12.466908804205957"><ele>315.0</ele><time>2026-04-04T14:28:47.002Z</time></trkpt><trkpt lat="43.6780578392777" lon="12.46711877263956"><ele>315.0</ele><time>2026-04-04T14:28:48.002Z</time></trkpt><trkpt lat="43.67809699726688" lon="12.467327754785902"><ele>314.3333333333333</ele><time>2026-04-04T14:28:49.002Z</time></trkpt><trkpt lat="43.6781215316113" lon="12.467537458325152"><ele>313.66666666666663</ele><time>2026-04-04T14:28:50.002Z</time></trkpt><trkpt lat="43.67813980638593" lon="12.467748117530439"><ele>313.0</ele><time>2026-04-04T14:28:51.002Z</time></trkpt><trkpt lat="43.678144206355995" lon="12.467961505090981"><ele>312.0</ele><time>2026-04-04T14:28:52.002Z</time></trkpt><trkpt lat="43.678143137193985" lon="12.46817636059442"><ele>311.0</ele><time>2026-04-04T14:28:53Z</time></trkpt><trkpt lat="43.67812685345216" lon="12.468392171412816"><ele>310.0</ele><time>2026-04-04T14:28:54Z</time></trkpt><trkpt lat="43.67809485036022" lon="12.468605029909522"><ele>307.3333333333333</ele><time>2026-04-04T14:28:55Z</time></trkpt><trkpt lat="43.678039196320945" lon="12.468811774931275"><ele>304.6666666666667</ele><time>2026-04-04T14:28:56Z</time></trkpt><trkpt lat="43.67798999461268" lon="12.469012871103297"><ele>302.0</ele><time>2026-04-04T14:28:57Z</time></trkpt><trkpt lat="43.67793282367909" lon="12.469217727901025"><ele>302.0</ele><time>2026-04-04T14:28:58Z</time></trkpt><trkpt lat="43.6778721271887" lon="12.469426187945436"><ele>302.0</ele><time>2026-04-04T14:28:59Z</time></trkpt><trkpt lat="43.67781220286247" lon="12.469627599999317"><ele>302.0</ele><time>2026-04-04T14:29:00Z</time></trkpt><trkpt lat="43.677754563575505" lon="12.469827882274124"><ele>302.0</ele><time>2026-04-04T14:29:01Z</time></trkpt><trkpt lat="43.677700728287085" lon="12.470028568384839"><ele>302.0</ele><time>2026-04-04T14:29:02Z</time></trkpt><trkpt lat="43.67765145882247" lon="12.470237137653601"><ele>302.0</ele><time>2026-04-04T14:29:03Z</time></trkpt><trkpt lat="43.67761686304788" lon="12.470451618972161"><ele>304.0</ele><time>2026-04-04T14:29:04Z</time></trkpt><trkpt lat="43.67761715812876" lon="12.470668698340566"><ele>306.0</ele><time>2026-04-04T14:29:05Z</time></trkpt><trkpt lat="43.67762360492317" lon="12.470889517607697"><ele>308.0</ele><time>2026-04-04T14:29:06Z</time></trkpt><trkpt lat="43.67761117617303" lon="12.471106818273961"><ele>308.6666666666667</ele><time>2026-04-04T14:29:07Z</time></trkpt><trkpt lat="43.677616198998905" lon="12.471332840773144"><ele>309.3333333333333</ele><time>2026-04-04T14:29:08Z</time></trkpt><trkpt lat="43.67762191801128" lon="12.471547918407298"><ele>310.0</ele><time>2026-04-04T14:29:09Z</time></trkpt><trkpt lat="43.67762724741843" lon="12.471756598961882"><ele>310.0</ele><time>2026-04-04T14:29:10Z</time></trkpt><trkpt lat="43.67763287416997" lon="12.471983757250792"><ele>310.0</ele><time>2026-04-04T14:29:11Z</time></trkpt><trkpt lat="43.677638134996876" lon="12.472209259747254"><ele>310.0</ele><time>2026-04-04T14:29:12Z</time></trkpt><trkpt lat="43.67764324863906" lon="12.472431765556838"><ele>310.3333333333333</ele><time>2026-04-04T14:29:13Z</time></trkpt><trkpt lat="43.6776484469635" lon="12.472657956030607"><ele>310.6666666666667</ele><time>2026-04-04T14:29:14Z</time></trkpt><trkpt lat="43.677653396911445" lon="12.472882204690576"><ele>311.0</ele><time>2026-04-04T14:29:15Z</time></trkpt><trkpt lat="43.67765816172431" lon="12.473103432168164"><ele>311.0</ele><time>2026-04-04T14:29:16Z</time></trkpt><trkpt lat="43.677662975723905" lon="12.473326943408924"><ele>311.0</ele><time>2026-04-04T14:29:17Z</time></trkpt><trkpt lat="43.677667925934095" lon="12.473556778687225"><ele>311.0</ele><time>2026-04-04T14:29:18Z</time></trkpt><trkpt lat="43.67767286221805" lon="12.473785967487192"><ele>311.0</ele><time>2026-04-04T14:29:19Z</time></trkpt><trkpt lat="43.677677979699645" lon="12.474023569176547"><ele>311.0</ele><time>2026-04-04T14:29:20Z</time></trkpt><trkpt lat="43.67768309467541" lon="12.47426105445529"><ele>311.0</ele><time>2026-04-04T14:29:21Z</time></trkpt><trkpt lat="43.677688340731436" lon="12.474503018286022"><ele>311.33333333333337</ele><time>2026-04-04T14:29:22Z</time></trkpt><trkpt lat="43.67769360871484" lon="12.474745481758154"><ele>311.6666666666667</ele><time>2026-04-04T14:29:23Z</time></trkpt><trkpt lat="43.67769887589071" lon="12.47498217372797"><ele>312.0</ele><time>2026-04-04T14:29:24Z</time></trkpt><trkpt lat="43.67770433019872" lon="12.47522249460432"><ele>311.3333333333333</ele><time>2026-04-04T14:29:25Z</time></trkpt><trkpt lat="43.67770979305896" lon="12.475463192323314"><ele>310.66666666666663</ele><time>2026-04-04T14:29:26Z</time></trkpt><trkpt lat="43.67771534136847" lon="12.475707655019166"><ele>310.0</ele><time>2026-04-04T14:29:27Z</time></trkpt><trkpt lat="43.677746533608264" lon="12.47594707526361"><ele>310.0</ele><time>2026-04-04T14:29:28Z</time></trkpt><trkpt lat="43.677751585000756" lon="12.47618836332178"><ele>310.0</ele><time>2026-04-04T14:29:29Z</time></trkpt><trkpt lat="43.67775802119323" lon="12.47643493715969"><ele>310.0</ele><time>2026-04-04T14:29:30Z</time></trkpt><trkpt lat="43.67776693210293" lon="12.476684616838277"><ele>310.0</ele><time>2026-04-04T14:29:31Z</time></trkpt><trkpt lat="43.67774508931975" lon="12.476939213415301"><ele>310.0</ele><time>2026-04-04T14:29:32Z</time></trkpt><trkpt lat="43.67775151793648" lon="12.477184735471909"><ele>310.0</ele><time>2026-04-04T14:29:33Z</time></trkpt><trkpt lat="43.67775822100291" lon="12.477435262599357"><ele>309.3333333333333</ele><time>2026-04-04T14:29:34Z</time></trkpt><trkpt lat="43.67776499063357" lon="12.47767774552358"><ele>308.6666666666667</ele><time>2026-04-04T14:29:35Z</time></trkpt><trkpt lat="43.677772161849525" lon="12.47793044552264"><ele>308.0</ele><time>2026-04-04T14:29:36Z</time></trkpt><trkpt lat="43.67777871312904" lon="12.478180343743999"><ele>307.33333333333337</ele><time>2026-04-04T14:29:37Z</time></trkpt><trkpt lat="43.67779800343312" lon="12.47843439292323"><ele>306.6666666666667</ele><time>2026-04-04T14:29:38.001Z</time></trkpt><trkpt lat="43.677802758201246" lon="12.478694494124653"><ele>306.0</ele><time>2026-04-04T14:29:39.001Z</time></trkpt><trkpt lat="43.67780966069185" lon="12.47895353604721"><ele>306.0</ele><time>2026-04-04T14:29:40.001Z</time></trkpt><trkpt lat="43.677816435674146" lon="12.47921389054715"><ele>306.0</ele><time>2026-04-04T14:29:41.001Z</time></trkpt><trkpt lat="43.67782447069113" lon="12.479472811238649"><ele>306.0</ele><time>2026-04-04T14:29:42.001Z</time></trkpt><trkpt lat="43.67782990202479" lon="12.479736944981362"><ele>306.3333333333333</ele><time>2026-04-04T14:29:43.001Z</time></trkpt><trkpt lat="43.6778361143118" lon="12.479998595163721"><ele>306.66666666666663</ele><time>2026-04-04T14:29:44.001Z</time></trkpt><trkpt lat="43.67783953750123" lon="12.48025636932221"><ele>307.0</ele><time>2026-04-04T14:29:45.001Z</time></trkpt><trkpt lat="43.677845131626626" lon="12.480517567852136"><ele>307.3333333333333</ele><time>2026-04-04T14:29:46.001Z</time></trkpt><trkpt lat="43.67785303293985" lon="12.480778824153417"><ele>307.6666666666667</ele><time>2026-04-04T14:29:47.001Z</time></trkpt><trkpt lat="43.677871460785724" lon="12.481039640545822"><ele>308.0</ele><time>2026-04-04T14:29:48.001Z</time></trkpt><trkpt lat="43.67790985549122" lon="12.481289611599797"><ele>308.33333333333337</ele><time>2026-04-04T14:29:49.001Z</time></trkpt><trkpt lat="43.67796658897509" lon="12.481541965269832"><ele>308.6666666666667</ele><time>2026-04-04T14:29:50.001Z</time></trkpt><trkpt lat="43.67803295740936" lon="12.481785334565519"><ele>309.0</ele><time>2026-04-04T14:29:51.001Z</time></trkpt><trkpt lat="43.67810678204953" lon="12.482023389568125"><ele>308.6666666666667</ele><time>2026-04-04T14:29:52.001Z</time></trkpt><trkpt lat="43.678165233120176" lon="12.482275517378799"><ele>308.33333333333337</ele><time>2026-04-04T14:29:53.001Z</time></trkpt><trkpt lat="43.6782376336071" lon="12.482518629369588"><ele>308.0</ele><time>2026-04-04T14:29:54.001Z</time></trkpt><trkpt lat="43.67831344972006" lon="12.482771258659694"><ele>307.33333333333337</ele><time>2026-04-04T14:29:55.001Z</time></trkpt><trkpt lat="43.67838861944629" lon="12.483021829366814"><ele>306.6666666666667</ele><time>2026-04-04T14:29:56.001Z</time></trkpt><trkpt lat="43.67846139844379" lon="12.483264430852953"><ele>306.0</ele><time>2026-04-04T14:29:57.001Z</time></trkpt><trkpt lat="43.678533500871815" lon="12.48350477704173"><ele>306.0</ele><time>2026-04-04T14:29:58.001Z</time></trkpt><trkpt lat="43.678609043628924" lon="12.483756591192629"><ele>306.0</ele><time>2026-04-04T14:29:59.001Z</time></trkpt><trkpt lat="43.678682465331434" lon="12.484001335061695"><ele>306.0</ele><time>2026-04-04T14:30:00.001Z</time></trkpt><trkpt lat="43.67877151625621" lon="12.484242403657767"><ele>306.0</ele><time>2026-04-04T14:30:01.001Z</time></trkpt><trkpt lat="43.678845034843405" lon="12.48449304461704"><ele>306.0</ele><time>2026-04-04T14:30:02.001Z</time></trkpt><trkpt lat="43.678913317055155" lon="12.48474780121752"><ele>306.0</ele><time>2026-04-04T14:30:03.001Z</time></trkpt><trkpt lat="43.67895179094148" lon="12.485012533832943"><ele>306.0</ele><time>2026-04-04T14:30:04.001Z</time></trkpt><trkpt lat="43.678991179140404" lon="12.48527621273462"><ele>306.0</ele><time>2026-04-04T14:30:05.001Z</time></trkpt><trkpt lat="43.679033491046596" lon="12.485537597133373"><ele>306.0</ele><time>2026-04-04T14:30:06.001Z</time></trkpt><trkpt lat="43.679043415291645" lon="12.485807639057018"><ele>305.6666666666667</ele><time>2026-04-04T14:30:07.001Z</time></trkpt><trkpt lat="43.67902304608225" lon="12.48607554317044"><ele>305.33333333333337</ele><time>2026-04-04T14:30:08.001Z</time></trkpt><trkpt lat="43.679003201882296" lon="12.48633909716737"><ele>305.0</ele><time>2026-04-04T14:30:09.001Z</time></trkpt><trkpt lat="43.678988734005365" lon="12.486611718443475"><ele>305.0</ele><time>2026-04-04T14:30:10.001Z</time></trkpt><trkpt lat="43.6789572450349" lon="12.486879561044974"><ele>305.0</ele><time>2026-04-04T14:30:11.001Z</time></trkpt><trkpt lat="43.67892814066632" lon="12.48715035464019"><ele>305.0</ele><time>2026-04-04T14:30:12.001Z</time></trkpt><trkpt lat="43.67889608415797" lon="12.487415870604586"><ele>305.0</ele><time>2026-04-04T14:30:13.001Z</time></trkpt><trkpt lat="43.67884860164637" lon="12.487691488686133"><ele>305.0</ele><time>2026-04-04T14:30:14.001Z</time></trkpt><trkpt lat="43.67881748110887" lon="12.487955411914314"><ele>305.0</ele><time>2026-04-04T14:30:15.001Z</time></trkpt><trkpt lat="43.6787866850027" lon="12.488216583763377"><ele>305.0</ele><time>2026-04-04T14:30:16.001Z</time></trkpt><trkpt lat="43.678756565188465" lon="12.488476058604661"><ele>305.0</ele><time>2026-04-04T14:30:17.001Z</time></trkpt><trkpt lat="43.67872866671321" lon="12.488718814876227"><ele>305.0</ele><time>2026-04-04T14:30:18.001Z</time></trkpt><trkpt lat="43.678716735410944" lon="12.488966177072763"><ele>303.6666666666667</ele><time>2026-04-04T14:30:19.001Z</time></trkpt><trkpt lat="43.6786891876942" lon="12.489197411388817"><ele>302.3333333333333</ele><time>2026-04-04T14:30:20.001Z</time></trkpt><trkpt lat="43.67866180603495" lon="12.48942569354868"><ele>301.0</ele><time>2026-04-04T14:30:21.001Z</time></trkpt><trkpt lat="43.678635969176504" lon="12.489649686458282"><ele>300.3333333333333</ele><time>2026-04-04T14:30:22.001Z</time></trkpt><trkpt lat="43.678610008067714" lon="12.489870766904223"><ele>299.6666666666667</ele><time>2026-04-04T14:30:23.001Z</time></trkpt><trkpt lat="43.678583468641" lon="12.490093496698739"><ele>299.0</ele><time>2026-04-04T14:30:24.001Z</time></trkpt><trkpt lat="43.678558213636656" lon="12.490315253387195"><ele>299.6666666666667</ele><time>2026-04-04T14:30:25.001Z</time></trkpt><trkpt lat="43.678532301879315" lon="12.49053509493959"><ele>300.3333333333333</ele><time>2026-04-04T14:30:26.001Z</time></trkpt><trkpt lat="43.67851119562522" lon="12.490751036066184"><ele>301.0</ele><time>2026-04-04T14:30:27.001Z</time></trkpt><trkpt lat="43.678483706262504" lon="12.49096811313453"><ele>301.0</ele><time>2026-04-04T14:30:28.001Z</time></trkpt><trkpt lat="43.67845653348966" lon="12.491186293792161"><ele>301.0</ele><time>2026-04-04T14:30:29.001Z</time></trkpt><trkpt lat="43.678430751972776" lon="12.491406843878147"><ele>301.0</ele><time>2026-04-04T14:30:30.001Z</time></trkpt><trkpt lat="43.678406363681184" lon="12.491627680154846"><ele>302.0</ele><time>2026-04-04T14:30:31.001Z</time></trkpt><trkpt lat="43.67838487425342" lon="12.491851234748308"><ele>303.0</ele><time>2026-04-04T14:30:32.001Z</time></trkpt><trkpt lat="43.6783440076715" lon="12.492068032066246"><ele>304.0</ele><time>2026-04-04T14:30:33.001Z</time></trkpt><trkpt lat="43.67833460862668" lon="12.492286517525024"><ele>304.0</ele><time>2026-04-04T14:30:34.001Z</time></trkpt><trkpt lat="43.678307819706355" lon="12.492508802425844"><ele>304.0</ele><time>2026-04-04T14:30:35.001Z</time></trkpt><trkpt lat="43.67828309727877" lon="12.492738894851596"><ele>304.0</ele><time>2026-04-04T14:30:36.001Z</time></trkpt><trkpt lat="43.678253649601494" lon="12.492964842179328"><ele>303.66666666666663</ele><time>2026-04-04T14:30:37.001Z</time></trkpt><trkpt lat="43.67822859965875" lon="12.49319667068282"><ele>303.3333333333333</ele><time>2026-04-04T14:30:38.001Z</time></trkpt><trkpt lat="43.678202262674084" lon="12.493428124920761"><ele>303.0</ele><time>2026-04-04T14:30:39.001Z</time></trkpt><trkpt lat="43.67817454437096" lon="12.493657705629603"><ele>303.6666666666667</ele><time>2026-04-04T14:30:40.001Z</time></trkpt><trkpt lat="43.67814873991249" lon="12.49388983842286"><ele>304.33333333333337</ele><time>2026-04-04T14:30:41.001Z</time></trkpt><trkpt lat="43.67812006971257" lon="12.494130382095726"><ele>305.0</ele><time>2026-04-04T14:30:42.001Z</time></trkpt><trkpt lat="43.67808987343263" lon="12.494369290561638"><ele>305.6666666666667</ele><time>2026-04-04T14:30:43.001Z</time></trkpt><trkpt lat="43.678060834616204" lon="12.494610604508166"><ele>306.3333333333333</ele><time>2026-04-04T14:30:44.002Z</time></trkpt><trkpt lat="43.67803271364353" lon="12.494850521917764"><ele>307.0</ele><time>2026-04-04T14:30:45.002Z</time></trkpt><trkpt lat="43.67799963906987" lon="12.4950872187689"><ele>307.0</ele><time>2026-04-04T14:30:46.002Z</time></trkpt><trkpt lat="43.67797191734793" lon="12.495318397502684"><ele>307.0</ele><time>2026-04-04T14:30:47.002Z</time></trkpt><trkpt lat="43.67794297740938" lon="12.495551288635701"><ele>307.0</ele><time>2026-04-04T14:30:48.002Z</time></trkpt><trkpt lat="43.67791429632698" lon="12.495782010569808"><ele>306.3333333333333</ele><time>2026-04-04T14:30:49.002Z</time></trkpt><trkpt lat="43.67788689590417" lon="12.4960116682562"><ele>305.6666666666667</ele><time>2026-04-04T14:30:50.002Z</time></trkpt><trkpt lat="43.6778598651574" lon="12.49623947405849"><ele>305.0</ele><time>2026-04-04T14:30:51.002Z</time></trkpt><trkpt lat="43.67783126036879" lon="12.49646667391416"><ele>305.0</ele><time>2026-04-04T14:30:52.002Z</time></trkpt><trkpt lat="43.67780351551781" lon="12.496694029848696"><ele>305.0</ele><time>2026-04-04T14:30:53.002Z</time></trkpt><trkpt lat="43.67777621762431" lon="12.49691985080832"><ele>305.0</ele><time>2026-04-04T14:30:54.002Z</time></trkpt><trkpt lat="43.67774596152696" lon="12.497143254658384"><ele>306.6666666666667</ele><time>2026-04-04T14:30:55.002Z</time></trkpt><trkpt lat="43.67771033783492" lon="12.497370474381611"><ele>308.3333333333333</ele><time>2026-04-04T14:30:56.002Z</time></trkpt><trkpt lat="43.67767944393655" lon="12.49759960505616"><ele>310.0</ele><time>2026-04-04T14:30:57.002Z</time></trkpt><trkpt lat="43.6776479855827" lon="12.497827195290022"><ele>309.66666666666663</ele><time>2026-04-04T14:30:58.002Z</time></trkpt><trkpt lat="43.67761538217472" lon="12.498052803829346"><ele>309.3333333333333</ele><time>2026-04-04T14:30:59Z</time></trkpt><trkpt lat="43.677579384767434" lon="12.498278613573921"><ele>309.0</ele><time>2026-04-04T14:31:00Z</time></trkpt><trkpt lat="43.67753739619617" lon="12.498507633756159"><ele>309.0</ele><time>2026-04-04T14:31:01Z</time></trkpt><trkpt lat="43.67747079756008" lon="12.498733775040321"><ele>309.0</ele><time>2026-04-04T14:31:02Z</time></trkpt><trkpt lat="43.677379079611335" lon="12.498941446582577"><ele>309.0</ele><time>2026-04-04T14:31:03Z</time></trkpt><trkpt lat="43.67727511240454" lon="12.499132057103807"><ele>309.0</ele><time>2026-04-04T14:31:04Z</time></trkpt><trkpt lat="43.67716183935869" lon="12.499319331130856"><ele>309.0</ele><time>2026-04-04T14:31:05Z</time></trkpt><trkpt lat="43.677044636635664" lon="12.499502520382856"><ele>309.0</ele><time>2026-04-04T14:31:06Z</time></trkpt><trkpt lat="43.67692900526186" lon="12.499689664474118"><ele>309.0</ele><time>2026-04-04T14:31:07Z</time></trkpt><trkpt lat="43.676817761894974" lon="12.499879046552495"><ele>309.0</ele><time>2026-04-04T14:31:08Z</time></trkpt><trkpt lat="43.67670599371925" lon="12.500068840997582"><ele>309.0</ele><time>2026-04-04T14:31:09Z</time></trkpt><trkpt lat="43.67659787466588" lon="12.500263939761323"><ele>306.6666666666667</ele><time>2026-04-04T14:31:10Z</time></trkpt><trkpt lat="43.67650387674693" lon="12.50046967671916"><ele>304.33333333333337</ele><time>2026-04-04T14:31:11Z</time></trkpt><trkpt lat="43.676435601428764" lon="12.500689540739533"><ele>302.0</ele><time>2026-04-04T14:31:12Z</time></trkpt><trkpt lat="43.676390972961144" lon="12.500925361779627"><ele>302.0</ele><time>2026-04-04T14:31:13Z</time></trkpt><trkpt lat="43.67636148184499" lon="12.501175913324508"><ele>302.0</ele><time>2026-04-04T14:31:14Z</time></trkpt><trkpt lat="43.67632945882166" lon="12.501430462512317"><ele>302.0</ele><time>2026-04-04T14:31:15Z</time></trkpt><trkpt lat="43.67632192066147" lon="12.501686553355963"><ele>300.33333333333337</ele><time>2026-04-04T14:31:16Z</time></trkpt><trkpt lat="43.67629829041994" lon="12.501941109826982"><ele>298.6666666666667</ele><time>2026-04-04T14:31:17Z</time></trkpt><trkpt lat="43.67628108293993" lon="12.502199192547822"><ele>297.0</ele><time>2026-04-04T14:31:18Z</time></trkpt><trkpt lat="43.67627224125885" lon="12.502445944406007"><ele>296.3333333333333</ele><time>2026-04-04T14:31:19Z</time></trkpt><trkpt lat="43.676278155826765" lon="12.5026985593159"><ele>295.66666666666663</ele><time>2026-04-04T14:31:20Z</time></trkpt><trkpt lat="43.67630058834859" lon="12.502944345395331"><ele>295.0</ele><time>2026-04-04T14:31:21Z</time></trkpt><trkpt lat="43.67633376778649" lon="12.503190855221305"><ele>296.3333333333333</ele><time>2026-04-04T14:31:22Z</time></trkpt><trkpt lat="43.67637366239193" lon="12.503435892706813"><ele>297.6666666666667</ele><time>2026-04-04T14:31:23Z</time></trkpt><trkpt lat="43.67641582351779" lon="12.503679646493012"><ele>299.0</ele><time>2026-04-04T14:31:24Z</time></trkpt><trkpt lat="43.67645857146792" lon="12.50392266089576"><ele>301.0</ele><time>2026-04-04T14:31:25Z</time></trkpt><trkpt lat="43.67650231512716" lon="12.504161199018972"><ele>303.0</ele><time>2026-04-04T14:31:26Z</time></trkpt><trkpt lat="43.67654726169805" lon="12.504401721986802"><ele>305.0</ele><time>2026-04-04T14:31:27Z</time></trkpt><trkpt lat="43.67658534468938" lon="12.504645369157691"><ele>305.0</ele><time>2026-04-04T14:31:28Z</time></trkpt><trkpt lat="43.67661229486146" lon="12.504895419979293"><ele>305.0</ele><time>2026-04-04T14:31:29Z</time></trkpt><trkpt lat="43.676626205609594" lon="12.505147426962155"><ele>305.0</ele><time>2026-04-04T14:31:30Z</time></trkpt><trkpt lat="43.676623167670655" lon="12.505403601703224"><ele>303.6666666666667</ele><time>2026-04-04T14:31:31Z</time></trkpt><trkpt lat="43.676609576108135" lon="12.505664116837421"><ele>302.3333333333333</ele><time>2026-04-04T14:31:32Z</time></trkpt><trkpt lat="43.676592754316715" lon="12.505922219285965"><ele>301.0</ele><time>2026-04-04T14:31:33Z</time></trkpt><trkpt lat="43.67657276191555" lon="12.506184533126616"><ele>300.3333333333333</ele><time>2026-04-04T14:31:34Z</time></trkpt><trkpt lat="43.67655597318232" lon="12.506446529039016"><ele>299.6666666666667</ele><time>2026-04-04T14:31:35Z</time></trkpt><trkpt lat="43.676540715382096" lon="12.50671039120667"><ele>299.0</ele><time>2026-04-04T14:31:36Z</time></trkpt><trkpt lat="43.67652583620039" lon="12.506973299509314"><ele>298.6666666666667</ele><time>2026-04-04T14:31:37Z</time></trkpt><trkpt lat="43.676509710208805" lon="12.507233154050452"><ele>298.3333333333333</ele><time>2026-04-04T14:31:38Z</time></trkpt><trkpt lat="43.67649713349169" lon="12.507492887958556"><ele>298.0</ele><time>2026-04-04T14:31:39Z</time></trkpt><trkpt lat="43.676499457022686" lon="12.507751308578948"><ele>298.3333333333333</ele><time>2026-04-04T14:31:40.001Z</time></trkpt><trkpt lat="43.67652047640693" lon="12.508007537503248"><ele>298.6666666666667</ele><time>2026-04-04T14:31:41.001Z</time></trkpt><trkpt lat="43.67656087610957" lon="12.508259106059645"><ele>299.0</ele><time>2026-04-04T14:31:42.001Z</time></trkpt><trkpt lat="43.67662002117455" lon="12.508503999115508"><ele>299.0</ele><time>2026-04-04T14:31:43.001Z</time></trkpt><trkpt lat="43.676693325102825" lon="12.508740770113308"><ele>299.0</ele><time>2026-04-04T14:31:44.001Z</time></trkpt><trkpt lat="43.676778638466644" lon="12.508970528897503"><ele>299.0</ele><time>2026-04-04T14:31:45.001Z</time></trkpt><trkpt lat="43.67686748126228" lon="12.50920176459967"><ele>297.33333333333337</ele><time>2026-04-04T14:31:46.001Z</time></trkpt><trkpt lat="43.67695762551772" lon="12.509432479057908"><ele>295.6666666666667</ele><time>2026-04-04T14:31:47.001Z</time></trkpt><trkpt lat="43.67704624303279" lon="12.509658794127272"><ele>294.0</ele><time>2026-04-04T14:31:48.001Z</time></trkpt><trkpt lat="43.67713571884854" lon="12.509886673944115"><ele>293.6666666666667</ele><time>2026-04-04T14:31:49.001Z</time></trkpt><trkpt lat="43.6772193387023" lon="12.510116946052086"><ele>293.33333333333337</ele><time>2026-04-04T14:31:50.001Z</time></trkpt><trkpt lat="43.677285599519" lon="12.510356071724166"><ele>293.0</ele><time>2026-04-04T14:31:51.001Z</time></trkpt><trkpt lat="43.677334639277454" lon="12.510605454957926"><ele>292.33333333333337</ele><time>2026-04-04T14:31:52.001Z</time></trkpt><trkpt lat="43.67736878408323" lon="12.510862113468967"><ele>291.6666666666667</ele><time>2026-04-04T14:31:53.001Z</time></trkpt><trkpt lat="43.67738535811305" lon="12.511121850937139"><ele>291.0</ele><time>2026-04-04T14:31:54.001Z</time></trkpt><trkpt lat="43.677381763331326" lon="12.511385506176195"><ele>290.6666666666667</ele><time>2026-04-04T14:31:55.001Z</time></trkpt><trkpt lat="43.67736016279483" lon="12.511647047814268"><ele>290.33333333333337</ele><time>2026-04-04T14:31:56.001Z</time></trkpt><trkpt lat="43.67732679537091" lon="12.51190217404185"><ele>290.0</ele><time>2026-04-04T14:31:57.001Z</time></trkpt><trkpt lat="43.67728865550459" lon="12.512151713385153"><ele>290.0</ele><time>2026-04-04T14:31:58.001Z</time></trkpt><trkpt lat="43.677239791605956" lon="12.512380205306822"><ele>290.0</ele><time>2026-04-04T14:31:59.001Z</time></trkpt><trkpt lat="43.67716816613992" lon="12.512592569044756"><ele>290.0</ele><time>2026-04-04T14:32:00.001Z</time></trkpt><trkpt lat="43.67706342328462" lon="12.51276403689894"><ele>287.6666666666667</ele><time>2026-04-04T14:32:01.001Z</time></trkpt><trkpt lat="43.67693136977843" lon="12.512872618939149"><ele>285.3333333333333</ele><time>2026-04-04T14:32:02.001Z</time></trkpt><trkpt lat="43.67677746763752" lon="12.512919255890262"><ele>283.0</ele><time>2026-04-04T14:32:03.001Z</time></trkpt><trkpt lat="43.6766120708959" lon="12.512917527843832"><ele>282.66666666666663</ele><time>2026-04-04T14:32:04.001Z</time></trkpt><trkpt lat="43.676448295584684" lon="12.512902407461068"><ele>282.3333333333333</ele><time>2026-04-04T14:32:05.001Z</time></trkpt><trkpt lat="43.67628766822958" lon="12.51288621583105"><ele>282.0</ele><time>2026-04-04T14:32:06.001Z</time></trkpt><trkpt lat="43.676128635826196" lon="12.512883609993805"><ele>282.0</ele><time>2026-04-04T14:32:07.001Z</time></trkpt><trkpt lat="43.67597374171963" lon="12.512899295200222"><ele>282.0</ele><time>2026-04-04T14:32:08.001Z</time></trkpt><trkpt lat="43.675829389711865" lon="12.51295641759244"><ele>282.0</ele><time>2026-04-04T14:32:09.001Z</time></trkpt><trkpt lat="43.675698377424865" lon="12.513054194072481"><ele>283.75</ele><time>2026-04-04T14:32:10.001Z</time></trkpt><trkpt lat="43.67558011947252" lon="12.513168502725094"><ele>285.5</ele><time>2026-04-04T14:32:11.001Z</time></trkpt><trkpt lat="43.67547125941228" lon="12.513282343137705"><ele>287.25</ele><time>2026-04-04T14:32:12.001Z</time></trkpt><trkpt lat="43.675376992637815" lon="12.513395039984916"><ele>289.0</ele><time>2026-04-04T14:32:13.001Z</time></trkpt><trkpt lat="43.675285640379116" lon="12.513493564267279"><ele>289.59999999999997</ele><time>2026-04-04T14:32:14.001Z</time></trkpt><trkpt lat="43.67519031842396" lon="12.513564312786462"><ele>290.2</ele><time>2026-04-04T14:32:15.001Z</time></trkpt><trkpt lat="43.67509528494607" lon="12.513601395949959"><ele>290.79999999999995</ele><time>2026-04-04T14:32:16.001Z</time></trkpt><trkpt lat="43.674999129169684" lon="12.51361376615329"><ele>291.4</ele><time>2026-04-04T14:32:17.001Z</time></trkpt><trkpt lat="43.6748996968422" lon="12.513598184631702"><ele>292.0</ele><time>2026-04-04T14:32:18.001Z</time></trkpt><trkpt lat="43.67480254401778" lon="12.513556533391235"><ele>292.0</ele><time>2026-04-04T14:32:19.001Z</time></trkpt><trkpt lat="43.674710532785404" lon="12.513551954100796"><ele>292.0</ele><time>2026-04-04T14:32:20.001Z</time></trkpt><trkpt lat="43.67464875695513" lon="12.513371967675864"><ele>292.0</ele><time>2026-04-04T14:32:21.001Z</time></trkpt><trkpt lat="43.6746064451584" lon="12.513233747486582"><ele>292.0</ele><time>2026-04-04T14:32:22.001Z</time></trkpt><trkpt lat="43.674560520436195" lon="12.513088545370989"><ele>292.0</ele><time>2026-04-04T14:32:23.001Z</time></trkpt><trkpt lat="43.67451131878081" lon="12.512943953133426"><ele>292.0</ele><time>2026-04-04T14:32:24.001Z</time></trkpt><trkpt lat="43.67445596746183" lon="12.512794543286795"><ele>292.0</ele><time>2026-04-04T14:32:25.001Z</time></trkpt><trkpt lat="43.67441499590208" lon="12.512639460714695"><ele>292.0</ele><time>2026-04-04T14:32:26.001Z</time></trkpt><trkpt lat="43.67435862478599" lon="12.512484823024618"><ele>292.5</ele><time>2026-04-04T14:32:27.001Z</time></trkpt><trkpt lat="43.67430715628272" lon="12.512330429305337"><ele>293.0</ele><time>2026-04-04T14:32:28.001Z</time></trkpt><trkpt lat="43.674256083459234" lon="12.51216847388103"><ele>293.5</ele><time>2026-04-04T14:32:29.001Z</time></trkpt><trkpt lat="43.6742007862108" lon="12.512016098581121"><ele>294.0</ele><time>2026-04-04T14:32:30.001Z</time></trkpt><trkpt lat="43.67414175737453" lon="12.511846416833881"><ele>294.0</ele><time>2026-04-04T14:32:31.001Z</time></trkpt><trkpt lat="43.6740894319658" lon="12.511693216292302"><ele>294.0</ele><time>2026-04-04T14:32:32.001Z</time></trkpt><trkpt lat="43.6740440131603" lon="12.511551107236732"><ele>294.0</ele><time>2026-04-04T14:32:33.001Z</time></trkpt><trkpt lat="43.67400225676896" lon="12.511416216374547"><ele>294.0</ele><time>2026-04-04T14:32:34.001Z</time></trkpt><trkpt lat="43.67394953411824" lon="12.511308128240877"><ele>294.0</ele><time>2026-04-04T14:32:35.001Z</time></trkpt><trkpt lat="43.673921109807274" lon="12.511209349871583"><ele>294.0</ele><time>2026-04-04T14:32:36.001Z</time></trkpt><trkpt lat="43.6737925770935" lon="12.511218454389091"><ele>294.0</ele><time>2026-04-04T14:32:37.001Z</time></trkpt><trkpt lat="43.673706928858316" lon="12.511256158615103"><ele>294.0</ele><time>2026-04-04T14:32:38.001Z</time></trkpt><trkpt lat="43.67361582030984" lon="12.511274368487019"><ele>294.0</ele><time>2026-04-04T14:32:39.001Z</time></trkpt><trkpt lat="43.673518051506186" lon="12.511310992648381"><ele>294.0</ele><time>2026-04-04T14:32:40.001Z</time></trkpt><trkpt lat="43.67341249291251" lon="12.51134052762571"><ele>295.5</ele><time>2026-04-04T14:32:41.001Z</time></trkpt><trkpt lat="43.67329895801119" lon="12.511364059003318"><ele>297.0</ele><time>2026-04-04T14:32:42.001Z</time></trkpt><trkpt lat="43.67318644906475" lon="12.511385357163894"><ele>298.5</ele><time>2026-04-04T14:32:43.001Z</time></trkpt><trkpt lat="43.6730640331168" lon="12.511409519926454"><ele>300.0</ele><time>2026-04-04T14:32:44.001Z</time></trkpt><trkpt lat="43.67294523720652" lon="12.511451033012492"><ele>300.0</ele><time>2026-04-04T14:32:45.001Z</time></trkpt><trkpt lat="43.67283430526637" lon="12.51151053981366"><ele>300.0</ele><time>2026-04-04T14:32:46.001Z</time></trkpt><trkpt lat="43.672732425619174" lon="12.511598572396768"><ele>300.0</ele><time>2026-04-04T14:32:47.001Z</time></trkpt><trkpt lat="43.67263565101222" lon="12.511704079240006"><ele>300.0</ele><time>2026-04-04T14:32:48.001Z</time></trkpt><trkpt lat="43.672546426012524" lon="12.511829855917929"><ele>300.25</ele><time>2026-04-04T14:32:49.001Z</time></trkpt><trkpt lat="43.67246144551661" lon="12.51196616355147"><ele>300.5</ele><time>2026-04-04T14:32:50.002Z</time></trkpt><trkpt lat="43.67238231671923" lon="12.512112514783075"><ele>300.75</ele><time>2026-04-04T14:32:51.002Z</time></trkpt><trkpt lat="43.67230135800922" lon="12.512258651372338"><ele>301.0</ele><time>2026-04-04T14:32:52.002Z</time></trkpt><trkpt lat="43.672220827664894" lon="12.512412148590306"><ele>300.25</ele><time>2026-04-04T14:32:53.002Z</time></trkpt><trkpt lat="43.67212979556576" lon="12.512572053684112"><ele>299.5</ele><time>2026-04-04T14:32:54.002Z</time></trkpt><trkpt lat="43.672045793971996" lon="12.512733468348713"><ele>298.75</ele><time>2026-04-04T14:32:55.002Z</time></trkpt><trkpt lat="43.67196570936314" lon="12.512899572949195"><ele>298.0</ele><time>2026-04-04T14:32:56.002Z</time></trkpt><trkpt lat="43.67188657525024" lon="12.513051847681966"><ele>297.25</ele><time>2026-04-04T14:32:57.002Z</time></trkpt><trkpt lat="43.67180874040188" lon="12.513206199917887"><ele>296.5</ele><time>2026-04-04T14:32:58.002Z</time></trkpt><trkpt lat="43.67172989023495" lon="12.513360763248984"><ele>295.75</ele><time>2026-04-04T14:32:59.002Z</time></trkpt><trkpt lat="43.67164928000365" lon="12.513508124251878"><ele>295.0</ele><time>2026-04-04T14:33:00.002Z</time></trkpt><trkpt lat="43.671570717509276" lon="12.513654446103468"><ele>293.75</ele><time>2026-04-04T14:33:01.002Z</time></trkpt><trkpt lat="43.671488453310744" lon="12.513799421737717"><ele>292.5</ele><time>2026-04-04T14:33:02.002Z</time></trkpt><trkpt lat="43.67141116485873" lon="12.513947189286782"><ele>291.25</ele><time>2026-04-04T14:33:03.002Z</time></trkpt><trkpt lat="43.67133388545703" lon="12.514090854408902"><ele>290.0</ele><time>2026-04-04T14:33:04.002Z</time></trkpt><trkpt lat="43.67126255782206" lon="12.514233240492636"><ele>290.0</ele><time>2026-04-04T14:33:05Z</time></trkpt><trkpt lat="43.6711932704234" lon="12.514372375068737"><ele>290.0</ele><time>2026-04-04T14:33:06Z</time></trkpt><trkpt lat="43.67112424692163" lon="12.514512875420174"><ele>290.0</ele><time>2026-04-04T14:33:07Z</time></trkpt><trkpt lat="43.67105320747246" lon="12.5146530488428"><ele>290.0</ele><time>2026-04-04T14:33:08Z</time></trkpt><trkpt lat="43.670977789017535" lon="12.514795520419959"><ele>290.5</ele><time>2026-04-04T14:33:09Z</time></trkpt><trkpt lat="43.67089957737576" lon="12.514939510890565"><ele>291.0</ele><time>2026-04-04T14:33:10Z</time></trkpt><trkpt lat="43.670816317683844" lon="12.515079463770329"><ele>291.5</ele><time>2026-04-04T14:33:11Z</time></trkpt><trkpt lat="43.67072411736894" lon="12.515217537001275"><ele>292.0</ele><time>2026-04-04T14:33:12Z</time></trkpt><trkpt lat="43.67062360930474" lon="12.515349079596172"><ele>292.0</ele><time>2026-04-04T14:33:13Z</time></trkpt><trkpt lat="43.67051582148824" lon="12.515477966448962"><ele>292.0</ele><time>2026-04-04T14:33:14Z</time></trkpt><trkpt lat="43.67040627015194" lon="12.515608583841423"><ele>292.0</ele><time>2026-04-04T14:33:15Z</time></trkpt><trkpt lat="43.6702942956302" lon="12.515736864400674"><ele>292.0</ele><time>2026-04-04T14:33:16Z</time></trkpt><trkpt lat="43.6701752097801" lon="12.515861535544332"><ele>292.0</ele><time>2026-04-04T14:33:17Z</time></trkpt><trkpt lat="43.67005515772736" lon="12.515985318276336"><ele>292.0</ele><time>2026-04-04T14:33:18Z</time></trkpt><trkpt lat="43.669939249906534" lon="12.51610790227457"><ele>292.0</ele><time>2026-04-04T14:33:19Z</time></trkpt><trkpt lat="43.669829674046504" lon="12.516228424169062"><ele>292.0</ele><time>2026-04-04T14:33:20Z</time></trkpt><trkpt lat="43.66973024267472" lon="12.516337864942196"><ele>291.0</ele><time>2026-04-04T14:33:21Z</time></trkpt><trkpt lat="43.66963279925544" lon="12.516432122451057"><ele>290.0</ele><time>2026-04-04T14:33:22Z</time></trkpt><trkpt lat="43.66953215492187" lon="12.516511668277479"><ele>289.0</ele><time>2026-04-04T14:33:23Z</time></trkpt><trkpt lat="43.669426314053716" lon="12.516579798613098"><ele>288.0</ele><time>2026-04-04T14:33:24Z</time></trkpt><trkpt lat="43.669322884382375" lon="12.516637352639673"><ele>288.0</ele><time>2026-04-04T14:33:25Z</time></trkpt><trkpt lat="43.6692143938058" lon="12.51668603222653"><ele>288.0</ele><time>2026-04-04T14:33:26Z</time></trkpt><trkpt lat="43.66910654635426" lon="12.516731832374209"><ele>288.0</ele><time>2026-04-04T14:33:27Z</time></trkpt><trkpt lat="43.66900252768191" lon="12.516774473798659"><ele>288.0</ele><time>2026-04-04T14:33:28Z</time></trkpt><trkpt lat="43.668903972017965" lon="12.516816636224156"><ele>288.0</ele><time>2026-04-04T14:33:29Z</time></trkpt><trkpt lat="43.6688084938232" lon="12.516856058269271"><ele>288.0</ele><time>2026-04-04T14:33:30Z</time></trkpt><trkpt lat="43.668719873770264" lon="12.516893820708566"><ele>288.0</ele><time>2026-04-04T14:33:31Z</time></trkpt><trkpt lat="43.66863526710317" lon="12.5169321527843"><ele>288.0</ele><time>2026-04-04T14:33:32Z</time></trkpt><trkpt lat="43.66855352377508" lon="12.516967324985892"><ele>288.0</ele><time>2026-04-04T14:33:33Z</time></trkpt><trkpt lat="43.66847198023616" lon="12.517001465239424"><ele>288.0</ele><time>2026-04-04T14:33:34Z</time></trkpt><trkpt lat="43.66838638891182" lon="12.5170389914567"><ele>288.0</ele><time>2026-04-04T14:33:35Z</time></trkpt><trkpt lat="43.66830198612091" lon="12.51707569042888"><ele>287.6</ele><time>2026-04-04T14:33:36Z</time></trkpt><trkpt lat="43.668214129208735" lon="12.517111766064911"><ele>287.20000000000005</ele><time>2026-04-04T14:33:37Z</time></trkpt><trkpt lat="43.668124086226484" lon="12.517156399900411"><ele>286.8</ele><time>2026-04-04T14:33:38Z</time></trkpt><trkpt lat="43.66802497882623" lon="12.517198044840745"><ele>286.40000000000003</ele><time>2026-04-04T14:33:39Z</time></trkpt><trkpt lat="43.66793054105577" lon="12.517242930987782"><ele>286.0</ele><time>2026-04-04T14:33:40Z</time></trkpt><trkpt lat="43.66782232603214" lon="12.517285400709936"><ele>286.0</ele><time>2026-04-04T14:33:41Z</time></trkpt><trkpt lat="43.66770525125352" lon="12.517324682887995"><ele>286.0</ele><time>2026-04-04T14:33:42Z</time></trkpt><trkpt lat="43.667587326004806" lon="12.517375622765615"><ele>286.0</ele><time>2026-04-04T14:33:43Z</time></trkpt><trkpt lat="43.667469873424075" lon="12.517427237559104"><ele>286.0</ele><time>2026-04-04T14:33:44Z</time></trkpt><trkpt lat="43.667355353524236" lon="12.517484209607243"><ele>286.0</ele><time>2026-04-04T14:33:45.001Z</time></trkpt><trkpt lat="43.667240394662784" lon="12.51754568339611"><ele>286.0</ele><time>2026-04-04T14:33:46.001Z</time></trkpt><trkpt lat="43.66712961535817" lon="12.517605429917882"><ele>286.0</ele><time>2026-04-04T14:33:47.001Z</time></trkpt><trkpt lat="43.66703243202402" lon="12.517670123651012"><ele>286.0</ele><time>2026-04-04T14:33:48.001Z</time></trkpt><trkpt lat="43.66693361718454" lon="12.517745215733235"><ele>286.2</ele><time>2026-04-04T14:33:49.001Z</time></trkpt><trkpt lat="43.66684201036066" lon="12.517822588976196"><ele>286.40000000000003</ele><time>2026-04-04T14:33:50.001Z</time></trkpt><trkpt lat="43.666748986838435" lon="12.517903118990786"><ele>286.6</ele><time>2026-04-04T14:33:51.001Z</time></trkpt><trkpt lat="43.66665088142374" lon="12.51797411335754"><ele>286.8</ele><time>2026-04-04T14:33:52.001Z</time></trkpt><trkpt lat="43.66655796311589" lon="12.51805182724495"><ele>287.0</ele><time>2026-04-04T14:33:53.001Z</time></trkpt><trkpt lat="43.666459326545514" lon="12.51813373483355"><ele>287.25</ele><time>2026-04-04T14:33:54.001Z</time></trkpt><trkpt lat="43.66636140237554" lon="12.518216879603767"><ele>287.5</ele><time>2026-04-04T14:33:55.001Z</time></trkpt><trkpt lat="43.666264393280144" lon="12.51830163450376"><ele>287.75</ele><time>2026-04-04T14:33:56.001Z</time></trkpt><trkpt lat="43.666165633123" lon="12.518383972807133"><ele>288.0</ele><time>2026-04-04T14:33:57.001Z</time></trkpt><trkpt lat="43.66606844138043" lon="12.518469040285174"><ele>288.0</ele><time>2026-04-04T14:33:58.001Z</time></trkpt><trkpt lat="43.66597289501481" lon="12.518553416532496"><ele>288.0</ele><time>2026-04-04T14:33:59.001Z</time></trkpt><trkpt lat="43.66587727155371" lon="12.518631417973342"><ele>288.0</ele><time>2026-04-04T14:34:00.001Z</time></trkpt><trkpt lat="43.665787229288284" lon="12.518702753757823"><ele>288.0</ele><time>2026-04-04T14:34:01.001Z</time></trkpt><trkpt lat="43.665700772967384" lon="12.518772469522734"><ele>288.0</ele><time>2026-04-04T14:34:02.001Z</time></trkpt><trkpt lat="43.665615026753734" lon="12.518839027184669"><ele>288.0</ele><time>2026-04-04T14:34:03.001Z</time></trkpt><trkpt lat="43.66553560812123" lon="12.518908756035996"><ele>288.0</ele><time>2026-04-04T14:34:04.001Z</time></trkpt><trkpt lat="43.66545928271478" lon="12.518986710578242"><ele>288.0</ele><time>2026-04-04T14:34:05.001Z</time></trkpt><trkpt lat="43.66538259431797" lon="12.519084982578798"><ele>288.0</ele><time>2026-04-04T14:34:06.001Z</time></trkpt><trkpt lat="43.66531288125039" lon="12.51920045176766"><ele>288.0</ele><time>2026-04-04T14:34:07.001Z</time></trkpt><trkpt lat="43.6652439048751" lon="12.519324505904303"><ele>288.0</ele><time>2026-04-04T14:34:08.001Z</time></trkpt><trkpt lat="43.66518122066112" lon="12.519454985540722"><ele>288.0</ele><time>2026-04-04T14:34:09.001Z</time></trkpt><trkpt lat="43.66512114999211" lon="12.519587917007224"><ele>288.0</ele><time>2026-04-04T14:34:10.001Z</time></trkpt><trkpt lat="43.66506210027691" lon="12.519723428559368"><ele>288.0</ele><time>2026-04-04T14:34:11.001Z</time></trkpt><trkpt lat="43.665006796336094" lon="12.519853630549449"><ele>286.4</ele><time>2026-04-04T14:34:12.001Z</time></trkpt><trkpt lat="43.66495462609967" lon="12.519980502387774"><ele>284.8</ele><time>2026-04-04T14:34:13.001Z</time></trkpt><trkpt lat="43.66490603605144" lon="12.52010598669546"><ele>283.2</ele><time>2026-04-04T14:34:14.001Z</time></trkpt><trkpt lat="43.66485514130313" lon="12.520228124040313"><ele>281.6</ele><time>2026-04-04T14:34:15.001Z</time></trkpt><trkpt lat="43.66482003465069" lon="12.520358131179128"><ele>280.0</ele><time>2026-04-04T14:34:16.001Z</time></trkpt><trkpt lat="43.664800481663285" lon="12.520495049293675"><ele>279.2</ele><time>2026-04-04T14:34:17.001Z</time></trkpt><trkpt lat="43.664787269827244" lon="12.520638555889013"><ele>278.4</ele><time>2026-04-04T14:34:18.001Z</time></trkpt><trkpt lat="43.66478914769066" lon="12.520784719962087"><ele>277.6</ele><time>2026-04-04T14:34:19.001Z</time></trkpt><trkpt lat="43.66480913076541" lon="12.52093253825101"><ele>276.8</ele><time>2026-04-04T14:34:20.001Z</time></trkpt><trkpt lat="43.664848141637584" lon="12.521080178210068"><ele>276.0</ele><time>2026-04-04T14:34:21.001Z</time></trkpt><trkpt lat="43.664884609338394" lon="12.521244388944273"><ele>275.25</ele><time>2026-04-04T14:34:22.001Z</time></trkpt><trkpt lat="43.66494921870593" lon="12.521408033730971"><ele>274.5</ele><time>2026-04-04T14:34:23.001Z</time></trkpt><trkpt lat="43.6650252136311" lon="12.521572017760116"><ele>273.75</ele><time>2026-04-04T14:34:24.001Z</time></trkpt><trkpt lat="43.6651060454553" lon="12.52174117782446"><ele>273.0</ele><time>2026-04-04T14:34:25.001Z</time></trkpt><trkpt lat="43.66519132212343" lon="12.521919639806057"><ele>272.0</ele><time>2026-04-04T14:34:26.001Z</time></trkpt><trkpt lat="43.665280122483736" lon="12.522105475942494"><ele>271.0</ele><time>2026-04-04T14:34:27.001Z</time></trkpt><trkpt lat="43.665370361607096" lon="12.522294323057706"><ele>270.0</ele><time>2026-04-04T14:34:28.001Z</time></trkpt><trkpt lat="43.66547479966875" lon="12.522470067847797"><ele>270.0</ele><time>2026-04-04T14:34:29.001Z</time></trkpt><trkpt lat="43.665558625364845" lon="12.522657858180633"><ele>270.0</ele><time>2026-04-04T14:34:30.001Z</time></trkpt><trkpt lat="43.66564104988248" lon="12.522838386295797"><ele>270.0</ele><time>2026-04-04T14:34:31.001Z</time></trkpt><trkpt lat="43.66572236591552" lon="12.523009678939246"><ele>268.25</ele><time>2026-04-04T14:34:32.001Z</time></trkpt><trkpt lat="43.665802312864514" lon="12.523174340150122"><ele>266.5</ele><time>2026-04-04T14:34:33.001Z</time></trkpt><trkpt lat="43.6658822336799" lon="12.523333110696763"><ele>264.75</ele><time>2026-04-04T14:34:34.001Z</time></trkpt><trkpt lat="43.66595436320257" lon="12.52348308489646"><ele>263.0</ele><time>2026-04-04T14:34:35.001Z</time></trkpt><trkpt lat="43.66601974384439" lon="12.52362121120482"><ele>263.2</ele><time>2026-04-04T14:34:36.001Z</time></trkpt><trkpt lat="43.6660756370635" lon="12.523756546763785"><ele>263.4</ele><time>2026-04-04T14:34:37.001Z</time></trkpt><trkpt lat="43.66610619538291" lon="12.523894591969015"><ele>263.59999999999997</ele><time>2026-04-04T14:34:38.001Z</time></trkpt><trkpt lat="43.66610693881924" lon="12.524037710929123"><ele>263.8</ele><time>2026-04-04T14:34:39.001Z</time></trkpt><trkpt lat="43.66607972161845" lon="12.524171742819115"><ele>264.0</ele><time>2026-04-04T14:34:40.001Z</time></trkpt><trkpt lat="43.66603442784449" lon="12.524298849235702"><ele>264.0</ele><time>2026-04-04T14:34:41.001Z</time></trkpt><trkpt lat="43.665985766194034" lon="12.524432817809503"><ele>264.0</ele><time>2026-04-04T14:34:42.001Z</time></trkpt><trkpt lat="43.66593395497062" lon="12.524566102625027"><ele>264.0</ele><time>2026-04-04T14:34:43.001Z</time></trkpt><trkpt lat="43.665866207973885" lon="12.524679551245745"><ele>264.0</ele><time>2026-04-04T14:34:44.001Z</time></trkpt><trkpt lat="43.66581464390268" lon="12.524800107403465"><ele>264.0</ele><time>2026-04-04T14:34:45.001Z</time></trkpt><trkpt lat="43.66576430447554" lon="12.524917800353103"><ele>265.4</ele><time>2026-04-04T14:34:46.001Z</time></trkpt><trkpt lat="43.66571517791702" lon="12.52503265763391"><ele>266.79999999999995</ele><time>2026-04-04T14:34:47.001Z</time></trkpt><trkpt lat="43.665667087353874" lon="12.525145092923456"><ele>268.20000000000005</ele><time>2026-04-04T14:34:48.001Z</time></trkpt><trkpt lat="43.66562023751495" lon="12.525256320062763"><ele>269.6</ele><time>2026-04-04T14:34:49.001Z</time></trkpt><trkpt lat="43.66557381482707" lon="12.525365728635474"><ele>271.0</ele><time>2026-04-04T14:34:50.001Z</time></trkpt><trkpt lat="43.665530368393014" lon="12.525468442150007"><ele>271.16666666666663</ele><time>2026-04-04T14:34:51.001Z</time></trkpt><trkpt lat="43.665488551879285" lon="12.525567302299896"><ele>271.3333333333333</ele><time>2026-04-04T14:34:52.001Z</time></trkpt><trkpt lat="43.66544830248555" lon="12.5256624575589"><ele>271.5</ele><time>2026-04-04T14:34:53.001Z</time></trkpt><trkpt lat="43.665408285545325" lon="12.525757063267523"><ele>271.6666666666667</ele><time>2026-04-04T14:34:54.001Z</time></trkpt><trkpt lat="43.66536896478836" lon="12.525848863719839"><ele>271.83333333333337</ele><time>2026-04-04T14:34:55.001Z</time></trkpt><trkpt lat="43.6653312126375" lon="12.525936915149241"><ele>272.0</ele><time>2026-04-04T14:34:56.001Z</time></trkpt><trkpt lat="43.66529344447537" lon="12.526025003904298"><ele>272.0</ele><time>2026-04-04T14:34:57.002Z</time></trkpt><trkpt lat="43.66525782372985" lon="12.52610808413437"><ele>272.0</ele><time>2026-04-04T14:34:58.002Z</time></trkpt><trkpt lat="43.66522362240994" lon="12.526187853750764"><ele>272.0</ele><time>2026-04-04T14:34:59.002Z</time></trkpt><trkpt lat="43.665189425479994" lon="12.526267613135648"><ele>272.0</ele><time>2026-04-04T14:35:00.002Z</time></trkpt><trkpt lat="43.665154850932474" lon="12.526348253262578"><ele>272.0</ele><time>2026-04-04T14:35:01.002Z</time></trkpt><trkpt lat="43.665135168301994" lon="12.52643477770634"><ele>272.0</ele><time>2026-04-04T14:35:02.002Z</time></trkpt><trkpt lat="43.665063278173804" lon="12.526581167285238"><ele>272.0</ele><time>2026-04-04T14:35:04.002Z</time></trkpt><trkpt lat="43.66502468966764" lon="12.526671973477091"><ele>272.0</ele><time>2026-04-04T14:35:05.002Z</time></trkpt><trkpt lat="43.664980609077894" lon="12.526769501963964"><ele>272.0</ele><time>2026-04-04T14:35:06.002Z</time></trkpt><trkpt lat="43.66493184465777" lon="12.526877732534867"><ele>272.0</ele><time>2026-04-04T14:35:07.002Z</time></trkpt><trkpt lat="43.66487744390762" lon="12.526992564766319"><ele>272.0</ele><time>2026-04-04T14:35:08.002Z</time></trkpt><trkpt lat="43.66482301206906" lon="12.527115009135677"><ele>272.5</ele><time>2026-04-04T14:35:09.002Z</time></trkpt><trkpt lat="43.6647662742018" lon="12.52724448812634"><ele>273.0</ele><time>2026-04-04T14:35:10.002Z</time></trkpt><trkpt lat="43.664709634266835" lon="12.527380662727797"><ele>273.5</ele><time>2026-04-04T14:35:11Z</time></trkpt><trkpt lat="43.66465114485608" lon="12.527517018893695"><ele>274.0</ele><time>2026-04-04T14:35:12Z</time></trkpt><trkpt lat="43.664594284577404" lon="12.52765484488368"><ele>274.0</ele><time>2026-04-04T14:35:13Z</time></trkpt><trkpt lat="43.66453964428406" lon="12.527791494361779"><ele>274.0</ele><time>2026-04-04T14:35:14Z</time></trkpt><trkpt lat="43.664486120459046" lon="12.527931593838506"><ele>274.0</ele><time>2026-04-04T14:35:15Z</time></trkpt><trkpt lat="43.66442917392258" lon="12.528071188866672"><ele>274.0</ele><time>2026-04-04T14:35:16Z</time></trkpt><trkpt lat="43.664369187780835" lon="12.528207913574683"><ele>273.0</ele><time>2026-04-04T14:35:17Z</time></trkpt><trkpt lat="43.66430636028613" lon="12.52834643619857"><ele>272.0</ele><time>2026-04-04T14:35:18Z</time></trkpt><trkpt lat="43.664241615430505" lon="12.528482916198797"><ele>271.0</ele><time>2026-04-04T14:35:19Z</time></trkpt><trkpt lat="43.664178464993284" lon="12.528612010100552"><ele>270.0</ele><time>2026-04-04T14:35:20Z</time></trkpt><trkpt lat="43.66411632443442" lon="12.528725960987117"><ele>272.75</ele><time>2026-04-04T14:35:21Z</time></trkpt><trkpt lat="43.664055764512575" lon="12.528841731775053"><ele>275.5</ele><time>2026-04-04T14:35:22Z</time></trkpt><trkpt lat="43.663972438843786" lon="12.528951125860505"><ele>278.25</ele><time>2026-04-04T14:35:23Z</time></trkpt><trkpt lat="43.66394665809387" lon="12.529107124460548"><ele>281.0</ele><time>2026-04-04T14:35:24Z</time></trkpt><trkpt lat="43.66389238729867" lon="12.529255420148276"><ele>281.0</ele><time>2026-04-04T14:35:25Z</time></trkpt><trkpt lat="43.663830903065865" lon="12.529399137397554"><ele>281.0</ele><time>2026-04-04T14:35:26Z</time></trkpt><trkpt lat="43.66376988242223" lon="12.529557198118814"><ele>281.0</ele><time>2026-04-04T14:35:27Z</time></trkpt><trkpt lat="43.663704961037375" lon="12.529716256156476"><ele>281.0</ele><time>2026-04-04T14:35:28Z</time></trkpt><trkpt lat="43.66363434263624" lon="12.52987853393589"><ele>280.0</ele><time>2026-04-04T14:35:29Z</time></trkpt><trkpt lat="43.663564928210576" lon="12.530043501914673"><ele>279.0</ele><time>2026-04-04T14:35:30Z</time></trkpt><trkpt lat="43.66349285740962" lon="12.53021823640095"><ele>278.0</ele><time>2026-04-04T14:35:31Z</time></trkpt><trkpt lat="43.66341295444253" lon="12.530393058179225"><ele>277.0</ele><time>2026-04-04T14:35:32Z</time></trkpt><trkpt lat="43.66333277160851" lon="12.530566033665115"><ele>277.0</ele><time>2026-04-04T14:35:33Z</time></trkpt><trkpt lat="43.66325600724756" lon="12.530746784039549"><ele>277.0</ele><time>2026-04-04T14:35:34Z</time></trkpt><trkpt lat="43.663180474530705" lon="12.530919423380423"><ele>277.0</ele><time>2026-04-04T14:35:35Z</time></trkpt><trkpt lat="43.66311121455235" lon="12.53108603198833"><ele>277.0</ele><time>2026-04-04T14:35:36Z</time></trkpt><trkpt lat="43.66303984408768" lon="12.531260860894081"><ele>278.0</ele><time>2026-04-04T14:35:37Z</time></trkpt><trkpt lat="43.662965728651415" lon="12.53142857423134"><ele>279.0</ele><time>2026-04-04T14:35:38Z</time></trkpt><trkpt lat="43.662889487030625" lon="12.531591764605471"><ele>280.0</ele><time>2026-04-04T14:35:39Z</time></trkpt><trkpt lat="43.662810494463706" lon="12.531751053895333"><ele>281.0</ele><time>2026-04-04T14:35:40Z</time></trkpt><trkpt lat="43.66272762558036" lon="12.531902089467534"><ele>279.5</ele><time>2026-04-04T14:35:41Z</time></trkpt><trkpt lat="43.66264516109893" lon="12.532056032608502"><ele>278.0</ele><time>2026-04-04T14:35:42Z</time></trkpt><trkpt lat="43.662560344151956" lon="12.532204973836263"><ele>276.5</ele><time>2026-04-04T14:35:43Z</time></trkpt><trkpt lat="43.66247335892013" lon="12.532358829631642"><ele>275.0</ele><time>2026-04-04T14:35:44Z</time></trkpt><trkpt lat="43.66238433854912" lon="12.532516067243765"><ele>275.0</ele><time>2026-04-04T14:35:45Z</time></trkpt><trkpt lat="43.66229687913594" lon="12.532675790256205"><ele>275.0</ele><time>2026-04-04T14:35:46Z</time></trkpt><trkpt lat="43.66220770706748" lon="12.532835633073086"><ele>275.0</ele><time>2026-04-04T14:35:47Z</time></trkpt><trkpt lat="43.66211810236065" lon="12.532993352986432"><ele>275.0</ele><time>2026-04-04T14:35:48Z</time></trkpt><trkpt lat="43.662028109073745" lon="12.533152885676447"><ele>274.5</ele><time>2026-04-04T14:35:49Z</time></trkpt><trkpt lat="43.66194044962712" lon="12.533315246492727"><ele>274.0</ele><time>2026-04-04T14:35:50Z</time></trkpt><trkpt lat="43.66185057849779" lon="12.533476373423325"><ele>273.5</ele><time>2026-04-04T14:35:51Z</time></trkpt><trkpt lat="43.66175479902274" lon="12.53363546939331"><ele>273.0</ele><time>2026-04-04T14:35:52Z</time></trkpt><trkpt lat="43.66165777482869" lon="12.53379837708445"><ele>275.75</ele><time>2026-04-04T14:35:53Z</time></trkpt><trkpt lat="43.66156373346099" lon="12.533963946534401"><ele>278.5</ele><time>2026-04-04T14:35:54Z</time></trkpt><trkpt lat="43.66147369910064" lon="12.534124305930275"><ele>281.25</ele><time>2026-04-04T14:35:55Z</time></trkpt><trkpt lat="43.6613859045615" lon="12.534284906392342"><ele>284.0</ele><time>2026-04-04T14:35:56Z</time></trkpt><trkpt lat="43.66129363321921" lon="12.53443965584301"><ele>281.75</ele><time>2026-04-04T14:35:57Z</time></trkpt><trkpt lat="43.661202598171194" lon="12.534601763396227"><ele>279.5</ele><time>2026-04-04T14:35:58Z</time></trkpt><trkpt lat="43.661098065575295" lon="12.53474705223945"><ele>277.25</ele><time>2026-04-04T14:35:59Z</time></trkpt><trkpt lat="43.66101221167003" lon="12.534906261552916"><ele>275.0</ele><time>2026-04-04T14:36:00Z</time></trkpt><trkpt lat="43.66093777354127" lon="12.535080607618175"><ele>275.0</ele><time>2026-04-04T14:36:01Z</time></trkpt><trkpt lat="43.66085185797194" lon="12.535234606987235"><ele>275.0</ele><time>2026-04-04T14:36:02Z</time></trkpt><trkpt lat="43.6607664017311" lon="12.535383254726074"><ele>275.0</ele><time>2026-04-04T14:36:03Z</time></trkpt><trkpt lat="43.660685308320375" lon="12.535528594036517"><ele>275.0</ele><time>2026-04-04T14:36:04Z</time></trkpt><trkpt lat="43.66060675785635" lon="12.535665622186329"><ele>275.5</ele><time>2026-04-04T14:36:05Z</time></trkpt><trkpt lat="43.66052868598329" lon="12.535804968946143"><ele>276.0</ele><time>2026-04-04T14:36:06Z</time></trkpt><trkpt lat="43.66044948113698" lon="12.535943842622016"><ele>276.5</ele><time>2026-04-04T14:36:07.001Z</time></trkpt><trkpt lat="43.660376167196496" lon="12.536075052765801"><ele>277.0</ele><time>2026-04-04T14:36:08.001Z</time></trkpt><trkpt lat="43.660301267899044" lon="12.536198756290208"><ele>276.0</ele><time>2026-04-04T14:36:09.001Z</time></trkpt><trkpt lat="43.66022698709412" lon="12.536327539738025"><ele>275.0</ele><time>2026-04-04T14:36:10.001Z</time></trkpt><trkpt lat="43.660154948856395" lon="12.536456745099107"><ele>274.0</ele><time>2026-04-04T14:36:11.001Z</time></trkpt><trkpt lat="43.66008388905412" lon="12.536582186893494"><ele>273.0</ele><time>2026-04-04T14:36:12.001Z</time></trkpt><trkpt lat="43.66001454261686" lon="12.536705605690033"><ele>273.0</ele><time>2026-04-04T14:36:13.001Z</time></trkpt><trkpt lat="43.65994339726489" lon="12.536830327611455"><ele>273.0</ele><time>2026-04-04T14:36:14.001Z</time></trkpt><trkpt lat="43.65987190520261" lon="12.536956621705441"><ele>273.0</ele><time>2026-04-04T14:36:15.001Z</time></trkpt><trkpt lat="43.659793581005935" lon="12.537080836645716"><ele>273.0</ele><time>2026-04-04T14:36:16.001Z</time></trkpt><trkpt lat="43.65971883469148" lon="12.537206580214843"><ele>273.25</ele><time>2026-04-04T14:36:17.001Z</time></trkpt><trkpt lat="43.659649593906856" lon="12.537335302382376"><ele>273.5</ele><time>2026-04-04T14:36:18.001Z</time></trkpt><trkpt lat="43.65957810672071" lon="12.537466062287288"><ele>273.75</ele><time>2026-04-04T14:36:19.001Z</time></trkpt><trkpt lat="43.65949919421907" lon="12.537599172669145"><ele>274.0</ele><time>2026-04-04T14:36:20.001Z</time></trkpt><trkpt lat="43.65942122185055" lon="12.537732661257616"><ele>274.0</ele><time>2026-04-04T14:36:21.001Z</time></trkpt><trkpt lat="43.65934572958394" lon="12.53786550761142"><ele>274.0</ele><time>2026-04-04T14:36:22.001Z</time></trkpt><trkpt lat="43.659269012116496" lon="12.538000884991874"><ele>274.0</ele><time>2026-04-04T14:36:23.001Z</time></trkpt><trkpt lat="43.659195035509825" lon="12.538134485277146"><ele>274.0</ele><time>2026-04-04T14:36:24.001Z</time></trkpt><trkpt lat="43.659121189419814" lon="12.538268850704531"><ele>275.0</ele><time>2026-04-04T14:36:25.001Z</time></trkpt><trkpt lat="43.65904245281383" lon="12.538408105613833"><ele>276.0</ele><time>2026-04-04T14:36:26.001Z</time></trkpt><trkpt lat="43.658960987619864" lon="12.538548463552946"><ele>277.0</ele><time>2026-04-04T14:36:27.001Z</time></trkpt><trkpt lat="43.658875838726026" lon="12.538691349655457"><ele>278.0</ele><time>2026-04-04T14:36:28.001Z</time></trkpt><trkpt lat="43.65879079522195" lon="12.538840172525786"><ele>278.75</ele><time>2026-04-04T14:36:29.001Z</time></trkpt><trkpt lat="43.65870500297059" lon="12.538995850900001"><ele>279.5</ele><time>2026-04-04T14:36:30.001Z</time></trkpt><trkpt lat="43.65861976719722" lon="12.539148776794079"><ele>280.25</ele><time>2026-04-04T14:36:31.001Z</time></trkpt><trkpt lat="43.658533240074135" lon="12.539303279146083"><ele>281.0</ele><time>2026-04-04T14:36:32.001Z</time></trkpt><trkpt lat="43.65844380682229" lon="12.539462604926337"><ele>278.6666666666667</ele><time>2026-04-04T14:36:33.001Z</time></trkpt><trkpt lat="43.658352011789354" lon="12.53962374224464"><ele>276.3333333333333</ele><time>2026-04-04T14:36:34.001Z</time></trkpt><trkpt lat="43.658257801228096" lon="12.539786230435245"><ele>274.0</ele><time>2026-04-04T14:36:35.001Z</time></trkpt><trkpt lat="43.65816117316649" lon="12.539950780239462"><ele>274.0</ele><time>2026-04-04T14:36:36.001Z</time></trkpt><trkpt lat="43.65806366044479" lon="12.540121696163256"><ele>274.0</ele><time>2026-04-04T14:36:37.001Z</time></trkpt><trkpt lat="43.65796517450308" lon="12.540296989384997"><ele>274.0</ele><time>2026-04-04T14:36:38.001Z</time></trkpt><trkpt lat="43.657864245079644" lon="12.540473273635829"><ele>271.3333333333333</ele><time>2026-04-04T14:36:39.001Z</time></trkpt><trkpt lat="43.65776056769444" lon="12.540652989113509"><ele>268.6666666666667</ele><time>2026-04-04T14:36:40.001Z</time></trkpt><trkpt lat="43.657654470688435" lon="12.5408349335112"><ele>266.0</ele><time>2026-04-04T14:36:41.001Z</time></trkpt><trkpt lat="43.65755108610708" lon="12.541017762572347"><ele>266.0</ele><time>2026-04-04T14:36:42.001Z</time></trkpt><trkpt lat="43.65744623036964" lon="12.541206966491195"><ele>266.0</ele><time>2026-04-04T14:36:43.001Z</time></trkpt><trkpt lat="43.65734132495867" lon="12.54139649420504"><ele>266.0</ele><time>2026-04-04T14:36:44.001Z</time></trkpt><trkpt lat="43.657232052223584" lon="12.541584533958714"><ele>267.6666666666667</ele><time>2026-04-04T14:36:45.001Z</time></trkpt><trkpt lat="43.65711979736619" lon="12.5417744797526"><ele>269.3333333333333</ele><time>2026-04-04T14:36:46.001Z</time></trkpt><trkpt lat="43.6570117485517" lon="12.541959340828749"><ele>271.0</ele><time>2026-04-04T14:36:47.001Z</time></trkpt><trkpt lat="43.656905023019725" lon="12.542146065713032"><ele>271.0</ele><time>2026-04-04T14:36:48.001Z</time></trkpt><trkpt lat="43.656799919763266" lon="12.54233142875635"><ele>271.0</ele><time>2026-04-04T14:36:49.001Z</time></trkpt><trkpt lat="43.65669122823147" lon="12.542520558078996"><ele>271.0</ele><time>2026-04-04T14:36:50.001Z</time></trkpt><trkpt lat="43.656581750527565" lon="12.542713226641284"><ele>273.0</ele><time>2026-04-04T14:36:51.001Z</time></trkpt><trkpt lat="43.656472989011846" lon="12.542907060530267"><ele>275.0</ele><time>2026-04-04T14:36:52.001Z</time></trkpt><trkpt lat="43.65634927915699" lon="12.543085456687992"><ele>277.0</ele><time>2026-04-04T14:36:53.001Z</time></trkpt><trkpt lat="43.656236631704395" lon="12.543281561883612"><ele>277.0</ele><time>2026-04-04T14:36:54.001Z</time></trkpt><trkpt lat="43.65613614702199" lon="12.543489900117454"><ele>277.0</ele><time>2026-04-04T14:36:55.001Z</time></trkpt><trkpt lat="43.65602595582723" lon="12.543685860734037"><ele>277.0</ele><time>2026-04-04T14:36:56.001Z</time></trkpt><trkpt lat="43.65591352812822" lon="12.543881515008097"><ele>271.66666666666663</ele><time>2026-04-04T14:36:57.001Z</time></trkpt><trkpt lat="43.65580301140231" lon="12.544073151826277"><ele>266.3333333333333</ele><time>2026-04-04T14:36:58.001Z</time></trkpt><trkpt lat="43.655699142349" lon="12.544260875618232"><ele>261.0</ele><time>2026-04-04T14:36:59.001Z</time></trkpt><trkpt lat="43.6556062691241" lon="12.544455561780024"><ele>262.6666666666667</ele><time>2026-04-04T14:37:00.001Z</time></trkpt><trkpt lat="43.65551166599011" lon="12.544651312742246"><ele>264.33333333333337</ele><time>2026-04-04T14:37:01.001Z</time></trkpt><trkpt lat="43.65545162333329" lon="12.544860190872898"><ele>266.0</ele><time>2026-04-04T14:37:02.001Z</time></trkpt><trkpt lat="43.65539863458059" lon="12.545075443044853"><ele>266.0</ele><time>2026-04-04T14:37:03.001Z</time></trkpt><trkpt lat="43.655352333411535" lon="12.5452931369705"><ele>266.0</ele><time>2026-04-04T14:37:04.001Z</time></trkpt><trkpt lat="43.655319375750615" lon="12.545519070138994"><ele>266.0</ele><time>2026-04-04T14:37:05.001Z</time></trkpt><trkpt lat="43.65527005243914" lon="12.54574142495368"><ele>263.0</ele><time>2026-04-04T14:37:06.001Z</time></trkpt><trkpt lat="43.65522189051111" lon="12.545964855309776"><ele>260.0</ele><time>2026-04-04T14:37:07.001Z</time></trkpt><trkpt lat="43.65517383148176" lon="12.546193780773937"><ele>257.0</ele><time>2026-04-04T14:37:08.001Z</time></trkpt><trkpt lat="43.65512760846127" lon="12.546424564772492"><ele>257.0</ele><time>2026-04-04T14:37:09.001Z</time></trkpt><trkpt lat="43.65508035700012" lon="12.546656647782266"><ele>257.0</ele><time>2026-04-04T14:37:10.001Z</time></trkpt><trkpt lat="43.65503189719781" lon="12.5468851583963"><ele>257.0</ele><time>2026-04-04T14:37:11.001Z</time></trkpt><trkpt lat="43.654983304228516" lon="12.547113381234142"><ele>256.6666666666667</ele><time>2026-04-04T14:37:12.001Z</time></trkpt><trkpt lat="43.65493036288067" lon="12.547342488593339"><ele>256.3333333333333</ele><time>2026-04-04T14:37:13.001Z</time></trkpt><trkpt lat="43.654875969917484" lon="12.547574164625226"><ele>256.0</ele><time>2026-04-04T14:37:14.001Z</time></trkpt><trkpt lat="43.654818189895025" lon="12.547804444823466"><ele>257.3333333333333</ele><time>2026-04-04T14:37:15.001Z</time></trkpt><trkpt lat="43.65474179668465" lon="12.54802761079834"><ele>258.6666666666667</ele><time>2026-04-04T14:37:16.001Z</time></trkpt><trkpt lat="43.654645475185184" lon="12.548236308865588"><ele>260.0</ele><time>2026-04-04T14:37:17Z</time></trkpt><trkpt lat="43.654543384976336" lon="12.548436592685178"><ele>258.0</ele><time>2026-04-04T14:37:18Z</time></trkpt><trkpt lat="43.65443420306154" lon="12.548630590207843"><ele>256.0</ele><time>2026-04-04T14:37:19Z</time></trkpt><trkpt lat="43.654321542667255" lon="12.548819369816258"><ele>254.0</ele><time>2026-04-04T14:37:20Z</time></trkpt><trkpt lat="43.65420463743289" lon="12.549003982687514"><ele>254.0</ele><time>2026-04-04T14:37:21Z</time></trkpt><trkpt lat="43.654098236911395" lon="12.549176676414149"><ele>254.0</ele><time>2026-04-04T14:37:22Z</time></trkpt><trkpt lat="43.65400093900039" lon="12.549349749634242"><ele>254.0</ele><time>2026-04-04T14:37:23Z</time></trkpt><trkpt lat="43.65391603292483" lon="12.549532380698308"><ele>254.0</ele><time>2026-04-04T14:37:24Z</time></trkpt><trkpt lat="43.65384881589363" lon="12.549723471662077"><ele>254.0</ele><time>2026-04-04T14:37:25Z</time></trkpt><trkpt lat="43.65379278636386" lon="12.549923197494829"><ele>254.0</ele><time>2026-04-04T14:37:26Z</time></trkpt><trkpt lat="43.65374486180395" lon="12.550122632182713"><ele>254.0</ele><time>2026-04-04T14:37:27Z</time></trkpt><trkpt lat="43.65369826009575" lon="12.550318667973954"><ele>254.0</ele><time>2026-04-04T14:37:28Z</time></trkpt><trkpt lat="43.65365408847878" lon="12.550510114599463"><ele>254.0</ele><time>2026-04-04T14:37:29Z</time></trkpt><trkpt lat="43.65360589718208" lon="12.55069350921176"><ele>254.0</ele><time>2026-04-04T14:37:30Z</time></trkpt><trkpt lat="43.65355933803244" lon="12.550873503436145"><ele>253.25</ele><time>2026-04-04T14:37:31Z</time></trkpt><trkpt lat="43.653515312643435" lon="12.551045973348423"><ele>252.5</ele><time>2026-04-04T14:37:32Z</time></trkpt><trkpt lat="43.65347260240777" lon="12.5512115841013"><ele>251.75</ele><time>2026-04-04T14:37:33Z</time></trkpt><trkpt lat="43.65343335184441" lon="12.551367118622553"><ele>251.0</ele><time>2026-04-04T14:37:34Z</time></trkpt><trkpt lat="43.653396596625534" lon="12.551515967423283"><ele>251.0</ele><time>2026-04-04T14:37:35Z</time></trkpt><trkpt lat="43.653364353456055" lon="12.551646369966143"><ele>251.00000000000003</ele><time>2026-04-04T14:37:36Z</time></trkpt><trkpt lat="43.653334818981975" lon="12.551755927323612"><ele>251.00000000000003</ele><time>2026-04-04T14:37:37Z</time></trkpt><trkpt lat="43.65329135889815" lon="12.551836008084852"><ele>251.0</ele><time>2026-04-04T14:37:38Z</time></trkpt><trkpt lat="43.65317997808029" lon="12.551898294339237"><ele>251.0</ele><time>2026-04-04T14:37:40Z</time></trkpt><trkpt lat="43.65306223864878" lon="12.551853122411593"><ele>251.00000000000003</ele><time>2026-04-04T14:37:42Z</time></trkpt><trkpt lat="43.65301708922824" lon="12.551779124778351"><ele>251.0</ele><time>2026-04-04T14:37:43Z</time></trkpt><trkpt lat="43.653002360406575" lon="12.551684323828638"><ele>251.0</ele><time>2026-04-04T14:37:44Z</time></trkpt><trkpt lat="43.65297438136652" lon="12.55158712342537"><ele>251.0</ele><time>2026-04-04T14:37:45Z</time></trkpt><trkpt lat="43.65303524936317" lon="12.551460771178917"><ele>251.00000000000003</ele><time>2026-04-04T14:37:46Z</time></trkpt><trkpt lat="43.65307210279962" lon="12.551347613800486"><ele>251.0</ele><time>2026-04-04T14:37:47Z</time></trkpt><trkpt lat="43.65310946097544" lon="12.551226218108543"><ele>250.60000000000002</ele><time>2026-04-04T14:37:48Z</time></trkpt><trkpt lat="43.65314677849564" lon="12.55108689301149"><ele>250.20000000000002</ele><time>2026-04-04T14:37:49Z</time></trkpt><trkpt lat="43.65319001877811" lon="12.550946352262645"><ele>249.79999999999998</ele><time>2026-04-04T14:37:50Z</time></trkpt><trkpt lat="43.65323613200115" lon="12.550807434909435"><ele>249.39999999999998</ele><time>2026-04-04T14:37:51Z</time></trkpt><trkpt lat="43.65326932696556" lon="12.550671476330939"><ele>249.0</ele><time>2026-04-04T14:37:52Z</time></trkpt><trkpt lat="43.65327462407621" lon="12.550529579812329"><ele>249.0</ele><time>2026-04-04T14:37:53Z</time></trkpt><trkpt lat="43.65324297848038" lon="12.550388624060812"><ele>248.99999999999997</ele><time>2026-04-04T14:37:54Z</time></trkpt><trkpt lat="43.65317668413929" lon="12.550273158587549"><ele>248.99999999999997</ele><time>2026-04-04T14:37:55Z</time></trkpt><trkpt lat="43.653086973898844" lon="12.550192618148845"><ele>249.0</ele><time>2026-04-04T14:37:56Z</time></trkpt><trkpt lat="43.65297605513905" lon="12.550153259440444"><ele>249.0</ele><time>2026-04-04T14:37:57Z</time></trkpt><trkpt lat="43.65285511591209" lon="12.550141937673974"><ele>246.5</ele><time>2026-04-04T14:37:58Z</time></trkpt><trkpt lat="43.65272596434694" lon="12.550139175376883"><ele>244.0</ele><time>2026-04-04T14:37:59Z</time></trkpt><trkpt lat="43.65259489504555" lon="12.55014271833824"><ele>241.5</ele><time>2026-04-04T14:38:00Z</time></trkpt><trkpt lat="43.65245685659878" lon="12.550134371953298"><ele>239.0</ele><time>2026-04-04T14:38:01Z</time></trkpt><trkpt lat="43.65231252403279" lon="12.550129806087588"><ele>239.0</ele><time>2026-04-04T14:38:02Z</time></trkpt><trkpt lat="43.65216286297546" lon="12.55013455382934"><ele>239.0</ele><time>2026-04-04T14:38:03Z</time></trkpt><trkpt lat="43.652009523057544" lon="12.550150566892476"><ele>239.0</ele><time>2026-04-04T14:38:04Z</time></trkpt><trkpt lat="43.65185616094875" lon="12.550189253635562"><ele>241.66666666666669</ele><time>2026-04-04T14:38:05Z</time></trkpt><trkpt lat="43.65170711702086" lon="12.550255279393959"><ele>244.33333333333331</ele><time>2026-04-04T14:38:06Z</time></trkpt><trkpt lat="43.651563658748536" lon="12.550350154683306"><ele>247.0</ele><time>2026-04-04T14:38:07Z</time></trkpt><trkpt lat="43.65142269719385" lon="12.55045939295885"><ele>248.33333333333331</ele><time>2026-04-04T14:38:08Z</time></trkpt><trkpt lat="43.651282826272244" lon="12.550575584404495"><ele>249.66666666666669</ele><time>2026-04-04T14:38:09Z</time></trkpt><trkpt lat="43.65114573994425" lon="12.55069634078333"><ele>251.0</ele><time>2026-04-04T14:38:10Z</time></trkpt><trkpt lat="43.65100603007838" lon="12.550818546894412"><ele>253.0</ele><time>2026-04-04T14:38:11Z</time></trkpt><trkpt lat="43.65086619059073" lon="12.550934183494892"><ele>255.0</ele><time>2026-04-04T14:38:12Z</time></trkpt><trkpt lat="43.650731458883456" lon="12.551063491214865"><ele>257.0</ele><time>2026-04-04T14:38:13Z</time></trkpt><trkpt lat="43.65060846743102" lon="12.551210989429846"><ele>257.6666666666667</ele><time>2026-04-04T14:38:14Z</time></trkpt><trkpt lat="43.65049192656862" lon="12.551369247653398"><ele>258.3333333333333</ele><time>2026-04-04T14:38:15.001Z</time></trkpt><trkpt lat="43.65037998412277" lon="12.551533338057395"><ele>259.0</ele><time>2026-04-04T14:38:16.001Z</time></trkpt><trkpt lat="43.65028081172849" lon="12.551706385552981"><ele>259.3333333333333</ele><time>2026-04-04T14:38:17.001Z</time></trkpt><trkpt lat="43.650185933438905" lon="12.551877899267621"><ele>259.6666666666667</ele><time>2026-04-04T14:38:18.001Z</time></trkpt><trkpt lat="43.650093319252385" lon="12.552048595036027"><ele>260.0</ele><time>2026-04-04T14:38:19.001Z</time></trkpt><trkpt lat="43.649998195567534" lon="12.552217141192164"><ele>260.0</ele><time>2026-04-04T14:38:20.001Z</time></trkpt><trkpt lat="43.64989775225208" lon="12.55238702669925"><ele>260.0</ele><time>2026-04-04T14:38:21.001Z</time></trkpt><trkpt lat="43.6497942684732" lon="12.552555494808486"><ele>260.0</ele><time>2026-04-04T14:38:22.001Z</time></trkpt><trkpt lat="43.649694326515544" lon="12.552731270987925"><ele>260.6666666666667</ele><time>2026-04-04T14:38:23.001Z</time></trkpt><trkpt lat="43.64959049121369" lon="12.552907431045512"><ele>261.3333333333333</ele><time>2026-04-04T14:38:24.001Z</time></trkpt><trkpt lat="43.649484378911865" lon="12.553089726625224"><ele>262.0</ele><time>2026-04-04T14:38:25.001Z</time></trkpt><trkpt lat="43.649375005712876" lon="12.553278861012094"><ele>262.0</ele><time>2026-04-04T14:38:26.001Z</time></trkpt><trkpt lat="43.649259701910346" lon="12.553463578673568"><ele>262.0</ele><time>2026-04-04T14:38:27.001Z</time></trkpt><trkpt lat="43.64914070024957" lon="12.553639392703095"><ele>262.0</ele><time>2026-04-04T14:38:28.001Z</time></trkpt><trkpt lat="43.64902167324938" lon="12.55381145043419"><ele>261.3333333333333</ele><time>2026-04-04T14:38:29.001Z</time></trkpt><trkpt lat="43.64890184707451" lon="12.553984964023455"><ele>260.6666666666667</ele><time>2026-04-04T14:38:30.001Z</time></trkpt><trkpt lat="43.64878458071739" lon="12.554160957677574"><ele>260.0</ele><time>2026-04-04T14:38:31.001Z</time></trkpt><trkpt lat="43.64866443754016" lon="12.554332009367377"><ele>260.6666666666667</ele><time>2026-04-04T14:38:32.001Z</time></trkpt><trkpt lat="43.64854573893103" lon="12.554507898792998"><ele>261.3333333333333</ele><time>2026-04-04T14:38:33.001Z</time></trkpt><trkpt lat="43.64842561275696" lon="12.554681703281137"><ele>262.0</ele><time>2026-04-04T14:38:34.001Z</time></trkpt><trkpt lat="43.64830840042525" lon="12.554857244299981"><ele>262.0</ele><time>2026-04-04T14:38:35.001Z</time></trkpt><trkpt lat="43.648186779929475" lon="12.555030387324775"><ele>262.0</ele><time>2026-04-04T14:38:36.001Z</time></trkpt><trkpt lat="43.64806384181891" lon="12.555204257992584"><ele>262.0</ele><time>2026-04-04T14:38:37.001Z</time></trkpt><trkpt lat="43.64794114520704" lon="12.555379884325598"><ele>261.66666666666663</ele><time>2026-04-04T14:38:38.001Z</time></trkpt><trkpt lat="43.647815515599" lon="12.555550890944943"><ele>261.3333333333333</ele><time>2026-04-04T14:38:39.001Z</time></trkpt><trkpt lat="43.64768572964995" lon="12.555721461105277"><ele>261.0</ele><time>2026-04-04T14:38:40.001Z</time></trkpt><trkpt lat="43.64755813147674" lon="12.555889936925643"><ele>261.0</ele><time>2026-04-04T14:38:41.001Z</time></trkpt><trkpt lat="43.64743021316655" lon="12.556058212514207"><ele>261.0</ele><time>2026-04-04T14:38:42.001Z</time></trkpt><trkpt lat="43.64730171733064" lon="12.556229421222811"><ele>261.0</ele><time>2026-04-04T14:38:43.001Z</time></trkpt><trkpt lat="43.64717305621891" lon="12.556399058544857"><ele>260.6666666666667</ele><time>2026-04-04T14:38:44.001Z</time></trkpt><trkpt lat="43.647045653329144" lon="12.556571385997708"><ele>260.33333333333337</ele><time>2026-04-04T14:38:45.001Z</time></trkpt><trkpt lat="43.646920786885126" lon="12.556746271077563"><ele>260.0</ele><time>2026-04-04T14:38:46.001Z</time></trkpt><trkpt lat="43.64679410721812" lon="12.556919625184648"><ele>260.0</ele><time>2026-04-04T14:38:47.001Z</time></trkpt><trkpt lat="43.64666997253046" lon="12.557090890966993"><ele>260.0</ele><time>2026-04-04T14:38:48.001Z</time></trkpt><trkpt lat="43.646543090105595" lon="12.557259622061562"><ele>260.0</ele><time>2026-04-04T14:38:49.001Z</time></trkpt><trkpt lat="43.64641332030707" lon="12.557427419379497"><ele>260.0</ele><time>2026-04-04T14:38:50.001Z</time></trkpt><trkpt lat="43.64628888870743" lon="12.55759678617459"><ele>260.0</ele><time>2026-04-04T14:38:51.001Z</time></trkpt><trkpt lat="43.64616397216794" lon="12.55776434934704"><ele>260.0</ele><time>2026-04-04T14:38:52.001Z</time></trkpt><trkpt lat="43.64603940497598" lon="12.557930759200879"><ele>260.33333333333337</ele><time>2026-04-04T14:38:53.001Z</time></trkpt><trkpt lat="43.64591736653126" lon="12.558094257654155"><ele>260.6666666666667</ele><time>2026-04-04T14:38:54.001Z</time></trkpt><trkpt lat="43.64579758149736" lon="12.558257429183273"><ele>261.0</ele><time>2026-04-04T14:38:55.001Z</time></trkpt><trkpt lat="43.64567812294807" lon="12.558418767113876"><ele>261.0</ele><time>2026-04-04T14:38:56.001Z</time></trkpt><trkpt lat="43.64555777435769" lon="12.558581359788947"><ele>261.0</ele><time>2026-04-04T14:38:57.001Z</time></trkpt><trkpt lat="43.64543732177648" lon="12.558740628151096"><ele>261.0</ele><time>2026-04-04T14:38:58.001Z</time></trkpt><trkpt lat="43.64531710375487" lon="12.558900098421685"><ele>261.3333333333333</ele><time>2026-04-04T14:38:59.001Z</time></trkpt><trkpt lat="43.645197674688" lon="12.559060092143193"><ele>261.66666666666663</ele><time>2026-04-04T14:39:00.001Z</time></trkpt><trkpt lat="43.645082883121816" lon="12.559215680622344"><ele>262.0</ele><time>2026-04-04T14:39:01.001Z</time></trkpt><trkpt lat="43.64497588760079" lon="12.559375936027294"><ele>262.3333333333333</ele><time>2026-04-04T14:39:02.001Z</time></trkpt><trkpt lat="43.644890914310714" lon="12.55956241695913"><ele>262.6666666666667</ele><time>2026-04-04T14:39:03.001Z</time></trkpt><trkpt lat="43.64482104584416" lon="12.559772417701444"><ele>263.0</ele><time>2026-04-04T14:39:04.001Z</time></trkpt><trkpt lat="43.64474636625026" lon="12.559962574657368"><ele>263.0</ele><time>2026-04-04T14:39:05.001Z</time></trkpt><trkpt lat="43.64468488744541" lon="12.560180491226783"><ele>263.0</ele><time>2026-04-04T14:39:06.001Z</time></trkpt><trkpt lat="43.644624916497754" lon="12.560405888989107"><ele>263.0</ele><time>2026-04-04T14:39:07.001Z</time></trkpt><trkpt lat="43.64457517579908" lon="12.560634819075885"><ele>263.33333333333337</ele><time>2026-04-04T14:39:08.001Z</time></trkpt><trkpt lat="43.64450993334153" lon="12.56085669808473"><ele>263.6666666666667</ele><time>2026-04-04T14:39:09.001Z</time></trkpt><trkpt lat="43.644446628670835" lon="12.561079366763497"><ele>264.0</ele><time>2026-04-04T14:39:10.001Z</time></trkpt><trkpt lat="43.6443864319114" lon="12.561299820768275"><ele>264.0</ele><time>2026-04-04T14:39:11.001Z</time></trkpt><trkpt lat="43.6443256263805" lon="12.561514379490156"><ele>264.0</ele><time>2026-04-04T14:39:12.001Z</time></trkpt><trkpt lat="43.644268656139964" lon="12.561728825276916"><ele>264.0</ele><time>2026-04-04T14:39:13.001Z</time></trkpt><trkpt lat="43.6442115148358" lon="12.56194214602709"><ele>264.0</ele><time>2026-04-04T14:39:14.001Z</time></trkpt><trkpt lat="43.644156068468526" lon="12.562153579013463"><ele>264.0</ele><time>2026-04-04T14:39:15.001Z</time></trkpt><trkpt lat="43.64410276983682" lon="12.562368598167781"><ele>264.0</ele><time>2026-04-04T14:39:16.001Z</time></trkpt><trkpt lat="43.64403025208952" lon="12.562569910887602"><ele>264.0</ele><time>2026-04-04T14:39:17.001Z</time></trkpt><trkpt lat="43.64397183562759" lon="12.562779074996078"><ele>264.0</ele><time>2026-04-04T14:39:18.001Z</time></trkpt><trkpt lat="43.6439109008649" lon="12.562999518089905"><ele>264.0</ele><time>2026-04-04T14:39:19.001Z</time></trkpt><trkpt lat="43.64386373071253" lon="12.563229126821332"><ele>262.3333333333333</ele><time>2026-04-04T14:39:20.001Z</time></trkpt><trkpt lat="43.6437999020841" lon="12.563448815981504"><ele>260.66666666666663</ele><time>2026-04-04T14:39:21.001Z</time></trkpt><trkpt lat="43.64373409198885" lon="12.563678476410026"><ele>259.0</ele><time>2026-04-04T14:39:22.001Z</time></trkpt><trkpt lat="43.64366923165367" lon="12.563906370705466"><ele>259.0</ele><time>2026-04-04T14:39:23Z</time></trkpt><trkpt lat="43.643602208882534" lon="12.564139704212641"><ele>259.0</ele><time>2026-04-04T14:39:24Z</time></trkpt><trkpt lat="43.64353651389115" lon="12.56437418484246"><ele>259.0</ele><time>2026-04-04T14:39:25Z</time></trkpt><trkpt lat="43.64346527811305" lon="12.564616858665188"><ele>258.3333333333333</ele><time>2026-04-04T14:39:26Z</time></trkpt><trkpt lat="43.64340168006081" lon="12.564857814603062"><ele>257.6666666666667</ele><time>2026-04-04T14:39:27Z</time></trkpt><trkpt lat="43.64333764777504" lon="12.565099729752696"><ele>257.0</ele><time>2026-04-04T14:39:28Z</time></trkpt><trkpt lat="43.64327119139152" lon="12.565340184543876"><ele>255.66666666666669</ele><time>2026-04-04T14:39:29Z</time></trkpt><trkpt lat="43.64320542069311" lon="12.565580602692668"><ele>254.33333333333331</ele><time>2026-04-04T14:39:30Z</time></trkpt><trkpt lat="43.64313859989013" lon="12.5658191713144"><ele>253.0</ele><time>2026-04-04T14:39:31Z</time></trkpt><trkpt lat="43.643072334719164" lon="12.566059962975286"><ele>252.0</ele><time>2026-04-04T14:39:32Z</time></trkpt><trkpt lat="43.64299970609093" lon="12.566299501463769"><ele>251.0</ele><time>2026-04-04T14:39:33Z</time></trkpt><trkpt lat="43.64291514590833" lon="12.566524721522091"><ele>250.0</ele><time>2026-04-04T14:39:34Z</time></trkpt><trkpt lat="43.64281463363067" lon="12.566740590161654"><ele>250.0</ele><time>2026-04-04T14:39:35Z</time></trkpt><trkpt lat="43.642702658632004" lon="12.566949192248767"><ele>250.0</ele><time>2026-04-04T14:39:36Z</time></trkpt><trkpt lat="43.64258620302521" lon="12.5671505993642"><ele>250.0</ele><time>2026-04-04T14:39:37Z</time></trkpt><trkpt lat="43.64246655535984" lon="12.567350116144906"><ele>250.33333333333331</ele><time>2026-04-04T14:39:38Z</time></trkpt><trkpt lat="43.6423477560222" lon="12.567546421222888"><ele>250.66666666666669</ele><time>2026-04-04T14:39:39Z</time></trkpt><trkpt lat="43.64223221067934" lon="12.567744632676687"><ele>251.0</ele><time>2026-04-04T14:39:40Z</time></trkpt><trkpt lat="43.64211950418405" lon="12.567947094873725"><ele>251.66666666666669</ele><time>2026-04-04T14:39:41Z</time></trkpt><trkpt lat="43.64200648515915" lon="12.568147791188323"><ele>252.33333333333331</ele><time>2026-04-04T14:39:42Z</time></trkpt><trkpt lat="43.64189341993272" lon="12.56834744647657"><ele>253.0</ele><time>2026-04-04T14:39:43Z</time></trkpt><trkpt lat="43.64177935092782" lon="12.56855001053887"><ele>252.66666666666666</ele><time>2026-04-04T14:39:44Z</time></trkpt><trkpt lat="43.6416684014818" lon="12.568754069495167"><ele>252.33333333333331</ele><time>2026-04-04T14:39:45Z</time></trkpt><trkpt lat="43.64155557598293" lon="12.568961185766849"><ele>252.0</ele><time>2026-04-04T14:39:46Z</time></trkpt><trkpt lat="43.64144977472465" lon="12.569178520265178"><ele>252.0</ele><time>2026-04-04T14:39:47Z</time></trkpt><trkpt lat="43.64135269476353" lon="12.56939847565345"><ele>252.0</ele><time>2026-04-04T14:39:48Z</time></trkpt><trkpt lat="43.641267777534985" lon="12.56963073281317"><ele>252.0</ele><time>2026-04-04T14:39:49Z</time></trkpt><trkpt lat="43.64118016789706" lon="12.569858989467521"><ele>252.33333333333331</ele><time>2026-04-04T14:39:50Z</time></trkpt><trkpt lat="43.64109477200048" lon="12.570089830313208"><ele>252.66666666666666</ele><time>2026-04-04T14:39:51Z</time></trkpt><trkpt lat="43.641010011090884" lon="12.570320744519202"><ele>253.0</ele><time>2026-04-04T14:39:52Z</time></trkpt><trkpt lat="43.64092447547927" lon="12.5705485676587"><ele>253.0</ele><time>2026-04-04T14:39:53Z</time></trkpt><trkpt lat="43.64083825742463" lon="12.570776891338259"><ele>253.0</ele><time>2026-04-04T14:39:54Z</time></trkpt><trkpt lat="43.640753254905576" lon="12.571007081255873"><ele>253.0</ele><time>2026-04-04T14:39:55Z</time></trkpt><trkpt lat="43.64066784302206" lon="12.571241693548766"><ele>252.0</ele><time>2026-04-04T14:39:56Z</time></trkpt><trkpt lat="43.64058462443334" lon="12.571475409075493"><ele>251.0</ele><time>2026-04-04T14:39:57Z</time></trkpt><trkpt lat="43.64050549347356" lon="12.571709454437562"><ele>250.0</ele><time>2026-04-04T14:39:58Z</time></trkpt><trkpt lat="43.640430294836364" lon="12.571945560489343"><ele>250.66666666666666</ele><time>2026-04-04T14:39:59Z</time></trkpt><trkpt lat="43.640359334927915" lon="12.572182568247017"><ele>251.33333333333331</ele><time>2026-04-04T14:40:00Z</time></trkpt><trkpt lat="43.640289411748434" lon="12.572422430204503"><ele>252.0</ele><time>2026-04-04T14:40:01Z</time></trkpt><trkpt lat="43.640222599554164" lon="12.572665435626948"><ele>251.66666666666669</ele><time>2026-04-04T14:40:02Z</time></trkpt><trkpt lat="43.64015629906989" lon="12.572908829857903"><ele>251.33333333333334</ele><time>2026-04-04T14:40:03Z</time></trkpt><trkpt lat="43.64009192071455" lon="12.573149448023612"><ele>251.0</ele><time>2026-04-04T14:40:04Z</time></trkpt><trkpt lat="43.640029410511445" lon="12.573388318985238"><ele>251.0</ele><time>2026-04-04T14:40:05Z</time></trkpt><trkpt lat="43.639966929112425" lon="12.57363292186664"><ele>251.0</ele><time>2026-04-04T14:40:06Z</time></trkpt><trkpt lat="43.63990588025197" lon="12.573875897379443"><ele>251.0</ele><time>2026-04-04T14:40:07Z</time></trkpt><trkpt lat="43.639842770750846" lon="12.574118127128207"><ele>250.33333333333334</ele><time>2026-04-04T14:40:08Z</time></trkpt><trkpt lat="43.63977954238807" lon="12.574361861721233"><ele>249.66666666666669</ele><time>2026-04-04T14:40:09Z</time></trkpt><trkpt lat="43.639715681533374" lon="12.574604660839361"><ele>249.0</ele><time>2026-04-04T14:40:10Z</time></trkpt><trkpt lat="43.63965118575383" lon="12.574844044024923"><ele>249.0</ele><time>2026-04-04T14:40:11Z</time></trkpt><trkpt lat="43.63958811573773" lon="12.57508636474179"><ele>249.0</ele><time>2026-04-04T14:40:12.001Z</time></trkpt><trkpt lat="43.63952728594635" lon="12.575327675102098"><ele>249.0</ele><time>2026-04-04T14:40:13.001Z</time></trkpt><trkpt lat="43.63946560191562" lon="12.57557027070537"><ele>249.0</ele><time>2026-04-04T14:40:14.001Z</time></trkpt><trkpt lat="43.63940444608613" lon="12.57581653942224"><ele>249.0</ele><time>2026-04-04T14:40:15.001Z</time></trkpt><trkpt lat="43.639326166551896" lon="12.576056773147092"><ele>249.0</ele><time>2026-04-04T14:40:16.001Z</time></trkpt><trkpt lat="43.63927798858359" lon="12.57630906494594"><ele>249.0</ele><time>2026-04-04T14:40:17.001Z</time></trkpt><trkpt lat="43.63921490350794" lon="12.576550344450276"><ele>249.0</ele><time>2026-04-04T14:40:18.001Z</time></trkpt><trkpt lat="43.639145041935784" lon="12.576792550251364"><ele>249.0</ele><time>2026-04-04T14:40:19.001Z</time></trkpt><trkpt lat="43.639083002272855" lon="12.577035952745101"><ele>248.33333333333331</ele><time>2026-04-04T14:40:20.001Z</time></trkpt><trkpt lat="43.639025696458674" lon="12.577280631210614"><ele>247.66666666666666</ele><time>2026-04-04T14:40:21.001Z</time></trkpt><trkpt lat="43.638979670833926" lon="12.577532031162798"><ele>247.0</ele><time>2026-04-04T14:40:22.001Z</time></trkpt><trkpt lat="43.63894760375352" lon="12.577788740998171"><ele>248.0</ele><time>2026-04-04T14:40:23.001Z</time></trkpt><trkpt lat="43.63892738914749" lon="12.578041337871378"><ele>249.0</ele><time>2026-04-04T14:40:24.001Z</time></trkpt><trkpt lat="43.638916060299515" lon="12.57830098163878"><ele>250.0</ele><time>2026-04-04T14:40:25.001Z</time></trkpt><trkpt lat="43.63890981565703" lon="12.578555223025015"><ele>249.66666666666666</ele><time>2026-04-04T14:40:26.001Z</time></trkpt><trkpt lat="43.63889747034245" lon="12.578807464984578"><ele>249.33333333333331</ele><time>2026-04-04T14:40:27.001Z</time></trkpt><trkpt lat="43.63888357049078" lon="12.579065236355904"><ele>249.0</ele><time>2026-04-04T14:40:28.001Z</time></trkpt><trkpt lat="43.638871428889054" lon="12.57932135549103"><ele>249.33333333333331</ele><time>2026-04-04T14:40:29.001Z</time></trkpt><trkpt lat="43.63885649447653" lon="12.579578614345824"><ele>249.66666666666666</ele><time>2026-04-04T14:40:30.001Z</time></trkpt><trkpt lat="43.638827636856576" lon="12.579831177743559"><ele>250.0</ele><time>2026-04-04T14:40:31.001Z</time></trkpt><trkpt lat="43.63876804269291" lon="12.580071691757203"><ele>250.0</ele><time>2026-04-04T14:40:32.001Z</time></trkpt><trkpt lat="43.63868365490874" lon="12.580270168570678"><ele>250.0</ele><time>2026-04-04T14:40:33.001Z</time></trkpt><trkpt lat="43.63856501819508" lon="12.580431106093592"><ele>250.0</ele><time>2026-04-04T14:40:34.001Z</time></trkpt><trkpt lat="43.638424245443225" lon="12.580570857565114"><ele>252.0</ele><time>2026-04-04T14:40:35.001Z</time></trkpt><trkpt lat="43.638276229847904" lon="12.580693546002157"><ele>254.0</ele><time>2026-04-04T14:40:36.001Z</time></trkpt><trkpt lat="43.63812168866587" lon="12.580800718592283"><ele>256.0</ele><time>2026-04-04T14:40:37.001Z</time></trkpt><trkpt lat="43.63796705082694" lon="12.580918203675425"><ele>256.0</ele><time>2026-04-04T14:40:38.001Z</time></trkpt><trkpt lat="43.63781420664874" lon="12.581040348543128"><ele>256.0</ele><time>2026-04-04T14:40:39.001Z</time></trkpt><trkpt lat="43.63765580236329" lon="12.581161413675343"><ele>256.0</ele><time>2026-04-04T14:40:40.001Z</time></trkpt><trkpt lat="43.637495943134404" lon="12.581281985555503"><ele>256.0</ele><time>2026-04-04T14:40:41.001Z</time></trkpt><trkpt lat="43.63732966813294" lon="12.58139412231454"><ele>256.0</ele><time>2026-04-04T14:40:42.001Z</time></trkpt><trkpt lat="43.637167863967356" lon="12.581515669870365"><ele>256.0</ele><time>2026-04-04T14:40:43.001Z</time></trkpt><trkpt lat="43.63700518325559" lon="12.581643199729047"><ele>257.3333333333333</ele><time>2026-04-04T14:40:44.001Z</time></trkpt><trkpt lat="43.63684593692323" lon="12.581767783736128"><ele>258.6666666666667</ele><time>2026-04-04T14:40:45.001Z</time></trkpt><trkpt lat="43.63668488001017" lon="12.581882774932172"><ele>260.0</ele><time>2026-04-04T14:40:46.001Z</time></trkpt><trkpt lat="43.63652798661254" lon="12.582001537582219"><ele>260.0</ele><time>2026-04-04T14:40:47.001Z</time></trkpt><trkpt lat="43.63637324587605" lon="12.582119724809944"><ele>260.0</ele><time>2026-04-04T14:40:48.001Z</time></trkpt><trkpt lat="43.63621821797409" lon="12.582234073138652"><ele>260.0</ele><time>2026-04-04T14:40:49.001Z</time></trkpt><trkpt lat="43.63606005834863" lon="12.582352121247663"><ele>260.0</ele><time>2026-04-04T14:40:50.001Z</time></trkpt><trkpt lat="43.635899926448765" lon="12.582473322685011"><ele>260.0</ele><time>2026-04-04T14:40:51.001Z</time></trkpt><trkpt lat="43.635733130540274" lon="12.582580924531609"><ele>260.0</ele><time>2026-04-04T14:40:52.001Z</time></trkpt><trkpt lat="43.635567214781" lon="12.582693030477671"><ele>260.0</ele><time>2026-04-04T14:40:53.001Z</time></trkpt><trkpt lat="43.635396029548005" lon="12.582784442481119"><ele>260.0</ele><time>2026-04-04T14:40:54.001Z</time></trkpt><trkpt lat="43.63521599729278" lon="12.582871840872839"><ele>260.0</ele><time>2026-04-04T14:40:55.001Z</time></trkpt><trkpt lat="43.635032622197706" lon="12.582973637214366"><ele>257.33333333333337</ele><time>2026-04-04T14:40:56.001Z</time></trkpt><trkpt lat="43.63484473177629" lon="12.583059333451825"><ele>254.66666666666669</ele><time>2026-04-04T14:40:57.001Z</time></trkpt><trkpt lat="43.63465913251863" lon="12.583149702440965"><ele>252.0</ele><time>2026-04-04T14:40:58.001Z</time></trkpt><trkpt lat="43.63447377818736" lon="12.583240551996463"><ele>253.66666666666669</ele><time>2026-04-04T14:40:59.001Z</time></trkpt><trkpt lat="43.63429022173083" lon="12.583337424532745"><ele>255.33333333333334</ele><time>2026-04-04T14:41:00.001Z</time></trkpt><trkpt lat="43.63410183911885" lon="12.583418576468473"><ele>257.0</ele><time>2026-04-04T14:41:01.001Z</time></trkpt><trkpt lat="43.63393068976767" lon="12.583551291796505"><ele>257.0</ele><time>2026-04-04T14:41:02.001Z</time></trkpt><trkpt lat="43.63375148566944" lon="12.58367324874748"><ele>257.0</ele><time>2026-04-04T14:41:03.001Z</time></trkpt><trkpt lat="43.63358200177545" lon="12.58381121620072"><ele>257.0</ele><time>2026-04-04T14:41:04.001Z</time></trkpt><trkpt lat="43.63341400056807" lon="12.583955919377429"><ele>257.0</ele><time>2026-04-04T14:41:05.001Z</time></trkpt><trkpt lat="43.63324836612845" lon="12.584099041486418"><ele>257.0</ele><time>2026-04-04T14:41:06.001Z</time></trkpt><trkpt lat="43.63308376706025" lon="12.584240932095883"><ele>257.0</ele><time>2026-04-04T14:41:07.001Z</time></trkpt><trkpt lat="43.632920871041456" lon="12.584379661523304"><ele>258.33333333333337</ele><time>2026-04-04T14:41:08.001Z</time></trkpt><trkpt lat="43.632758487700315" lon="12.584514052289434"><ele>259.6666666666667</ele><time>2026-04-04T14:41:09.001Z</time></trkpt><trkpt lat="43.63259906984266" lon="12.584650956662186"><ele>261.0</ele><time>2026-04-04T14:41:10.001Z</time></trkpt><trkpt lat="43.63244175775977" lon="12.584788149930485"><ele>261.0</ele><time>2026-04-04T14:41:11.001Z</time></trkpt><trkpt lat="43.63228839076068" lon="12.584921032868873"><ele>261.0</ele><time>2026-04-04T14:41:12.001Z</time></trkpt><trkpt lat="43.63213819372944" lon="12.585055101899867"><ele>261.0</ele><time>2026-04-04T14:41:13.001Z</time></trkpt><trkpt lat="43.63198416517869" lon="12.585168446787812"><ele>261.0</ele><time>2026-04-04T14:41:14.001Z</time></trkpt><trkpt lat="43.63185504465664" lon="12.585333861334032"><ele>261.0</ele><time>2026-04-04T14:41:15.001Z</time></trkpt><trkpt lat="43.63174250436792" lon="12.585497518815526"><ele>261.0</ele><time>2026-04-04T14:41:16.001Z</time></trkpt><trkpt lat="43.6316586840196" lon="12.585708226733354"><ele>261.3333333333333</ele><time>2026-04-04T14:41:17.001Z</time></trkpt><trkpt lat="43.631610148899206" lon="12.585933939265622"><ele>261.66666666666663</ele><time>2026-04-04T14:41:18.002Z</time></trkpt><trkpt lat="43.63159786312969" lon="12.586166829950558"><ele>262.0</ele><time>2026-04-04T14:41:19.002Z</time></trkpt><trkpt lat="43.631617635175516" lon="12.586408613497941"><ele>263.66666666666663</ele><time>2026-04-04T14:41:20.002Z</time></trkpt><trkpt lat="43.6316576630898" lon="12.586652645216963"><ele>265.3333333333333</ele><time>2026-04-04T14:41:21.002Z</time></trkpt><trkpt lat="43.63170348002402" lon="12.586907031763385"><ele>267.0</ele><time>2026-04-04T14:41:22.002Z</time></trkpt><trkpt lat="43.6317439126276" lon="12.587162875502374"><ele>267.0</ele><time>2026-04-04T14:41:23.002Z</time></trkpt><trkpt lat="43.63178518570688" lon="12.587414348952011"><ele>267.0</ele><time>2026-04-04T14:41:24.002Z</time></trkpt><trkpt lat="43.63181453527764" lon="12.587663692616099"><ele>267.0</ele><time>2026-04-04T14:41:25.002Z</time></trkpt><trkpt lat="43.631784824946344" lon="12.587904948534867"><ele>268.3333333333333</ele><time>2026-04-04T14:41:26.002Z</time></trkpt><trkpt lat="43.63174192342204" lon="12.588132854548503"><ele>269.66666666666663</ele><time>2026-04-04T14:41:27.002Z</time></trkpt><trkpt lat="43.63162915474061" lon="12.588326404378126"><ele>271.0</ele><time>2026-04-04T14:41:28.002Z</time></trkpt><trkpt lat="43.631509906388416" lon="12.588529128543877"><ele>273.0</ele><time>2026-04-04T14:41:29Z</time></trkpt><trkpt lat="43.63140183240065" lon="12.588742263990135"><ele>275.0</ele><time>2026-04-04T14:41:30Z</time></trkpt><trkpt lat="43.63127835651527" lon="12.588947917712387"><ele>277.0</ele><time>2026-04-04T14:41:31Z</time></trkpt><trkpt lat="43.63115321266444" lon="12.589154472359056"><ele>277.0</ele><time>2026-04-04T14:41:32Z</time></trkpt><trkpt lat="43.63103253001136" lon="12.58936058899541"><ele>277.0</ele><time>2026-04-04T14:41:33Z</time></trkpt><trkpt lat="43.63091466748067" lon="12.589556323341503"><ele>277.0</ele><time>2026-04-04T14:41:34Z</time></trkpt><trkpt lat="43.63079656609931" lon="12.589743985656293"><ele>277.0</ele><time>2026-04-04T14:41:35Z</time></trkpt><trkpt lat="43.63069504517818" lon="12.589948331348745"><ele>277.0</ele><time>2026-04-04T14:41:36Z</time></trkpt><trkpt lat="43.630630209129166" lon="12.590176000152308"><ele>277.0</ele><time>2026-04-04T14:41:37Z</time></trkpt><trkpt lat="43.630592428458876" lon="12.590430869044221"><ele>277.66666666666663</ele><time>2026-04-04T14:41:38Z</time></trkpt><trkpt lat="43.63060204667164" lon="12.590704574267114"><ele>278.3333333333333</ele><time>2026-04-04T14:41:39Z</time></trkpt><trkpt lat="43.63061598033792" lon="12.590976882156927"><ele>279.0</ele><time>2026-04-04T14:41:40Z</time></trkpt><trkpt lat="43.63061632631243" lon="12.591249050649155"><ele>279.6666666666667</ele><time>2026-04-04T14:41:41Z</time></trkpt><trkpt lat="43.63059243985476" lon="12.591520819394487"><ele>280.33333333333337</ele><time>2026-04-04T14:41:42Z</time></trkpt><trkpt lat="43.63054461062188" lon="12.591787439639408"><ele>281.0</ele><time>2026-04-04T14:41:43Z</time></trkpt><trkpt lat="43.63048309768576" lon="12.592057166640007"><ele>280.6666666666667</ele><time>2026-04-04T14:41:44Z</time></trkpt><trkpt lat="43.6304286775728" lon="12.592337695212963"><ele>280.3333333333333</ele><time>2026-04-04T14:41:45Z</time></trkpt><trkpt lat="43.63034616058693" lon="12.5926068876476"><ele>280.0</ele><time>2026-04-04T14:41:46Z</time></trkpt><trkpt lat="43.630280506349" lon="12.592874988687022"><ele>280.0</ele><time>2026-04-04T14:41:47Z</time></trkpt><trkpt lat="43.63021462706493" lon="12.593139990714356"><ele>280.0</ele><time>2026-04-04T14:41:48Z</time></trkpt><trkpt lat="43.63015075950478" lon="12.593399629635103"><ele>280.0</ele><time>2026-04-04T14:41:49Z</time></trkpt><trkpt lat="43.63010363408719" lon="12.593660647662347"><ele>282.3333333333333</ele><time>2026-04-04T14:41:50Z</time></trkpt><trkpt lat="43.630040803934655" lon="12.59390404918127"><ele>284.6666666666667</ele><time>2026-04-04T14:41:51Z</time></trkpt><trkpt lat="43.62997924424225" lon="12.594145456598634"><ele>287.0</ele><time>2026-04-04T14:41:52Z</time></trkpt><trkpt lat="43.629921141950355" lon="12.594384598215566"><ele>289.6666666666667</ele><time>2026-04-04T14:41:53Z</time></trkpt><trkpt lat="43.62986710877708" lon="12.594615742664846"><ele>292.3333333333333</ele><time>2026-04-04T14:41:54Z</time></trkpt><trkpt lat="43.629812571229536" lon="12.594842532069462"><ele>295.0</ele><time>2026-04-04T14:41:55Z</time></trkpt><trkpt lat="43.629758277932915" lon="12.595062827660575"><ele>295.0</ele><time>2026-04-04T14:41:56Z</time></trkpt><trkpt lat="43.629707100493164" lon="12.595281751351774"><ele>295.0</ele><time>2026-04-04T14:41:57Z</time></trkpt><trkpt lat="43.62966110734817" lon="12.595497523650769"><ele>295.0</ele><time>2026-04-04T14:41:58Z</time></trkpt><trkpt lat="43.629619850517564" lon="12.595718992448383"><ele>295.66666666666663</ele><time>2026-04-04T14:41:59Z</time></trkpt><trkpt lat="43.629590239011385" lon="12.595941542525512"><ele>296.3333333333333</ele><time>2026-04-04T14:42:00Z</time></trkpt><trkpt lat="43.62956948629067" lon="12.596165223865038"><ele>297.0</ele><time>2026-04-04T14:42:01Z</time></trkpt><trkpt lat="43.62956430875711" lon="12.596392698763179"><ele>297.3333333333333</ele><time>2026-04-04T14:42:02Z</time></trkpt><trkpt lat="43.62956437769983" lon="12.596623480605045"><ele>297.66666666666663</ele><time>2026-04-04T14:42:03Z</time></trkpt><trkpt lat="43.629563469591034" lon="12.596856984423251"><ele>298.0</ele><time>2026-04-04T14:42:04Z</time></trkpt><trkpt lat="43.62956259598476" lon="12.597087225291546"><ele>298.0</ele><time>2026-04-04T14:42:05Z</time></trkpt><trkpt lat="43.62955503314003" lon="12.597321836081893"><ele>298.0</ele><time>2026-04-04T14:42:06Z</time></trkpt><trkpt lat="43.62954226891806" lon="12.597565851012178"><ele>298.0</ele><time>2026-04-04T14:42:07Z</time></trkpt><trkpt lat="43.629526604537304" lon="12.597810981879437"><ele>297.3333333333333</ele><time>2026-04-04T14:42:08Z</time></trkpt><trkpt lat="43.62950716642854" lon="12.59806017399679"><ele>296.6666666666667</ele><time>2026-04-04T14:42:09Z</time></trkpt><trkpt lat="43.62948799216561" lon="12.59831550862029"><ele>296.0</ele><time>2026-04-04T14:42:10Z</time></trkpt><trkpt lat="43.629470028969834" lon="12.598572977801819"><ele>296.6666666666667</ele><time>2026-04-04T14:42:11Z</time></trkpt><trkpt lat="43.629450896677234" lon="12.598830974279723"><ele>297.3333333333333</ele><time>2026-04-04T14:42:12Z</time></trkpt><trkpt lat="43.62943067147154" lon="12.599091535224494"><ele>298.0</ele><time>2026-04-04T14:42:13.001Z</time></trkpt><trkpt lat="43.629407962371175" lon="12.599355739668173"><ele>299.3333333333333</ele><time>2026-04-04T14:42:14.001Z</time></trkpt><trkpt lat="43.62939177581659" lon="12.599626962235805"><ele>300.6666666666667</ele><time>2026-04-04T14:42:15.001Z</time></trkpt><trkpt lat="43.629385552898995" lon="12.59991131221815"><ele>302.0</ele><time>2026-04-04T14:42:16.001Z</time></trkpt><trkpt lat="43.62938532491572" lon="12.600198931731073"><ele>302.0</ele><time>2026-04-04T14:42:17.001Z</time></trkpt><trkpt lat="43.629388937992424" lon="12.600493130020105"><ele>302.0</ele><time>2026-04-04T14:42:18.001Z</time></trkpt><trkpt lat="43.62939316289864" lon="12.60078804836857"><ele>302.0</ele><time>2026-04-04T14:42:19.001Z</time></trkpt><trkpt lat="43.62939625901091" lon="12.601086060776383"><ele>302.0</ele><time>2026-04-04T14:42:20.001Z</time></trkpt><trkpt lat="43.62939474776939" lon="12.601382858724726"><ele>302.0</ele><time>2026-04-04T14:42:21.001Z</time></trkpt><trkpt lat="43.62939169428994" lon="12.60167882022251"><ele>302.0</ele><time>2026-04-04T14:42:22.001Z</time></trkpt><trkpt lat="43.6293900953463" lon="12.6019703101012"><ele>303.6666666666667</ele><time>2026-04-04T14:42:23.001Z</time></trkpt><trkpt lat="43.62939016522772" lon="12.602259131301041"><ele>305.3333333333333</ele><time>2026-04-04T14:42:24.001Z</time></trkpt><trkpt lat="43.62939387513406" lon="12.602545422720786"><ele>307.0</ele><time>2026-04-04T14:42:25.001Z</time></trkpt><trkpt lat="43.62942058444461" lon="12.602834011665069"><ele>309.3333333333333</ele><time>2026-04-04T14:42:26.001Z</time></trkpt><trkpt lat="43.629468727165765" lon="12.603118153580374"><ele>311.6666666666667</ele><time>2026-04-04T14:42:27.001Z</time></trkpt><trkpt lat="43.629516829770886" lon="12.603407073882913"><ele>314.0</ele><time>2026-04-04T14:42:28.001Z</time></trkpt><trkpt lat="43.6295534575086" lon="12.603697274528848"><ele>314.33333333333337</ele><time>2026-04-04T14:42:29.001Z</time></trkpt><trkpt lat="43.62957901688752" lon="12.603985287724965"><ele>314.6666666666667</ele><time>2026-04-04T14:42:30.001Z</time></trkpt><trkpt lat="43.6295735877783" lon="12.604276618774195"><ele>315.0</ele><time>2026-04-04T14:42:31.001Z</time></trkpt><trkpt lat="43.62952595071125" lon="12.604559376741346"><ele>317.0</ele><time>2026-04-04T14:42:32.001Z</time></trkpt><trkpt lat="43.62942551829025" lon="12.604815551213234"><ele>319.0</ele><time>2026-04-04T14:42:33.001Z</time></trkpt><trkpt lat="43.62933808697388" lon="12.605080630105903"><ele>321.0</ele><time>2026-04-04T14:42:34.001Z</time></trkpt><trkpt lat="43.629227957449515" lon="12.605332685399134"><ele>323.3333333333333</ele><time>2026-04-04T14:42:35.001Z</time></trkpt><trkpt lat="43.62912428992956" lon="12.605590824484452"><ele>325.66666666666663</ele><time>2026-04-04T14:42:36.001Z</time></trkpt><trkpt lat="43.629028951160485" lon="12.605837839503671"><ele>328.0</ele><time>2026-04-04T14:42:37.001Z</time></trkpt><trkpt lat="43.62892949869657" lon="12.606073275092891"><ele>329.3333333333333</ele><time>2026-04-04T14:42:38.001Z</time></trkpt><trkpt lat="43.62881568499223" lon="12.606304573514098"><ele>330.6666666666667</ele><time>2026-04-04T14:42:39.001Z</time></trkpt><trkpt lat="43.62869310375136" lon="12.606539671947443"><ele>332.0</ele><time>2026-04-04T14:42:40.001Z</time></trkpt><trkpt lat="43.62856655468154" lon="12.606778309851483"><ele>329.0</ele><time>2026-04-04T14:42:41.001Z</time></trkpt><trkpt lat="43.62844073487953" lon="12.607019229015814"><ele>326.0</ele><time>2026-04-04T14:42:42.001Z</time></trkpt><trkpt lat="43.6283188793028" lon="12.607259907324146"><ele>323.0</ele><time>2026-04-04T14:42:43.001Z</time></trkpt><trkpt lat="43.628193330809545" lon="12.607489228278935"><ele>323.0</ele><time>2026-04-04T14:42:44.001Z</time></trkpt><trkpt lat="43.62804943464203" lon="12.607695646069551"><ele>323.0</ele><time>2026-04-04T14:42:45.001Z</time></trkpt><trkpt lat="43.62788039271417" lon="12.607868832647972"><ele>323.0</ele><time>2026-04-04T14:42:46.001Z</time></trkpt><trkpt lat="43.62768339524394" lon="12.607982904404762"><ele>324.6666666666667</ele><time>2026-04-04T14:42:47.001Z</time></trkpt><trkpt lat="43.62748756640476" lon="12.608112782185495"><ele>326.3333333333333</ele><time>2026-04-04T14:42:48.001Z</time></trkpt><trkpt lat="43.62729469613641" lon="12.608237039465608"><ele>328.0</ele><time>2026-04-04T14:42:49.001Z</time></trkpt><trkpt lat="43.62711457303303" lon="12.608375891445336"><ele>327.0</ele><time>2026-04-04T14:42:50.001Z</time></trkpt><trkpt lat="43.62693428314005" lon="12.608495956304695"><ele>326.0</ele><time>2026-04-04T14:42:51.001Z</time></trkpt><trkpt lat="43.6267499336607" lon="12.608588207289598"><ele>325.0</ele><time>2026-04-04T14:42:52.001Z</time></trkpt><trkpt lat="43.626553038341534" lon="12.608642300174347"><ele>329.66666666666663</ele><time>2026-04-04T14:42:53.001Z</time></trkpt><trkpt lat="43.62634950827022" lon="12.608682689633548"><ele>334.3333333333333</ele><time>2026-04-04T14:42:54.001Z</time></trkpt><trkpt lat="43.62614089822116" lon="12.60872151462995"><ele>339.0</ele><time>2026-04-04T14:42:55.001Z</time></trkpt><trkpt lat="43.6259384615838" lon="12.608756263843272"><ele>339.0</ele><time>2026-04-04T14:42:56.001Z</time></trkpt><trkpt lat="43.62575062987654" lon="12.608785452681069"><ele>339.0</ele><time>2026-04-04T14:42:57.001Z</time></trkpt><trkpt lat="43.62556464234284" lon="12.608817691514853"><ele>339.0</ele><time>2026-04-04T14:42:58.001Z</time></trkpt><trkpt lat="43.62537518116349" lon="12.608848262977187"><ele>338.6666666666667</ele><time>2026-04-04T14:42:59.001Z</time></trkpt><trkpt lat="43.625186969052606" lon="12.608888668306502"><ele>338.33333333333337</ele><time>2026-04-04T14:43:00.001Z</time></trkpt><trkpt lat="43.62501025574507" lon="12.608953662780062"><ele>338.0</ele><time>2026-04-04T14:43:01.001Z</time></trkpt><trkpt lat="43.6248400764316" lon="12.609059092200889"><ele>338.0</ele><time>2026-04-04T14:43:02.001Z</time></trkpt><trkpt lat="43.62468073542239" lon="12.60921036431851"><ele>338.0</ele><time>2026-04-04T14:43:03.001Z</time></trkpt><trkpt lat="43.62453120643347" lon="12.60939279134633"><ele>338.0</ele><time>2026-04-04T14:43:04.001Z</time></trkpt><trkpt lat="43.62438356990193" lon="12.609583639955808"><ele>338.0</ele><time>2026-04-04T14:43:05.001Z</time></trkpt><trkpt lat="43.62423151734039" lon="12.609777741539544"><ele>338.0</ele><time>2026-04-04T14:43:06.001Z</time></trkpt><trkpt lat="43.62408176313851" lon="12.609965251333978"><ele>338.0</ele><time>2026-04-04T14:43:07.001Z</time></trkpt><trkpt lat="43.62393539172776" lon="12.61014711193396"><ele>337.6666666666667</ele><time>2026-04-04T14:43:08.001Z</time></trkpt><trkpt lat="43.62379772614285" lon="12.610328104909431"><ele>337.3333333333333</ele><time>2026-04-04T14:43:09.001Z</time></trkpt><trkpt lat="43.62367223488715" lon="12.610509183534916"><ele>337.0</ele><time>2026-04-04T14:43:10.001Z</time></trkpt><trkpt lat="43.6235306556236" lon="12.61065100197234"><ele>337.0</ele><time>2026-04-04T14:43:11.001Z</time></trkpt><trkpt lat="43.62336546947437" lon="12.610740323713959"><ele>337.0</ele><time>2026-04-04T14:43:12.001Z</time></trkpt><trkpt lat="43.623189190068" lon="12.610770456003731"><ele>337.0</ele><time>2026-04-04T14:43:13.001Z</time></trkpt><trkpt lat="43.623011919801016" lon="12.610726460133636"><ele>337.0</ele><time>2026-04-04T14:43:14.001Z</time></trkpt><trkpt lat="43.622829787830106" lon="12.610646462325086"><ele>337.0</ele><time>2026-04-04T14:43:15.001Z</time></trkpt><trkpt lat="43.62264331628905" lon="12.610564656928554"><ele>337.0</ele><time>2026-04-04T14:43:16.001Z</time></trkpt><trkpt lat="43.62245770488254" lon="12.610489685309725"><ele>336.66666666666663</ele><time>2026-04-04T14:43:17.001Z</time></trkpt><trkpt lat="43.622274253689554" lon="12.610419417100095"><ele>336.3333333333333</ele><time>2026-04-04T14:43:18.001Z</time></trkpt><trkpt lat="43.622090789146334" lon="12.61035687159183"><ele>336.0</ele><time>2026-04-04T14:43:19.001Z</time></trkpt><trkpt lat="43.621904787642706" lon="12.610319798137308"><ele>332.0</ele><time>2026-04-04T14:43:20.001Z</time></trkpt><trkpt lat="43.62171800598046" lon="12.610298191793891"><ele>328.0</ele><time>2026-04-04T14:43:21.001Z</time></trkpt><trkpt lat="43.621534497436684" lon="12.610283594257151"><ele>324.0</ele><time>2026-04-04T14:43:22.001Z</time></trkpt><trkpt lat="43.62136502339358" lon="12.61027046555992"><ele>324.0</ele><time>2026-04-04T14:43:23.002Z</time></trkpt><trkpt lat="43.62120274811386" lon="12.610261018595075"><ele>324.0</ele><time>2026-04-04T14:43:24.002Z</time></trkpt><trkpt lat="43.62105289655561" lon="12.610305191027798"><ele>324.0</ele><time>2026-04-04T14:43:25.002Z</time></trkpt><trkpt lat="43.620927049182825" lon="12.610412806844716"><ele>323.5</ele><time>2026-04-04T14:43:26.002Z</time></trkpt><trkpt lat="43.62084582629799" lon="12.610572049903006"><ele>323.0</ele><time>2026-04-04T14:43:27.002Z</time></trkpt><trkpt lat="43.6208010970417" lon="12.61077218405227"><ele>322.5</ele><time>2026-04-04T14:43:28.002Z</time></trkpt><trkpt lat="43.62080481617356" lon="12.610984096228304"><ele>322.0</ele><time>2026-04-04T14:43:29.002Z</time></trkpt><trkpt lat="43.62086265674571" lon="12.611188743611669"><ele>323.3333333333333</ele><time>2026-04-04T14:43:30.002Z</time></trkpt><trkpt lat="43.620966426060946" lon="12.611356919757736"><ele>324.6666666666667</ele><time>2026-04-04T14:43:31.002Z</time></trkpt><trkpt lat="43.62109234501487" lon="12.611501858622898"><ele>326.0</ele><time>2026-04-04T14:43:32.002Z</time></trkpt><trkpt lat="43.62121960773551" lon="12.611653470795838"><ele>326.0</ele><time>2026-04-04T14:43:33.002Z</time></trkpt><trkpt lat="43.62133612468503" lon="12.611813656166097"><ele>326.0</ele><time>2026-04-04T14:43:34.002Z</time></trkpt><trkpt lat="43.621420817550636" lon="12.61200534236736"><ele>326.0</ele><time>2026-04-04T14:43:35Z</time></trkpt><trkpt lat="43.62146949358174" lon="12.612221435149502"><ele>323.33333333333337</ele><time>2026-04-04T14:43:36Z</time></trkpt><trkpt lat="43.621462960833206" lon="12.61244774510642"><ele>320.6666666666667</ele><time>2026-04-04T14:43:37Z</time></trkpt><trkpt lat="43.62146176535645" lon="12.612681924835098"><ele>318.0</ele><time>2026-04-04T14:43:38Z</time></trkpt><trkpt lat="43.62144383683248" lon="12.612915736311752"><ele>317.0</ele><time>2026-04-04T14:43:39Z</time></trkpt><trkpt lat="43.62144992731138" lon="12.613149990137634"><ele>316.0</ele><time>2026-04-04T14:43:40Z</time></trkpt><trkpt lat="43.62145570796261" lon="12.613385903617852"><ele>315.0</ele><time>2026-04-04T14:43:41Z</time></trkpt><trkpt lat="43.621482254323766" lon="12.613621740588773"><ele>312.3333333333333</ele><time>2026-04-04T14:43:42Z</time></trkpt><trkpt lat="43.621509437463324" lon="12.613857999998393"><ele>309.66666666666663</ele><time>2026-04-04T14:43:43Z</time></trkpt><trkpt lat="43.62153710331594" lon="12.614097705913583"><ele>307.0</ele><time>2026-04-04T14:43:44Z</time></trkpt><trkpt lat="43.62157285207103" lon="12.614340357069397"><ele>306.0</ele><time>2026-04-04T14:43:45Z</time></trkpt><trkpt lat="43.62159466698581" lon="12.61459187748923"><ele>305.0</ele><time>2026-04-04T14:43:46Z</time></trkpt><trkpt lat="43.62162021696286" lon="12.6148447362747"><ele>304.0</ele><time>2026-04-04T14:43:47Z</time></trkpt><trkpt lat="43.621643574821924" lon="12.615093831134132"><ele>302.66666666666663</ele><time>2026-04-04T14:43:48Z</time></trkpt><trkpt lat="43.621663285235215" lon="12.615344681590054"><ele>301.3333333333333</ele><time>2026-04-04T14:43:49Z</time></trkpt><trkpt lat="43.621672635253596" lon="12.615596807582465"><ele>300.0</ele><time>2026-04-04T14:43:50Z</time></trkpt><trkpt lat="43.62167354814713" lon="12.615847447759206"><ele>300.0</ele><time>2026-04-04T14:43:51Z</time></trkpt><trkpt lat="43.62167324570839" lon="12.61609842509306"><ele>300.0</ele><time>2026-04-04T14:43:52Z</time></trkpt><trkpt lat="43.62167148799241" lon="12.616347161699125"><ele>300.0</ele><time>2026-04-04T14:43:53Z</time></trkpt><trkpt lat="43.621672051639344" lon="12.61658470042135"><ele>298.75</ele><time>2026-04-04T14:43:54Z</time></trkpt><trkpt lat="43.621674179931354" lon="12.616800658594403"><ele>297.5</ele><time>2026-04-04T14:43:55Z</time></trkpt><trkpt lat="43.62163626870653" lon="12.616998560498313"><ele>296.25</ele><time>2026-04-04T14:43:56Z</time></trkpt><trkpt lat="43.621572122438984" lon="12.61715698668624"><ele>295.0</ele><time>2026-04-04T14:43:57Z</time></trkpt><trkpt lat="43.621487621676934" lon="12.617264194920676"><ele>294.75</ele><time>2026-04-04T14:43:58Z</time></trkpt><trkpt lat="43.62137018107602" lon="12.617340538846074"><ele>294.5</ele><time>2026-04-04T14:43:59Z</time></trkpt><trkpt lat="43.621232893879075" lon="12.617308981220281"><ele>294.25</ele><time>2026-04-04T14:44:00Z</time></trkpt><trkpt lat="43.62111182064375" lon="12.617224046007058"><ele>294.0</ele><time>2026-04-04T14:44:01Z</time></trkpt><trkpt lat="43.620984142430835" lon="12.617120567539164"><ele>293.0</ele><time>2026-04-04T14:44:02Z</time></trkpt><trkpt lat="43.62086635777213" lon="12.616988111600032"><ele>292.0</ele><time>2026-04-04T14:44:03Z</time></trkpt><trkpt lat="43.62074814164821" lon="12.61685490014119"><ele>291.0</ele><time>2026-04-04T14:44:04Z</time></trkpt><trkpt lat="43.62062613446927" lon="12.616731602923045"><ele>290.0</ele><time>2026-04-04T14:44:05Z</time></trkpt><trkpt lat="43.62049907145321" lon="12.616610556477873"><ele>289.0</ele><time>2026-04-04T14:44:06Z</time></trkpt><trkpt lat="43.62036993548179" lon="12.616485027386057"><ele>288.0</ele><time>2026-04-04T14:44:07Z</time></trkpt><trkpt lat="43.62024040127972" lon="12.61636619152387"><ele>288.0</ele><time>2026-04-04T14:44:08Z</time></trkpt><trkpt lat="43.62010378905566" lon="12.616267630519976"><ele>288.0</ele><time>2026-04-04T14:44:09Z</time></trkpt><trkpt lat="43.619960391331446" lon="12.61618084065388"><ele>288.0</ele><time>2026-04-04T14:44:10Z</time></trkpt><trkpt lat="43.619803240183394" lon="12.616114679636839"><ele>285.0</ele><time>2026-04-04T14:44:11Z</time></trkpt><trkpt lat="43.619640946394775" lon="12.61606832241708"><ele>282.0</ele><time>2026-04-04T14:44:12Z</time></trkpt><trkpt lat="43.61946844888022" lon="12.616029066697408"><ele>279.0</ele><time>2026-04-04T14:44:13Z</time></trkpt><trkpt lat="43.619295396131406" lon="12.615988180421787"><ele>277.6666666666667</ele><time>2026-04-04T14:44:14Z</time></trkpt><trkpt lat="43.6191213496044" lon="12.615938400250302"><ele>276.33333333333337</ele><time>2026-04-04T14:44:15Z</time></trkpt><trkpt lat="43.618952894004536" lon="12.615887579113378"><ele>275.0</ele><time>2026-04-04T14:44:16Z</time></trkpt><trkpt lat="43.618795402572246" lon="12.615843994408845"><ele>273.75</ele><time>2026-04-04T14:44:17Z</time></trkpt><trkpt lat="43.61864326373697" lon="12.615817351743486"><ele>272.5</ele><time>2026-04-04T14:44:18.001Z</time></trkpt><trkpt lat="43.61849758545889" lon="12.615834034976748"><ele>271.25</ele><time>2026-04-04T14:44:19.001Z</time></trkpt><trkpt lat="43.61836282926941" lon="12.615882127878416"><ele>270.0</ele><time>2026-04-04T14:44:20.001Z</time></trkpt><trkpt lat="43.61826028332059" lon="12.616013579140363"><ele>269.6666666666667</ele><time>2026-04-04T14:44:21.001Z</time></trkpt><trkpt lat="43.61819772102859" lon="12.616215671645277"><ele>269.33333333333337</ele><time>2026-04-04T14:44:22.001Z</time></trkpt><trkpt lat="43.618181903989836" lon="12.616430510429797"><ele>269.0</ele><time>2026-04-04T14:44:23.001Z</time></trkpt><trkpt lat="43.61817703401478" lon="12.616665135750871"><ele>269.0</ele><time>2026-04-04T14:44:24.001Z</time></trkpt><trkpt lat="43.61818296994591" lon="12.616913242312785"><ele>269.0</ele><time>2026-04-04T14:44:25.001Z</time></trkpt><trkpt lat="43.61822064915659" lon="12.617167476278924"><ele>269.0</ele><time>2026-04-04T14:44:26.001Z</time></trkpt><trkpt lat="43.618256426863056" lon="12.61742554916862"><ele>267.0</ele><time>2026-04-04T14:44:27.001Z</time></trkpt><trkpt lat="43.618299371355434" lon="12.6176872081725"><ele>265.0</ele><time>2026-04-04T14:44:28.001Z</time></trkpt><trkpt lat="43.61834477422263" lon="12.617948443996493"><ele>263.0</ele><time>2026-04-04T14:44:29.001Z</time></trkpt><trkpt lat="43.61839055817" lon="12.61821332162686"><ele>261.33333333333337</ele><time>2026-04-04T14:44:30.001Z</time></trkpt><trkpt lat="43.618433434526814" lon="12.61848248494006"><ele>259.6666666666667</ele><time>2026-04-04T14:44:31.001Z</time></trkpt><trkpt lat="43.618473905760474" lon="12.618753225743154"><ele>258.0</ele><time>2026-04-04T14:44:32.001Z</time></trkpt><trkpt lat="43.61850816020144" lon="12.619018130162257"><ele>257.0</ele><time>2026-04-04T14:44:33.001Z</time></trkpt><trkpt lat="43.618538458496324" lon="12.619276052817442"><ele>256.0</ele><time>2026-04-04T14:44:34.001Z</time></trkpt><trkpt lat="43.618568109358705" lon="12.619519280521049"><ele>255.0</ele><time>2026-04-04T14:44:35.001Z</time></trkpt><trkpt lat="43.618599117174924" lon="12.619751412525378"><ele>255.0</ele><time>2026-04-04T14:44:36.001Z</time></trkpt><trkpt lat="43.618615118685206" lon="12.61996907861198"><ele>255.0</ele><time>2026-04-04T14:44:37.001Z</time></trkpt><trkpt lat="43.61859085823696" lon="12.620157552805564"><ele>255.0</ele><time>2026-04-04T14:44:38.001Z</time></trkpt><trkpt lat="43.618531968308275" lon="12.620316540439147"><ele>255.0</ele><time>2026-04-04T14:44:39.001Z</time></trkpt><trkpt lat="43.61843748183608" lon="12.620441290768456"><ele>255.0</ele><time>2026-04-04T14:44:40.001Z</time></trkpt><trkpt lat="43.61831775088231" lon="12.62052442663362"><ele>255.0</ele><time>2026-04-04T14:44:41.001Z</time></trkpt><trkpt lat="43.61817634273641" lon="12.620532976425174"><ele>255.0</ele><time>2026-04-04T14:44:42.001Z</time></trkpt><trkpt lat="43.61802738222233" lon="12.620551180091432"><ele>255.0</ele><time>2026-04-04T14:44:43.001Z</time></trkpt><trkpt lat="43.617864437350306" lon="12.620577660291403"><ele>252.66666666666669</ele><time>2026-04-04T14:44:44.001Z</time></trkpt><trkpt lat="43.61769180249793" lon="12.620584730457129"><ele>250.33333333333334</ele><time>2026-04-04T14:44:45.001Z</time></trkpt><trkpt lat="43.61750699229097" lon="12.620598392931933"><ele>248.0</ele><time>2026-04-04T14:44:46.001Z</time></trkpt><trkpt lat="43.61731488564713" lon="12.62061535673422"><ele>248.0</ele><time>2026-04-04T14:44:47.001Z</time></trkpt><trkpt lat="43.61712166697821" lon="12.62063384768529"><ele>248.0</ele><time>2026-04-04T14:44:48.001Z</time></trkpt><trkpt lat="43.61692225523852" lon="12.620651809973774"><ele>248.0</ele><time>2026-04-04T14:44:49.001Z</time></trkpt><trkpt lat="43.61671777222132" lon="12.620670287307794"><ele>247.33333333333334</ele><time>2026-04-04T14:44:50.001Z</time></trkpt><trkpt lat="43.61650987670062" lon="12.620692084875797"><ele>246.66666666666669</ele><time>2026-04-04T14:44:51.001Z</time></trkpt><trkpt lat="43.616295665039225" lon="12.620713197785609"><ele>246.0</ele><time>2026-04-04T14:44:52.001Z</time></trkpt><trkpt lat="43.61607635441504" lon="12.620730534348683"><ele>246.0</ele><time>2026-04-04T14:44:53.001Z</time></trkpt><trkpt lat="43.61585860842197" lon="12.620745809349941"><ele>246.0</ele><time>2026-04-04T14:44:54.001Z</time></trkpt><trkpt lat="43.615643714717024" lon="12.620760382649356"><ele>246.0</ele><time>2026-04-04T14:44:55.001Z</time></trkpt><trkpt lat="43.61543564420978" lon="12.620772033346727"><ele>245.0</ele><time>2026-04-04T14:44:56.001Z</time></trkpt><trkpt lat="43.61523972549347" lon="12.620783574902052"><ele>244.0</ele><time>2026-04-04T14:44:57.001Z</time></trkpt><trkpt lat="43.615058830513824" lon="12.620798919732538"><ele>243.0</ele><time>2026-04-04T14:44:58.001Z</time></trkpt><trkpt lat="43.61490129410739" lon="12.620845432741563"><ele>243.0</ele><time>2026-04-04T14:44:59.001Z</time></trkpt><trkpt lat="43.614759774241605" lon="12.620946311760697"><ele>243.0</ele><time>2026-04-04T14:45:00.001Z</time></trkpt><trkpt lat="43.614650459708706" lon="12.621110148455793"><ele>243.0</ele><time>2026-04-04T14:45:01.001Z</time></trkpt><trkpt lat="43.61457437109908" lon="12.621313116035008"><ele>242.33333333333331</ele><time>2026-04-04T14:45:02.001Z</time></trkpt><trkpt lat="43.614545767897475" lon="12.621547364641387"><ele>241.66666666666666</ele><time>2026-04-04T14:45:03.001Z</time></trkpt><trkpt lat="43.614547642799614" lon="12.621813001399236"><ele>241.0</ele><time>2026-04-04T14:45:04.001Z</time></trkpt><trkpt lat="43.614547951822075" lon="12.622083633591492"><ele>241.0</ele><time>2026-04-04T14:45:05.001Z</time></trkpt><trkpt lat="43.61453470930263" lon="12.622348091212109"><ele>241.0</ele><time>2026-04-04T14:45:06.001Z</time></trkpt><trkpt lat="43.61450977706823" lon="12.622603161126083"><ele>241.0</ele><time>2026-04-04T14:45:07.001Z</time></trkpt><trkpt lat="43.61447513173439" lon="12.622854410783836"><ele>239.0</ele><time>2026-04-04T14:45:08.001Z</time></trkpt><trkpt lat="43.61442704988562" lon="12.623103861898226"><ele>237.0</ele><time>2026-04-04T14:45:09.001Z</time></trkpt><trkpt lat="43.61437172574727" lon="12.623350235969735"><ele>235.0</ele><time>2026-04-04T14:45:10.001Z</time></trkpt><trkpt lat="43.61431640167111" lon="12.623595460508652"><ele>234.0</ele><time>2026-04-04T14:45:11.001Z</time></trkpt><trkpt lat="43.61426116656829" lon="12.62384041306997"><ele>233.0</ele><time>2026-04-04T14:45:12.001Z</time></trkpt><trkpt lat="43.61420642526271" lon="12.62407600871758"><ele>232.0</ele><time>2026-04-04T14:45:13.001Z</time></trkpt><trkpt lat="43.61415491293698" lon="12.624305099603813"><ele>231.0</ele><time>2026-04-04T14:45:14.001Z</time></trkpt><trkpt lat="43.61410282609433" lon="12.624529355634014"><ele>230.0</ele><time>2026-04-04T14:45:15.001Z</time></trkpt><trkpt lat="43.614053384531424" lon="12.624740424391176"><ele>229.0</ele><time>2026-04-04T14:45:16.001Z</time></trkpt><trkpt lat="43.61400840696898" lon="12.62493963943715"><ele>229.0</ele><time>2026-04-04T14:45:17.001Z</time></trkpt><trkpt lat="43.613962177726265" lon="12.625137325454917"><ele>229.0</ele><time>2026-04-04T14:45:18.001Z</time></trkpt><trkpt lat="43.613902178045684" lon="12.625308923444313"><ele>229.0</ele><time>2026-04-04T14:45:19.001Z</time></trkpt><trkpt lat="43.61382775890428" lon="12.625457641439434"><ele>229.0</ele><time>2026-04-04T14:45:20.001Z</time></trkpt><trkpt lat="43.613750585456735" lon="12.625572699649513"><ele>228.6</ele><time>2026-04-04T14:45:21.001Z</time></trkpt><trkpt lat="43.61368800404808" lon="12.625669965372547"><ele>228.2</ele><time>2026-04-04T14:45:22.001Z</time></trkpt><trkpt lat="43.61362929610374" lon="12.62573821006974"><ele>227.79999999999998</ele><time>2026-04-04T14:45:23.001Z</time></trkpt><trkpt lat="43.61357745517751" lon="12.625802312514628"><ele>227.39999999999998</ele><time>2026-04-04T14:45:25.001Z</time></trkpt><trkpt lat="43.61352755901498" lon="12.625888788184051"><ele>227.0</ele><time>2026-04-04T14:45:28.001Z</time></trkpt><trkpt lat="43.61364681705058" lon="12.626125131197211"><ele>227.2</ele><time>2026-04-04T14:45:29.002Z</time></trkpt><trkpt lat="43.613655567844795" lon="12.626243920819414"><ele>227.39999999999998</ele><time>2026-04-04T14:45:30.002Z</time></trkpt><trkpt lat="43.61363932139274" lon="12.626361619256524"><ele>227.60000000000002</ele><time>2026-04-04T14:45:31.002Z</time></trkpt><trkpt lat="43.6136050414107" lon="12.62649264858286"><ele>227.8</ele><time>2026-04-04T14:45:32.002Z</time></trkpt><trkpt lat="43.61356105143593" lon="12.62663567906196"><ele>228.0</ele><time>2026-04-04T14:45:33.002Z</time></trkpt><trkpt lat="43.61351802755296" lon="12.626774557835232"><ele>227.25</ele><time>2026-04-04T14:45:34.002Z</time></trkpt><trkpt lat="43.613472635991364" lon="12.62691998743068"><ele>226.5</ele><time>2026-04-04T14:45:35.002Z</time></trkpt><trkpt lat="43.613424799993844" lon="12.627075885036252"><ele>225.75</ele><time>2026-04-04T14:45:36.002Z</time></trkpt><trkpt lat="43.61337417314329" lon="12.627234933926998"><ele>225.0</ele><time>2026-04-04T14:45:37.002Z</time></trkpt><trkpt lat="43.613321644180765" lon="12.62739560192268"><ele>226.75</ele><time>2026-04-04T14:45:38.002Z</time></trkpt><trkpt lat="43.61326233558691" lon="12.627557011583985"><ele>228.5</ele><time>2026-04-04T14:45:39.002Z</time></trkpt><trkpt lat="43.61319254489184" lon="12.627707282149052"><ele>230.25</ele><time>2026-04-04T14:45:40.002Z</time></trkpt><trkpt lat="43.61310866799511" lon="12.627850978790102"><ele>232.0</ele><time>2026-04-04T14:45:41Z</time></trkpt><trkpt lat="43.613015035863775" lon="12.62798109776817"><ele>231.75</ele><time>2026-04-04T14:45:42Z</time></trkpt><trkpt lat="43.61292177565475" lon="12.628099819483394"><ele>231.5</ele><time>2026-04-04T14:45:43Z</time></trkpt><trkpt lat="43.612844694357186" lon="12.628232013366988"><ele>231.25</ele><time>2026-04-04T14:45:44Z</time></trkpt><trkpt lat="43.612792680642464" lon="12.628385738879642"><ele>231.0</ele><time>2026-04-04T14:45:45Z</time></trkpt><trkpt lat="43.61276350705099" lon="12.628557058640151"><ele>232.0</ele><time>2026-04-04T14:45:46Z</time></trkpt><trkpt lat="43.61275914628404" lon="12.62873575024798"><ele>233.0</ele><time>2026-04-04T14:45:47Z</time></trkpt><trkpt lat="43.61277536216082" lon="12.628921161457257"><ele>234.0</ele><time>2026-04-04T14:45:48Z</time></trkpt><trkpt lat="43.61279947803747" lon="12.62910363616479"><ele>235.0</ele><time>2026-04-04T14:45:49Z</time></trkpt><trkpt lat="43.61282189327446" lon="12.629286639051061"><ele>235.75</ele><time>2026-04-04T14:45:50Z</time></trkpt><trkpt lat="43.61284839788705" lon="12.629472831270673"><ele>236.5</ele><time>2026-04-04T14:45:51Z</time></trkpt><trkpt lat="43.61287317393715" lon="12.62965897336692"><ele>237.25</ele><time>2026-04-04T14:45:52Z</time></trkpt><trkpt lat="43.61289676023744" lon="12.629847094232822"><ele>238.0</ele><time>2026-04-04T14:45:53Z</time></trkpt><trkpt lat="43.612920107188934" lon="12.630033293174245"><ele>238.25</ele><time>2026-04-04T14:45:54Z</time></trkpt><trkpt lat="43.61294638835565" lon="12.630218598472274"><ele>238.5</ele><time>2026-04-04T14:45:55Z</time></trkpt><trkpt lat="43.61297000286591" lon="12.63040634227897"><ele>238.75</ele><time>2026-04-04T14:45:56Z</time></trkpt><trkpt lat="43.61299537877764" lon="12.630594899247699"><ele>239.0</ele><time>2026-04-04T14:45:57Z</time></trkpt><trkpt lat="43.61301863045699" lon="12.630785590930815"><ele>239.25</ele><time>2026-04-04T14:45:58Z</time></trkpt><trkpt lat="43.613040058879996" lon="12.630978587927215"><ele>239.5</ele><time>2026-04-04T14:45:59Z</time></trkpt><trkpt lat="43.61306376490124" lon="12.63117423349452"><ele>239.75</ele><time>2026-04-04T14:46:00Z</time></trkpt><trkpt lat="43.61308954817458" lon="12.631365851399002"><ele>240.0</ele><time>2026-04-04T14:46:01Z</time></trkpt><trkpt lat="43.61311303363097" lon="12.63155702471094"><ele>240.0</ele><time>2026-04-04T14:46:02Z</time></trkpt><trkpt lat="43.61313923010959" lon="12.63174659178339"><ele>240.0</ele><time>2026-04-04T14:46:03Z</time></trkpt><trkpt lat="43.61315900768074" lon="12.6319349365484"><ele>240.0</ele><time>2026-04-04T14:46:04Z</time></trkpt><trkpt lat="43.61317354214178" lon="12.632120658669034"><ele>240.0</ele><time>2026-04-04T14:46:05Z</time></trkpt><trkpt lat="43.61319227679788" lon="12.632311296638909"><ele>239.75</ele><time>2026-04-04T14:46:06Z</time></trkpt><trkpt lat="43.61321230439645" lon="12.632504709049138"><ele>239.5</ele><time>2026-04-04T14:46:07Z</time></trkpt><trkpt lat="43.613231428484845" lon="12.63270090812443"><ele>239.25</ele><time>2026-04-04T14:46:08Z</time></trkpt><trkpt lat="43.613248011104254" lon="12.632898054397792"><ele>239.0</ele><time>2026-04-04T14:46:09Z</time></trkpt><trkpt lat="43.6132654264911" lon="12.633094451025196"><ele>238.0</ele><time>2026-04-04T14:46:10Z</time></trkpt><trkpt lat="43.613281229259485" lon="12.633290298165363"><ele>237.0</ele><time>2026-04-04T14:46:11Z</time></trkpt><trkpt lat="43.61329653373539" lon="12.633481038106995"><ele>236.0</ele><time>2026-04-04T14:46:12Z</time></trkpt><trkpt lat="43.6133144032663" lon="12.633672814378457"><ele>235.0</ele><time>2026-04-04T14:46:13Z</time></trkpt><trkpt lat="43.61333526523992" lon="12.633864112307759"><ele>234.75</ele><time>2026-04-04T14:46:14Z</time></trkpt><trkpt lat="43.61335578182287" lon="12.634062408888811"><ele>234.5</ele><time>2026-04-04T14:46:15Z</time></trkpt><trkpt lat="43.613374199029636" lon="12.634258015514117"><ele>234.25</ele><time>2026-04-04T14:46:16Z</time></trkpt><trkpt lat="43.613391648335316" lon="12.634446326589545"><ele>234.0</ele><time>2026-04-04T14:46:17Z</time></trkpt><trkpt lat="43.613412519714586" lon="12.634633248724988"><ele>234.0</ele><time>2026-04-04T14:46:18Z</time></trkpt><trkpt lat="43.6134285565802" lon="12.634821268121115"><ele>234.0</ele><time>2026-04-04T14:46:19Z</time></trkpt><trkpt lat="43.61344276917777" lon="12.635009256996307"><ele>234.0</ele><time>2026-04-04T14:46:20Z</time></trkpt><trkpt lat="43.613457546892135" lon="12.635193354562618"><ele>234.0</ele><time>2026-04-04T14:46:21Z</time></trkpt><trkpt lat="43.61347426538693" lon="12.635380790151773"><ele>233.5</ele><time>2026-04-04T14:46:22Z</time></trkpt><trkpt lat="43.61349194618785" lon="12.635571117894864"><ele>233.0</ele><time>2026-04-04T14:46:23Z</time></trkpt><trkpt lat="43.61350712241429" lon="12.635757452988614"><ele>232.5</ele><time>2026-04-04T14:46:24Z</time></trkpt><trkpt lat="43.61352228084512" lon="12.635936192387687"><ele>232.0</ele><time>2026-04-04T14:46:25Z</time></trkpt><trkpt lat="43.61354041745078" lon="12.636122665202267"><ele>231.25</ele><time>2026-04-04T14:46:26Z</time></trkpt><trkpt lat="43.613559231702425" lon="12.636311944698354"><ele>230.5</ele><time>2026-04-04T14:46:27Z</time></trkpt><trkpt lat="43.6135786191637" lon="12.636499547041552"><ele>229.75</ele><time>2026-04-04T14:46:28.001Z</time></trkpt><trkpt lat="43.61357857098407" lon="12.636691027750347"><ele>229.0</ele><time>2026-04-04T14:46:29.001Z</time></trkpt><trkpt lat="43.61359732209029" lon="12.636880518101904"><ele>228.75</ele><time>2026-04-04T14:46:30.001Z</time></trkpt><trkpt lat="43.613614517728195" lon="12.637071313212813"><ele>228.5</ele><time>2026-04-04T14:46:31.001Z</time></trkpt><trkpt lat="43.61363096326065" lon="12.637260625145062"><ele>228.25</ele><time>2026-04-04T14:46:32.001Z</time></trkpt><trkpt lat="43.61364914150589" lon="12.637453122862983"><ele>228.0</ele><time>2026-04-04T14:46:33.001Z</time></trkpt><trkpt lat="43.61366755740444" lon="12.637646599015701"><ele>229.0</ele><time>2026-04-04T14:46:34.001Z</time></trkpt><trkpt lat="43.61368493720265" lon="12.637839103237171"><ele>230.0</ele><time>2026-04-04T14:46:35.001Z</time></trkpt><trkpt lat="43.61370285623222" lon="12.63803002970107"><ele>231.0</ele><time>2026-04-04T14:46:36.001Z</time></trkpt><trkpt lat="43.61372053269804" lon="12.638223918955577"><ele>232.0</ele><time>2026-04-04T14:46:37.001Z</time></trkpt><trkpt lat="43.61373659037946" lon="12.638417756642175"><ele>232.0</ele><time>2026-04-04T14:46:38.001Z</time></trkpt><trkpt lat="43.61375282861723" lon="12.638614334041998"><ele>232.0</ele><time>2026-04-04T14:46:39.001Z</time></trkpt><trkpt lat="43.613768243136136" lon="12.638812179770797"><ele>232.0</ele><time>2026-04-04T14:46:40.001Z</time></trkpt><trkpt lat="43.61378448596849" lon="12.639008922530701"><ele>232.0</ele><time>2026-04-04T14:46:41.001Z</time></trkpt><trkpt lat="43.61380025427008" lon="12.639205918584652"><ele>231.75</ele><time>2026-04-04T14:46:42.001Z</time></trkpt><trkpt lat="43.613804353840116" lon="12.639407031476052"><ele>231.5</ele><time>2026-04-04T14:46:43.001Z</time></trkpt><trkpt lat="43.61379936648019" lon="12.63960166433491"><ele>231.25</ele><time>2026-04-04T14:46:44.001Z</time></trkpt><trkpt lat="43.61378062094483" lon="12.639794445392418"><ele>231.0</ele><time>2026-04-04T14:46:45.001Z</time></trkpt><trkpt lat="43.61374866369369" lon="12.639982072264525"><ele>231.5</ele><time>2026-04-04T14:46:46.001Z</time></trkpt><trkpt lat="43.613705642913416" lon="12.640167889830458"><ele>232.0</ele><time>2026-04-04T14:46:47.001Z</time></trkpt><trkpt lat="43.61365756774681" lon="12.640355378236901"><ele>232.5</ele><time>2026-04-04T14:46:48.001Z</time></trkpt><trkpt lat="43.61359580125245" lon="12.640528606909934"><ele>233.0</ele><time>2026-04-04T14:46:49.001Z</time></trkpt><trkpt lat="43.61352549202489" lon="12.640690465744166"><ele>232.5</ele><time>2026-04-04T14:46:50.001Z</time></trkpt><trkpt lat="43.613457649171416" lon="12.640855361905363"><ele>232.0</ele><time>2026-04-04T14:46:51.001Z</time></trkpt><trkpt lat="43.613386219607854" lon="12.64101966985823"><ele>231.5</ele><time>2026-04-04T14:46:52.001Z</time></trkpt><trkpt lat="43.61330968972341" lon="12.641180901972458"><ele>231.0</ele><time>2026-04-04T14:46:53.001Z</time></trkpt><trkpt lat="43.61323027490791" lon="12.641340543927825"><ele>231.0</ele><time>2026-04-04T14:46:54.001Z</time></trkpt><trkpt lat="43.61314626402673" lon="12.641508748350134"><ele>231.0</ele><time>2026-04-04T14:46:55.001Z</time></trkpt><trkpt lat="43.613064416346816" lon="12.641679057894288"><ele>231.0</ele><time>2026-04-04T14:46:56.001Z</time></trkpt><trkpt lat="43.61298045456638" lon="12.641845132797638"><ele>231.0</ele><time>2026-04-04T14:46:57.001Z</time></trkpt><trkpt lat="43.61289674010093" lon="12.642021203441542"><ele>228.33333333333331</ele><time>2026-04-04T14:46:58.001Z</time></trkpt><trkpt lat="43.61281251306263" lon="12.642197787092396"><ele>225.66666666666666</ele><time>2026-04-04T14:46:59.001Z</time></trkpt><trkpt lat="43.612730683586214" lon="12.642379444515008"><ele>223.0</ele><time>2026-04-04T14:47:00.001Z</time></trkpt><trkpt lat="43.61265139990124" lon="12.64255847682404"><ele>223.0</ele><time>2026-04-04T14:47:01.001Z</time></trkpt><trkpt lat="43.61257035604072" lon="12.64273045103225"><ele>223.0</ele><time>2026-04-04T14:47:02.001Z</time></trkpt><trkpt lat="43.61249154046789" lon="12.642900890124363"><ele>223.0</ele><time>2026-04-04T14:47:03.001Z</time></trkpt><trkpt lat="43.61241346520268" lon="12.643065467948214"><ele>223.0</ele><time>2026-04-04T14:47:04.001Z</time></trkpt><trkpt lat="43.612338332022894" lon="12.643233450476224"><ele>224.25</ele><time>2026-04-04T14:47:05.001Z</time></trkpt><trkpt lat="43.61227880172491" lon="12.643417659652384"><ele>225.5</ele><time>2026-04-04T14:47:06.001Z</time></trkpt><trkpt lat="43.612239957964654" lon="12.643614539209585"><ele>226.75</ele><time>2026-04-04T14:47:07.001Z</time></trkpt><trkpt lat="43.61222059684907" lon="12.643815872104078"><ele>228.0</ele><time>2026-04-04T14:47:08.001Z</time></trkpt><trkpt lat="43.612219483699526" lon="12.64401985465056"><ele>228.0</ele><time>2026-04-04T14:47:09.001Z</time></trkpt><trkpt lat="43.61222840729464" lon="12.64422494021432"><ele>228.0</ele><time>2026-04-04T14:47:10.001Z</time></trkpt><trkpt lat="43.612274983271924" lon="12.644421041954388"><ele>228.0</ele><time>2026-04-04T14:47:11.001Z</time></trkpt><trkpt lat="43.61233057074113" lon="12.644585683056206"><ele>228.0</ele><time>2026-04-04T14:47:12.001Z</time></trkpt><trkpt lat="43.61241923600368" lon="12.64472953437496"><ele>226.5</ele><time>2026-04-04T14:47:13.001Z</time></trkpt><trkpt lat="43.61252942434277" lon="12.644865117732781"><ele>225.0</ele><time>2026-04-04T14:47:14.001Z</time></trkpt><trkpt lat="43.612639102886526" lon="12.644987700844986"><ele>223.5</ele><time>2026-04-04T14:47:15.001Z</time></trkpt><trkpt lat="43.61274049846982" lon="12.645128401254956"><ele>222.0</ele><time>2026-04-04T14:47:16.001Z</time></trkpt><trkpt lat="43.61283602678869" lon="12.645282284279507"><ele>222.75</ele><time>2026-04-04T14:47:17.001Z</time></trkpt><trkpt lat="43.61289340069364" lon="12.645465429412095"><ele>223.5</ele><time>2026-04-04T14:47:18.001Z</time></trkpt><trkpt lat="43.61296464967457" lon="12.645639495571576"><ele>224.25</ele><time>2026-04-04T14:47:19.001Z</time></trkpt><trkpt lat="43.61304040130587" lon="12.645807567027228"><ele>225.0</ele><time>2026-04-04T14:47:20.001Z</time></trkpt><trkpt lat="43.613104268027094" lon="12.645977989429515"><ele>223.75</ele><time>2026-04-04T14:47:21.001Z</time></trkpt><trkpt lat="43.61316686400001" lon="12.646148420820316"><ele>222.5</ele><time>2026-04-04T14:47:22.001Z</time></trkpt><trkpt lat="43.613210758542664" lon="12.646332945501607"><ele>221.25</ele><time>2026-04-04T14:47:23.001Z</time></trkpt><trkpt lat="43.61322944011622" lon="12.646521624692463"><ele>220.0</ele><time>2026-04-04T14:47:24.001Z</time></trkpt><trkpt lat="43.61320651329945" lon="12.646706770014776"><ele>220.0</ele><time>2026-04-04T14:47:25.001Z</time></trkpt><trkpt lat="43.61318421022979" lon="12.646885766448268"><ele>220.0</ele><time>2026-04-04T14:47:26.001Z</time></trkpt><trkpt lat="43.61317304310224" lon="12.64707034179466"><ele>220.0</ele><time>2026-04-04T14:47:27.001Z</time></trkpt><trkpt lat="43.61313709187538" lon="12.647252880664722"><ele>220.0</ele><time>2026-04-04T14:47:28.001Z</time></trkpt><trkpt lat="43.61311246423483" lon="12.647440688718376"><ele>220.25</ele><time>2026-04-04T14:47:29.001Z</time></trkpt><trkpt lat="43.613094198803005" lon="12.647634730792765"><ele>220.5</ele><time>2026-04-04T14:47:30.001Z</time></trkpt><trkpt lat="43.61308525935228" lon="12.647830992531214"><ele>220.75</ele><time>2026-04-04T14:47:31.001Z</time></trkpt><trkpt lat="43.613091168961425" lon="12.64802388522595"><ele>221.0</ele><time>2026-04-04T14:47:32.001Z</time></trkpt><trkpt lat="43.61311209635393" lon="12.648211535648857"><ele>221.25</ele><time>2026-04-04T14:47:33.001Z</time></trkpt><trkpt lat="43.613144231852154" lon="12.64839515817134"><ele>221.5</ele><time>2026-04-04T14:47:34.001Z</time></trkpt><trkpt lat="43.61319453381626" lon="12.648569017875527"><ele>221.75</ele><time>2026-04-04T14:47:35.001Z</time></trkpt><trkpt lat="43.613255671102024" lon="12.648736265245644"><ele>222.0</ele><time>2026-04-04T14:47:36.001Z</time></trkpt><trkpt lat="43.61332484802962" lon="12.648899616100774"><ele>221.5</ele><time>2026-04-04T14:47:37.001Z</time></trkpt><trkpt lat="43.6134034146699" lon="12.649061955002615"><ele>221.0</ele><time>2026-04-04T14:47:38.001Z</time></trkpt><trkpt lat="43.61348356576693" lon="12.649226055848283"><ele>220.5</ele><time>2026-04-04T14:47:39.001Z</time></trkpt><trkpt lat="43.613563404697246" lon="12.649395388175567"><ele>220.0</ele><time>2026-04-04T14:47:40.001Z</time></trkpt><trkpt lat="43.61364478235283" lon="12.649565678219302"><ele>221.33333333333331</ele><time>2026-04-04T14:47:41.002Z</time></trkpt><trkpt lat="43.61372471174225" lon="12.649741417395527"><ele>222.66666666666669</ele><time>2026-04-04T14:47:42.002Z</time></trkpt><trkpt lat="43.61380149115875" lon="12.649923331177506"><ele>224.0</ele><time>2026-04-04T14:47:43.002Z</time></trkpt><trkpt lat="43.613879857193425" lon="12.650104627210881"><ele>224.0</ele><time>2026-04-04T14:47:44.002Z</time></trkpt><trkpt lat="43.61396144795273" lon="12.650284971615294"><ele>224.0</ele><time>2026-04-04T14:47:45.002Z</time></trkpt><trkpt lat="43.614042155286946" lon="12.650465570016458"><ele>224.0</ele><time>2026-04-04T14:47:46.002Z</time></trkpt><trkpt lat="43.614118540630294" lon="12.650649252186657"><ele>222.66666666666669</ele><time>2026-04-04T14:47:47Z</time></trkpt><trkpt lat="43.614182085074546" lon="12.65084206711771"><ele>221.33333333333331</ele><time>2026-04-04T14:47:48Z</time></trkpt><trkpt lat="43.61422278220522" lon="12.651048017870703"><ele>220.0</ele><time>2026-04-04T14:47:49Z</time></trkpt><trkpt lat="43.61424340845142" lon="12.651254046880435"><ele>219.33333333333331</ele><time>2026-04-04T14:47:50Z</time></trkpt><trkpt lat="43.614252465929795" lon="12.651464343105602"><ele>218.66666666666669</ele><time>2026-04-04T14:47:51Z</time></trkpt><trkpt lat="43.61424881131401" lon="12.65167827991277"><ele>218.0</ele><time>2026-04-04T14:47:52Z</time></trkpt><trkpt lat="43.61424493780393" lon="12.651891707031222"><ele>218.33333333333334</ele><time>2026-04-04T14:47:53Z</time></trkpt><trkpt lat="43.61423957356003" lon="12.65210942095389"><ele>218.66666666666669</ele><time>2026-04-04T14:47:54Z</time></trkpt><trkpt lat="43.61423215491672" lon="12.652327254056523"><ele>219.0</ele><time>2026-04-04T14:47:55Z</time></trkpt><trkpt lat="43.61422856692472" lon="12.652540559989392"><ele>219.0</ele><time>2026-04-04T14:47:56Z</time></trkpt><trkpt lat="43.61423016274604" lon="12.652762878818972"><ele>219.0</ele><time>2026-04-04T14:47:57Z</time></trkpt><trkpt lat="43.614231927360024" lon="12.652990694646501"><ele>219.0</ele><time>2026-04-04T14:47:58Z</time></trkpt><trkpt lat="43.61423448159114" lon="12.653219330939036"><ele>217.66666666666669</ele><time>2026-04-04T14:47:59Z</time></trkpt><trkpt lat="43.61423531383371" lon="12.653449523516288"><ele>216.33333333333334</ele><time>2026-04-04T14:48:00Z</time></trkpt><trkpt lat="43.614234105002595" lon="12.65368530300503"><ele>215.0</ele><time>2026-04-04T14:48:01Z</time></trkpt><trkpt lat="43.61423042414055" lon="12.653922726381987"><ele>214.33333333333334</ele><time>2026-04-04T14:48:02Z</time></trkpt><trkpt lat="43.6142280940915" lon="12.654162874102152"><ele>213.66666666666669</ele><time>2026-04-04T14:48:03Z</time></trkpt><trkpt lat="43.61422851227646" lon="12.654409923918543"><ele>213.0</ele><time>2026-04-04T14:48:04Z</time></trkpt><trkpt lat="43.61422853424028" lon="12.654663315243956"><ele>213.0</ele><time>2026-04-04T14:48:05Z</time></trkpt><trkpt lat="43.614231911881056" lon="12.654909310766207"><ele>213.0</ele><time>2026-04-04T14:48:06Z</time></trkpt><trkpt lat="43.6142366170729" lon="12.655152746398512"><ele>213.0</ele><time>2026-04-04T14:48:07Z</time></trkpt><trkpt lat="43.61424531485216" lon="12.655389601213152"><ele>213.33333333333331</ele><time>2026-04-04T14:48:08Z</time></trkpt><trkpt lat="43.61425793593348" lon="12.6556239024616"><ele>213.66666666666666</ele><time>2026-04-04T14:48:09Z</time></trkpt><trkpt lat="43.61427404643959" lon="12.655852832006422"><ele>214.0</ele><time>2026-04-04T14:48:10Z</time></trkpt><trkpt lat="43.61430029740096" lon="12.656074114708025"><ele>213.66666666666666</ele><time>2026-04-04T14:48:11Z</time></trkpt><trkpt lat="43.61435280605766" lon="12.656286257464934"><ele>213.33333333333331</ele><time>2026-04-04T14:48:12Z</time></trkpt><trkpt lat="43.614429110838756" lon="12.656482855809738"><ele>213.0</ele><time>2026-04-04T14:48:13Z</time></trkpt><trkpt lat="43.61450471995398" lon="12.656678318438557"><ele>215.0</ele><time>2026-04-04T14:48:14Z</time></trkpt><trkpt lat="43.6145752068848" lon="12.656876847397827"><ele>217.0</ele><time>2026-04-04T14:48:15Z</time></trkpt><trkpt lat="43.61463948784616" lon="12.657075284759008"><ele>219.0</ele><time>2026-04-04T14:48:16Z</time></trkpt><trkpt lat="43.61470611801545" lon="12.657278448416601"><ele>219.0</ele><time>2026-04-04T14:48:17Z</time></trkpt><trkpt lat="43.61477210507903" lon="12.657477681343257"><ele>219.0</ele><time>2026-04-04T14:48:18Z</time></trkpt><trkpt lat="43.61484352078498" lon="12.657678232241675"><ele>219.0</ele><time>2026-04-04T14:48:19Z</time></trkpt><trkpt lat="43.61490825299176" lon="12.657873686003049"><ele>218.75</ele><time>2026-04-04T14:48:20Z</time></trkpt><trkpt lat="43.614962511260124" lon="12.658079220128966"><ele>218.5</ele><time>2026-04-04T14:48:21Z</time></trkpt><trkpt lat="43.61499305918885" lon="12.658268280985844"><ele>218.25</ele><time>2026-04-04T14:48:22Z</time></trkpt><trkpt lat="43.615009150395416" lon="12.65843767676818"><ele>218.0</ele><time>2026-04-04T14:48:23Z</time></trkpt><trkpt lat="43.61500618037638" lon="12.658573047644957"><ele>217.71428571428572</ele><time>2026-04-04T14:48:24Z</time></trkpt><trkpt lat="43.614993470772404" lon="12.658687081613378"><ele>217.42857142857144</ele><time>2026-04-04T14:48:25Z</time></trkpt><trkpt lat="43.61496796750673" lon="12.658776770910727"><ele>217.14285714285714</ele><time>2026-04-04T14:48:26Z</time></trkpt><trkpt lat="43.61492928976396" lon="12.658853095018124"><ele>216.85714285714286</ele><time>2026-04-04T14:48:27Z</time></trkpt><trkpt lat="43.614890028474285" lon="12.658923971969632"><ele>216.57142857142856</ele><time>2026-04-04T14:48:28Z</time></trkpt><trkpt lat="43.61487042448346" lon="12.65900839737006"><ele>216.28571428571428</ele><time>2026-04-04T14:48:29Z</time></trkpt><trkpt lat="43.614873848304256" lon="12.659099302802032"><ele>216.0</ele><time>2026-04-04T14:48:30Z</time></trkpt><trkpt lat="43.61489438501541" lon="12.65918572679304"><ele>216.0</ele><time>2026-04-04T14:48:31Z</time></trkpt><trkpt lat="43.61492352384253" lon="12.659273904604214"><ele>216.0</ele><time>2026-04-04T14:48:32Z</time></trkpt><trkpt lat="43.61495050320905" lon="12.659368237584477"><ele>216.0</ele><time>2026-04-04T14:48:33Z</time></trkpt><trkpt lat="43.61499099056291" lon="12.659451776176141"><ele>216.0</ele><time>2026-04-04T14:48:34Z</time></trkpt><trkpt lat="43.61498196540497" lon="12.659590144723927"><ele>216.0</ele><time>2026-04-04T14:48:35Z</time></trkpt><trkpt lat="43.6149928031377" lon="12.659711770382886"><ele>216.0</ele><time>2026-04-04T14:48:36Z</time></trkpt><trkpt lat="43.614994539105204" lon="12.65984152479153"><ele>216.0</ele><time>2026-04-04T14:48:37Z</time></trkpt><trkpt lat="43.61500248464078" lon="12.659973010429198"><ele>216.00000000000003</ele><time>2026-04-04T14:48:38Z</time></trkpt><trkpt lat="43.61502172724054" lon="12.66011161505803"><ele>216.00000000000003</ele><time>2026-04-04T14:48:39Z</time></trkpt><trkpt lat="43.61504700155662" lon="12.660254489820916"><ele>216.0</ele><time>2026-04-04T14:48:40.001Z</time></trkpt><trkpt lat="43.61507414764592" lon="12.66040072155246"><ele>216.0</ele><time>2026-04-04T14:48:41.001Z</time></trkpt><trkpt lat="43.615101523049596" lon="12.660554313553728"><ele>216.0</ele><time>2026-04-04T14:48:42.001Z</time></trkpt><trkpt lat="43.61512921112036" lon="12.660710419016324"><ele>216.0</ele><time>2026-04-04T14:48:43.001Z</time></trkpt><trkpt lat="43.61515931859859" lon="12.660868870710967"><ele>216.0</ele><time>2026-04-04T14:48:44.001Z</time></trkpt><trkpt lat="43.61519185918639" lon="12.66103305982893"><ele>216.0</ele><time>2026-04-04T14:48:45.001Z</time></trkpt><trkpt lat="43.61522480988446" lon="12.661202725104143"><ele>215.5</ele><time>2026-04-04T14:48:46.001Z</time></trkpt><trkpt lat="43.61525457315406" lon="12.661373382379963"><ele>215.0</ele><time>2026-04-04T14:48:47.001Z</time></trkpt><trkpt lat="43.61528222977055" lon="12.661549276003019"><ele>214.5</ele><time>2026-04-04T14:48:48.001Z</time></trkpt><trkpt lat="43.61531125409762" lon="12.66172935002747"><ele>214.0</ele><time>2026-04-04T14:48:49.001Z</time></trkpt><trkpt lat="43.61534319132522" lon="12.661911300959801"><ele>217.0</ele><time>2026-04-04T14:48:50.001Z</time></trkpt><trkpt lat="43.61537497816039" lon="12.662095856946555"><ele>220.0</ele><time>2026-04-04T14:48:51.001Z</time></trkpt><trkpt lat="43.61541177724855" lon="12.66227929423769"><ele>223.0</ele><time>2026-04-04T14:48:52.001Z</time></trkpt><trkpt lat="43.6154423859714" lon="12.662460719775819"><ele>226.0</ele><time>2026-04-04T14:48:53.001Z</time></trkpt><trkpt lat="43.61547547479939" lon="12.662642945929976"><ele>226.25</ele><time>2026-04-04T14:48:54.001Z</time></trkpt><trkpt lat="43.61550998229702" lon="12.662832403558165"><ele>226.5</ele><time>2026-04-04T14:48:55.001Z</time></trkpt><trkpt lat="43.615543083005335" lon="12.663014807024664"><ele>226.75</ele><time>2026-04-04T14:48:56.001Z</time></trkpt><trkpt lat="43.61557618778945" lon="12.663202500149954"><ele>227.0</ele><time>2026-04-04T14:48:57.001Z</time></trkpt><trkpt lat="43.61560940344181" lon="12.663390652563427"><ele>227.0</ele><time>2026-04-04T14:48:58.001Z</time></trkpt><trkpt lat="43.615644681538456" lon="12.663580766989995"><ele>227.0</ele><time>2026-04-04T14:48:59.001Z</time></trkpt><trkpt lat="43.615679050121585" lon="12.663772033602713"><ele>227.0</ele><time>2026-04-04T14:49:00.001Z</time></trkpt><trkpt lat="43.615711945845746" lon="12.6639708654327"><ele>227.0</ele><time>2026-04-04T14:49:01.001Z</time></trkpt><trkpt lat="43.615750696229206" lon="12.664175666961581"><ele>226.66666666666669</ele><time>2026-04-04T14:49:02.001Z</time></trkpt><trkpt lat="43.61578618428293" lon="12.664380598993036"><ele>226.33333333333331</ele><time>2026-04-04T14:49:03.001Z</time></trkpt><trkpt lat="43.61582167840947" lon="12.664588044946635"><ele>226.0</ele><time>2026-04-04T14:49:04.001Z</time></trkpt><trkpt lat="43.61586084537335" lon="12.664794944969971"><ele>223.33333333333331</ele><time>2026-04-04T14:49:05.001Z</time></trkpt><trkpt lat="43.6158963230988" lon="12.66500738057333"><ele>220.66666666666669</ele><time>2026-04-04T14:49:06.001Z</time></trkpt><trkpt lat="43.615927806726354" lon="12.665219096352912"><ele>218.0</ele><time>2026-04-04T14:49:07.001Z</time></trkpt><trkpt lat="43.61595363634461" lon="12.665436975370818"><ele>214.33333333333334</ele><time>2026-04-04T14:49:08.001Z</time></trkpt><trkpt lat="43.615970431207245" lon="12.665660678517701"><ele>210.66666666666669</ele><time>2026-04-04T14:49:09.001Z</time></trkpt><trkpt lat="43.615978673676" lon="12.665881555664981"><ele>207.0</ele><time>2026-04-04T14:49:10.001Z</time></trkpt><trkpt lat="43.61598016019749" lon="12.666106607886967"><ele>205.66666666666669</ele><time>2026-04-04T14:49:11.001Z</time></trkpt><trkpt lat="43.61597539019892" lon="12.666335501433323"><ele>204.33333333333334</ele><time>2026-04-04T14:49:12.001Z</time></trkpt><trkpt lat="43.61596683735669" lon="12.66656434487094"><ele>203.0</ele><time>2026-04-04T14:49:13.001Z</time></trkpt><trkpt lat="43.61595532671415" lon="12.666796128544686"><ele>203.0</ele><time>2026-04-04T14:49:14.001Z</time></trkpt><trkpt lat="43.615935476424795" lon="12.667024692111355"><ele>203.0</ele><time>2026-04-04T14:49:15.001Z</time></trkpt><trkpt lat="43.61591002031911" lon="12.667253475618311"><ele>203.0</ele><time>2026-04-04T14:49:16.001Z</time></trkpt><trkpt lat="43.615879472223355" lon="12.667481732803184"><ele>203.0</ele><time>2026-04-04T14:49:17.001Z</time></trkpt><trkpt lat="43.61584031989257" lon="12.667706610385714"><ele>203.0</ele><time>2026-04-04T14:49:18.001Z</time></trkpt><trkpt lat="43.61579276798247" lon="12.667926939156942"><ele>203.0</ele><time>2026-04-04T14:49:19.001Z</time></trkpt><trkpt lat="43.61573927812867" lon="12.668147429376114"><ele>203.33333333333334</ele><time>2026-04-04T14:49:20.001Z</time></trkpt><trkpt lat="43.61568285403003" lon="12.668366132388917"><ele>203.66666666666669</ele><time>2026-04-04T14:49:21.001Z</time></trkpt><trkpt lat="43.61562564951606" lon="12.668582972195246"><ele>204.0</ele><time>2026-04-04T14:49:22.001Z</time></trkpt><trkpt lat="43.6155655878152" lon="12.668799905334122"><ele>203.33333333333331</ele><time>2026-04-04T14:49:23.001Z</time></trkpt><trkpt lat="43.61550542961437" lon="12.669015080360543"><ele>202.66666666666666</ele><time>2026-04-04T14:49:24.001Z</time></trkpt><trkpt lat="43.61544686846335" lon="12.66923450854935"><ele>202.0</ele><time>2026-04-04T14:49:25.001Z</time></trkpt><trkpt lat="43.61538915376608" lon="12.66945181871029"><ele>201.66666666666666</ele><time>2026-04-04T14:49:26.001Z</time></trkpt><trkpt lat="43.615332530627455" lon="12.669664784955554"><ele>201.33333333333331</ele><time>2026-04-04T14:49:27.001Z</time></trkpt><trkpt lat="43.61527644289289" lon="12.669879023512525"><ele>201.0</ele><time>2026-04-04T14:49:28.001Z</time></trkpt><trkpt lat="43.61521791450655" lon="12.670093993363237"><ele>202.33333333333331</ele><time>2026-04-04T14:49:29.001Z</time></trkpt><trkpt lat="43.61515827950598" lon="12.670307235595702"><ele>203.66666666666666</ele><time>2026-04-04T14:49:30.001Z</time></trkpt><trkpt lat="43.61509968441231" lon="12.670523111816177"><ele>205.0</ele><time>2026-04-04T14:49:31.001Z</time></trkpt><trkpt lat="43.61504087249697" lon="12.670735930640891"><ele>205.0</ele><time>2026-04-04T14:49:32.001Z</time></trkpt><trkpt lat="43.61498564900704" lon="12.670951421140737"><ele>205.0</ele><time>2026-04-04T14:49:33.001Z</time></trkpt><trkpt lat="43.61492927987155" lon="12.671165150250925"><ele>205.0</ele><time>2026-04-04T14:49:34.001Z</time></trkpt><trkpt lat="43.614871777753066" lon="12.671380365011084"><ele>204.66666666666666</ele><time>2026-04-04T14:49:35.001Z</time></trkpt><trkpt lat="43.614814215338825" lon="12.671598744053417"><ele>204.33333333333331</ele><time>2026-04-04T14:49:36.001Z</time></trkpt><trkpt lat="43.61475687185444" lon="12.67181524347558"><ele>204.0</ele><time>2026-04-04T14:49:37.001Z</time></trkpt><trkpt lat="43.61469351137562" lon="12.672029568612391"><ele>203.33333333333331</ele><time>2026-04-04T14:49:38.001Z</time></trkpt><trkpt lat="43.61462158714342" lon="12.67224071822046"><ele>202.66666666666666</ele><time>2026-04-04T14:49:39.001Z</time></trkpt><trkpt lat="43.61453908791611" lon="12.672444608162593"><ele>202.0</ele><time>2026-04-04T14:49:40.001Z</time></trkpt><trkpt lat="43.61444878110189" lon="12.672639842918132"><ele>203.66666666666666</ele><time>2026-04-04T14:49:41.001Z</time></trkpt><trkpt lat="43.61435084501195" lon="12.672823258736198"><ele>205.33333333333331</ele><time>2026-04-04T14:49:42.001Z</time></trkpt><trkpt lat="43.614247317561585" lon="12.672996677666323"><ele>207.0</ele><time>2026-04-04T14:49:43.001Z</time></trkpt><trkpt lat="43.61414350191649" lon="12.67315834777677"><ele>207.0</ele><time>2026-04-04T14:49:44.001Z</time></trkpt><trkpt lat="43.614044020885565" lon="12.673314946136218"><ele>207.0</ele><time>2026-04-04T14:49:45.001Z</time></trkpt><trkpt lat="43.61395315781225" lon="12.673482630133591"><ele>207.0</ele><time>2026-04-04T14:49:46.001Z</time></trkpt><trkpt lat="43.6138741409718" lon="12.673665193800831"><ele>206.75</ele><time>2026-04-04T14:49:47.001Z</time></trkpt><trkpt lat="43.613812537201575" lon="12.673856416215775"><ele>206.5</ele><time>2026-04-04T14:49:48.001Z</time></trkpt><trkpt lat="43.613763846895445" lon="12.674051279601732"><ele>206.25</ele><time>2026-04-04T14:49:49.001Z</time></trkpt><trkpt lat="43.61372354760911" lon="12.674237820903638"><ele>206.0</ele><time>2026-04-04T14:49:50.001Z</time></trkpt><trkpt lat="43.613690296986135" lon="12.674411744334968"><ele>205.60000000000002</ele><time>2026-04-04T14:49:51.001Z</time></trkpt><trkpt lat="43.61365097341714" lon="12.674558695125471"><ele>205.2</ele><time>2026-04-04T14:49:52.001Z</time></trkpt><trkpt lat="43.61360360403443" lon="12.674693638994123"><ele>204.8</ele><time>2026-04-04T14:49:53Z</time></trkpt><trkpt lat="43.613540521442715" lon="12.674808136321136"><ele>204.39999999999998</ele><time>2026-04-04T14:49:54Z</time></trkpt><trkpt lat="43.6134581728771" lon="12.674903641402139"><ele>204.0</ele><time>2026-04-04T14:49:55Z</time></trkpt><trkpt lat="43.61336006210821" lon="12.674973801366756"><ele>204.0</ele><time>2026-04-04T14:49:56Z</time></trkpt><trkpt lat="43.61324971545979" lon="12.675018771133203"><ele>204.0</ele><time>2026-04-04T14:49:57Z</time></trkpt><trkpt lat="43.61312854541284" lon="12.675051473260535"><ele>204.0</ele><time>2026-04-04T14:49:58Z</time></trkpt><trkpt lat="43.61300089721201" lon="12.67507582020784"><ele>204.0</ele><time>2026-04-04T14:49:59Z</time></trkpt><trkpt lat="43.61286871262009" lon="12.675110168209606"><ele>203.33333333333331</ele><time>2026-04-04T14:50:00Z</time></trkpt><trkpt lat="43.61272553463877" lon="12.675151933213304"><ele>202.66666666666666</ele><time>2026-04-04T14:50:01Z</time></trkpt><trkpt lat="43.61257594250892" lon="12.675188567805414"><ele>202.0</ele><time>2026-04-04T14:50:02Z</time></trkpt><trkpt lat="43.612423603154596" lon="12.6752275600575"><ele>202.0</ele><time>2026-04-04T14:50:03Z</time></trkpt><trkpt lat="43.61227151000881" lon="12.675268006756806"><ele>202.0</ele><time>2026-04-04T14:50:04Z</time></trkpt><trkpt lat="43.61211788636035" lon="12.675308438473728"><ele>202.0</ele><time>2026-04-04T14:50:05Z</time></trkpt><trkpt lat="43.611961356776135" lon="12.675344687395276"><ele>201.66666666666666</ele><time>2026-04-04T14:50:06Z</time></trkpt><trkpt lat="43.61179941754715" lon="12.675368203822591"><ele>201.33333333333331</ele><time>2026-04-04T14:50:07Z</time></trkpt><trkpt lat="43.611636612782775" lon="12.675381742120603"><ele>201.0</ele><time>2026-04-04T14:50:08Z</time></trkpt><trkpt lat="43.61147032308099" lon="12.675393795811768"><ele>201.0</ele><time>2026-04-04T14:50:09Z</time></trkpt><trkpt lat="43.611303827805095" lon="12.675419464814071"><ele>201.0</ele><time>2026-04-04T14:50:10Z</time></trkpt><trkpt lat="43.611136753685386" lon="12.675446446297958"><ele>201.0</ele><time>2026-04-04T14:50:11Z</time></trkpt><trkpt lat="43.610968956775785" lon="12.675468513852996"><ele>201.66666666666669</ele><time>2026-04-04T14:50:12Z</time></trkpt><trkpt lat="43.6107976228875" lon="12.675477960687742"><ele>202.33333333333334</ele><time>2026-04-04T14:50:13Z</time></trkpt><trkpt lat="43.610625709855626" lon="12.675488818891596"><ele>203.0</ele><time>2026-04-04T14:50:14Z</time></trkpt><trkpt lat="43.61045478156333" lon="12.675503795868007"><ele>203.33333333333334</ele><time>2026-04-04T14:50:15Z</time></trkpt><trkpt lat="43.61028247166591" lon="12.675515980814406"><ele>203.66666666666669</ele><time>2026-04-04T14:50:16Z</time></trkpt><trkpt lat="43.61010798191138" lon="12.675523367441809"><ele>204.0</ele><time>2026-04-04T14:50:17Z</time></trkpt><trkpt lat="43.60992470691457" lon="12.675529348462362"><ele>204.0</ele><time>2026-04-04T14:50:18Z</time></trkpt><trkpt lat="43.60974430310177" lon="12.675540142567073"><ele>204.0</ele><time>2026-04-04T14:50:19Z</time></trkpt><trkpt lat="43.60956458010867" lon="12.675552749185771"><ele>204.0</ele><time>2026-04-04T14:50:20Z</time></trkpt><trkpt lat="43.609382630520635" lon="12.67556550153991"><ele>204.0</ele><time>2026-04-04T14:50:21Z</time></trkpt><trkpt lat="43.60919985293503" lon="12.675574680797824"><ele>204.0</ele><time>2026-04-04T14:50:22Z</time></trkpt><trkpt lat="43.60901594499871" lon="12.67558177037056"><ele>204.0</ele><time>2026-04-04T14:50:23Z</time></trkpt><trkpt lat="43.60883177657023" lon="12.675591008356346"><ele>203.66666666666669</ele><time>2026-04-04T14:50:24Z</time></trkpt><trkpt lat="43.608646426364494" lon="12.675605365255356"><ele>203.33333333333334</ele><time>2026-04-04T14:50:25Z</time></trkpt><trkpt lat="43.608460529999135" lon="12.675619432919111"><ele>203.0</ele><time>2026-04-04T14:50:26Z</time></trkpt><trkpt lat="43.60827538247518" lon="12.675631406332323"><ele>203.0</ele><time>2026-04-04T14:50:27Z</time></trkpt><trkpt lat="43.60808918485963" lon="12.675640897741111"><ele>203.0</ele><time>2026-04-04T14:50:28Z</time></trkpt><trkpt lat="43.607900400806685" lon="12.675648406081395"><ele>203.0</ele><time>2026-04-04T14:50:29Z</time></trkpt><trkpt lat="43.60771073370305" lon="12.675659074038824"><ele>204.0</ele><time>2026-04-04T14:50:30Z</time></trkpt><trkpt lat="43.60752071420371" lon="12.675671525331056"><ele>205.0</ele><time>2026-04-04T14:50:31Z</time></trkpt><trkpt lat="43.60732916341028" lon="12.675683905668354"><ele>206.0</ele><time>2026-04-04T14:50:32Z</time></trkpt><trkpt lat="43.607137844803994" lon="12.675697752354944"><ele>205.33333333333334</ele><time>2026-04-04T14:50:33Z</time></trkpt><trkpt lat="43.60694474246552" lon="12.675709451873928"><ele>204.66666666666669</ele><time>2026-04-04T14:50:34Z</time></trkpt><trkpt lat="43.60675020895705" lon="12.675719676891964"><ele>204.0</ele><time>2026-04-04T14:50:35Z</time></trkpt><trkpt lat="43.6065524390882" lon="12.675728793127538"><ele>204.0</ele><time>2026-04-04T14:50:36Z</time></trkpt><trkpt lat="43.60636016117088" lon="12.675738344080404"><ele>204.0</ele><time>2026-04-04T14:50:37Z</time></trkpt><trkpt lat="43.60616269502908" lon="12.675747162681173"><ele>204.0</ele><time>2026-04-04T14:50:38Z</time></trkpt><trkpt lat="43.605966427976234" lon="12.675765218616021"><ele>205.0</ele><time>2026-04-04T14:50:39Z</time></trkpt><trkpt lat="43.60576898717294" lon="12.675781870751425"><ele>206.0</ele><time>2026-04-04T14:50:40Z</time></trkpt><trkpt lat="43.605570782454706" lon="12.675796360178861"><ele>207.0</ele><time>2026-04-04T14:50:41Z</time></trkpt><trkpt lat="43.60537117639957" lon="12.675811255286883"><ele>207.0</ele><time>2026-04-04T14:50:42Z</time></trkpt><trkpt lat="43.60517193611953" lon="12.675823246037075"><ele>207.0</ele><time>2026-04-04T14:50:43.001Z</time></trkpt><trkpt lat="43.60496975742311" lon="12.675834027058952"><ele>207.0</ele><time>2026-04-04T14:50:44.001Z</time></trkpt><trkpt lat="43.604767354368065" lon="12.675846371066877"><ele>207.0</ele><time>2026-04-04T14:50:45.001Z</time></trkpt><trkpt lat="43.60456550522487" lon="12.675856529365396"><ele>207.0</ele><time>2026-04-04T14:50:46.001Z</time></trkpt><trkpt lat="43.60436471190947" lon="12.67586715388164"><ele>207.0</ele><time>2026-04-04T14:50:47.001Z</time></trkpt><trkpt lat="43.604169923116736" lon="12.675876836685568"><ele>208.33333333333331</ele><time>2026-04-04T14:50:48.001Z</time></trkpt><trkpt lat="43.60397396337548" lon="12.675887516585613"><ele>209.66666666666666</ele><time>2026-04-04T14:50:49.001Z</time></trkpt><trkpt lat="43.60378165780371" lon="12.675899917110625"><ele>211.0</ele><time>2026-04-04T14:50:50.001Z</time></trkpt><trkpt lat="43.60359084725578" lon="12.67591329720953"><ele>211.0</ele><time>2026-04-04T14:50:51.001Z</time></trkpt><trkpt lat="43.603395551119235" lon="12.675929416544497"><ele>211.0</ele><time>2026-04-04T14:50:52.001Z</time></trkpt><trkpt lat="43.603201003778395" lon="12.675947415481327"><ele>211.0</ele><time>2026-04-04T14:50:53.001Z</time></trkpt><trkpt lat="43.60300718970309" lon="12.675960693335819"><ele>210.66666666666666</ele><time>2026-04-04T14:50:54.001Z</time></trkpt><trkpt lat="43.602811085974764" lon="12.675971405934309"><ele>210.33333333333331</ele><time>2026-04-04T14:50:55.001Z</time></trkpt><trkpt lat="43.60261640332984" lon="12.675982108858573"><ele>210.0</ele><time>2026-04-04T14:50:56.001Z</time></trkpt><trkpt lat="43.60241655084189" lon="12.675988166081138"><ele>210.0</ele><time>2026-04-04T14:50:57.001Z</time></trkpt><trkpt lat="43.6022191068388" lon="12.675990432655581"><ele>210.0</ele><time>2026-04-04T14:50:58.001Z</time></trkpt><trkpt lat="43.60202460640618" lon="12.675995667450051"><ele>210.0</ele><time>2026-04-04T14:50:59.001Z</time></trkpt><trkpt lat="43.60182821919363" lon="12.676000250354573"><ele>210.66666666666669</ele><time>2026-04-04T14:51:00.001Z</time></trkpt><trkpt lat="43.60163396012123" lon="12.676004935755321"><ele>211.33333333333334</ele><time>2026-04-04T14:51:01.001Z</time></trkpt><trkpt lat="43.60143733356047" lon="12.676007458503134"><ele>212.0</ele><time>2026-04-04T14:51:02.001Z</time></trkpt><trkpt lat="43.60124066706699" lon="12.676011952671459"><ele>212.66666666666669</ele><time>2026-04-04T14:51:03.001Z</time></trkpt><trkpt lat="43.60104714953031" lon="12.676019265477896"><ele>213.33333333333331</ele><time>2026-04-04T14:51:04.001Z</time></trkpt><trkpt lat="43.60085194438589" lon="12.676025961629023"><ele>214.0</ele><time>2026-04-04T14:51:05.001Z</time></trkpt><trkpt lat="43.600661309352375" lon="12.676031954254197"><ele>214.0</ele><time>2026-04-04T14:51:06.001Z</time></trkpt><trkpt lat="43.600472801588076" lon="12.67603404813386"><ele>214.0</ele><time>2026-04-04T14:51:07.001Z</time></trkpt><trkpt lat="43.60028755002404" lon="12.676034716243747"><ele>214.0</ele><time>2026-04-04T14:51:08.001Z</time></trkpt><trkpt lat="43.60010470801092" lon="12.676035444143785"><ele>214.33333333333331</ele><time>2026-04-04T14:51:09.001Z</time></trkpt><trkpt lat="43.59992617933011" lon="12.676036302495165"><ele>214.66666666666669</ele><time>2026-04-04T14:51:10.001Z</time></trkpt><trkpt lat="43.5997492014912" lon="12.676036075826035"><ele>215.0</ele><time>2026-04-04T14:51:11.001Z</time></trkpt><trkpt lat="43.59957432020155" lon="12.676038134069042"><ele>215.0</ele><time>2026-04-04T14:51:12.001Z</time></trkpt><trkpt lat="43.5994035905607" lon="12.676040455079692"><ele>215.0</ele><time>2026-04-04T14:51:13.001Z</time></trkpt><trkpt lat="43.59923518593285" lon="12.676044328922284"><ele>215.0</ele><time>2026-04-04T14:51:14.001Z</time></trkpt><trkpt lat="43.59906909388318" lon="12.67604962743683"><ele>215.0</ele><time>2026-04-04T14:51:15.001Z</time></trkpt><trkpt lat="43.59890010829567" lon="12.676054721540188"><ele>215.0</ele><time>2026-04-04T14:51:16.001Z</time></trkpt><trkpt lat="43.59873193907747" lon="12.676060066049056"><ele>215.0</ele><time>2026-04-04T14:51:17.001Z</time></trkpt><trkpt lat="43.59856349904478" lon="12.676066581080892"><ele>215.66666666666669</ele><time>2026-04-04T14:51:18.001Z</time></trkpt><trkpt lat="43.59839185397216" lon="12.676071061200489"><ele>216.33333333333331</ele><time>2026-04-04T14:51:19.001Z</time></trkpt><trkpt lat="43.5982242055597" lon="12.676073762548263"><ele>217.0</ele><time>2026-04-04T14:51:20.001Z</time></trkpt><trkpt lat="43.5980549626292" lon="12.676075341563635"><ele>217.0</ele><time>2026-04-04T14:51:21.001Z</time></trkpt><trkpt lat="43.59788962428103" lon="12.676077400087031"><ele>217.0</ele><time>2026-04-04T14:51:22.001Z</time></trkpt><trkpt lat="43.59772010851845" lon="12.67608225926932"><ele>217.0</ele><time>2026-04-04T14:51:23.001Z</time></trkpt><trkpt lat="43.59755225626205" lon="12.676083681621044"><ele>217.66666666666666</ele><time>2026-04-04T14:51:24.001Z</time></trkpt><trkpt lat="43.59738240015483" lon="12.67608776101796"><ele>218.33333333333331</ele><time>2026-04-04T14:51:25.001Z</time></trkpt><trkpt lat="43.59721563345465" lon="12.676087967907815"><ele>219.0</ele><time>2026-04-04T14:51:26.001Z</time></trkpt><trkpt lat="43.597047914842854" lon="12.676092143816014"><ele>219.66666666666669</ele><time>2026-04-04T14:51:27.001Z</time></trkpt><trkpt lat="43.596880228658954" lon="12.676094413132084"><ele>220.33333333333334</ele><time>2026-04-04T14:51:28.001Z</time></trkpt><trkpt lat="43.596712124087155" lon="12.676098013886623"><ele>221.0</ele><time>2026-04-04T14:51:29.001Z</time></trkpt><trkpt lat="43.59654384436394" lon="12.676099895130267"><ele>221.0</ele><time>2026-04-04T14:51:30.001Z</time></trkpt><trkpt lat="43.59637739242623" lon="12.676102253173672"><ele>221.0</ele><time>2026-04-04T14:51:31.001Z</time></trkpt><trkpt lat="43.59620938107814" lon="12.676104705897947"><ele>221.0</ele><time>2026-04-04T14:51:32.001Z</time></trkpt><trkpt lat="43.59604207988203" lon="12.676107004773645"><ele>220.66666666666669</ele><time>2026-04-04T14:51:33.001Z</time></trkpt><trkpt lat="43.59587608499064" lon="12.676108336590547"><ele>220.33333333333331</ele><time>2026-04-04T14:51:34.001Z</time></trkpt><trkpt lat="43.595712417842144" lon="12.676115203632813"><ele>220.0</ele><time>2026-04-04T14:51:35.001Z</time></trkpt><trkpt lat="43.59554666682854" lon="12.676119206526966"><ele>220.0</ele><time>2026-04-04T14:51:36.001Z</time></trkpt><trkpt lat="43.59538193595457" lon="12.676122629027565"><ele>220.0</ele><time>2026-04-04T14:51:37.001Z</time></trkpt><trkpt lat="43.595218108322854" lon="12.67612863306871"><ele>220.0</ele><time>2026-04-04T14:51:38.001Z</time></trkpt><trkpt lat="43.59505376335558" lon="12.67613383515213"><ele>220.33333333333331</ele><time>2026-04-04T14:51:39.001Z</time></trkpt><trkpt lat="43.59488669500199" lon="12.676139985187874"><ele>220.66666666666669</ele><time>2026-04-04T14:51:40.001Z</time></trkpt><trkpt lat="43.59472308773001" lon="12.676141307840867"><ele>221.0</ele><time>2026-04-04T14:51:41.001Z</time></trkpt><trkpt lat="43.594558913171376" lon="12.676143267599702"><ele>220.33333333333334</ele><time>2026-04-04T14:51:42.001Z</time></trkpt><trkpt lat="43.59439919545625" lon="12.6761457531382"><ele>219.66666666666669</ele><time>2026-04-04T14:51:43.001Z</time></trkpt><trkpt lat="43.594237931126116" lon="12.6761504567886"><ele>219.0</ele><time>2026-04-04T14:51:44.001Z</time></trkpt><trkpt lat="43.59408116838237" lon="12.67615716717653"><ele>219.0</ele><time>2026-04-04T14:51:45.001Z</time></trkpt><trkpt lat="43.593918016792195" lon="12.676157095558647"><ele>219.0</ele><time>2026-04-04T14:51:46.001Z</time></trkpt><trkpt lat="43.5937573576974" lon="12.67615514363591"><ele>219.0</ele><time>2026-04-04T14:51:47.001Z</time></trkpt><trkpt lat="43.59360233066294" lon="12.676152761973244"><ele>218.33333333333331</ele><time>2026-04-04T14:51:48.001Z</time></trkpt><trkpt lat="43.593449971197295" lon="12.676151866281337"><ele>217.66666666666666</ele><time>2026-04-04T14:51:49.001Z</time></trkpt><trkpt lat="43.5932977706459" lon="12.67614760886743"><ele>217.0</ele><time>2026-04-04T14:51:50.001Z</time></trkpt><trkpt lat="43.59314863295819" lon="12.676138926285553"><ele>217.0</ele><time>2026-04-04T14:51:51.001Z</time></trkpt><trkpt lat="43.592997450808646" lon="12.676125993216138"><ele>217.0</ele><time>2026-04-04T14:51:52.001Z</time></trkpt><trkpt lat="43.59284845680378" lon="12.676107371876217"><ele>217.0</ele><time>2026-04-04T14:51:53.001Z</time></trkpt><trkpt lat="43.592700933730974" lon="12.676084598692754"><ele>217.0</ele><time>2026-04-04T14:51:54.001Z</time></trkpt><trkpt lat="43.59255437110404" lon="12.676059924718851"><ele>218.33333333333331</ele><time>2026-04-04T14:51:55.002Z</time></trkpt><trkpt lat="43.59240720085944" lon="12.676028995184687"><ele>219.66666666666669</ele><time>2026-04-04T14:51:56.002Z</time></trkpt><trkpt lat="43.592259906600376" lon="12.675994995397856"><ele>221.0</ele><time>2026-04-04T14:51:57.002Z</time></trkpt><trkpt lat="43.592111330537634" lon="12.675953730757508"><ele>221.66666666666669</ele><time>2026-04-04T14:51:58.002Z</time></trkpt><trkpt lat="43.59196222707615" lon="12.67590570355467"><ele>222.33333333333331</ele><time>2026-04-04T14:51:59Z</time></trkpt><trkpt lat="43.59181020871422" lon="12.675851381454981"><ele>223.0</ele><time>2026-04-04T14:52:00Z</time></trkpt><trkpt lat="43.591654461144714" lon="12.675793813027648"><ele>223.0</ele><time>2026-04-04T14:52:01Z</time></trkpt><trkpt lat="43.59149376325054" lon="12.675737341982138"><ele>223.0</ele><time>2026-04-04T14:52:02Z</time></trkpt><trkpt lat="43.591331045515105" lon="12.675684776592664"><ele>223.0</ele><time>2026-04-04T14:52:03Z</time></trkpt><trkpt lat="43.591165719866616" lon="12.675627001395672"><ele>221.66666666666666</ele><time>2026-04-04T14:52:04Z</time></trkpt><trkpt lat="43.59100055995982" lon="12.675566146411372"><ele>220.33333333333331</ele><time>2026-04-04T14:52:05Z</time></trkpt><trkpt lat="43.59083503754061" lon="12.675504617177744"><ele>219.0</ele><time>2026-04-04T14:52:06Z</time></trkpt><trkpt lat="43.59066654693212" lon="12.675443985214713"><ele>219.0</ele><time>2026-04-04T14:52:07Z</time></trkpt><trkpt lat="43.59049604504147" lon="12.675378259978839"><ele>219.0</ele><time>2026-04-04T14:52:08Z</time></trkpt><trkpt lat="43.590323024943245" lon="12.675313900078294"><ele>219.0</ele><time>2026-04-04T14:52:09Z</time></trkpt><trkpt lat="43.59014881511279" lon="12.67524624253827"><ele>221.66666666666669</ele><time>2026-04-04T14:52:10Z</time></trkpt><trkpt lat="43.58997080265094" lon="12.675178810886102"><ele>224.33333333333334</ele><time>2026-04-04T14:52:11Z</time></trkpt><trkpt lat="43.58979169767997" lon="12.675113743716544"><ele>227.0</ele><time>2026-04-04T14:52:12Z</time></trkpt><trkpt lat="43.589610409532" lon="12.675049296716137"><ele>227.0</ele><time>2026-04-04T14:52:13Z</time></trkpt><trkpt lat="43.589429200279355" lon="12.674986755031052"><ele>227.0</ele><time>2026-04-04T14:52:14Z</time></trkpt><trkpt lat="43.58924327861235" lon="12.674919068138122"><ele>227.0</ele><time>2026-04-04T14:52:15Z</time></trkpt><trkpt lat="43.589055992657194" lon="12.674854274816777"><ele>227.0</ele><time>2026-04-04T14:52:16Z</time></trkpt><trkpt lat="43.58886802640368" lon="12.674784795906165"><ele>227.0</ele><time>2026-04-04T14:52:17Z</time></trkpt><trkpt lat="43.58867663821693" lon="12.674714199979482"><ele>227.0</ele><time>2026-04-04T14:52:18Z</time></trkpt><trkpt lat="43.58848503382982" lon="12.674646136229168"><ele>229.0</ele><time>2026-04-04T14:52:19Z</time></trkpt><trkpt lat="43.58829280630517" lon="12.674577920493437"><ele>231.0</ele><time>2026-04-04T14:52:20Z</time></trkpt><trkpt lat="43.58809807589945" lon="12.674506824564926"><ele>233.0</ele><time>2026-04-04T14:52:21Z</time></trkpt><trkpt lat="43.58790321365644" lon="12.67443475933128"><ele>231.33333333333334</ele><time>2026-04-04T14:52:22Z</time></trkpt><trkpt lat="43.58771032163396" lon="12.674361701772943"><ele>229.66666666666669</ele><time>2026-04-04T14:52:23Z</time></trkpt><trkpt lat="43.587516181455044" lon="12.674288914068084"><ele>228.0</ele><time>2026-04-04T14:52:24Z</time></trkpt><trkpt lat="43.587320423083945" lon="12.674217477660305"><ele>228.0</ele><time>2026-04-04T14:52:25Z</time></trkpt><trkpt lat="43.587125239400095" lon="12.674145348388546"><ele>228.0</ele><time>2026-04-04T14:52:26Z</time></trkpt><trkpt lat="43.586933527753345" lon="12.67408020401441"><ele>228.0</ele><time>2026-04-04T14:52:27Z</time></trkpt><trkpt lat="43.58674359134591" lon="12.674007752972733"><ele>226.0</ele><time>2026-04-04T14:52:28Z</time></trkpt><trkpt lat="43.58655392176103" lon="12.673934115184588"><ele>224.0</ele><time>2026-04-04T14:52:29Z</time></trkpt><trkpt lat="43.58636543088565" lon="12.673861916472855"><ele>222.0</ele><time>2026-04-04T14:52:30Z</time></trkpt><trkpt lat="43.58617927572637" lon="12.673790825168776"><ele>223.66666666666669</ele><time>2026-04-04T14:52:31Z</time></trkpt><trkpt lat="43.585993543016286" lon="12.673721175176247"><ele>225.33333333333334</ele><time>2026-04-04T14:52:32Z</time></trkpt><trkpt lat="43.58581131883482" lon="12.673653242353971"><ele>227.0</ele><time>2026-04-04T14:52:33Z</time></trkpt><trkpt lat="43.58562818884306" lon="12.67358673505763"><ele>227.0</ele><time>2026-04-04T14:52:34Z</time></trkpt><trkpt lat="43.585449396802424" lon="12.673522358717987"><ele>227.0</ele><time>2026-04-04T14:52:35Z</time></trkpt><trkpt lat="43.58527038239284" lon="12.67345719279663"><ele>227.0</ele><time>2026-04-04T14:52:36Z</time></trkpt><trkpt lat="43.58509036521786" lon="12.673391643106546"><ele>227.0</ele><time>2026-04-04T14:52:37Z</time></trkpt><trkpt lat="43.58491128460994" lon="12.673325307982171"><ele>227.0</ele><time>2026-04-04T14:52:38Z</time></trkpt><trkpt lat="43.58473193225802" lon="12.67325165650087"><ele>227.0</ele><time>2026-04-04T14:52:39Z</time></trkpt><trkpt lat="43.584555735816764" lon="12.673174239095822"><ele>227.0</ele><time>2026-04-04T14:52:40Z</time></trkpt><trkpt lat="43.58438107333468" lon="12.673089762248786"><ele>227.0</ele><time>2026-04-04T14:52:41Z</time></trkpt><trkpt lat="43.58420835123583" lon="12.673002892957898"><ele>227.0</ele><time>2026-04-04T14:52:42Z</time></trkpt><trkpt lat="43.58403466177068" lon="12.67291295586749"><ele>227.0</ele><time>2026-04-04T14:52:43Z</time></trkpt><trkpt lat="43.58386466815497" lon="12.672820820798547"><ele>227.0</ele><time>2026-04-04T14:52:44Z</time></trkpt><trkpt lat="43.58369640991108" lon="12.672723587355069"><ele>227.0</ele><time>2026-04-04T14:52:45Z</time></trkpt><trkpt lat="43.583530391421746" lon="12.672623199269227"><ele>228.0</ele><time>2026-04-04T14:52:46Z</time></trkpt><trkpt lat="43.58336711628852" lon="12.672518527130123"><ele>229.0</ele><time>2026-04-04T14:52:47Z</time></trkpt><trkpt lat="43.58320674849567" lon="12.672410555014702"><ele>230.0</ele><time>2026-04-04T14:52:48Z</time></trkpt><trkpt lat="43.583049016385175" lon="12.672296583371729"><ele>230.0</ele><time>2026-04-04T14:52:49Z</time></trkpt><trkpt lat="43.582893625498144" lon="12.6721827233227"><ele>230.0</ele><time>2026-04-04T14:52:50Z</time></trkpt><trkpt lat="43.58273674458582" lon="12.672068279940481"><ele>230.0</ele><time>2026-04-04T14:52:51Z</time></trkpt><trkpt lat="43.58257882521884" lon="12.671954133032008"><ele>230.66666666666669</ele><time>2026-04-04T14:52:52.001Z</time></trkpt><trkpt lat="43.582422357645854" lon="12.671836879631703"><ele>231.33333333333331</ele><time>2026-04-04T14:52:53.001Z</time></trkpt><trkpt lat="43.58226897002758" lon="12.671709598864485"><ele>232.0</ele><time>2026-04-04T14:52:54.001Z</time></trkpt><trkpt lat="43.58211305507623" lon="12.671584562227462"><ele>231.0</ele><time>2026-04-04T14:52:55.001Z</time></trkpt><trkpt lat="43.58195255854473" lon="12.671463680357498"><ele>230.0</ele><time>2026-04-04T14:52:56.001Z</time></trkpt><trkpt lat="43.58179231844999" lon="12.671343956533232"><ele>229.0</ele><time>2026-04-04T14:52:57.001Z</time></trkpt><trkpt lat="43.58163174301179" lon="12.671225277141883"><ele>229.66666666666666</ele><time>2026-04-04T14:52:58.001Z</time></trkpt><trkpt lat="43.58147113615539" lon="12.671104400723854"><ele>230.33333333333331</ele><time>2026-04-04T14:52:59.001Z</time></trkpt><trkpt lat="43.581308841225855" lon="12.670982631543461"><ele>231.0</ele><time>2026-04-04T14:53:00.001Z</time></trkpt><trkpt lat="43.581145699690296" lon="12.670859731974486"><ele>231.0</ele><time>2026-04-04T14:53:01.001Z</time></trkpt><trkpt lat="43.58098127860028" lon="12.670736776736833"><ele>231.0</ele><time>2026-04-04T14:53:02.001Z</time></trkpt><trkpt lat="43.58081795459846" lon="12.670615899949745"><ele>231.0</ele><time>2026-04-04T14:53:03.001Z</time></trkpt><trkpt lat="43.580653370492804" lon="12.67049493215067"><ele>231.0</ele><time>2026-04-04T14:53:04.001Z</time></trkpt><trkpt lat="43.580491189097735" lon="12.67037576958318"><ele>231.0</ele><time>2026-04-04T14:53:05.001Z</time></trkpt><trkpt lat="43.58032995039596" lon="12.670251723399607"><ele>231.0</ele><time>2026-04-04T14:53:06.001Z</time></trkpt><trkpt lat="43.58016857693069" lon="12.670127365586847"><ele>231.66666666666669</ele><time>2026-04-04T14:53:07.001Z</time></trkpt><trkpt lat="43.58000722973498" lon="12.670003769990222"><ele>232.33333333333334</ele><time>2026-04-04T14:53:08.001Z</time></trkpt><trkpt lat="43.5798448219303" lon="12.669883757437042"><ele>233.0</ele><time>2026-04-04T14:53:09.001Z</time></trkpt><trkpt lat="43.57968010549282" lon="12.669760418551647"><ele>233.66666666666669</ele><time>2026-04-04T14:53:10.001Z</time></trkpt><trkpt lat="43.57951678626737" lon="12.669639592587448"><ele>234.33333333333331</ele><time>2026-04-04T14:53:11.001Z</time></trkpt><trkpt lat="43.57935333901243" lon="12.669518670061064"><ele>235.0</ele><time>2026-04-04T14:53:12.001Z</time></trkpt><trkpt lat="43.579188604462686" lon="12.669393952791342"><ele>236.33333333333331</ele><time>2026-04-04T14:53:13.001Z</time></trkpt><trkpt lat="43.579024075878" lon="12.669268549691866"><ele>237.66666666666669</ele><time>2026-04-04T14:53:14.001Z</time></trkpt><trkpt lat="43.57885892457859" lon="12.669146932269465"><ele>239.0</ele><time>2026-04-04T14:53:15.001Z</time></trkpt><trkpt lat="43.57869613605058" lon="12.669026148735105"><ele>237.33333333333334</ele><time>2026-04-04T14:53:16.001Z</time></trkpt><trkpt lat="43.57853398501618" lon="12.668903431213863"><ele>235.66666666666669</ele><time>2026-04-04T14:53:17.001Z</time></trkpt><trkpt lat="43.578372495708386" lon="12.66877947159102"><ele>234.0</ele><time>2026-04-04T14:53:18.001Z</time></trkpt><trkpt lat="43.5782123915114" lon="12.668658619786799"><ele>234.0</ele><time>2026-04-04T14:53:19.001Z</time></trkpt><trkpt lat="43.57805156446086" lon="12.668535598970593"><ele>234.0</ele><time>2026-04-04T14:53:20.001Z</time></trkpt><trkpt lat="43.577891959513295" lon="12.668414870153239"><ele>234.0</ele><time>2026-04-04T14:53:21.001Z</time></trkpt><trkpt lat="43.577730972203" lon="12.668292496421554"><ele>234.0</ele><time>2026-04-04T14:53:22.001Z</time></trkpt><trkpt lat="43.57756831812254" lon="12.66817143270744"><ele>234.0</ele><time>2026-04-04T14:53:23.001Z</time></trkpt><trkpt lat="43.57740446364151" lon="12.668050613735526"><ele>234.0</ele><time>2026-04-04T14:53:24.001Z</time></trkpt><trkpt lat="43.57723869405295" lon="12.66792978988239"><ele>234.0</ele><time>2026-04-04T14:53:25.001Z</time></trkpt><trkpt lat="43.577072634658784" lon="12.667806868673022"><ele>234.0</ele><time>2026-04-04T14:53:26.001Z</time></trkpt><trkpt lat="43.57690582818818" lon="12.667684560985876"><ele>234.0</ele><time>2026-04-04T14:53:27.001Z</time></trkpt><trkpt lat="43.57673970661684" lon="12.667560002918593"><ele>234.66666666666669</ele><time>2026-04-04T14:53:28.001Z</time></trkpt><trkpt lat="43.57657480581045" lon="12.667433777460552"><ele>235.33333333333334</ele><time>2026-04-04T14:53:29.001Z</time></trkpt><trkpt lat="43.57640772164255" lon="12.66730393356994"><ele>236.0</ele><time>2026-04-04T14:53:30.001Z</time></trkpt><trkpt lat="43.576239924989274" lon="12.667176025300755"><ele>236.33333333333334</ele><time>2026-04-04T14:53:31.001Z</time></trkpt><trkpt lat="43.57607362442344" lon="12.667051105048165"><ele>236.66666666666669</ele><time>2026-04-04T14:53:32.001Z</time></trkpt><trkpt lat="43.575906811499536" lon="12.666926060669692"><ele>237.0</ele><time>2026-04-04T14:53:33.001Z</time></trkpt><trkpt lat="43.575739945391874" lon="12.666800969863399"><ele>236.66666666666669</ele><time>2026-04-04T14:53:34.001Z</time></trkpt><trkpt lat="43.57557437292745" lon="12.666679301241324"><ele>236.33333333333334</ele><time>2026-04-04T14:53:35.001Z</time></trkpt><trkpt lat="43.57540921208417" lon="12.666554710108883"><ele>236.0</ele><time>2026-04-04T14:53:36.001Z</time></trkpt><trkpt lat="43.57524426376019" lon="12.666437309507273"><ele>236.0</ele><time>2026-04-04T14:53:37.001Z</time></trkpt><trkpt lat="43.57507915710216" lon="12.666314300231367"><ele>236.0</ele><time>2026-04-04T14:53:38.001Z</time></trkpt><trkpt lat="43.574913981650845" lon="12.666194761662009"><ele>236.0</ele><time>2026-04-04T14:53:39.001Z</time></trkpt><trkpt lat="43.574750413591296" lon="12.666075090501762"><ele>236.66666666666669</ele><time>2026-04-04T14:53:40.001Z</time></trkpt><trkpt lat="43.574588019282395" lon="12.665950389112359"><ele>237.33333333333331</ele><time>2026-04-04T14:53:41.001Z</time></trkpt><trkpt lat="43.574427364648955" lon="12.665821307346244"><ele>238.0</ele><time>2026-04-04T14:53:42.001Z</time></trkpt><trkpt lat="43.57426563448515" lon="12.665697376596821"><ele>238.0</ele><time>2026-04-04T14:53:43.001Z</time></trkpt><trkpt lat="43.57410383717615" lon="12.665574052962938"><ele>238.0</ele><time>2026-04-04T14:53:44.001Z</time></trkpt><trkpt lat="43.57394099537347" lon="12.66545513847834"><ele>238.0</ele><time>2026-04-04T14:53:45.001Z</time></trkpt><trkpt lat="43.57377783939469" lon="12.665336119755844"><ele>236.33333333333331</ele><time>2026-04-04T14:53:46.001Z</time></trkpt><trkpt lat="43.57361727266177" lon="12.665214637000249"><ele>234.66666666666669</ele><time>2026-04-04T14:53:47.001Z</time></trkpt><trkpt lat="43.573456386807294" lon="12.665092122914336"><ele>233.0</ele><time>2026-04-04T14:53:48.001Z</time></trkpt><trkpt lat="43.57329272334169" lon="12.664961377789178"><ele>233.0</ele><time>2026-04-04T14:53:49.001Z</time></trkpt><trkpt lat="43.57313329804234" lon="12.664840644997424"><ele>233.0</ele><time>2026-04-04T14:53:50.001Z</time></trkpt><trkpt lat="43.57297067846119" lon="12.664715712217552"><ele>233.0</ele><time>2026-04-04T14:53:51.001Z</time></trkpt><trkpt lat="43.57280715954404" lon="12.664597386113854"><ele>233.33333333333334</ele><time>2026-04-04T14:53:52.001Z</time></trkpt><trkpt lat="43.57264371248905" lon="12.664479863397153"><ele>233.66666666666669</ele><time>2026-04-04T14:53:53.001Z</time></trkpt><trkpt lat="43.57248190812004" lon="12.664362996306217"><ele>234.0</ele><time>2026-04-04T14:53:54.001Z</time></trkpt><trkpt lat="43.57231986217165" lon="12.664243550358913"><ele>236.0</ele><time>2026-04-04T14:53:55.001Z</time></trkpt><trkpt lat="43.57216040552858" lon="12.664122139674387"><ele>238.0</ele><time>2026-04-04T14:53:56.001Z</time></trkpt><trkpt lat="43.572002552965536" lon="12.664001576794227"><ele>240.0</ele><time>2026-04-04T14:53:57.001Z</time></trkpt><trkpt lat="43.571845569551535" lon="12.663878432085863"><ele>240.0</ele><time>2026-04-04T14:53:58.001Z</time></trkpt><trkpt lat="43.57168766233148" lon="12.66375690333938"><ele>240.0</ele><time>2026-04-04T14:53:59.002Z</time></trkpt><trkpt lat="43.57152770432231" lon="12.663636761909125"><ele>240.0</ele><time>2026-04-04T14:54:00.002Z</time></trkpt><trkpt lat="43.57136594447344" lon="12.663518319144483"><ele>240.33333333333331</ele><time>2026-04-04T14:54:01.002Z</time></trkpt><trkpt lat="43.571205825092385" lon="12.663395954436336"><ele>240.66666666666666</ele><time>2026-04-04T14:54:02.002Z</time></trkpt><trkpt lat="43.57104448787427" lon="12.663269836836289"><ele>241.0</ele><time>2026-04-04T14:54:03.002Z</time></trkpt><trkpt lat="43.570881736000416" lon="12.663145838703581"><ele>241.0</ele><time>2026-04-04T14:54:04.002Z</time></trkpt><trkpt lat="43.57071875274822" lon="12.663019884335975"><ele>241.0</ele><time>2026-04-04T14:54:05Z</time></trkpt><trkpt lat="43.570556899485865" lon="12.662898762567607"><ele>241.0</ele><time>2026-04-04T14:54:06Z</time></trkpt><trkpt lat="43.57039214471812" lon="12.662774218140543"><ele>242.66666666666666</ele><time>2026-04-04T14:54:07Z</time></trkpt><trkpt lat="43.57022872399043" lon="12.662657535905927"><ele>244.33333333333331</ele><time>2026-04-04T14:54:08Z</time></trkpt><trkpt lat="43.5700656317019" lon="12.662535044117377"><ele>246.0</ele><time>2026-04-04T14:54:09Z</time></trkpt><trkpt lat="43.56990096349999" lon="12.662414802498244"><ele>246.0</ele><time>2026-04-04T14:54:10Z</time></trkpt><trkpt lat="43.569739246514075" lon="12.662294294178228"><ele>246.0</ele><time>2026-04-04T14:54:11Z</time></trkpt><trkpt lat="43.56957563648328" lon="12.662169514582166"><ele>246.0</ele><time>2026-04-04T14:54:12Z</time></trkpt><trkpt lat="43.56941577165008" lon="12.66204670406037"><ele>246.33333333333331</ele><time>2026-04-04T14:54:13Z</time></trkpt><trkpt lat="43.56925606894455" lon="12.661924032207665"><ele>246.66666666666666</ele><time>2026-04-04T14:54:14Z</time></trkpt><trkpt lat="43.56909641105532" lon="12.66180490032913"><ele>247.0</ele><time>2026-04-04T14:54:15Z</time></trkpt><trkpt lat="43.56893823839161" lon="12.661686573866504"><ele>247.0</ele><time>2026-04-04T14:54:16Z</time></trkpt><trkpt lat="43.56877822711684" lon="12.661570277752972"><ele>247.0</ele><time>2026-04-04T14:54:17Z</time></trkpt><trkpt lat="43.56862343897964" lon="12.661455194915645"><ele>247.0</ele><time>2026-04-04T14:54:18Z</time></trkpt><trkpt lat="43.56846794983298" lon="12.661341023762416"><ele>246.66666666666666</ele><time>2026-04-04T14:54:19Z</time></trkpt><trkpt lat="43.568313199805985" lon="12.66122825149431"><ele>246.33333333333331</ele><time>2026-04-04T14:54:20Z</time></trkpt><trkpt lat="43.56815861900015" lon="12.661119861067798"><ele>246.0</ele><time>2026-04-04T14:54:21Z</time></trkpt><trkpt lat="43.56800190516958" lon="12.66101467319798"><ele>247.0</ele><time>2026-04-04T14:54:22Z</time></trkpt><trkpt lat="43.56784437747583" lon="12.660914860237632"><ele>248.0</ele><time>2026-04-04T14:54:23Z</time></trkpt><trkpt lat="43.5676915616733" lon="12.660818897668413"><ele>249.0</ele><time>2026-04-04T14:54:24Z</time></trkpt><trkpt lat="43.56753719329939" lon="12.66072202115629"><ele>249.0</ele><time>2026-04-04T14:54:25Z</time></trkpt><trkpt lat="43.56738290825351" lon="12.660628345565177"><ele>249.0</ele><time>2026-04-04T14:54:26Z</time></trkpt><trkpt lat="43.56722791136245" lon="12.660530731872242"><ele>249.0</ele><time>2026-04-04T14:54:27Z</time></trkpt><trkpt lat="43.56707480175631" lon="12.66043441328987"><ele>250.33333333333331</ele><time>2026-04-04T14:54:28Z</time></trkpt><trkpt lat="43.56691960313194" lon="12.660335985803446"><ele>251.66666666666666</ele><time>2026-04-04T14:54:29Z</time></trkpt><trkpt lat="43.56676560421438" lon="12.660240559915684"><ele>253.0</ele><time>2026-04-04T14:54:30Z</time></trkpt><trkpt lat="43.56661185230893" lon="12.660140920807581"><ele>253.0</ele><time>2026-04-04T14:54:31Z</time></trkpt><trkpt lat="43.56645706499567" lon="12.66004304116041"><ele>253.0</ele><time>2026-04-04T14:54:32Z</time></trkpt><trkpt lat="43.56630179314292" lon="12.659941943666713"><ele>253.0</ele><time>2026-04-04T14:54:33Z</time></trkpt><trkpt lat="43.56614781228385" lon="12.659845093035461"><ele>252.33333333333331</ele><time>2026-04-04T14:54:34Z</time></trkpt><trkpt lat="43.56599480008196" lon="12.659751027757984"><ele>251.66666666666669</ele><time>2026-04-04T14:54:35Z</time></trkpt><trkpt lat="43.56584522726392" lon="12.659651699926423"><ele>251.0</ele><time>2026-04-04T14:54:36Z</time></trkpt><trkpt lat="43.56570180178701" lon="12.659547425814118"><ele>251.0</ele><time>2026-04-04T14:54:37Z</time></trkpt><trkpt lat="43.56556322286392" lon="12.6594409732846"><ele>251.0</ele><time>2026-04-04T14:54:38Z</time></trkpt><trkpt lat="43.56543149742575" lon="12.659337352144282"><ele>251.0</ele><time>2026-04-04T14:54:39Z</time></trkpt><trkpt lat="43.56530446653633" lon="12.659242215653848"><ele>251.0</ele><time>2026-04-04T14:54:40Z</time></trkpt><trkpt lat="43.56519121691528" lon="12.65915124277286"><ele>251.00000000000003</ele><time>2026-04-04T14:54:41Z</time></trkpt><trkpt lat="43.56510018482531" lon="12.659065323036653"><ele>251.00000000000003</ele><time>2026-04-04T14:54:42Z</time></trkpt><trkpt lat="43.56504052043479" lon="12.658979249267526"><ele>251.0</ele><time>2026-04-04T14:54:43Z</time></trkpt><trkpt lat="43.56501964546173" lon="12.658891145401633"><ele>251.0</ele><time>2026-04-04T14:54:44Z</time></trkpt><trkpt lat="43.565011425079504" lon="12.65878453911889"><ele>251.00000000000003</ele><time>2026-04-04T14:54:45Z</time></trkpt><trkpt lat="43.56502074538029" lon="12.658678843730968"><ele>251.0</ele><time>2026-04-04T14:54:46Z</time></trkpt><trkpt lat="43.564983581632895" lon="12.658558271207344"><ele>251.0</ele><time>2026-04-04T14:54:47Z</time></trkpt><trkpt lat="43.56496021250878" lon="12.658440993907483"><ele>251.0</ele><time>2026-04-04T14:54:48Z</time></trkpt><trkpt lat="43.56491433496918" lon="12.658346214134685"><ele>251.00000000000003</ele><time>2026-04-04T14:54:49Z</time></trkpt><trkpt lat="43.564846731951896" lon="12.658272578060634"><ele>251.0</ele><time>2026-04-04T14:54:50Z</time></trkpt><trkpt lat="43.56476577006052" lon="12.658234812288027"><ele>251.0</ele><time>2026-04-04T14:54:51Z</time></trkpt><trkpt lat="43.56467454372019" lon="12.658234422404105"><ele>251.00000000000003</ele><time>2026-04-04T14:54:52Z</time></trkpt><trkpt lat="43.5645766689697" lon="12.658239874910398"><ele>251.00000000000003</ele><time>2026-04-04T14:54:53Z</time></trkpt><trkpt lat="43.564471985585925" lon="12.658216675170868"><ele>251.0</ele><time>2026-04-04T14:54:54Z</time></trkpt><trkpt lat="43.56436677037909" lon="12.658163236251214"><ele>251.0</ele><time>2026-04-04T14:54:55Z</time></trkpt><trkpt lat="43.564263655096134" lon="12.658087193165017"><ele>251.0</ele><time>2026-04-04T14:54:56Z</time></trkpt><trkpt lat="43.56417153737005" lon="12.657976525737114"><ele>251.0</ele><time>2026-04-04T14:54:57Z</time></trkpt><trkpt lat="43.56411595113324" lon="12.65782523870457"><ele>251.0</ele><time>2026-04-04T14:54:58Z</time></trkpt><trkpt lat="43.564040354679335" lon="12.657672984892512"><ele>251.0</ele><time>2026-04-04T14:54:59Z</time></trkpt><trkpt lat="43.56399285613747" lon="12.657496246038841"><ele>251.25</ele><time>2026-04-04T14:55:00Z</time></trkpt><trkpt lat="43.56394502128534" lon="12.65731305366753"><ele>251.5</ele><time>2026-04-04T14:55:01Z</time></trkpt><trkpt lat="43.56388659567387" lon="12.657134306579852"><ele>251.75</ele><time>2026-04-04T14:55:02.001Z</time></trkpt><trkpt lat="43.563802701759194" lon="12.656983736737295"><ele>252.0</ele><time>2026-04-04T14:55:03.001Z</time></trkpt><trkpt lat="43.563700890690214" lon="12.65688306136499"><ele>251.0</ele><time>2026-04-04T14:55:04.001Z</time></trkpt><trkpt lat="43.56359373390235" lon="12.65683091812128"><ele>250.0</ele><time>2026-04-04T14:55:05.001Z</time></trkpt><trkpt lat="43.56349633708006" lon="12.65682684902363"><ele>249.0</ele><time>2026-04-04T14:55:06.001Z</time></trkpt><trkpt lat="43.563408666070345" lon="12.656855826732325"><ele>248.0</ele><time>2026-04-04T14:55:07.001Z</time></trkpt><trkpt lat="43.563343077563026" lon="12.656879271673647"><ele>247.0</ele><time>2026-04-04T14:55:08.001Z</time></trkpt><trkpt lat="43.56327226092799" lon="12.656868632898481"><ele>246.0</ele><time>2026-04-04T14:55:09.001Z</time></trkpt><trkpt lat="43.56320100210299" lon="12.656831176699807"><ele>246.0</ele><time>2026-04-04T14:55:10.001Z</time></trkpt><trkpt lat="43.56312565716134" lon="12.656795576954726"><ele>246.0</ele><time>2026-04-04T14:55:11.001Z</time></trkpt><trkpt lat="43.563052316413966" lon="12.65680132016306"><ele>246.0</ele><time>2026-04-04T14:55:12.001Z</time></trkpt><trkpt lat="43.56298158200393" lon="12.6568461322948"><ele>246.0</ele><time>2026-04-04T14:55:13.001Z</time></trkpt><trkpt lat="43.56292412706635" lon="12.656910916146705"><ele>246.0</ele><time>2026-04-04T14:55:14.001Z</time></trkpt><trkpt lat="43.56287535265546" lon="12.656974516552097"><ele>246.0</ele><time>2026-04-04T14:55:15.001Z</time></trkpt><trkpt lat="43.56280411441373" lon="12.657031942535564"><ele>246.60000000000002</ele><time>2026-04-04T14:55:17.001Z</time></trkpt><trkpt lat="43.56286704302709" lon="12.657100321523561"><ele>247.20000000000002</ele><time>2026-04-04T14:55:19.001Z</time></trkpt><trkpt lat="43.562765893914424" lon="12.657060697293906"><ele>247.79999999999998</ele><time>2026-04-04T14:55:20.001Z</time></trkpt><trkpt lat="43.56287364955335" lon="12.657161758072066"><ele>248.39999999999998</ele><time>2026-04-04T14:55:22.001Z</time></trkpt><trkpt lat="43.56293894888145" lon="12.657233864954183"><ele>249.0</ele><time>2026-04-04T15:07:09Z</time></trkpt><trkpt lat="43.56302241261393" lon="12.657319075971445"><ele>249.0</ele><time>2026-04-04T15:07:11Z</time></trkpt><trkpt lat="43.56313208799422" lon="12.657328636503795"><ele>248.99999999999997</ele><time>2026-04-04T15:07:13Z</time></trkpt><trkpt lat="43.56323731201971" lon="12.657292372530645"><ele>248.99999999999997</ele><time>2026-04-04T15:07:15Z</time></trkpt><trkpt lat="43.56326637677999" lon="12.657198312795154"><ele>249.0</ele><time>2026-04-04T15:07:16Z</time></trkpt><trkpt lat="43.56329056369298" lon="12.657038282635796"><ele>249.0</ele><time>2026-04-04T15:07:18Z</time></trkpt><trkpt lat="43.563258400592325" lon="12.656877707470537"><ele>248.5</ele><time>2026-04-04T15:07:20Z</time></trkpt><trkpt lat="43.56319326657089" lon="12.656824190711085"><ele>248.0</ele><time>2026-04-04T15:07:21Z</time></trkpt><trkpt lat="43.56313378478259" lon="12.65677475568663"><ele>247.5</ele><time>2026-04-04T15:07:22Z</time></trkpt><trkpt lat="43.56306760396273" lon="12.656736339907477"><ele>247.0</ele><time>2026-04-04T15:07:23Z</time></trkpt><trkpt lat="43.56299498783605" lon="12.656730745879988"><ele>246.5</ele><time>2026-04-04T15:07:24Z</time></trkpt><trkpt lat="43.562921327985656" lon="12.65667395091677"><ele>246.0</ele><time>2026-04-04T15:07:25Z</time></trkpt><trkpt lat="43.56283897752863" lon="12.656651050320846"><ele>245.20000000000002</ele><time>2026-04-04T15:07:26Z</time></trkpt><trkpt lat="43.562751272133966" lon="12.656642768618326"><ele>244.40000000000003</ele><time>2026-04-04T15:07:27Z</time></trkpt><trkpt lat="43.56266319583744" lon="12.656646337650951"><ele>243.6</ele><time>2026-04-04T15:07:28Z</time></trkpt><trkpt lat="43.562570150742644" lon="12.656648559210717"><ele>242.8</ele><time>2026-04-04T15:07:29Z</time></trkpt><trkpt lat="43.562475220034514" lon="12.65662758367873"><ele>242.0</ele><time>2026-04-04T15:07:30Z</time></trkpt><trkpt lat="43.562385044973624" lon="12.656581637300675"><ele>242.0</ele><time>2026-04-04T15:07:31Z</time></trkpt><trkpt lat="43.56229613486998" lon="12.656511300545382"><ele>242.0</ele><time>2026-04-04T15:07:32Z</time></trkpt><trkpt lat="43.56220537058661" lon="12.656427558018503"><ele>242.0</ele><time>2026-04-04T15:07:33Z</time></trkpt><trkpt lat="43.562109665678065" lon="12.656339672772745"><ele>242.0</ele><time>2026-04-04T15:07:34Z</time></trkpt><trkpt lat="43.562009813464876" lon="12.65624537566844"><ele>242.0</ele><time>2026-04-04T15:07:35Z</time></trkpt><trkpt lat="43.56190890971361" lon="12.656149722769916"><ele>242.25</ele><time>2026-04-04T15:07:36Z</time></trkpt><trkpt lat="43.56180607483325" lon="12.656051667043068"><ele>242.5</ele><time>2026-04-04T15:07:37Z</time></trkpt><trkpt lat="43.56170555493016" lon="12.65595111720496"><ele>242.75</ele><time>2026-04-04T15:07:38Z</time></trkpt><trkpt lat="43.56160687702357" lon="12.655843561591936"><ele>243.0</ele><time>2026-04-04T15:07:39Z</time></trkpt><trkpt lat="43.56151302250856" lon="12.655723235375067"><ele>243.0</ele><time>2026-04-04T15:07:40Z</time></trkpt><trkpt lat="43.56142254410271" lon="12.655592885048348"><ele>243.0</ele><time>2026-04-04T15:07:41Z</time></trkpt><trkpt lat="43.56133281939791" lon="12.65545702606703"><ele>243.0</ele><time>2026-04-04T15:07:42Z</time></trkpt><trkpt lat="43.56124721968709" lon="12.655317238611907"><ele>243.0</ele><time>2026-04-04T15:07:43Z</time></trkpt><trkpt lat="43.56115840043511" lon="12.655174437355734"><ele>241.5</ele><time>2026-04-04T15:07:44Z</time></trkpt><trkpt lat="43.56107686673069" lon="12.655027522211638"><ele>240.0</ele><time>2026-04-04T15:07:45Z</time></trkpt><trkpt lat="43.560993328725736" lon="12.65488056580593"><ele>238.5</ele><time>2026-04-04T15:07:46Z</time></trkpt><trkpt lat="43.560902757019704" lon="12.654745823173174"><ele>237.0</ele><time>2026-04-04T15:07:47Z</time></trkpt><trkpt lat="43.56081202968573" lon="12.654611484246812"><ele>237.0</ele><time>2026-04-04T15:07:48Z</time></trkpt><trkpt lat="43.560713620065854" lon="12.654485304206434"><ele>237.0</ele><time>2026-04-04T15:07:49Z</time></trkpt><trkpt lat="43.56060122921386" lon="12.65438417537812"><ele>237.0</ele><time>2026-04-04T15:07:50Z</time></trkpt><trkpt lat="43.56047939031248" lon="12.654303161665256"><ele>237.0</ele><time>2026-04-04T15:07:51.001Z</time></trkpt><trkpt lat="43.56034961784799" lon="12.654245511638942"><ele>238.5</ele><time>2026-04-04T15:07:52.001Z</time></trkpt><trkpt lat="43.56021487483946" lon="12.654223310256974"><ele>240.0</ele><time>2026-04-04T15:07:53.001Z</time></trkpt><trkpt lat="43.56007806765262" lon="12.654231294136917"><ele>241.5</ele><time>2026-04-04T15:07:54.001Z</time></trkpt><trkpt lat="43.559939652540464" lon="12.654244422042495"><ele>243.0</ele><time>2026-04-04T15:07:55.001Z</time></trkpt><trkpt lat="43.55980040124074" lon="12.654232646121509"><ele>243.0</ele><time>2026-04-04T15:07:56.001Z</time></trkpt><trkpt lat="43.559659618345215" lon="12.654233961282465"><ele>243.0</ele><time>2026-04-04T15:07:57.001Z</time></trkpt><trkpt lat="43.55951502645545" lon="12.654225785778284"><ele>243.0</ele><time>2026-04-04T15:07:58.001Z</time></trkpt><trkpt lat="43.55936898958956" lon="12.654212342777234"><ele>243.0</ele><time>2026-04-04T15:07:59.001Z</time></trkpt><trkpt lat="43.55922848002813" lon="12.654193084397958"><ele>242.25</ele><time>2026-04-04T15:08:00.001Z</time></trkpt><trkpt lat="43.559086922007914" lon="12.654178081996083"><ele>241.5</ele><time>2026-04-04T15:08:01.001Z</time></trkpt><trkpt lat="43.55894901368051" lon="12.654139539750451"><ele>240.75</ele><time>2026-04-04T15:08:02.001Z</time></trkpt><trkpt lat="43.55881287620557" lon="12.654103471149472"><ele>240.0</ele><time>2026-04-04T15:08:03.001Z</time></trkpt><trkpt lat="43.55868181575093" lon="12.654069690181874"><ele>239.5</ele><time>2026-04-04T15:08:04.001Z</time></trkpt><trkpt lat="43.55855454329703" lon="12.654039103782607"><ele>239.0</ele><time>2026-04-04T15:08:05.001Z</time></trkpt><trkpt lat="43.55843321454921" lon="12.654011067933318"><ele>238.5</ele><time>2026-04-04T15:08:06.001Z</time></trkpt><trkpt lat="43.55831451333722" lon="12.653987449115384"><ele>238.0</ele><time>2026-04-04T15:08:07.001Z</time></trkpt><trkpt lat="43.55819280205185" lon="12.653963204864683"><ele>238.0</ele><time>2026-04-04T15:08:08.001Z</time></trkpt><trkpt lat="43.55807230993753" lon="12.653938663695927"><ele>238.0</ele><time>2026-04-04T15:08:09.001Z</time></trkpt><trkpt lat="43.55795586223458" lon="12.653910529656125"><ele>238.0</ele><time>2026-04-04T15:08:10.001Z</time></trkpt><trkpt lat="43.55784351750338" lon="12.653874216945988"><ele>238.0</ele><time>2026-04-04T15:08:11.001Z</time></trkpt><trkpt lat="43.557732210064295" lon="12.653828332408478"><ele>238.5</ele><time>2026-04-04T15:08:12.001Z</time></trkpt><trkpt lat="43.55762491036296" lon="12.653775092875192"><ele>239.0</ele><time>2026-04-04T15:08:13.001Z</time></trkpt><trkpt lat="43.557519431685975" lon="12.653712405712342"><ele>239.5</ele><time>2026-04-04T15:08:14.001Z</time></trkpt><trkpt lat="43.55741468781285" lon="12.653648753550812"><ele>240.0</ele><time>2026-04-04T15:08:15.001Z</time></trkpt><trkpt lat="43.55730637693265" lon="12.65358007318385"><ele>241.25</ele><time>2026-04-04T15:08:16.001Z</time></trkpt><trkpt lat="43.55720158245681" lon="12.653504093288214"><ele>242.5</ele><time>2026-04-04T15:08:17.001Z</time></trkpt><trkpt lat="43.55709636050932" lon="12.653426756747427"><ele>243.75</ele><time>2026-04-04T15:08:18.001Z</time></trkpt><trkpt lat="43.556988850826656" lon="12.653355019219706"><ele>245.0</ele><time>2026-04-04T15:08:19.001Z</time></trkpt><trkpt lat="43.55688234265257" lon="12.653283830568155"><ele>245.0</ele><time>2026-04-04T15:08:20.001Z</time></trkpt><trkpt lat="43.55677772204306" lon="12.653212200969765"><ele>245.0</ele><time>2026-04-04T15:08:21.001Z</time></trkpt><trkpt lat="43.556675561547856" lon="12.653137981627214"><ele>245.0</ele><time>2026-04-04T15:08:22.001Z</time></trkpt><trkpt lat="43.55657545467578" lon="12.653058917098992"><ele>245.0</ele><time>2026-04-04T15:08:23.001Z</time></trkpt><trkpt lat="43.55648636786658" lon="12.652967014261195"><ele>245.0</ele><time>2026-04-04T15:08:24.001Z</time></trkpt><trkpt lat="43.55640814759384" lon="12.652855326615573"><ele>245.0</ele><time>2026-04-04T15:08:25.001Z</time></trkpt><trkpt lat="43.55632898539854" lon="12.652739748548646"><ele>245.0</ele><time>2026-04-04T15:08:26.001Z</time></trkpt><trkpt lat="43.55624962342419" lon="12.652620954195019"><ele>245.0</ele><time>2026-04-04T15:08:27.001Z</time></trkpt><trkpt lat="43.556161436962206" lon="12.65251093168571"><ele>244.75</ele><time>2026-04-04T15:08:28.001Z</time></trkpt><trkpt lat="43.556057084575585" lon="12.65242510492218"><ele>244.5</ele><time>2026-04-04T15:08:29.001Z</time></trkpt><trkpt lat="43.55593939929884" lon="12.652365250121326"><ele>244.25</ele><time>2026-04-04T15:08:30.001Z</time></trkpt><trkpt lat="43.55580997270806" lon="12.652337055488527"><ele>244.0</ele><time>2026-04-04T15:08:31.001Z</time></trkpt><trkpt lat="43.5556819057431" lon="12.652301460836343"><ele>244.0</ele><time>2026-04-04T15:08:32.001Z</time></trkpt><trkpt lat="43.55555443039312" lon="12.652276376087054"><ele>244.0</ele><time>2026-04-04T15:08:33.001Z</time></trkpt><trkpt lat="43.55542354807799" lon="12.652270609583384"><ele>244.0</ele><time>2026-04-04T15:08:34.001Z</time></trkpt><trkpt lat="43.55529354144432" lon="12.652289590672027"><ele>244.0</ele><time>2026-04-04T15:08:35.001Z</time></trkpt><trkpt lat="43.555169693420495" lon="12.65229722624564"><ele>244.25</ele><time>2026-04-04T15:08:36.001Z</time></trkpt><trkpt lat="43.55504471934088" lon="12.652312596927208"><ele>244.5</ele><time>2026-04-04T15:08:37.001Z</time></trkpt><trkpt lat="43.55492484993017" lon="12.652320318961944"><ele>244.75</ele><time>2026-04-04T15:08:38.001Z</time></trkpt><trkpt lat="43.55480321502216" lon="12.652328989065325"><ele>245.0</ele><time>2026-04-04T15:08:39.001Z</time></trkpt><trkpt lat="43.55468128349287" lon="12.652342679380547"><ele>245.0</ele><time>2026-04-04T15:08:40.001Z</time></trkpt><trkpt lat="43.55456296795408" lon="12.652352576368575"><ele>245.0</ele><time>2026-04-04T15:08:41.001Z</time></trkpt><trkpt lat="43.55444676425333" lon="12.652363096180826"><ele>245.0</ele><time>2026-04-04T15:08:42.001Z</time></trkpt><trkpt lat="43.55433000297191" lon="12.6523730408879"><ele>245.0</ele><time>2026-04-04T15:08:43.001Z</time></trkpt><trkpt lat="43.55421218019818" lon="12.652378420916182"><ele>245.25</ele><time>2026-04-04T15:08:44.001Z</time></trkpt><trkpt lat="43.55409716180362" lon="12.652381607595313"><ele>245.5</ele><time>2026-04-04T15:08:45.001Z</time></trkpt><trkpt lat="43.553982161590056" lon="12.652382089746949"><ele>245.75</ele><time>2026-04-04T15:08:46.001Z</time></trkpt><trkpt lat="43.553863312960374" lon="12.652378549700815"><ele>246.0</ele><time>2026-04-04T15:08:46.999Z</time></trkpt><trkpt lat="43.553745554449556" lon="12.652375664183696"><ele>245.75</ele><time>2026-04-04T15:08:47.999Z</time></trkpt><trkpt lat="43.55362701955614" lon="12.652366455489346"><ele>245.5</ele><time>2026-04-04T15:08:48.999Z</time></trkpt><trkpt lat="43.55350757869205" lon="12.652348145080467"><ele>245.25</ele><time>2026-04-04T15:08:49.999Z</time></trkpt><trkpt lat="43.55338794041605" lon="12.652326397709178"><ele>245.0</ele><time>2026-04-04T15:08:50.999Z</time></trkpt><trkpt lat="43.553270119322264" lon="12.652299567067367"><ele>245.0</ele><time>2026-04-04T15:08:51.999Z</time></trkpt><trkpt lat="43.55315095906339" lon="12.652269357037326"><ele>245.0</ele><time>2026-04-04T15:08:52.999Z</time></trkpt><trkpt lat="43.55303321633426" lon="12.652236437900434"><ele>245.0</ele><time>2026-04-04T15:08:53.999Z</time></trkpt><trkpt lat="43.55291902995552" lon="12.652191862785061"><ele>245.0</ele><time>2026-04-04T15:08:54.999Z</time></trkpt><trkpt lat="43.55280851488111" lon="12.652144111263652"><ele>245.0</ele><time>2026-04-04T15:08:55.999Z</time></trkpt><trkpt lat="43.55269849567165" lon="12.652092842620952"><ele>245.0</ele><time>2026-04-04T15:08:56.999Z</time></trkpt><trkpt lat="43.5525903479048" lon="12.652037219530698"><ele>245.0</ele><time>2026-04-04T15:08:57.999Z</time></trkpt><trkpt lat="43.55248513579952" lon="12.651979422496966"><ele>245.0</ele><time>2026-04-04T15:08:58.999Z</time></trkpt><trkpt lat="43.55237980577587" lon="12.651921131685153"><ele>245.2</ele><time>2026-04-04T15:08:59.999Z</time></trkpt><trkpt lat="43.552277158713785" lon="12.651858471466236"><ele>245.4</ele><time>2026-04-04T15:09:00.999Z</time></trkpt><trkpt lat="43.552176586242524" lon="12.6518049856455"><ele>245.60000000000002</ele><time>2026-04-04T15:09:01.999Z</time></trkpt><trkpt lat="43.55207893189149" lon="12.651756871975532"><ele>245.8</ele><time>2026-04-04T15:09:02.999Z</time></trkpt><trkpt lat="43.55198129373066" lon="12.65170707617029"><ele>246.0</ele><time>2026-04-04T15:09:03.999Z</time></trkpt><trkpt lat="43.551882481735404" lon="12.651661036214835"><ele>246.0</ele><time>2026-04-04T15:09:04.999Z</time></trkpt><trkpt lat="43.5517918836651" lon="12.651614614716129"><ele>246.00000000000003</ele><time>2026-04-04T15:09:05.999Z</time></trkpt><trkpt lat="43.551720458713454" lon="12.651562477860711"><ele>246.00000000000003</ele><time>2026-04-04T15:09:06.999Z</time></trkpt><trkpt lat="43.551681779009996" lon="12.651488908655233"><ele>246.0</ele><time>2026-04-04T15:09:08Z</time></trkpt><trkpt lat="43.5516979881738" lon="12.651255766282231"><ele>246.0</ele><time>2026-04-04T15:09:11Z</time></trkpt><trkpt lat="43.55178394095426" lon="12.65122634022454"><ele>246.0</ele><time>2026-04-04T15:09:12Z</time></trkpt><trkpt lat="43.55185785180029" lon="12.651187353407748"><ele>246.00000000000003</ele><time>2026-04-04T15:09:13Z</time></trkpt><trkpt lat="43.55193296647892" lon="12.651151679297564"><ele>246.00000000000003</ele><time>2026-04-04T15:09:14Z</time></trkpt><trkpt lat="43.55201666052001" lon="12.651091508160171"><ele>246.0</ele><time>2026-04-04T15:09:15Z</time></trkpt><trkpt lat="43.552113101638" lon="12.65107340577543"><ele>246.0</ele><time>2026-04-04T15:09:16Z</time></trkpt><trkpt lat="43.552212065465866" lon="12.651014828442657"><ele>247.20000000000002</ele><time>2026-04-04T15:09:17Z</time></trkpt><trkpt lat="43.5523140244254" lon="12.650976794432305"><ele>248.40000000000003</ele><time>2026-04-04T15:09:18Z</time></trkpt><trkpt lat="43.552409262945844" lon="12.650931661921199"><ele>249.6</ele><time>2026-04-04T15:09:19Z</time></trkpt><trkpt lat="43.55251391974887" lon="12.650894939081429"><ele>250.8</ele><time>2026-04-04T15:09:20Z</time></trkpt><trkpt lat="43.55261439338174" lon="12.650850919737573"><ele>252.0</ele><time>2026-04-04T15:09:21Z</time></trkpt><trkpt lat="43.55271922398321" lon="12.650803426923904"><ele>252.0</ele><time>2026-04-04T15:09:22Z</time></trkpt><trkpt lat="43.552821421719685" lon="12.650750356814548"><ele>252.0</ele><time>2026-04-04T15:09:23Z</time></trkpt><trkpt lat="43.552909011823814" lon="12.650699755532361"><ele>252.0</ele><time>2026-04-04T15:09:24Z</time></trkpt><trkpt lat="43.55298677890921" lon="12.650638164351413"><ele>252.0</ele><time>2026-04-04T15:09:25Z</time></trkpt><trkpt lat="43.55306202226622" lon="12.650585811229572"><ele>252.0</ele><time>2026-04-04T15:09:26Z</time></trkpt><trkpt lat="43.55308806083644" lon="12.65044711012923"><ele>253.39999999999998</ele><time>2026-04-04T15:09:27Z</time></trkpt><trkpt lat="43.55311549832483" lon="12.650322973289162"><ele>254.79999999999998</ele><time>2026-04-04T15:09:28Z</time></trkpt><trkpt lat="43.55314727537967" lon="12.650187715055253"><ele>256.2</ele><time>2026-04-04T15:09:29Z</time></trkpt><trkpt lat="43.55318293333906" lon="12.65004788889355"><ele>257.59999999999997</ele><time>2026-04-04T15:09:30Z</time></trkpt><trkpt lat="43.55322788326607" lon="12.649902466452579"><ele>259.0</ele><time>2026-04-04T15:09:31Z</time></trkpt><trkpt lat="43.55326804896265" lon="12.649749058048007"><ele>259.0</ele><time>2026-04-04T15:09:32Z</time></trkpt><trkpt lat="43.55329640387393" lon="12.6495924940478"><ele>259.0</ele><time>2026-04-04T15:09:33Z</time></trkpt><trkpt lat="43.55330957444265" lon="12.649440390713158"><ele>259.0</ele><time>2026-04-04T15:09:34Z</time></trkpt><trkpt lat="43.553306948890445" lon="12.649291353327982"><ele>259.0</ele><time>2026-04-04T15:09:35Z</time></trkpt><trkpt lat="43.55329823078502" lon="12.649145237987515"><ele>259.0</ele><time>2026-04-04T15:09:36Z</time></trkpt><trkpt lat="43.55329162960217" lon="12.649012115440836"><ele>259.0</ele><time>2026-04-04T15:09:37Z</time></trkpt><trkpt lat="43.553284240173525" lon="12.648887524434603"><ele>259.0</ele><time>2026-04-04T15:09:38Z</time></trkpt><trkpt lat="43.553284645195575" lon="12.648767356726868"><ele>259.0</ele><time>2026-04-04T15:09:39Z</time></trkpt><trkpt lat="43.55330267452806" lon="12.648646942793118"><ele>259.0</ele><time>2026-04-04T15:09:40Z</time></trkpt><trkpt lat="43.55332871475455" lon="12.648526165691008"><ele>259.0</ele><time>2026-04-04T15:09:41Z</time></trkpt><trkpt lat="43.553361432586094" lon="12.648407596887257"><ele>259.2</ele><time>2026-04-04T15:09:42Z</time></trkpt><trkpt lat="43.553398524477004" lon="12.648290382948437"><ele>259.4</ele><time>2026-04-04T15:09:43Z</time></trkpt><trkpt lat="43.553433683586576" lon="12.64816606543736"><ele>259.6</ele><time>2026-04-04T15:09:44Z</time></trkpt><trkpt lat="43.55347683413149" lon="12.648047376307096"><ele>259.8</ele><time>2026-04-04T15:09:45Z</time></trkpt><trkpt lat="43.55352161933877" lon="12.647928725896838"><ele>260.0</ele><time>2026-04-04T15:09:46Z</time></trkpt><trkpt lat="43.55356537061494" lon="12.647803126118044"><ele>260.6</ele><time>2026-04-04T15:09:47Z</time></trkpt><trkpt lat="43.55360919763825" lon="12.647675105463248"><ele>261.2</ele><time>2026-04-04T15:09:48Z</time></trkpt><trkpt lat="43.55365924190109" lon="12.64754641131491"><ele>261.8</ele><time>2026-04-04T15:09:49Z</time></trkpt><trkpt lat="43.55371410313467" lon="12.647419065636933"><ele>262.4</ele><time>2026-04-04T15:09:50Z</time></trkpt><trkpt lat="43.55376894038946" lon="12.647290512190684"><ele>263.0</ele><time>2026-04-04T15:09:51Z</time></trkpt><trkpt lat="43.553828866906144" lon="12.647160767647666"><ele>264.75</ele><time>2026-04-04T15:09:52Z</time></trkpt><trkpt lat="43.553890271901835" lon="12.647029113743478"><ele>266.5</ele><time>2026-04-04T15:09:53Z</time></trkpt><trkpt lat="43.55395177660094" lon="12.646897958657243"><ele>268.25</ele><time>2026-04-04T15:09:54Z</time></trkpt><trkpt lat="43.55401591084443" lon="12.646762585155006"><ele>270.0</ele><time>2026-04-04T15:09:55Z</time></trkpt><trkpt lat="43.55407903021952" lon="12.646629616340306"><ele>270.4</ele><time>2026-04-04T15:09:56Z</time></trkpt><trkpt lat="43.55413696412748" lon="12.646495584208603"><ele>270.8</ele><time>2026-04-04T15:09:57Z</time></trkpt><trkpt lat="43.55419031760951" lon="12.646362564197604"><ele>271.2</ele><time>2026-04-04T15:09:58Z</time></trkpt><trkpt lat="43.554228049106456" lon="12.64622602602839"><ele>271.6</ele><time>2026-04-04T15:09:59Z</time></trkpt><trkpt lat="43.55424808177106" lon="12.646086514319334"><ele>272.0</ele><time>2026-04-04T15:10:00Z</time></trkpt><trkpt lat="43.55425086970773" lon="12.645947934735362"><ele>272.0</ele><time>2026-04-04T15:10:01Z</time></trkpt><trkpt lat="43.554233464524884" lon="12.64581090355841"><ele>272.0</ele><time>2026-04-04T15:10:02Z</time></trkpt><trkpt lat="43.554199555665235" lon="12.645683904343583"><ele>272.0</ele><time>2026-04-04T15:10:03.001Z</time></trkpt><trkpt lat="43.55414718484571" lon="12.645562792110914"><ele>272.0</ele><time>2026-04-04T15:10:04.001Z</time></trkpt><trkpt lat="43.554087758935154" lon="12.645456145163484"><ele>272.0</ele><time>2026-04-04T15:10:05.001Z</time></trkpt><trkpt lat="43.55401857805561" lon="12.645361722083754"><ele>272.8</ele><time>2026-04-04T15:10:06.001Z</time></trkpt><trkpt lat="43.55395436399807" lon="12.645267601638851"><ele>273.6</ele><time>2026-04-04T15:10:07.001Z</time></trkpt><trkpt lat="43.55389384659673" lon="12.645172765034346"><ele>274.40000000000003</ele><time>2026-04-04T15:10:08.001Z</time></trkpt><trkpt lat="43.55384133961733" lon="12.645068002948138"><ele>275.2</ele><time>2026-04-04T15:10:09.001Z</time></trkpt><trkpt lat="43.55379781053649" lon="12.644952502837713"><ele>276.0</ele><time>2026-04-04T15:10:10.001Z</time></trkpt><trkpt lat="43.55377390745105" lon="12.644828153489948"><ele>276.0</ele><time>2026-04-04T15:10:11.001Z</time></trkpt><trkpt lat="43.55376710174627" lon="12.644699995421638"><ele>276.0</ele><time>2026-04-04T15:10:12.001Z</time></trkpt><trkpt lat="43.55377263518384" lon="12.644574334529699"><ele>276.0</ele><time>2026-04-04T15:10:13.001Z</time></trkpt><trkpt lat="43.55378279874221" lon="12.644447660309336"><ele>276.0</ele><time>2026-04-04T15:10:14.001Z</time></trkpt><trkpt lat="43.55380270226024" lon="12.644328457385827"><ele>276.0</ele><time>2026-04-04T15:10:15.001Z</time></trkpt><trkpt lat="43.553762831186035" lon="12.644220341746985"><ele>276.0</ele><time>2026-04-04T15:10:16.001Z</time></trkpt><trkpt lat="43.553726519183876" lon="12.64413669980478"><ele>276.0</ele><time>2026-04-04T15:10:17.001Z</time></trkpt><trkpt lat="43.5536820738799" lon="12.644050592932068"><ele>276.0</ele><time>2026-04-04T15:10:18.001Z</time></trkpt><trkpt lat="43.5536169645804" lon="12.643976610988744"><ele>276.0</ele><time>2026-04-04T15:10:19.001Z</time></trkpt><trkpt lat="43.553539744067415" lon="12.643910565576324"><ele>276.0</ele><time>2026-04-04T15:10:20.001Z</time></trkpt><trkpt lat="43.5534504478002" lon="12.64386876513424"><ele>276.0</ele><time>2026-04-04T15:10:21.001Z</time></trkpt><trkpt lat="43.55335498869926" lon="12.643841625501805"><ele>276.0</ele><time>2026-04-04T15:10:22.001Z</time></trkpt><trkpt lat="43.55325643982305" lon="12.643823081606229"><ele>276.0</ele><time>2026-04-04T15:10:23.001Z</time></trkpt><trkpt lat="43.55316283420923" lon="12.643801126029834"><ele>276.0</ele><time>2026-04-04T15:10:24.001Z</time></trkpt><trkpt lat="43.553072927608646" lon="12.643774100070784"><ele>276.0</ele><time>2026-04-04T15:10:25.001Z</time></trkpt><trkpt lat="43.5529884643593" lon="12.643742652852374"><ele>276.0</ele><time>2026-04-04T15:10:26.001Z</time></trkpt><trkpt lat="43.552905746366584" lon="12.64371330536552"><ele>276.2</ele><time>2026-04-04T15:10:27.001Z</time></trkpt><trkpt lat="43.552822168331865" lon="12.6436865115437"><ele>276.40000000000003</ele><time>2026-04-04T15:10:28.001Z</time></trkpt><trkpt lat="43.55273565879552" lon="12.64365662264378"><ele>276.6</ele><time>2026-04-04T15:10:29.001Z</time></trkpt><trkpt lat="43.552644050588945" lon="12.643614125246605"><ele>276.8</ele><time>2026-04-04T15:10:30.001Z</time></trkpt><trkpt lat="43.5525468760502" lon="12.643574883077504"><ele>277.0</ele><time>2026-04-04T15:10:31.001Z</time></trkpt><trkpt lat="43.55244274732071" lon="12.64354858445897"><ele>277.0</ele><time>2026-04-04T15:10:32.001Z</time></trkpt><trkpt lat="43.55234667540713" lon="12.643411119099595"><ele>277.0</ele><time>2026-04-04T15:10:33.001Z</time></trkpt><trkpt lat="43.55224008613771" lon="12.643334494035502"><ele>277.0</ele><time>2026-04-04T15:10:34.001Z</time></trkpt><trkpt lat="43.55214165476159" lon="12.643261932290711"><ele>277.0</ele><time>2026-04-04T15:10:35.001Z</time></trkpt><trkpt lat="43.5520491767289" lon="12.6431963947778"><ele>277.0</ele><time>2026-04-04T15:10:36.001Z</time></trkpt><trkpt lat="43.55196994862823" lon="12.64314062980444"><ele>277.0</ele><time>2026-04-04T15:10:37.001Z</time></trkpt><trkpt lat="43.55189527431943" lon="12.643088748666578"><ele>277.0</ele><time>2026-04-04T15:10:38.001Z</time></trkpt><trkpt lat="43.55182775033271" lon="12.64304244574322"><ele>277.0</ele><time>2026-04-04T15:10:39.001Z</time></trkpt><trkpt lat="43.55176053012787" lon="12.642995865070855"><ele>277.0</ele><time>2026-04-04T15:10:40.001Z</time></trkpt><trkpt lat="43.5516930333064" lon="12.64295252333198"><ele>277.0</ele><time>2026-04-04T15:10:41.001Z</time></trkpt><trkpt lat="43.55161952532496" lon="12.64291491700655"><ele>277.0</ele><time>2026-04-04T15:10:42.001Z</time></trkpt><trkpt lat="43.551536640969466" lon="12.642870876949804"><ele>277.0</ele><time>2026-04-04T15:10:43.001Z</time></trkpt><trkpt lat="43.55144175553037" lon="12.642816501816496"><ele>277.0</ele><time>2026-04-04T15:10:44.001Z</time></trkpt><trkpt lat="43.55134556354518" lon="12.642749737242564"><ele>277.0</ele><time>2026-04-04T15:10:45.001Z</time></trkpt><trkpt lat="43.551243029844045" lon="12.64267864834372"><ele>277.0</ele><time>2026-04-04T15:10:46.001Z</time></trkpt><trkpt lat="43.55113031017934" lon="12.642604039080043"><ele>276.75</ele><time>2026-04-04T15:10:47.001Z</time></trkpt><trkpt lat="43.551010620569926" lon="12.642524786698875"><ele>276.5</ele><time>2026-04-04T15:10:48.001Z</time></trkpt><trkpt lat="43.55088497988768" lon="12.642438951063145"><ele>276.25</ele><time>2026-04-04T15:10:49.001Z</time></trkpt><trkpt lat="43.550753065608674" lon="12.642343156385872"><ele>276.0</ele><time>2026-04-04T15:10:50.001Z</time></trkpt><trkpt lat="43.55061496018276" lon="12.642243551947937"><ele>276.0</ele><time>2026-04-04T15:10:51.001Z</time></trkpt><trkpt lat="43.550476107843004" lon="12.64214071789332"><ele>276.0</ele><time>2026-04-04T15:10:52.001Z</time></trkpt><trkpt lat="43.550334269046495" lon="12.64203491547731"><ele>276.0</ele><time>2026-04-04T15:10:52.999Z</time></trkpt><trkpt lat="43.550186137802754" lon="12.641931069318927"><ele>276.6666666666667</ele><time>2026-04-04T15:10:53.999Z</time></trkpt><trkpt lat="43.550036227502574" lon="12.641828057878737"><ele>277.33333333333337</ele><time>2026-04-04T15:10:54.999Z</time></trkpt><trkpt lat="43.54988155947361" lon="12.641720389729764"><ele>278.0</ele><time>2026-04-04T15:10:55.999Z</time></trkpt><trkpt lat="43.549726708186164" lon="12.64160963292674"><ele>278.0</ele><time>2026-04-04T15:10:56.999Z</time></trkpt><trkpt lat="43.54956783551417" lon="12.641494649869758"><ele>278.0</ele><time>2026-04-04T15:10:57.999Z</time></trkpt><trkpt lat="43.549407023913254" lon="12.641379743997543"><ele>278.0</ele><time>2026-04-04T15:10:58.999Z</time></trkpt><trkpt lat="43.549246742536475" lon="12.641268377617939"><ele>277.6666666666667</ele><time>2026-04-04T15:10:59.999Z</time></trkpt><trkpt lat="43.54908698562158" lon="12.641159745541659"><ele>277.3333333333333</ele><time>2026-04-04T15:11:00.999Z</time></trkpt><trkpt lat="43.548930114024074" lon="12.641052932174395"><ele>277.0</ele><time>2026-04-04T15:11:01.999Z</time></trkpt><trkpt lat="43.54877232199183" lon="12.64094488320649"><ele>275.0</ele><time>2026-04-04T15:11:02.999Z</time></trkpt><trkpt lat="43.5486198125334" lon="12.640839457758936"><ele>273.0</ele><time>2026-04-04T15:11:03.999Z</time></trkpt><trkpt lat="43.54846904396916" lon="12.640732473232005"><ele>271.0</ele><time>2026-04-04T15:11:04.999Z</time></trkpt><trkpt lat="43.548321412459515" lon="12.640622475526728"><ele>271.0</ele><time>2026-04-04T15:11:05.999Z</time></trkpt><trkpt lat="43.54817282060549" lon="12.640513129721288"><ele>271.0</ele><time>2026-04-04T15:11:06.999Z</time></trkpt><trkpt lat="43.54802238998259" lon="12.640405890594756"><ele>271.0</ele><time>2026-04-04T15:11:07.999Z</time></trkpt><trkpt lat="43.54787245615686" lon="12.640300189584693"><ele>272.0</ele><time>2026-04-04T15:11:09Z</time></trkpt><trkpt lat="43.547720318940115" lon="12.640196447443447"><ele>273.0</ele><time>2026-04-04T15:11:10Z</time></trkpt><trkpt lat="43.547570037739995" lon="12.640092776962675"><ele>274.0</ele><time>2026-04-04T15:11:11Z</time></trkpt><trkpt lat="43.54741619889811" lon="12.63999247626351"><ele>274.0</ele><time>2026-04-04T15:11:12Z</time></trkpt><trkpt lat="43.54726133887941" lon="12.639895719237234"><ele>274.0</ele><time>2026-04-04T15:11:13Z</time></trkpt><trkpt lat="43.547105105028535" lon="12.639802150368581"><ele>274.0</ele><time>2026-04-04T15:11:14Z</time></trkpt><trkpt lat="43.54694730441772" lon="12.639714311988168"><ele>272.0</ele><time>2026-04-04T15:11:15Z</time></trkpt><trkpt lat="43.54678670785997" lon="12.639630814991728"><ele>270.0</ele><time>2026-04-04T15:11:16Z</time></trkpt><trkpt lat="43.54662363015753" lon="12.63955680501034"><ele>268.0</ele><time>2026-04-04T15:11:17Z</time></trkpt><trkpt lat="43.54645771309493" lon="12.639490551316074"><ele>267.0</ele><time>2026-04-04T15:11:18Z</time></trkpt><trkpt lat="43.54628861667681" lon="12.639434677901631"><ele>266.0</ele><time>2026-04-04T15:11:19Z</time></trkpt><trkpt lat="43.54611797574966" lon="12.639385576787348"><ele>265.0</ele><time>2026-04-04T15:11:20Z</time></trkpt><trkpt lat="43.54594593607731" lon="12.63934341505141"><ele>265.0</ele><time>2026-04-04T15:11:21Z</time></trkpt><trkpt lat="43.54577385166526" lon="12.639311565540295"><ele>265.0</ele><time>2026-04-04T15:11:22Z</time></trkpt><trkpt lat="43.54560424499691" lon="12.639289749227057"><ele>265.0</ele><time>2026-04-04T15:11:23Z</time></trkpt><trkpt lat="43.54543622757552" lon="12.639276235190694"><ele>263.66666666666663</ele><time>2026-04-04T15:11:24Z</time></trkpt><trkpt lat="43.5452684856599" lon="12.63927114028176"><ele>262.3333333333333</ele><time>2026-04-04T15:11:25Z</time></trkpt><trkpt lat="43.54510598704288" lon="12.639271036956329"><ele>261.0</ele><time>2026-04-04T15:11:26Z</time></trkpt><trkpt lat="43.54494506238049" lon="12.639281838446998"><ele>261.0</ele><time>2026-04-04T15:11:27Z</time></trkpt><trkpt lat="43.54478571620654" lon="12.639303320731903"><ele>261.0</ele><time>2026-04-04T15:11:28Z</time></trkpt><trkpt lat="43.544628021240165" lon="12.639333798686202"><ele>261.0</ele><time>2026-04-04T15:11:29Z</time></trkpt><trkpt lat="43.54447413152897" lon="12.639370731917136"><ele>262.3333333333333</ele><time>2026-04-04T15:11:30Z</time></trkpt><trkpt lat="43.544318469477126" lon="12.639415684236926"><ele>263.66666666666663</ele><time>2026-04-04T15:11:31Z</time></trkpt><trkpt lat="43.54416161416072" lon="12.639467086557646"><ele>265.0</ele><time>2026-04-04T15:11:32Z</time></trkpt><trkpt lat="43.54400302678048" lon="12.639525654633163"><ele>267.66666666666663</ele><time>2026-04-04T15:11:33Z</time></trkpt><trkpt lat="43.54384414371263" lon="12.63959525670287"><ele>270.3333333333333</ele><time>2026-04-04T15:11:34Z</time></trkpt><trkpt lat="43.543682534457176" lon="12.63967477501897"><ele>273.0</ele><time>2026-04-04T15:11:35Z</time></trkpt><trkpt lat="43.54352264183878" lon="12.63976382135049"><ele>273.0</ele><time>2026-04-04T15:11:36Z</time></trkpt><trkpt lat="43.54336219043459" lon="12.639861555915795"><ele>273.0</ele><time>2026-04-04T15:11:37Z</time></trkpt><trkpt lat="43.54320230689847" lon="12.639961820424881"><ele>273.0</ele><time>2026-04-04T15:11:38Z</time></trkpt><trkpt lat="43.54304496532458" lon="12.640072769763353"><ele>273.0</ele><time>2026-04-04T15:11:39Z</time></trkpt><trkpt lat="43.54289082604973" lon="12.640193048438096"><ele>273.0</ele><time>2026-04-04T15:11:40Z</time></trkpt><trkpt lat="43.54274191268279" lon="12.64032220937754"><ele>273.0</ele><time>2026-04-04T15:11:41Z</time></trkpt><trkpt lat="43.54259884565292" lon="12.640459518678204"><ele>282.0</ele><time>2026-04-04T15:11:42Z</time></trkpt><trkpt lat="43.542459577002155" lon="12.640603460848574"><ele>291.0</ele><time>2026-04-04T15:11:43Z</time></trkpt><trkpt lat="43.54231856748475" lon="12.640752284565364"><ele>300.0</ele><time>2026-04-04T15:11:44.016Z</time></trkpt><trkpt lat="43.542180812339204" lon="12.640900447850168"><ele>304.3333333333333</ele><time>2026-04-04T15:11:45.018Z</time></trkpt><trkpt lat="43.542044863166176" lon="12.641051831759913"><ele>308.66666666666663</ele><time>2026-04-04T15:11:46.019Z</time></trkpt><trkpt lat="43.54190654148471" lon="12.641199192238375"><ele>313.0</ele><time>2026-04-04T15:11:47.015Z</time></trkpt><trkpt lat="43.541767917523636" lon="12.641349985442218"><ele>328.3333333333333</ele><time>2026-04-04T15:11:48.017Z</time></trkpt><trkpt lat="43.541627369788394" lon="12.641502813007541"><ele>343.6666666666667</ele><time>2026-04-04T15:11:49.019Z</time></trkpt><trkpt lat="43.54148917676282" lon="12.641659727607644"><ele>359.0</ele><time>2026-04-04T15:11:50.019Z</time></trkpt><trkpt lat="43.541349483452414" lon="12.641819247547502"><ele>372.5</ele><time>2026-04-04T15:11:51.021Z</time></trkpt><trkpt lat="43.54121136997569" lon="12.641979403845358"><ele>386.0</ele><time>2026-04-04T15:11:52.02Z</time></trkpt><trkpt lat="43.53921409533162" lon="12.64439147302146"><ele>349.0</ele><time>2026-04-04T15:11:56.516Z</time></trkpt><trkpt lat="43.538721883513844" lon="12.644932009871928"><ele>335.0</ele><time>2026-04-04T15:11:57.516Z</time></trkpt><trkpt lat="43.5383855" lon="12.6452637"><ele>321.0</ele><time>2026-04-04T15:11:58.516Z</time></trkpt><trkpt lat="43.5377660696424" lon="12.645853968391629"><ele>302.3333333333333</ele><time>2026-04-04T15:12:17.001Z</time></trkpt><trkpt lat="43.53758187434874" lon="12.645875425500513"><ele>283.66666666666663</ele><time>2026-04-04T15:12:18.001Z</time></trkpt><trkpt lat="43.53742239622404" lon="12.645986425580901"><ele>265.0</ele><time>2026-04-04T15:12:19.001Z</time></trkpt><trkpt lat="43.53725492282871" lon="12.646076294631344"><ele>266.66666666666663</ele><time>2026-04-04T15:12:20.001Z</time></trkpt><trkpt lat="43.5370917611818" lon="12.646162406929289"><ele>268.3333333333333</ele><time>2026-04-04T15:12:21.001Z</time></trkpt><trkpt lat="43.53693018314282" lon="12.646241873695434"><ele>270.0</ele><time>2026-04-04T15:12:22.001Z</time></trkpt><trkpt lat="43.536763834008774" lon="12.646314150077261"><ele>273.6666666666667</ele><time>2026-04-04T15:12:23.001Z</time></trkpt><trkpt lat="43.53659977821084" lon="12.646382467130397"><ele>277.33333333333337</ele><time>2026-04-04T15:12:24.001Z</time></trkpt><trkpt lat="43.536437928401966" lon="12.646446428119347"><ele>281.0</ele><time>2026-04-04T15:12:25.001Z</time></trkpt><trkpt lat="43.53627530938177" lon="12.646503384425971"><ele>279.6666666666667</ele><time>2026-04-04T15:12:26.001Z</time></trkpt><trkpt lat="43.536110441133026" lon="12.646555923777797"><ele>278.3333333333333</ele><time>2026-04-04T15:12:27.001Z</time></trkpt><trkpt lat="43.53594519059348" lon="12.646599696078953"><ele>277.0</ele><time>2026-04-04T15:12:28.001Z</time></trkpt><trkpt lat="43.5357786109687" lon="12.646638060378843"><ele>277.0</ele><time>2026-04-04T15:12:29.001Z</time></trkpt><trkpt lat="43.53561330054989" lon="12.646670367395364"><ele>277.0</ele><time>2026-04-04T15:12:30.001Z</time></trkpt><trkpt lat="43.53544309480762" lon="12.646696565672825"><ele>277.0</ele><time>2026-04-04T15:12:31.001Z</time></trkpt><trkpt lat="43.53527621260693" lon="12.646717697389336"><ele>277.66666666666663</ele><time>2026-04-04T15:12:32.001Z</time></trkpt><trkpt lat="43.5351066899939" lon="12.646734646400567"><ele>278.3333333333333</ele><time>2026-04-04T15:12:33.001Z</time></trkpt><trkpt lat="43.53493737089945" lon="12.646745932793294"><ele>279.0</ele><time>2026-04-04T15:12:34.001Z</time></trkpt><trkpt lat="43.53476962988241" lon="12.646747143691428"><ele>279.0</ele><time>2026-04-04T15:12:35.001Z</time></trkpt><trkpt lat="43.53459958109958" lon="12.646735555197667"><ele>279.0</ele><time>2026-04-04T15:12:36.001Z</time></trkpt><trkpt lat="43.534429372963025" lon="12.646717366075722"><ele>279.0</ele><time>2026-04-04T15:12:37.001Z</time></trkpt><trkpt lat="43.53426019316439" lon="12.646689577223082"><ele>278.3333333333333</ele><time>2026-04-04T15:12:38.001Z</time></trkpt><trkpt lat="43.534093612703806" lon="12.64664912397977"><ele>277.66666666666663</ele><time>2026-04-04T15:12:39.001Z</time></trkpt><trkpt lat="43.53392415183812" lon="12.646600499291274"><ele>277.0</ele><time>2026-04-04T15:12:40.001Z</time></trkpt><trkpt lat="43.533758218445335" lon="12.646542039031209"><ele>276.66666666666663</ele><time>2026-04-04T15:12:41.001Z</time></trkpt><trkpt lat="43.53358934616539" lon="12.646471151804247"><ele>276.3333333333333</ele><time>2026-04-04T15:12:42.001Z</time></trkpt><trkpt lat="43.53342139672774" lon="12.6463926229629"><ele>276.0</ele><time>2026-04-04T15:12:43.001Z</time></trkpt><trkpt lat="43.533258358813946" lon="12.646307870475344"><ele>276.0</ele><time>2026-04-04T15:12:44.001Z</time></trkpt><trkpt lat="43.533095741900084" lon="12.646208608073456"><ele>276.0</ele><time>2026-04-04T15:12:45.001Z</time></trkpt><trkpt lat="43.53294101212151" lon="12.6461071011282"><ele>276.0</ele><time>2026-04-04T15:12:46.001Z</time></trkpt><trkpt lat="43.53278470289413" lon="12.645996853957293"><ele>279.6666666666667</ele><time>2026-04-04T15:12:47.001Z</time></trkpt><trkpt lat="43.53263581796186" lon="12.64587271319111"><ele>283.33333333333337</ele><time>2026-04-04T15:12:48.001Z</time></trkpt><trkpt lat="43.53248734282087" lon="12.645741371190912"><ele>287.0</ele><time>2026-04-04T15:12:49.001Z</time></trkpt><trkpt lat="43.53234369336588" lon="12.645604752494009"><ele>287.0</ele><time>2026-04-04T15:12:50.001Z</time></trkpt><trkpt lat="43.53220273672088" lon="12.645460733018547"><ele>287.0</ele><time>2026-04-04T15:12:51.001Z</time></trkpt><trkpt lat="43.532065197127665" lon="12.645313399277653"><ele>287.0</ele><time>2026-04-04T15:12:52.001Z</time></trkpt><trkpt lat="43.531930386318066" lon="12.645161816052278"><ele>289.0</ele><time>2026-04-04T15:12:53.001Z</time></trkpt><trkpt lat="43.53179698018458" lon="12.645000716604523"><ele>291.0</ele><time>2026-04-04T15:12:54.001Z</time></trkpt><trkpt lat="43.531665971403044" lon="12.644843875882655"><ele>293.0</ele><time>2026-04-04T15:12:55.001Z</time></trkpt><trkpt lat="43.53152974207102" lon="12.64468177276201"><ele>293.0</ele><time>2026-04-04T15:12:56.001Z</time></trkpt><trkpt lat="43.53139285474279" lon="12.64452572161529"><ele>293.0</ele><time>2026-04-04T15:12:57.001Z</time></trkpt><trkpt lat="43.53125705220801" lon="12.644366922001561"><ele>293.0</ele><time>2026-04-04T15:12:58.001Z</time></trkpt><trkpt lat="43.531120748334835" lon="12.64420771842077"><ele>292.6666666666667</ele><time>2026-04-04T15:12:59Z</time></trkpt><trkpt lat="43.53098260331194" lon="12.644049624596963"><ele>292.3333333333333</ele><time>2026-04-04T15:13:00Z</time></trkpt><trkpt lat="43.53084163063556" lon="12.643897765530937"><ele>292.0</ele><time>2026-04-04T15:13:01Z</time></trkpt><trkpt lat="43.53070097321338" lon="12.643745706995801"><ele>290.3333333333333</ele><time>2026-04-04T15:13:02Z</time></trkpt><trkpt lat="43.53055883817096" lon="12.643600123893128"><ele>288.6666666666667</ele><time>2026-04-04T15:13:03Z</time></trkpt><trkpt lat="43.5304131260787" lon="12.643458893871376"><ele>287.0</ele><time>2026-04-04T15:13:04Z</time></trkpt><trkpt lat="43.53026585244199" lon="12.643321500401642"><ele>287.0</ele><time>2026-04-04T15:13:05Z</time></trkpt><trkpt lat="43.53011657780237" lon="12.6431867074681"><ele>287.0</ele><time>2026-04-04T15:13:06Z</time></trkpt><trkpt lat="43.529966840007276" lon="12.643054369156854"><ele>287.0</ele><time>2026-04-04T15:13:07Z</time></trkpt><trkpt lat="43.52981525600679" lon="12.64292416897233"><ele>290.0</ele><time>2026-04-04T15:13:08Z</time></trkpt><trkpt lat="43.52966130822393" lon="12.642796525819133"><ele>293.0</ele><time>2026-04-04T15:13:09Z</time></trkpt><trkpt lat="43.52950965805894" lon="12.642669963056928"><ele>296.0</ele><time>2026-04-04T15:13:10Z</time></trkpt><trkpt lat="43.52935683007477" lon="12.642543274253349"><ele>296.0</ele><time>2026-04-04T15:13:11Z</time></trkpt><trkpt lat="43.52920400341413" lon="12.642415621062291"><ele>296.0</ele><time>2026-04-04T15:13:12Z</time></trkpt><trkpt lat="43.52905163533559" lon="12.642288477728552"><ele>296.0</ele><time>2026-04-04T15:13:13Z</time></trkpt><trkpt lat="43.52889940091242" lon="12.642162396881476"><ele>296.0</ele><time>2026-04-04T15:13:14Z</time></trkpt><trkpt lat="43.52874758764679" lon="12.642036941932243"><ele>296.0</ele><time>2026-04-04T15:13:15Z</time></trkpt><trkpt lat="43.52859468223385" lon="12.641912398016288"><ele>296.0</ele><time>2026-04-04T15:13:16Z</time></trkpt><trkpt lat="43.52844180655044" lon="12.641786210052995"><ele>299.0</ele><time>2026-04-04T15:13:17Z</time></trkpt><trkpt lat="43.52828601537567" lon="12.641659569396277"><ele>302.0</ele><time>2026-04-04T15:13:18Z</time></trkpt><trkpt lat="43.528130617117164" lon="12.641538343224857"><ele>305.0</ele><time>2026-04-04T15:13:19Z</time></trkpt><trkpt lat="43.527977324818785" lon="12.641418610009634"><ele>307.33333333333337</ele><time>2026-04-04T15:13:20Z</time></trkpt><trkpt lat="43.52782179277269" lon="12.641295807398512"><ele>309.6666666666667</ele><time>2026-04-04T15:13:21Z</time></trkpt><trkpt lat="43.52766408706353" lon="12.641181731116953"><ele>312.0</ele><time>2026-04-04T15:13:22Z</time></trkpt><trkpt lat="43.52750017664967" lon="12.641082422022269"><ele>312.0</ele><time>2026-04-04T15:13:23Z</time></trkpt><trkpt lat="43.527333571433346" lon="12.640999469153543"><ele>312.0</ele><time>2026-04-04T15:13:24Z</time></trkpt><trkpt lat="43.5271625855734" lon="12.640937832867822"><ele>312.0</ele><time>2026-04-04T15:13:25Z</time></trkpt><trkpt lat="43.52698956036846" lon="12.640892717473024"><ele>309.0</ele><time>2026-04-04T15:13:26Z</time></trkpt><trkpt lat="43.52681243349189" lon="12.640868090973315"><ele>306.0</ele><time>2026-04-04T15:13:27Z</time></trkpt><trkpt lat="43.52663342995296" lon="12.64086294865814"><ele>303.0</ele><time>2026-04-04T15:13:28Z</time></trkpt><trkpt lat="43.52645111902703" lon="12.640875580680781"><ele>303.0</ele><time>2026-04-04T15:13:29Z</time></trkpt><trkpt lat="43.52627598225134" lon="12.640903453085487"><ele>303.0</ele><time>2026-04-04T15:13:30Z</time></trkpt><trkpt lat="43.52610159318463" lon="12.640949520727862"><ele>303.0</ele><time>2026-04-04T15:13:31Z</time></trkpt><trkpt lat="43.525931424724256" lon="12.641015449130268"><ele>305.6666666666667</ele><time>2026-04-04T15:13:32Z</time></trkpt><trkpt lat="43.525765497300185" lon="12.64110129018672"><ele>308.33333333333337</ele><time>2026-04-04T15:13:33Z</time></trkpt><trkpt lat="43.52560413947425" lon="12.64120198809631"><ele>311.0</ele><time>2026-04-04T15:13:34Z</time></trkpt><trkpt lat="43.52544847237047" lon="12.641321449455738"><ele>308.33333333333337</ele><time>2026-04-04T15:13:35Z</time></trkpt><trkpt lat="43.52529952950698" lon="12.641452281603938"><ele>305.6666666666667</ele><time>2026-04-04T15:13:36Z</time></trkpt><trkpt lat="43.52515397434233" lon="12.641590155284483"><ele>303.0</ele><time>2026-04-04T15:13:37Z</time></trkpt><trkpt lat="43.52500860559894" lon="12.641732274717752"><ele>303.0</ele><time>2026-04-04T15:13:38Z</time></trkpt><trkpt lat="43.52486520400812" lon="12.641876235516726"><ele>303.0</ele><time>2026-04-04T15:13:39Z</time></trkpt><trkpt lat="43.52472174079047" lon="12.64202057068687"><ele>303.0</ele><time>2026-04-04T15:13:40Z</time></trkpt><trkpt lat="43.52457649706513" lon="12.642163182496944"><ele>305.0</ele><time>2026-04-04T15:13:41Z</time></trkpt><trkpt lat="43.52442978550961" lon="12.64229883386026"><ele>307.0</ele><time>2026-04-04T15:13:42Z</time></trkpt><trkpt lat="43.52428000017595" lon="12.642431241759375"><ele>309.0</ele><time>2026-04-04T15:13:43Z</time></trkpt><trkpt lat="43.5241285291588" lon="12.642558951878572"><ele>309.0</ele><time>2026-04-04T15:13:44Z</time></trkpt><trkpt lat="43.523971896395906" lon="12.642683700547083"><ele>309.0</ele><time>2026-04-04T15:13:45.021Z</time></trkpt><trkpt lat="43.523815402756576" lon="12.642795955716489"><ele>309.0</ele><time>2026-04-04T15:13:46.022Z</time></trkpt><trkpt lat="43.5236581164984" lon="12.6428942833331"><ele>304.3333333333333</ele><time>2026-04-04T15:13:47Z</time></trkpt><trkpt lat="43.52349060562173" lon="12.642990001705488"><ele>299.66666666666663</ele><time>2026-04-04T15:13:48Z</time></trkpt><trkpt lat="43.52332217781697" lon="12.643065535133"><ele>295.0</ele><time>2026-04-04T15:13:49Z</time></trkpt><trkpt lat="43.52315039258252" lon="12.643130100985934"><ele>295.0</ele><time>2026-04-04T15:13:50Z</time></trkpt><trkpt lat="43.52297751276336" lon="12.643182609632548"><ele>295.0</ele><time>2026-04-04T15:13:51Z</time></trkpt><trkpt lat="43.522806690650526" lon="12.643221230098531"><ele>295.0</ele><time>2026-04-04T15:13:52Z</time></trkpt><trkpt lat="43.52262895371135" lon="12.643249343698471"><ele>298.3333333333333</ele><time>2026-04-04T15:13:53Z</time></trkpt><trkpt lat="43.522452500029765" lon="12.643264837660391"><ele>301.6666666666667</ele><time>2026-04-04T15:13:54Z</time></trkpt><trkpt lat="43.52227424641591" lon="12.643267236582066"><ele>305.0</ele><time>2026-04-04T15:13:55Z</time></trkpt><trkpt lat="43.522095971232915" lon="12.643259175362271"><ele>304.0</ele><time>2026-04-04T15:13:56Z</time></trkpt><trkpt lat="43.521914711704405" lon="12.643239202863239"><ele>303.0</ele><time>2026-04-04T15:13:57Z</time></trkpt><trkpt lat="43.52173820036836" lon="12.64320779322046"><ele>302.0</ele><time>2026-04-04T15:13:58Z</time></trkpt><trkpt lat="43.5215626017827" lon="12.643165493145379"><ele>302.0</ele><time>2026-04-04T15:13:59Z</time></trkpt><trkpt lat="43.521388961626066" lon="12.643110625160869"><ele>302.0</ele><time>2026-04-04T15:14:00Z</time></trkpt><trkpt lat="43.52121718951286" lon="12.64304429021805"><ele>302.0</ele><time>2026-04-04T15:14:01Z</time></trkpt><trkpt lat="43.52104834725393" lon="12.642967216011511"><ele>303.33333333333337</ele><time>2026-04-04T15:14:02.001Z</time></trkpt><trkpt lat="43.520882994509044" lon="12.642878764341022"><ele>304.6666666666667</ele><time>2026-04-04T15:14:03.001Z</time></trkpt><trkpt lat="43.520720445363374" lon="12.642778385075177"><ele>306.0</ele><time>2026-04-04T15:14:04.001Z</time></trkpt><trkpt lat="43.52056409805497" lon="12.6426764006188"><ele>306.0</ele><time>2026-04-04T15:14:05.001Z</time></trkpt><trkpt lat="43.52040543918649" lon="12.642565133943355"><ele>306.0</ele><time>2026-04-04T15:14:06.001Z</time></trkpt><trkpt lat="43.520247559936436" lon="12.642452005433285"><ele>306.0</ele><time>2026-04-04T15:14:07.001Z</time></trkpt><trkpt lat="43.5200878691221" lon="12.642339442383662"><ele>305.0</ele><time>2026-04-04T15:14:08.001Z</time></trkpt><trkpt lat="43.51992563423716" lon="12.642220249472357"><ele>304.0</ele><time>2026-04-04T15:14:09.001Z</time></trkpt><trkpt lat="43.51976686868261" lon="12.642100992812681"><ele>303.0</ele><time>2026-04-04T15:14:10.001Z</time></trkpt><trkpt lat="43.51961264948362" lon="12.641984021599061"><ele>304.3333333333333</ele><time>2026-04-04T15:14:11.001Z</time></trkpt><trkpt lat="43.51945795104178" lon="12.64186395333101"><ele>305.66666666666663</ele><time>2026-04-04T15:14:12.001Z</time></trkpt><trkpt lat="43.51930202889679" lon="12.641746233341301"><ele>307.0</ele><time>2026-04-04T15:14:13.001Z</time></trkpt><trkpt lat="43.519147378517935" lon="12.641628302772292"><ele>307.0</ele><time>2026-04-04T15:14:14.001Z</time></trkpt><trkpt lat="43.51899012922314" lon="12.641508678721618"><ele>307.0</ele><time>2026-04-04T15:14:15.001Z</time></trkpt><trkpt lat="43.5188339400062" lon="12.641389907865912"><ele>307.0</ele><time>2026-04-04T15:14:16.001Z</time></trkpt><trkpt lat="43.518677564014666" lon="12.64127363781917"><ele>304.66666666666663</ele><time>2026-04-04T15:14:17.001Z</time></trkpt><trkpt lat="43.51851842242507" lon="12.641162748702747"><ele>302.3333333333333</ele><time>2026-04-04T15:14:18.001Z</time></trkpt><trkpt lat="43.51835733614277" lon="12.64105607110646"><ele>300.0</ele><time>2026-04-04T15:14:19.001Z</time></trkpt><trkpt lat="43.51819538955524" lon="12.640958902005202"><ele>300.0</ele><time>2026-04-04T15:14:20.001Z</time></trkpt><trkpt lat="43.51802703946002" lon="12.640862546582246"><ele>300.0</ele><time>2026-04-04T15:14:21.001Z</time></trkpt><trkpt lat="43.51786125145706" lon="12.640781112955699"><ele>300.0</ele><time>2026-04-04T15:14:22.001Z</time></trkpt><trkpt lat="43.517693654319814" lon="12.640703836539481"><ele>303.0</ele><time>2026-04-04T15:14:23.001Z</time></trkpt><trkpt lat="43.51752372918892" lon="12.64063055026098"><ele>306.0</ele><time>2026-04-04T15:14:24.001Z</time></trkpt><trkpt lat="43.51735349114829" lon="12.640567548364407"><ele>309.0</ele><time>2026-04-04T15:14:25.001Z</time></trkpt><trkpt lat="43.51718042467436" lon="12.640511077680976"><ele>310.3333333333333</ele><time>2026-04-04T15:14:26.001Z</time></trkpt><trkpt lat="43.51700648415085" lon="12.640452648134582"><ele>311.66666666666663</ele><time>2026-04-04T15:14:27.001Z</time></trkpt><trkpt lat="43.516837466198005" lon="12.640396081715283"><ele>313.0</ele><time>2026-04-04T15:14:28.001Z</time></trkpt><trkpt lat="43.516660753088914" lon="12.640347081073848"><ele>313.0</ele><time>2026-04-04T15:14:29.001Z</time></trkpt><trkpt lat="43.516484620802416" lon="12.64030548180401"><ele>313.0</ele><time>2026-04-04T15:14:30.001Z</time></trkpt><trkpt lat="43.51630847484704" lon="12.640273824086586"><ele>313.0</ele><time>2026-04-04T15:14:31.001Z</time></trkpt><trkpt lat="43.516133696544216" lon="12.640255203895734"><ele>316.0</ele><time>2026-04-04T15:14:32.001Z</time></trkpt><trkpt lat="43.515959413994594" lon="12.64024409216496"><ele>319.0</ele><time>2026-04-04T15:14:33.001Z</time></trkpt><trkpt lat="43.51578109139215" lon="12.640238311966222"><ele>322.0</ele><time>2026-04-04T15:14:34.02Z</time></trkpt><trkpt lat="43.51560782255589" lon="12.640238474890053"><ele>322.0</ele><time>2026-04-04T15:14:35.021Z</time></trkpt><trkpt lat="43.51543547395557" lon="12.64024370677483"><ele>322.0</ele><time>2026-04-04T15:14:36.02Z</time></trkpt><trkpt lat="43.51526394284597" lon="12.640251675612893"><ele>322.0</ele><time>2026-04-04T15:14:37.014Z</time></trkpt><trkpt lat="43.51509162886692" lon="12.640250165111723"><ele>339.0</ele><time>2026-04-04T15:14:38.016Z</time></trkpt><trkpt lat="43.51402808450489" lon="12.640458662074655"><ele>339.0</ele><time>2026-04-04T15:14:44.001Z</time></trkpt><trkpt lat="43.51385193559187" lon="12.640488514430508"><ele>339.0</ele><time>2026-04-04T15:14:45.001Z</time></trkpt><trkpt lat="43.51365899400242" lon="12.640522891313607"><ele>339.0</ele><time>2026-04-04T15:14:46.001Z</time></trkpt><trkpt lat="43.51347974013995" lon="12.640539317575183"><ele>338.0</ele><time>2026-04-04T15:14:47.001Z</time></trkpt><trkpt lat="43.51330002554955" lon="12.640553664312675"><ele>337.0</ele><time>2026-04-04T15:14:48.001Z</time></trkpt><trkpt lat="43.51311994802969" lon="12.640556926405932"><ele>336.0</ele><time>2026-04-04T15:14:49.001Z</time></trkpt><trkpt lat="43.512932066020554" lon="12.640546274281022"><ele>337.0</ele><time>2026-04-04T15:14:50.001Z</time></trkpt><trkpt lat="43.512755908373265" lon="12.640538168055379"><ele>338.0</ele><time>2026-04-04T15:14:51.001Z</time></trkpt><trkpt lat="43.51257725294328" lon="12.640515638967472"><ele>339.0</ele><time>2026-04-04T15:14:52.001Z</time></trkpt><trkpt lat="43.51240158114554" lon="12.64048016487631"><ele>339.0</ele><time>2026-04-04T15:14:53.001Z</time></trkpt><trkpt lat="43.51222375375915" lon="12.640429592670047"><ele>339.0</ele><time>2026-04-04T15:14:54.001Z</time></trkpt><trkpt lat="43.51205336881019" lon="12.640366116010622"><ele>339.0</ele><time>2026-04-04T15:14:55.001Z</time></trkpt><trkpt lat="43.51188268249998" lon="12.640294628685153"><ele>331.0</ele><time>2026-04-04T15:14:56.001Z</time></trkpt><trkpt lat="43.5117142130589" lon="12.64021538242756"><ele>323.0</ele><time>2026-04-04T15:14:57.001Z</time></trkpt><trkpt lat="43.51155007739072" lon="12.640127769799022"><ele>315.0</ele><time>2026-04-04T15:14:58.001Z</time></trkpt><trkpt lat="43.51138859344613" lon="12.64002725932059"><ele>315.3333333333333</ele><time>2026-04-04T15:14:59.001Z</time></trkpt><trkpt lat="43.51123038270385" lon="12.639918007507744"><ele>315.66666666666663</ele><time>2026-04-04T15:15:00.001Z</time></trkpt><trkpt lat="43.511075811101186" lon="12.639804215221766"><ele>316.0</ele><time>2026-04-04T15:15:01.001Z</time></trkpt><trkpt lat="43.510921246780185" lon="12.639679377831355"><ele>316.0</ele><time>2026-04-04T15:15:02.001Z</time></trkpt><trkpt lat="43.510770708751124" lon="12.639553738562721"><ele>316.0</ele><time>2026-04-04T15:15:03.001Z</time></trkpt><trkpt lat="43.5106187444433" lon="12.639421992733297"><ele>316.0</ele><time>2026-04-04T15:15:04.001Z</time></trkpt><trkpt lat="43.51046999196903" lon="12.639288078167175"><ele>315.66666666666663</ele><time>2026-04-04T15:15:05Z</time></trkpt><trkpt lat="43.5103205863401" lon="12.639156263408172"><ele>315.3333333333333</ele><time>2026-04-04T15:15:06Z</time></trkpt><trkpt lat="43.51017280222892" lon="12.639019464646053"><ele>315.0</ele><time>2026-04-04T15:15:07Z</time></trkpt><trkpt lat="43.51002521391567" lon="12.638882394495422"><ele>315.0</ele><time>2026-04-04T15:15:08Z</time></trkpt><trkpt lat="43.50987953032311" lon="12.638748799972472"><ele>315.0</ele><time>2026-04-04T15:15:09Z</time></trkpt><trkpt lat="43.50973136580552" lon="12.638612549609093"><ele>315.0</ele><time>2026-04-04T15:15:10Z</time></trkpt><trkpt lat="43.50958443613298" lon="12.638474622244045"><ele>316.0</ele><time>2026-04-04T15:15:11Z</time></trkpt><trkpt lat="43.50943275711904" lon="12.63833913982236"><ele>317.0</ele><time>2026-04-04T15:15:12Z</time></trkpt><trkpt lat="43.50928143594693" lon="12.638205127730398"><ele>318.0</ele><time>2026-04-04T15:15:13Z</time></trkpt><trkpt lat="43.50912904124336" lon="12.638073177041038"><ele>318.0</ele><time>2026-04-04T15:15:14Z</time></trkpt><trkpt lat="43.50897419600157" lon="12.637946532106149"><ele>318.0</ele><time>2026-04-04T15:15:15Z</time></trkpt><trkpt lat="43.508819033780824" lon="12.637826347071634"><ele>318.0</ele><time>2026-04-04T15:15:16Z</time></trkpt><trkpt lat="43.50866701797705" lon="12.637710172578691"><ele>319.3333333333333</ele><time>2026-04-04T15:15:17Z</time></trkpt><trkpt lat="43.50851181893679" lon="12.637590641814018"><ele>320.66666666666663</ele><time>2026-04-04T15:15:18Z</time></trkpt><trkpt lat="43.508353874922435" lon="12.637471242912556"><ele>322.0</ele><time>2026-04-04T15:15:19Z</time></trkpt><trkpt lat="43.508195488028385" lon="12.63736109021974"><ele>322.0</ele><time>2026-04-04T15:15:20Z</time></trkpt><trkpt lat="43.50803578128893" lon="12.6372537558936"><ele>322.0</ele><time>2026-04-04T15:15:21Z</time></trkpt><trkpt lat="43.50787482418932" lon="12.637150332436647"><ele>322.0</ele><time>2026-04-04T15:15:22Z</time></trkpt><trkpt lat="43.507708999218565" lon="12.637050945687433"><ele>324.3333333333333</ele><time>2026-04-04T15:15:23Z</time></trkpt><trkpt lat="43.50754690331521" lon="12.636953691265752"><ele>326.6666666666667</ele><time>2026-04-04T15:15:24Z</time></trkpt><trkpt lat="43.50738011177643" lon="12.636862927725318"><ele>329.0</ele><time>2026-04-04T15:15:25Z</time></trkpt><trkpt lat="43.50721291405866" lon="12.636778194700417"><ele>326.33333333333337</ele><time>2026-04-04T15:15:26Z</time></trkpt><trkpt lat="43.50704548857215" lon="12.636699698718141"><ele>323.6666666666667</ele><time>2026-04-04T15:15:27Z</time></trkpt><trkpt lat="43.506879128152775" lon="12.636626216105462"><ele>321.0</ele><time>2026-04-04T15:15:28Z</time></trkpt><trkpt lat="43.50670900510101" lon="12.63655243041653"><ele>321.0</ele><time>2026-04-04T15:15:29Z</time></trkpt><trkpt lat="43.506536804746915" lon="12.636485882035732"><ele>321.0</ele><time>2026-04-04T15:15:30Z</time></trkpt><trkpt lat="43.50636074992191" lon="12.636423023672837"><ele>321.0</ele><time>2026-04-04T15:15:31Z</time></trkpt><trkpt lat="43.50618885160593" lon="12.636365239439469"><ele>323.3333333333333</ele><time>2026-04-04T15:15:32Z</time></trkpt><trkpt lat="43.50601804934012" lon="12.63631201614213"><ele>325.66666666666663</ele><time>2026-04-04T15:15:33Z</time></trkpt><trkpt lat="43.505845522426796" lon="12.636256235956326"><ele>328.0</ele><time>2026-04-04T15:15:34Z</time></trkpt><trkpt lat="43.50567228995492" lon="12.636204147024255"><ele>328.0</ele><time>2026-04-04T15:15:35Z</time></trkpt><trkpt lat="43.505497791995744" lon="12.63615657200437"><ele>328.0</ele><time>2026-04-04T15:15:36Z</time></trkpt><trkpt lat="43.50532231816899" lon="12.636106596384014"><ele>328.0</ele><time>2026-04-04T15:15:37Z</time></trkpt><trkpt lat="43.50514690837843" lon="12.636058759865682"><ele>326.3333333333333</ele><time>2026-04-04T15:15:38Z</time></trkpt><trkpt lat="43.50497235746541" lon="12.636010641040226"><ele>324.6666666666667</ele><time>2026-04-04T15:15:39Z</time></trkpt><trkpt lat="43.50479754720862" lon="12.635965466568356"><ele>323.0</ele><time>2026-04-04T15:15:40Z</time></trkpt><trkpt lat="43.50462395637257" lon="12.635921421550087"><ele>323.6666666666667</ele><time>2026-04-04T15:15:41Z</time></trkpt><trkpt lat="43.50444856631396" lon="12.635880309738369"><ele>324.3333333333333</ele><time>2026-04-04T15:15:42Z</time></trkpt><trkpt lat="43.504272977769304" lon="12.635834273670616"><ele>325.0</ele><time>2026-04-04T15:15:43Z</time></trkpt><trkpt lat="43.504101200003724" lon="12.635784039116109"><ele>325.0</ele><time>2026-04-04T15:15:44Z</time></trkpt><trkpt lat="43.50392779068493" lon="12.635730005937997"><ele>325.0</ele><time>2026-04-04T15:15:45Z</time></trkpt><trkpt lat="43.50375332153405" lon="12.635674878788365"><ele>325.0</ele><time>2026-04-04T15:15:46Z</time></trkpt><trkpt lat="43.50358013949657" lon="12.635610512182492"><ele>326.0</ele><time>2026-04-04T15:15:47Z</time></trkpt><trkpt lat="43.50341009283841" lon="12.635537355583162"><ele>327.0</ele><time>2026-04-04T15:15:48Z</time></trkpt><trkpt lat="43.503243160505086" lon="12.635456769549913"><ele>328.0</ele><time>2026-04-04T15:15:49Z</time></trkpt><trkpt lat="43.50308001836414" lon="12.635365023438407"><ele>328.0</ele><time>2026-04-04T15:15:50Z</time></trkpt><trkpt lat="43.50291869822139" lon="12.635268908314968"><ele>328.0</ele><time>2026-04-04T15:15:51Z</time></trkpt><trkpt lat="43.50276115233432" lon="12.635158328436326"><ele>328.0</ele><time>2026-04-04T15:15:52Z</time></trkpt><trkpt lat="43.50260898920138" lon="12.635032300498764"><ele>328.0</ele><time>2026-04-04T15:15:53Z</time></trkpt><trkpt lat="43.50245918664947" lon="12.634895630606318"><ele>328.0</ele><time>2026-04-04T15:15:54Z</time></trkpt><trkpt lat="43.50231357038253" lon="12.63475010328122"><ele>328.0</ele><time>2026-04-04T15:15:55Z</time></trkpt><trkpt lat="43.50217371658137" lon="12.634597795702819"><ele>329.66666666666663</ele><time>2026-04-04T15:15:56Z</time></trkpt><trkpt lat="43.50203837876648" lon="12.634436220938486"><ele>331.3333333333333</ele><time>2026-04-04T15:15:57.001Z</time></trkpt><trkpt lat="43.50191048403161" lon="12.634268634916472"><ele>333.0</ele><time>2026-04-04T15:15:58.001Z</time></trkpt><trkpt lat="43.501790499033135" lon="12.634088050360981"><ele>333.0</ele><time>2026-04-04T15:15:59.001Z</time></trkpt><trkpt lat="43.50167614654792" lon="12.633899614177809"><ele>333.0</ele><time>2026-04-04T15:16:00.001Z</time></trkpt><trkpt lat="43.50156722565148" lon="12.633707127984316"><ele>333.0</ele><time>2026-04-04T15:16:01.001Z</time></trkpt><trkpt lat="43.501464376253445" lon="12.633503048192368"><ele>331.6666666666667</ele><time>2026-04-04T15:16:02.001Z</time></trkpt><trkpt lat="43.50136685780073" lon="12.63329532291674"><ele>330.33333333333337</ele><time>2026-04-04T15:16:03.001Z</time></trkpt><trkpt lat="43.501273392693555" lon="12.633086954051825"><ele>329.0</ele><time>2026-04-04T15:16:04.001Z</time></trkpt><trkpt lat="43.50118052996566" lon="12.632879579261516"><ele>329.6666666666667</ele><time>2026-04-04T15:16:05.001Z</time></trkpt><trkpt lat="43.50109697629787" lon="12.632660960624792"><ele>330.3333333333333</ele><time>2026-04-04T15:16:06.001Z</time></trkpt><trkpt lat="43.50101062487024" lon="12.632447220662417"><ele>331.0</ele><time>2026-04-04T15:16:07.001Z</time></trkpt><trkpt lat="43.500926076509934" lon="12.632235592182436"><ele>331.0</ele><time>2026-04-04T15:16:08.001Z</time></trkpt><trkpt lat="43.500840671482315" lon="12.6320224455495"><ele>331.0</ele><time>2026-04-04T15:16:09.001Z</time></trkpt><trkpt lat="43.50075315884676" lon="12.631811004282985"><ele>331.0</ele><time>2026-04-04T15:16:10.001Z</time></trkpt><trkpt lat="43.50066090476586" lon="12.631604207356652"><ele>332.3333333333333</ele><time>2026-04-04T15:16:11.001Z</time></trkpt><trkpt lat="43.50056310380175" lon="12.631400005647187"><ele>333.6666666666667</ele><time>2026-04-04T15:16:12.001Z</time></trkpt><trkpt lat="43.50045959474365" lon="12.631202025807738"><ele>335.0</ele><time>2026-04-04T15:16:13.001Z</time></trkpt><trkpt lat="43.500350188300594" lon="12.631018217253523"><ele>336.33333333333337</ele><time>2026-04-04T15:16:14.001Z</time></trkpt><trkpt lat="43.50023492876087" lon="12.630839371302246"><ele>337.6666666666667</ele><time>2026-04-04T15:16:15.001Z</time></trkpt><trkpt lat="43.500109849489974" lon="12.63065465810175"><ele>339.0</ele><time>2026-04-04T15:16:16.001Z</time></trkpt><trkpt lat="43.49997779618647" lon="12.630489296897913"><ele>339.0</ele><time>2026-04-04T15:16:17.001Z</time></trkpt><trkpt lat="43.49983900439878" lon="12.630335439279676"><ele>339.0</ele><time>2026-04-04T15:16:18.001Z</time></trkpt><trkpt lat="43.49969667505032" lon="12.630189846458647"><ele>339.0</ele><time>2026-04-04T15:16:19.001Z</time></trkpt><trkpt lat="43.49955192190321" lon="12.630051694480974"><ele>341.3333333333333</ele><time>2026-04-04T15:16:20.001Z</time></trkpt><trkpt lat="43.49940241692455" lon="12.629921012310975"><ele>343.66666666666663</ele><time>2026-04-04T15:16:21.001Z</time></trkpt><trkpt lat="43.499248340201106" lon="12.629800495677022"><ele>346.0</ele><time>2026-04-04T15:16:22.001Z</time></trkpt><trkpt lat="43.49908936093712" lon="12.629689986380933"><ele>346.0</ele><time>2026-04-04T15:16:23.001Z</time></trkpt><trkpt lat="43.498923642599046" lon="12.629590223355807"><ele>346.0</ele><time>2026-04-04T15:16:24.001Z</time></trkpt><trkpt lat="43.498760427089834" lon="12.629496662252883"><ele>346.0</ele><time>2026-04-04T15:16:25.001Z</time></trkpt><trkpt lat="43.49859487834683" lon="12.629402472481942"><ele>347.0</ele><time>2026-04-04T15:16:26.001Z</time></trkpt><trkpt lat="43.4984321204128" lon="12.629305457510187"><ele>348.0</ele><time>2026-04-04T15:16:27.001Z</time></trkpt><trkpt lat="43.49826518606944" lon="12.629207456919493"><ele>349.0</ele><time>2026-04-04T15:16:28.001Z</time></trkpt><trkpt lat="43.498101002697055" lon="12.629119803206665"><ele>349.0</ele><time>2026-04-04T15:16:29.001Z</time></trkpt><trkpt lat="43.49793722086907" lon="12.629043878577368"><ele>349.0</ele><time>2026-04-04T15:16:30.001Z</time></trkpt><trkpt lat="43.49776183403722" lon="12.628951015557583"><ele>349.0</ele><time>2026-04-04T15:16:31.001Z</time></trkpt><trkpt lat="43.49759051968895" lon="12.628851608286794"><ele>347.3333333333333</ele><time>2026-04-04T15:16:32.001Z</time></trkpt><trkpt lat="43.49743022515323" lon="12.628769179402088"><ele>345.6666666666667</ele><time>2026-04-04T15:16:33.001Z</time></trkpt><trkpt lat="43.49726640242676" lon="12.628670052319665"><ele>344.0</ele><time>2026-04-04T15:16:34.001Z</time></trkpt><trkpt lat="43.49710889279039" lon="12.628561638745747"><ele>354.6666666666667</ele><time>2026-04-04T15:16:35.001Z</time></trkpt><trkpt lat="43.49696873249735" lon="12.628449836315315"><ele>365.3333333333333</ele><time>2026-04-04T15:16:36.001Z</time></trkpt><trkpt lat="43.496831310401774" lon="12.628337164953285"><ele>376.0</ele><time>2026-04-04T15:16:37.001Z</time></trkpt><trkpt lat="43.49669856950702" lon="12.62822247559888"><ele>376.0</ele><time>2026-04-04T15:16:38.018Z</time></trkpt><trkpt lat="43.49657348866244" lon="12.628112393864244"><ele>376.0</ele><time>2026-04-04T15:16:39.018Z</time></trkpt><trkpt lat="43.49646283934205" lon="12.62800353177682"><ele>376.0</ele><time>2026-04-04T15:16:40.019Z</time></trkpt><trkpt lat="43.49635552214866" lon="12.627898722646343"><ele>376.0</ele><time>2026-04-04T15:16:41.015Z</time></trkpt><trkpt lat="43.496255390723725" lon="12.627797067936008"><ele>376.66666666666663</ele><time>2026-04-04T15:16:42.015Z</time></trkpt><trkpt lat="43.496157543755395" lon="12.627702144193762"><ele>377.3333333333333</ele><time>2026-04-04T15:16:43.017Z</time></trkpt><trkpt lat="43.496034810994004" lon="12.627605922445738"><ele>378.0</ele><time>2026-04-04T15:16:44.014Z</time></trkpt><trkpt lat="43.4952948242831" lon="12.626623744156795"><ele>372.3333333333333</ele><time>2026-04-04T15:16:48.001Z</time></trkpt><trkpt lat="43.495175437392795" lon="12.626445023447486"><ele>366.66666666666663</ele><time>2026-04-04T15:16:49.001Z</time></trkpt><trkpt lat="43.49506216139684" lon="12.626249809339262"><ele>361.0</ele><time>2026-04-04T15:16:50.001Z</time></trkpt><trkpt lat="43.49495071795107" lon="12.626053155925177"><ele>356.3333333333333</ele><time>2026-04-04T15:16:51.001Z</time></trkpt><trkpt lat="43.4948374936424" lon="12.62585498623831"><ele>351.6666666666667</ele><time>2026-04-04T15:16:52.001Z</time></trkpt><trkpt lat="43.49473151880254" lon="12.625657332550949"><ele>347.0</ele><time>2026-04-04T15:16:53.001Z</time></trkpt><trkpt lat="43.49461037019894" lon="12.625468305417446"><ele>347.6666666666667</ele><time>2026-04-04T15:16:54.001Z</time></trkpt><trkpt lat="43.49450041648018" lon="12.62527516861801"><ele>348.3333333333333</ele><time>2026-04-04T15:16:55.001Z</time></trkpt><trkpt lat="43.49440388088251" lon="12.625089789600079"><ele>349.0</ele><time>2026-04-04T15:16:56.001Z</time></trkpt><trkpt lat="43.494277345288744" lon="12.62490754308314"><ele>349.0</ele><time>2026-04-04T15:16:57.001Z</time></trkpt><trkpt lat="43.49417489199966" lon="12.624703873075122"><ele>349.0</ele><time>2026-04-04T15:16:58.001Z</time></trkpt><trkpt lat="43.49404283400963" lon="12.624534553571323"><ele>349.0</ele><time>2026-04-04T15:16:59.002Z</time></trkpt><trkpt lat="43.49393023039645" lon="12.624338731708535"><ele>349.66666666666663</ele><time>2026-04-04T15:17:00.002Z</time></trkpt><trkpt lat="43.493798653837025" lon="12.62416733005774"><ele>350.3333333333333</ele><time>2026-04-04T15:17:01.002Z</time></trkpt><trkpt lat="43.49366792811608" lon="12.62401096135728"><ele>351.0</ele><time>2026-04-04T15:17:02.002Z</time></trkpt><trkpt lat="43.49352669199643" lon="12.623863791874347"><ele>350.3333333333333</ele><time>2026-04-04T15:17:03.002Z</time></trkpt><trkpt lat="43.49338121971142" lon="12.623727006090123"><ele>349.66666666666663</ele><time>2026-04-04T15:17:04.002Z</time></trkpt><trkpt lat="43.493226610738134" lon="12.623594777997134"><ele>349.0</ele><time>2026-04-04T15:17:05.002Z</time></trkpt><trkpt lat="43.49306979552707" lon="12.623479055328637"><ele>352.66666666666663</ele><time>2026-04-04T15:17:06.002Z</time></trkpt><trkpt lat="43.492903025920924" lon="12.623394221716477"><ele>356.3333333333333</ele><time>2026-04-04T15:17:07.002Z</time></trkpt><trkpt lat="43.49273816443088" lon="12.623305601241107"><ele>360.0</ele><time>2026-04-04T15:17:08.002Z</time></trkpt><trkpt lat="43.49257127083308" lon="12.623225213709615"><ele>360.0</ele><time>2026-04-04T15:17:09.002Z</time></trkpt><trkpt lat="43.49240045031995" lon="12.623155318988752"><ele>360.0</ele><time>2026-04-04T15:17:10.002Z</time></trkpt><trkpt lat="43.492223873968136" lon="12.623098264874855"><ele>360.0</ele><time>2026-04-04T15:17:11Z</time></trkpt><trkpt lat="43.492049699562315" lon="12.623048672660293"><ele>362.0</ele><time>2026-04-04T15:17:12Z</time></trkpt><trkpt lat="43.49187388157812" lon="12.623006222501179"><ele>364.0</ele><time>2026-04-04T15:17:13Z</time></trkpt><trkpt lat="43.4916967700652" lon="12.622967262914605"><ele>366.0</ele><time>2026-04-04T15:17:14Z</time></trkpt><trkpt lat="43.49152331259594" lon="12.622930998682635"><ele>366.0</ele><time>2026-04-04T15:17:15Z</time></trkpt><trkpt lat="43.49134627579436" lon="12.62289678706397"><ele>366.0</ele><time>2026-04-04T15:17:16Z</time></trkpt><trkpt lat="43.49117391926191" lon="12.622859062080488"><ele>366.0</ele><time>2026-04-04T15:17:17Z</time></trkpt><trkpt lat="43.4910004008338" lon="12.622813124978883"><ele>359.3333333333333</ele><time>2026-04-04T15:17:18Z</time></trkpt><trkpt lat="43.49083370457994" lon="12.622756527292463"><ele>352.66666666666663</ele><time>2026-04-04T15:17:19Z</time></trkpt><trkpt lat="43.4906644880158" lon="12.62268388019681"><ele>346.0</ele><time>2026-04-04T15:17:20Z</time></trkpt><trkpt lat="43.49049448392872" lon="12.622596492427187"><ele>351.0</ele><time>2026-04-04T15:17:21Z</time></trkpt><trkpt lat="43.490330739817644" lon="12.622489675911282"><ele>356.0</ele><time>2026-04-04T15:17:22Z</time></trkpt><trkpt lat="43.4901747097174" lon="12.62236553936143"><ele>361.0</ele><time>2026-04-04T15:17:23Z</time></trkpt><trkpt lat="43.49002316780199" lon="12.622233382827856"><ele>361.0</ele><time>2026-04-04T15:17:24Z</time></trkpt><trkpt lat="43.48987490389031" lon="12.622097149946974"><ele>361.0</ele><time>2026-04-04T15:17:25Z</time></trkpt><trkpt lat="43.48972857474215" lon="12.621954925661294"><ele>361.0</ele><time>2026-04-04T15:17:26Z</time></trkpt><trkpt lat="43.48958336446419" lon="12.621810152221238"><ele>359.66666666666663</ele><time>2026-04-04T15:17:27Z</time></trkpt><trkpt lat="43.48944143160408" lon="12.621663985689755"><ele>358.3333333333333</ele><time>2026-04-04T15:17:28Z</time></trkpt><trkpt lat="43.48929742156601" lon="12.62151765376809"><ele>357.0</ele><time>2026-04-04T15:17:29Z</time></trkpt><trkpt lat="43.48915434699979" lon="12.621374641061635"><ele>357.0</ele><time>2026-04-04T15:17:30Z</time></trkpt><trkpt lat="43.48900744612673" lon="12.62123530797906"><ele>357.0</ele><time>2026-04-04T15:17:31Z</time></trkpt><trkpt lat="43.48885640833793" lon="12.621105138926426"><ele>357.0</ele><time>2026-04-04T15:17:32Z</time></trkpt><trkpt lat="43.488702173439876" lon="12.62098439562087"><ele>351.6666666666667</ele><time>2026-04-04T15:17:33Z</time></trkpt><trkpt lat="43.4885451345084" lon="12.62087167761971"><ele>346.33333333333337</ele><time>2026-04-04T15:17:34Z</time></trkpt><trkpt lat="43.488388350186106" lon="12.620765946223402"><ele>341.0</ele><time>2026-04-04T15:17:35Z</time></trkpt><trkpt lat="43.48822713801311" lon="12.620659919873173"><ele>341.0</ele><time>2026-04-04T15:17:36Z</time></trkpt><trkpt lat="43.48806327514586" lon="12.620568587363065"><ele>341.0</ele><time>2026-04-04T15:17:37Z</time></trkpt><trkpt lat="43.487896417954474" lon="12.620486690508933"><ele>341.0</ele><time>2026-04-04T15:17:38Z</time></trkpt><trkpt lat="43.487732572772444" lon="12.620387346400143"><ele>341.0</ele><time>2026-04-04T15:17:39Z</time></trkpt><trkpt lat="43.48756227959819" lon="12.620315132040663"><ele>341.0</ele><time>2026-04-04T15:17:40Z</time></trkpt><trkpt lat="43.487386914781254" lon="12.620270154131305"><ele>341.0</ele><time>2026-04-04T15:17:41Z</time></trkpt><trkpt lat="43.48721446622827" lon="12.620209884751157"><ele>341.6666666666667</ele><time>2026-04-04T15:17:42Z</time></trkpt><trkpt lat="43.48704082136006" lon="12.620159796828219"><ele>342.3333333333333</ele><time>2026-04-04T15:17:43Z</time></trkpt><trkpt lat="43.48686550596388" lon="12.620119182052969"><ele>343.0</ele><time>2026-04-04T15:17:44Z</time></trkpt><trkpt lat="43.4866871632982" lon="12.6200853673529"><ele>343.0</ele><time>2026-04-04T15:17:45Z</time></trkpt><trkpt lat="43.486510615738084" lon="12.620058005410892"><ele>343.0</ele><time>2026-04-04T15:17:46Z</time></trkpt><trkpt lat="43.486333720892304" lon="12.620035824773943"><ele>343.0</ele><time>2026-04-04T15:17:47Z</time></trkpt><trkpt lat="43.48615712102556" lon="12.620023192016982"><ele>342.66666666666663</ele><time>2026-04-04T15:17:48Z</time></trkpt><trkpt lat="43.48597727073087" lon="12.620013994789316"><ele>342.3333333333333</ele><time>2026-04-04T15:17:49Z</time></trkpt><trkpt lat="43.48579882860516" lon="12.620010906635589"><ele>342.0</ele><time>2026-04-04T15:17:50Z</time></trkpt><trkpt lat="43.485622426054505" lon="12.620016175509832"><ele>342.0</ele><time>2026-04-04T15:17:51Z</time></trkpt><trkpt lat="43.485444396659524" lon="12.620024543088029"><ele>342.0</ele><time>2026-04-04T15:17:52Z</time></trkpt><trkpt lat="43.48526689413003" lon="12.620036102218409"><ele>342.0</ele><time>2026-04-04T15:17:53.001Z</time></trkpt><trkpt lat="43.48508869589843" lon="12.62005250663509"><ele>342.0</ele><time>2026-04-04T15:17:54.001Z</time></trkpt><trkpt lat="43.48491135181974" lon="12.620073588025738"><ele>342.0</ele><time>2026-04-04T15:17:55.001Z</time></trkpt><trkpt lat="43.48473489320168" lon="12.620099626488445"><ele>342.0</ele><time>2026-04-04T15:17:56.001Z</time></trkpt><trkpt lat="43.484557309941046" lon="12.620128221184826"><ele>342.3333333333333</ele><time>2026-04-04T15:17:57.001Z</time></trkpt><trkpt lat="43.484380819341055" lon="12.620159686976033"><ele>342.66666666666663</ele><time>2026-04-04T15:17:58.001Z</time></trkpt><trkpt lat="43.48419472483686" lon="12.620189188483371"><ele>343.0</ele><time>2026-04-04T15:17:59.001Z</time></trkpt><trkpt lat="43.48402169254482" lon="12.620227679367039"><ele>343.0</ele><time>2026-04-04T15:18:00.001Z</time></trkpt><trkpt lat="43.48384640409241" lon="12.620269364869174"><ele>343.0</ele><time>2026-04-04T15:18:01.001Z</time></trkpt><trkpt lat="43.48366956967624" lon="12.620308674608351"><ele>343.0</ele><time>2026-04-04T15:18:02.001Z</time></trkpt><trkpt lat="43.48349354725569" lon="12.620349309958435"><ele>344.66666666666663</ele><time>2026-04-04T15:18:03.001Z</time></trkpt><trkpt lat="43.48331850988011" lon="12.620391894708032"><ele>346.3333333333333</ele><time>2026-04-04T15:18:04.001Z</time></trkpt><trkpt lat="43.48314360231517" lon="12.620434497963876"><ele>348.0</ele><time>2026-04-04T15:18:05.001Z</time></trkpt><trkpt lat="43.48296838978097" lon="12.62047611762695"><ele>349.0</ele><time>2026-04-04T15:18:06.001Z</time></trkpt><trkpt lat="43.482794063268955" lon="12.620518969010536"><ele>350.0</ele><time>2026-04-04T15:18:07.001Z</time></trkpt><trkpt lat="43.48261773059795" lon="12.620563257758633"><ele>351.0</ele><time>2026-04-04T15:18:08.001Z</time></trkpt><trkpt lat="43.48244254580317" lon="12.620610437272017"><ele>351.0</ele><time>2026-04-04T15:18:09.001Z</time></trkpt><trkpt lat="43.48226845710695" lon="12.620660787702887"><ele>351.0</ele><time>2026-04-04T15:18:10.001Z</time></trkpt><trkpt lat="43.48209426730574" lon="12.620711380989807"><ele>351.0</ele><time>2026-04-04T15:18:11.001Z</time></trkpt><trkpt lat="43.481918581322695" lon="12.620765231275097"><ele>351.3333333333333</ele><time>2026-04-04T15:18:12.001Z</time></trkpt><trkpt lat="43.481754213583066" lon="12.620823606058526"><ele>351.66666666666663</ele><time>2026-04-04T15:18:13.001Z</time></trkpt><trkpt lat="43.48157888904976" lon="12.620874258086095"><ele>352.0</ele><time>2026-04-04T15:18:14.001Z</time></trkpt><trkpt lat="43.48140465189642" lon="12.620926388684655"><ele>352.3333333333333</ele><time>2026-04-04T15:18:15.001Z</time></trkpt><trkpt lat="43.481232356084625" lon="12.620982740817258"><ele>352.6666666666667</ele><time>2026-04-04T15:18:16.001Z</time></trkpt><trkpt lat="43.48105903941599" lon="12.621045552382991"><ele>353.0</ele><time>2026-04-04T15:18:17.001Z</time></trkpt><trkpt lat="43.480887685411005" lon="12.62111262901643"><ele>352.0</ele><time>2026-04-04T15:18:18.001Z</time></trkpt><trkpt lat="43.48071541641347" lon="12.621183826680646"><ele>351.0</ele><time>2026-04-04T15:18:19.001Z</time></trkpt><trkpt lat="43.48054401688657" lon="12.6212590048858"><ele>350.0</ele><time>2026-04-04T15:18:20.001Z</time></trkpt><trkpt lat="43.48037377895968" lon="12.621337709969504"><ele>350.0</ele><time>2026-04-04T15:18:21.001Z</time></trkpt><trkpt lat="43.48020695155342" lon="12.621422600184173"><ele>350.0</ele><time>2026-04-04T15:18:22.001Z</time></trkpt><trkpt lat="43.48004149734431" lon="12.62150997744281"><ele>350.0</ele><time>2026-04-04T15:18:23.001Z</time></trkpt><trkpt lat="43.47987663537811" lon="12.621602765497311"><ele>350.0</ele><time>2026-04-04T15:18:24.001Z</time></trkpt><trkpt lat="43.47971357751853" lon="12.621698430032785"><ele>350.0</ele><time>2026-04-04T15:18:25.001Z</time></trkpt><trkpt lat="43.47955081624363" lon="12.62179866909602"><ele>350.0</ele><time>2026-04-04T15:18:26.001Z</time></trkpt><trkpt lat="43.4793918374248" lon="12.62190276318836"><ele>350.6666666666667</ele><time>2026-04-04T15:18:27.001Z</time></trkpt><trkpt lat="43.47923047159613" lon="12.62201345320249"><ele>351.3333333333333</ele><time>2026-04-04T15:18:28.001Z</time></trkpt><trkpt lat="43.47907121737707" lon="12.622125520606204"><ele>352.0</ele><time>2026-04-04T15:18:29.001Z</time></trkpt><trkpt lat="43.47891162478242" lon="12.622237518256167"><ele>352.3333333333333</ele><time>2026-04-04T15:18:30.001Z</time></trkpt><trkpt lat="43.47875507278136" lon="12.62235505661135"><ele>352.6666666666667</ele><time>2026-04-04T15:18:31.001Z</time></trkpt><trkpt lat="43.47860197130812" lon="12.622475329795112"><ele>353.0</ele><time>2026-04-04T15:18:32.001Z</time></trkpt><trkpt lat="43.4784493266739" lon="12.622594625045238"><ele>353.0</ele><time>2026-04-04T15:18:33.001Z</time></trkpt><trkpt lat="43.47829701592758" lon="12.622719587643257"><ele>353.0</ele><time>2026-04-04T15:18:34.001Z</time></trkpt><trkpt lat="43.47814196006982" lon="12.622843791483215"><ele>353.0</ele><time>2026-04-04T15:18:35.001Z</time></trkpt><trkpt lat="43.477985625217855" lon="12.622966325072674"><ele>353.6666666666667</ele><time>2026-04-04T15:18:36.001Z</time></trkpt><trkpt lat="43.47783587442694" lon="12.623091020154673"><ele>354.3333333333333</ele><time>2026-04-04T15:18:37.001Z</time></trkpt><trkpt lat="43.477684992381626" lon="12.623217501601463"><ele>355.0</ele><time>2026-04-04T15:18:38.001Z</time></trkpt><trkpt lat="43.47753383619806" lon="12.623343344557364"><ele>355.0</ele><time>2026-04-04T15:18:39.001Z</time></trkpt><trkpt lat="43.477382000680535" lon="12.623468506186848"><ele>355.0</ele><time>2026-04-04T15:18:40.001Z</time></trkpt><trkpt lat="43.477226418379495" lon="12.623590336000346"><ele>355.0</ele><time>2026-04-04T15:18:41.001Z</time></trkpt><trkpt lat="43.47707029007867" lon="12.623709789612928"><ele>355.0</ele><time>2026-04-04T15:18:42.001Z</time></trkpt><trkpt lat="43.47690984060943" lon="12.623821099382338"><ele>355.0</ele><time>2026-04-04T15:18:43.001Z</time></trkpt><trkpt lat="43.47674499126871" lon="12.623920868760036"><ele>355.0</ele><time>2026-04-04T15:18:44.001Z</time></trkpt><trkpt lat="43.47658122517188" lon="12.62400742500562"><ele>355.0</ele><time>2026-04-04T15:18:45.001Z</time></trkpt><trkpt lat="43.47641211945632" lon="12.624082662242552"><ele>355.0</ele><time>2026-04-04T15:18:46.001Z</time></trkpt><trkpt lat="43.476242892032126" lon="12.624150305942065"><ele>355.0</ele><time>2026-04-04T15:18:47.001Z</time></trkpt><trkpt lat="43.476070833865606" lon="12.62420921612902"><ele>356.66666666666663</ele><time>2026-04-04T15:18:48.001Z</time></trkpt><trkpt lat="43.475897806316965" lon="12.624255863435454"><ele>358.3333333333333</ele><time>2026-04-04T15:18:49.001Z</time></trkpt><trkpt lat="43.4757217658671" lon="12.62429040038763"><ele>360.0</ele><time>2026-04-04T15:18:50.001Z</time></trkpt><trkpt lat="43.47554270846246" lon="12.624314671100382"><ele>363.6666666666667</ele><time>2026-04-04T15:18:51.001Z</time></trkpt><trkpt lat="43.475366092171804" lon="12.624323583345209"><ele>367.33333333333337</ele><time>2026-04-04T15:18:52.001Z</time></trkpt><trkpt lat="43.47519033564263" lon="12.624321581149534"><ele>371.0</ele><time>2026-04-04T15:18:53.001Z</time></trkpt><trkpt lat="43.47501518251186" lon="12.624308869588868"><ele>371.0</ele><time>2026-04-04T15:18:54.001Z</time></trkpt><trkpt lat="43.474835742843766" lon="12.624283447255515"><ele>371.0</ele><time>2026-04-04T15:18:55.001Z</time></trkpt><trkpt lat="43.47465790254824" lon="12.624257005578814"><ele>371.0</ele><time>2026-04-04T15:18:56.001Z</time></trkpt><trkpt lat="43.474482036414756" lon="12.624226438516743"><ele>373.6666666666667</ele><time>2026-04-04T15:18:57.002Z</time></trkpt><trkpt lat="43.474303390023394" lon="12.624194534340676"><ele>376.3333333333333</ele><time>2026-04-04T15:18:58.021Z</time></trkpt><trkpt lat="43.47413011155378" lon="12.624160459731515"><ele>379.0</ele><time>2026-04-04T15:18:59.014Z</time></trkpt><trkpt lat="43.47395699605251" lon="12.624125851889543"><ele>379.0</ele><time>2026-04-04T15:19:00.014Z</time></trkpt><trkpt lat="43.473782903714415" lon="12.624092313896305"><ele>379.0</ele><time>2026-04-04T15:19:01.02Z</time></trkpt><trkpt lat="43.473245222161964" lon="12.624062318366601"><ele>375.0</ele><time>2026-04-04T15:19:04.002Z</time></trkpt><trkpt lat="43.47306824200354" lon="12.62405635272351"><ele>371.0</ele><time>2026-04-04T15:19:05.002Z</time></trkpt><trkpt lat="43.47288454528611" lon="12.624066398707734"><ele>367.0</ele><time>2026-04-04T15:19:06.002Z</time></trkpt><trkpt lat="43.47270853701216" lon="12.624087983668534"><ele>366.66666666666663</ele><time>2026-04-04T15:19:07.002Z</time></trkpt><trkpt lat="43.4725308358004" lon="12.624122872922012"><ele>366.3333333333333</ele><time>2026-04-04T15:19:08.002Z</time></trkpt><trkpt lat="43.472357611174225" lon="12.624169521521644"><ele>366.0</ele><time>2026-04-04T15:19:09.002Z</time></trkpt><trkpt lat="43.472187106093685" lon="12.624237138011253"><ele>376.33333333333337</ele><time>2026-04-04T15:19:10.002Z</time></trkpt><trkpt lat="43.47201482696293" lon="12.624300287857098"><ele>386.6666666666667</ele><time>2026-04-04T15:19:11.002Z</time></trkpt><trkpt lat="43.471844552282654" lon="12.624372178320414"><ele>397.0</ele><time>2026-04-04T15:19:12.002Z</time></trkpt><trkpt lat="43.47167589207666" lon="12.62445193001084"><ele>389.33333333333337</ele><time>2026-04-04T15:19:13.002Z</time></trkpt><trkpt lat="43.47151165135541" lon="12.62453990618809"><ele>381.6666666666667</ele><time>2026-04-04T15:19:14.002Z</time></trkpt><trkpt lat="43.47134483486849" lon="12.624632954959734"><ele>374.0</ele><time>2026-04-04T15:19:15.002Z</time></trkpt><trkpt lat="43.471178833678394" lon="12.624730567478506"><ele>390.6666666666667</ele><time>2026-04-04T15:19:16.002Z</time></trkpt><trkpt lat="43.47100980012455" lon="12.624833412184026"><ele>407.33333333333337</ele><time>2026-04-04T15:19:17.02Z</time></trkpt><trkpt lat="43.470844188225534" lon="12.624936322969194"><ele>424.0</ele><time>2026-04-04T15:19:18.016Z</time></trkpt><trkpt lat="43.47067680778628" lon="12.62503963785084"><ele>424.0</ele><time>2026-04-04T15:19:19.02Z</time></trkpt><trkpt lat="43.470505655611575" lon="12.625140769398433"><ele>424.0</ele><time>2026-04-04T15:19:20.017Z</time></trkpt><trkpt lat="43.4703337940431" lon="12.625243333339117"><ele>424.0</ele><time>2026-04-04T15:19:21.02Z</time></trkpt><trkpt lat="43.468513770881344" lon="12.626463809816634"><ele>397.0</ele><time>2026-04-04T15:19:25.519Z</time></trkpt><trkpt lat="43.46809641026453" lon="12.626701653097468"><ele>389.0</ele><time>2026-04-04T15:19:26.523Z</time></trkpt><trkpt lat="43.467691923488395" lon="12.626972745035586"><ele>388.5</ele><time>2026-04-04T15:19:27.523Z</time></trkpt><trkpt lat="43.46726993102903" lon="12.627164460730391"><ele>388.0</ele><time>2026-04-04T15:19:40Z</time></trkpt><trkpt lat="43.467105132049106" lon="12.627268097586551"><ele>386.0</ele><time>2026-04-04T15:19:41Z</time></trkpt><trkpt lat="43.466939727396635" lon="12.627349397603867"><ele>384.0</ele><time>2026-04-04T15:19:42Z</time></trkpt><trkpt lat="43.466792347442194" lon="12.627443469080452"><ele>382.0</ele><time>2026-04-04T15:19:43Z</time></trkpt><trkpt lat="43.46661201029612" lon="12.627504612642955"><ele>382.0</ele><time>2026-04-04T15:19:44Z</time></trkpt><trkpt lat="43.46644275623001" lon="12.62757059087513"><ele>382.0</ele><time>2026-04-04T15:19:45Z</time></trkpt><trkpt lat="43.46627229289919" lon="12.627657131137195"><ele>382.0</ele><time>2026-04-04T15:19:46Z</time></trkpt><trkpt lat="43.46610304862961" lon="12.627730535000904"><ele>380.0</ele><time>2026-04-04T15:19:47Z</time></trkpt><trkpt lat="43.46593191464227" lon="12.627803031624063"><ele>378.0</ele><time>2026-04-04T15:19:48Z</time></trkpt><trkpt lat="43.46576002102435" lon="12.62787079821064"><ele>376.0</ele><time>2026-04-04T15:19:49Z</time></trkpt><trkpt lat="43.465586210828505" lon="12.62793342052896"><ele>374.0</ele><time>2026-04-04T15:19:50Z</time></trkpt><trkpt lat="43.46541353268194" lon="12.627991912878365"><ele>372.0</ele><time>2026-04-04T15:19:51Z</time></trkpt><trkpt lat="43.46523846984173" lon="12.628041497685176"><ele>370.0</ele><time>2026-04-04T15:19:52Z</time></trkpt><trkpt lat="43.46506229511" lon="12.62808024931238"><ele>370.0</ele><time>2026-04-04T15:19:53Z</time></trkpt><trkpt lat="43.46488516617161" lon="12.628111354776967"><ele>370.0</ele><time>2026-04-04T15:19:54Z</time></trkpt><trkpt lat="43.464708326304944" lon="12.628137814143924"><ele>370.0</ele><time>2026-04-04T15:19:55Z</time></trkpt><trkpt lat="43.464531157410846" lon="12.628162790393336"><ele>370.3333333333333</ele><time>2026-04-04T15:19:56.001Z</time></trkpt><trkpt lat="43.46435367824024" lon="12.628186171184188"><ele>370.6666666666667</ele><time>2026-04-04T15:19:57.001Z</time></trkpt><trkpt lat="43.46417866357744" lon="12.628208624974286"><ele>371.0</ele><time>2026-04-04T15:19:58.001Z</time></trkpt><trkpt lat="43.464002864345225" lon="12.628224317616663"><ele>371.0</ele><time>2026-04-04T15:19:59.001Z</time></trkpt><trkpt lat="43.46382432571496" lon="12.628235607104864"><ele>371.0</ele><time>2026-04-04T15:20:00.001Z</time></trkpt><trkpt lat="43.463644395539774" lon="12.628241375704306"><ele>371.0</ele><time>2026-04-04T15:20:01.001Z</time></trkpt><trkpt lat="43.46346726417649" lon="12.62824121174784"><ele>373.0</ele><time>2026-04-04T15:20:02.001Z</time></trkpt><trkpt lat="43.46328750770945" lon="12.62823534720096"><ele>375.0</ele><time>2026-04-04T15:20:03.001Z</time></trkpt><trkpt lat="43.46311038718554" lon="12.628225536492602"><ele>377.0</ele><time>2026-04-04T15:20:04.001Z</time></trkpt><trkpt lat="43.46293220440543" lon="12.62821593639516"><ele>379.0</ele><time>2026-04-04T15:20:05.001Z</time></trkpt><trkpt lat="43.462756266405236" lon="12.628202177158414"><ele>381.0</ele><time>2026-04-04T15:20:06.001Z</time></trkpt><trkpt lat="43.46257644208058" lon="12.628181630095817"><ele>383.0</ele><time>2026-04-04T15:20:07.001Z</time></trkpt><trkpt lat="43.46239860572548" lon="12.628155998731188"><ele>383.0</ele><time>2026-04-04T15:20:08.001Z</time></trkpt><trkpt lat="43.462222726437936" lon="12.62812979586147"><ele>383.0</ele><time>2026-04-04T15:20:09.001Z</time></trkpt><trkpt lat="43.46204454783529" lon="12.628099433735336"><ele>383.0</ele><time>2026-04-04T15:20:10.001Z</time></trkpt><trkpt lat="43.461867830931" lon="12.628066617206532"><ele>381.6666666666667</ele><time>2026-04-04T15:20:11.001Z</time></trkpt><trkpt lat="43.46168954167728" lon="12.628035544634296"><ele>380.3333333333333</ele><time>2026-04-04T15:20:12.001Z</time></trkpt><trkpt lat="43.4615110620588" lon="12.62800511582825"><ele>379.0</ele><time>2026-04-04T15:20:13.001Z</time></trkpt><trkpt lat="43.46133481912025" lon="12.627970623171635"><ele>378.3333333333333</ele><time>2026-04-04T15:20:14.001Z</time></trkpt><trkpt lat="43.46116009566566" lon="12.627930977480075"><ele>377.6666666666667</ele><time>2026-04-04T15:20:15.001Z</time></trkpt><trkpt lat="43.46098475699908" lon="12.627896917449085"><ele>377.0</ele><time>2026-04-04T15:20:16.001Z</time></trkpt><trkpt lat="43.46081034648865" lon="12.627865943104092"><ele>377.0</ele><time>2026-04-04T15:20:17.001Z</time></trkpt><trkpt lat="43.4606345129958" lon="12.62783760737696"><ele>377.0</ele><time>2026-04-04T15:20:18.001Z</time></trkpt><trkpt lat="43.46045755331263" lon="12.627810814052783"><ele>377.0</ele><time>2026-04-04T15:20:19.001Z</time></trkpt><trkpt lat="43.460280567029265" lon="12.62778863450207"><ele>376.0</ele><time>2026-04-04T15:20:20.001Z</time></trkpt><trkpt lat="43.46010252653305" lon="12.627774869485146"><ele>375.0</ele><time>2026-04-04T15:20:21.001Z</time></trkpt><trkpt lat="43.4599243126414" lon="12.6277613032058"><ele>374.0</ele><time>2026-04-04T15:20:22.001Z</time></trkpt><trkpt lat="43.45974612708831" lon="12.627754870594076"><ele>374.33333333333337</ele><time>2026-04-04T15:20:23.001Z</time></trkpt><trkpt lat="43.4595703273865" lon="12.62774925452184"><ele>374.6666666666667</ele><time>2026-04-04T15:20:24.001Z</time></trkpt><trkpt lat="43.459391881295126" lon="12.627755108625859"><ele>375.0</ele><time>2026-04-04T15:20:25.001Z</time></trkpt><trkpt lat="43.459214887289406" lon="12.62776393111485"><ele>375.0</ele><time>2026-04-04T15:20:26.001Z</time></trkpt><trkpt lat="43.45903659718989" lon="12.62777745409457"><ele>375.0</ele><time>2026-04-04T15:20:27.001Z</time></trkpt><trkpt lat="43.45885759600516" lon="12.627797643439857"><ele>375.0</ele><time>2026-04-04T15:20:28.001Z</time></trkpt><trkpt lat="43.458677259413776" lon="12.627824018593547"><ele>376.3333333333333</ele><time>2026-04-04T15:20:29.001Z</time></trkpt><trkpt lat="43.45850036479325" lon="12.627856521558654"><ele>377.66666666666663</ele><time>2026-04-04T15:20:30.001Z</time></trkpt><trkpt lat="43.4583238933292" lon="12.627897632213905"><ele>379.0</ele><time>2026-04-04T15:20:31.001Z</time></trkpt><trkpt lat="43.45814920856272" lon="12.62794273495546"><ele>379.0</ele><time>2026-04-04T15:20:32.001Z</time></trkpt><trkpt lat="43.45797526519874" lon="12.627989054184887"><ele>379.0</ele><time>2026-04-04T15:20:33.001Z</time></trkpt><trkpt lat="43.45780370860169" lon="12.628044674167423"><ele>379.0</ele><time>2026-04-04T15:20:34.001Z</time></trkpt><trkpt lat="43.45763151684233" lon="12.628107088322526"><ele>380.0</ele><time>2026-04-04T15:20:35.001Z</time></trkpt><trkpt lat="43.457459832047284" lon="12.628175239280418"><ele>381.0</ele><time>2026-04-04T15:20:36.001Z</time></trkpt><trkpt lat="43.45728928459911" lon="12.62825207725645"><ele>382.0</ele><time>2026-04-04T15:20:37.001Z</time></trkpt><trkpt lat="43.45712001671551" lon="12.628336365551045"><ele>384.0</ele><time>2026-04-04T15:20:38.001Z</time></trkpt><trkpt lat="43.45695252976717" lon="12.628425511497944"><ele>386.0</ele><time>2026-04-04T15:20:39.001Z</time></trkpt><trkpt lat="43.45678638022014" lon="12.628519145424914"><ele>388.0</ele><time>2026-04-04T15:20:40.001Z</time></trkpt><trkpt lat="43.45662033916057" lon="12.628616019426705"><ele>386.6666666666667</ele><time>2026-04-04T15:20:41.001Z</time></trkpt><trkpt lat="43.45646044356026" lon="12.628711823980778"><ele>385.33333333333337</ele><time>2026-04-04T15:20:42.001Z</time></trkpt><trkpt lat="43.456302850780915" lon="12.628818423441293"><ele>384.0</ele><time>2026-04-04T15:20:43.001Z</time></trkpt><trkpt lat="43.45614485810779" lon="12.628929270856036"><ele>382.6666666666667</ele><time>2026-04-04T15:20:44.001Z</time></trkpt><trkpt lat="43.45598671816434" lon="12.629040976492911"><ele>381.33333333333337</ele><time>2026-04-04T15:20:45.001Z</time></trkpt><trkpt lat="43.4558329147466" lon="12.62916735392597"><ele>380.0</ele><time>2026-04-04T15:20:46.001Z</time></trkpt><trkpt lat="43.45568108384742" lon="12.629297643237761"><ele>380.0</ele><time>2026-04-04T15:20:47.001Z</time></trkpt><trkpt lat="43.455532278807276" lon="12.629432058304632"><ele>380.0</ele><time>2026-04-04T15:20:48.001Z</time></trkpt><trkpt lat="43.45538637394529" lon="12.629570953916957"><ele>380.0</ele><time>2026-04-04T15:20:49.001Z</time></trkpt><trkpt lat="43.455242841680494" lon="12.629712206061638"><ele>379.6666666666667</ele><time>2026-04-04T15:20:50.001Z</time></trkpt><trkpt lat="43.4550991113753" lon="12.629855872092804"><ele>379.3333333333333</ele><time>2026-04-04T15:20:51.001Z</time></trkpt><trkpt lat="43.454956800183034" lon="12.630002304322204"><ele>379.0</ele><time>2026-04-04T15:20:52.001Z</time></trkpt><trkpt lat="43.45481571325523" lon="12.630154475553487"><ele>379.0</ele><time>2026-04-04T15:20:53.001Z</time></trkpt><trkpt lat="43.45467650702266" lon="12.630307697456038"><ele>379.0</ele><time>2026-04-04T15:20:54.001Z</time></trkpt><trkpt lat="43.45453912427668" lon="12.630465279965815"><ele>379.0</ele><time>2026-04-04T15:20:55.001Z</time></trkpt><trkpt lat="43.45440102302162" lon="12.630625250193699"><ele>379.66666666666663</ele><time>2026-04-04T15:20:56.001Z</time></trkpt><trkpt lat="43.454265865743984" lon="12.630782862641563"><ele>380.3333333333333</ele><time>2026-04-04T15:20:57.001Z</time></trkpt><trkpt lat="43.45413260215757" lon="12.630940164418092"><ele>381.0</ele><time>2026-04-04T15:20:58.001Z</time></trkpt><trkpt lat="43.453998731357224" lon="12.631097237631131"><ele>381.0</ele><time>2026-04-04T15:20:59.001Z</time></trkpt><trkpt lat="43.45386343797127" lon="12.63125317677443"><ele>381.0</ele><time>2026-04-04T15:21:00.001Z</time></trkpt><trkpt lat="43.45372754206894" lon="12.63141171322381"><ele>381.0</ele><time>2026-04-04T15:21:01.001Z</time></trkpt><trkpt lat="43.453591587503986" lon="12.63156923612219"><ele>381.0</ele><time>2026-04-04T15:21:02.001Z</time></trkpt><trkpt lat="43.453453972560176" lon="12.63172518130991"><ele>381.0</ele><time>2026-04-04T15:21:03.001Z</time></trkpt><trkpt lat="43.45331794217348" lon="12.631878121701176"><ele>381.0</ele><time>2026-04-04T15:21:04.002Z</time></trkpt><trkpt lat="43.45318134817558" lon="12.632030333645321"><ele>381.0</ele><time>2026-04-04T15:21:05.002Z</time></trkpt><trkpt lat="43.45304203282151" lon="12.632183519565046"><ele>381.0</ele><time>2026-04-04T15:21:06.002Z</time></trkpt><trkpt lat="43.4529017322932" lon="12.632333986578635"><ele>381.0</ele><time>2026-04-04T15:21:07.002Z</time></trkpt><trkpt lat="43.452760933392064" lon="12.6324822464295"><ele>382.33333333333337</ele><time>2026-04-04T15:21:08.002Z</time></trkpt><trkpt lat="43.452616202411185" lon="12.632626895812594"><ele>383.6666666666667</ele><time>2026-04-04T15:21:09.002Z</time></trkpt><trkpt lat="43.45246654919576" lon="12.632765769232947"><ele>385.0</ele><time>2026-04-04T15:21:10.002Z</time></trkpt><trkpt lat="43.452317667693684" lon="12.632898195250942"><ele>385.0</ele><time>2026-04-04T15:21:11.002Z</time></trkpt><trkpt lat="43.45216662701077" lon="12.633029908955711"><ele>385.0</ele><time>2026-04-04T15:21:12.002Z</time></trkpt><trkpt lat="43.4520139898191" lon="12.633158345797595"><ele>385.0</ele><time>2026-04-04T15:21:13.002Z</time></trkpt><trkpt lat="43.4518602752128" lon="12.63328038239519"><ele>385.33333333333337</ele><time>2026-04-04T15:21:14.002Z</time></trkpt><trkpt lat="43.45170475461799" lon="12.633397277577798"><ele>385.66666666666663</ele><time>2026-04-04T15:21:15.002Z</time></trkpt><trkpt lat="43.45154559565364" lon="12.633508365942337"><ele>386.0</ele><time>2026-04-04T15:21:16.002Z</time></trkpt><trkpt lat="43.45138563487495" lon="12.633612142050959"><ele>388.0</ele><time>2026-04-04T15:21:17.002Z</time></trkpt><trkpt lat="43.45122125556506" lon="12.633707596835524"><ele>390.0</ele><time>2026-04-04T15:21:18.002Z</time></trkpt><trkpt lat="43.451055280872076" lon="12.633794778801331"><ele>392.0</ele><time>2026-04-04T15:21:19.002Z</time></trkpt><trkpt lat="43.450886493197395" lon="12.633875986620795"><ele>392.0</ele><time>2026-04-04T15:21:20.002Z</time></trkpt><trkpt lat="43.450718932272665" lon="12.633950556459812"><ele>392.0</ele><time>2026-04-04T15:21:21.002Z</time></trkpt><trkpt lat="43.45054962552296" lon="12.63401924929185"><ele>392.0</ele><time>2026-04-04T15:21:22.002Z</time></trkpt><trkpt lat="43.450381572205444" lon="12.634079526890504"><ele>390.0</ele><time>2026-04-04T15:21:23Z</time></trkpt><trkpt lat="43.45020961327551" lon="12.634127817987665"><ele>388.0</ele><time>2026-04-04T15:21:24Z</time></trkpt><trkpt lat="43.45003674542599" lon="12.634164615674857"><ele>386.0</ele><time>2026-04-04T15:21:25Z</time></trkpt><trkpt lat="43.44986218056878" lon="12.634192974467112"><ele>386.0</ele><time>2026-04-04T15:21:26Z</time></trkpt><trkpt lat="43.44968663692007" lon="12.634209464709382"><ele>386.0</ele><time>2026-04-04T15:21:27Z</time></trkpt><trkpt lat="43.44950868738003" lon="12.63421442813816"><ele>386.0</ele><time>2026-04-04T15:21:28Z</time></trkpt><trkpt lat="43.44932953577966" lon="12.634209599361947"><ele>386.3333333333333</ele><time>2026-04-04T15:21:29Z</time></trkpt><trkpt lat="43.449151123227715" lon="12.634195529052956"><ele>386.66666666666663</ele><time>2026-04-04T15:21:30Z</time></trkpt><trkpt lat="43.44897522379909" lon="12.634176127467864"><ele>387.0</ele><time>2026-04-04T15:21:31Z</time></trkpt><trkpt lat="43.44879462339473" lon="12.634158481602503"><ele>387.66666666666663</ele><time>2026-04-04T15:21:32Z</time></trkpt><trkpt lat="43.448617778809435" lon="12.634158314586715"><ele>388.3333333333333</ele><time>2026-04-04T15:21:33Z</time></trkpt><trkpt lat="43.44843458225573" lon="12.634165134680632"><ele>389.0</ele><time>2026-04-04T15:21:34Z</time></trkpt><trkpt lat="43.4482537156374" lon="12.634179928129601"><ele>389.0</ele><time>2026-04-04T15:21:35Z</time></trkpt><trkpt lat="43.44807449785024" lon="12.634193559372584"><ele>389.0</ele><time>2026-04-04T15:21:36Z</time></trkpt><trkpt lat="43.44789490554412" lon="12.634203699140816"><ele>389.0</ele><time>2026-04-04T15:21:37Z</time></trkpt><trkpt lat="43.447718197573884" lon="12.63420136171274"><ele>391.3333333333333</ele><time>2026-04-04T15:21:38Z</time></trkpt><trkpt lat="43.447539744321965" lon="12.63417747890288"><ele>393.66666666666663</ele><time>2026-04-04T15:21:39Z</time></trkpt><trkpt lat="43.44736087452248" lon="12.63414054931545"><ele>396.0</ele><time>2026-04-04T15:21:40Z</time></trkpt><trkpt lat="43.44718330959439" lon="12.634097300680578"><ele>397.0</ele><time>2026-04-04T15:21:41Z</time></trkpt><trkpt lat="43.44700989032438" lon="12.634040778192775"><ele>398.0</ele><time>2026-04-04T15:21:42Z</time></trkpt><trkpt lat="43.446834688965204" lon="12.633980842440263"><ele>399.0</ele><time>2026-04-04T15:21:43Z</time></trkpt><trkpt lat="43.446660244912636" lon="12.633925564772573"><ele>399.0</ele><time>2026-04-04T15:21:44Z</time></trkpt><trkpt lat="43.44648495159566" lon="12.633879337118328"><ele>399.0</ele><time>2026-04-04T15:21:45Z</time></trkpt><trkpt lat="43.44630955817118" lon="12.63384181952047"><ele>399.0</ele><time>2026-04-04T15:21:46Z</time></trkpt><trkpt lat="43.446133796457424" lon="12.633821234922419"><ele>399.0</ele><time>2026-04-04T15:21:47Z</time></trkpt><trkpt lat="43.44595859229724" lon="12.63382466407744"><ele>399.0</ele><time>2026-04-04T15:21:48Z</time></trkpt><trkpt lat="43.44578262887654" lon="12.633850148770465"><ele>399.0</ele><time>2026-04-04T15:21:49Z</time></trkpt><trkpt lat="43.445608219549406" lon="12.63390003518863"><ele>398.33333333333337</ele><time>2026-04-04T15:21:50Z</time></trkpt><trkpt lat="43.44544032839626" lon="12.633967935961708"><ele>397.6666666666667</ele><time>2026-04-04T15:21:51Z</time></trkpt><trkpt lat="43.44527593304289" lon="12.634055766135402"><ele>397.0</ele><time>2026-04-04T15:21:52Z</time></trkpt><trkpt lat="43.445115112643116" lon="12.634155178773321"><ele>397.0</ele><time>2026-04-04T15:21:53Z</time></trkpt><trkpt lat="43.4449534007757" lon="12.634252640258833"><ele>397.0</ele><time>2026-04-04T15:21:54Z</time></trkpt><trkpt lat="43.44478737254008" lon="12.634323204092103"><ele>397.0</ele><time>2026-04-04T15:21:55Z</time></trkpt><trkpt lat="43.444613273753276" lon="12.63436795577958"><ele>397.33333333333337</ele><time>2026-04-04T15:21:56Z</time></trkpt><trkpt lat="43.44443513434037" lon="12.634392435171414"><ele>397.66666666666663</ele><time>2026-04-04T15:21:57Z</time></trkpt><trkpt lat="43.44425889701944" lon="12.634396071736452"><ele>398.0</ele><time>2026-04-04T15:21:58Z</time></trkpt><trkpt lat="43.44408133273835" lon="12.634383106359214"><ele>398.0</ele><time>2026-04-04T15:21:59Z</time></trkpt><trkpt lat="43.44390658573555" lon="12.634349549498161"><ele>398.0</ele><time>2026-04-04T15:22:00Z</time></trkpt><trkpt lat="43.443733406214754" lon="12.634292566749407"><ele>398.0</ele><time>2026-04-04T15:22:01Z</time></trkpt><trkpt lat="43.44356301803246" lon="12.634214259311708"><ele>400.0</ele><time>2026-04-04T15:22:02Z</time></trkpt><trkpt lat="43.443401318516955" lon="12.634114800035475"><ele>402.0</ele><time>2026-04-04T15:22:03Z</time></trkpt><trkpt lat="43.44325396160644" lon="12.633993780456056"><ele>404.0</ele><time>2026-04-04T15:22:04Z</time></trkpt><trkpt lat="43.443125857793156" lon="12.633865936888922"><ele>404.0</ele><time>2026-04-04T15:22:05Z</time></trkpt><trkpt lat="43.44299926607093" lon="12.63372428320462"><ele>404.0</ele><time>2026-04-04T15:22:06Z</time></trkpt><trkpt lat="43.442890065779814" lon="12.633584221660271"><ele>404.0</ele><time>2026-04-04T15:22:07Z</time></trkpt><trkpt lat="43.44282167388339" lon="12.633437223029892"><ele>404.0</ele><time>2026-04-04T15:22:08.001Z</time></trkpt><trkpt lat="43.4427723024256" lon="12.63330664174133"><ele>405.79999999999995</ele><time>2026-04-04T15:22:09.001Z</time></trkpt><trkpt lat="43.44274146094651" lon="12.633195842741909"><ele>407.59999999999997</ele><time>2026-04-04T15:22:10.001Z</time></trkpt><trkpt lat="43.44272162526883" lon="12.633104614723825"><ele>409.4</ele><time>2026-04-04T15:22:11.001Z</time></trkpt><trkpt lat="43.44254836593106" lon="12.633040168401216"><ele>411.2</ele><time>2026-04-04T15:22:13.001Z</time></trkpt><trkpt lat="43.44247377018638" lon="12.633020101477163"><ele>413.0</ele><time>2026-04-04T15:22:14.001Z</time></trkpt><trkpt lat="43.44240456948807" lon="12.63295721007752"><ele>413.0</ele><time>2026-04-04T15:22:15.001Z</time></trkpt><trkpt lat="43.44234200237244" lon="12.632864079366355"><ele>413.0</ele><time>2026-04-04T15:22:16.001Z</time></trkpt><trkpt lat="43.442272394265274" lon="12.632769372994705"><ele>413.0</ele><time>2026-04-04T15:22:17.001Z</time></trkpt><trkpt lat="43.44221215218295" lon="12.632658809084777"><ele>413.0</ele><time>2026-04-04T15:22:18.001Z</time></trkpt><trkpt lat="43.44213086596012" lon="12.632586459617437"><ele>413.0</ele><time>2026-04-04T15:22:19.001Z</time></trkpt><trkpt lat="43.442063316404074" lon="12.632504908911079"><ele>412.85714285714283</ele><time>2026-04-04T15:22:20.001Z</time></trkpt><trkpt lat="43.44199339079282" lon="12.632440191397182"><ele>412.7142857142857</ele><time>2026-04-04T15:22:21.001Z</time></trkpt><trkpt lat="43.44192326745983" lon="12.632392491120608"><ele>412.57142857142856</ele><time>2026-04-04T15:22:22.001Z</time></trkpt><trkpt lat="43.44185513236287" lon="12.632353234988075"><ele>412.42857142857144</ele><time>2026-04-04T15:22:23.001Z</time></trkpt><trkpt lat="43.44178667122835" lon="12.632321713478195"><ele>412.2857142857143</ele><time>2026-04-04T15:22:24.001Z</time></trkpt><trkpt lat="43.441719316544976" lon="12.632294383573749"><ele>412.1428571428571</ele><time>2026-04-04T15:22:25.001Z</time></trkpt><trkpt lat="43.44165242857792" lon="12.632269573003786"><ele>412.0</ele><time>2026-04-04T15:22:26.001Z</time></trkpt><trkpt lat="43.44157961831973" lon="12.63225008746198"><ele>412.00000000000006</ele><time>2026-04-04T15:22:27.001Z</time></trkpt><trkpt lat="43.44150795996339" lon="12.63224031980787"><ele>412.0</ele><time>2026-04-04T15:22:28.001Z</time></trkpt><trkpt lat="43.441432099411095" lon="12.63223734195839"><ele>412.0</ele><time>2026-04-04T15:22:29.001Z</time></trkpt><trkpt lat="43.44135318481459" lon="12.632247835752228"><ele>412.0</ele><time>2026-04-04T15:22:30.001Z</time></trkpt><trkpt lat="43.44127659412309" lon="12.632263759750904"><ele>412.00000000000006</ele><time>2026-04-04T15:22:31.001Z</time></trkpt><trkpt lat="43.44119951321124" lon="12.632283803343672"><ele>412.0</ele><time>2026-04-04T15:22:32.001Z</time></trkpt><trkpt lat="43.44112551551015" lon="12.63231076650808"><ele>411.6666666666667</ele><time>2026-04-04T15:22:33.001Z</time></trkpt><trkpt lat="43.44104946563385" lon="12.632342509877045"><ele>411.33333333333337</ele><time>2026-04-04T15:22:34.001Z</time></trkpt><trkpt lat="43.44097233416091" lon="12.632381204800327"><ele>411.0</ele><time>2026-04-04T15:22:35.001Z</time></trkpt><trkpt lat="43.44088988536973" lon="12.632420353097054"><ele>410.66666666666663</ele><time>2026-04-04T15:22:36.001Z</time></trkpt><trkpt lat="43.44080707600557" lon="12.632463254653247"><ele>410.3333333333333</ele><time>2026-04-04T15:22:37.001Z</time></trkpt><trkpt lat="43.44072170739747" lon="12.632506125076475"><ele>410.0</ele><time>2026-04-04T15:22:38.001Z</time></trkpt><trkpt lat="43.44063476505514" lon="12.632544712054985"><ele>410.0</ele><time>2026-04-04T15:22:39.001Z</time></trkpt><trkpt lat="43.44054616715764" lon="12.632582155597996"><ele>410.0</ele><time>2026-04-04T15:22:40.001Z</time></trkpt><trkpt lat="43.440458653781135" lon="12.632632822730907"><ele>410.0</ele><time>2026-04-04T15:22:41.001Z</time></trkpt><trkpt lat="43.4403673135389" lon="12.632674231713262"><ele>410.0</ele><time>2026-04-04T15:22:42.001Z</time></trkpt><trkpt lat="43.440272068291144" lon="12.632712587251035"><ele>410.0</ele><time>2026-04-04T15:22:43.001Z</time></trkpt><trkpt lat="43.44018190541785" lon="12.63276626339177"><ele>413.4</ele><time>2026-04-04T15:22:44.001Z</time></trkpt><trkpt lat="43.440089062429344" lon="12.632809711457387"><ele>416.8</ele><time>2026-04-04T15:22:45.001Z</time></trkpt><trkpt lat="43.439991343530046" lon="12.632842290696281"><ele>420.20000000000005</ele><time>2026-04-04T15:22:46.001Z</time></trkpt><trkpt lat="43.43989568856887" lon="12.63289216596386"><ele>423.6</ele><time>2026-04-04T15:22:47.001Z</time></trkpt><trkpt lat="43.439797931142444" lon="12.632941240582914"><ele>427.0</ele><time>2026-04-04T15:22:48.001Z</time></trkpt><trkpt lat="43.439694502990065" lon="12.632982279335806"><ele>426.0</ele><time>2026-04-04T15:22:49.001Z</time></trkpt><trkpt lat="43.43958963888253" lon="12.633025222386877"><ele>425.00000000000006</ele><time>2026-04-04T15:22:50.001Z</time></trkpt><trkpt lat="43.43948241320886" lon="12.633061353989682"><ele>424.0</ele><time>2026-04-04T15:22:51.001Z</time></trkpt><trkpt lat="43.43937365565368" lon="12.633105409386559"><ele>423.0</ele><time>2026-04-04T15:22:52.001Z</time></trkpt><trkpt lat="43.439265192070216" lon="12.63316074933168"><ele>422.0</ele><time>2026-04-04T15:22:53.001Z</time></trkpt><trkpt lat="43.439154454552565" lon="12.633206469123898"><ele>422.0</ele><time>2026-04-04T15:22:54.001Z</time></trkpt><trkpt lat="43.439039438863986" lon="12.633235879434165"><ele>422.0</ele><time>2026-04-04T15:22:55.001Z</time></trkpt><trkpt lat="43.43892297365842" lon="12.633269679661426"><ele>422.0</ele><time>2026-04-04T15:22:56.001Z</time></trkpt><trkpt lat="43.43880379375297" lon="12.633304782086007"><ele>422.0</ele><time>2026-04-04T15:22:57.001Z</time></trkpt><trkpt lat="43.43868148154306" lon="12.633328781317434"><ele>420.5</ele><time>2026-04-04T15:22:58.001Z</time></trkpt><trkpt lat="43.43855706010792" lon="12.633348651830069"><ele>419.0</ele><time>2026-04-04T15:22:59.001Z</time></trkpt><trkpt lat="43.43843181891672" lon="12.633371773800878"><ele>417.5</ele><time>2026-04-04T15:23:00.001Z</time></trkpt><trkpt lat="43.43830196969076" lon="12.63339646091358"><ele>416.0</ele><time>2026-04-04T15:23:01.001Z</time></trkpt><trkpt lat="43.43816694897645" lon="12.633420412270516"><ele>416.0</ele><time>2026-04-04T15:23:02.001Z</time></trkpt><trkpt lat="43.43802843874879" lon="12.633443771175084"><ele>416.0</ele><time>2026-04-04T15:23:03.001Z</time></trkpt><trkpt lat="43.43788496448899" lon="12.633466076081316"><ele>416.0</ele><time>2026-04-04T15:23:04.001Z</time></trkpt><trkpt lat="43.4377385411269" lon="12.633498165628136"><ele>416.0</ele><time>2026-04-04T15:23:05.001Z</time></trkpt><trkpt lat="43.43758940726916" lon="12.633541404489945"><ele>415.66666666666663</ele><time>2026-04-04T15:23:06.001Z</time></trkpt><trkpt lat="43.43744297007236" lon="12.633605694144823"><ele>415.33333333333337</ele><time>2026-04-04T15:23:07.001Z</time></trkpt><trkpt lat="43.43729833989054" lon="12.633688828349204"><ele>415.0</ele><time>2026-04-04T15:23:08.001Z</time></trkpt><trkpt lat="43.43715500945049" lon="12.633788471840113"><ele>419.0</ele><time>2026-04-04T15:23:09.001Z</time></trkpt><trkpt lat="43.43701642952686" lon="12.633905158082692"><ele>423.0</ele><time>2026-04-04T15:23:10.001Z</time></trkpt><trkpt lat="43.436881192230175" lon="12.634039077442882"><ele>427.0</ele><time>2026-04-04T15:23:11.001Z</time></trkpt><trkpt lat="43.436749294654476" lon="12.634183764055683"><ele>427.0</ele><time>2026-04-04T15:23:12.001Z</time></trkpt><trkpt lat="43.436619162267476" lon="12.634333753633229"><ele>427.0</ele><time>2026-04-04T15:23:13.001Z</time></trkpt><trkpt lat="43.436486538165546" lon="12.63449045708735"><ele>427.0</ele><time>2026-04-04T15:23:14.001Z</time></trkpt><trkpt lat="43.43635062545975" lon="12.634648518890664"><ele>426.33333333333337</ele><time>2026-04-04T15:23:15.001Z</time></trkpt><trkpt lat="43.43621221558485" lon="12.634802396678113"><ele>425.66666666666663</ele><time>2026-04-04T15:23:16.001Z</time></trkpt><trkpt lat="43.43606345169013" lon="12.63494488422703"><ele>425.0</ele><time>2026-04-04T15:23:17.002Z</time></trkpt><trkpt lat="43.43591264605445" lon="12.635087814208585"><ele>425.0</ele><time>2026-04-04T15:23:18.002Z</time></trkpt><trkpt lat="43.43577029332665" lon="12.635249003701349"><ele>425.0</ele><time>2026-04-04T15:23:19.002Z</time></trkpt><trkpt lat="43.4356380746186" lon="12.63542066181601"><ele>425.0</ele><time>2026-04-04T15:23:20.002Z</time></trkpt><trkpt lat="43.43550380223193" lon="12.6355935685899"><ele>425.0</ele><time>2026-04-04T15:23:21.002Z</time></trkpt><trkpt lat="43.435363531382556" lon="12.635758439559476"><ele>425.0</ele><time>2026-04-04T15:23:22.002Z</time></trkpt><trkpt lat="43.43522466752186" lon="12.635918306269849"><ele>425.0</ele><time>2026-04-04T15:23:23.002Z</time></trkpt><trkpt lat="43.43509369514891" lon="12.636071484032135"><ele>427.25</ele><time>2026-04-04T15:23:24.002Z</time></trkpt><trkpt lat="43.43497198100613" lon="12.636215959429595"><ele>429.5</ele><time>2026-04-04T15:23:25.002Z</time></trkpt><trkpt lat="43.434874748735965" lon="12.636374515067638"><ele>431.75</ele><time>2026-04-04T15:23:26.002Z</time></trkpt><trkpt lat="43.434808268524044" lon="12.636537418667565"><ele>434.0</ele><time>2026-04-04T15:23:27.002Z</time></trkpt><trkpt lat="43.43475218853078" lon="12.636680408467987"><ele>434.0</ele><time>2026-04-04T15:23:28.002Z</time></trkpt><trkpt lat="43.43471386285256" lon="12.636799221510572"><ele>434.0</ele><time>2026-04-04T15:23:28.999Z</time></trkpt><trkpt lat="43.434728317862664" lon="12.636918901441332"><ele>434.0</ele><time>2026-04-04T15:23:29.999Z</time></trkpt><trkpt lat="43.43479045892604" lon="12.637024319581442"><ele>434.0</ele><time>2026-04-04T15:23:30.999Z</time></trkpt><trkpt lat="43.43488963563888" lon="12.63710033178855"><ele>434.0</ele><time>2026-04-04T15:23:31.999Z</time></trkpt><trkpt lat="43.43499827390066" lon="12.6371763957011"><ele>438.25</ele><time>2026-04-04T15:23:32.999Z</time></trkpt><trkpt lat="43.43510539619339" lon="12.63728089399328"><ele>442.5</ele><time>2026-04-04T15:23:33.999Z</time></trkpt><trkpt lat="43.43518441160973" lon="12.637406938398833"><ele>446.75</ele><time>2026-04-04T15:23:34.999Z</time></trkpt><trkpt lat="43.43522595512581" lon="12.637573742038878"><ele>451.0</ele><time>2026-04-04T15:23:35.999Z</time></trkpt><trkpt lat="43.435260030566866" lon="12.63776611459867"><ele>452.5</ele><time>2026-04-04T15:23:36.999Z</time></trkpt><trkpt lat="43.43530415393535" lon="12.637962826482338"><ele>454.0</ele><time>2026-04-04T15:23:37.999Z</time></trkpt><trkpt lat="43.43534399188107" lon="12.638142501210694"><ele>455.5</ele><time>2026-04-04T15:23:38.999Z</time></trkpt><trkpt lat="43.43536171437386" lon="12.638297824000553"><ele>457.0</ele><time>2026-04-04T15:23:39.999Z</time></trkpt><trkpt lat="43.43533343797699" lon="12.638446665881366"><ele>457.0</ele><time>2026-04-04T15:23:40.999Z</time></trkpt><trkpt lat="43.43525801253946" lon="12.638557891762627"><ele>457.0</ele><time>2026-04-04T15:23:41.999Z</time></trkpt><trkpt lat="43.435156782403965" lon="12.63861683366151"><ele>457.0</ele><time>2026-04-04T15:23:42.999Z</time></trkpt><trkpt lat="43.43502532706473" lon="12.638673795602603"><ele>457.0</ele><time>2026-04-04T15:23:43.999Z</time></trkpt><trkpt lat="43.43491078311717" lon="12.638791964673254"><ele>453.0</ele><time>2026-04-04T15:23:45Z</time></trkpt><trkpt lat="43.434818066781844" lon="12.638970825515218"><ele>449.0</ele><time>2026-04-04T15:23:46Z</time></trkpt><trkpt lat="43.43472936697444" lon="12.639167660979318"><ele>445.0</ele><time>2026-04-04T15:23:47Z</time></trkpt><trkpt lat="43.43462409207169" lon="12.639352987588584"><ele>447.33333333333337</ele><time>2026-04-04T15:23:48Z</time></trkpt><trkpt lat="43.43449893333182" lon="12.639500192415422"><ele>449.66666666666663</ele><time>2026-04-04T15:23:49Z</time></trkpt><trkpt lat="43.43437325662902" lon="12.63963884857646"><ele>452.0</ele><time>2026-04-04T15:23:50Z</time></trkpt><trkpt lat="43.43426767810545" lon="12.63978710803891"><ele>452.0</ele><time>2026-04-04T15:23:51Z</time></trkpt><trkpt lat="43.43416127094265" lon="12.639909761465054"><ele>452.0</ele><time>2026-04-04T15:23:52Z</time></trkpt><trkpt lat="43.43403375863502" lon="12.639981530251626"><ele>452.0</ele><time>2026-04-04T15:23:53Z</time></trkpt><trkpt lat="43.43389515008663" lon="12.639986503493473"><ele>452.0</ele><time>2026-04-04T15:23:54Z</time></trkpt><trkpt lat="43.43375564866671" lon="12.639908427626153"><ele>453.66666666666663</ele><time>2026-04-04T15:23:55Z</time></trkpt><trkpt lat="43.43360999322578" lon="12.639872739763607"><ele>455.33333333333337</ele><time>2026-04-04T15:23:56Z</time></trkpt><trkpt lat="43.43345456068928" lon="12.639888394056246"><ele>457.0</ele><time>2026-04-04T15:23:57Z</time></trkpt><trkpt lat="43.433322107922585" lon="12.639997799885627"><ele>457.0</ele><time>2026-04-04T15:23:58Z</time></trkpt><trkpt lat="43.43319306201177" lon="12.640129066028855"><ele>457.0</ele><time>2026-04-04T15:23:59Z</time></trkpt><trkpt lat="43.43308686750926" lon="12.640298002858708"><ele>457.0</ele><time>2026-04-04T15:24:00Z</time></trkpt><trkpt lat="43.43298549260639" lon="12.640444179268695"><ele>457.75</ele><time>2026-04-04T15:24:01Z</time></trkpt><trkpt lat="43.432878070908366" lon="12.64053260107325"><ele>458.5</ele><time>2026-04-04T15:24:02Z</time></trkpt><trkpt lat="43.4327490681758" lon="12.640556998858392"><ele>459.25</ele><time>2026-04-04T15:24:03Z</time></trkpt><trkpt lat="43.4326115733583" lon="12.640542157817945"><ele>460.0</ele><time>2026-04-04T15:24:04Z</time></trkpt><trkpt lat="43.43246537431376" lon="12.640528048614012"><ele>460.0</ele><time>2026-04-04T15:24:05Z</time></trkpt><trkpt lat="43.43231110776912" lon="12.640506271104096"><ele>460.0</ele><time>2026-04-04T15:24:06Z</time></trkpt><trkpt lat="43.432161199577656" lon="12.640487938228452"><ele>460.0</ele><time>2026-04-04T15:24:07Z</time></trkpt><trkpt lat="43.4320119004496" lon="12.640447378910622"><ele>457.6666666666667</ele><time>2026-04-04T15:24:08Z</time></trkpt><trkpt lat="43.431881181484194" lon="12.640341192270974"><ele>455.33333333333337</ele><time>2026-04-04T15:24:09Z</time></trkpt><trkpt lat="43.43177088599974" lon="12.64019238969376"><ele>453.0</ele><time>2026-04-04T15:24:10Z</time></trkpt><trkpt lat="43.4316511225455" lon="12.640039913651027"><ele>452.66666666666663</ele><time>2026-04-04T15:24:11Z</time></trkpt><trkpt lat="43.431508626188766" lon="12.639921501499995"><ele>452.3333333333333</ele><time>2026-04-04T15:24:12Z</time></trkpt><trkpt lat="43.43135262793209" lon="12.639826607581485"><ele>452.0</ele><time>2026-04-04T15:24:13Z</time></trkpt><trkpt lat="43.43118593660235" lon="12.63975840852934"><ele>450.3333333333333</ele><time>2026-04-04T15:24:14Z</time></trkpt><trkpt lat="43.431015956477154" lon="12.639705053569227"><ele>448.66666666666663</ele><time>2026-04-04T15:24:15Z</time></trkpt><trkpt lat="43.43084475658938" lon="12.639653332560536"><ele>447.0</ele><time>2026-04-04T15:24:16Z</time></trkpt><trkpt lat="43.43067643211668" lon="12.639616792247"><ele>447.0</ele><time>2026-04-04T15:24:17Z</time></trkpt><trkpt lat="43.430504304599665" lon="12.639615358430673"><ele>447.0</ele><time>2026-04-04T15:24:18Z</time></trkpt><trkpt lat="43.43032944905692" lon="12.639649161779479"><ele>447.0</ele><time>2026-04-04T15:24:19Z</time></trkpt><trkpt lat="43.43015341064134" lon="12.639729655076028"><ele>447.33333333333337</ele><time>2026-04-04T15:24:20Z</time></trkpt><trkpt lat="43.429979945484966" lon="12.639837925422256"><ele>447.6666666666667</ele><time>2026-04-04T15:24:21Z</time></trkpt><trkpt lat="43.4298064665731" lon="12.639944329138961"><ele>448.0</ele><time>2026-04-04T15:24:22Z</time></trkpt><trkpt lat="43.429628813513794" lon="12.640050527434806"><ele>447.33333333333337</ele><time>2026-04-04T15:24:23Z</time></trkpt><trkpt lat="43.429450354764064" lon="12.640158305653982"><ele>446.66666666666663</ele><time>2026-04-04T15:24:24Z</time></trkpt><trkpt lat="43.4292717713685" lon="12.640261671326282"><ele>446.0</ele><time>2026-04-04T15:24:25Z</time></trkpt><trkpt lat="43.42908985005168" lon="12.64036466982561"><ele>446.0</ele><time>2026-04-04T15:24:26Z</time></trkpt><trkpt lat="43.42890740661529" lon="12.640466825743584"><ele>446.0</ele><time>2026-04-04T15:24:27Z</time></trkpt><trkpt lat="43.428727533842185" lon="12.6405722546283"><ele>446.0</ele><time>2026-04-04T15:24:28Z</time></trkpt><trkpt lat="43.4285491609773" lon="12.640682271069865"><ele>447.3333333333333</ele><time>2026-04-04T15:24:29.001Z</time></trkpt><trkpt lat="43.42837282021385" lon="12.640794359295803"><ele>448.66666666666663</ele><time>2026-04-04T15:24:30.001Z</time></trkpt><trkpt lat="43.428198005193266" lon="12.640909084296412"><ele>450.0</ele><time>2026-04-04T15:24:31.001Z</time></trkpt><trkpt lat="43.42802185679286" lon="12.641036212350858"><ele>450.0</ele><time>2026-04-04T15:24:32.001Z</time></trkpt><trkpt lat="43.42784937084377" lon="12.641170375135383"><ele>450.0</ele><time>2026-04-04T15:24:33.001Z</time></trkpt><trkpt lat="43.42767697662292" lon="12.641301552150916"><ele>450.0</ele><time>2026-04-04T15:24:34.001Z</time></trkpt><trkpt lat="43.42750310076745" lon="12.641423796256936"><ele>450.0</ele><time>2026-04-04T15:24:35.001Z</time></trkpt><trkpt lat="43.42733813278561" lon="12.641549008012676"><ele>450.0</ele><time>2026-04-04T15:24:36.001Z</time></trkpt><trkpt lat="43.42718966188256" lon="12.64170403640145"><ele>450.0</ele><time>2026-04-04T15:24:37.001Z</time></trkpt><trkpt lat="43.427055623849846" lon="12.641872443648658"><ele>454.66666666666663</ele><time>2026-04-04T15:24:38.001Z</time></trkpt><trkpt lat="43.42694523316837" lon="12.642040338366916"><ele>459.3333333333333</ele><time>2026-04-04T15:24:39.001Z</time></trkpt><trkpt lat="43.42687436404585" lon="12.642241620225562"><ele>464.0</ele><time>2026-04-04T15:24:40.001Z</time></trkpt><trkpt lat="43.42683139290567" lon="12.642473457551857"><ele>464.0</ele><time>2026-04-04T15:24:41.001Z</time></trkpt><trkpt lat="43.42680028799761" lon="12.64271153252332"><ele>464.0</ele><time>2026-04-04T15:24:42.001Z</time></trkpt><trkpt lat="43.42677559636229" lon="12.642944444916992"><ele>464.0</ele><time>2026-04-04T15:24:43.001Z</time></trkpt><trkpt lat="43.426759547946844" lon="12.643167735417128"><ele>463.66666666666663</ele><time>2026-04-04T15:24:44.001Z</time></trkpt><trkpt lat="43.42676035781364" lon="12.643390936750636"><ele>463.33333333333337</ele><time>2026-04-04T15:24:45.001Z</time></trkpt><trkpt lat="43.42679541612702" lon="12.64361657195986"><ele>463.0</ele><time>2026-04-04T15:24:46.001Z</time></trkpt><trkpt lat="43.426866587742445" lon="12.643834039500561"><ele>464.6666666666667</ele><time>2026-04-04T15:24:47.001Z</time></trkpt><trkpt lat="43.42694861456262" lon="12.644037916519759"><ele>466.33333333333337</ele><time>2026-04-04T15:24:48.001Z</time></trkpt><trkpt lat="43.42701873648085" lon="12.644224113905054"><ele>468.0</ele><time>2026-04-04T15:24:49.001Z</time></trkpt><trkpt lat="43.42707138345525" lon="12.644400679990428"><ele>468.5</ele><time>2026-04-04T15:24:50.001Z</time></trkpt><trkpt lat="43.42707554477612" lon="12.64456390139567"><ele>469.0</ele><time>2026-04-04T15:24:51.001Z</time></trkpt><trkpt lat="43.42702331327348" lon="12.644701725090574"><ele>469.5</ele><time>2026-04-04T15:24:52.001Z</time></trkpt><trkpt lat="43.42692967685484" lon="12.644808889465828"><ele>470.0</ele><time>2026-04-04T15:24:53.001Z</time></trkpt><trkpt lat="43.42680309503019" lon="12.644885823001212"><ele>470.0</ele><time>2026-04-04T15:24:54.001Z</time></trkpt><trkpt lat="43.426667551087846" lon="12.644942274019025"><ele>470.0</ele><time>2026-04-04T15:24:55.001Z</time></trkpt><trkpt lat="43.42650951495822" lon="12.644978058117454"><ele>470.0</ele><time>2026-04-04T15:24:56.001Z</time></trkpt><trkpt lat="43.42634302640853" lon="12.645003964567248"><ele>470.3333333333333</ele><time>2026-04-04T15:24:57.001Z</time></trkpt><trkpt lat="43.426168073508705" lon="12.645029104553902"><ele>470.66666666666663</ele><time>2026-04-04T15:24:58.001Z</time></trkpt><trkpt lat="43.425990887462035" lon="12.645053309336637"><ele>471.0</ele><time>2026-04-04T15:24:59.001Z</time></trkpt><trkpt lat="43.425813046927324" lon="12.645078588287408"><ele>471.0</ele><time>2026-04-04T15:25:00.001Z</time></trkpt><trkpt lat="43.42564557846078" lon="12.645099489206675"><ele>471.0</ele><time>2026-04-04T15:25:01.001Z</time></trkpt><trkpt lat="43.425497153637394" lon="12.645111505672554"><ele>471.0</ele><time>2026-04-04T15:25:02.001Z</time></trkpt><trkpt lat="43.425372283020444" lon="12.645149832637262"><ele>471.0</ele><time>2026-04-04T15:25:03.001Z</time></trkpt><trkpt lat="43.425267024834" lon="12.645243181937717"><ele>470.0</ele><time>2026-04-04T15:25:04.001Z</time></trkpt><trkpt lat="43.42520297406159" lon="12.64538408503712"><ele>469.0</ele><time>2026-04-04T15:25:05.001Z</time></trkpt><trkpt lat="43.42519261734005" lon="12.645548232293166"><ele>468.0</ele><time>2026-04-04T15:25:06.001Z</time></trkpt><trkpt lat="43.425223061491735" lon="12.645718634059627"><ele>467.0</ele><time>2026-04-04T15:25:07.001Z</time></trkpt><trkpt lat="43.425251692051674" lon="12.645898621977404"><ele>467.0</ele><time>2026-04-04T15:25:08.001Z</time></trkpt><trkpt lat="43.42526656217853" lon="12.646076461736872"><ele>467.0</ele><time>2026-04-04T15:25:09.001Z</time></trkpt><trkpt lat="43.42529483724946" lon="12.646226885840576"><ele>467.0</ele><time>2026-04-04T15:25:10.001Z</time></trkpt><trkpt lat="43.42536770266454" lon="12.646341585448772"><ele>467.0</ele><time>2026-04-04T15:25:11.001Z</time></trkpt><trkpt lat="43.425477702020714" lon="12.646402105953106"><ele>468.75</ele><time>2026-04-04T15:25:12.001Z</time></trkpt><trkpt lat="43.425605784248404" lon="12.646390650872796"><ele>470.5</ele><time>2026-04-04T15:25:13.001Z</time></trkpt><trkpt lat="43.42573034670885" lon="12.646309326522648"><ele>472.25</ele><time>2026-04-04T15:25:14.001Z</time></trkpt><trkpt lat="43.42586111871263" lon="12.646194990927079"><ele>474.0</ele><time>2026-04-04T15:25:15.001Z</time></trkpt><trkpt lat="43.42600412968235" lon="12.646067265430721"><ele>474.0</ele><time>2026-04-04T15:25:16.001Z</time></trkpt><trkpt lat="43.426142395688174" lon="12.645936533941825"><ele>474.0</ele><time>2026-04-04T15:25:17.001Z</time></trkpt><trkpt lat="43.42628845375232" lon="12.645836060842363"><ele>474.0</ele><time>2026-04-04T15:25:18.001Z</time></trkpt><trkpt lat="43.426457575223246" lon="12.64578316487181"><ele>478.33333333333337</ele><time>2026-04-04T15:25:19.001Z</time></trkpt><trkpt lat="43.42663211390218" lon="12.645758808678856"><ele>482.6666666666667</ele><time>2026-04-04T15:25:20.001Z</time></trkpt><trkpt lat="43.42679815343984" lon="12.645685380404053"><ele>487.0</ele><time>2026-04-04T15:25:21.001Z</time></trkpt><trkpt lat="43.42696267211087" lon="12.64554826238316"><ele>487.0</ele><time>2026-04-04T15:25:22.001Z</time></trkpt><trkpt lat="43.42713194711976" lon="12.64543551180724"><ele>487.0</ele><time>2026-04-04T15:25:23.001Z</time></trkpt><trkpt lat="43.42730482561531" lon="12.645367678921088"><ele>487.0</ele><time>2026-04-04T15:25:24.001Z</time></trkpt><trkpt lat="43.42746033788333" lon="12.645268597093898"><ele>485.6666666666667</ele><time>2026-04-04T15:25:25.001Z</time></trkpt><trkpt lat="43.42758490514658" lon="12.645100136724125"><ele>484.33333333333337</ele><time>2026-04-04T15:25:26.001Z</time></trkpt><trkpt lat="43.4276769431706" lon="12.644896580722584"><ele>483.0</ele><time>2026-04-04T15:25:27.001Z</time></trkpt><trkpt lat="43.42775583277428" lon="12.64468003612823"><ele>483.0</ele><time>2026-04-04T15:25:28.002Z</time></trkpt><trkpt lat="43.42783070746165" lon="12.644489425236095"><ele>483.0</ele><time>2026-04-04T15:25:29.002Z</time></trkpt><trkpt lat="43.42789739087753" lon="12.644333559190569"><ele>483.0</ele><time>2026-04-04T15:25:30.002Z</time></trkpt><trkpt lat="43.42795887685995" lon="12.644212690313255"><ele>483.0</ele><time>2026-04-04T15:25:31.002Z</time></trkpt><trkpt lat="43.4280266949512" lon="12.644135695842918"><ele>483.0</ele><time>2026-04-04T15:25:32.002Z</time></trkpt><trkpt lat="43.42809991295766" lon="12.644146598831986"><ele>483.0</ele><time>2026-04-04T15:25:33.002Z</time></trkpt><trkpt lat="43.42817025332445" lon="12.644196297719676"><ele>483.0</ele><time>2026-04-04T15:25:34.002Z</time></trkpt><trkpt lat="43.42820728313235" lon="12.644304389434476"><ele>483.0</ele><time>2026-04-04T15:25:34.999Z</time></trkpt><trkpt lat="43.4281831535345" lon="12.644418566686884"><ele>483.0</ele><time>2026-04-04T15:25:35.999Z</time></trkpt><trkpt lat="43.42811470541232" lon="12.644506697004056"><ele>483.0</ele><time>2026-04-04T15:25:37Z</time></trkpt><trkpt lat="43.428018445485854" lon="12.644590516608663"><ele>483.0</ele><time>2026-04-04T15:25:38Z</time></trkpt><trkpt lat="43.427913878660725" lon="12.644711479426952"><ele>483.0</ele><time>2026-04-04T15:25:39Z</time></trkpt><trkpt lat="43.427811080457246" lon="12.64487389433225"><ele>483.0</ele><time>2026-04-04T15:25:40Z</time></trkpt><trkpt lat="43.42770829578063" lon="12.64505498141702"><ele>483.0</ele><time>2026-04-04T15:25:41Z</time></trkpt><trkpt lat="43.42761224532357" lon="12.645243858836912"><ele>483.0</ele><time>2026-04-04T15:25:42Z</time></trkpt><trkpt lat="43.42749979013955" lon="12.645413270180237"><ele>483.0</ele><time>2026-04-04T15:25:43Z</time></trkpt><trkpt lat="43.427351542340425" lon="12.645539243813648"><ele>484.33333333333337</ele><time>2026-04-04T15:25:44Z</time></trkpt><trkpt lat="43.4271934829367" lon="12.645641075711822"><ele>485.6666666666667</ele><time>2026-04-04T15:25:45Z</time></trkpt><trkpt lat="43.42706527748641" lon="12.645778857990317"><ele>487.0</ele><time>2026-04-04T15:25:46Z</time></trkpt><trkpt lat="43.426961880720654" lon="12.645955064140713"><ele>487.0</ele><time>2026-04-04T15:25:47Z</time></trkpt><trkpt lat="43.42683408308101" lon="12.646092782065423"><ele>487.0</ele><time>2026-04-04T15:25:48Z</time></trkpt><trkpt lat="43.426678332990214" lon="12.646151341455525"><ele>487.0</ele><time>2026-04-04T15:25:49Z</time></trkpt><trkpt lat="43.42651848010438" lon="12.646129674331606"><ele>490.33333333333337</ele><time>2026-04-04T15:25:50Z</time></trkpt><trkpt lat="43.42637227251243" lon="12.646158533957484"><ele>493.66666666666663</ele><time>2026-04-04T15:25:51Z</time></trkpt><trkpt lat="43.426244488188665" lon="12.646277502226067"><ele>497.0</ele><time>2026-04-04T15:25:52Z</time></trkpt><trkpt lat="43.42612114163225" lon="12.64644339346983"><ele>497.0</ele><time>2026-04-04T15:25:53Z</time></trkpt><trkpt lat="43.425983838012144" lon="12.646608172602843"><ele>497.0</ele><time>2026-04-04T15:25:54Z</time></trkpt><trkpt lat="43.42585026258062" lon="12.646782093197292"><ele>497.0</ele><time>2026-04-04T15:25:55Z</time></trkpt><trkpt lat="43.4256983568333" lon="12.646930584773068"><ele>505.3333333333333</ele><time>2026-04-04T15:25:56Z</time></trkpt><trkpt lat="43.425527740951914" lon="12.647045776149334"><ele>513.6666666666666</ele><time>2026-04-04T15:25:57Z</time></trkpt><trkpt lat="43.42535300083983" lon="12.647146551057093"><ele>522.0</ele><time>2026-04-04T15:25:58Z</time></trkpt><trkpt lat="43.42518262049044" lon="12.647237774659512"><ele>522.0</ele><time>2026-04-04T15:25:59Z</time></trkpt><trkpt lat="43.42501507186269" lon="12.647297183617265"><ele>522.0</ele><time>2026-04-04T15:26:00Z</time></trkpt><trkpt lat="43.42484830162508" lon="12.647316232015246"><ele>522.0</ele><time>2026-04-04T15:26:01Z</time></trkpt><trkpt lat="43.424676681134116" lon="12.64729488816338"><ele>521.3333333333334</ele><time>2026-04-04T15:26:02Z</time></trkpt><trkpt lat="43.42451067810226" lon="12.647258018787632"><ele>520.6666666666667</ele><time>2026-04-04T15:26:03Z</time></trkpt><trkpt lat="43.42435296887001" lon="12.64722743319014"><ele>520.0</ele><time>2026-04-04T15:26:04Z</time></trkpt><trkpt lat="43.42420710602206" lon="12.647198522472184"><ele>520.0</ele><time>2026-04-04T15:26:05Z</time></trkpt><trkpt lat="43.42406214231151" lon="12.647216632904776"><ele>520.0</ele><time>2026-04-04T15:26:06Z</time></trkpt><trkpt lat="43.42393127301941" lon="12.647299027970314"><ele>520.0</ele><time>2026-04-04T15:26:07Z</time></trkpt><trkpt lat="43.42380917409643" lon="12.647433508992815"><ele>520.0</ele><time>2026-04-04T15:26:08Z</time></trkpt><trkpt lat="43.423688510454404" lon="12.647569099695081"><ele>522.5</ele><time>2026-04-04T15:26:09Z</time></trkpt><trkpt lat="43.4235752713539" lon="12.64770758368333"><ele>525.0</ele><time>2026-04-04T15:26:10Z</time></trkpt><trkpt lat="43.42346451486131" lon="12.647835288727652"><ele>527.5</ele><time>2026-04-04T15:26:11Z</time></trkpt><trkpt lat="43.42335578164877" lon="12.647955549648287"><ele>530.0</ele><time>2026-04-04T15:26:12Z</time></trkpt><trkpt lat="43.423256383433895" lon="12.64807634965739"><ele>530.0</ele><time>2026-04-04T15:26:13Z</time></trkpt><trkpt lat="43.423166185717314" lon="12.648211050346063"><ele>530.0</ele><time>2026-04-04T15:26:14Z</time></trkpt><trkpt lat="43.42308597729026" lon="12.648334254972998"><ele>530.0</ele><time>2026-04-04T15:26:15Z</time></trkpt><trkpt lat="43.423025804717454" lon="12.648483436543163"><ele>530.0</ele><time>2026-04-04T15:26:16Z</time></trkpt><trkpt lat="43.4229641732236" lon="12.648626285079931"><ele>528.0</ele><time>2026-04-04T15:26:17Z</time></trkpt><trkpt lat="43.42289924993046" lon="12.648780151018407"><ele>526.0</ele><time>2026-04-04T15:26:18Z</time></trkpt><trkpt lat="43.42283393252957" lon="12.648939648990822"><ele>524.0</ele><time>2026-04-04T15:26:19Z</time></trkpt><trkpt lat="43.422767301066045" lon="12.649108194285875"><ele>522.0</ele><time>2026-04-04T15:26:20Z</time></trkpt><trkpt lat="43.422699333382305" lon="12.649278160740785"><ele>522.0</ele><time>2026-04-04T15:26:21Z</time></trkpt><trkpt lat="43.42262616536797" lon="12.649442951155764"><ele>522.0</ele><time>2026-04-04T15:26:22Z</time></trkpt><trkpt lat="43.422549656328336" lon="12.649606493269285"><ele>522.0</ele><time>2026-04-04T15:26:23Z</time></trkpt><trkpt lat="43.422468557377634" lon="12.649764268501126"><ele>522.0</ele><time>2026-04-04T15:26:24Z</time></trkpt><trkpt lat="43.42236159943472" lon="12.649899271635501"><ele>522.0</ele><time>2026-04-04T15:26:25Z</time></trkpt><trkpt lat="43.42223560321276" lon="12.650010852703952"><ele>522.0</ele><time>2026-04-04T15:26:26Z</time></trkpt><trkpt lat="43.42209711876633" lon="12.650108123714"><ele>522.0</ele><time>2026-04-04T15:26:27Z</time></trkpt><trkpt lat="43.421955026037644" lon="12.650213938396716"><ele>531.0</ele><time>2026-04-04T15:26:28Z</time></trkpt><trkpt lat="43.42180974378263" lon="12.650328262011842"><ele>540.0</ele><time>2026-04-04T15:26:29.001Z</time></trkpt><trkpt lat="43.421662850880125" lon="12.650451173243596"><ele>549.0</ele><time>2026-04-04T15:26:30.001Z</time></trkpt><trkpt lat="43.42151212542795" lon="12.650575618236774"><ele>549.0</ele><time>2026-04-04T15:26:31.001Z</time></trkpt><trkpt lat="43.421356751731615" lon="12.650697318723957"><ele>549.0</ele><time>2026-04-04T15:26:32.001Z</time></trkpt><trkpt lat="43.421204138610136" lon="12.650820698666081"><ele>549.0</ele><time>2026-04-04T15:26:33.001Z</time></trkpt><trkpt lat="43.42106259652715" lon="12.650943716677496"><ele>550.0</ele><time>2026-04-04T15:26:34.001Z</time></trkpt><trkpt lat="43.42093583532672" lon="12.651090534581519"><ele>551.0</ele><time>2026-04-04T15:26:35.001Z</time></trkpt><trkpt lat="43.42081375819064" lon="12.6512540972632"><ele>552.0</ele><time>2026-04-04T15:26:36.001Z</time></trkpt><trkpt lat="43.42070414503309" lon="12.6514316337965"><ele>552.0</ele><time>2026-04-04T15:26:37.001Z</time></trkpt><trkpt lat="43.42057791208018" lon="12.651588443163352"><ele>552.0</ele><time>2026-04-04T15:26:38.001Z</time></trkpt><trkpt lat="43.42043779101128" lon="12.651722735643437"><ele>552.0</ele><time>2026-04-04T15:26:39.001Z</time></trkpt><trkpt lat="43.420277394314425" lon="12.65184088327483"><ele>554.0</ele><time>2026-04-04T15:26:40.001Z</time></trkpt><trkpt lat="43.420112544460814" lon="12.651950195408439"><ele>556.0</ele><time>2026-04-04T15:26:41.001Z</time></trkpt><trkpt lat="43.41994790209328" lon="12.652066316228929"><ele>558.0</ele><time>2026-04-04T15:26:42.001Z</time></trkpt><trkpt lat="43.419782205063825" lon="12.652188519879093"><ele>549.0</ele><time>2026-04-04T15:26:43.001Z</time></trkpt><trkpt lat="43.419624079327484" lon="12.652331563108847"><ele>540.0</ele><time>2026-04-04T15:26:44.001Z</time></trkpt><trkpt lat="43.41948083005783" lon="12.652496866599222"><ele>531.0</ele><time>2026-04-04T15:26:45.001Z</time></trkpt><trkpt lat="43.41934601188905" lon="12.65268284799128"><ele>539.3333333333334</ele><time>2026-04-04T15:26:46.001Z</time></trkpt><trkpt lat="43.419216334531995" lon="12.652872308614288"><ele>547.6666666666667</ele><time>2026-04-04T15:26:47.001Z</time></trkpt><trkpt lat="43.41909559503264" lon="12.653073579480841"><ele>556.0</ele><time>2026-04-04T15:26:48.001Z</time></trkpt><trkpt lat="43.41899303768972" lon="12.653294558503646"><ele>556.0</ele><time>2026-04-04T15:26:49.001Z</time></trkpt><trkpt lat="43.41887317739924" lon="12.653492815663329"><ele>556.0</ele><time>2026-04-04T15:26:50.001Z</time></trkpt><trkpt lat="43.41873635144384" lon="12.653671571787172"><ele>556.0</ele><time>2026-04-04T15:26:51.001Z</time></trkpt><trkpt lat="43.4185985321693" lon="12.653828882237395"><ele>554.3333333333334</ele><time>2026-04-04T15:26:52.001Z</time></trkpt><trkpt lat="43.41847116366604" lon="12.653962762164939"><ele>552.6666666666666</ele><time>2026-04-04T15:26:53.001Z</time></trkpt><trkpt lat="43.41836085708706" lon="12.654105836322232"><ele>551.0</ele><time>2026-04-04T15:26:54.001Z</time></trkpt><trkpt lat="43.41828506114767" lon="12.654294324684795"><ele>557.0</ele><time>2026-04-04T15:26:55.001Z</time></trkpt><trkpt lat="43.41824506803752" lon="12.654525863313989"><ele>563.0</ele><time>2026-04-04T15:26:56.001Z</time></trkpt><trkpt lat="43.418200929035244" lon="12.654770681504692"><ele>569.0</ele><time>2026-04-04T15:26:57.001Z</time></trkpt><trkpt lat="43.418118900358515" lon="12.654996168157982"><ele>569.0</ele><time>2026-04-04T15:26:58.001Z</time></trkpt><trkpt lat="43.41800526475576" lon="12.65519212398236"><ele>569.0</ele><time>2026-04-04T15:26:59.001Z</time></trkpt><trkpt lat="43.41787309936262" lon="12.655352870251706"><ele>569.0</ele><time>2026-04-04T15:27:00.001Z</time></trkpt><trkpt lat="43.417729967132146" lon="12.65548612995219"><ele>566.3333333333333</ele><time>2026-04-04T15:27:01.001Z</time></trkpt><trkpt lat="43.417581716782735" lon="12.655588077535823"><ele>563.6666666666666</ele><time>2026-04-04T15:27:02.001Z</time></trkpt><trkpt lat="43.417428847793616" lon="12.655655801044"><ele>561.0</ele><time>2026-04-04T15:27:03.001Z</time></trkpt><trkpt lat="43.41728424224572" lon="12.655673819229461"><ele>561.0</ele><time>2026-04-04T15:27:04.001Z</time></trkpt><trkpt lat="43.4171690387486" lon="12.65565290624748"><ele>561.0</ele><time>2026-04-04T15:27:05.001Z</time></trkpt><trkpt lat="43.417071455714805" lon="12.655618528244853"><ele>561.0</ele><time>2026-04-04T15:27:06.001Z</time></trkpt><trkpt lat="43.41699048542003" lon="12.655567029592241"><ele>561.0</ele><time>2026-04-04T15:27:07.001Z</time></trkpt><trkpt lat="43.41693268545814" lon="12.65547708453501"><ele>561.0</ele><time>2026-04-04T15:27:08.001Z</time></trkpt><trkpt lat="43.41688828121393" lon="12.65535465341236"><ele>561.0</ele><time>2026-04-04T15:27:09.001Z</time></trkpt><trkpt lat="43.41683057430827" lon="12.655234270242676"><ele>561.0</ele><time>2026-04-04T15:27:10.001Z</time></trkpt><trkpt lat="43.41672854879711" lon="12.6551582672014"><ele>561.0</ele><time>2026-04-04T15:27:11.001Z</time></trkpt><trkpt lat="43.41660359394539" lon="12.6551150767266"><ele>561.0</ele><time>2026-04-04T15:27:12.001Z</time></trkpt><trkpt lat="43.416461637121294" lon="12.655099285687625"><ele>566.0</ele><time>2026-04-04T15:27:13.001Z</time></trkpt><trkpt lat="43.416316944622146" lon="12.655046656112987"><ele>571.0</ele><time>2026-04-04T15:27:14.001Z</time></trkpt><trkpt lat="43.41617197086764" lon="12.65496359434042"><ele>576.0</ele><time>2026-04-04T15:27:15.001Z</time></trkpt><trkpt lat="43.41601750606261" lon="12.654932985261254"><ele>576.0</ele><time>2026-04-04T15:27:16.001Z</time></trkpt><trkpt lat="43.41586106439518" lon="12.654960493492302"><ele>576.0</ele><time>2026-04-04T15:27:17.001Z</time></trkpt><trkpt lat="43.41571084673128" lon="12.654963127736444"><ele>576.0</ele><time>2026-04-04T15:27:18.001Z</time></trkpt><trkpt lat="43.415563493453185" lon="12.65489208056238"><ele>579.6666666666666</ele><time>2026-04-04T15:27:19.001Z</time></trkpt><trkpt lat="43.415437491346516" lon="12.654751190602363"><ele>583.3333333333333</ele><time>2026-04-04T15:27:20.001Z</time></trkpt><trkpt lat="43.41530983429718" lon="12.654601543302938"><ele>587.0</ele><time>2026-04-04T15:27:21.001Z</time></trkpt><trkpt lat="43.41516353349351" lon="12.65451629645534"><ele>587.0</ele><time>2026-04-04T15:27:22.001Z</time></trkpt><trkpt lat="43.41500474842814" lon="12.654515622851383"><ele>587.0</ele><time>2026-04-04T15:27:23.001Z</time></trkpt><trkpt lat="43.41483693671848" lon="12.65458163909849"><ele>587.0</ele><time>2026-04-04T15:27:24.002Z</time></trkpt><trkpt lat="43.41466273088536" lon="12.65463323295436"><ele>587.0</ele><time>2026-04-04T15:27:25.002Z</time></trkpt><trkpt lat="43.414489464649755" lon="12.654717375462317"><ele>587.0</ele><time>2026-04-04T15:27:26.002Z</time></trkpt><trkpt lat="43.414330664161746" lon="12.65483047903825"><ele>587.0</ele><time>2026-04-04T15:27:27.002Z</time></trkpt><trkpt lat="43.4141679608989" lon="12.654892062940101"><ele>587.0</ele><time>2026-04-04T15:27:28.002Z</time></trkpt><trkpt lat="43.41399634162344" lon="12.654900899671377"><ele>587.0</ele><time>2026-04-04T15:27:29.002Z</time></trkpt><trkpt lat="43.41382558018928" lon="12.65488014495652"><ele>587.0</ele><time>2026-04-04T15:27:30.002Z</time></trkpt><trkpt lat="43.413668185141006" lon="12.654875486876946"><ele>584.25</ele><time>2026-04-04T15:27:31.002Z</time></trkpt><trkpt lat="43.413527494575646" lon="12.65488347432175"><ele>581.5</ele><time>2026-04-04T15:27:32.002Z</time></trkpt><trkpt lat="43.41341573572551" lon="12.654928587327003"><ele>578.75</ele><time>2026-04-04T15:27:33.002Z</time></trkpt><trkpt lat="43.41334129896929" lon="12.655020511925292"><ele>576.0</ele><time>2026-04-04T15:27:34.002Z</time></trkpt><trkpt lat="43.41331116509649" lon="12.655143225908068"><ele>576.0</ele><time>2026-04-04T15:27:35.002Z</time></trkpt><trkpt lat="43.413340665296495" lon="12.655263088482473"><ele>576.0</ele><time>2026-04-04T15:27:36.002Z</time></trkpt><trkpt lat="43.41341696081955" lon="12.655338079378817"><ele>576.0</ele><time>2026-04-04T15:27:37.002Z</time></trkpt><trkpt lat="43.413521363409444" lon="12.655353773251912"><ele>576.0</ele><time>2026-04-04T15:27:38.002Z</time></trkpt><trkpt lat="43.41362275059932" lon="12.655317061823313"><ele>576.0</ele><time>2026-04-04T15:27:39.002Z</time></trkpt><trkpt lat="43.41372524863931" lon="12.655252812548058"><ele>578.2</ele><time>2026-04-04T15:27:40.002Z</time></trkpt><trkpt lat="43.41382562019796" lon="12.655189124154"><ele>580.4000000000001</ele><time>2026-04-04T15:27:41Z</time></trkpt><trkpt lat="43.4139295989026" lon="12.655153076995894"><ele>582.6</ele><time>2026-04-04T15:27:42Z</time></trkpt><trkpt lat="43.41403392387376" lon="12.6551530701523"><ele>584.8000000000001</ele><time>2026-04-04T15:27:43Z</time></trkpt><trkpt lat="43.41414265033599" lon="12.655170736160835"><ele>587.0</ele><time>2026-04-04T15:27:44Z</time></trkpt><trkpt lat="43.41427322888297" lon="12.65517966851779"><ele>587.0</ele><time>2026-04-04T15:27:45Z</time></trkpt><trkpt lat="43.41441926498725" lon="12.655200824729768"><ele>587.0</ele><time>2026-04-04T15:27:46Z</time></trkpt><trkpt lat="43.41457522544704" lon="12.655236595361849"><ele>587.0</ele><time>2026-04-04T15:27:47Z</time></trkpt><trkpt lat="43.414737981791454" lon="12.655262585289945"><ele>592.75</ele><time>2026-04-04T15:27:48Z</time></trkpt><trkpt lat="43.41488908984746" lon="12.655293546124506"><ele>598.5</ele><time>2026-04-04T15:27:49Z</time></trkpt><trkpt lat="43.415030897658745" lon="12.655318620022678"><ele>604.25</ele><time>2026-04-04T15:27:50Z</time></trkpt><trkpt lat="43.415150304531196" lon="12.655367594690192"><ele>610.0</ele><time>2026-04-04T15:27:51Z</time></trkpt><trkpt lat="43.41526105222872" lon="12.655420203895076"><ele>610.0</ele><time>2026-04-04T15:27:52Z</time></trkpt><trkpt lat="43.4153599594491" lon="12.65547853073004"><ele>610.0</ele><time>2026-04-04T15:27:53Z</time></trkpt><trkpt lat="43.415444172046676" lon="12.655548292502461"><ele>610.0</ele><time>2026-04-04T15:27:54Z</time></trkpt><trkpt lat="43.415522533449746" lon="12.65563413000237"><ele>610.0</ele><time>2026-04-04T15:27:55Z</time></trkpt><trkpt lat="43.41558776634626" lon="12.65572831077637"><ele>610.0</ele><time>2026-04-04T15:27:56Z</time></trkpt><trkpt lat="43.415641417430706" lon="12.6558291638921"><ele>611.8333333333334</ele><time>2026-04-04T15:27:57Z</time></trkpt><trkpt lat="43.41569065221554" lon="12.655928404204957"><ele>613.6666666666667</ele><time>2026-04-04T15:27:58Z</time></trkpt><trkpt lat="43.41573703095647" lon="12.656021067084055"><ele>615.5</ele><time>2026-04-04T15:27:59Z</time></trkpt><trkpt lat="43.415777945820686" lon="12.656107905215684"><ele>617.3333333333334</ele><time>2026-04-04T15:28:00Z</time></trkpt><trkpt lat="43.415798577073595" lon="12.656198900880673"><ele>619.1666666666666</ele><time>2026-04-04T15:28:01Z</time></trkpt><trkpt lat="43.415787795122405" lon="12.656292973406709"><ele>621.0</ele><time>2026-04-04T15:28:02Z</time></trkpt><trkpt lat="43.415741909611505" lon="12.656362920070084"><ele>621.0</ele><time>2026-04-04T15:28:03Z</time></trkpt><trkpt lat="43.41567369899925" lon="12.656399721039822"><ele>621.0</ele><time>2026-04-04T15:28:04Z</time></trkpt><trkpt lat="43.415609884568326" lon="12.65635001221769"><ele>621.0</ele><time>2026-04-04T15:28:05Z</time></trkpt><trkpt lat="43.41555375573554" lon="12.656286815937838"><ele>621.0</ele><time>2026-04-04T15:28:06Z</time></trkpt><trkpt lat="43.41551203192091" lon="12.656192467467008"><ele>621.0</ele><time>2026-04-04T15:28:07Z</time></trkpt><trkpt lat="43.415460465326646" lon="12.6561047822538"><ele>621.0</ele><time>2026-04-04T15:28:08Z</time></trkpt><trkpt lat="43.41541498475525" lon="12.656014001738397"><ele>618.8</ele><time>2026-04-04T15:28:09Z</time></trkpt><trkpt lat="43.415352426196876" lon="12.655926824370136"><ele>616.6</ele><time>2026-04-04T15:28:10Z</time></trkpt><trkpt lat="43.415300982612536" lon="12.65581800464145"><ele>614.4</ele><time>2026-04-04T15:28:11Z</time></trkpt><trkpt lat="43.415221197570666" lon="12.655720449004528"><ele>612.2</ele><time>2026-04-04T15:28:12Z</time></trkpt><trkpt lat="43.41511904402645" lon="12.655661959076669"><ele>610.0</ele><time>2026-04-04T15:28:13Z</time></trkpt><trkpt lat="43.41500477786805" lon="12.655640783163918"><ele>610.0</ele><time>2026-04-04T15:28:14Z</time></trkpt><trkpt lat="43.41488717234839" lon="12.655655067989896"><ele>610.0</ele><time>2026-04-04T15:28:15Z</time></trkpt><trkpt lat="43.41476071087873" lon="12.655665920674508"><ele>610.0</ele><time>2026-04-04T15:28:16Z</time></trkpt><trkpt lat="43.41463250167823" lon="12.655674594910206"><ele>610.0</ele><time>2026-04-04T15:28:17Z</time></trkpt><trkpt lat="43.41450311053964" lon="12.655704458018729"><ele>610.75</ele><time>2026-04-04T15:28:18Z</time></trkpt><trkpt lat="43.41437232174962" lon="12.655773266835528"><ele>611.5</ele><time>2026-04-04T15:28:19Z</time></trkpt><trkpt lat="43.414250367219736" lon="12.655864334248779"><ele>612.25</ele><time>2026-04-04T15:28:20Z</time></trkpt><trkpt lat="43.41413047560665" lon="12.655963997171547"><ele>613.0</ele><time>2026-04-04T15:28:21Z</time></trkpt><trkpt lat="43.41400885743026" lon="12.656036587182285"><ele>615.0</ele><time>2026-04-04T15:28:22Z</time></trkpt><trkpt lat="43.413895807280355" lon="12.656150923806038"><ele>617.0</ele><time>2026-04-04T15:28:23.001Z</time></trkpt><trkpt lat="43.41377536944168" lon="12.656261842310673"><ele>619.0</ele><time>2026-04-04T15:28:24.001Z</time></trkpt><trkpt lat="43.41363618082804" lon="12.65638639447917"><ele>619.0</ele><time>2026-04-04T15:28:25.001Z</time></trkpt><trkpt lat="43.41348764621218" lon="12.656541038637677"><ele>619.0</ele><time>2026-04-04T15:28:26.001Z</time></trkpt><trkpt lat="43.41332207794828" lon="12.656714422671302"><ele>619.0</ele><time>2026-04-04T15:28:27.001Z</time></trkpt><trkpt lat="43.41313994501315" lon="12.656907369902074"><ele>622.0</ele><time>2026-04-04T15:28:28.001Z</time></trkpt><trkpt lat="43.41293858697412" lon="12.657120089537921"><ele>625.0</ele><time>2026-04-04T15:28:29.001Z</time></trkpt><trkpt lat="43.412724437707325" lon="12.6573456881176"><ele>625.0</ele><time>2026-04-04T15:28:30.001Z</time></trkpt><trkpt lat="43.41252399075889" lon="12.657549436649662"><ele>625.0</ele><time>2026-04-04T15:28:31.001Z</time></trkpt><trkpt lat="43.412353839091445" lon="12.657743814147494"><ele>628.6666666666667</ele><time>2026-04-04T15:28:32.001Z</time></trkpt><trkpt lat="43.412184685570594" lon="12.657895196238616"><ele>632.3333333333334</ele><time>2026-04-04T15:28:33.001Z</time></trkpt><trkpt lat="43.41203338116439" lon="12.658039097627464"><ele>636.0</ele><time>2026-04-04T15:28:34.001Z</time></trkpt><trkpt lat="43.41189613369006" lon="12.6581783299863"><ele>636.0</ele><time>2026-04-04T15:28:35.001Z</time></trkpt><trkpt lat="43.41176453624874" lon="12.65831194701706"><ele>636.0</ele><time>2026-04-04T15:28:36.001Z</time></trkpt><trkpt lat="43.41163886857662" lon="12.658453129138191"><ele>636.0</ele><time>2026-04-04T15:28:37.001Z</time></trkpt><trkpt lat="43.41152487345699" lon="12.658601961822276"><ele>637.6666666666666</ele><time>2026-04-04T15:28:38.001Z</time></trkpt><trkpt lat="43.41142000032935" lon="12.658750813646284"><ele>639.3333333333333</ele><time>2026-04-04T15:28:39.001Z</time></trkpt><trkpt lat="43.411316005767304" lon="12.658902712936756"><ele>641.0</ele><time>2026-04-04T15:28:40.001Z</time></trkpt><trkpt lat="43.41121164811174" lon="12.659057823594662"><ele>641.0</ele><time>2026-04-04T15:28:41.001Z</time></trkpt><trkpt lat="43.41110402722681" lon="12.659217110722736"><ele>641.0</ele><time>2026-04-04T15:28:42.001Z</time></trkpt><trkpt lat="43.41099490823674" lon="12.659383350219953"><ele>641.0</ele><time>2026-04-04T15:28:43.001Z</time></trkpt><trkpt lat="43.410885759219376" lon="12.65955085399064"><ele>640.0</ele><time>2026-04-04T15:28:44.001Z</time></trkpt><trkpt lat="43.410773711906494" lon="12.659718634563811"><ele>639.0</ele><time>2026-04-04T15:28:45.001Z</time></trkpt><trkpt lat="43.41066510549957" lon="12.659884867038445"><ele>638.0</ele><time>2026-04-04T15:28:46.001Z</time></trkpt><trkpt lat="43.41055643787298" lon="12.660043608422807"><ele>638.3333333333333</ele><time>2026-04-04T15:28:47.001Z</time></trkpt><trkpt lat="43.41045218858226" lon="12.660200944073946"><ele>638.6666666666666</ele><time>2026-04-04T15:28:48.001Z</time></trkpt><trkpt lat="43.41034883834978" lon="12.660357344182458"><ele>639.0</ele><time>2026-04-04T15:28:49.001Z</time></trkpt><trkpt lat="43.410224128938765" lon="12.660478288713126"><ele>639.0</ele><time>2026-04-04T15:28:50.001Z</time></trkpt><trkpt lat="43.41007580737528" lon="12.660554536899191"><ele>639.0</ele><time>2026-04-04T15:28:51.001Z</time></trkpt><trkpt lat="43.40991660402843" lon="12.660602836071854"><ele>639.0</ele><time>2026-04-04T15:28:52.001Z</time></trkpt><trkpt lat="43.40974970204059" lon="12.66065804154898"><ele>635.6666666666666</ele><time>2026-04-04T15:28:53.001Z</time></trkpt><trkpt lat="43.40957935830394" lon="12.660715803245349"><ele>632.3333333333333</ele><time>2026-04-04T15:28:54.001Z</time></trkpt><trkpt lat="43.40940192055702" lon="12.660780494384623"><ele>629.0</ele><time>2026-04-04T15:28:55.001Z</time></trkpt><trkpt lat="43.409217460130115" lon="12.660848470445602"><ele>629.0</ele><time>2026-04-04T15:28:56.001Z</time></trkpt><trkpt lat="43.409028604844615" lon="12.660918196530865"><ele>629.0</ele><time>2026-04-04T15:28:57.001Z</time></trkpt><trkpt lat="43.408834633936735" lon="12.660997832659904"><ele>629.0</ele><time>2026-04-04T15:28:58.001Z</time></trkpt><trkpt lat="43.40864023473944" lon="12.661076558510775"><ele>628.3333333333333</ele><time>2026-04-04T15:28:59.001Z</time></trkpt><trkpt lat="43.408441181143985" lon="12.661151455028078"><ele>627.6666666666666</ele><time>2026-04-04T15:29:00.001Z</time></trkpt><trkpt lat="43.40824298574936" lon="12.661220869982342"><ele>627.0</ele><time>2026-04-04T15:29:01.001Z</time></trkpt><trkpt lat="43.40804821409808" lon="12.66129273475655"><ele>624.3333333333334</ele><time>2026-04-04T15:29:02.001Z</time></trkpt><trkpt lat="43.40785861223066" lon="12.66136298685947"><ele>621.6666666666667</ele><time>2026-04-04T15:29:03.001Z</time></trkpt><trkpt lat="43.40766931226586" lon="12.66143920267421"><ele>619.0</ele><time>2026-04-04T15:29:04.001Z</time></trkpt><trkpt lat="43.40749054929435" lon="12.661537058942264"><ele>619.0</ele><time>2026-04-04T15:29:05.001Z</time></trkpt><trkpt lat="43.407319595753286" lon="12.661668210194753"><ele>619.0</ele><time>2026-04-04T15:29:06.001Z</time></trkpt><trkpt lat="43.407148559181685" lon="12.661809385196214"><ele>619.0</ele><time>2026-04-04T15:29:07.001Z</time></trkpt><trkpt lat="43.40697287404538" lon="12.661956403703666"><ele>617.6666666666667</ele><time>2026-04-04T15:29:08.001Z</time></trkpt><trkpt lat="43.40680013418811" lon="12.662101125632773"><ele>616.3333333333334</ele><time>2026-04-04T15:29:09.001Z</time></trkpt><trkpt lat="43.406621774191855" lon="12.662249217081978"><ele>615.0</ele><time>2026-04-04T15:29:10.001Z</time></trkpt><trkpt lat="43.406447055692055" lon="12.662397578608308"><ele>615.3333333333334</ele><time>2026-04-04T15:29:11.001Z</time></trkpt><trkpt lat="43.40627320254895" lon="12.66254282509061"><ele>615.6666666666667</ele><time>2026-04-04T15:29:12.001Z</time></trkpt><trkpt lat="43.40610003052487" lon="12.662683489954645"><ele>616.0</ele><time>2026-04-04T15:29:13.001Z</time></trkpt><trkpt lat="43.4059291824382" lon="12.662826820449515"><ele>616.0</ele><time>2026-04-04T15:29:14.001Z</time></trkpt><trkpt lat="43.40575642478434" lon="12.662968244022228"><ele>616.0</ele><time>2026-04-04T15:29:15.001Z</time></trkpt><trkpt lat="43.405580453113664" lon="12.663112510382495"><ele>616.0</ele><time>2026-04-04T15:29:16.001Z</time></trkpt><trkpt lat="43.40540540591487" lon="12.663257153134856"><ele>613.0</ele><time>2026-04-04T15:29:17.002Z</time></trkpt><trkpt lat="43.405230966796786" lon="12.663400275850755"><ele>610.0</ele><time>2026-04-04T15:29:18.002Z</time></trkpt><trkpt lat="43.40505831433434" lon="12.6635382389708"><ele>607.0</ele><time>2026-04-04T15:29:19.002Z</time></trkpt><trkpt lat="43.40488958132845" lon="12.663674992008128"><ele>607.0</ele><time>2026-04-04T15:29:20.002Z</time></trkpt><trkpt lat="43.404727433696095" lon="12.663815876912254"><ele>607.0</ele><time>2026-04-04T15:29:21.002Z</time></trkpt><trkpt lat="43.40457017406504" lon="12.663952336341765"><ele>607.0</ele><time>2026-04-04T15:29:22.002Z</time></trkpt><trkpt lat="43.40442540988164" lon="12.66406432846381"><ele>605.25</ele><time>2026-04-04T15:29:23.002Z</time></trkpt><trkpt lat="43.40428745252808" lon="12.664148319931213"><ele>603.5</ele><time>2026-04-04T15:29:24.002Z</time></trkpt><trkpt lat="43.40414885915743" lon="12.664216203722066"><ele>601.75</ele><time>2026-04-04T15:29:25.002Z</time></trkpt><trkpt lat="43.404013469767285" lon="12.664266397797267"><ele>600.0</ele><time>2026-04-04T15:29:26.002Z</time></trkpt><trkpt lat="43.40388795874858" lon="12.6643117936017"><ele>600.0</ele><time>2026-04-04T15:29:27.002Z</time></trkpt><trkpt lat="43.40376349909278" lon="12.664358135525193"><ele>600.0</ele><time>2026-04-04T15:29:28.002Z</time></trkpt><trkpt lat="43.403647211528714" lon="12.664404939497752"><ele>600.0</ele><time>2026-04-04T15:29:29.002Z</time></trkpt><trkpt lat="43.40353724261365" lon="12.664459522132558"><ele>600.0</ele><time>2026-04-04T15:29:30.002Z</time></trkpt><trkpt lat="43.4034340768649" lon="12.66452766035634"><ele>600.0</ele><time>2026-04-04T15:29:31.002Z</time></trkpt><trkpt lat="43.40333963697278" lon="12.664623314127827"><ele>600.0</ele><time>2026-04-04T15:29:32.002Z</time></trkpt><trkpt lat="43.40325917414925" lon="12.664738897964247"><ele>600.0</ele><time>2026-04-04T15:29:33.002Z</time></trkpt><trkpt lat="43.40319210113443" lon="12.664867386154926"><ele>600.0</ele><time>2026-04-04T15:29:34.002Z</time></trkpt><trkpt lat="43.40313278049649" lon="12.66500527041919"><ele>600.0</ele><time>2026-04-04T15:29:35.002Z</time></trkpt><trkpt lat="43.403072054887645" lon="12.66515226391992"><ele>600.0</ele><time>2026-04-04T15:29:36.002Z</time></trkpt><trkpt lat="43.4030250973216" lon="12.665306605075463"><ele>600.0</ele><time>2026-04-04T15:29:37.002Z</time></trkpt><trkpt lat="43.40297888899377" lon="12.665457136998464"><ele>600.0</ele><time>2026-04-04T15:29:38.002Z</time></trkpt><trkpt lat="43.40294477216467" lon="12.665612678170273"><ele>596.0</ele><time>2026-04-04T15:29:39.002Z</time></trkpt><trkpt lat="43.40292685774841" lon="12.665772979665258"><ele>592.0</ele><time>2026-04-04T15:29:40.002Z</time></trkpt><trkpt lat="43.40292201122651" lon="12.665937202978798"><ele>588.0</ele><time>2026-04-04T15:29:41.002Z</time></trkpt><trkpt lat="43.40292412134587" lon="12.666103838782874"><ele>584.0</ele><time>2026-04-04T15:29:42.002Z</time></trkpt><trkpt lat="43.402926216091046" lon="12.666271263000032"><ele>584.0</ele><time>2026-04-04T15:29:43.002Z</time></trkpt><trkpt lat="43.40292601103044" lon="12.666437786606602"><ele>584.0</ele><time>2026-04-04T15:29:44.002Z</time></trkpt><trkpt lat="43.402925075191305" lon="12.666603964533081"><ele>584.0</ele><time>2026-04-04T15:29:45.002Z</time></trkpt><trkpt lat="43.40292451736919" lon="12.666773822535534"><ele>584.0</ele><time>2026-04-04T15:29:46.002Z</time></trkpt><trkpt lat="43.4029265570655" lon="12.666947463419854"><ele>583.25</ele><time>2026-04-04T15:29:47Z</time></trkpt><trkpt lat="43.40293199839235" lon="12.667122719526182"><ele>582.5</ele><time>2026-04-04T15:29:48Z</time></trkpt><trkpt lat="43.40293864041221" lon="12.66729803431544"><ele>581.75</ele><time>2026-04-04T15:29:49Z</time></trkpt><trkpt lat="43.40293580432399" lon="12.667470504470689"><ele>581.0</ele><time>2026-04-04T15:29:50Z</time></trkpt><trkpt lat="43.40292027448968" lon="12.667637367952624"><ele>580.0</ele><time>2026-04-04T15:29:51Z</time></trkpt><trkpt lat="43.40289168639641" lon="12.667803192104907"><ele>579.0</ele><time>2026-04-04T15:29:52Z</time></trkpt><trkpt lat="43.40284769681538" lon="12.667960075309578"><ele>578.0</ele><time>2026-04-04T15:29:53Z</time></trkpt><trkpt lat="43.402791033074706" lon="12.668111212261328"><ele>577.0</ele><time>2026-04-04T15:29:54Z</time></trkpt><trkpt lat="43.402727644496835" lon="12.668263664915369"><ele>577.0</ele><time>2026-04-04T15:29:55Z</time></trkpt><trkpt lat="43.40265621154132" lon="12.668410642455465"><ele>577.0</ele><time>2026-04-04T15:29:56Z</time></trkpt><trkpt lat="43.40258387504611" lon="12.668554911487357"><ele>577.0</ele><time>2026-04-04T15:29:57Z</time></trkpt><trkpt lat="43.40250607173417" lon="12.668696975050318"><ele>577.0</ele><time>2026-04-04T15:29:58Z</time></trkpt><trkpt lat="43.40242803807956" lon="12.668834727753426"><ele>577.0</ele><time>2026-04-04T15:29:59Z</time></trkpt><trkpt lat="43.40235205619787" lon="12.668972433146163"><ele>577.0</ele><time>2026-04-04T15:30:00Z</time></trkpt><trkpt lat="43.40227685670623" lon="12.669112601828697"><ele>577.0</ele><time>2026-04-04T15:30:01Z</time></trkpt><trkpt lat="43.4022031515795" lon="12.669254603190588"><ele>577.0</ele><time>2026-04-04T15:30:02Z</time></trkpt><trkpt lat="43.402128118760494" lon="12.66939346601049"><ele>578.0</ele><time>2026-04-04T15:30:03Z</time></trkpt><trkpt lat="43.40204642005334" lon="12.669525471016456"><ele>579.0</ele><time>2026-04-04T15:30:04Z</time></trkpt><trkpt lat="43.40195134346316" lon="12.669641813222084"><ele>580.0</ele><time>2026-04-04T15:30:05Z</time></trkpt><trkpt lat="43.4018411888221" lon="12.66973216156175"><ele>581.0</ele><time>2026-04-04T15:30:06Z</time></trkpt><trkpt lat="43.401718848933754" lon="12.66980307692979"><ele>581.0</ele><time>2026-04-04T15:30:07Z</time></trkpt><trkpt lat="43.40158631696658" lon="12.669852519219766"><ele>581.0</ele><time>2026-04-04T15:30:08Z</time></trkpt><trkpt lat="43.401445673261364" lon="12.669878212818553"><ele>581.0</ele><time>2026-04-04T15:30:09Z</time></trkpt><trkpt lat="43.40130449958196" lon="12.66990066729702"><ele>581.0</ele><time>2026-04-04T15:30:10Z</time></trkpt><trkpt lat="43.40116209549651" lon="12.66992085094648"><ele>582.5</ele><time>2026-04-04T15:30:11Z</time></trkpt><trkpt lat="43.40102716531168" lon="12.669941529620436"><ele>584.0</ele><time>2026-04-04T15:30:12Z</time></trkpt><trkpt lat="43.400894503880494" lon="12.66995748211041"><ele>585.5</ele><time>2026-04-04T15:30:13Z</time></trkpt><trkpt lat="43.40076539015621" lon="12.669973879631316"><ele>587.0</ele><time>2026-04-04T15:30:14Z</time></trkpt><trkpt lat="43.400636249896735" lon="12.669990567100031"><ele>587.0</ele><time>2026-04-04T15:30:15Z</time></trkpt><trkpt lat="43.40051251448128" lon="12.670004482272228"><ele>587.0</ele><time>2026-04-04T15:30:16Z</time></trkpt><trkpt lat="43.40038480117026" lon="12.670018998504592"><ele>587.0</ele><time>2026-04-04T15:30:17Z</time></trkpt><trkpt lat="43.40025252694383" lon="12.67003842532402"><ele>587.0</ele><time>2026-04-04T15:30:18Z</time></trkpt><trkpt lat="43.40012088150979" lon="12.67005726971047"><ele>586.75</ele><time>2026-04-04T15:30:19.001Z</time></trkpt><trkpt lat="43.39999054703916" lon="12.67007149907928"><ele>586.5</ele><time>2026-04-04T15:30:20.001Z</time></trkpt><trkpt lat="43.39986067941209" lon="12.670082847861341"><ele>586.25</ele><time>2026-04-04T15:30:21.001Z</time></trkpt><trkpt lat="43.399731109768545" lon="12.670122663435613"><ele>586.0</ele><time>2026-04-04T15:30:22.001Z</time></trkpt><trkpt lat="43.399607853911796" lon="12.670203510485804"><ele>587.25</ele><time>2026-04-04T15:30:23.001Z</time></trkpt><trkpt lat="43.39948118927592" lon="12.67028818924064"><ele>588.5</ele><time>2026-04-04T15:30:24.001Z</time></trkpt><trkpt lat="43.39939331815809" lon="12.670454449356187"><ele>589.75</ele><time>2026-04-04T15:30:25.001Z</time></trkpt><trkpt lat="43.39930347986727" lon="12.670609884420406"><ele>591.0</ele><time>2026-04-04T15:30:26.001Z</time></trkpt><trkpt lat="43.39922869827105" lon="12.670782407850451"><ele>591.0</ele><time>2026-04-04T15:30:27.001Z</time></trkpt><trkpt lat="43.399177485777535" lon="12.670972806918192"><ele>591.0</ele><time>2026-04-04T15:30:28.001Z</time></trkpt><trkpt lat="43.39915426296613" lon="12.67118019347181"><ele>591.0</ele><time>2026-04-04T15:30:29.001Z</time></trkpt><trkpt lat="43.39914894898885" lon="12.671401701205703"><ele>590.0</ele><time>2026-04-04T15:30:30.001Z</time></trkpt><trkpt lat="43.3991509796518" lon="12.671638846760118"><ele>589.0</ele><time>2026-04-04T15:30:31.001Z</time></trkpt><trkpt lat="43.39914859075867" lon="12.67188125949748"><ele>588.0</ele><time>2026-04-04T15:30:32.001Z</time></trkpt><trkpt lat="43.39912981945621" lon="12.672123065113764"><ele>586.6666666666666</ele><time>2026-04-04T15:30:33.001Z</time></trkpt><trkpt lat="43.39908950743014" lon="12.672372141712664"><ele>585.3333333333333</ele><time>2026-04-04T15:30:34.001Z</time></trkpt><trkpt lat="43.39902880739069" lon="12.672620563729764"><ele>584.0</ele><time>2026-04-04T15:30:35.001Z</time></trkpt><trkpt lat="43.39895769266361" lon="12.67286366827071"><ele>584.0</ele><time>2026-04-04T15:30:36.001Z</time></trkpt><trkpt lat="43.39888595745008" lon="12.67309531733836"><ele>584.0</ele><time>2026-04-04T15:30:37.001Z</time></trkpt><trkpt lat="43.398820581403065" lon="12.673324539604499"><ele>584.0</ele><time>2026-04-04T15:30:38.001Z</time></trkpt><trkpt lat="43.39875265251823" lon="12.673534205640996"><ele>581.6666666666666</ele><time>2026-04-04T15:30:39.001Z</time></trkpt><trkpt lat="43.39864704238386" lon="12.673711371535708"><ele>579.3333333333334</ele><time>2026-04-04T15:30:40.001Z</time></trkpt><trkpt lat="43.3985120004959" lon="12.673876253284874"><ele>577.0</ele><time>2026-04-04T15:30:41.001Z</time></trkpt><trkpt lat="43.398366709136845" lon="12.674036649465364"><ele>577.0</ele><time>2026-04-04T15:30:42.001Z</time></trkpt><trkpt lat="43.39822644438223" lon="12.674213634853928"><ele>577.0</ele><time>2026-04-04T15:30:43.001Z</time></trkpt><trkpt lat="43.39808518270991" lon="12.674402279763083"><ele>577.0</ele><time>2026-04-04T15:30:44.001Z</time></trkpt><trkpt lat="43.397941374847754" lon="12.674595172203382"><ele>575.3333333333334</ele><time>2026-04-04T15:30:45.001Z</time></trkpt><trkpt lat="43.39779708243212" lon="12.674786954765711"><ele>573.6666666666666</ele><time>2026-04-04T15:30:46.001Z</time></trkpt><trkpt lat="43.39764509734679" lon="12.674965399332008"><ele>572.0</ele><time>2026-04-04T15:30:47.001Z</time></trkpt><trkpt lat="43.39749024261783" lon="12.675142662481576"><ele>568.6666666666666</ele><time>2026-04-04T15:30:48.001Z</time></trkpt><trkpt lat="43.397344994776844" lon="12.675347578683242"><ele>565.3333333333334</ele><time>2026-04-04T15:30:49.001Z</time></trkpt><trkpt lat="43.39720208488701" lon="12.675566584182203"><ele>562.0</ele><time>2026-04-04T15:30:50.001Z</time></trkpt><trkpt lat="43.39705658746591" lon="12.67578962951291"><ele>562.0</ele><time>2026-04-04T15:30:51.001Z</time></trkpt><trkpt lat="43.39690969995333" lon="12.67601861110864"><ele>562.0</ele><time>2026-04-04T15:30:52.001Z</time></trkpt><trkpt lat="43.396767773373554" lon="12.676251217132545"><ele>562.0</ele><time>2026-04-04T15:30:53.001Z</time></trkpt><trkpt lat="43.39663143765532" lon="12.676499199383974"><ele>561.6666666666667</ele><time>2026-04-04T15:30:54.001Z</time></trkpt><trkpt lat="43.39650975198916" lon="12.67675875828691"><ele>561.3333333333334</ele><time>2026-04-04T15:30:55.001Z</time></trkpt><trkpt lat="43.39639992735268" lon="12.677025517113378"><ele>561.0</ele><time>2026-04-04T15:30:56.001Z</time></trkpt><trkpt lat="43.39629349171717" lon="12.677293717828363"><ele>561.0</ele><time>2026-04-04T15:30:57.001Z</time></trkpt><trkpt lat="43.396189383622065" lon="12.677561998205269"><ele>561.0</ele><time>2026-04-04T15:30:58.001Z</time></trkpt><trkpt lat="43.396081463950885" lon="12.677820991376525"><ele>561.0</ele><time>2026-04-04T15:30:59.001Z</time></trkpt><trkpt lat="43.3959538011725" lon="12.678054502139355"><ele>563.0</ele><time>2026-04-04T15:31:00.001Z</time></trkpt><trkpt lat="43.39580887739117" lon="12.67826503908536"><ele>565.0</ele><time>2026-04-04T15:31:01.001Z</time></trkpt><trkpt lat="43.39565178225984" lon="12.678462408942606"><ele>567.0</ele><time>2026-04-04T15:31:02.001Z</time></trkpt><trkpt lat="43.39550409921867" lon="12.678634929425495"><ele>566.6</ele><time>2026-04-04T15:31:03.001Z</time></trkpt><trkpt lat="43.395382043617516" lon="12.678767729161288"><ele>566.2</ele><time>2026-04-04T15:31:04.001Z</time></trkpt><trkpt lat="43.39527639020292" lon="12.678867272734701"><ele>565.8</ele><time>2026-04-04T15:31:05.001Z</time></trkpt><trkpt lat="43.39519508596729" lon="12.67893590269916"><ele>565.4</ele><time>2026-04-04T15:31:06.001Z</time></trkpt><trkpt lat="43.39514085422141" lon="12.678981946705289"><ele>565.0</ele><time>2026-04-04T15:31:07.001Z</time></trkpt><trkpt lat="43.395074151224186" lon="12.679055934609064"><ele>565.0</ele><time>2026-04-04T15:31:14.001Z</time></trkpt><trkpt lat="43.39497471343327" lon="12.679153647092622"><ele>565.0</ele><time>2026-04-04T15:31:16.001Z</time></trkpt><trkpt lat="43.394855183523674" lon="12.67925766574396"><ele>565.0</ele><time>2026-04-04T15:31:18.001Z</time></trkpt><trkpt lat="43.394779395173416" lon="12.679324232649487"><ele>565.0</ele><time>2026-04-04T15:31:19.001Z</time></trkpt><trkpt lat="43.39470190716809" lon="12.67939664781716"><ele>565.0</ele><time>2026-04-04T15:31:20.002Z</time></trkpt><trkpt lat="43.39461193114108" lon="12.67948208373292"><ele>564.5</ele><time>2026-04-04T15:31:21.002Z</time></trkpt><trkpt lat="43.39451095848947" lon="12.679575908443683"><ele>564.0</ele><time>2026-04-04T15:31:22.002Z</time></trkpt><trkpt lat="43.39440279878391" lon="12.679672983007048"><ele>563.5</ele><time>2026-04-04T15:31:23.002Z</time></trkpt><trkpt lat="43.39429084541212" lon="12.67977125785261"><ele>563.0</ele><time>2026-04-04T15:31:24.002Z</time></trkpt><trkpt lat="43.39417212397525" lon="12.679879853433695"><ele>563.0</ele><time>2026-04-04T15:31:25.002Z</time></trkpt><trkpt lat="43.39404975116851" lon="12.679987561422935"><ele>563.0</ele><time>2026-04-04T15:31:26.002Z</time></trkpt><trkpt lat="43.39392638674077" lon="12.680100797745734"><ele>563.0</ele><time>2026-04-04T15:31:27.002Z</time></trkpt><trkpt lat="43.39380315977613" lon="12.680210107627095"><ele>563.0</ele><time>2026-04-04T15:31:28.002Z</time></trkpt><trkpt lat="43.39367928861122" lon="12.680320761070426"><ele>561.75</ele><time>2026-04-04T15:31:29.002Z</time></trkpt><trkpt lat="43.393554745331556" lon="12.68043484275319"><ele>560.5</ele><time>2026-04-04T15:31:30.002Z</time></trkpt><trkpt lat="43.39342966395147" lon="12.680543165597975"><ele>559.25</ele><time>2026-04-04T15:31:31.002Z</time></trkpt><trkpt lat="43.393305894433624" lon="12.680652394688725"><ele>558.0</ele><time>2026-04-04T15:31:32.002Z</time></trkpt><trkpt lat="43.39318262902483" lon="12.680759867772561"><ele>558.0</ele><time>2026-04-04T15:31:33.002Z</time></trkpt><trkpt lat="43.39305606562187" lon="12.680869192389425"><ele>558.0</ele><time>2026-04-04T15:31:34.002Z</time></trkpt><trkpt lat="43.392928856180205" lon="12.680980719570599"><ele>558.0</ele><time>2026-04-04T15:31:35.002Z</time></trkpt><trkpt lat="43.39280122912579" lon="12.681098846425547"><ele>556.6666666666666</ele><time>2026-04-04T15:31:36.002Z</time></trkpt><trkpt lat="43.39267280777617" lon="12.681226224801472"><ele>555.3333333333333</ele><time>2026-04-04T15:31:37.002Z</time></trkpt><trkpt lat="43.39254070322288" lon="12.681348916934844"><ele>554.0</ele><time>2026-04-04T15:31:38.002Z</time></trkpt><trkpt lat="43.39240477238849" lon="12.68147199817615"><ele>554.0</ele><time>2026-04-04T15:31:39.002Z</time></trkpt><trkpt lat="43.39226425413881" lon="12.6815965389517"><ele>554.0</ele><time>2026-04-04T15:31:40.002Z</time></trkpt><trkpt lat="43.392119993485416" lon="12.681706067196064"><ele>554.0</ele><time>2026-04-04T15:31:41.002Z</time></trkpt><trkpt lat="43.39197053641923" lon="12.681807261053773"><ele>555.0</ele><time>2026-04-04T15:31:42.002Z</time></trkpt><trkpt lat="43.39181280383691" lon="12.681901291003836"><ele>556.0</ele><time>2026-04-04T15:31:43.002Z</time></trkpt><trkpt lat="43.391649989847004" lon="12.68198695240235"><ele>557.0</ele><time>2026-04-04T15:31:44.002Z</time></trkpt><trkpt lat="43.39148190157407" lon="12.68207507601983"><ele>552.6666666666666</ele><time>2026-04-04T15:31:45.002Z</time></trkpt><trkpt lat="43.39131953459491" lon="12.68216459238674"><ele>548.3333333333334</ele><time>2026-04-04T15:31:46.002Z</time></trkpt><trkpt lat="43.39116206499721" lon="12.682249288777182"><ele>544.0</ele><time>2026-04-04T15:31:47.002Z</time></trkpt><trkpt lat="43.391003316842024" lon="12.682329689429448"><ele>544.0</ele><time>2026-04-04T15:31:48.002Z</time></trkpt><trkpt lat="43.390843914037475" lon="12.682407228369506"><ele>544.0</ele><time>2026-04-04T15:31:49.002Z</time></trkpt><trkpt lat="43.3906836863078" lon="12.682475447938733"><ele>544.0</ele><time>2026-04-04T15:31:50.002Z</time></trkpt><trkpt lat="43.39052079803635" lon="12.682514085875573"><ele>541.6666666666667</ele><time>2026-04-04T15:31:51.002Z</time></trkpt><trkpt lat="43.39034351715516" lon="12.68250441772377"><ele>539.3333333333334</ele><time>2026-04-04T15:31:52.002Z</time></trkpt><trkpt lat="43.39016659316674" lon="12.682476464492916"><ele>537.0</ele><time>2026-04-04T15:31:53.001Z</time></trkpt><trkpt lat="43.3899949949614" lon="12.68245777110212"><ele>537.0</ele><time>2026-04-04T15:31:54.001Z</time></trkpt><trkpt lat="43.389818203482776" lon="12.682442512767059"><ele>537.0</ele><time>2026-04-04T15:31:55.001Z</time></trkpt><trkpt lat="43.38963653504539" lon="12.682425657244462"><ele>537.0</ele><time>2026-04-04T15:31:56.001Z</time></trkpt><trkpt lat="43.389454230523945" lon="12.682403350789926"><ele>536.6666666666666</ele><time>2026-04-04T15:31:57.001Z</time></trkpt><trkpt lat="43.38927552113609" lon="12.682379525948571"><ele>536.3333333333333</ele><time>2026-04-04T15:31:58.001Z</time></trkpt><trkpt lat="43.38909901458083" lon="12.682362016977418"><ele>536.0</ele><time>2026-04-04T15:31:59.001Z</time></trkpt><trkpt lat="43.388922191518546" lon="12.682342633172652"><ele>536.0</ele><time>2026-04-04T15:32:00.001Z</time></trkpt><trkpt lat="43.388745877115895" lon="12.682321977943557"><ele>536.0</ele><time>2026-04-04T15:32:01.001Z</time></trkpt><trkpt lat="43.38856941748697" lon="12.68229881400737"><ele>536.0</ele><time>2026-04-04T15:32:02Z</time></trkpt><trkpt lat="43.38839145784413" lon="12.682277313602711"><ele>536.0</ele><time>2026-04-04T15:32:03Z</time></trkpt><trkpt lat="43.388213430411895" lon="12.682259464770583"><ele>536.0</ele><time>2026-04-04T15:32:04Z</time></trkpt><trkpt lat="43.38803654570543" lon="12.682240322294103"><ele>536.0</ele><time>2026-04-04T15:32:05Z</time></trkpt><trkpt lat="43.38786031150258" lon="12.68222070180276"><ele>535.0</ele><time>2026-04-04T15:32:06Z</time></trkpt><trkpt lat="43.38768468118999" lon="12.682202673348423"><ele>534.0</ele><time>2026-04-04T15:32:07Z</time></trkpt><trkpt lat="43.38751127190335" lon="12.682185245612086"><ele>533.0</ele><time>2026-04-04T15:32:08Z</time></trkpt><trkpt lat="43.38734363198888" lon="12.682136923276639"><ele>533.0</ele><time>2026-04-04T15:32:09Z</time></trkpt><trkpt lat="43.387183502173144" lon="12.682040008297353"><ele>533.0</ele><time>2026-04-04T15:32:10Z</time></trkpt><trkpt lat="43.38705736857938" lon="12.681875233928595"><ele>533.0</ele><time>2026-04-04T15:32:11Z</time></trkpt><trkpt lat="43.3869329018029" lon="12.681696578173172"><ele>538.0</ele><time>2026-04-04T15:32:12Z</time></trkpt><trkpt lat="43.386801775419805" lon="12.681516730574371"><ele>543.0</ele><time>2026-04-04T15:32:13Z</time></trkpt><trkpt lat="43.3866740194536" lon="12.681329727702936"><ele>548.0</ele><time>2026-04-04T15:32:14Z</time></trkpt><trkpt lat="43.38654855787541" lon="12.68114816131745"><ele>550.3333333333333</ele><time>2026-04-04T15:32:15.001Z</time></trkpt><trkpt lat="43.38642021939655" lon="12.680972264218472"><ele>552.6666666666666</ele><time>2026-04-04T15:32:16.001Z</time></trkpt><trkpt lat="43.38629364240953" lon="12.680800761620548"><ele>555.0</ele><time>2026-04-04T15:32:17.001Z</time></trkpt><trkpt lat="43.38616332807558" lon="12.680642926500079"><ele>555.0</ele><time>2026-04-04T15:32:18.001Z</time></trkpt><trkpt lat="43.38603418979023" lon="12.680491463642058"><ele>555.0</ele><time>2026-04-04T15:32:19.001Z</time></trkpt><trkpt lat="43.38590784631481" lon="12.68033675671097"><ele>555.0</ele><time>2026-04-04T15:32:20.001Z</time></trkpt><trkpt lat="43.38578386339395" lon="12.68017945504947"><ele>554.6666666666666</ele><time>2026-04-04T15:32:21.001Z</time></trkpt><trkpt lat="43.385661017931156" lon="12.680017893059187"><ele>554.3333333333333</ele><time>2026-04-04T15:32:22.001Z</time></trkpt><trkpt lat="43.38553943004171" lon="12.679860382237736"><ele>554.0</ele><time>2026-04-04T15:32:23.001Z</time></trkpt><trkpt lat="43.38541394348263" lon="12.679712896788415"><ele>554.0</ele><time>2026-04-04T15:32:24.001Z</time></trkpt><trkpt lat="43.385271364150526" lon="12.679596320900995"><ele>554.0</ele><time>2026-04-04T15:32:25.001Z</time></trkpt><trkpt lat="43.3851091375919" lon="12.679507450934322"><ele>554.0</ele><time>2026-04-04T15:32:26.001Z</time></trkpt><trkpt lat="43.38493905663558" lon="12.679428588393847"><ele>552.0</ele><time>2026-04-04T15:32:27.001Z</time></trkpt><trkpt lat="43.38476480438074" lon="12.679347691914119"><ele>550.0</ele><time>2026-04-04T15:32:28.001Z</time></trkpt><trkpt lat="43.384587892588655" lon="12.679267099620215"><ele>548.0</ele><time>2026-04-04T15:32:29.001Z</time></trkpt><trkpt lat="43.38440914129064" lon="12.679184168833038"><ele>548.0</ele><time>2026-04-04T15:32:30.001Z</time></trkpt><trkpt lat="43.38423386828475" lon="12.679104412078988"><ele>548.0</ele><time>2026-04-04T15:32:31.001Z</time></trkpt><trkpt lat="43.38406176762158" lon="12.67902898978432"><ele>548.0</ele><time>2026-04-04T15:32:32.001Z</time></trkpt><trkpt lat="43.38389015346635" lon="12.678957304585419"><ele>550.6666666666666</ele><time>2026-04-04T15:32:33.001Z</time></trkpt><trkpt lat="43.383717929567" lon="12.67888781136326"><ele>553.3333333333334</ele><time>2026-04-04T15:32:34.001Z</time></trkpt><trkpt lat="43.38354417169112" lon="12.678825029804205"><ele>556.0</ele><time>2026-04-04T15:32:35.001Z</time></trkpt><trkpt lat="43.38336958003474" lon="12.678777863922653"><ele>556.0</ele><time>2026-04-04T15:32:36.001Z</time></trkpt><trkpt lat="43.38319356604773" lon="12.678745081751929"><ele>556.0</ele><time>2026-04-04T15:32:37.001Z</time></trkpt><trkpt lat="43.38301144915294" lon="12.678721078983383"><ele>556.0</ele><time>2026-04-04T15:32:38.001Z</time></trkpt><trkpt lat="43.38283347139828" lon="12.678699922913415"><ele>554.6666666666667</ele><time>2026-04-04T15:32:39.001Z</time></trkpt><trkpt lat="43.38265950943221" lon="12.678681217847904"><ele>553.3333333333334</ele><time>2026-04-04T15:32:40.001Z</time></trkpt><trkpt lat="43.382489748995205" lon="12.6786758683215"><ele>552.0</ele><time>2026-04-04T15:32:41.001Z</time></trkpt><trkpt lat="43.38233168316945" lon="12.678675412820212"><ele>552.0</ele><time>2026-04-04T15:32:42.001Z</time></trkpt><trkpt lat="43.382198088369755" lon="12.678696849376347"><ele>552.0</ele><time>2026-04-04T15:32:43.001Z</time></trkpt><trkpt lat="43.38208927678843" lon="12.67877678210396"><ele>552.0</ele><time>2026-04-04T15:32:44.001Z</time></trkpt><trkpt lat="43.381987003677835" lon="12.678906178678062"><ele>552.0</ele><time>2026-04-04T15:32:45.001Z</time></trkpt><trkpt lat="43.381918711740006" lon="12.679074841864455"><ele>549.25</ele><time>2026-04-04T15:32:46.001Z</time></trkpt><trkpt lat="43.38188279237992" lon="12.67926627258757"><ele>546.5</ele><time>2026-04-04T15:32:47.001Z</time></trkpt><trkpt lat="43.38188032984267" lon="12.679467342412849"><ele>543.75</ele><time>2026-04-04T15:32:48.001Z</time></trkpt><trkpt lat="43.381914288543705" lon="12.679662596320675"><ele>541.0</ele><time>2026-04-04T15:32:49.001Z</time></trkpt><trkpt lat="43.38198154259834" lon="12.679845724050562"><ele>540.6666666666667</ele><time>2026-04-04T15:32:50.001Z</time></trkpt><trkpt lat="43.38206250980789" lon="12.680022528924965"><ele>540.3333333333334</ele><time>2026-04-04T15:32:51.001Z</time></trkpt><trkpt lat="43.3821504340865" lon="12.680201685668738"><ele>540.0</ele><time>2026-04-04T15:32:52.001Z</time></trkpt><trkpt lat="43.382238969582744" lon="12.680378420195543"><ele>543.0</ele><time>2026-04-04T15:32:53.001Z</time></trkpt><trkpt lat="43.38232560106446" lon="12.680557865727142"><ele>546.0</ele><time>2026-04-04T15:32:54.001Z</time></trkpt><trkpt lat="43.38238799438187" lon="12.680759194330387"><ele>549.0</ele><time>2026-04-04T15:32:55.001Z</time></trkpt><trkpt lat="43.3824177154158" lon="12.680982589254612"><ele>549.0</ele><time>2026-04-04T15:32:56.001Z</time></trkpt><trkpt lat="43.38238372094069" lon="12.68120801080995"><ele>549.0</ele><time>2026-04-04T15:32:57.001Z</time></trkpt><trkpt lat="43.382369647120086" lon="12.681443301126095"><ele>549.0</ele><time>2026-04-04T15:32:58.001Z</time></trkpt><trkpt lat="43.382316031019556" lon="12.681662786221567"><ele>549.0</ele><time>2026-04-04T15:32:59.001Z</time></trkpt><trkpt lat="43.382250850166514" lon="12.681874643066022"><ele>549.0</ele><time>2026-04-04T15:33:00.001Z</time></trkpt><trkpt lat="43.38217704115784" lon="12.682078515377757"><ele>549.0</ele><time>2026-04-04T15:33:01.001Z</time></trkpt><trkpt lat="43.382087410848925" lon="12.682267889187512"><ele>545.3333333333334</ele><time>2026-04-04T15:33:02.001Z</time></trkpt><trkpt lat="43.38199794944472" lon="12.682463803523994"><ele>541.6666666666667</ele><time>2026-04-04T15:33:03.001Z</time></trkpt><trkpt lat="43.381912827834626" lon="12.682660266584838"><ele>538.0</ele><time>2026-04-04T15:33:04.001Z</time></trkpt><trkpt lat="43.38182690499341" lon="12.682859392800717"><ele>538.0</ele><time>2026-04-04T15:33:05.001Z</time></trkpt><trkpt lat="43.38174098578129" lon="12.683060236885876"><ele>538.0</ele><time>2026-04-04T15:33:06.001Z</time></trkpt><trkpt lat="43.38165284293793" lon="12.683261451595493"><ele>538.0</ele><time>2026-04-04T15:33:07.001Z</time></trkpt><trkpt lat="43.38156314328884" lon="12.683462677429914"><ele>537.6666666666667</ele><time>2026-04-04T15:33:08.001Z</time></trkpt><trkpt lat="43.38147355438013" lon="12.683664280344566"><ele>537.3333333333334</ele><time>2026-04-04T15:33:09.001Z</time></trkpt><trkpt lat="43.38137993400464" lon="12.683867254847112"><ele>537.0</ele><time>2026-04-04T15:33:10.001Z</time></trkpt><trkpt lat="43.38128612175341" lon="12.684073452254854"><ele>535.3333333333334</ele><time>2026-04-04T15:33:11.001Z</time></trkpt><trkpt lat="43.38119417433176" lon="12.684281166509097"><ele>533.6666666666667</ele><time>2026-04-04T15:33:12.001Z</time></trkpt><trkpt lat="43.381099988646845" lon="12.684490299034207"><ele>532.0</ele><time>2026-04-04T15:33:13.001Z</time></trkpt><trkpt lat="43.381007951592835" lon="12.684698119244448"><ele>532.0</ele><time>2026-04-04T15:33:14.001Z</time></trkpt><trkpt lat="43.380913307838725" lon="12.684909147084122"><ele>532.0</ele><time>2026-04-04T15:33:15.001Z</time></trkpt><trkpt lat="43.38081998834331" lon="12.68512384573028"><ele>532.0</ele><time>2026-04-04T15:33:16.001Z</time></trkpt><trkpt lat="43.380725078936" lon="12.685340396188169"><ele>532.3333333333334</ele><time>2026-04-04T15:33:17.001Z</time></trkpt><trkpt lat="43.380628654683626" lon="12.685554699804749"><ele>532.6666666666666</ele><time>2026-04-04T15:33:18.001Z</time></trkpt><trkpt lat="43.380531897654265" lon="12.685768721039915"><ele>533.0</ele><time>2026-04-04T15:33:19.001Z</time></trkpt><trkpt lat="43.38043433873288" lon="12.685984511672437"><ele>533.6666666666666</ele><time>2026-04-04T15:33:20.001Z</time></trkpt><trkpt lat="43.380336914519766" lon="12.68620060901731"><ele>534.3333333333334</ele><time>2026-04-04T15:33:21.001Z</time></trkpt><trkpt lat="43.38023958643461" lon="12.686414172293263"><ele>535.0</ele><time>2026-04-04T15:33:22.001Z</time></trkpt><trkpt lat="43.380144271213396" lon="12.68662518705235"><ele>535.0</ele><time>2026-04-04T15:33:23.001Z</time></trkpt><trkpt lat="43.38005244717907" lon="12.686836350128923"><ele>535.0</ele><time>2026-04-04T15:33:24.001Z</time></trkpt><trkpt lat="43.37996020220488" lon="12.687043155738035"><ele>535.0</ele><time>2026-04-04T15:33:25.002Z</time></trkpt><trkpt lat="43.37986845854215" lon="12.687248058719275"><ele>534.6666666666667</ele><time>2026-04-04T15:33:26.002Z</time></trkpt><trkpt lat="43.3797760935288" lon="12.687453000893493"><ele>534.3333333333334</ele><time>2026-04-04T15:33:27.002Z</time></trkpt><trkpt lat="43.37968372268517" lon="12.687656618034394"><ele>534.0</ele><time>2026-04-04T15:33:28.002Z</time></trkpt><trkpt lat="43.37959652605357" lon="12.68785940880932"><ele>534.0</ele><time>2026-04-04T15:33:29.002Z</time></trkpt><trkpt lat="43.37951068719615" lon="12.688063520145992"><ele>534.0</ele><time>2026-04-04T15:33:30.002Z</time></trkpt><trkpt lat="43.379421360691346" lon="12.688271157702019"><ele>534.0</ele><time>2026-04-04T15:33:31.002Z</time></trkpt><trkpt lat="43.37932746037254" lon="12.688473508005082"><ele>535.6666666666666</ele><time>2026-04-04T15:33:32.002Z</time></trkpt><trkpt lat="43.379213872758505" lon="12.688661306137908"><ele>537.3333333333333</ele><time>2026-04-04T15:33:33.002Z</time></trkpt><trkpt lat="43.37908264320227" lon="12.688825600446124"><ele>539.0</ele><time>2026-04-04T15:33:34.002Z</time></trkpt><trkpt lat="43.378943568570776" lon="12.688979553913466"><ele>539.0</ele><time>2026-04-04T15:33:35.002Z</time></trkpt><trkpt lat="43.37880172766381" lon="12.689134238670695"><ele>539.0</ele><time>2026-04-04T15:33:36.002Z</time></trkpt><trkpt lat="43.37866236490547" lon="12.689297174627086"><ele>539.0</ele><time>2026-04-04T15:33:37.002Z</time></trkpt><trkpt lat="43.378525528752306" lon="12.689467432652506"><ele>539.0</ele><time>2026-04-04T15:33:38.002Z</time></trkpt><trkpt lat="43.3783946239886" lon="12.689638597851705"><ele>539.0</ele><time>2026-04-04T15:33:39.002Z</time></trkpt><trkpt lat="43.37826858086654" lon="12.689812599991559"><ele>539.0</ele><time>2026-04-04T15:33:40.002Z</time></trkpt><trkpt lat="43.37814348758202" lon="12.689991469820578"><ele>539.0</ele><time>2026-04-04T15:33:41.002Z</time></trkpt><trkpt lat="43.378021301210744" lon="12.690163107669845"><ele>539.0</ele><time>2026-04-04T15:33:42.002Z</time></trkpt><trkpt lat="43.37790842245736" lon="12.690332582601716"><ele>539.0</ele><time>2026-04-04T15:33:43.002Z</time></trkpt><trkpt lat="43.3778133642848" lon="12.690518205269388"><ele>538.6666666666666</ele><time>2026-04-04T15:33:44.002Z</time></trkpt><trkpt lat="43.377739905702214" lon="12.69071933030916"><ele>538.3333333333334</ele><time>2026-04-04T15:33:45.002Z</time></trkpt><trkpt lat="43.37769668187855" lon="12.690934065228769"><ele>538.0</ele><time>2026-04-04T15:33:46.002Z</time></trkpt><trkpt lat="43.37768564342636" lon="12.69114587880421"><ele>538.6666666666667</ele><time>2026-04-04T15:33:47.002Z</time></trkpt><trkpt lat="43.377702106144405" lon="12.691352870562044"><ele>539.3333333333334</ele><time>2026-04-04T15:33:48.002Z</time></trkpt><trkpt lat="43.37773334239455" lon="12.691557536134841"><ele>540.0</ele><time>2026-04-04T15:33:49.002Z</time></trkpt><trkpt lat="43.377778478772235" lon="12.691758930274485"><ele>540.6666666666666</ele><time>2026-04-04T15:33:50.002Z</time></trkpt><trkpt lat="43.37782317663302" lon="12.691961574254679"><ele>541.3333333333333</ele><time>2026-04-04T15:33:51.002Z</time></trkpt><trkpt lat="43.37786401432687" lon="12.692161920281245"><ele>542.0</ele><time>2026-04-04T15:33:52.002Z</time></trkpt><trkpt lat="43.37789676726118" lon="12.692357091566377"><ele>542.0</ele><time>2026-04-04T15:33:53.002Z</time></trkpt><trkpt lat="43.3779159010868" lon="12.692539559502418"><ele>542.0</ele><time>2026-04-04T15:33:54.002Z</time></trkpt><trkpt lat="43.377919758976944" lon="12.692694517711896"><ele>542.0</ele><time>2026-04-04T15:33:55.002Z</time></trkpt><trkpt lat="43.377897785236655" lon="12.692832968812562"><ele>542.0</ele><time>2026-04-04T15:33:56.002Z</time></trkpt><trkpt lat="43.37785026700651" lon="12.692951203275621"><ele>542.0</ele><time>2026-04-04T15:33:57.002Z</time></trkpt><trkpt lat="43.37777671727975" lon="12.693051411468593"><ele>543.6</ele><time>2026-04-04T15:33:58.002Z</time></trkpt><trkpt lat="43.377690930410026" lon="12.693127186837259"><ele>545.2</ele><time>2026-04-04T15:33:59.001Z</time></trkpt><trkpt lat="43.37758754795132" lon="12.693161897213994"><ele>546.8</ele><time>2026-04-04T15:34:00.001Z</time></trkpt><trkpt lat="43.37747805848274" lon="12.693168489283618"><ele>548.4</ele><time>2026-04-04T15:34:01.001Z</time></trkpt><trkpt lat="43.37736628870729" lon="12.693170156760786"><ele>550.0</ele><time>2026-04-04T15:34:02.001Z</time></trkpt><trkpt lat="43.377253607994" lon="12.69318727967516"><ele>551.75</ele><time>2026-04-04T15:34:03.001Z</time></trkpt><trkpt lat="43.3771415941489" lon="12.693223684560376"><ele>553.5</ele><time>2026-04-04T15:34:04.001Z</time></trkpt><trkpt lat="43.37703229054614" lon="12.693295676753205"><ele>555.25</ele><time>2026-04-04T15:34:05.001Z</time></trkpt><trkpt lat="43.37693894874072" lon="12.693382190634296"><ele>557.0</ele><time>2026-04-04T15:34:06.001Z</time></trkpt><trkpt lat="43.37683980497535" lon="12.69347149461648"><ele>557.0</ele><time>2026-04-04T15:34:07.001Z</time></trkpt><trkpt lat="43.3767368199382" lon="12.693562312977805"><ele>557.0</ele><time>2026-04-04T15:34:08.001Z</time></trkpt><trkpt lat="43.37663106786644" lon="12.693652486963279"><ele>557.0</ele><time>2026-04-04T15:34:09Z</time></trkpt><trkpt lat="43.37652213115897" lon="12.693742661492466"><ele>557.0</ele><time>2026-04-04T15:34:10Z</time></trkpt><trkpt lat="43.3764126188521" lon="12.69383653166048"><ele>556.0</ele><time>2026-04-04T15:34:11Z</time></trkpt><trkpt lat="43.37630147739176" lon="12.693934288036928"><ele>555.0</ele><time>2026-04-04T15:34:12Z</time></trkpt><trkpt lat="43.376192286710015" lon="12.69403510071323"><ele>554.0</ele><time>2026-04-04T15:34:13Z</time></trkpt><trkpt lat="43.376075029483225" lon="12.694132382298855"><ele>553.0</ele><time>2026-04-04T15:34:14Z</time></trkpt><trkpt lat="43.37595338771928" lon="12.694229634372567"><ele>553.0</ele><time>2026-04-04T15:34:15Z</time></trkpt><trkpt lat="43.37582769213724" lon="12.694328963435984"><ele>553.0</ele><time>2026-04-04T15:34:16Z</time></trkpt><trkpt lat="43.3756958343596" lon="12.694417112066997"><ele>553.0</ele><time>2026-04-04T15:34:17Z</time></trkpt><trkpt lat="43.375554605231336" lon="12.694493307504587"><ele>553.0</ele><time>2026-04-04T15:34:18Z</time></trkpt><trkpt lat="43.37540639827299" lon="12.69456130252314"><ele>554.0</ele><time>2026-04-04T15:34:19Z</time></trkpt><trkpt lat="43.3752576820158" lon="12.694623790824494"><ele>555.0</ele><time>2026-04-04T15:34:20Z</time></trkpt><trkpt lat="43.37511070430055" lon="12.694689301616753"><ele>556.0</ele><time>2026-04-04T15:34:21Z</time></trkpt><trkpt lat="43.37496406768393" lon="12.694760790455025"><ele>556.0</ele><time>2026-04-04T15:34:22Z</time></trkpt><trkpt lat="43.374814761928825" lon="12.694842148697434"><ele>556.0</ele><time>2026-04-04T15:34:23Z</time></trkpt><trkpt lat="43.37465924851842" lon="12.694916085472245"><ele>556.0</ele><time>2026-04-04T15:34:24.001Z</time></trkpt><trkpt lat="43.374501061377416" lon="12.69499013310078"><ele>551.6666666666667</ele><time>2026-04-04T15:34:25.001Z</time></trkpt><trkpt lat="43.37434116746804" lon="12.69506254590462"><ele>547.3333333333334</ele><time>2026-04-04T15:34:26.001Z</time></trkpt><trkpt lat="43.37417825970658" lon="12.695139515393322"><ele>543.0</ele><time>2026-04-04T15:34:27.001Z</time></trkpt><trkpt lat="43.37401405609993" lon="12.695220170695197"><ele>543.3333333333334</ele><time>2026-04-04T15:34:28.001Z</time></trkpt><trkpt lat="43.37385189031697" lon="12.695310353433586"><ele>543.6666666666667</ele><time>2026-04-04T15:34:29.001Z</time></trkpt><trkpt lat="43.373696138429516" lon="12.695424508149522"><ele>544.0</ele><time>2026-04-04T15:34:30.001Z</time></trkpt><trkpt lat="43.373549011691985" lon="12.695563040168626"><ele>544.0</ele><time>2026-04-04T15:34:31.001Z</time></trkpt><trkpt lat="43.37340364351822" lon="12.695704782125032"><ele>544.0</ele><time>2026-04-04T15:34:32.001Z</time></trkpt><trkpt lat="43.37325585286001" lon="12.695843073063543"><ele>544.0</ele><time>2026-04-04T15:34:33.001Z</time></trkpt><trkpt lat="43.373093960014806" lon="12.695959055385478"><ele>544.3333333333334</ele><time>2026-04-04T15:34:34.001Z</time></trkpt><trkpt lat="43.37294107451389" lon="12.696115508904198"><ele>544.6666666666666</ele><time>2026-04-04T15:34:35.001Z</time></trkpt><trkpt lat="43.37277702814239" lon="12.696240343402684"><ele>545.0</ele><time>2026-04-04T15:34:36.001Z</time></trkpt><trkpt lat="43.37260883819228" lon="12.69635692985349"><ele>545.0</ele><time>2026-04-04T15:34:37.001Z</time></trkpt><trkpt lat="43.372439874042456" lon="12.696470766423309"><ele>545.0</ele><time>2026-04-04T15:34:38.001Z</time></trkpt><trkpt lat="43.372270011288386" lon="12.6965775541067"><ele>545.0</ele><time>2026-04-04T15:34:39.001Z</time></trkpt><trkpt lat="43.372105546064375" lon="12.696687604148144"><ele>545.6666666666666</ele><time>2026-04-04T15:34:40.001Z</time></trkpt><trkpt lat="43.371943015748315" lon="12.69680178772484"><ele>546.3333333333334</ele><time>2026-04-04T15:34:41.001Z</time></trkpt><trkpt lat="43.37177898388621" lon="12.696916499683658"><ele>547.0</ele><time>2026-04-04T15:34:42.001Z</time></trkpt><trkpt lat="43.371614990152906" lon="12.697028378238704"><ele>547.0</ele><time>2026-04-04T15:34:43.001Z</time></trkpt><trkpt lat="43.371451509632614" lon="12.697142185873652"><ele>547.0</ele><time>2026-04-04T15:34:44.001Z</time></trkpt><trkpt lat="43.37129163781777" lon="12.697263185302218"><ele>547.0</ele><time>2026-04-04T15:34:45.001Z</time></trkpt><trkpt lat="43.37113691673786" lon="12.697398447991347"><ele>545.6666666666667</ele><time>2026-04-04T15:34:46.001Z</time></trkpt><trkpt lat="43.37099490019823" lon="12.69755808019257"><ele>544.3333333333334</ele><time>2026-04-04T15:34:47.001Z</time></trkpt><trkpt lat="43.37085863264089" lon="12.697731636719993"><ele>543.0</ele><time>2026-04-04T15:34:48.001Z</time></trkpt><trkpt lat="43.37072177401384" lon="12.697906545129866"><ele>543.0</ele><time>2026-04-04T15:34:49.001Z</time></trkpt><trkpt lat="43.37058112896143" lon="12.698077190475573"><ele>543.0</ele><time>2026-04-04T15:34:50.001Z</time></trkpt><trkpt lat="43.37044042929205" lon="12.698254134871075"><ele>543.0</ele><time>2026-04-04T15:34:51.001Z</time></trkpt><trkpt lat="43.37030166811057" lon="12.698438953423656"><ele>541.3333333333334</ele><time>2026-04-04T15:34:52.001Z</time></trkpt><trkpt lat="43.37016367532511" lon="12.698632934645165"><ele>539.6666666666667</ele><time>2026-04-04T15:34:53.001Z</time></trkpt><trkpt lat="43.37001894847051" lon="12.69882734158172"><ele>538.0</ele><time>2026-04-04T15:34:54.001Z</time></trkpt><trkpt lat="43.36986956830342" lon="12.699020872460018"><ele>538.0</ele><time>2026-04-04T15:34:55.001Z</time></trkpt><trkpt lat="43.369718720099556" lon="12.699221765230197"><ele>538.0</ele><time>2026-04-04T15:34:56.001Z</time></trkpt><trkpt lat="43.369568128801156" lon="12.699425607697625"><ele>538.0</ele><time>2026-04-04T15:34:57.001Z</time></trkpt><trkpt lat="43.36941359805047" lon="12.699627041414804"><ele>534.6666666666667</ele><time>2026-04-04T15:34:58.001Z</time></trkpt><trkpt lat="43.36925968980412" lon="12.699832190882665"><ele>531.3333333333334</ele><time>2026-04-04T15:34:59.001Z</time></trkpt><trkpt lat="43.36910583762601" lon="12.700044157884287"><ele>528.0</ele><time>2026-04-04T15:35:00.001Z</time></trkpt><trkpt lat="43.3689513702554" lon="12.700257391843898"><ele>525.0</ele><time>2026-04-04T15:35:01.001Z</time></trkpt><trkpt lat="43.36878951352721" lon="12.700464678518331"><ele>522.0</ele><time>2026-04-04T15:35:02.001Z</time></trkpt><trkpt lat="43.36862769588768" lon="12.700667632934753"><ele>519.0</ele><time>2026-04-04T15:35:03.001Z</time></trkpt><trkpt lat="43.368465642600505" lon="12.700867908940921"><ele>519.0</ele><time>2026-04-04T15:35:04.001Z</time></trkpt><trkpt lat="43.36830732599681" lon="12.701065242738604"><ele>519.0</ele><time>2026-04-04T15:35:05.001Z</time></trkpt><trkpt lat="43.36814713302998" lon="12.701259930434935"><ele>519.0</ele><time>2026-04-04T15:35:06.001Z</time></trkpt><trkpt lat="43.36798504960551" lon="12.701443982983337"><ele>519.6666666666666</ele><time>2026-04-04T15:35:07.001Z</time></trkpt><trkpt lat="43.36781942068736" lon="12.7016151907577"><ele>520.3333333333333</ele><time>2026-04-04T15:35:08.001Z</time></trkpt><trkpt lat="43.367649549688984" lon="12.701774543825705"><ele>521.0</ele><time>2026-04-04T15:35:09.001Z</time></trkpt><trkpt lat="43.367478035701204" lon="12.701927588511955"><ele>522.6666666666666</ele><time>2026-04-04T15:35:10.001Z</time></trkpt><trkpt lat="43.36730973482239" lon="12.702083488040717"><ele>524.3333333333334</ele><time>2026-04-04T15:35:11.001Z</time></trkpt><trkpt lat="43.36714384105906" lon="12.70223884966605"><ele>526.0</ele><time>2026-04-04T15:35:12.001Z</time></trkpt><trkpt lat="43.36698086840186" lon="12.702392997040116"><ele>526.0</ele><time>2026-04-04T15:35:13.001Z</time></trkpt><trkpt lat="43.36681992786959" lon="12.702544542220073"><ele>526.0</ele><time>2026-04-04T15:35:14.001Z</time></trkpt><trkpt lat="43.36666897370638" lon="12.702682181267026"><ele>526.0</ele><time>2026-04-04T15:35:15.001Z</time></trkpt><trkpt lat="43.366529021488965" lon="12.702808163184763"><ele>527.3333333333334</ele><time>2026-04-04T15:35:16.001Z</time></trkpt><trkpt lat="43.36639689389966" lon="12.702945914317661"><ele>528.6666666666666</ele><time>2026-04-04T15:35:17.001Z</time></trkpt><trkpt lat="43.36627301404776" lon="12.703103399878964"><ele>530.0</ele><time>2026-04-04T15:35:18.001Z</time></trkpt><trkpt lat="43.36615594966627" lon="12.703268797856497"><ele>530.0</ele><time>2026-04-04T15:35:19.001Z</time></trkpt><trkpt lat="43.36604122333109" lon="12.703432935996581"><ele>530.0</ele><time>2026-04-04T15:35:20.001Z</time></trkpt><trkpt lat="43.36592740103656" lon="12.703596249330149"><ele>530.0</ele><time>2026-04-04T15:35:21.001Z</time></trkpt><trkpt lat="43.365813476959275" lon="12.703759534545846"><ele>530.3333333333333</ele><time>2026-04-04T15:35:22.001Z</time></trkpt><trkpt lat="43.36570160383666" lon="12.703921342270538"><ele>530.6666666666666</ele><time>2026-04-04T15:35:23.001Z</time></trkpt><trkpt lat="43.3655889444405" lon="12.704088572605938"><ele>531.0</ele><time>2026-04-04T15:35:24.001Z</time></trkpt><trkpt lat="43.36547230940904" lon="12.704251979856398"><ele>529.6666666666666</ele><time>2026-04-04T15:35:25.001Z</time></trkpt><trkpt lat="43.36535294201349" lon="12.704415538822827"><ele>528.3333333333333</ele><time>2026-04-04T15:35:26.001Z</time></trkpt><trkpt lat="43.365233431013124" lon="12.704578403578857"><ele>527.0</ele><time>2026-04-04T15:35:27.001Z</time></trkpt><trkpt lat="43.36511742947173" lon="12.704738892849207"><ele>527.0</ele><time>2026-04-04T15:35:28.001Z</time></trkpt><trkpt lat="43.36500210949642" lon="12.704901535016496"><ele>527.0</ele><time>2026-04-04T15:35:29.001Z</time></trkpt><trkpt lat="43.364889816653964" lon="12.70506919119646"><ele>527.0</ele><time>2026-04-04T15:35:30.001Z</time></trkpt><trkpt lat="43.364783437187064" lon="12.70523891148462"><ele>527.6666666666666</ele><time>2026-04-04T15:35:31.001Z</time></trkpt><trkpt lat="43.36466943109414" lon="12.705408622963121"><ele>528.3333333333334</ele><time>2026-04-04T15:35:32.001Z</time></trkpt><trkpt lat="43.36455805192962" lon="12.705580563695934"><ele>529.0</ele><time>2026-04-04T15:35:33.001Z</time></trkpt><trkpt lat="43.36444072809997" lon="12.705754852809466"><ele>529.0</ele><time>2026-04-04T15:35:34.001Z</time></trkpt><trkpt lat="43.36432383938246" lon="12.705928681675868"><ele>529.0</ele><time>2026-04-04T15:35:35.001Z</time></trkpt><trkpt lat="43.364209754511336" lon="12.70610214519472"><ele>529.0</ele><time>2026-04-04T15:35:36.001Z</time></trkpt><trkpt lat="43.36409209723214" lon="12.70627323442966"><ele>528.6666666666667</ele><time>2026-04-04T15:35:37.001Z</time></trkpt><trkpt lat="43.363973766389805" lon="12.706440630483884"><ele>528.3333333333334</ele><time>2026-04-04T15:35:38.001Z</time></trkpt><trkpt lat="43.363856399685226" lon="12.706609056631395"><ele>528.0</ele><time>2026-04-04T15:35:39.001Z</time></trkpt><trkpt lat="43.36373853022102" lon="12.706776026374092"><ele>531.6666666666666</ele><time>2026-04-04T15:35:40.001Z</time></trkpt><trkpt lat="43.36361826501058" lon="12.706943011295088"><ele>535.3333333333333</ele><time>2026-04-04T15:35:41.002Z</time></trkpt><trkpt lat="43.36349917524897" lon="12.70711036362495"><ele>539.0</ele><time>2026-04-04T15:35:42.002Z</time></trkpt><trkpt lat="43.36337851339154" lon="12.707278373136349"><ele>539.0</ele><time>2026-04-04T15:35:43.002Z</time></trkpt><trkpt lat="43.363254599320435" lon="12.707442875296982"><ele>539.0</ele><time>2026-04-04T15:35:44.002Z</time></trkpt><trkpt lat="43.36312661778752" lon="12.707601796105696"><ele>539.0</ele><time>2026-04-04T15:35:45.002Z</time></trkpt><trkpt lat="43.36300285454437" lon="12.707766572234917"><ele>538.6666666666666</ele><time>2026-04-04T15:35:46.002Z</time></trkpt><trkpt lat="43.36287858446229" lon="12.707927586291776"><ele>538.3333333333334</ele><time>2026-04-04T15:35:47.002Z</time></trkpt><trkpt lat="43.36275387930539" lon="12.708087503234177"><ele>538.0</ele><time>2026-04-04T15:35:48.002Z</time></trkpt><trkpt lat="43.36261887040297" lon="12.70824515119273"><ele>538.0</ele><time>2026-04-04T15:35:49.002Z</time></trkpt><trkpt lat="43.36248793286174" lon="12.708403120432367"><ele>538.0</ele><time>2026-04-04T15:35:50.002Z</time></trkpt><trkpt lat="43.36236484914535" lon="12.708562502044485"><ele>538.0</ele><time>2026-04-04T15:35:51.002Z</time></trkpt><trkpt lat="43.36224108294265" lon="12.708718928444991"><ele>539.3333333333334</ele><time>2026-04-04T15:35:52.002Z</time></trkpt><trkpt lat="43.362114274772885" lon="12.708874846067294"><ele>540.6666666666666</ele><time>2026-04-04T15:35:53.002Z</time></trkpt><trkpt lat="43.361986954681555" lon="12.709030823609412"><ele>542.0</ele><time>2026-04-04T15:35:54.002Z</time></trkpt><trkpt lat="43.36186537991492" lon="12.709193204207438"><ele>542.0</ele><time>2026-04-04T15:35:55.002Z</time></trkpt><trkpt lat="43.36174796384188" lon="12.709365859850184"><ele>542.0</ele><time>2026-04-04T15:35:56.002Z</time></trkpt><trkpt lat="43.36164137693407" lon="12.70955078502016"><ele>542.0</ele><time>2026-04-04T15:35:57.002Z</time></trkpt><trkpt lat="43.36154219284132" lon="12.709744547129695"><ele>543.6666666666666</ele><time>2026-04-04T15:35:58.002Z</time></trkpt><trkpt lat="43.361445964450816" lon="12.709935753487555"><ele>545.3333333333334</ele><time>2026-04-04T15:35:59.002Z</time></trkpt><trkpt lat="43.361353930065384" lon="12.710130613598777"><ele>547.0</ele><time>2026-04-04T15:36:00.002Z</time></trkpt><trkpt lat="43.361287475936805" lon="12.710320677971964"><ele>543.6666666666667</ele><time>2026-04-04T15:36:01.002Z</time></trkpt><trkpt lat="43.36123692715677" lon="12.71052492414335"><ele>540.3333333333334</ele><time>2026-04-04T15:36:02.002Z</time></trkpt><trkpt lat="43.36119988838001" lon="12.710737072768554"><ele>537.0</ele><time>2026-04-04T15:36:03.002Z</time></trkpt><trkpt lat="43.36116653555911" lon="12.710955181944504"><ele>540.3333333333334</ele><time>2026-04-04T15:36:04.002Z</time></trkpt><trkpt lat="43.361130739694445" lon="12.71117478656915"><ele>543.6666666666667</ele><time>2026-04-04T15:36:05Z</time></trkpt><trkpt lat="43.36109343600429" lon="12.71139534800083"><ele>547.0</ele><time>2026-04-04T15:36:06Z</time></trkpt><trkpt lat="43.361054795735996" lon="12.711616433220705"><ele>547.0</ele><time>2026-04-04T15:36:07Z</time></trkpt><trkpt lat="43.36101718612553" lon="12.71183755757402"><ele>547.0</ele><time>2026-04-04T15:36:08Z</time></trkpt><trkpt lat="43.360965507873175" lon="12.712052145036893"><ele>547.0</ele><time>2026-04-04T15:36:09Z</time></trkpt><trkpt lat="43.3609108880254" lon="12.712252419276904"><ele>546.6666666666667</ele><time>2026-04-04T15:36:10Z</time></trkpt><trkpt lat="43.36085440765285" lon="12.712447739513166"><ele>546.3333333333334</ele><time>2026-04-04T15:36:11Z</time></trkpt><trkpt lat="43.360785272130364" lon="12.71264246931269"><ele>546.0</ele><time>2026-04-04T15:36:12Z</time></trkpt><trkpt lat="43.36070108359793" lon="12.712837763035209"><ele>546.0</ele><time>2026-04-04T15:36:13Z</time></trkpt><trkpt lat="43.36061258484669" lon="12.713033824045983"><ele>546.0</ele><time>2026-04-04T15:36:14Z</time></trkpt><trkpt lat="43.36051471607281" lon="12.71322346388009"><ele>546.0</ele><time>2026-04-04T15:36:15Z</time></trkpt><trkpt lat="43.3603993383892" lon="12.713401282476276"><ele>542.3333333333334</ele><time>2026-04-04T15:36:16Z</time></trkpt><trkpt lat="43.36027399968055" lon="12.7135789561753"><ele>538.6666666666667</ele><time>2026-04-04T15:36:17Z</time></trkpt><trkpt lat="43.36016000656147" lon="12.713760162610837"><ele>535.0</ele><time>2026-04-04T15:36:18Z</time></trkpt><trkpt lat="43.360037716975306" lon="12.713937870052728"><ele>535.0</ele><time>2026-04-04T15:36:19Z</time></trkpt><trkpt lat="43.359913760839575" lon="12.714115782663237"><ele>535.0</ele><time>2026-04-04T15:36:20Z</time></trkpt><trkpt lat="43.35978841959893" lon="12.71429945042529"><ele>535.0</ele><time>2026-04-04T15:36:21Z</time></trkpt><trkpt lat="43.359659713828215" lon="12.714479131075493"><ele>533.3333333333334</ele><time>2026-04-04T15:36:22Z</time></trkpt><trkpt lat="43.35952743467535" lon="12.714656389507246"><ele>531.6666666666666</ele><time>2026-04-04T15:36:23Z</time></trkpt><trkpt lat="43.35938760750048" lon="12.714825533004264"><ele>530.0</ele><time>2026-04-04T15:36:24Z</time></trkpt><trkpt lat="43.359240179350564" lon="12.714985118986815"><ele>530.0</ele><time>2026-04-04T15:36:25Z</time></trkpt><trkpt lat="43.35908986515786" lon="12.71513867856907"><ele>530.0</ele><time>2026-04-04T15:36:26Z</time></trkpt><trkpt lat="43.358939490980305" lon="12.715290044887176"><ele>530.0</ele><time>2026-04-04T15:36:27Z</time></trkpt><trkpt lat="43.358783733280816" lon="12.71544358496256"><ele>528.3333333333333</ele><time>2026-04-04T15:36:28Z</time></trkpt><trkpt lat="43.35863066004937" lon="12.71559739491406"><ele>526.6666666666666</ele><time>2026-04-04T15:36:29Z</time></trkpt><trkpt lat="43.358477228507276" lon="12.71574583166711"><ele>525.0</ele><time>2026-04-04T15:36:30Z</time></trkpt><trkpt lat="43.35832013230292" lon="12.71589131827916"><ele>525.0</ele><time>2026-04-04T15:36:31Z</time></trkpt><trkpt lat="43.35816141357264" lon="12.716030853478298"><ele>525.0</ele><time>2026-04-04T15:36:32Z</time></trkpt><trkpt lat="43.357997340249305" lon="12.716160890664922"><ele>525.0</ele><time>2026-04-04T15:36:33Z</time></trkpt><trkpt lat="43.35783354959277" lon="12.7162837781375"><ele>525.6666666666666</ele><time>2026-04-04T15:36:34Z</time></trkpt><trkpt lat="43.3576734534246" lon="12.71640160838434"><ele>526.3333333333333</ele><time>2026-04-04T15:36:35Z</time></trkpt><trkpt lat="43.35750610262449" lon="12.716510142806637"><ele>527.0</ele><time>2026-04-04T15:36:36Z</time></trkpt><trkpt lat="43.35733980034437" lon="12.716616024516739"><ele>528.3333333333333</ele><time>2026-04-04T15:36:37Z</time></trkpt><trkpt lat="43.3571742207331" lon="12.716712753320945"><ele>529.6666666666666</ele><time>2026-04-04T15:36:38Z</time></trkpt><trkpt lat="43.35701047431337" lon="12.71682365559384"><ele>531.0</ele><time>2026-04-04T15:36:39Z</time></trkpt><trkpt lat="43.35685598375377" lon="12.71696400413864"><ele>531.0</ele><time>2026-04-04T15:36:40Z</time></trkpt><trkpt lat="43.356700259134826" lon="12.717107908152892"><ele>531.0</ele><time>2026-04-04T15:36:41.001Z</time></trkpt><trkpt lat="43.356537221269875" lon="12.7172418918141"><ele>531.0</ele><time>2026-04-04T15:36:42.001Z</time></trkpt><trkpt lat="43.35637702195879" lon="12.717385883132488"><ele>530.6666666666666</ele><time>2026-04-04T15:36:43.001Z</time></trkpt><trkpt lat="43.35621155918712" lon="12.71751159831592"><ele>530.3333333333333</ele><time>2026-04-04T15:36:44.001Z</time></trkpt><trkpt lat="43.35604089848817" lon="12.71763071674674"><ele>530.0</ele><time>2026-04-04T15:36:45.001Z</time></trkpt><trkpt lat="43.35587722877504" lon="12.717769878223013"><ele>530.0</ele><time>2026-04-04T15:36:46.001Z</time></trkpt><trkpt lat="43.35570631418844" lon="12.717894758478305"><ele>530.0</ele><time>2026-04-04T15:36:47.001Z</time></trkpt><trkpt lat="43.35553344281197" lon="12.71801780241944"><ele>530.0</ele><time>2026-04-04T15:36:48.001Z</time></trkpt><trkpt lat="43.35536337698983" lon="12.718152617757305"><ele>526.3333333333333</ele><time>2026-04-04T15:36:49.001Z</time></trkpt><trkpt lat="43.35518799926692" lon="12.71827312955795"><ele>522.6666666666666</ele><time>2026-04-04T15:36:50.001Z</time></trkpt><trkpt lat="43.35501627702376" lon="12.71839629280637"><ele>519.0</ele><time>2026-04-04T15:36:51.001Z</time></trkpt><trkpt lat="43.35484430329656" lon="12.71852012660917"><ele>519.3333333333334</ele><time>2026-04-04T15:36:52.001Z</time></trkpt><trkpt lat="43.35468132964069" lon="12.718644783086784"><ele>519.6666666666667</ele><time>2026-04-04T15:36:53.001Z</time></trkpt><trkpt lat="43.35452951831903" lon="12.718778377640886"><ele>520.0</ele><time>2026-04-04T15:36:54.001Z</time></trkpt><trkpt lat="43.354382601340355" lon="12.71891684148835"><ele>520.0</ele><time>2026-04-04T15:36:55.001Z</time></trkpt><trkpt lat="43.3542434800357" lon="12.719057207984822"><ele>520.0</ele><time>2026-04-04T15:36:56.001Z</time></trkpt><trkpt lat="43.354094767227934" lon="12.719188191443362"><ele>520.0</ele><time>2026-04-04T15:36:57.001Z</time></trkpt><trkpt lat="43.35393583942066" lon="12.719314815333902"><ele>517.6666666666667</ele><time>2026-04-04T15:36:58.001Z</time></trkpt><trkpt lat="43.35377836629119" lon="12.71944617661858"><ele>515.3333333333334</ele><time>2026-04-04T15:36:59.001Z</time></trkpt><trkpt lat="43.35362105374522" lon="12.71958962261724"><ele>513.0</ele><time>2026-04-04T15:37:00.001Z</time></trkpt><trkpt lat="43.35346428501223" lon="12.719733735146134"><ele>513.0</ele><time>2026-04-04T15:37:01.001Z</time></trkpt><trkpt lat="43.35330261264346" lon="12.71988161746732"><ele>513.0</ele><time>2026-04-04T15:37:02.001Z</time></trkpt><trkpt lat="43.35313726388232" lon="12.72002641750196"><ele>513.0</ele><time>2026-04-04T15:37:03.001Z</time></trkpt><trkpt lat="43.352965530620764" lon="12.720164363355796"><ele>512.6666666666666</ele><time>2026-04-04T15:37:04.001Z</time></trkpt><trkpt lat="43.352795630032844" lon="12.720308404361788"><ele>512.3333333333333</ele><time>2026-04-04T15:37:05.001Z</time></trkpt><trkpt lat="43.35262969909825" lon="12.720462287588061"><ele>512.0</ele><time>2026-04-04T15:37:06.001Z</time></trkpt><trkpt lat="43.35245880903978" lon="12.720608538462095"><ele>512.0</ele><time>2026-04-04T15:37:07.001Z</time></trkpt><trkpt lat="43.35228819919922" lon="12.720750416668857"><ele>512.0</ele><time>2026-04-04T15:37:08.001Z</time></trkpt><trkpt lat="43.3521168932346" lon="12.720890897767788"><ele>512.0</ele><time>2026-04-04T15:37:09.001Z</time></trkpt><trkpt lat="43.35194484520106" lon="12.7210270301939"><ele>512.3333333333333</ele><time>2026-04-04T15:37:10.001Z</time></trkpt><trkpt lat="43.35177541550168" lon="12.721156178052626"><ele>512.6666666666666</ele><time>2026-04-04T15:37:11.001Z</time></trkpt><trkpt lat="43.351611506090755" lon="12.72127751994932"><ele>513.0</ele><time>2026-04-04T15:37:12.001Z</time></trkpt><trkpt lat="43.35145235233289" lon="12.721395622690572"><ele>509.33333333333337</ele><time>2026-04-04T15:37:13.001Z</time></trkpt><trkpt lat="43.351305955887405" lon="12.721533578792076"><ele>505.6666666666667</ele><time>2026-04-04T15:37:14.001Z</time></trkpt><trkpt lat="43.351181368625575" lon="12.721706191421925"><ele>502.0</ele><time>2026-04-04T15:37:15.001Z</time></trkpt><trkpt lat="43.35108054073942" lon="12.72191218281494"><ele>502.0</ele><time>2026-04-04T15:37:16.001Z</time></trkpt><trkpt lat="43.35099665319869" lon="12.722131745948703"><ele>502.0</ele><time>2026-04-04T15:37:17.001Z</time></trkpt><trkpt lat="43.350915810865416" lon="12.72235159802106"><ele>502.0</ele><time>2026-04-04T15:37:18.001Z</time></trkpt><trkpt lat="43.35082025674409" lon="12.722555778008344"><ele>502.0</ele><time>2026-04-04T15:37:19.001Z</time></trkpt><trkpt lat="43.35070343285049" lon="12.722725710989822"><ele>502.0</ele><time>2026-04-04T15:37:20.001Z</time></trkpt><trkpt lat="43.35055832318765" lon="12.722816156799905"><ele>502.0</ele><time>2026-04-04T15:37:21.001Z</time></trkpt><trkpt lat="43.35041071511369" lon="12.722869087160069"><ele>501.6666666666667</ele><time>2026-04-04T15:37:22.001Z</time></trkpt><trkpt lat="43.35025965707956" lon="12.72293550939588"><ele>501.33333333333337</ele><time>2026-04-04T15:37:23.001Z</time></trkpt><trkpt lat="43.35010177467928" lon="12.722983373670198"><ele>501.0</ele><time>2026-04-04T15:37:24.001Z</time></trkpt><trkpt lat="43.34994939661025" lon="12.72303718064684"><ele>501.0</ele><time>2026-04-04T15:37:25.001Z</time></trkpt><trkpt lat="43.34979930175691" lon="12.723093867388073"><ele>501.0</ele><time>2026-04-04T15:37:26.001Z</time></trkpt><trkpt lat="43.34965223418213" lon="12.723159676634683"><ele>501.0</ele><time>2026-04-04T15:37:27.001Z</time></trkpt><trkpt lat="43.3495099582077" lon="12.723241320102058"><ele>500.66666666666663</ele><time>2026-04-04T15:37:28.001Z</time></trkpt><trkpt lat="43.349363167578325" lon="12.723321095565526"><ele>500.3333333333333</ele><time>2026-04-04T15:37:29.001Z</time></trkpt><trkpt lat="43.34922693935609" lon="12.72342039713788"><ele>500.0</ele><time>2026-04-04T15:37:30.001Z</time></trkpt><trkpt lat="43.34908747263513" lon="12.723520259120619"><ele>500.25</ele><time>2026-04-04T15:37:31.001Z</time></trkpt><trkpt lat="43.34895344035022" lon="12.723617894678144"><ele>500.5</ele><time>2026-04-04T15:37:32.001Z</time></trkpt><trkpt lat="43.348822854154704" lon="12.72371432479727"><ele>500.75</ele><time>2026-04-04T15:37:33.001Z</time></trkpt><trkpt lat="43.34869529527636" lon="12.723811462685251"><ele>501.0</ele><time>2026-04-04T15:37:34.001Z</time></trkpt><trkpt lat="43.34857005838344" lon="12.723904626552306"><ele>501.0</ele><time>2026-04-04T15:37:35.001Z</time></trkpt><trkpt lat="43.34844596455273" lon="12.723995796378063"><ele>501.0</ele><time>2026-04-04T15:37:36.001Z</time></trkpt><trkpt lat="43.348319339599996" lon="12.72409040458909"><ele>501.0</ele><time>2026-04-04T15:37:37.001Z</time></trkpt><trkpt lat="43.348194122632606" lon="12.72419090679638"><ele>501.0</ele><time>2026-04-04T15:37:38.001Z</time></trkpt><trkpt lat="43.348070084727325" lon="12.724293641112208"><ele>499.75</ele><time>2026-04-04T15:37:39.001Z</time></trkpt><trkpt lat="43.347939457147106" lon="12.724389690631881"><ele>498.5</ele><time>2026-04-04T15:37:40.001Z</time></trkpt><trkpt lat="43.347807732532026" lon="12.724480210976132"><ele>497.25</ele><time>2026-04-04T15:37:41.001Z</time></trkpt><trkpt lat="43.34767815280525" lon="12.724576792590902"><ele>496.0</ele><time>2026-04-04T15:37:42.001Z</time></trkpt><trkpt lat="43.34754994160659" lon="12.724677452735117"><ele>496.0</ele><time>2026-04-04T15:37:43.001Z</time></trkpt><trkpt lat="43.347426834314625" lon="12.724771990498267"><ele>496.0</ele><time>2026-04-04T15:37:44.001Z</time></trkpt><trkpt lat="43.347306067130106" lon="12.72486231450784"><ele>496.0</ele><time>2026-04-04T15:37:45.001Z</time></trkpt><trkpt lat="43.34718834917878" lon="12.724948163511687"><ele>496.0</ele><time>2026-04-04T15:37:46.001Z</time></trkpt><trkpt lat="43.3470723239571" lon="12.725033170945357"><ele>496.25</ele><time>2026-04-04T15:37:47.001Z</time></trkpt><trkpt lat="43.34695857651377" lon="12.725118491007574"><ele>496.5</ele><time>2026-04-04T15:37:48.001Z</time></trkpt><trkpt lat="43.34684330813385" lon="12.725210019258848"><ele>496.75</ele><time>2026-04-04T15:37:49.001Z</time></trkpt><trkpt lat="43.34672599321056" lon="12.725302219085886"><ele>497.0</ele><time>2026-04-04T15:37:50.001Z</time></trkpt><trkpt lat="43.34660513263384" lon="12.725392177922467"><ele>497.0</ele><time>2026-04-04T15:37:51.001Z</time></trkpt><trkpt lat="43.346483821202014" lon="12.72548658719318"><ele>497.0</ele><time>2026-04-04T15:37:52.001Z</time></trkpt><trkpt lat="43.34635919252463" lon="12.725577090057106"><ele>497.0</ele><time>2026-04-04T15:37:53.001Z</time></trkpt><trkpt lat="43.34623713918219" lon="12.725669670195211"><ele>497.0</ele><time>2026-04-04T15:37:54.001Z</time></trkpt><trkpt lat="43.34611681483721" lon="12.725761721515473"><ele>496.25</ele><time>2026-04-04T15:37:55.002Z</time></trkpt><trkpt lat="43.34599610110443" lon="12.725848390013958"><ele>495.5</ele><time>2026-04-04T15:37:56.002Z</time></trkpt><trkpt lat="43.34587552673174" lon="12.725937363146416"><ele>494.75</ele><time>2026-04-04T15:37:57.002Z</time></trkpt><trkpt lat="43.34575487200273" lon="12.726027986586214"><ele>494.0</ele><time>2026-04-04T15:37:58.002Z</time></trkpt><trkpt lat="43.345635336622465" lon="12.726115684453308"><ele>492.75</ele><time>2026-04-04T15:37:59.002Z</time></trkpt><trkpt lat="43.34551456528159" lon="12.72620415931144"><ele>491.5</ele><time>2026-04-04T15:38:00.002Z</time></trkpt><trkpt lat="43.345393356838116" lon="12.726299273802029"><ele>490.25</ele><time>2026-04-04T15:38:01.002Z</time></trkpt><trkpt lat="43.34526761163505" lon="12.726386999298905"><ele>489.0</ele><time>2026-04-04T15:38:02.002Z</time></trkpt><trkpt lat="43.34514112002045" lon="12.726477668541579"><ele>489.0</ele><time>2026-04-04T15:38:03.002Z</time></trkpt><trkpt lat="43.345014825775934" lon="12.72657013625622"><ele>489.0</ele><time>2026-04-04T15:38:04.002Z</time></trkpt><trkpt lat="43.34488304156371" lon="12.726664591485742"><ele>489.0</ele><time>2026-04-04T15:38:05.002Z</time></trkpt><trkpt lat="43.34475392833326" lon="12.726765593491018"><ele>489.0</ele><time>2026-04-04T15:38:06.002Z</time></trkpt><trkpt lat="43.34461986099259" lon="12.72686984507459"><ele>488.66666666666663</ele><time>2026-04-04T15:38:07.002Z</time></trkpt><trkpt lat="43.34448387275357" lon="12.726971880582202"><ele>488.3333333333333</ele><time>2026-04-04T15:38:08.002Z</time></trkpt><trkpt lat="43.344346132381794" lon="12.727074975673194"><ele>488.0</ele><time>2026-04-04T15:38:09.002Z</time></trkpt><trkpt lat="43.344207545373024" lon="12.727174053394815"><ele>488.0</ele><time>2026-04-04T15:38:10.002Z</time></trkpt><trkpt lat="43.3440692002281" lon="12.727274805334313"><ele>488.0</ele><time>2026-04-04T15:38:11Z</time></trkpt><trkpt lat="43.34392829488701" lon="12.727372479738477"><ele>488.0</ele><time>2026-04-04T15:38:12Z</time></trkpt><trkpt lat="43.343787181370686" lon="12.72746726372319"><ele>487.3333333333333</ele><time>2026-04-04T15:38:13Z</time></trkpt><trkpt lat="43.34364916182889" lon="12.727565892343318"><ele>486.66666666666663</ele><time>2026-04-04T15:38:14Z</time></trkpt><trkpt lat="43.34350969892316" lon="12.727666453582197"><ele>486.0</ele><time>2026-04-04T15:38:15Z</time></trkpt><trkpt lat="43.34337139324063" lon="12.727768118103056"><ele>487.0</ele><time>2026-04-04T15:38:16Z</time></trkpt><trkpt lat="43.34323182086219" lon="12.72786820636873"><ele>488.0</ele><time>2026-04-04T15:38:17Z</time></trkpt><trkpt lat="43.34309272324803" lon="12.727970504428926"><ele>489.0</ele><time>2026-04-04T15:38:18Z</time></trkpt><trkpt lat="43.342955822546045" lon="12.728069297604506"><ele>489.0</ele><time>2026-04-04T15:38:19Z</time></trkpt><trkpt lat="43.34281889207526" lon="12.72816776104761"><ele>489.0</ele><time>2026-04-04T15:38:20Z</time></trkpt><trkpt lat="43.342683388621246" lon="12.728266863446253"><ele>489.0</ele><time>2026-04-04T15:38:21Z</time></trkpt><trkpt lat="43.342547649460876" lon="12.728365300962146"><ele>489.0</ele><time>2026-04-04T15:38:22Z</time></trkpt><trkpt lat="43.342412449561586" lon="12.728460859634511"><ele>489.0</ele><time>2026-04-04T15:38:23Z</time></trkpt><trkpt lat="43.342271485502195" lon="12.728560563487113"><ele>489.0</ele><time>2026-04-04T15:38:24Z</time></trkpt><trkpt lat="43.34213255269028" lon="12.728657211525418"><ele>489.0</ele><time>2026-04-04T15:38:25Z</time></trkpt><trkpt lat="43.34199275135306" lon="12.728757641932607"><ele>489.0</ele><time>2026-04-04T15:38:26Z</time></trkpt><trkpt lat="43.34185265235893" lon="12.728859927645049"><ele>489.0</ele><time>2026-04-04T15:38:27Z</time></trkpt><trkpt lat="43.34171359212373" lon="12.728964367048883"><ele>489.0</ele><time>2026-04-04T15:38:28Z</time></trkpt><trkpt lat="43.3415731964726" lon="12.72906832504501"><ele>489.0</ele><time>2026-04-04T15:38:29Z</time></trkpt><trkpt lat="43.341433641844766" lon="12.7291705566694"><ele>489.0</ele><time>2026-04-04T15:38:30Z</time></trkpt><trkpt lat="43.341296527168716" lon="12.72927364991377"><ele>488.66666666666663</ele><time>2026-04-04T15:38:31Z</time></trkpt><trkpt lat="43.34115741069592" lon="12.729377328769695"><ele>488.3333333333333</ele><time>2026-04-04T15:38:32Z</time></trkpt><trkpt lat="43.341018004952645" lon="12.729479822786212"><ele>488.0</ele><time>2026-04-04T15:38:33Z</time></trkpt><trkpt lat="43.340876785207904" lon="12.729581218495914"><ele>488.0</ele><time>2026-04-04T15:38:34Z</time></trkpt><trkpt lat="43.34073501430183" lon="12.729681606446169"><ele>488.0</ele><time>2026-04-04T15:38:35Z</time></trkpt><trkpt lat="43.34059285375005" lon="12.729780182032226"><ele>488.0</ele><time>2026-04-04T15:38:36Z</time></trkpt><trkpt lat="43.34044993102471" lon="12.729879338745006"><ele>487.0</ele><time>2026-04-04T15:38:37Z</time></trkpt><trkpt lat="43.34030698671027" lon="12.729977494577156"><ele>486.0</ele><time>2026-04-04T15:38:38Z</time></trkpt><trkpt lat="43.34016224120356" lon="12.730074900376232"><ele>485.0</ele><time>2026-04-04T15:38:39Z</time></trkpt><trkpt lat="43.34001487630483" lon="12.730170441895927"><ele>486.3333333333333</ele><time>2026-04-04T15:38:40Z</time></trkpt><trkpt lat="43.33986588156619" lon="12.730268834795208"><ele>487.66666666666663</ele><time>2026-04-04T15:38:41Z</time></trkpt><trkpt lat="43.33971337153705" lon="12.730368262544937"><ele>489.0</ele><time>2026-04-04T15:38:42Z</time></trkpt><trkpt lat="43.33955977921589" lon="12.730463218848733"><ele>489.0</ele><time>2026-04-04T15:38:43Z</time></trkpt><trkpt lat="43.339403191202756" lon="12.730561504554188"><ele>489.0</ele><time>2026-04-04T15:38:44Z</time></trkpt><trkpt lat="43.33924862515093" lon="12.730660720661572"><ele>489.0</ele><time>2026-04-04T15:38:45Z</time></trkpt><trkpt lat="43.33909498552238" lon="12.730761303450567"><ele>489.0</ele><time>2026-04-04T15:38:46Z</time></trkpt><trkpt lat="43.338940700600645" lon="12.730865447743366"><ele>489.0</ele><time>2026-04-04T15:38:47Z</time></trkpt><trkpt lat="43.33879143553531" lon="12.730977743994963"><ele>489.0</ele><time>2026-04-04T15:38:48Z</time></trkpt><trkpt lat="43.338646699175655" lon="12.731100729370338"><ele>488.0</ele><time>2026-04-04T15:38:49Z</time></trkpt><trkpt lat="43.33850945540525" lon="12.73123352667203"><ele>487.0</ele><time>2026-04-04T15:38:50Z</time></trkpt><trkpt lat="43.338379403789475" lon="12.731372768079552"><ele>486.0</ele><time>2026-04-04T15:38:51Z</time></trkpt><trkpt lat="43.33825453105761" lon="12.731513419600399"><ele>486.0</ele><time>2026-04-04T15:38:52.001Z</time></trkpt><trkpt lat="43.338127741199386" lon="12.731656452372187"><ele>486.0</ele><time>2026-04-04T15:38:53.001Z</time></trkpt><trkpt lat="43.3380070260965" lon="12.73179578328979"><ele>486.0</ele><time>2026-04-04T15:38:54.001Z</time></trkpt><trkpt lat="43.33788939122852" lon="12.7319361998761"><ele>485.0</ele><time>2026-04-04T15:38:55.001Z</time></trkpt><trkpt lat="43.33777395555188" lon="12.73207598868454"><ele>484.0</ele><time>2026-04-04T15:38:56.001Z</time></trkpt><trkpt lat="43.337661472865065" lon="12.73221942875967"><ele>483.0</ele><time>2026-04-04T15:38:57.001Z</time></trkpt><trkpt lat="43.33754743628718" lon="12.73236000669391"><ele>483.0</ele><time>2026-04-04T15:38:58.001Z</time></trkpt><trkpt lat="43.33743309653803" lon="12.732498030400665"><ele>483.0</ele><time>2026-04-04T15:38:59.001Z</time></trkpt><trkpt lat="43.33731848979333" lon="12.73263708030692"><ele>483.0</ele><time>2026-04-04T15:39:00.001Z</time></trkpt><trkpt lat="43.33720367056062" lon="12.732774038016446"><ele>482.0</ele><time>2026-04-04T15:39:01.001Z</time></trkpt><trkpt lat="43.33709020443977" lon="12.732915092713922"><ele>481.0</ele><time>2026-04-04T15:39:02.001Z</time></trkpt><trkpt lat="43.33697539099194" lon="12.733056795367308"><ele>480.0</ele><time>2026-04-04T15:39:03.001Z</time></trkpt><trkpt lat="43.33685828562876" lon="12.733197462406382"><ele>480.0</ele><time>2026-04-04T15:39:04.001Z</time></trkpt><trkpt lat="43.33674190636563" lon="12.733337887631173"><ele>480.0</ele><time>2026-04-04T15:39:05.001Z</time></trkpt><trkpt lat="43.336626977008706" lon="12.733478578691775"><ele>480.0</ele><time>2026-04-04T15:39:06.001Z</time></trkpt><trkpt lat="43.33651394071661" lon="12.733622605976892"><ele>480.33333333333337</ele><time>2026-04-04T15:39:07.001Z</time></trkpt><trkpt lat="43.336400848383946" lon="12.733765656096413"><ele>480.6666666666667</ele><time>2026-04-04T15:39:08.001Z</time></trkpt><trkpt lat="43.336284107557354" lon="12.733909976185618"><ele>481.0</ele><time>2026-04-04T15:39:09.001Z</time></trkpt><trkpt lat="43.336166915585956" lon="12.734052038997168"><ele>480.6666666666667</ele><time>2026-04-04T15:39:10.001Z</time></trkpt><trkpt lat="43.336051571347845" lon="12.734195946355113"><ele>480.33333333333337</ele><time>2026-04-04T15:39:11.001Z</time></trkpt><trkpt lat="43.3359347665711" lon="12.73433534816142"><ele>480.0</ele><time>2026-04-04T15:39:12.001Z</time></trkpt><trkpt lat="43.33582237224499" lon="12.734476239861374"><ele>480.0</ele><time>2026-04-04T15:39:13.001Z</time></trkpt><trkpt lat="43.33570970773908" lon="12.73461712003957"><ele>480.0</ele><time>2026-04-04T15:39:14.001Z</time></trkpt><trkpt lat="43.335596729868676" lon="12.734755485044847"><ele>480.0</ele><time>2026-04-04T15:39:15.001Z</time></trkpt><trkpt lat="43.335488532848025" lon="12.734889400062638"><ele>480.0</ele><time>2026-04-04T15:39:16.001Z</time></trkpt><trkpt lat="43.335379295418875" lon="12.735019166286378"><ele>479.5</ele><time>2026-04-04T15:39:17.001Z</time></trkpt><trkpt lat="43.3352735525886" lon="12.735151066107445"><ele>479.0</ele><time>2026-04-04T15:39:18.001Z</time></trkpt><trkpt lat="43.33516700788746" lon="12.735278453356042"><ele>478.5</ele><time>2026-04-04T15:39:19.001Z</time></trkpt><trkpt lat="43.33506392515798" lon="12.735410493805846"><ele>478.0</ele><time>2026-04-04T15:39:20.001Z</time></trkpt><trkpt lat="43.33495776595421" lon="12.735537759779602"><ele>479.0</ele><time>2026-04-04T15:39:21.001Z</time></trkpt><trkpt lat="43.33485993020243" lon="12.73565747541522"><ele>480.0</ele><time>2026-04-04T15:39:22.001Z</time></trkpt><trkpt lat="43.334768745498735" lon="12.735763101583842"><ele>481.0</ele><time>2026-04-04T15:39:23.001Z</time></trkpt><trkpt lat="43.33468587592486" lon="12.735862452529272"><ele>482.0</ele><time>2026-04-04T15:39:24.001Z</time></trkpt><trkpt lat="43.33460670034151" lon="12.735958714628078"><ele>483.5</ele><time>2026-04-04T15:39:25.001Z</time></trkpt><trkpt lat="43.334527739937805" lon="12.73605943983846"><ele>485.0</ele><time>2026-04-04T15:39:26.001Z</time></trkpt><trkpt lat="43.33444362942561" lon="12.7361632587659"><ele>486.5</ele><time>2026-04-04T15:39:27.001Z</time></trkpt><trkpt lat="43.33436169797672" lon="12.736270896208367"><ele>488.0</ele><time>2026-04-04T15:39:28.001Z</time></trkpt><trkpt lat="43.33427037085353" lon="12.736378196025262"><ele>488.0</ele><time>2026-04-04T15:39:29.001Z</time></trkpt><trkpt lat="43.33418508313094" lon="12.736488598311663"><ele>488.0</ele><time>2026-04-04T15:39:30.001Z</time></trkpt><trkpt lat="43.33409871136879" lon="12.736599376577162"><ele>488.0</ele><time>2026-04-04T15:39:31.001Z</time></trkpt><trkpt lat="43.33401441898156" lon="12.736705264342861"><ele>488.0</ele><time>2026-04-04T15:39:32.001Z</time></trkpt><trkpt lat="43.333932531298245" lon="12.736811914360386"><ele>488.79999999999995</ele><time>2026-04-04T15:39:33.001Z</time></trkpt><trkpt lat="43.33384880344133" lon="12.736910823200509"><ele>489.59999999999997</ele><time>2026-04-04T15:39:34.001Z</time></trkpt><trkpt lat="43.33376604334697" lon="12.737008468267454"><ele>490.40000000000003</ele><time>2026-04-04T15:39:35.001Z</time></trkpt><trkpt lat="43.33368608601234" lon="12.7371030286831"><ele>491.20000000000005</ele><time>2026-04-04T15:39:36.001Z</time></trkpt><trkpt lat="43.3336147185132" lon="12.73720508986247"><ele>492.0</ele><time>2026-04-04T15:39:37.001Z</time></trkpt><trkpt lat="43.333553748314536" lon="12.737295751069553"><ele>492.0</ele><time>2026-04-04T15:39:38.001Z</time></trkpt><trkpt lat="43.33349945627981" lon="12.737378096816775"><ele>492.00000000000006</ele><time>2026-04-04T15:39:39.001Z</time></trkpt><trkpt lat="43.33345182255535" lon="12.737449725597875"><ele>492.00000000000006</ele><time>2026-04-04T15:39:40.001Z</time></trkpt><trkpt lat="43.3333777113629" lon="12.737574365508491"><ele>492.0</ele><time>2026-04-04T15:39:42.001Z</time></trkpt><trkpt lat="43.3332965952076" lon="12.737705527850189"><ele>492.0</ele><time>2026-04-04T15:39:44.001Z</time></trkpt><trkpt lat="43.33324819413788" lon="12.737782251542725"><ele>491.6666666666667</ele><time>2026-04-04T15:39:45.001Z</time></trkpt><trkpt lat="43.33319590798425" lon="12.737861983208237"><ele>491.33333333333337</ele><time>2026-04-04T15:39:46.001Z</time></trkpt><trkpt lat="43.33314257098144" lon="12.73794409151726"><ele>491.0</ele><time>2026-04-04T15:39:47.001Z</time></trkpt><trkpt lat="43.33308350689843" lon="12.738029068268327"><ele>490.6666666666667</ele><time>2026-04-04T15:39:48.001Z</time></trkpt><trkpt lat="43.333026431977636" lon="12.738123268857136"><ele>490.33333333333337</ele><time>2026-04-04T15:39:49.001Z</time></trkpt><trkpt lat="43.33296349276936" lon="12.738217529190846"><ele>490.0</ele><time>2026-04-04T15:39:50.001Z</time></trkpt><trkpt lat="43.33290243284045" lon="12.738322048228612"><ele>490.0</ele><time>2026-04-04T15:39:51.001Z</time></trkpt><trkpt lat="43.33283838711921" lon="12.738429007499928"><ele>490.0</ele><time>2026-04-04T15:39:52.001Z</time></trkpt><trkpt lat="43.332771420394145" lon="12.73853695234962"><ele>490.0</ele><time>2026-04-04T15:39:53.001Z</time></trkpt><trkpt lat="43.332699050639675" lon="12.738642952098417"><ele>490.0</ele><time>2026-04-04T15:39:54.001Z</time></trkpt><trkpt lat="43.33262915194317" lon="12.738753180516856"><ele>490.0</ele><time>2026-04-04T15:39:55.001Z</time></trkpt><trkpt lat="43.332556163938" lon="12.73886439945051"><ele>490.4</ele><time>2026-04-04T15:39:56.001Z</time></trkpt><trkpt lat="43.33248421982811" lon="12.7389747360318"><ele>490.8</ele><time>2026-04-04T15:39:57.001Z</time></trkpt><trkpt lat="43.3324170482201" lon="12.739081412414533"><ele>491.20000000000005</ele><time>2026-04-04T15:39:58.001Z</time></trkpt><trkpt lat="43.33235038472149" lon="12.73918280860738"><ele>491.6</ele><time>2026-04-04T15:39:59.001Z</time></trkpt><trkpt lat="43.3322840581036" lon="12.739287999655938"><ele>492.0</ele><time>2026-04-04T15:40:00.001Z</time></trkpt><trkpt lat="43.33220855932544" lon="12.739381176045002"><ele>491.8</ele><time>2026-04-04T15:40:01.001Z</time></trkpt><trkpt lat="43.33213704781754" lon="12.739482279805987"><ele>491.6</ele><time>2026-04-04T15:40:02.001Z</time></trkpt><trkpt lat="43.33206967767088" lon="12.739580582152728"><ele>491.40000000000003</ele><time>2026-04-04T15:40:03.001Z</time></trkpt><trkpt lat="43.332002948289315" lon="12.739677409007543"><ele>491.20000000000005</ele><time>2026-04-04T15:40:04.001Z</time></trkpt><trkpt lat="43.33193399590696" lon="12.739779200422083"><ele>491.0</ele><time>2026-04-04T15:40:05.001Z</time></trkpt><trkpt lat="43.331868132813064" lon="12.739882945948914"><ele>491.0</ele><time>2026-04-04T15:40:06.001Z</time></trkpt><trkpt lat="43.33180499610982" lon="12.73999118690413"><ele>491.0</ele><time>2026-04-04T15:40:07.001Z</time></trkpt><trkpt lat="43.33174575760372" lon="12.740089162219917"><ele>491.0</ele><time>2026-04-04T15:40:08.002Z</time></trkpt><trkpt lat="43.331691100088236" lon="12.740188807663783"><ele>491.0</ele><time>2026-04-04T15:40:09.002Z</time></trkpt><trkpt lat="43.33163755275698" lon="12.740286490916167"><ele>491.0</ele><time>2026-04-04T15:40:10.002Z</time></trkpt><trkpt lat="43.331589515510736" lon="12.740383421078812"><ele>491.8333333333333</ele><time>2026-04-04T15:40:11.002Z</time></trkpt><trkpt lat="43.3315380846007" lon="12.740476004306503"><ele>492.66666666666663</ele><time>2026-04-04T15:40:12.002Z</time></trkpt><trkpt lat="43.33148487357616" lon="12.740570396212542"><ele>493.5</ele><time>2026-04-04T15:40:13.002Z</time></trkpt><trkpt lat="43.331429003886875" lon="12.740660711239617"><ele>494.33333333333337</ele><time>2026-04-04T15:40:14.002Z</time></trkpt><trkpt lat="43.3313785295058" lon="12.7407599076453"><ele>495.1666666666667</ele><time>2026-04-04T15:40:15.002Z</time></trkpt><trkpt lat="43.33132388739541" lon="12.740848912285106"><ele>496.0</ele><time>2026-04-04T15:40:16.002Z</time></trkpt><trkpt lat="43.33127191254235" lon="12.74094398411809"><ele>494.33333333333337</ele><time>2026-04-04T15:40:17Z</time></trkpt><trkpt lat="43.33123313976991" lon="12.74104263046359"><ele>492.6666666666667</ele><time>2026-04-04T15:40:18Z</time></trkpt><trkpt lat="43.331208288037054" lon="12.74114666538746"><ele>491.0</ele><time>2026-04-04T15:40:19Z</time></trkpt><trkpt lat="43.331194589789106" lon="12.741261504787335"><ele>489.33333333333337</ele><time>2026-04-04T15:40:20Z</time></trkpt><trkpt lat="43.3311887899159" lon="12.741388552057469"><ele>487.6666666666667</ele><time>2026-04-04T15:40:21Z</time></trkpt><trkpt lat="43.331189080064995" lon="12.741510415505816"><ele>486.0</ele><time>2026-04-04T15:40:22Z</time></trkpt><trkpt lat="43.33119523758915" lon="12.741646899347648"><ele>485.6</ele><time>2026-04-04T15:40:23Z</time></trkpt><trkpt lat="43.33119741442689" lon="12.74178192524746"><ele>485.20000000000005</ele><time>2026-04-04T15:40:24Z</time></trkpt><trkpt lat="43.33119931014744" lon="12.74191934551978"><ele>484.79999999999995</ele><time>2026-04-04T15:40:25Z</time></trkpt><trkpt lat="43.33119214936288" lon="12.7420566218267"><ele>484.4</ele><time>2026-04-04T15:40:26Z</time></trkpt><trkpt lat="43.33116895982932" lon="12.742188762348547"><ele>484.0</ele><time>2026-04-04T15:40:27Z</time></trkpt><trkpt lat="43.33116312659158" lon="12.742328928585145"><ele>483.0</ele><time>2026-04-04T15:40:28Z</time></trkpt><trkpt lat="43.33114405143526" lon="12.74246743122802"><ele>482.0</ele><time>2026-04-04T15:40:29Z</time></trkpt><trkpt lat="43.33111233903438" lon="12.742604859465342"><ele>481.0</ele><time>2026-04-04T15:40:30Z</time></trkpt><trkpt lat="43.33106407816631" lon="12.74273354189008"><ele>480.0</ele><time>2026-04-04T15:40:31Z</time></trkpt><trkpt lat="43.33100290916796" lon="12.742850347027549"><ele>479.0</ele><time>2026-04-04T15:40:32Z</time></trkpt><trkpt lat="43.330925718582165" lon="12.742948605265914"><ele>478.79999999999995</ele><time>2026-04-04T15:40:33Z</time></trkpt><trkpt lat="43.33083640770119" lon="12.743032593338272"><ele>478.59999999999997</ele><time>2026-04-04T15:40:34Z</time></trkpt><trkpt lat="43.33074616033669" lon="12.74311536709167"><ele>478.4</ele><time>2026-04-04T15:40:35Z</time></trkpt><trkpt lat="43.33065370139465" lon="12.743199225323467"><ele>478.2</ele><time>2026-04-04T15:40:36Z</time></trkpt><trkpt lat="43.33056491410421" lon="12.743284183541236"><ele>478.0</ele><time>2026-04-04T15:40:37Z</time></trkpt><trkpt lat="43.330471717117014" lon="12.743378348456211"><ele>477.75</ele><time>2026-04-04T15:40:38Z</time></trkpt><trkpt lat="43.33038045060108" lon="12.743472566589066"><ele>477.5</ele><time>2026-04-04T15:40:39Z</time></trkpt><trkpt lat="43.33029126745825" lon="12.74356586566057"><ele>477.25</ele><time>2026-04-04T15:40:40Z</time></trkpt><trkpt lat="43.33020512934408" lon="12.743666263332731"><ele>477.0</ele><time>2026-04-04T15:40:41Z</time></trkpt><trkpt lat="43.330119548482884" lon="12.74376714787576"><ele>478.0</ele><time>2026-04-04T15:40:42Z</time></trkpt><trkpt lat="43.33002742657093" lon="12.7438629053773"><ele>479.0</ele><time>2026-04-04T15:40:43Z</time></trkpt><trkpt lat="43.32993814192579" lon="12.74396724790694"><ele>480.0</ele><time>2026-04-04T15:40:44Z</time></trkpt><trkpt lat="43.32984310583974" lon="12.744071693592984"><ele>481.0</ele><time>2026-04-04T15:40:45Z</time></trkpt><trkpt lat="43.32974440594542" lon="12.744170609555166"><ele>481.25</ele><time>2026-04-04T15:40:46Z</time></trkpt><trkpt lat="43.32964562475972" lon="12.744263672749298"><ele>481.5</ele><time>2026-04-04T15:40:47Z</time></trkpt><trkpt lat="43.32954470893084" lon="12.744354013730664"><ele>481.75</ele><time>2026-04-04T15:40:48Z</time></trkpt><trkpt lat="43.32943707180038" lon="12.744436116563538"><ele>482.0</ele><time>2026-04-04T15:40:49Z</time></trkpt><trkpt lat="43.32932889487966" lon="12.744509907743462"><ele>482.0</ele><time>2026-04-04T15:40:50Z</time></trkpt><trkpt lat="43.329216119386174" lon="12.74454775646794"><ele>482.0</ele><time>2026-04-04T15:40:51Z</time></trkpt><trkpt lat="43.32910148980167" lon="12.744536888313709"><ele>482.0</ele><time>2026-04-04T15:40:52Z</time></trkpt><trkpt lat="43.32898412799509" lon="12.744519843672842"><ele>482.0</ele><time>2026-04-04T15:40:53Z</time></trkpt><trkpt lat="43.32886658335012" lon="12.74451817651551"><ele>484.75</ele><time>2026-04-04T15:40:54Z</time></trkpt><trkpt lat="43.328749894357344" lon="12.744489745445103"><ele>487.5</ele><time>2026-04-04T15:40:55Z</time></trkpt><trkpt lat="43.32863213611838" lon="12.744469327076333"><ele>490.25</ele><time>2026-04-04T15:40:56Z</time></trkpt><trkpt lat="43.32851018731926" lon="12.744451577833408"><ele>493.0</ele><time>2026-04-04T15:40:57Z</time></trkpt><trkpt lat="43.32839241143014" lon="12.744436160564694"><ele>493.0</ele><time>2026-04-04T15:40:58Z</time></trkpt><trkpt lat="43.32827313644442" lon="12.744430556070375"><ele>493.0</ele><time>2026-04-04T15:40:59Z</time></trkpt><trkpt lat="43.32814875165189" lon="12.744432241935748"><ele>493.0</ele><time>2026-04-04T15:41:00Z</time></trkpt><trkpt lat="43.32802342248477" lon="12.74443993678878"><ele>493.0</ele><time>2026-04-04T15:41:01Z</time></trkpt><trkpt lat="43.32789607628813" lon="12.744448906749616"><ele>494.0</ele><time>2026-04-04T15:41:02.001Z</time></trkpt><trkpt lat="43.32776840175153" lon="12.744460017223181"><ele>495.0</ele><time>2026-04-04T15:41:03.001Z</time></trkpt><trkpt lat="43.327637015542535" lon="12.744481980909741"><ele>496.0</ele><time>2026-04-04T15:41:04.001Z</time></trkpt><trkpt lat="43.327503683205634" lon="12.744501498461592"><ele>497.0</ele><time>2026-04-04T15:41:05.001Z</time></trkpt><trkpt lat="43.327370208784" lon="12.744523921265488"><ele>497.0</ele><time>2026-04-04T15:41:06.001Z</time></trkpt><trkpt lat="43.32723677531087" lon="12.744549179359467"><ele>497.0</ele><time>2026-04-04T15:41:07.001Z</time></trkpt><trkpt lat="43.327096458919634" lon="12.744572041623044"><ele>497.0</ele><time>2026-04-04T15:41:08.001Z</time></trkpt><trkpt lat="43.32695281074037" lon="12.744592467990593"><ele>497.0</ele><time>2026-04-04T15:41:09.001Z</time></trkpt><trkpt lat="43.3268134115315" lon="12.744609156318464"><ele>496.75</ele><time>2026-04-04T15:41:10.001Z</time></trkpt><trkpt lat="43.32668234156828" lon="12.74463049808713"><ele>496.5</ele><time>2026-04-04T15:41:11.001Z</time></trkpt><trkpt lat="43.32655326079453" lon="12.74465344838686"><ele>496.25</ele><time>2026-04-04T15:41:12.001Z</time></trkpt><trkpt lat="43.32642428426306" lon="12.744674963767288"><ele>496.0</ele><time>2026-04-04T15:41:13.001Z</time></trkpt><trkpt lat="43.326292992436876" lon="12.74469678281094"><ele>495.0</ele><time>2026-04-04T15:41:14.001Z</time></trkpt><trkpt lat="43.326166487096785" lon="12.744724414258236"><ele>494.0</ele><time>2026-04-04T15:41:15.001Z</time></trkpt><trkpt lat="43.326042018975805" lon="12.744793443236686"><ele>493.0</ele><time>2026-04-04T15:41:16.001Z</time></trkpt><trkpt lat="43.32593163137303" lon="12.744885795743164"><ele>492.0</ele><time>2026-04-04T15:41:17.001Z</time></trkpt><trkpt lat="43.32582882820945" lon="12.745002360415798"><ele>492.0</ele><time>2026-04-04T15:41:18.001Z</time></trkpt><trkpt lat="43.3257395123453" lon="12.745147665655525"><ele>492.0</ele><time>2026-04-04T15:41:19.001Z</time></trkpt><trkpt lat="43.32566227596511" lon="12.74530747102815"><ele>492.0</ele><time>2026-04-04T15:41:20.001Z</time></trkpt><trkpt lat="43.32559171094409" lon="12.745475653195625"><ele>492.0</ele><time>2026-04-04T15:41:21.001Z</time></trkpt><trkpt lat="43.32552846752046" lon="12.745657912815432"><ele>489.0</ele><time>2026-04-04T15:41:22.001Z</time></trkpt><trkpt lat="43.3254664570212" lon="12.745843141333806"><ele>486.0</ele><time>2026-04-04T15:41:23.001Z</time></trkpt><trkpt lat="43.32538626700105" lon="12.746022548202475"><ele>483.0</ele><time>2026-04-04T15:41:24.001Z</time></trkpt><trkpt lat="43.32532289539476" lon="12.746227175622982"><ele>483.0</ele><time>2026-04-04T15:41:25.001Z</time></trkpt><trkpt lat="43.32523865544261" lon="12.746408357057243"><ele>483.0</ele><time>2026-04-04T15:41:26.001Z</time></trkpt><trkpt lat="43.32515687642947" lon="12.746573944228867"><ele>483.0</ele><time>2026-04-04T15:41:27.001Z</time></trkpt><trkpt lat="43.32506285231914" lon="12.746742091011964"><ele>484.0</ele><time>2026-04-04T15:41:28.001Z</time></trkpt><trkpt lat="43.32495229090564" lon="12.746883480590533"><ele>485.0</ele><time>2026-04-04T15:41:29.001Z</time></trkpt><trkpt lat="43.32485288511727" lon="12.747041992196637"><ele>486.0</ele><time>2026-04-04T15:41:30.001Z</time></trkpt><trkpt lat="43.32476928213879" lon="12.747214095392694"><ele>485.66666666666663</ele><time>2026-04-04T15:41:31.001Z</time></trkpt><trkpt lat="43.324677092748935" lon="12.747375660813953"><ele>485.3333333333333</ele><time>2026-04-04T15:41:32.001Z</time></trkpt><trkpt lat="43.324585960067026" lon="12.747541678394402"><ele>485.0</ele><time>2026-04-04T15:41:33.001Z</time></trkpt><trkpt lat="43.324491133540945" lon="12.747710045927889"><ele>486.66666666666663</ele><time>2026-04-04T15:41:34.001Z</time></trkpt><trkpt lat="43.324399420041196" lon="12.747886425025834"><ele>488.33333333333337</ele><time>2026-04-04T15:41:35.001Z</time></trkpt><trkpt lat="43.32430771698189" lon="12.7480644454807"><ele>490.0</ele><time>2026-04-04T15:41:36.001Z</time></trkpt><trkpt lat="43.32420158612563" lon="12.748226630040339"><ele>490.0</ele><time>2026-04-04T15:41:37.001Z</time></trkpt><trkpt lat="43.32412754420185" lon="12.74840536362903"><ele>490.0</ele><time>2026-04-04T15:41:38.001Z</time></trkpt><trkpt lat="43.32404158051723" lon="12.748563380645084"><ele>490.0</ele><time>2026-04-04T15:41:39.001Z</time></trkpt><trkpt lat="43.32395452832227" lon="12.748727166580782"><ele>490.0</ele><time>2026-04-04T15:41:40.001Z</time></trkpt><trkpt lat="43.32387414260752" lon="12.748890261078797"><ele>491.5</ele><time>2026-04-04T15:41:41.001Z</time></trkpt><trkpt lat="43.323794992062766" lon="12.749054884941929"><ele>493.0</ele><time>2026-04-04T15:41:42.001Z</time></trkpt><trkpt lat="43.32371503869271" lon="12.7492189741434"><ele>494.5</ele><time>2026-04-04T15:41:43.001Z</time></trkpt><trkpt lat="43.32363010543851" lon="12.749379580292187"><ele>496.0</ele><time>2026-04-04T15:41:44.001Z</time></trkpt><trkpt lat="43.32354218452623" lon="12.749540185931219"><ele>497.0</ele><time>2026-04-04T15:41:45.001Z</time></trkpt><trkpt lat="43.323450932480725" lon="12.749697092165952"><ele>498.0</ele><time>2026-04-04T15:41:46.001Z</time></trkpt><trkpt lat="43.32334646423198" lon="12.749846629343946"><ele>499.0</ele><time>2026-04-04T15:41:47.001Z</time></trkpt><trkpt lat="43.32323333171218" lon="12.74999354385278"><ele>499.0</ele><time>2026-04-04T15:41:48.001Z</time></trkpt><trkpt lat="43.32311493659351" lon="12.75013091021879"><ele>499.0</ele><time>2026-04-04T15:41:49.001Z</time></trkpt><trkpt lat="43.322985673042815" lon="12.750258095607153"><ele>499.0</ele><time>2026-04-04T15:41:50.001Z</time></trkpt><trkpt lat="43.32284177899129" lon="12.750348750090197"><ele>500.25</ele><time>2026-04-04T15:41:51.001Z</time></trkpt><trkpt lat="43.32271132320246" lon="12.750461120588643"><ele>501.5</ele><time>2026-04-04T15:41:52.001Z</time></trkpt><trkpt lat="43.32257806033546" lon="12.750554796543273"><ele>502.75</ele><time>2026-04-04T15:41:53.001Z</time></trkpt><trkpt lat="43.32245647541127" lon="12.750648283075046"><ele>504.0</ele><time>2026-04-04T15:41:54.001Z</time></trkpt><trkpt lat="43.322338513586296" lon="12.750753427387071"><ele>503.0</ele><time>2026-04-04T15:41:55.001Z</time></trkpt><trkpt lat="43.322224468250404" lon="12.75087394749179"><ele>502.0</ele><time>2026-04-04T15:41:56.001Z</time></trkpt><trkpt lat="43.32211089379406" lon="12.751003471382752"><ele>501.0</ele><time>2026-04-04T15:41:57.001Z</time></trkpt><trkpt lat="43.32200143258253" lon="12.751141193375114"><ele>500.0</ele><time>2026-04-04T15:41:58.001Z</time></trkpt><trkpt lat="43.32187934956534" lon="12.75126605261224"><ele>500.0</ele><time>2026-04-04T15:41:59.001Z</time></trkpt><trkpt lat="43.32177271919839" lon="12.751418108564803"><ele>500.0</ele><time>2026-04-04T15:42:00.001Z</time></trkpt><trkpt lat="43.32168581396319" lon="12.751594311070068"><ele>500.0</ele><time>2026-04-04T15:42:01.001Z</time></trkpt><trkpt lat="43.321590723508514" lon="12.751764814848919"><ele>500.3333333333333</ele><time>2026-04-04T15:42:02.001Z</time></trkpt><trkpt lat="43.321499218965364" lon="12.751938177934548"><ele>500.66666666666663</ele><time>2026-04-04T15:42:03.001Z</time></trkpt><trkpt lat="43.32140682737875" lon="12.752111726112377"><ele>501.0</ele><time>2026-04-04T15:42:04.001Z</time></trkpt><trkpt lat="43.321309170105486" lon="12.75228158200851"><ele>501.33333333333337</ele><time>2026-04-04T15:42:05.001Z</time></trkpt><trkpt lat="43.321206491040954" lon="12.752445268058207"><ele>501.6666666666667</ele><time>2026-04-04T15:42:06.001Z</time></trkpt><trkpt lat="43.32109676312151" lon="12.752597455653259"><ele>502.0</ele><time>2026-04-04T15:42:07.001Z</time></trkpt><trkpt lat="43.320980822191466" lon="12.752730423117127"><ele>502.0</ele><time>2026-04-04T15:42:08.001Z</time></trkpt><trkpt lat="43.32085101549481" lon="12.752817474742274"><ele>502.0</ele><time>2026-04-04T15:42:09.001Z</time></trkpt><trkpt lat="43.32073197394295" lon="12.752922464902104"><ele>502.0</ele><time>2026-04-04T15:42:10.001Z</time></trkpt><trkpt lat="43.32060821955761" lon="12.752999178163375"><ele>502.0</ele><time>2026-04-04T15:42:11.001Z</time></trkpt><trkpt lat="43.32048479680371" lon="12.753084500188972"><ele>500.75</ele><time>2026-04-04T15:42:12.001Z</time></trkpt><trkpt lat="43.32035892927535" lon="12.753169240300828"><ele>499.5</ele><time>2026-04-04T15:42:13.001Z</time></trkpt><trkpt lat="43.32023517804325" lon="12.753251968911243"><ele>498.25</ele><time>2026-04-04T15:42:14.001Z</time></trkpt><trkpt lat="43.320109710860116" lon="12.753336591331497"><ele>497.0</ele><time>2026-04-04T15:42:15.001Z</time></trkpt><trkpt lat="43.319983953992924" lon="12.753422894743649"><ele>497.0</ele><time>2026-04-04T15:42:16.001Z</time></trkpt><trkpt lat="43.31985946733387" lon="12.753511829058553"><ele>497.0</ele><time>2026-04-04T15:42:17.001Z</time></trkpt><trkpt lat="43.3197348331014" lon="12.75359653714231"><ele>497.0</ele><time>2026-04-04T15:42:18.001Z</time></trkpt><trkpt lat="43.319608866098974" lon="12.753677207910032"><ele>497.0</ele><time>2026-04-04T15:42:19.001Z</time></trkpt><trkpt lat="43.31948337824481" lon="12.753769433594528"><ele>496.25</ele><time>2026-04-04T15:42:20.001Z</time></trkpt><trkpt lat="43.31936610220527" lon="12.753885036299215"><ele>495.5</ele><time>2026-04-04T15:42:21.001Z</time></trkpt><trkpt lat="43.31926218788336" lon="12.754020512366488"><ele>494.75</ele><time>2026-04-04T15:42:22.002Z</time></trkpt><trkpt lat="43.31917189080318" lon="12.754173981005852"><ele>494.0</ele><time>2026-04-04T15:42:23Z</time></trkpt><trkpt lat="43.3190945401644" lon="12.75434173206324"><ele>493.25</ele><time>2026-04-04T15:42:24Z</time></trkpt><trkpt lat="43.31902234030445" lon="12.75451454876179"><ele>492.5</ele><time>2026-04-04T15:42:25Z</time></trkpt><trkpt lat="43.31895356537276" lon="12.754683812377953"><ele>491.75</ele><time>2026-04-04T15:42:26Z</time></trkpt><trkpt lat="43.318881407823575" lon="12.754849574108393"><ele>491.0</ele><time>2026-04-04T15:42:27Z</time></trkpt><trkpt lat="43.318816196165436" lon="12.75501296823846"><ele>491.0</ele><time>2026-04-04T15:42:28Z</time></trkpt><trkpt lat="43.318746545238696" lon="12.755169638565317"><ele>491.0</ele><time>2026-04-04T15:42:29Z</time></trkpt><trkpt lat="43.31868273317378" lon="12.755321884586492"><ele>491.0</ele><time>2026-04-04T15:42:30Z</time></trkpt><trkpt lat="43.318628102363505" lon="12.755483222263816"><ele>491.0</ele><time>2026-04-04T15:42:31Z</time></trkpt><trkpt lat="43.31858123361673" lon="12.75564807470583"><ele>491.25</ele><time>2026-04-04T15:42:32Z</time></trkpt><trkpt lat="43.31853982537575" lon="12.755821356034737"><ele>491.5</ele><time>2026-04-04T15:42:33Z</time></trkpt><trkpt lat="43.31850054410044" lon="12.755992742264102"><ele>491.75</ele><time>2026-04-04T15:42:34Z</time></trkpt><trkpt lat="43.31846351312852" lon="12.756166875759948"><ele>492.0</ele><time>2026-04-04T15:42:35Z</time></trkpt><trkpt lat="43.31842812298108" lon="12.756341065241672"><ele>492.5</ele><time>2026-04-04T15:42:36Z</time></trkpt><trkpt lat="43.31839042086382" lon="12.756516064708325"><ele>493.0</ele><time>2026-04-04T15:42:37Z</time></trkpt><trkpt lat="43.318354799433855" lon="12.756689642230949"><ele>493.5</ele><time>2026-04-04T15:42:38Z</time></trkpt><trkpt lat="43.31832150258659" lon="12.756869258955442"><ele>494.0</ele><time>2026-04-04T15:42:39Z</time></trkpt><trkpt lat="43.31828980907931" lon="12.757046231152176"><ele>494.5</ele><time>2026-04-04T15:42:40Z</time></trkpt><trkpt lat="43.318265880379336" lon="12.757226604909569"><ele>495.0</ele><time>2026-04-04T15:42:41Z</time></trkpt><trkpt lat="43.3182434241293" lon="12.757413627602025"><ele>495.5</ele><time>2026-04-04T15:42:42Z</time></trkpt><trkpt lat="43.31822386621024" lon="12.757602982372097"><ele>496.0</ele><time>2026-04-04T15:42:43Z</time></trkpt><trkpt lat="43.31821732676192" lon="12.757789008652551"><ele>496.25</ele><time>2026-04-04T15:42:44Z</time></trkpt><trkpt lat="43.318221406910986" lon="12.757967751125529"><ele>496.5</ele><time>2026-04-04T15:42:45Z</time></trkpt><trkpt lat="43.31822742236069" lon="12.758137320567736"><ele>496.75</ele><time>2026-04-04T15:42:46Z</time></trkpt><trkpt lat="43.318235856622216" lon="12.758293314032148"><ele>497.0</ele><time>2026-04-04T15:42:47Z</time></trkpt><trkpt lat="43.31824270445022" lon="12.758419024359691"><ele>496.99999999999994</ele><time>2026-04-04T15:42:48Z</time></trkpt><trkpt lat="43.31825285310449" lon="12.75852110333293"><ele>497.0</ele><time>2026-04-04T15:42:49Z</time></trkpt><trkpt lat="43.318268162016395" lon="12.758617885303133"><ele>497.0</ele><time>2026-04-04T15:42:50Z</time></trkpt><trkpt lat="43.31827216276954" lon="12.758725421669746"><ele>497.0</ele><time>2026-04-04T15:42:51Z</time></trkpt><trkpt lat="43.318260352803314" lon="12.758829455957148"><ele>496.99999999999994</ele><time>2026-04-04T15:42:52Z</time></trkpt><trkpt lat="43.318229474641335" lon="12.758929103766347"><ele>497.0</ele><time>2026-04-04T15:42:53Z</time></trkpt><trkpt lat="43.3181786201865" lon="12.759018975144748"><ele>497.0</ele><time>2026-04-04T15:42:54Z</time></trkpt><trkpt lat="43.31811676061222" lon="12.759098854018276"><ele>497.00000000000006</ele><time>2026-04-04T15:42:55Z</time></trkpt><trkpt lat="43.31803967126816" lon="12.759163476801808"><ele>497.00000000000006</ele><time>2026-04-04T15:42:56Z</time></trkpt><trkpt lat="43.31795652766479" lon="12.759221439346252"><ele>497.0</ele><time>2026-04-04T15:42:57Z</time></trkpt><trkpt lat="43.31786740881835" lon="12.759268582198542"><ele>497.0</ele><time>2026-04-04T15:42:58Z</time></trkpt><trkpt lat="43.3177718054381" lon="12.75929159887749"><ele>497.0</ele><time>2026-04-04T15:42:59Z</time></trkpt><trkpt lat="43.31767677243429" lon="12.759277474038395"><ele>497.00000000000006</ele><time>2026-04-04T15:43:00Z</time></trkpt><trkpt lat="43.31758626361684" lon="12.75923552430017"><ele>497.00000000000006</ele><time>2026-04-04T15:43:01Z</time></trkpt><trkpt lat="43.317495150839825" lon="12.759174388222657"><ele>497.0</ele><time>2026-04-04T15:43:02Z</time></trkpt><trkpt lat="43.31741163624188" lon="12.759109237695966"><ele>497.0</ele><time>2026-04-04T15:43:03Z</time></trkpt><trkpt lat="43.31733513564587" lon="12.759050338369393"><ele>497.0</ele><time>2026-04-04T15:43:04Z</time></trkpt><trkpt lat="43.31724273288191" lon="12.758984370483375"><ele>497.00000000000006</ele><time>2026-04-04T15:43:05Z</time></trkpt><trkpt lat="43.31714886030602" lon="12.758920109516255"><ele>497.00000000000006</ele><time>2026-04-04T15:43:06Z</time></trkpt><trkpt lat="43.31705522072132" lon="12.758852639822152"><ele>497.0</ele><time>2026-04-04T15:43:07Z</time></trkpt><trkpt lat="43.31696121389453" lon="12.758781814826905"><ele>497.0</ele><time>2026-04-04T15:43:08Z</time></trkpt><trkpt lat="43.31686996136594" lon="12.758693168018032"><ele>497.75</ele><time>2026-04-04T15:43:09Z</time></trkpt><trkpt lat="43.31677371996988" lon="12.7586218856131"><ele>498.5</ele><time>2026-04-04T15:43:10Z</time></trkpt><trkpt lat="43.316673356478" lon="12.758549645915565"><ele>499.25</ele><time>2026-04-04T15:43:11.001Z</time></trkpt><trkpt lat="43.31656938046674" lon="12.758482828013777"><ele>500.0</ele><time>2026-04-04T15:43:12.001Z</time></trkpt><trkpt lat="43.316462473248876" lon="12.758419627942256"><ele>501.25</ele><time>2026-04-04T15:43:13.001Z</time></trkpt><trkpt lat="43.31634957650457" lon="12.758358814202218"><ele>502.5</ele><time>2026-04-04T15:43:14.001Z</time></trkpt><trkpt lat="43.31623455285842" lon="12.75829831595415"><ele>503.75</ele><time>2026-04-04T15:43:15.001Z</time></trkpt><trkpt lat="43.31611903188325" lon="12.758239094355195"><ele>505.0</ele><time>2026-04-04T15:43:16.001Z</time></trkpt><trkpt lat="43.316008278886756" lon="12.758180416048514"><ele>505.0</ele><time>2026-04-04T15:43:17.001Z</time></trkpt><trkpt lat="43.31589962258492" lon="12.758127978759383"><ele>505.0</ele><time>2026-04-04T15:43:18.001Z</time></trkpt><trkpt lat="43.31579088913647" lon="12.758085954941958"><ele>505.0</ele><time>2026-04-04T15:43:19.001Z</time></trkpt><trkpt lat="43.31568750145676" lon="12.75805057264542"><ele>505.0</ele><time>2026-04-04T15:43:20.001Z</time></trkpt><trkpt lat="43.31557522667895" lon="12.758035243417314"><ele>505.0</ele><time>2026-04-04T15:43:21.001Z</time></trkpt><trkpt lat="43.31546009032293" lon="12.758028003188688"><ele>504.75</ele><time>2026-04-04T15:43:22.001Z</time></trkpt><trkpt lat="43.31534884952358" lon="12.75802513667879"><ele>504.5</ele><time>2026-04-04T15:43:23.001Z</time></trkpt><trkpt lat="43.31523876790703" lon="12.758023438009356"><ele>504.25</ele><time>2026-04-04T15:43:24.001Z</time></trkpt><trkpt lat="43.31512072492397" lon="12.758027980733104"><ele>504.0</ele><time>2026-04-04T15:43:25.001Z</time></trkpt><trkpt lat="43.31499813726336" lon="12.758032940673091"><ele>504.0</ele><time>2026-04-04T15:43:26.001Z</time></trkpt><trkpt lat="43.314873601125555" lon="12.758041612719415"><ele>504.0</ele><time>2026-04-04T15:43:27.001Z</time></trkpt><trkpt lat="43.314752016707956" lon="12.758053357924021"><ele>504.0</ele><time>2026-04-04T15:43:28.001Z</time></trkpt><trkpt lat="43.31462458542653" lon="12.758060412655817"><ele>504.0</ele><time>2026-04-04T15:43:29.001Z</time></trkpt><trkpt lat="43.314499491694484" lon="12.758068448374198"><ele>503.5</ele><time>2026-04-04T15:43:30.001Z</time></trkpt><trkpt lat="43.314370141927874" lon="12.758081151438986"><ele>503.0</ele><time>2026-04-04T15:43:31.001Z</time></trkpt><trkpt lat="43.31423673917594" lon="12.758103942879108"><ele>502.5</ele><time>2026-04-04T15:43:32.001Z</time></trkpt><trkpt lat="43.314096240438" lon="12.758137620558644"><ele>502.0</ele><time>2026-04-04T15:43:33.001Z</time></trkpt><trkpt lat="43.31395705442689" lon="12.758177012509762"><ele>500.5</ele><time>2026-04-04T15:43:34.001Z</time></trkpt><trkpt lat="43.31381200815631" lon="12.75821717426094"><ele>499.0</ele><time>2026-04-04T15:43:35.001Z</time></trkpt><trkpt lat="43.31366797148666" lon="12.758259360359586"><ele>497.5</ele><time>2026-04-04T15:43:36.001Z</time></trkpt><trkpt lat="43.31351939222709" lon="12.758302875575042"><ele>496.0</ele><time>2026-04-04T15:43:37.001Z</time></trkpt><trkpt lat="43.31337217756059" lon="12.75834761387407"><ele>496.0</ele><time>2026-04-04T15:43:38.001Z</time></trkpt><trkpt lat="43.313225377962915" lon="12.758390650996223"><ele>496.0</ele><time>2026-04-04T15:43:39.001Z</time></trkpt><trkpt lat="43.31307714814082" lon="12.758433690161556"><ele>496.0</ele><time>2026-04-04T15:43:40.001Z</time></trkpt><trkpt lat="43.31292808376163" lon="12.758478483173535"><ele>495.6666666666667</ele><time>2026-04-04T15:43:41.001Z</time></trkpt><trkpt lat="43.312775998773716" lon="12.758525250381004"><ele>495.33333333333337</ele><time>2026-04-04T15:43:42.001Z</time></trkpt><trkpt lat="43.312625249278824" lon="12.758570276653405"><ele>495.0</ele><time>2026-04-04T15:43:43.001Z</time></trkpt><trkpt lat="43.312470880009734" lon="12.758614970415067"><ele>495.0</ele><time>2026-04-04T15:43:44.001Z</time></trkpt><trkpt lat="43.31231825312277" lon="12.75865596382778"><ele>495.0</ele><time>2026-04-04T15:43:45.001Z</time></trkpt><trkpt lat="43.312162770795524" lon="12.758697101310453"><ele>495.0</ele><time>2026-04-04T15:43:46.001Z</time></trkpt><trkpt lat="43.31200678497225" lon="12.758737866536398"><ele>494.66666666666663</ele><time>2026-04-04T15:43:47.001Z</time></trkpt><trkpt lat="43.3118520895456" lon="12.758773430858005"><ele>494.3333333333333</ele><time>2026-04-04T15:43:48.001Z</time></trkpt><trkpt lat="43.3116967370918" lon="12.758803782697235"><ele>494.0</ele><time>2026-04-04T15:43:49.001Z</time></trkpt><trkpt lat="43.31154026790384" lon="12.758837162075597"><ele>493.0</ele><time>2026-04-04T15:43:50.001Z</time></trkpt><trkpt lat="43.311382339667965" lon="12.758878098483212"><ele>492.0</ele><time>2026-04-04T15:43:51.001Z</time></trkpt><trkpt lat="43.31122611308222" lon="12.758922957591816"><ele>491.0</ele><time>2026-04-04T15:43:52.001Z</time></trkpt><trkpt lat="43.31106680932311" lon="12.758964987283747"><ele>491.0</ele><time>2026-04-04T15:43:53.001Z</time></trkpt><trkpt lat="43.310908734668466" lon="12.759002186549445"><ele>491.0</ele><time>2026-04-04T15:43:54.001Z</time></trkpt><trkpt lat="43.31074887517943" lon="12.759028201398339"><ele>491.0</ele><time>2026-04-04T15:43:55.001Z</time></trkpt><trkpt lat="43.31058730362256" lon="12.759046050668402"><ele>492.0</ele><time>2026-04-04T15:43:56.001Z</time></trkpt><trkpt lat="43.31042672141442" lon="12.759060354153421"><ele>493.0</ele><time>2026-04-04T15:43:57.001Z</time></trkpt><trkpt lat="43.31026411741587" lon="12.759074477767712"><ele>494.0</ele><time>2026-04-04T15:43:58.001Z</time></trkpt><trkpt lat="43.31010146689495" lon="12.759088327152948"><ele>494.0</ele><time>2026-04-04T15:43:59.001Z</time></trkpt><trkpt lat="43.30993937091733" lon="12.759101131082888"><ele>494.0</ele><time>2026-04-04T15:44:00.001Z</time></trkpt><trkpt lat="43.30977959824089" lon="12.759113482438824"><ele>494.0</ele><time>2026-04-04T15:44:01.001Z</time></trkpt><trkpt lat="43.309621425596426" lon="12.75912363222108"><ele>495.3333333333333</ele><time>2026-04-04T15:44:02.001Z</time></trkpt><trkpt lat="43.309465719269646" lon="12.759132101184884"><ele>496.66666666666663</ele><time>2026-04-04T15:44:03.001Z</time></trkpt><trkpt lat="43.30931024762437" lon="12.759136900643988"><ele>498.0</ele><time>2026-04-04T15:44:04.001Z</time></trkpt><trkpt lat="43.30915434300569" lon="12.75913168652161"><ele>498.0</ele><time>2026-04-04T15:44:05.001Z</time></trkpt><trkpt lat="43.308999411437654" lon="12.75910984789014"><ele>498.0</ele><time>2026-04-04T15:44:06.001Z</time></trkpt><trkpt lat="43.308844538750364" lon="12.75907664311788"><ele>498.0</ele><time>2026-04-04T15:44:07.001Z</time></trkpt><trkpt lat="43.30868796333322" lon="12.759036608333282"><ele>496.66666666666663</ele><time>2026-04-04T15:44:08.001Z</time></trkpt><trkpt lat="43.308528481442906" lon="12.758995984402096"><ele>495.3333333333333</ele><time>2026-04-04T15:44:09.001Z</time></trkpt><trkpt lat="43.308363667861514" lon="12.758959442306137"><ele>494.0</ele><time>2026-04-04T15:44:10.001Z</time></trkpt><trkpt lat="43.3081959911612" lon="12.758923478764387"><ele>492.0</ele><time>2026-04-04T15:44:11.001Z</time></trkpt><trkpt lat="43.30802364842585" lon="12.758886695652311"><ele>490.0</ele><time>2026-04-04T15:44:12.001Z</time></trkpt><trkpt lat="43.307849421602235" lon="12.758850284249373"><ele>488.0</ele><time>2026-04-04T15:44:13.001Z</time></trkpt><trkpt lat="43.30767072521692" lon="12.75881139495299"><ele>488.0</ele><time>2026-04-04T15:44:14.001Z</time></trkpt><trkpt lat="43.30749131485638" lon="12.758773022992932"><ele>488.0</ele><time>2026-04-04T15:44:15.001Z</time></trkpt><trkpt lat="43.307309331667376" lon="12.758739446471681"><ele>488.0</ele><time>2026-04-04T15:44:16.001Z</time></trkpt><trkpt lat="43.30712413461992" lon="12.758713511277683"><ele>486.3333333333333</ele><time>2026-04-04T15:44:17.001Z</time></trkpt><trkpt lat="43.30693488542762" lon="12.75870113243354"><ele>484.66666666666663</ele><time>2026-04-04T15:44:18.001Z</time></trkpt><trkpt lat="43.30674600118863" lon="12.758701635765002"><ele>483.0</ele><time>2026-04-04T15:44:19.001Z</time></trkpt><trkpt lat="43.306558441214484" lon="12.758708577493046"><ele>481.33333333333337</ele><time>2026-04-04T15:44:20.001Z</time></trkpt><trkpt lat="43.30637413412334" lon="12.75871611030328"><ele>479.6666666666667</ele><time>2026-04-04T15:44:21.001Z</time></trkpt><trkpt lat="43.30619259009732" lon="12.758721670661242"><ele>478.0</ele><time>2026-04-04T15:44:22.001Z</time></trkpt><trkpt lat="43.30601613176092" lon="12.758728252080672"><ele>478.0</ele><time>2026-04-04T15:44:23.001Z</time></trkpt><trkpt lat="43.30584519813233" lon="12.758735289266719"><ele>478.0</ele><time>2026-04-04T15:44:24.001Z</time></trkpt><trkpt lat="43.30568179664455" lon="12.75874157330497"><ele>478.0</ele><time>2026-04-04T15:44:25.001Z</time></trkpt><trkpt lat="43.30552022562677" lon="12.758750609249281"><ele>476.6666666666667</ele><time>2026-04-04T15:44:26.001Z</time></trkpt><trkpt lat="43.30536126484064" lon="12.75876241133405"><ele>475.33333333333337</ele><time>2026-04-04T15:44:27.001Z</time></trkpt><trkpt lat="43.30520445354893" lon="12.758775681132272"><ele>474.0</ele><time>2026-04-04T15:44:28.001Z</time></trkpt><trkpt lat="43.30504928483283" lon="12.758787996152865"><ele>474.0</ele><time>2026-04-04T15:44:29Z</time></trkpt><trkpt lat="43.304889540355504" lon="12.75879786585589"><ele>474.0</ele><time>2026-04-04T15:44:30Z</time></trkpt><trkpt lat="43.30472726864987" lon="12.758803321048061"><ele>474.0</ele><time>2026-04-04T15:44:31Z</time></trkpt><trkpt lat="43.30456558923111" lon="12.75880570619064"><ele>473.66666666666663</ele><time>2026-04-04T15:44:32Z</time></trkpt><trkpt lat="43.30439940653136" lon="12.758813361799794"><ele>473.3333333333333</ele><time>2026-04-04T15:44:33Z</time></trkpt><trkpt lat="43.30423056993776" lon="12.758824395549217"><ele>473.0</ele><time>2026-04-04T15:44:34Z</time></trkpt><trkpt lat="43.30406066217423" lon="12.758835905079769"><ele>472.66666666666663</ele><time>2026-04-04T15:44:35Z</time></trkpt><trkpt lat="43.30388955659624" lon="12.758843963960366"><ele>472.33333333333337</ele><time>2026-04-04T15:44:36Z</time></trkpt><trkpt lat="43.30372006587947" lon="12.758849430168304"><ele>472.0</ele><time>2026-04-04T15:44:37Z</time></trkpt><trkpt lat="43.30355336614244" lon="12.758840805970825"><ele>472.0</ele><time>2026-04-04T15:44:38Z</time></trkpt><trkpt lat="43.30339371543383" lon="12.758809403831652"><ele>472.0</ele><time>2026-04-04T15:44:39Z</time></trkpt><trkpt lat="43.30323780777355" lon="12.75875976874241"><ele>472.0</ele><time>2026-04-04T15:44:40Z</time></trkpt><trkpt lat="43.30308975834841" lon="12.758708211792028"><ele>472.75</ele><time>2026-04-04T15:44:41Z</time></trkpt><trkpt lat="43.302948763911694" lon="12.758665663575448"><ele>473.5</ele><time>2026-04-04T15:44:42Z</time></trkpt><trkpt lat="43.30281517101155" lon="12.758628853278818"><ele>474.25</ele><time>2026-04-04T15:44:43Z</time></trkpt><trkpt lat="43.30268911811949" lon="12.758591249263532"><ele>475.0</ele><time>2026-04-04T15:44:44Z</time></trkpt><trkpt lat="43.30257502627999" lon="12.758553703126841"><ele>474.6666666666667</ele><time>2026-04-04T15:44:45Z</time></trkpt><trkpt lat="43.30247153022423" lon="12.758508221996859"><ele>474.33333333333337</ele><time>2026-04-04T15:44:46Z</time></trkpt><trkpt lat="43.302381585841935" lon="12.758461814101828"><ele>474.0</ele><time>2026-04-04T15:44:47Z</time></trkpt><trkpt lat="43.302307476915956" lon="12.758424344729594"><ele>473.66666666666663</ele><time>2026-04-04T15:44:48Z</time></trkpt><trkpt lat="43.30223733643126" lon="12.758386937202406"><ele>473.3333333333333</ele><time>2026-04-04T15:44:49Z</time></trkpt><trkpt lat="43.302166826383726" lon="12.758351335862804"><ele>473.0</ele><time>2026-04-04T15:44:50Z</time></trkpt><trkpt lat="43.30210048938424" lon="12.75831995615174"><ele>473.0</ele><time>2026-04-04T15:44:51Z</time></trkpt><trkpt lat="43.30202785159914" lon="12.758281579922121"><ele>472.99999999999994</ele><time>2026-04-04T15:44:52Z</time></trkpt><trkpt lat="43.301947735294156" lon="12.758239388574404"><ele>472.99999999999994</ele><time>2026-04-04T15:44:53Z</time></trkpt><trkpt lat="43.301861282059654" lon="12.758192769964817"><ele>473.0</ele><time>2026-04-04T15:44:54Z</time></trkpt><trkpt lat="43.301770024568846" lon="12.758138965466737"><ele>473.0</ele><time>2026-04-04T15:44:55Z</time></trkpt><trkpt lat="43.301671500035845" lon="12.758079474489014"><ele>473.0</ele><time>2026-04-04T15:44:56Z</time></trkpt><trkpt lat="43.30156468971604" lon="12.758016970877476"><ele>473.0</ele><time>2026-04-04T15:44:57Z</time></trkpt><trkpt lat="43.30145600394005" lon="12.757955334583203"><ele>473.0</ele><time>2026-04-04T15:44:58Z</time></trkpt><trkpt lat="43.30134382266039" lon="12.757891589361032"><ele>473.0</ele><time>2026-04-04T15:44:59Z</time></trkpt><trkpt lat="43.301229468878375" lon="12.75782375914494"><ele>471.5</ele><time>2026-04-04T15:45:00Z</time></trkpt><trkpt lat="43.301108427267025" lon="12.757750100193276"><ele>470.0</ele><time>2026-04-04T15:45:01Z</time></trkpt><trkpt lat="43.30098025780357" lon="12.757673328701319"><ele>468.5</ele><time>2026-04-04T15:45:02Z</time></trkpt><trkpt lat="43.30084674923851" lon="12.757597553797783"><ele>467.0</ele><time>2026-04-04T15:45:03Z</time></trkpt><trkpt lat="43.30070873882141" lon="12.757516141609894"><ele>464.66666666666663</ele><time>2026-04-04T15:45:04Z</time></trkpt><trkpt lat="43.30057049948446" lon="12.757427709617133"><ele>462.33333333333337</ele><time>2026-04-04T15:45:05Z</time></trkpt><trkpt lat="43.30043433496866" lon="12.75733278104999"><ele>460.0</ele><time>2026-04-04T15:45:06Z</time></trkpt><trkpt lat="43.3003052291119" lon="12.757240679515135"><ele>460.0</ele><time>2026-04-04T15:45:07Z</time></trkpt><trkpt lat="43.30019700016748" lon="12.757158979629144"><ele>460.0</ele><time>2026-04-04T15:45:08Z</time></trkpt><trkpt lat="43.30010038149069" lon="12.757084737770159"><ele>460.0</ele><time>2026-04-04T15:45:09Z</time></trkpt><trkpt lat="43.30003057509652" lon="12.756998382358297"><ele>460.0</ele><time>2026-04-04T15:45:10Z</time></trkpt><trkpt lat="43.299985615166705" lon="12.756900142098592"><ele>460.0</ele><time>2026-04-04T15:45:11Z</time></trkpt><trkpt lat="43.29994112726894" lon="12.75682205108321"><ele>459.50000000000006</ele><time>2026-04-04T15:45:12Z</time></trkpt><trkpt lat="43.29983025059247" lon="12.756748233681549"><ele>459.0</ele><time>2026-04-04T15:45:14Z</time></trkpt><trkpt lat="43.299757573372844" lon="12.756771479261198"><ele>458.5</ele><time>2026-04-04T15:45:15Z</time></trkpt><trkpt lat="43.29971231144352" lon="12.756835104805337"><ele>458.0</ele><time>2026-04-04T15:45:16Z</time></trkpt><trkpt lat="43.299696011068775" lon="12.756919336765597"><ele>457.50000000000006</ele><time>2026-04-04T15:45:17Z</time></trkpt><trkpt lat="43.299704562895094" lon="12.757015353569754"><ele>457.0</ele><time>2026-04-04T15:45:18Z</time></trkpt><trkpt lat="43.2997421434649" lon="12.757116417044678"><ele>457.40000000000003</ele><time>2026-04-04T15:45:19Z</time></trkpt><trkpt lat="43.29978454825548" lon="12.757221184580516"><ele>457.80000000000007</ele><time>2026-04-04T15:45:20.001Z</time></trkpt><trkpt lat="43.29982051722843" lon="12.757342293671604"><ele>458.2</ele><time>2026-04-04T15:45:21.001Z</time></trkpt><trkpt lat="43.299859868238066" lon="12.757479241031023"><ele>458.6</ele><time>2026-04-04T15:45:22.001Z</time></trkpt><trkpt lat="43.299897555644" lon="12.757628096301032"><ele>459.0</ele><time>2026-04-04T15:45:23.001Z</time></trkpt><trkpt lat="43.299928740479935" lon="12.757791838431642"><ele>459.0</ele><time>2026-04-04T15:45:24.001Z</time></trkpt><trkpt lat="43.299951714678215" lon="12.75796694174707"><ele>459.0</ele><time>2026-04-04T15:45:25.001Z</time></trkpt><trkpt lat="43.29998014366672" lon="12.758147168353894"><ele>459.0</ele><time>2026-04-04T15:45:26.001Z</time></trkpt><trkpt lat="43.30001550195953" lon="12.758334720014895"><ele>459.0</ele><time>2026-04-04T15:45:27.001Z</time></trkpt><trkpt lat="43.300045979449216" lon="12.75853093701954"><ele>462.0</ele><time>2026-04-04T15:45:28.001Z</time></trkpt><trkpt lat="43.30007152790114" lon="12.758735822310292"><ele>465.0</ele><time>2026-04-04T15:45:29.001Z</time></trkpt><trkpt lat="43.300096496905795" lon="12.758942802593419"><ele>468.0</ele><time>2026-04-04T15:45:30.001Z</time></trkpt><trkpt lat="43.30012160916776" lon="12.759151927373471"><ele>468.0</ele><time>2026-04-04T15:45:31.001Z</time></trkpt><trkpt lat="43.30014976505713" lon="12.759362401392321"><ele>468.0</ele><time>2026-04-04T15:45:32.001Z</time></trkpt><trkpt lat="43.30018288421932" lon="12.759582770782504"><ele>468.0</ele><time>2026-04-04T15:45:33.001Z</time></trkpt><trkpt lat="43.300206827222326" lon="12.759805920243837"><ele>472.0</ele><time>2026-04-04T15:45:34.001Z</time></trkpt><trkpt lat="43.300223560490046" lon="12.760034275225374"><ele>476.0</ele><time>2026-04-04T15:45:35.001Z</time></trkpt><trkpt lat="43.30024680225529" lon="12.760267821927668"><ele>480.0</ele><time>2026-04-04T15:45:36.001Z</time></trkpt><trkpt lat="43.300264308942175" lon="12.760505189452614"><ele>482.0</ele><time>2026-04-04T15:45:37.001Z</time></trkpt><trkpt lat="43.30027770571629" lon="12.760744259816049"><ele>484.0</ele><time>2026-04-04T15:45:38.001Z</time></trkpt><trkpt lat="43.30028955749857" lon="12.760980263967504"><ele>486.0</ele><time>2026-04-04T15:45:39.001Z</time></trkpt><trkpt lat="43.300303114525015" lon="12.761221056268118"><ele>486.33333333333337</ele><time>2026-04-04T15:45:40.001Z</time></trkpt><trkpt lat="43.30031477279444" lon="12.76146193632487"><ele>486.6666666666667</ele><time>2026-04-04T15:45:41.001Z</time></trkpt><trkpt lat="43.30032927996119" lon="12.761708222719617"><ele>487.0</ele><time>2026-04-04T15:45:42.001Z</time></trkpt><trkpt lat="43.300346661505046" lon="12.761954655945488"><ele>487.0</ele><time>2026-04-04T15:45:43.001Z</time></trkpt><trkpt lat="43.300364208853246" lon="12.76220179812873"><ele>487.0</ele><time>2026-04-04T15:45:44.001Z</time></trkpt><trkpt lat="43.300380393748235" lon="12.762452543436721"><ele>487.0</ele><time>2026-04-04T15:45:45.001Z</time></trkpt><trkpt lat="43.300392423335985" lon="12.762706045671251"><ele>486.6666666666667</ele><time>2026-04-04T15:45:46.001Z</time></trkpt><trkpt lat="43.30040509981416" lon="12.76296312295472"><ele>486.33333333333337</ele><time>2026-04-04T15:45:47.001Z</time></trkpt><trkpt lat="43.300410602405435" lon="12.763219508199175"><ele>486.0</ele><time>2026-04-04T15:45:48.001Z</time></trkpt><trkpt lat="43.30042401690353" lon="12.763479961181753"><ele>485.66666666666663</ele><time>2026-04-04T15:45:49.001Z</time></trkpt><trkpt lat="43.3004355898438" lon="12.763747505673928"><ele>485.3333333333333</ele><time>2026-04-04T15:45:50.001Z</time></trkpt><trkpt lat="43.300448311859995" lon="12.764012940146232"><ele>485.0</ele><time>2026-04-04T15:45:51.001Z</time></trkpt><trkpt lat="43.30047193891231" lon="12.764288499453947"><ele>487.0</ele><time>2026-04-04T15:45:52.001Z</time></trkpt><trkpt lat="43.30048217564351" lon="12.764560157500435"><ele>489.0</ele><time>2026-04-04T15:45:53.001Z</time></trkpt><trkpt lat="43.300510622279546" lon="12.764829091179639"><ele>491.0</ele><time>2026-04-04T15:45:54.001Z</time></trkpt><trkpt lat="43.30056186448389" lon="12.76509232578837"><ele>492.66666666666663</ele><time>2026-04-04T15:45:55.001Z</time></trkpt><trkpt lat="43.30062822317298" lon="12.765350336178614"><ele>494.33333333333337</ele><time>2026-04-04T15:45:56.001Z</time></trkpt><trkpt lat="43.30070730863827" lon="12.765596354028638"><ele>496.0</ele><time>2026-04-04T15:45:57.001Z</time></trkpt><trkpt lat="43.30081429050832" lon="12.765841732407313"><ele>494.0</ele><time>2026-04-04T15:45:58.001Z</time></trkpt><trkpt lat="43.30091984162903" lon="12.766074499045969"><ele>492.0</ele><time>2026-04-04T15:45:59.001Z</time></trkpt><trkpt lat="43.30102764809507" lon="12.766299009919186"><ele>490.0</ele><time>2026-04-04T15:46:00.001Z</time></trkpt><trkpt lat="43.3011483044698" lon="12.766515143548315"><ele>490.0</ele><time>2026-04-04T15:46:01.001Z</time></trkpt><trkpt lat="43.301280878328335" lon="12.76671959248116"><ele>490.0</ele><time>2026-04-04T15:46:02.001Z</time></trkpt><trkpt lat="43.30141972635445" lon="12.766918445526494"><ele>490.0</ele><time>2026-04-04T15:46:03.001Z</time></trkpt><trkpt lat="43.30155858840552" lon="12.767117598931769"><ele>489.6666666666667</ele><time>2026-04-04T15:46:04.001Z</time></trkpt><trkpt lat="43.30169496669603" lon="12.767324239265895"><ele>489.33333333333337</ele><time>2026-04-04T15:46:05.001Z</time></trkpt><trkpt lat="43.301824355836416" lon="12.767538804373544"><ele>489.0</ele><time>2026-04-04T15:46:06.001Z</time></trkpt><trkpt lat="43.301947970287046" lon="12.767762187426626"><ele>489.0</ele><time>2026-04-04T15:46:07.001Z</time></trkpt><trkpt lat="43.302060693639945" lon="12.767998522739415"><ele>489.0</ele><time>2026-04-04T15:46:08.001Z</time></trkpt><trkpt lat="43.30216533267698" lon="12.768242814610685"><ele>489.0</ele><time>2026-04-04T15:46:09.001Z</time></trkpt><trkpt lat="43.30226155569553" lon="12.768493903738888"><ele>492.0</ele><time>2026-04-04T15:46:10.001Z</time></trkpt><trkpt lat="43.30235056583065" lon="12.768752895582464"><ele>495.0</ele><time>2026-04-04T15:46:11.001Z</time></trkpt><trkpt lat="43.30242829425773" lon="12.769018491566856"><ele>498.0</ele><time>2026-04-04T15:46:12.001Z</time></trkpt><trkpt lat="43.30249345730468" lon="12.769290078689316"><ele>498.0</ele><time>2026-04-04T15:46:13.001Z</time></trkpt><trkpt lat="43.302547344274466" lon="12.769567635280506"><ele>498.0</ele><time>2026-04-04T15:46:14.001Z</time></trkpt><trkpt lat="43.30259115681588" lon="12.769849643620946"><ele>498.0</ele><time>2026-04-04T15:46:15.001Z</time></trkpt><trkpt lat="43.302626927660576" lon="12.770131590698652"><ele>498.33333333333337</ele><time>2026-04-04T15:46:16.001Z</time></trkpt><trkpt lat="43.30265790694634" lon="12.770416960444859"><ele>498.6666666666667</ele><time>2026-04-04T15:46:17.001Z</time></trkpt><trkpt lat="43.30268669362221" lon="12.770704843521093"><ele>499.0</ele><time>2026-04-04T15:46:18.001Z</time></trkpt><trkpt lat="43.30271507305275" lon="12.770991965633177"><ele>499.0</ele><time>2026-04-04T15:46:19.001Z</time></trkpt><trkpt lat="43.30274352231195" lon="12.77127829865904"><ele>499.0</ele><time>2026-04-04T15:46:20.001Z</time></trkpt><trkpt lat="43.30277213619092" lon="12.771561873941838"><ele>499.0</ele><time>2026-04-04T15:46:21.001Z</time></trkpt><trkpt lat="43.3028013759914" lon="12.7718452682355"><ele>500.33333333333337</ele><time>2026-04-04T15:46:22.001Z</time></trkpt><trkpt lat="43.30282512554447" lon="12.772129060503598"><ele>501.66666666666663</ele><time>2026-04-04T15:46:23.001Z</time></trkpt><trkpt lat="43.302833074505465" lon="12.772415709404607"><ele>503.0</ele><time>2026-04-04T15:46:24.001Z</time></trkpt><trkpt lat="43.302827106429156" lon="12.77269953990748"><ele>504.66666666666663</ele><time>2026-04-04T15:46:25.001Z</time></trkpt><trkpt lat="43.30281069504614" lon="12.77298105105788"><ele>506.33333333333337</ele><time>2026-04-04T15:46:26.001Z</time></trkpt><trkpt lat="43.30278429835277" lon="12.773267024811869"><ele>508.0</ele><time>2026-04-04T15:46:27.001Z</time></trkpt><trkpt lat="43.30274697834368" lon="12.773547411675608"><ele>511.33333333333337</ele><time>2026-04-04T15:46:28.001Z</time></trkpt><trkpt lat="43.30269813415543" lon="12.773824574052469"><ele>514.6666666666666</ele><time>2026-04-04T15:46:29.001Z</time></trkpt><trkpt lat="43.302640673468126" lon="12.774098085288117"><ele>518.0</ele><time>2026-04-04T15:46:30.001Z</time></trkpt><trkpt lat="43.302577040565915" lon="12.774368878802747"><ele>519.6666666666666</ele><time>2026-04-04T15:46:31.001Z</time></trkpt><trkpt lat="43.30250754510793" lon="12.774640854327052"><ele>521.3333333333334</ele><time>2026-04-04T15:46:32.001Z</time></trkpt><trkpt lat="43.30243878954951" lon="12.774913026551598"><ele>523.0</ele><time>2026-04-04T15:46:33.001Z</time></trkpt><trkpt lat="43.30237310532425" lon="12.77518520071375"><ele>524.0</ele><time>2026-04-04T15:46:34.001Z</time></trkpt><trkpt lat="43.30230663080282" lon="12.775456484990261"><ele>525.0</ele><time>2026-04-04T15:46:35Z</time></trkpt><trkpt lat="43.30224046413119" lon="12.775729204437816"><ele>526.0</ele><time>2026-04-04T15:46:36Z</time></trkpt><trkpt lat="43.30217564153978" lon="12.776000359933818"><ele>526.0</ele><time>2026-04-04T15:46:37Z</time></trkpt><trkpt lat="43.30211388961778" lon="12.776271233842923"><ele>526.0</ele><time>2026-04-04T15:46:38Z</time></trkpt><trkpt lat="43.302058751967074" lon="12.776549601532624"><ele>526.0</ele><time>2026-04-04T15:46:39Z</time></trkpt><trkpt lat="43.30201352310865" lon="12.7768295280057"><ele>526.0</ele><time>2026-04-04T15:46:40Z</time></trkpt><trkpt lat="43.30197786348485" lon="12.77711063989724"><ele>526.0</ele><time>2026-04-04T15:46:41Z</time></trkpt><trkpt lat="43.301949622940924" lon="12.777393112913588"><ele>526.0</ele><time>2026-04-04T15:46:42Z</time></trkpt><trkpt lat="43.30192982830822" lon="12.777679596799214"><ele>527.6666666666667</ele><time>2026-04-04T15:46:43Z</time></trkpt><trkpt lat="43.301917058312874" lon="12.777966052648763"><ele>529.3333333333334</ele><time>2026-04-04T15:46:44Z</time></trkpt><trkpt lat="43.301909688152506" lon="12.778242388172961"><ele>531.0</ele><time>2026-04-04T15:46:45Z</time></trkpt><trkpt lat="43.30191353655073" lon="12.778522638495112"><ele>533.3333333333334</ele><time>2026-04-04T15:46:46Z</time></trkpt><trkpt lat="43.301923961831335" lon="12.778802856683072"><ele>535.6666666666667</ele><time>2026-04-04T15:46:47Z</time></trkpt><trkpt lat="43.30194154653874" lon="12.779085326275094"><ele>538.0</ele><time>2026-04-04T15:46:48.02Z</time></trkpt><trkpt lat="43.301967602668014" lon="12.779360544189995"><ele>538.0</ele><time>2026-04-04T15:46:49.021Z</time></trkpt><trkpt lat="43.302000450086254" lon="12.779635262522875"><ele>538.0</ele><time>2026-04-04T15:46:50.022Z</time></trkpt><trkpt lat="43.30203635178903" lon="12.77990278628364"><ele>538.0</ele><time>2026-04-04T15:46:51Z</time></trkpt><trkpt lat="43.302070991002736" lon="12.780241451455392"><ele>543.3333333333334</ele><time>2026-04-04T15:46:52Z</time></trkpt><trkpt lat="43.30210018440768" lon="12.780515795069991"><ele>548.6666666666666</ele><time>2026-04-04T15:46:53Z</time></trkpt><trkpt lat="43.30213905522974" lon="12.780798126660281"><ele>554.0</ele><time>2026-04-04T15:46:54Z</time></trkpt><trkpt lat="43.30217931149575" lon="12.781087438624938"><ele>558.6666666666666</ele><time>2026-04-04T15:46:55.019Z</time></trkpt><trkpt lat="43.30221735207215" lon="12.781370007665746"><ele>563.3333333333334</ele><time>2026-04-04T15:46:56.014Z</time></trkpt><trkpt lat="43.302254925767926" lon="12.781656735761423"><ele>568.0</ele><time>2026-04-04T15:46:57.019Z</time></trkpt><trkpt lat="43.30229065867809" lon="12.78194256642233"><ele>566.0</ele><time>2026-04-04T15:46:58.021Z</time></trkpt><trkpt lat="43.30232932431563" lon="12.782227390451489"><ele>564.0</ele><time>2026-04-04T15:46:59.018Z</time></trkpt><trkpt lat="43.30141955990651" lon="12.788036735740292"><ele>568.0</ele><time>2026-04-04T15:47:21Z</time></trkpt><trkpt lat="43.30132025811145" lon="12.788280216419606"><ele>572.0</ele><time>2026-04-04T15:47:22Z</time></trkpt><trkpt lat="43.30114859139727" lon="12.788769127441308"><ele>587.3333333333333</ele><time>2026-04-04T15:47:23Z</time></trkpt><trkpt lat="43.301036363070466" lon="12.78903594361113"><ele>602.6666666666666</ele><time>2026-04-04T15:47:24Z</time></trkpt><trkpt lat="43.30093845643846" lon="12.7892909242053"><ele>618.0</ele><time>2026-04-04T15:47:25Z</time></trkpt><trkpt lat="43.300837594502674" lon="12.789550380096399"><ele>630.6666666666666</ele><time>2026-04-04T15:47:26.021Z</time></trkpt><trkpt lat="43.30073958548126" lon="12.789806522134162"><ele>643.3333333333333</ele><time>2026-04-04T15:47:27.02Z</time></trkpt><trkpt lat="43.30064196011951" lon="12.790060366059132"><ele>656.0</ele><time>2026-04-04T15:47:28.016Z</time></trkpt><trkpt lat="43.30054061750617" lon="12.790317267704467"><ele>594.0</ele><time>2026-04-04T15:47:29.02Z</time></trkpt><trkpt lat="43.29959714059996" lon="12.792672466702928"><ele>592.0</ele><time>2026-04-04T15:47:39.078Z</time></trkpt><trkpt lat="43.299598933186836" lon="12.794366477217318"><ele>592.0</ele><time>2026-04-04T15:47:44.001Z</time></trkpt><trkpt lat="43.29955500284248" lon="12.794681372616234"><ele>592.0</ele><time>2026-04-04T15:47:45.001Z</time></trkpt><trkpt lat="43.29954011599822" lon="12.794970598398017"><ele>592.0</ele><time>2026-04-04T15:47:46.001Z</time></trkpt><trkpt lat="43.299526554951285" lon="12.795263722708956"><ele>598.6666666666667</ele><time>2026-04-04T15:47:47.001Z</time></trkpt><trkpt lat="43.299515902646874" lon="12.79555815777065"><ele>605.3333333333334</ele><time>2026-04-04T15:47:48.001Z</time></trkpt><trkpt lat="43.29950150044045" lon="12.795854418937338"><ele>612.0</ele><time>2026-04-04T15:47:49.001Z</time></trkpt><trkpt lat="43.29948840021708" lon="12.796148125474563"><ele>623.6666666666666</ele><time>2026-04-04T15:47:50.001Z</time></trkpt><trkpt lat="43.299476923887475" lon="12.796447243249306"><ele>635.3333333333333</ele><time>2026-04-04T15:47:51.02Z</time></trkpt><trkpt lat="43.29946497037016" lon="12.796740921643817"><ele>647.0</ele><time>2026-04-04T15:47:52.017Z</time></trkpt><trkpt lat="43.29945457518389" lon="12.797037406746819"><ele>655.3333333333333</ele><time>2026-04-04T15:47:53.019Z</time></trkpt><trkpt lat="43.29944496392895" lon="12.797333251168116"><ele>663.6666666666666</ele><time>2026-04-04T15:47:54.015Z</time></trkpt><trkpt lat="43.29943884301226" lon="12.797629533661585"><ele>672.0</ele><time>2026-04-04T15:47:55.019Z</time></trkpt><trkpt lat="43.299137754406125" lon="12.806812953215843"><ele>638.6666666666666</ele><time>2026-04-04T15:48:27.001Z</time></trkpt><trkpt lat="43.29912722589576" lon="12.807106368734237"><ele>605.3333333333333</ele><time>2026-04-04T15:48:28.001Z</time></trkpt><trkpt lat="43.29914646975713" lon="12.807395359193979"><ele>572.0</ele><time>2026-04-04T15:48:29.001Z</time></trkpt><trkpt lat="43.29914140252793" lon="12.807682200825766"><ele>571.6666666666666</ele><time>2026-04-04T15:48:30.001Z</time></trkpt><trkpt lat="43.29912751695442" lon="12.80796666885728"><ele>571.3333333333334</ele><time>2026-04-04T15:48:31.001Z</time></trkpt><trkpt lat="43.299122645391186" lon="12.808257606095374"><ele>571.0</ele><time>2026-04-04T15:48:32.001Z</time></trkpt><trkpt lat="43.299118060120385" lon="12.808546837264823"><ele>573.0</ele><time>2026-04-04T15:48:33.001Z</time></trkpt><trkpt lat="43.29912332968006" lon="12.808836821379941"><ele>575.0</ele><time>2026-04-04T15:48:34.001Z</time></trkpt><trkpt lat="43.29913104103396" lon="12.80913179104058"><ele>577.0</ele><time>2026-04-04T15:48:35.001Z</time></trkpt><trkpt lat="43.29914666791384" lon="12.809421659275937"><ele>586.6666666666667</ele><time>2026-04-04T15:48:36.001Z</time></trkpt><trkpt lat="43.2991636780734" lon="12.809711073011488"><ele>596.3333333333334</ele><time>2026-04-04T15:48:37.001Z</time></trkpt><trkpt lat="43.29918646487357" lon="12.809999117766628"><ele>606.0</ele><time>2026-04-04T15:48:38.001Z</time></trkpt><trkpt lat="43.29921474622522" lon="12.810285691299203"><ele>615.0</ele><time>2026-04-04T15:48:39.001Z</time></trkpt><trkpt lat="43.2992476472609" lon="12.810575584989659"><ele>624.0</ele><time>2026-04-04T15:48:40.018Z</time></trkpt><trkpt lat="43.29928302456779" lon="12.810859633946624"><ele>633.0</ele><time>2026-04-04T15:48:41.018Z</time></trkpt><trkpt lat="43.299321495819804" lon="12.81114039358077"><ele>633.0</ele><time>2026-04-04T15:48:42.017Z</time></trkpt><trkpt lat="43.29936702373373" lon="12.81142128553776"><ele>633.0</ele><time>2026-04-04T15:48:43.021Z</time></trkpt><trkpt lat="43.30315063245902" lon="12.823324548092506"><ele>589.0</ele><time>2026-04-04T15:49:28.002Z</time></trkpt><trkpt lat="43.30323736353707" lon="12.823592457887168"><ele>545.0</ele><time>2026-04-04T15:49:29.002Z</time></trkpt><trkpt lat="43.30332830573338" lon="12.823840330065577"><ele>501.0</ele><time>2026-04-04T15:49:30.002Z</time></trkpt><trkpt lat="43.3033794781689" lon="12.8241278511781"><ele>497.0</ele><time>2026-04-04T15:49:31.002Z</time></trkpt><trkpt lat="43.30343164300747" lon="12.824411993897646"><ele>493.0</ele><time>2026-04-04T15:49:32.002Z</time></trkpt><trkpt lat="43.3034655913554" lon="12.824700394880207"><ele>489.0</ele><time>2026-04-04T15:49:33.002Z</time></trkpt><trkpt lat="43.3034956361531" lon="12.824979307964007"><ele>489.66666666666663</ele><time>2026-04-04T15:49:34Z</time></trkpt><trkpt lat="43.303521645688065" lon="12.825268592695883"><ele>490.3333333333333</ele><time>2026-04-04T15:49:35Z</time></trkpt><trkpt lat="43.303536546465075" lon="12.825560465929485"><ele>491.0</ele><time>2026-04-04T15:49:36Z</time></trkpt><trkpt lat="43.30353966729822" lon="12.82585191483416"><ele>492.66666666666663</ele><time>2026-04-04T15:49:37Z</time></trkpt><trkpt lat="43.30353659601615" lon="12.826138559986827"><ele>494.33333333333337</ele><time>2026-04-04T15:49:38Z</time></trkpt><trkpt lat="43.30352285597674" lon="12.826428325107639"><ele>496.0</ele><time>2026-04-04T15:49:39Z</time></trkpt><trkpt lat="43.303500266904265" lon="12.826713178509161"><ele>499.6666666666667</ele><time>2026-04-04T15:49:40Z</time></trkpt><trkpt lat="43.303472777967144" lon="12.82698932768212"><ele>503.33333333333337</ele><time>2026-04-04T15:49:41Z</time></trkpt><trkpt lat="43.303445495372614" lon="12.82726321252654"><ele>507.0</ele><time>2026-04-04T15:49:42Z</time></trkpt><trkpt lat="43.30341737539714" lon="12.827539460051069"><ele>514.0</ele><time>2026-04-04T15:49:43.022Z</time></trkpt><trkpt lat="43.30339174206396" lon="12.827803060067113"><ele>521.0</ele><time>2026-04-04T15:49:44.016Z</time></trkpt><trkpt lat="43.30336665981942" lon="12.828066516183043"><ele>528.0</ele><time>2026-04-04T15:49:45.019Z</time></trkpt><trkpt lat="43.303343059795736" lon="12.828324100961819"><ele>523.3333333333334</ele><time>2026-04-04T15:49:46.014Z</time></trkpt><trkpt lat="43.30331959293737" lon="12.82858148585113"><ele>518.6666666666667</ele><time>2026-04-04T15:49:47.019Z</time></trkpt><trkpt lat="43.30329790032676" lon="12.828835634217343"><ele>514.0</ele><time>2026-04-04T15:49:48.021Z</time></trkpt><trkpt lat="43.30326976378927" lon="12.829083657600677"><ele>470.0</ele><time>2026-04-04T15:49:49.016Z</time></trkpt><trkpt lat="43.303010067942836" lon="12.831619195652037"><ele>466.66666666666663</ele><time>2026-04-04T15:49:57Z</time></trkpt><trkpt lat="43.30298151812117" lon="12.83190701789605"><ele>463.33333333333337</ele><time>2026-04-04T15:49:58Z</time></trkpt><trkpt lat="43.30296672401696" lon="12.832155960803222"><ele>460.0</ele><time>2026-04-04T15:49:59Z</time></trkpt><trkpt lat="43.302937532705364" lon="12.832439060968959"><ele>457.6666666666667</ele><time>2026-04-04T15:50:00Z</time></trkpt><trkpt lat="43.30290724074015" lon="12.832717621382624"><ele>455.33333333333337</ele><time>2026-04-04T15:50:01Z</time></trkpt><trkpt lat="43.302878641843435" lon="12.832998757883612"><ele>453.0</ele><time>2026-04-04T15:50:02Z</time></trkpt><trkpt lat="43.30284775452883" lon="12.833284077735163"><ele>451.33333333333337</ele><time>2026-04-04T15:50:03Z</time></trkpt><trkpt lat="43.302814623787555" lon="12.833568023599565"><ele>449.6666666666667</ele><time>2026-04-04T15:50:04Z</time></trkpt><trkpt lat="43.30278614360793" lon="12.833853177944738"><ele>448.0</ele><time>2026-04-04T15:50:05Z</time></trkpt><trkpt lat="43.30275829777644" lon="12.834140464776437"><ele>447.33333333333337</ele><time>2026-04-04T15:50:06Z</time></trkpt><trkpt lat="43.30272896108989" lon="12.834426203972855"><ele>446.66666666666663</ele><time>2026-04-04T15:50:07Z</time></trkpt><trkpt lat="43.30269830037626" lon="12.83471035772509"><ele>446.0</ele><time>2026-04-04T15:50:08Z</time></trkpt><trkpt lat="43.30266271210368" lon="12.835008354529414"><ele>445.0</ele><time>2026-04-04T15:50:09Z</time></trkpt><trkpt lat="43.30263588529321" lon="12.835292390038381"><ele>444.0</ele><time>2026-04-04T15:50:10Z</time></trkpt><trkpt lat="43.30260701995769" lon="12.835579837199143"><ele>443.0</ele><time>2026-04-04T15:50:11Z</time></trkpt><trkpt lat="43.30258016933771" lon="12.83586833003418"><ele>441.66666666666663</ele><time>2026-04-04T15:50:12Z</time></trkpt><trkpt lat="43.302555280206036" lon="12.836155134887974"><ele>440.33333333333337</ele><time>2026-04-04T15:50:13Z</time></trkpt><trkpt lat="43.30253120266437" lon="12.83644068678362"><ele>439.0</ele><time>2026-04-04T15:50:14Z</time></trkpt><trkpt lat="43.30251175895287" lon="12.836727918520468"><ele>438.0</ele><time>2026-04-04T15:50:15Z</time></trkpt><trkpt lat="43.302497969130556" lon="12.837016981557866"><ele>437.0</ele><time>2026-04-04T15:50:16Z</time></trkpt><trkpt lat="43.30249434157976" lon="12.837309851178752"><ele>436.0</ele><time>2026-04-04T15:50:17Z</time></trkpt><trkpt lat="43.30250236959738" lon="12.83759760067782"><ele>434.6666666666667</ele><time>2026-04-04T15:50:18Z</time></trkpt><trkpt lat="43.30252383199551" lon="12.837884071261426"><ele>433.33333333333337</ele><time>2026-04-04T15:50:19Z</time></trkpt><trkpt lat="43.3025574840734" lon="12.838166992287022"><ele>432.0</ele><time>2026-04-04T15:50:20Z</time></trkpt><trkpt lat="43.30260495283316" lon="12.838447982138371"><ele>430.0</ele><time>2026-04-04T15:50:21Z</time></trkpt><trkpt lat="43.30266390629968" lon="12.838722632041357"><ele>428.0</ele><time>2026-04-04T15:50:22Z</time></trkpt><trkpt lat="43.30272978211057" lon="12.838995719259954"><ele>426.0</ele><time>2026-04-04T15:50:23Z</time></trkpt><trkpt lat="43.3028052177684" lon="12.839262856267451"><ele>427.0</ele><time>2026-04-04T15:50:24Z</time></trkpt><trkpt lat="43.30289349683298" lon="12.839523927928775"><ele>428.0</ele><time>2026-04-04T15:50:25Z</time></trkpt><trkpt lat="43.302993011435916" lon="12.839776684054533"><ele>429.0</ele><time>2026-04-04T15:50:26Z</time></trkpt><trkpt lat="43.3031045790136" lon="12.840020762413914"><ele>426.66666666666663</ele><time>2026-04-04T15:50:27.001Z</time></trkpt><trkpt lat="43.30322756589637" lon="12.840253596145715"><ele>424.3333333333333</ele><time>2026-04-04T15:50:28.001Z</time></trkpt><trkpt lat="43.303361351344755" lon="12.84047747648781"><ele>422.0</ele><time>2026-04-04T15:50:29.001Z</time></trkpt><trkpt lat="43.3035034587179" lon="12.840689918947737"><ele>422.0</ele><time>2026-04-04T15:50:30.001Z</time></trkpt><trkpt lat="43.30365017147377" lon="12.840892075094715"><ele>422.0</ele><time>2026-04-04T15:50:31.001Z</time></trkpt><trkpt lat="43.30381015847128" lon="12.841083263676204"><ele>422.0</ele><time>2026-04-04T15:50:32.001Z</time></trkpt><trkpt lat="43.3039691504358" lon="12.841263609734861"><ele>421.66666666666663</ele><time>2026-04-04T15:50:33.001Z</time></trkpt><trkpt lat="43.304139702211955" lon="12.841438029074071"><ele>421.33333333333337</ele><time>2026-04-04T15:50:34.001Z</time></trkpt><trkpt lat="43.3043075330188" lon="12.84161368650028"><ele>421.0</ele><time>2026-04-04T15:50:35.001Z</time></trkpt><trkpt lat="43.30447060796129" lon="12.84179811126514"><ele>420.33333333333337</ele><time>2026-04-04T15:50:36.001Z</time></trkpt><trkpt lat="43.30463180074064" lon="12.84198762602447"><ele>419.66666666666663</ele><time>2026-04-04T15:50:37.001Z</time></trkpt><trkpt lat="43.30478524154721" lon="12.84218369380498"><ele>419.0</ele><time>2026-04-04T15:50:38.001Z</time></trkpt><trkpt lat="43.304939279231775" lon="12.842384139730955"><ele>419.0</ele><time>2026-04-04T15:50:39.001Z</time></trkpt><trkpt lat="43.305094240980644" lon="12.842585584642254"><ele>419.0</ele><time>2026-04-04T15:50:40.001Z</time></trkpt><trkpt lat="43.30524921746914" lon="12.842788303351195"><ele>419.0</ele><time>2026-04-04T15:50:41.001Z</time></trkpt><trkpt lat="43.30539736807703" lon="12.842985361093353"><ele>418.3333333333333</ele><time>2026-04-04T15:50:42.001Z</time></trkpt><trkpt lat="43.305549358374314" lon="12.843187532166352"><ele>417.66666666666663</ele><time>2026-04-04T15:50:43.001Z</time></trkpt><trkpt lat="43.30570068467176" lon="12.843390223281391"><ele>417.0</ele><time>2026-04-04T15:50:44.001Z</time></trkpt><trkpt lat="43.30585084840862" lon="12.843592010545802"><ele>412.33333333333337</ele><time>2026-04-04T15:50:45.001Z</time></trkpt><trkpt lat="43.30599887073604" lon="12.84379851963263"><ele>407.6666666666667</ele><time>2026-04-04T15:50:46.001Z</time></trkpt><trkpt lat="43.30614389363267" lon="12.844002093491724"><ele>403.0</ele><time>2026-04-04T15:50:47.001Z</time></trkpt><trkpt lat="43.30628934827363" lon="12.844210887251512"><ele>405.33333333333337</ele><time>2026-04-04T15:50:48.001Z</time></trkpt><trkpt lat="43.30643304627394" lon="12.84442175138824"><ele>407.66666666666663</ele><time>2026-04-04T15:50:49.001Z</time></trkpt><trkpt lat="43.30657531296901" lon="12.84463760154901"><ele>410.0</ele><time>2026-04-04T15:50:50.001Z</time></trkpt><trkpt lat="43.306713443645116" lon="12.84485420824322"><ele>410.0</ele><time>2026-04-04T15:50:51.001Z</time></trkpt><trkpt lat="43.30685137813134" lon="12.845067008284499"><ele>410.0</ele><time>2026-04-04T15:50:52.001Z</time></trkpt><trkpt lat="43.30698519386251" lon="12.84528555948985"><ele>410.0</ele><time>2026-04-04T15:50:53.001Z</time></trkpt><trkpt lat="43.307118719814085" lon="12.84550700594076"><ele>411.3333333333333</ele><time>2026-04-04T15:50:54.001Z</time></trkpt><trkpt lat="43.3072498370222" lon="12.845730627828344"><ele>412.66666666666663</ele><time>2026-04-04T15:50:55.001Z</time></trkpt><trkpt lat="43.30738096202663" lon="12.845954501521938"><ele>414.0</ele><time>2026-04-04T15:50:56.001Z</time></trkpt><trkpt lat="43.307510260159646" lon="12.846184893712456"><ele>410.0</ele><time>2026-04-04T15:50:57.001Z</time></trkpt><trkpt lat="43.30763899714228" lon="12.846413564397043"><ele>406.0</ele><time>2026-04-04T15:50:58.001Z</time></trkpt><trkpt lat="43.307767632522896" lon="12.846642109771913"><ele>402.0</ele><time>2026-04-04T15:50:59.001Z</time></trkpt><trkpt lat="43.30789651862409" lon="12.846872660518873"><ele>400.33333333333337</ele><time>2026-04-04T15:51:00.001Z</time></trkpt><trkpt lat="43.30802475249836" lon="12.847103375978417"><ele>398.6666666666667</ele><time>2026-04-04T15:51:01.001Z</time></trkpt><trkpt lat="43.30815250445062" lon="12.847334025745841"><ele>397.0</ele><time>2026-04-04T15:51:02.001Z</time></trkpt><trkpt lat="43.30827837954579" lon="12.84756732213104"><ele>398.0</ele><time>2026-04-04T15:51:03.001Z</time></trkpt><trkpt lat="43.30839843870712" lon="12.847804673559546"><ele>399.0</ele><time>2026-04-04T15:51:04.001Z</time></trkpt><trkpt lat="43.30851303589702" lon="12.84804411821308"><ele>400.0</ele><time>2026-04-04T15:51:05.001Z</time></trkpt><trkpt lat="43.308624814852465" lon="12.848286910577354"><ele>398.0</ele><time>2026-04-04T15:51:06.001Z</time></trkpt><trkpt lat="43.308732159569466" lon="12.848534133556196"><ele>396.0</ele><time>2026-04-04T15:51:07.001Z</time></trkpt><trkpt lat="43.308836516906894" lon="12.848784656260657"><ele>394.0</ele><time>2026-04-04T15:51:08.001Z</time></trkpt><trkpt lat="43.308932085243285" lon="12.849039541546652"><ele>395.6666666666667</ele><time>2026-04-04T15:51:09.001Z</time></trkpt><trkpt lat="43.309024867176234" lon="12.849301418171043"><ele>397.33333333333337</ele><time>2026-04-04T15:51:10.001Z</time></trkpt><trkpt lat="43.30911132160798" lon="12.8495622788447"><ele>399.0</ele><time>2026-04-04T15:51:11.001Z</time></trkpt><trkpt lat="43.309189994033794" lon="12.84983487726569"><ele>399.0</ele><time>2026-04-04T15:51:12.001Z</time></trkpt><trkpt lat="43.30926473319107" lon="12.850104207132441"><ele>399.0</ele><time>2026-04-04T15:51:13.001Z</time></trkpt><trkpt lat="43.30933679765017" lon="12.85037505893361"><ele>399.0</ele><time>2026-04-04T15:51:14.001Z</time></trkpt><trkpt lat="43.30940742827053" lon="12.850647118453887"><ele>397.0</ele><time>2026-04-04T15:51:15.001Z</time></trkpt><trkpt lat="43.30947704932164" lon="12.850920133447968"><ele>395.0</ele><time>2026-04-04T15:51:16.001Z</time></trkpt><trkpt lat="43.30954087915355" lon="12.851196365050106"><ele>393.0</ele><time>2026-04-04T15:51:17.001Z</time></trkpt><trkpt lat="43.30959998883936" lon="12.851471742397454"><ele>392.33333333333337</ele><time>2026-04-04T15:51:18.001Z</time></trkpt><trkpt lat="43.309657678884044" lon="12.851752305113724"><ele>391.6666666666667</ele><time>2026-04-04T15:51:19.001Z</time></trkpt><trkpt lat="43.309713551404315" lon="12.852026948810039"><ele>391.0</ele><time>2026-04-04T15:51:20.001Z</time></trkpt><trkpt lat="43.30976898213239" lon="12.852306921578252"><ele>392.33333333333337</ele><time>2026-04-04T15:51:21.001Z</time></trkpt><trkpt lat="43.309823331681606" lon="12.852583203897371"><ele>393.66666666666663</ele><time>2026-04-04T15:51:22.001Z</time></trkpt><trkpt lat="43.30987782722742" lon="12.852861082185038"><ele>395.0</ele><time>2026-04-04T15:51:23.001Z</time></trkpt><trkpt lat="43.30993432011348" lon="12.853140532968272"><ele>395.0</ele><time>2026-04-04T15:51:24.001Z</time></trkpt><trkpt lat="43.30998751662404" lon="12.85342133832785"><ele>395.0</ele><time>2026-04-04T15:51:25.001Z</time></trkpt><trkpt lat="43.310042594500636" lon="12.85370064332653"><ele>395.0</ele><time>2026-04-04T15:51:26.001Z</time></trkpt><trkpt lat="43.310096435892355" lon="12.853980585847177"><ele>394.0</ele><time>2026-04-04T15:51:27.001Z</time></trkpt><trkpt lat="43.31015188820954" lon="12.854257374484476"><ele>393.0</ele><time>2026-04-04T15:51:28.001Z</time></trkpt><trkpt lat="43.310204821461774" lon="12.854531957799926"><ele>392.0</ele><time>2026-04-04T15:51:29.001Z</time></trkpt><trkpt lat="43.310257377380914" lon="12.854810767312134"><ele>391.3333333333333</ele><time>2026-04-04T15:51:30.001Z</time></trkpt><trkpt lat="43.31030899613199" lon="12.855088892201191"><ele>390.66666666666663</ele><time>2026-04-04T15:51:31.001Z</time></trkpt><trkpt lat="43.31036551879193" lon="12.855372029392079"><ele>390.0</ele><time>2026-04-04T15:51:32.001Z</time></trkpt><trkpt lat="43.31042107382578" lon="12.855651647397208"><ele>390.0</ele><time>2026-04-04T15:51:33.001Z</time></trkpt><trkpt lat="43.31047844301644" lon="12.855929218571607"><ele>390.0</ele><time>2026-04-04T15:51:34.001Z</time></trkpt><trkpt lat="43.310533971782625" lon="12.856208427660912"><ele>390.0</ele><time>2026-04-04T15:51:35.001Z</time></trkpt><trkpt lat="43.31058508175896" lon="12.856486631245716"><ele>389.0</ele><time>2026-04-04T15:51:36.001Z</time></trkpt><trkpt lat="43.310638092687526" lon="12.856766744653758"><ele>388.0</ele><time>2026-04-04T15:51:37.001Z</time></trkpt><trkpt lat="43.31069065444821" lon="12.857044000690017"><ele>387.0</ele><time>2026-04-04T15:51:38.001Z</time></trkpt><trkpt lat="43.31074777052165" lon="12.857323977611083"><ele>385.3333333333333</ele><time>2026-04-04T15:51:39.001Z</time></trkpt><trkpt lat="43.31080306532719" lon="12.857601756988892"><ele>383.66666666666663</ele><time>2026-04-04T15:51:40Z</time></trkpt><trkpt lat="43.31086011910094" lon="12.857882194857586"><ele>382.0</ele><time>2026-04-04T15:51:41Z</time></trkpt><trkpt lat="43.31092229517052" lon="12.858160815442552"><ele>381.0</ele><time>2026-04-04T15:51:42Z</time></trkpt><trkpt lat="43.31099185434622" lon="12.858431013487046"><ele>380.0</ele><time>2026-04-04T15:51:43Z</time></trkpt><trkpt lat="43.31106610519946" lon="12.858698249685418"><ele>379.0</ele><time>2026-04-04T15:51:44Z</time></trkpt><trkpt lat="43.31114781646154" lon="12.858964123987455"><ele>379.0</ele><time>2026-04-04T15:51:45Z</time></trkpt><trkpt lat="43.31123512456603" lon="12.859226021030162"><ele>379.0</ele><time>2026-04-04T15:51:46Z</time></trkpt><trkpt lat="43.311327700099014" lon="12.85948261204522"><ele>379.0</ele><time>2026-04-04T15:51:47Z</time></trkpt><trkpt lat="43.31142723402779" lon="12.85973645270766"><ele>378.3333333333333</ele><time>2026-04-04T15:51:48Z</time></trkpt><trkpt lat="43.31153132403281" lon="12.859987637058868"><ele>377.6666666666667</ele><time>2026-04-04T15:51:49Z</time></trkpt><trkpt lat="43.31163979007343" lon="12.860232410179494"><ele>377.0</ele><time>2026-04-04T15:51:50Z</time></trkpt><trkpt lat="43.31175676186226" lon="12.86047256493424"><ele>378.6666666666667</ele><time>2026-04-04T15:51:51Z</time></trkpt><trkpt lat="43.31187860550811" lon="12.860704260810877"><ele>380.3333333333333</ele><time>2026-04-04T15:51:52Z</time></trkpt><trkpt lat="43.31200627893962" lon="12.860936200160918"><ele>382.0</ele><time>2026-04-04T15:51:53Z</time></trkpt><trkpt lat="43.31214026593629" lon="12.861160622637529"><ele>382.66666666666663</ele><time>2026-04-04T15:51:54Z</time></trkpt><trkpt lat="43.31227840467624" lon="12.861381943180861"><ele>383.3333333333333</ele><time>2026-04-04T15:51:55Z</time></trkpt><trkpt lat="43.31241792651234" lon="12.861602120784422"><ele>384.0</ele><time>2026-04-04T15:51:56Z</time></trkpt><trkpt lat="43.312553055793124" lon="12.861819734477336"><ele>385.0</ele><time>2026-04-04T15:51:57Z</time></trkpt><trkpt lat="43.31268983496713" lon="12.862040026775754"><ele>386.0</ele><time>2026-04-04T15:51:58Z</time></trkpt><trkpt lat="43.312829855394746" lon="12.86225572397128"><ele>387.0</ele><time>2026-04-04T15:51:59Z</time></trkpt><trkpt lat="43.3129649673004" lon="12.862476625073699"><ele>387.0</ele><time>2026-04-04T15:52:00Z</time></trkpt><trkpt lat="43.31310232696636" lon="12.862695237589303"><ele>387.0</ele><time>2026-04-04T15:52:01Z</time></trkpt><trkpt lat="43.31323971085661" lon="12.862919110573724"><ele>387.0</ele><time>2026-04-04T15:52:02Z</time></trkpt><trkpt lat="43.31337864874089" lon="12.863134534891755"><ele>387.0</ele><time>2026-04-04T15:52:03Z</time></trkpt><trkpt lat="43.31351577927335" lon="12.863351782832027"><ele>387.0</ele><time>2026-04-04T15:52:04Z</time></trkpt><trkpt lat="43.313647993898364" lon="12.863574111613243"><ele>387.0</ele><time>2026-04-04T15:52:05Z</time></trkpt><trkpt lat="43.3137719960187" lon="12.86381274288814"><ele>389.0</ele><time>2026-04-04T15:52:06Z</time></trkpt><trkpt lat="43.313883016000034" lon="12.864061455793935"><ele>391.0</ele><time>2026-04-04T15:52:07Z</time></trkpt><trkpt lat="43.31398928999642" lon="12.864313302528858"><ele>393.0</ele><time>2026-04-04T15:52:08Z</time></trkpt><trkpt lat="43.31409131492791" lon="12.86456765192474"><ele>393.0</ele><time>2026-04-04T15:52:09Z</time></trkpt><trkpt lat="43.314187557380144" lon="12.864826343218494"><ele>393.0</ele><time>2026-04-04T15:52:10Z</time></trkpt><trkpt lat="43.31427724758574" lon="12.865087015674819"><ele>393.0</ele><time>2026-04-04T15:52:11Z</time></trkpt><trkpt lat="43.314361155937995" lon="12.865349578092985"><ele>402.0</ele><time>2026-04-04T15:52:12Z</time></trkpt><trkpt lat="43.31443395288855" lon="12.865620788346957"><ele>411.0</ele><time>2026-04-04T15:52:13Z</time></trkpt><trkpt lat="43.31450099352563" lon="12.865898383439486"><ele>420.0</ele><time>2026-04-04T15:52:14.014Z</time></trkpt><trkpt lat="43.3145591361164" lon="12.866174341203472"><ele>430.33333333333337</ele><time>2026-04-04T15:52:15.015Z</time></trkpt><trkpt lat="43.314611795321184" lon="12.866452741676337"><ele>440.6666666666667</ele><time>2026-04-04T15:52:16.018Z</time></trkpt><trkpt lat="43.31465526542298" lon="12.866733052561672"><ele>451.0</ele><time>2026-04-04T15:52:17.017Z</time></trkpt><trkpt lat="43.31469885261248" lon="12.867014775682252"><ele>390.0</ele><time>2026-04-04T15:52:18.02Z</time></trkpt><trkpt lat="43.31517376009683" lon="12.871579919022388"><ele>393.0</ele><time>2026-04-04T15:52:34Z</time></trkpt><trkpt lat="43.31520221268856" lon="12.87186682638582"><ele>396.0</ele><time>2026-04-04T15:52:35Z</time></trkpt><trkpt lat="43.315226151732055" lon="12.872161517648411"><ele>399.0</ele><time>2026-04-04T15:52:36Z</time></trkpt><trkpt lat="43.31524741655827" lon="12.872433899855352"><ele>403.33333333333337</ele><time>2026-04-04T15:52:37.001Z</time></trkpt><trkpt lat="43.31526978628773" lon="12.872729404474223"><ele>407.6666666666667</ele><time>2026-04-04T15:52:38.001Z</time></trkpt><trkpt lat="43.315295005335855" lon="12.873017451866083"><ele>412.0</ele><time>2026-04-04T15:52:39.001Z</time></trkpt><trkpt lat="43.31532104933057" lon="12.873311283788068"><ele>468.0</ele><time>2026-04-04T15:52:40.023Z</time></trkpt><trkpt lat="43.31556776571366" lon="12.875515918860497"><ele>452.5</ele><time>2026-04-04T15:52:44.546Z</time></trkpt><trkpt lat="43.31561481080137" lon="12.87600695710879"><ele>437.0</ele><time>2026-04-04T15:52:45.551Z</time></trkpt><trkpt lat="43.31566326966864" lon="12.876495554968285"><ele>438.5</ele><time>2026-04-04T15:52:46.551Z</time></trkpt><trkpt lat="43.31571638081711" lon="12.876983227586743"><ele>440.0</ele><time>2026-04-04T15:52:47.551Z</time></trkpt><trkpt lat="43.31578299603038" lon="12.877467743432312"><ele>441.0</ele><time>2026-04-04T15:52:48.551Z</time></trkpt><trkpt lat="43.315858356955324" lon="12.877949900927455"><ele>442.0</ele><time>2026-04-04T15:52:49.551Z</time></trkpt><trkpt lat="43.31594423455575" lon="12.878428694644455"><ele>452.0</ele><time>2026-04-04T15:52:50.551Z</time></trkpt><trkpt lat="43.31604541300843" lon="12.878901912787581"><ele>462.0</ele><time>2026-04-04T15:52:51.551Z</time></trkpt><trkpt lat="43.31615276269323" lon="12.879372474840226"><ele>455.5</ele><time>2026-04-04T15:52:52.551Z</time></trkpt><trkpt lat="43.31627652286601" lon="12.879835541455229"><ele>449.0</ele><time>2026-04-04T15:52:53.551Z</time></trkpt><trkpt lat="43.31641032625047" lon="12.880293305006418"><ele>449.0</ele><time>2026-04-04T15:52:54.551Z</time></trkpt><trkpt lat="43.31655214648957" lon="12.880746516156055"><ele>449.0</ele><time>2026-04-04T15:52:55.551Z</time></trkpt><trkpt lat="43.316695839797006" lon="12.881198631004915"><ele>456.0</ele><time>2026-04-04T15:52:56.551Z</time></trkpt><trkpt lat="43.31683860298438" lon="12.881651268051236"><ele>463.0</ele><time>2026-04-04T15:52:57.551Z</time></trkpt><trkpt lat="43.31698076669036" lon="12.88210200441505"><ele>471.0</ele><time>2026-04-04T15:52:58.547Z</time></trkpt><trkpt lat="43.31712567314959" lon="12.882555708931866"><ele>479.0</ele><time>2026-04-04T15:52:59.551Z</time></trkpt><trkpt lat="43.317269554633796" lon="12.88300776809663"><ele>463.5</ele><time>2026-04-04T15:53:00.551Z</time></trkpt><trkpt lat="43.31741235145818" lon="12.883458431622858"><ele>448.0</ele><time>2026-04-04T15:53:01.547Z</time></trkpt><trkpt lat="43.31755604921561" lon="12.883911142335243"><ele>453.0</ele><time>2026-04-04T15:53:02.548Z</time></trkpt><trkpt lat="43.317700026707485" lon="12.884364467211245"><ele>458.0</ele><time>2026-04-04T15:53:03.551Z</time></trkpt><trkpt lat="43.31784479381657" lon="12.884815973788516"><ele>445.5</ele><time>2026-04-04T15:53:04.551Z</time></trkpt><trkpt lat="43.31798732275043" lon="12.885268795077627"><ele>433.0</ele><time>2026-04-04T15:53:05.551Z</time></trkpt><trkpt lat="43.318129847555596" lon="12.88572160324967"><ele>405.5</ele><time>2026-04-04T15:53:06.551Z</time></trkpt><trkpt lat="43.31827296787829" lon="12.886171988822996"><ele>378.0</ele><time>2026-04-04T15:53:07.547Z</time></trkpt><trkpt lat="43.318704719470304" lon="12.887530038063241"><ele>388.5</ele><time>2026-04-04T15:53:10.551Z</time></trkpt><trkpt lat="43.318848975968216" lon="12.887981838638431"><ele>399.0</ele><time>2026-04-04T15:53:11.551Z</time></trkpt><trkpt lat="43.31899218106525" lon="12.888434293187974"><ele>396.5</ele><time>2026-04-04T15:53:12.551Z</time></trkpt><trkpt lat="43.31913502903561" lon="12.888886914793355"><ele>394.0</ele><time>2026-04-04T15:53:13.551Z</time></trkpt><trkpt lat="43.319278353784085" lon="12.889339303543682"><ele>394.0</ele><time>2026-04-04T15:53:14.551Z</time></trkpt><trkpt lat="43.31942167564526" lon="12.889791683180567"><ele>394.0</ele><time>2026-04-04T15:53:15.551Z</time></trkpt><trkpt lat="43.31956631695722" lon="12.890243260475502"><ele>380.0</ele><time>2026-04-04T15:53:16.551Z</time></trkpt><trkpt lat="43.3202838955147" lon="12.892504487447326"><ele>393.5</ele><time>2026-04-04T15:53:21.551Z</time></trkpt><trkpt lat="43.320427624300926" lon="12.892956611337071"><ele>407.0</ele><time>2026-04-04T15:53:22.551Z</time></trkpt><trkpt lat="43.320571354954744" lon="12.893408741101648"><ele>424.0</ele><time>2026-04-04T15:53:23.551Z</time></trkpt><trkpt lat="43.32071509206803" lon="12.893860891185591"><ele>441.0</ele><time>2026-04-04T15:53:24.551Z</time></trkpt><trkpt lat="43.32085881898667" lon="12.894313009200506"><ele>455.0</ele><time>2026-04-04T15:53:25.551Z</time></trkpt><trkpt lat="43.321002456175826" lon="12.894765217728152"><ele>469.0</ele><time>2026-04-04T15:53:26.551Z</time></trkpt><trkpt lat="43.321145699867124" lon="12.895217634613422"><ele>481.5</ele><time>2026-04-04T15:53:27.551Z</time></trkpt><trkpt lat="43.32128894741758" lon="12.89567006368733"><ele>494.0</ele><time>2026-04-04T15:53:28.551Z</time></trkpt><trkpt lat="43.321432181802514" lon="12.896122451179647"><ele>494.5</ele><time>2026-04-04T15:53:29.551Z</time></trkpt><trkpt lat="43.321575425340136" lon="12.89657486757953"><ele>495.0</ele><time>2026-04-04T15:53:30.551Z</time></trkpt><trkpt lat="43.31864677690796" lon="12.887570515030385"><ele>463.0</ele><time>2026-04-04T15:53:32.001Z</time></trkpt><trkpt lat="43.31875490715588" lon="12.88783798204608"><ele>431.0</ele><time>2026-04-04T15:53:33.001Z</time></trkpt><trkpt lat="43.31883176135161" lon="12.888118867691695"><ele>399.0</ele><time>2026-04-04T15:53:34.001Z</time></trkpt><trkpt lat="43.31891365176553" lon="12.888403869316225"><ele>401.33333333333337</ele><time>2026-04-04T15:53:35.019Z</time></trkpt><trkpt lat="43.3189913721483" lon="12.888684140988321"><ele>403.6666666666667</ele><time>2026-04-04T15:53:36.019Z</time></trkpt><trkpt lat="43.31908420588589" lon="12.888955659672279"><ele>406.0</ele><time>2026-04-04T15:53:37.017Z</time></trkpt><trkpt lat="43.319170211425906" lon="12.8892271261886"><ele>364.0</ele><time>2026-04-04T15:53:38.016Z</time></trkpt><trkpt lat="43.319772407452874" lon="12.890944881376708"><ele>364.0</ele><time>2026-04-04T15:53:45.001Z</time></trkpt><trkpt lat="43.31985657176933" lon="12.891209301683888"><ele>364.0</ele><time>2026-04-04T15:53:46.001Z</time></trkpt><trkpt lat="43.319940671485426" lon="12.891476716663187"><ele>364.0</ele><time>2026-04-04T15:53:47.001Z</time></trkpt><trkpt lat="43.3200221926285" lon="12.891745725863453"><ele>369.3333333333333</ele><time>2026-04-04T15:53:48.001Z</time></trkpt><trkpt lat="43.32010781182492" lon="12.892008911733301"><ele>374.6666666666667</ele><time>2026-04-04T15:53:49.001Z</time></trkpt><trkpt lat="43.32019190941751" lon="12.892270420565215"><ele>380.0</ele><time>2026-04-04T15:53:50.001Z</time></trkpt><trkpt lat="43.32028115610935" lon="12.892525231886848"><ele>389.0</ele><time>2026-04-04T15:53:51Z</time></trkpt><trkpt lat="43.32035277662105" lon="12.89277923202228"><ele>398.0</ele><time>2026-04-04T15:53:52Z</time></trkpt><trkpt lat="43.320432403900945" lon="12.89303704663524"><ele>407.0</ele><time>2026-04-04T15:53:53.017Z</time></trkpt><trkpt lat="43.3211021754302" lon="12.89508016824398"><ele>450.5</ele><time>2026-04-04T15:53:57.552Z</time></trkpt><trkpt lat="43.3212454115398" lon="12.895532561183433"><ele>494.0</ele><time>2026-04-04T15:53:58.552Z</time></trkpt><trkpt lat="43.321388658082775" lon="12.895984987075352"><ele>494.5</ele><time>2026-04-04T15:53:59.552Z</time></trkpt><trkpt lat="43.3215319060772" lon="12.896437417551493"><ele>495.0</ele><time>2026-04-04T15:54:00.552Z</time></trkpt><trkpt lat="43.32167514647285" lon="12.896889824027882"><ele>502.5</ele><time>2026-04-04T15:54:01.552Z</time></trkpt><trkpt lat="43.32181859045216" lon="12.89734214514573"><ele>510.0</ele><time>2026-04-04T15:54:02.552Z</time></trkpt><trkpt lat="43.32196277462128" lon="12.897793995355222"><ele>511.0</ele><time>2026-04-04T15:54:03.552Z</time></trkpt><trkpt lat="43.32210690156452" lon="12.898245913187651"><ele>512.0</ele><time>2026-04-04T15:54:04.552Z</time></trkpt><trkpt lat="43.3222509864675" lon="12.898697828450079"><ele>492.5</ele><time>2026-04-04T15:54:05.552Z</time></trkpt><trkpt lat="43.32239507772583" lon="12.89914976364573"><ele>473.0</ele><time>2026-04-04T15:54:06.552Z</time></trkpt><trkpt lat="43.32253917054723" lon="12.899601703743874"><ele>468.0</ele><time>2026-04-04T15:54:07.552Z</time></trkpt><trkpt lat="43.32268325733964" lon="12.900053624932395"><ele>463.0</ele><time>2026-04-04T15:54:08.552Z</time></trkpt><trkpt lat="43.322826485731696" lon="12.900506069388584"><ele>458.0</ele><time>2026-04-04T15:54:09.552Z</time></trkpt><trkpt lat="43.32296916329946" lon="12.900958832870286"><ele>453.0</ele><time>2026-04-04T15:54:10.552Z</time></trkpt><trkpt lat="43.32311185054505" lon="12.901411627062942"><ele>440.0</ele><time>2026-04-04T15:54:11.552Z</time></trkpt><trkpt lat="43.32325463109535" lon="12.901861984817195"><ele>427.0</ele><time>2026-04-04T15:54:12.547Z</time></trkpt><trkpt lat="43.32339871783463" lon="12.902316283831217"><ele>423.0</ele><time>2026-04-04T15:54:13.552Z</time></trkpt><trkpt lat="43.32354210248495" lon="12.902768618276893"><ele>419.0</ele><time>2026-04-04T15:54:14.552Z</time></trkpt><trkpt lat="43.323685492280376" lon="12.903220968953784"><ele>410.5</ele><time>2026-04-04T15:54:15.552Z</time></trkpt><trkpt lat="43.32382845176015" lon="12.903672486737808"><ele>402.0</ele><time>2026-04-04T15:54:16.55Z</time></trkpt><trkpt lat="43.323970190567145" lon="12.90412691989005"><ele>396.5</ele><time>2026-04-04T15:54:17.552Z</time></trkpt><trkpt lat="43.32410527666954" lon="12.904584024109207"><ele>391.0</ele><time>2026-04-04T15:54:18.552Z</time></trkpt><trkpt lat="43.32421137955349" lon="12.905023042124608"><ele>390.6666666666667</ele><time>2026-04-04T15:54:38Z</time></trkpt><trkpt lat="43.324282210014246" lon="12.905294190069261"><ele>390.33333333333337</ele><time>2026-04-04T15:54:39Z</time></trkpt><trkpt lat="43.32437462042924" lon="12.905555957062873"><ele>390.0</ele><time>2026-04-04T15:54:40Z</time></trkpt><trkpt lat="43.324446710499856" lon="12.905812877762743"><ele>392.33333333333337</ele><time>2026-04-04T15:54:41Z</time></trkpt><trkpt lat="43.32448852568212" lon="12.906104311440638"><ele>394.6666666666667</ele><time>2026-04-04T15:54:42.001Z</time></trkpt><trkpt lat="43.324536640050326" lon="12.906379344110546"><ele>397.0</ele><time>2026-04-04T15:54:43.001Z</time></trkpt><trkpt lat="43.32459104517125" lon="12.906681012796057"><ele>399.6666666666667</ele><time>2026-04-04T15:54:44.001Z</time></trkpt><trkpt lat="43.32464225728252" lon="12.906958353519165"><ele>402.33333333333337</ele><time>2026-04-04T15:54:45.001Z</time></trkpt><trkpt lat="43.324691816770475" lon="12.907240568879057"><ele>405.0</ele><time>2026-04-04T15:54:46.001Z</time></trkpt><trkpt lat="43.32474312008052" lon="12.907521601386323"><ele>398.33333333333337</ele><time>2026-04-04T15:54:47.001Z</time></trkpt><trkpt lat="43.32478638660144" lon="12.907805793409608"><ele>391.6666666666667</ele><time>2026-04-04T15:54:48.001Z</time></trkpt><trkpt lat="43.3248257166618" lon="12.908091896660451"><ele>385.0</ele><time>2026-04-04T15:54:49.001Z</time></trkpt><trkpt lat="43.32486537167041" lon="12.908377924251687"><ele>386.0</ele><time>2026-04-04T15:54:50.001Z</time></trkpt><trkpt lat="43.324904626957554" lon="12.908662034648227"><ele>387.0</ele><time>2026-04-04T15:54:51.001Z</time></trkpt><trkpt lat="43.324942746087025" lon="12.908946604777086"><ele>388.0</ele><time>2026-04-04T15:54:52.001Z</time></trkpt><trkpt lat="43.324980544510844" lon="12.90923223090488"><ele>389.33333333333337</ele><time>2026-04-04T15:54:53.001Z</time></trkpt><trkpt lat="43.3250181018838" lon="12.909517273069179"><ele>390.66666666666663</ele><time>2026-04-04T15:54:54.001Z</time></trkpt><trkpt lat="43.325055667104905" lon="12.909802069965707"><ele>392.0</ele><time>2026-04-04T15:54:55.001Z</time></trkpt><trkpt lat="43.32509371412388" lon="12.910086023385432"><ele>396.3333333333333</ele><time>2026-04-04T15:54:56.001Z</time></trkpt><trkpt lat="43.325130170758364" lon="12.910370437424136"><ele>400.66666666666663</ele><time>2026-04-04T15:54:57.001Z</time></trkpt><trkpt lat="43.32516790460305" lon="12.910658402364461"><ele>405.0</ele><time>2026-04-04T15:54:58.02Z</time></trkpt><trkpt lat="43.3252059410675" lon="12.910939281181587"><ele>407.66666666666663</ele><time>2026-04-04T15:54:59.019Z</time></trkpt><trkpt lat="43.32524480391551" lon="12.911218966633815"><ele>410.3333333333333</ele><time>2026-04-04T15:55:00.016Z</time></trkpt><trkpt lat="43.325286652875214" lon="12.911500285762292"><ele>413.0</ele><time>2026-04-04T15:55:01.02Z</time></trkpt><trkpt lat="43.32556831441653" lon="12.913697674750505"><ele>413.0</ele><time>2026-04-04T15:55:05.553Z</time></trkpt><trkpt lat="43.32563127327849" lon="12.91418323390203"><ele>413.0</ele><time>2026-04-04T15:55:06.553Z</time></trkpt><trkpt lat="43.32569477821676" lon="12.914668666357755"><ele>401.0</ele><time>2026-04-04T15:55:07.553Z</time></trkpt><trkpt lat="43.325758252162025" lon="12.915153861902613"><ele>389.0</ele><time>2026-04-04T15:55:08.552Z</time></trkpt><trkpt lat="43.325821139868395" lon="12.915639723259414"><ele>380.5</ele><time>2026-04-04T15:55:09.553Z</time></trkpt><trkpt lat="43.32588287834995" lon="12.916125569283155"><ele>372.0</ele><time>2026-04-04T15:55:10.553Z</time></trkpt><trkpt lat="43.3259596350075" lon="12.916938420397152"><ele>368.6666666666667</ele><time>2026-04-04T15:55:20.001Z</time></trkpt><trkpt lat="43.325995256116954" lon="12.917219620107822"><ele>365.33333333333337</ele><time>2026-04-04T15:55:21.001Z</time></trkpt><trkpt lat="43.3260387970981" lon="12.917475562655014"><ele>362.0</ele><time>2026-04-04T15:55:22.001Z</time></trkpt><trkpt lat="43.32607181655487" lon="12.917722016117894"><ele>360.33333333333337</ele><time>2026-04-04T15:55:23.001Z</time></trkpt><trkpt lat="43.32611509072043" lon="12.917956778007694"><ele>358.6666666666667</ele><time>2026-04-04T15:55:24.001Z</time></trkpt><trkpt lat="43.32614796809512" lon="12.918168349214861"><ele>357.0</ele><time>2026-04-04T15:55:25.001Z</time></trkpt><trkpt lat="43.3261671208318" lon="12.918425093436571"><ele>355.0</ele><time>2026-04-04T15:55:26.001Z</time></trkpt><trkpt lat="43.32621143828198" lon="12.918665071504908"><ele>353.0</ele><time>2026-04-04T15:55:27.001Z</time></trkpt><trkpt lat="43.32626123421722" lon="12.918916643386337"><ele>351.0</ele><time>2026-04-04T15:55:28.001Z</time></trkpt><trkpt lat="43.32631742852823" lon="12.919167612527366"><ele>352.3333333333333</ele><time>2026-04-04T15:55:29.001Z</time></trkpt><trkpt lat="43.326375707087905" lon="12.919426659340397"><ele>353.66666666666663</ele><time>2026-04-04T15:55:30.001Z</time></trkpt><trkpt lat="43.32643662094102" lon="12.919685535367758"><ele>355.0</ele><time>2026-04-04T15:55:31.001Z</time></trkpt><trkpt lat="43.3265060266016" lon="12.919945964397495"><ele>353.66666666666663</ele><time>2026-04-04T15:55:32.001Z</time></trkpt><trkpt lat="43.32658224826917" lon="12.920208003874105"><ele>352.3333333333333</ele><time>2026-04-04T15:55:33.001Z</time></trkpt><trkpt lat="43.32666038853308" lon="12.920471594361004"><ele>351.0</ele><time>2026-04-04T15:55:34.001Z</time></trkpt><trkpt lat="43.32674540704749" lon="12.920731973557823"><ele>349.0</ele><time>2026-04-04T15:55:35.001Z</time></trkpt><trkpt lat="43.32683164755728" lon="12.920989607685268"><ele>347.0</ele><time>2026-04-04T15:55:36.001Z</time></trkpt><trkpt lat="43.32692394113163" lon="12.921248276634602"><ele>345.0</ele><time>2026-04-04T15:55:37.001Z</time></trkpt><trkpt lat="43.327021639211026" lon="12.921504489487035"><ele>344.0</ele><time>2026-04-04T15:55:38.001Z</time></trkpt><trkpt lat="43.32712378759191" lon="12.921757754468194"><ele>343.0</ele><time>2026-04-04T15:55:39.001Z</time></trkpt><trkpt lat="43.32723185425923" lon="12.922008666725413"><ele>342.0</ele><time>2026-04-04T15:55:40.001Z</time></trkpt><trkpt lat="43.32733925931553" lon="12.92225664623772"><ele>342.6666666666667</ele><time>2026-04-04T15:55:41.001Z</time></trkpt><trkpt lat="43.32745130270434" lon="12.922502594824222"><ele>343.33333333333337</ele><time>2026-04-04T15:55:42.001Z</time></trkpt><trkpt lat="43.32757025526788" lon="12.922747809193046"><ele>344.0</ele><time>2026-04-04T15:55:43.001Z</time></trkpt><trkpt lat="43.327695477890586" lon="12.922986552126474"><ele>344.0</ele><time>2026-04-04T15:55:44.001Z</time></trkpt><trkpt lat="43.327828411740875" lon="12.923221588598796"><ele>344.0</ele><time>2026-04-04T15:55:45.001Z</time></trkpt><trkpt lat="43.3279656350674" lon="12.923451721766929"><ele>344.0</ele><time>2026-04-04T15:55:46.001Z</time></trkpt><trkpt lat="43.32810368524858" lon="12.923678446897332"><ele>342.0</ele><time>2026-04-04T15:55:47.001Z</time></trkpt><trkpt lat="43.32824584898057" lon="12.92390393064406"><ele>340.0</ele><time>2026-04-04T15:55:48.001Z</time></trkpt><trkpt lat="43.3283945437866" lon="12.924124901301306"><ele>338.0</ele><time>2026-04-04T15:55:49.001Z</time></trkpt><trkpt lat="43.32854432129846" lon="12.924343669855332"><ele>335.6666666666667</ele><time>2026-04-04T15:55:50.001Z</time></trkpt><trkpt lat="43.32870191856225" lon="12.924557364829681"><ele>333.3333333333333</ele><time>2026-04-04T15:55:51.001Z</time></trkpt><trkpt lat="43.32886216928826" lon="12.924763754887545"><ele>331.0</ele><time>2026-04-04T15:55:52.001Z</time></trkpt><trkpt lat="43.32902491457378" lon="12.924966664940714"><ele>329.3333333333333</ele><time>2026-04-04T15:55:53.001Z</time></trkpt><trkpt lat="43.32919154905243" lon="12.925167844530076"><ele>327.6666666666667</ele><time>2026-04-04T15:55:54.001Z</time></trkpt><trkpt lat="43.32936004341588" lon="12.925365217498554"><ele>326.0</ele><time>2026-04-04T15:55:55.001Z</time></trkpt><trkpt lat="43.329534246247746" lon="12.925560856076272"><ele>326.0</ele><time>2026-04-04T15:55:56.001Z</time></trkpt><trkpt lat="43.32971001533612" lon="12.92575343517318"><ele>326.0</ele><time>2026-04-04T15:55:57Z</time></trkpt><trkpt lat="43.329887491335555" lon="12.925947415509"><ele>322.5</ele><time>2026-04-04T15:55:58Z</time></trkpt><trkpt lat="43.33007167833566" lon="12.926137989278242"><ele>319.0</ele><time>2026-04-04T15:55:59Z</time></trkpt><trkpt lat="43.33025441033484" lon="12.926329608584886"><ele>319.0</ele><time>2026-04-04T15:56:00Z</time></trkpt><trkpt lat="43.33043405991701" lon="12.926517514902383"><ele>319.0</ele><time>2026-04-04T15:56:01Z</time></trkpt><trkpt lat="43.330616604645265" lon="12.926703407940778"><ele>320.0</ele><time>2026-04-04T15:56:02Z</time></trkpt><trkpt lat="43.33079285936723" lon="12.92688855936862"><ele>321.0</ele><time>2026-04-04T15:56:03Z</time></trkpt><trkpt lat="43.330972265607556" lon="12.927072516818262"><ele>322.0</ele><time>2026-04-04T15:56:04Z</time></trkpt><trkpt lat="43.331153001481205" lon="12.927256548193874"><ele>322.0</ele><time>2026-04-04T15:56:05Z</time></trkpt><trkpt lat="43.331332247511426" lon="12.927438575915529"><ele>322.0</ele><time>2026-04-04T15:56:06Z</time></trkpt><trkpt lat="43.33151000103418" lon="12.927622320179138"><ele>322.0</ele><time>2026-04-04T15:56:07Z</time></trkpt><trkpt lat="43.33168531146535" lon="12.927805633202185"><ele>324.0</ele><time>2026-04-04T15:56:08Z</time></trkpt><trkpt lat="43.33186030040671" lon="12.927988705357208"><ele>326.0</ele><time>2026-04-04T15:56:09Z</time></trkpt><trkpt lat="43.332034599613564" lon="12.92816576099693"><ele>328.0</ele><time>2026-04-04T15:56:10Z</time></trkpt><trkpt lat="43.33220910669986" lon="12.928346510185175"><ele>331.0</ele><time>2026-04-04T15:56:11Z</time></trkpt><trkpt lat="43.33238282726587" lon="12.928525742201225"><ele>334.0</ele><time>2026-04-04T15:56:12Z</time></trkpt><trkpt lat="43.332556710186566" lon="12.928703978549583"><ele>337.0</ele><time>2026-04-04T15:56:13Z</time></trkpt><trkpt lat="43.33273365069598" lon="12.928884588374888"><ele>337.0</ele><time>2026-04-04T15:56:14.016Z</time></trkpt><trkpt lat="43.33290797159198" lon="12.929064258241104"><ele>337.0</ele><time>2026-04-04T15:56:15.021Z</time></trkpt><trkpt lat="43.33308044168284" lon="12.929242554845288"><ele>337.0</ele><time>2026-04-04T15:56:16.021Z</time></trkpt><trkpt lat="43.33325365500079" lon="12.92941938682897"><ele>320.0</ele><time>2026-04-04T15:56:17.021Z</time></trkpt><trkpt lat="43.335586360125056" lon="12.93202791848272"><ele>323.0</ele><time>2026-04-04T15:56:21.553Z</time></trkpt><trkpt lat="43.3361269254641" lon="12.93287577108753"><ele>323.0</ele><time>2026-04-04T15:56:34Z</time></trkpt><trkpt lat="43.3362719815654" lon="12.933100513363753"><ele>323.0</ele><time>2026-04-04T15:56:35Z</time></trkpt><trkpt lat="43.336381803985034" lon="12.933301620624125"><ele>323.0</ele><time>2026-04-04T15:56:36Z</time></trkpt><trkpt lat="43.33652281172836" lon="12.933540991556006"><ele>320.0</ele><time>2026-04-04T15:56:37Z</time></trkpt><trkpt lat="43.33664966422485" lon="12.933781872660225"><ele>317.0</ele><time>2026-04-04T15:56:38Z</time></trkpt><trkpt lat="43.3367772276128" lon="12.934023944475431"><ele>314.0</ele><time>2026-04-04T15:56:39Z</time></trkpt><trkpt lat="43.33689876006835" lon="12.934264720064595"><ele>314.0</ele><time>2026-04-04T15:56:40Z</time></trkpt><trkpt lat="43.337018246129034" lon="12.934509475573682"><ele>314.0</ele><time>2026-04-04T15:56:41Z</time></trkpt><trkpt lat="43.33713319716727" lon="12.934759252767698"><ele>314.0</ele><time>2026-04-04T15:56:42Z</time></trkpt><trkpt lat="43.337244968189424" lon="12.935009065659557"><ele>313.6666666666667</ele><time>2026-04-04T15:56:43Z</time></trkpt><trkpt lat="43.337353157781955" lon="12.935260171190016"><ele>313.3333333333333</ele><time>2026-04-04T15:56:44Z</time></trkpt><trkpt lat="43.3374579648083" lon="12.935510243927178"><ele>313.0</ele><time>2026-04-04T15:56:45Z</time></trkpt><trkpt lat="43.33755888599421" lon="12.935768514048151"><ele>311.66666666666663</ele><time>2026-04-04T15:56:46Z</time></trkpt><trkpt lat="43.33765700905558" lon="12.93603204996518"><ele>310.3333333333333</ele><time>2026-04-04T15:56:47Z</time></trkpt><trkpt lat="43.33775165614475" lon="12.93629169980342"><ele>309.0</ele><time>2026-04-04T15:56:48.001Z</time></trkpt><trkpt lat="43.33784534488232" lon="12.936551651923923"><ele>308.6666666666667</ele><time>2026-04-04T15:56:49.001Z</time></trkpt><trkpt lat="43.33793986456479" lon="12.936811874831468"><ele>308.33333333333337</ele><time>2026-04-04T15:56:50.001Z</time></trkpt><trkpt lat="43.33803366877816" lon="12.937080325476659"><ele>308.0</ele><time>2026-04-04T15:56:51.001Z</time></trkpt><trkpt lat="43.33812921169011" lon="12.937339557265942"><ele>310.33333333333337</ele><time>2026-04-04T15:56:52.001Z</time></trkpt><trkpt lat="43.33822389085587" lon="12.937600790609226"><ele>312.6666666666667</ele><time>2026-04-04T15:56:53.001Z</time></trkpt><trkpt lat="43.33831951216642" lon="12.93786587700966"><ele>315.0</ele><time>2026-04-04T15:56:54.001Z</time></trkpt><trkpt lat="43.33841699995122" lon="12.93813334702725"><ele>318.6666666666667</ele><time>2026-04-04T15:56:55.001Z</time></trkpt><trkpt lat="43.33851903502957" lon="12.938395375718962"><ele>322.33333333333337</ele><time>2026-04-04T15:56:56.001Z</time></trkpt><trkpt lat="43.33861691471846" lon="12.938662555734577"><ele>326.0</ele><time>2026-04-04T15:56:57.001Z</time></trkpt><trkpt lat="43.3387173384766" lon="12.938931467886334"><ele>326.0</ele><time>2026-04-04T15:56:58.001Z</time></trkpt><trkpt lat="43.338819047067034" lon="12.939202652515403"><ele>326.0</ele><time>2026-04-04T15:56:59.001Z</time></trkpt><trkpt lat="43.33892609955884" lon="12.93948321054536"><ele>332.0</ele><time>2026-04-04T15:57:00.019Z</time></trkpt><trkpt lat="43.33903333119589" lon="12.93976352713847"><ele>338.0</ele><time>2026-04-04T15:57:01.019Z</time></trkpt><trkpt lat="43.33914388152433" lon="12.940049284342722"><ele>339.5</ele><time>2026-04-04T15:57:02.02Z</time></trkpt><trkpt lat="43.33925759117945" lon="12.940338957566881"><ele>341.0</ele><time>2026-04-04T15:57:03.015Z</time></trkpt><trkpt lat="43.339371585346086" lon="12.94063375741798"><ele>293.0</ele><time>2026-04-04T15:57:04.02Z</time></trkpt><trkpt lat="43.34067121617807" lon="12.944170469430222"><ele>293.0</ele><time>2026-04-04T15:57:16.001Z</time></trkpt><trkpt lat="43.34077476186755" lon="12.944448057947055"><ele>293.0</ele><time>2026-04-04T15:57:17.001Z</time></trkpt><trkpt lat="43.34088252449368" lon="12.944711217326253"><ele>293.0</ele><time>2026-04-04T15:57:18.001Z</time></trkpt><trkpt lat="43.340978075641814" lon="12.944976328659749"><ele>297.6666666666667</ele><time>2026-04-04T15:57:19.001Z</time></trkpt><trkpt lat="43.341072681846285" lon="12.94524002411948"><ele>302.3333333333333</ele><time>2026-04-04T15:57:20.001Z</time></trkpt><trkpt lat="43.34115923414536" lon="12.945508110026754"><ele>307.0</ele><time>2026-04-04T15:57:21.001Z</time></trkpt><trkpt lat="43.341246967493674" lon="12.945773374082606"><ele>308.3333333333333</ele><time>2026-04-04T15:57:22.001Z</time></trkpt><trkpt lat="43.341329808549695" lon="12.946047993474286"><ele>309.6666666666667</ele><time>2026-04-04T15:57:23.017Z</time></trkpt><trkpt lat="43.341409459819026" lon="12.946320990841922"><ele>311.0</ele><time>2026-04-04T15:57:24.02Z</time></trkpt><trkpt lat="43.341489495460586" lon="12.946592444625027"><ele>299.33333333333337</ele><time>2026-04-04T15:57:25.021Z</time></trkpt><trkpt lat="43.34156927711155" lon="12.94686538352299"><ele>287.6666666666667</ele><time>2026-04-04T15:57:26.022Z</time></trkpt><trkpt lat="43.34163954078803" lon="12.94713788492667"><ele>276.0</ele><time>2026-04-04T15:57:27.001Z</time></trkpt><trkpt lat="43.3417130283475" lon="12.947411474819788"><ele>275.6666666666667</ele><time>2026-04-04T15:57:28.001Z</time></trkpt><trkpt lat="43.341792256040826" lon="12.947678708935815"><ele>275.33333333333337</ele><time>2026-04-04T15:57:29.001Z</time></trkpt><trkpt lat="43.341863837640716" lon="12.947946342400023"><ele>275.0</ele><time>2026-04-04T15:57:30.001Z</time></trkpt><trkpt lat="43.34193767965885" lon="12.948218831656682"><ele>274.6666666666667</ele><time>2026-04-04T15:57:31.001Z</time></trkpt><trkpt lat="43.34201136273586" lon="12.948487021982588"><ele>274.3333333333333</ele><time>2026-04-04T15:57:32.001Z</time></trkpt><trkpt lat="43.342081098439515" lon="12.948752717185942"><ele>274.0</ele><time>2026-04-04T15:57:33.001Z</time></trkpt><trkpt lat="43.3421512987796" lon="12.949019454295689"><ele>272.66666666666663</ele><time>2026-04-04T15:57:34.001Z</time></trkpt><trkpt lat="43.34221514919993" lon="12.949283125294635"><ele>271.3333333333333</ele><time>2026-04-04T15:57:35.001Z</time></trkpt><trkpt lat="43.34228018026608" lon="12.949548449542114"><ele>270.0</ele><time>2026-04-04T15:57:36.001Z</time></trkpt><trkpt lat="43.342347547610004" lon="12.949806444928093"><ele>270.0</ele><time>2026-04-04T15:57:37.001Z</time></trkpt><trkpt lat="43.34241217273412" lon="12.950058924830138"><ele>270.0</ele><time>2026-04-04T15:57:38.001Z</time></trkpt><trkpt lat="43.34247836175015" lon="12.950297938713614"><ele>270.0</ele><time>2026-04-04T15:57:39.001Z</time></trkpt><trkpt lat="43.342539312392" lon="12.950513335460528"><ele>270.0</ele><time>2026-04-04T15:57:40.001Z</time></trkpt><trkpt lat="43.34259136320431" lon="12.950717507675272"><ele>270.0</ele><time>2026-04-04T15:57:41.001Z</time></trkpt><trkpt lat="43.342628693432786" lon="12.950902664556903"><ele>270.0</ele><time>2026-04-04T15:57:42.001Z</time></trkpt><trkpt lat="43.34264208303724" lon="12.951078719610868"><ele>270.0</ele><time>2026-04-04T15:57:43.001Z</time></trkpt><trkpt lat="43.34262438225523" lon="12.951261848455205"><ele>269.25</ele><time>2026-04-04T15:57:44.001Z</time></trkpt><trkpt lat="43.34259302094986" lon="12.951407145478647"><ele>268.5</ele><time>2026-04-04T15:57:45.001Z</time></trkpt><trkpt lat="43.342512026060014" lon="12.951545396362542"><ele>267.75</ele><time>2026-04-04T15:57:46.001Z</time></trkpt><trkpt lat="43.34240080177224" lon="12.951658080453038"><ele>267.0</ele><time>2026-04-04T15:57:47.001Z</time></trkpt><trkpt lat="43.34227167920607" lon="12.9517324825124"><ele>266.75</ele><time>2026-04-04T15:57:48.001Z</time></trkpt><trkpt lat="43.34213773222888" lon="12.951794706070956"><ele>266.5</ele><time>2026-04-04T15:57:49.001Z</time></trkpt><trkpt lat="43.342016932849276" lon="12.951900557763603"><ele>266.25</ele><time>2026-04-04T15:57:50.001Z</time></trkpt><trkpt lat="43.34192801425472" lon="12.952050462794208"><ele>266.0</ele><time>2026-04-04T15:57:51.001Z</time></trkpt><trkpt lat="43.341866032622896" lon="12.95223174741669"><ele>266.0</ele><time>2026-04-04T15:57:52.001Z</time></trkpt><trkpt lat="43.34183119108909" lon="12.95243118785732"><ele>266.0</ele><time>2026-04-04T15:57:53.001Z</time></trkpt><trkpt lat="43.34183444403645" lon="12.95262715134223"><ele>266.0</ele><time>2026-04-04T15:57:54.001Z</time></trkpt><trkpt lat="43.34187749695209" lon="12.952810290181453"><ele>266.0</ele><time>2026-04-04T15:57:55.001Z</time></trkpt><trkpt lat="43.341954621950045" lon="12.952968374791858"><ele>265.6666666666667</ele><time>2026-04-04T15:57:56.001Z</time></trkpt><trkpt lat="43.342063397158135" lon="12.953097258699563"><ele>265.3333333333333</ele><time>2026-04-04T15:57:57.001Z</time></trkpt><trkpt lat="43.342192856807614" lon="12.953207167921287"><ele>265.0</ele><time>2026-04-04T15:57:58.001Z</time></trkpt><trkpt lat="43.34232388162839" lon="12.95332158846009"><ele>264.3333333333333</ele><time>2026-04-04T15:57:59.001Z</time></trkpt><trkpt lat="43.34244437436923" lon="12.953470352950731"><ele>263.6666666666667</ele><time>2026-04-04T15:58:00.001Z</time></trkpt><trkpt lat="43.34255230829393" lon="12.95364810987492"><ele>263.0</ele><time>2026-04-04T15:58:01.001Z</time></trkpt><trkpt lat="43.34264667409716" lon="12.953847869394995"><ele>263.0</ele><time>2026-04-04T15:58:02.001Z</time></trkpt><trkpt lat="43.34272567985715" lon="12.954060356879388"><ele>263.0</ele><time>2026-04-04T15:58:03Z</time></trkpt><trkpt lat="43.34279583364728" lon="12.95427365461033"><ele>263.0</ele><time>2026-04-04T15:58:04Z</time></trkpt><trkpt lat="43.34286463605668" lon="12.95448156911724"><ele>262.33333333333337</ele><time>2026-04-04T15:58:05Z</time></trkpt><trkpt lat="43.34294502622779" lon="12.954674894257527"><ele>261.6666666666667</ele><time>2026-04-04T15:58:06Z</time></trkpt><trkpt lat="43.34305248676873" lon="12.954834258444832"><ele>261.0</ele><time>2026-04-04T15:58:07Z</time></trkpt><trkpt lat="43.34318153241713" lon="12.954940012259492"><ele>260.0</ele><time>2026-04-04T15:58:08Z</time></trkpt><trkpt lat="43.34332219662077" lon="12.954994880335102"><ele>259.0</ele><time>2026-04-04T15:58:09Z</time></trkpt><trkpt lat="43.34346864112738" lon="12.954994457256417"><ele>258.0</ele><time>2026-04-04T15:58:10Z</time></trkpt><trkpt lat="43.343614440207496" lon="12.954948120279832"><ele>257.0</ele><time>2026-04-04T15:58:11Z</time></trkpt><trkpt lat="43.34375486166235" lon="12.954874850222001"><ele>257.0</ele><time>2026-04-04T15:58:12Z</time></trkpt><trkpt lat="43.34387814899068" lon="12.95479342759115"><ele>257.0</ele><time>2026-04-04T15:58:13Z</time></trkpt><trkpt lat="43.34398305931701" lon="12.954713861126747"><ele>257.0</ele><time>2026-04-04T15:58:14Z</time></trkpt><trkpt lat="43.34406885302145" lon="12.954642837458648"><ele>257.0</ele><time>2026-04-04T15:58:15Z</time></trkpt><trkpt lat="43.344136566795086" lon="12.954594525726408"><ele>257.0</ele><time>2026-04-04T15:58:16Z</time></trkpt><trkpt lat="43.34423940164898" lon="12.954570850583956"><ele>256.83333333333337</ele><time>2026-04-04T15:58:18Z</time></trkpt><trkpt lat="43.3443054993608" lon="12.954583827985106"><ele>256.6666666666667</ele><time>2026-04-04T15:58:19Z</time></trkpt><trkpt lat="43.3443767803415" lon="12.954618971677455"><ele>256.5</ele><time>2026-04-04T15:58:20Z</time></trkpt><trkpt lat="43.344454879463775" lon="12.954651051932354"><ele>256.3333333333333</ele><time>2026-04-04T15:58:21Z</time></trkpt><trkpt lat="43.34454379215709" lon="12.954668671835286"><ele>256.16666666666663</ele><time>2026-04-04T15:58:22Z</time></trkpt><trkpt lat="43.34464361709039" lon="12.954673724773825"><ele>256.0</ele><time>2026-04-04T15:58:23Z</time></trkpt><trkpt lat="43.34474755775022" lon="12.954655325988456"><ele>255.8</ele><time>2026-04-04T15:58:24Z</time></trkpt><trkpt lat="43.3448509698687" lon="12.954622757796928"><ele>255.60000000000002</ele><time>2026-04-04T15:58:25Z</time></trkpt><trkpt lat="43.34493776939804" lon="12.95455695210511"><ele>255.4</ele><time>2026-04-04T15:58:26Z</time></trkpt><trkpt lat="43.34503064952887" lon="12.95456846731985"><ele>255.2</ele><time>2026-04-04T15:58:27Z</time></trkpt><trkpt lat="43.34510788117444" lon="12.954590387296477"><ele>255.0</ele><time>2026-04-04T15:58:28Z</time></trkpt><trkpt lat="43.345183108246665" lon="12.95464782840358"><ele>255.0</ele><time>2026-04-04T15:58:29Z</time></trkpt><trkpt lat="43.34524327110574" lon="12.954743939467082"><ele>255.0</ele><time>2026-04-04T15:58:30Z</time></trkpt><trkpt lat="43.345282998028864" lon="12.954871947039813"><ele>255.0</ele><time>2026-04-04T15:58:31Z</time></trkpt><trkpt lat="43.34529464943896" lon="12.95501957082115"><ele>255.0</ele><time>2026-04-04T15:58:32Z</time></trkpt><trkpt lat="43.34527951408889" lon="12.955171172087164"><ele>255.0</ele><time>2026-04-04T15:58:33Z</time></trkpt><trkpt lat="43.34523801784095" lon="12.955306040971637"><ele>254.8</ele><time>2026-04-04T15:58:34Z</time></trkpt><trkpt lat="43.34517837030714" lon="12.955431448240077"><ele>254.6</ele><time>2026-04-04T15:58:35Z</time></trkpt><trkpt lat="43.345111962440996" lon="12.95553726498815"><ele>254.39999999999998</ele><time>2026-04-04T15:58:36Z</time></trkpt><trkpt lat="43.34503943834159" lon="12.955611766192929"><ele>254.2</ele><time>2026-04-04T15:58:37Z</time></trkpt><trkpt lat="43.34495297852051" lon="12.955645805431837"><ele>254.0</ele><time>2026-04-04T15:58:38Z</time></trkpt><trkpt lat="43.34486370078748" lon="12.955640589271125"><ele>254.0</ele><time>2026-04-04T15:58:39Z</time></trkpt><trkpt lat="43.34476914273945" lon="12.955600500505449"><ele>253.99999999999997</ele><time>2026-04-04T15:58:40Z</time></trkpt><trkpt lat="43.34466986695054" lon="12.955559827874998"><ele>253.99999999999997</ele><time>2026-04-04T15:58:41Z</time></trkpt><trkpt lat="43.34456587202408" lon="12.955544068569797"><ele>254.0</ele><time>2026-04-04T15:58:42Z</time></trkpt><trkpt lat="43.344464519968014" lon="12.955576275818022"><ele>254.0</ele><time>2026-04-04T15:58:43Z</time></trkpt><trkpt lat="43.34437639661175" lon="12.955650243280699"><ele>253.79999999999998</ele><time>2026-04-04T15:58:44Z</time></trkpt><trkpt lat="43.34431047320306" lon="12.955749097790415"><ele>253.59999999999997</ele><time>2026-04-04T15:58:45Z</time></trkpt><trkpt lat="43.34426919780907" lon="12.955872771112837"><ele>253.4</ele><time>2026-04-04T15:58:46Z</time></trkpt><trkpt lat="43.344245265963984" lon="12.95601019892491"><ele>253.2</ele><time>2026-04-04T15:58:47Z</time></trkpt><trkpt lat="43.34423754892786" lon="12.956154734843757"><ele>253.0</ele><time>2026-04-04T15:58:48Z</time></trkpt><trkpt lat="43.34416762079637" lon="12.956295895444235"><ele>252.5</ele><time>2026-04-04T15:58:49Z</time></trkpt><trkpt lat="43.344084975039486" lon="12.956428769100487"><ele>252.0</ele><time>2026-04-04T15:58:50Z</time></trkpt><trkpt lat="43.34400077674472" lon="12.956574322925373"><ele>251.5</ele><time>2026-04-04T15:58:51Z</time></trkpt><trkpt lat="43.3438638634" lon="12.95666282351247"><ele>251.0</ele><time>2026-04-04T15:58:52.001Z</time></trkpt><trkpt lat="43.343734860115845" lon="12.956780292868842"><ele>251.0</ele><time>2026-04-04T15:58:53.001Z</time></trkpt><trkpt lat="43.34359698727783" lon="12.9569047473073"><ele>251.0</ele><time>2026-04-04T15:58:54.001Z</time></trkpt><trkpt lat="43.34345338447914" lon="12.957038429900582"><ele>251.0</ele><time>2026-04-04T15:58:55.001Z</time></trkpt><trkpt lat="43.3433079344755" lon="12.957176750834092"><ele>251.0</ele><time>2026-04-04T15:58:56.001Z</time></trkpt><trkpt lat="43.343154139946044" lon="12.957313285016848"><ele>251.0</ele><time>2026-04-04T15:58:57.001Z</time></trkpt><trkpt lat="43.34299598823568" lon="12.957453341586525"><ele>251.0</ele><time>2026-04-04T15:58:58.001Z</time></trkpt><trkpt lat="43.34283699567275" lon="12.957600538433306"><ele>250.66666666666669</ele><time>2026-04-04T15:58:59.001Z</time></trkpt><trkpt lat="43.34267291955156" lon="12.95775260599351"><ele>250.33333333333331</ele><time>2026-04-04T15:59:00.001Z</time></trkpt><trkpt lat="43.3425060703871" lon="12.957904337494673"><ele>250.0</ele><time>2026-04-04T15:59:01.001Z</time></trkpt><trkpt lat="43.34233619976794" lon="12.958059434851597"><ele>250.0</ele><time>2026-04-04T15:59:02.001Z</time></trkpt><trkpt lat="43.342163959524385" lon="12.95821927255425"><ele>250.0</ele><time>2026-04-04T15:59:03.001Z</time></trkpt><trkpt lat="43.34198751860093" lon="12.958382302326061"><ele>250.0</ele><time>2026-04-04T15:59:04.001Z</time></trkpt><trkpt lat="43.34181125490262" lon="12.95854268789444"><ele>250.0</ele><time>2026-04-04T15:59:05.001Z</time></trkpt><trkpt lat="43.341633437777006" lon="12.958704298388698"><ele>250.0</ele><time>2026-04-04T15:59:06.001Z</time></trkpt><trkpt lat="43.34145446197503" lon="12.958867762726102"><ele>250.0</ele><time>2026-04-04T15:59:07.001Z</time></trkpt><trkpt lat="43.34127385965748" lon="12.959032616291044"><ele>250.66666666666666</ele><time>2026-04-04T15:59:08.001Z</time></trkpt><trkpt lat="43.341093780507755" lon="12.959196210321288"><ele>251.33333333333331</ele><time>2026-04-04T15:59:09.001Z</time></trkpt><trkpt lat="43.340913946678256" lon="12.95936516177765"><ele>252.0</ele><time>2026-04-04T15:59:10.001Z</time></trkpt><trkpt lat="43.34073818916972" lon="12.959545911183332"><ele>252.0</ele><time>2026-04-04T15:59:11.001Z</time></trkpt><trkpt lat="43.34057252459814" lon="12.959741110772613"><ele>252.0</ele><time>2026-04-04T15:59:12.001Z</time></trkpt><trkpt lat="43.34041493365949" lon="12.959947377180404"><ele>252.0</ele><time>2026-04-04T15:59:13.001Z</time></trkpt><trkpt lat="43.34026321755493" lon="12.960167873497289"><ele>251.66666666666669</ele><time>2026-04-04T15:59:14.001Z</time></trkpt><trkpt lat="43.34011697448641" lon="12.960396498389978"><ele>251.33333333333334</ele><time>2026-04-04T15:59:15.001Z</time></trkpt><trkpt lat="43.3399762842131" lon="12.960634175387646"><ele>251.0</ele><time>2026-04-04T15:59:16.001Z</time></trkpt><trkpt lat="43.33984108199507" lon="12.960880588328536"><ele>249.66666666666669</ele><time>2026-04-04T15:59:17.001Z</time></trkpt><trkpt lat="43.339712991582694" lon="12.96113435984047"><ele>248.33333333333331</ele><time>2026-04-04T15:59:18.001Z</time></trkpt><trkpt lat="43.33959048706395" lon="12.96139251796629"><ele>247.0</ele><time>2026-04-04T15:59:19.001Z</time></trkpt><trkpt lat="43.33946429465769" lon="12.961649646409372"><ele>247.5</ele><time>2026-04-04T15:59:20.001Z</time></trkpt><trkpt lat="43.339330760420594" lon="12.961899665284188"><ele>248.0</ele><time>2026-04-04T15:59:21.001Z</time></trkpt><trkpt lat="43.33918679798936" lon="12.962139503073429"><ele>248.0</ele><time>2026-04-04T15:59:22.001Z</time></trkpt><trkpt lat="43.339033257792025" lon="12.962367897199861"><ele>248.0</ele><time>2026-04-04T15:59:23.001Z</time></trkpt><trkpt lat="43.33886850283522" lon="12.962581224564525"><ele>249.0</ele><time>2026-04-04T15:59:24.001Z</time></trkpt><trkpt lat="43.33869607262185" lon="12.962779467389574"><ele>250.0</ele><time>2026-04-04T15:59:25.001Z</time></trkpt><trkpt lat="43.33851522664152" lon="12.962967239684804"><ele>250.0</ele><time>2026-04-04T15:59:26.001Z</time></trkpt><trkpt lat="43.33832610732411" lon="12.963135241054662"><ele>250.0</ele><time>2026-04-04T15:59:27.001Z</time></trkpt><trkpt lat="43.33812804795178" lon="12.963288679148759"><ele>249.5</ele><time>2026-04-04T15:59:28.001Z</time></trkpt><trkpt lat="43.3379222245664" lon="12.963430322141456"><ele>249.0</ele><time>2026-04-04T15:59:29.001Z</time></trkpt><trkpt lat="43.33771485597354" lon="12.96354760157217"><ele>249.0</ele><time>2026-04-04T15:59:30.001Z</time></trkpt><trkpt lat="43.33749613638472" lon="12.963645920808725"><ele>249.0</ele><time>2026-04-04T15:59:31.001Z</time></trkpt><trkpt lat="43.33727582315105" lon="12.963723972222606"><ele>253.33333333333331</ele><time>2026-04-04T15:59:32.001Z</time></trkpt><trkpt lat="43.33705515736462" lon="12.96378331310951"><ele>257.66666666666663</ele><time>2026-04-04T15:59:33.001Z</time></trkpt><trkpt lat="43.33683567043738" lon="12.963827327488369"><ele>262.0</ele><time>2026-04-04T15:59:34.001Z</time></trkpt><trkpt lat="43.336616323620134" lon="12.963857826086642"><ele>262.0</ele><time>2026-04-04T15:59:35.001Z</time></trkpt><trkpt lat="43.33639805434694" lon="12.963876612620314"><ele>262.0</ele><time>2026-04-04T15:59:36.001Z</time></trkpt><trkpt lat="43.336183523477935" lon="12.963891163986721"><ele>262.0</ele><time>2026-04-04T15:59:37.001Z</time></trkpt><trkpt lat="43.3359679662186" lon="12.963904445436853"><ele>263.0</ele><time>2026-04-04T15:59:38.001Z</time></trkpt><trkpt lat="43.3357521313201" lon="12.963913062385506"><ele>264.0</ele><time>2026-04-04T15:59:39.001Z</time></trkpt><trkpt lat="43.33553753146074" lon="12.963921019582639"><ele>265.0</ele><time>2026-04-04T15:59:40.001Z</time></trkpt><trkpt lat="43.335324092596494" lon="12.963931000315823"><ele>263.0</ele><time>2026-04-04T15:59:41.001Z</time></trkpt><trkpt lat="43.33511125910955" lon="12.963948662772635"><ele>261.0</ele><time>2026-04-04T15:59:42.001Z</time></trkpt><trkpt lat="43.33490088713877" lon="12.963974243300399"><ele>259.0</ele><time>2026-04-04T15:59:43.001Z</time></trkpt><trkpt lat="43.33468965825487" lon="12.964006973779416"><ele>258.0</ele><time>2026-04-04T15:59:44.001Z</time></trkpt><trkpt lat="43.3344823370984" lon="12.964049395639254"><ele>257.0</ele><time>2026-04-04T15:59:45.001Z</time></trkpt><trkpt lat="43.33427291420475" lon="12.964095634919593"><ele>256.0</ele><time>2026-04-04T15:59:46.001Z</time></trkpt><trkpt lat="43.33406605921742" lon="12.964146874572467"><ele>259.0</ele><time>2026-04-04T15:59:47.001Z</time></trkpt><trkpt lat="43.333854569056165" lon="12.964209661381716"><ele>262.0</ele><time>2026-04-04T15:59:48.001Z</time></trkpt><trkpt lat="43.33364849571974" lon="12.964277756735399"><ele>265.0</ele><time>2026-04-04T15:59:49.001Z</time></trkpt><trkpt lat="43.33344159367195" lon="12.96435661506416"><ele>265.0</ele><time>2026-04-04T15:59:50.001Z</time></trkpt><trkpt lat="43.33323425581902" lon="12.964443174755456"><ele>265.0</ele><time>2026-04-04T15:59:51.001Z</time></trkpt><trkpt lat="43.33302008114135" lon="12.964493593418219"><ele>265.0</ele><time>2026-04-04T15:59:52.001Z</time></trkpt><trkpt lat="43.33282375988278" lon="12.964637238585624"><ele>268.66666666666663</ele><time>2026-04-04T15:59:53.001Z</time></trkpt><trkpt lat="43.33262397913715" lon="12.964746345922789"><ele>272.3333333333333</ele><time>2026-04-04T15:59:54.001Z</time></trkpt><trkpt lat="43.33242658971278" lon="12.96486187011098"><ele>276.0</ele><time>2026-04-04T15:59:55.001Z</time></trkpt><trkpt lat="43.332232075350056" lon="12.96498042616152"><ele>284.0</ele><time>2026-04-04T15:59:56.001Z</time></trkpt><trkpt lat="43.332040502236815" lon="12.965107925744752"><ele>292.0</ele><time>2026-04-04T15:59:57.001Z</time></trkpt><trkpt lat="43.33184938116987" lon="12.965245544724306"><ele>300.0</ele><time>2026-04-04T15:59:58.02Z</time></trkpt><trkpt lat="43.33166498855479" lon="12.965386572348338"><ele>300.0</ele><time>2026-04-04T15:59:59.019Z</time></trkpt><trkpt lat="43.33148151421567" lon="12.965531278439267"><ele>300.0</ele><time>2026-04-04T16:00:00.021Z</time></trkpt><trkpt lat="43.331303613187124" lon="12.965682655561196"><ele>300.0</ele><time>2026-04-04T16:00:01.022Z</time></trkpt><trkpt lat="43.3311301426494" lon="12.965839678500759"><ele>304.0</ele><time>2026-04-04T16:00:02.021Z</time></trkpt><trkpt lat="43.33096071591225" lon="12.96600233139785"><ele>308.0</ele><time>2026-04-04T16:00:03.021Z</time></trkpt><trkpt lat="43.33079248120075" lon="12.96616495651699"><ele>312.0</ele><time>2026-04-04T16:00:04.02Z</time></trkpt><trkpt lat="43.325768066610514" lon="12.971942564484637"><ele>296.5</ele><time>2026-04-04T16:00:35.002Z</time></trkpt><trkpt lat="43.32559553770503" lon="12.972057905833376"><ele>281.0</ele><time>2026-04-04T16:00:36.002Z</time></trkpt><trkpt lat="43.32533681643187" lon="12.972153377644812"><ele>279.6666666666667</ele><time>2026-04-04T16:00:37.002Z</time></trkpt><trkpt lat="43.3251401961368" lon="12.972245596455483"><ele>278.3333333333333</ele><time>2026-04-04T16:00:38.002Z</time></trkpt><trkpt lat="43.32495454774145" lon="12.97233198274927"><ele>277.0</ele><time>2026-04-04T16:00:39.002Z</time></trkpt><trkpt lat="43.32476412803071" lon="12.972407953297218"><ele>278.0</ele><time>2026-04-04T16:00:40.002Z</time></trkpt><trkpt lat="43.324577320595544" lon="12.972480164292225"><ele>279.0</ele><time>2026-04-04T16:00:41Z</time></trkpt><trkpt lat="43.32438724593296" lon="12.972543766523033"><ele>280.0</ele><time>2026-04-04T16:00:42Z</time></trkpt><trkpt lat="43.32419472953519" lon="12.972601663686802"><ele>280.3333333333333</ele><time>2026-04-04T16:00:43Z</time></trkpt><trkpt lat="43.324001285658014" lon="12.972644046405795"><ele>280.6666666666667</ele><time>2026-04-04T16:00:44Z</time></trkpt><trkpt lat="43.323807079177065" lon="12.97268553412023"><ele>281.0</ele><time>2026-04-04T16:00:45Z</time></trkpt><trkpt lat="43.32361171703862" lon="12.972723828440651"><ele>281.0</ele><time>2026-04-04T16:00:46Z</time></trkpt><trkpt lat="43.32341557104637" lon="12.972759192522831"><ele>281.0</ele><time>2026-04-04T16:00:47Z</time></trkpt><trkpt lat="43.3232224696076" lon="12.97279432547914"><ele>281.0</ele><time>2026-04-04T16:00:48Z</time></trkpt><trkpt lat="43.32302805104601" lon="12.972820583005475"><ele>281.33333333333337</ele><time>2026-04-04T16:00:49Z</time></trkpt><trkpt lat="43.322832543253725" lon="12.97285040466004"><ele>281.6666666666667</ele><time>2026-04-04T16:00:50Z</time></trkpt><trkpt lat="43.32263552964338" lon="12.972884764126707"><ele>282.0</ele><time>2026-04-04T16:00:51Z</time></trkpt><trkpt lat="43.322437336280494" lon="12.97291574695528"><ele>282.0</ele><time>2026-04-04T16:00:52Z</time></trkpt><trkpt lat="43.32224018835234" lon="12.972944417097862"><ele>282.0</ele><time>2026-04-04T16:00:53Z</time></trkpt><trkpt lat="43.322040759476224" lon="12.972975280055438"><ele>282.0</ele><time>2026-04-04T16:00:54Z</time></trkpt><trkpt lat="43.32184009112211" lon="12.97300779690311"><ele>282.6666666666667</ele><time>2026-04-04T16:00:55Z</time></trkpt><trkpt lat="43.321640119728464" lon="12.973037506360901"><ele>283.33333333333337</ele><time>2026-04-04T16:00:56Z</time></trkpt><trkpt lat="43.32144364623976" lon="12.973065397676136"><ele>284.0</ele><time>2026-04-04T16:00:57Z</time></trkpt><trkpt lat="43.321241711206106" lon="12.973099792620303"><ele>284.33333333333337</ele><time>2026-04-04T16:00:58Z</time></trkpt><trkpt lat="43.32104067178914" lon="12.973132784201962"><ele>284.6666666666667</ele><time>2026-04-04T16:00:59Z</time></trkpt><trkpt lat="43.320837334268326" lon="12.973167409069285"><ele>285.0</ele><time>2026-04-04T16:01:00Z</time></trkpt><trkpt lat="43.320632183296446" lon="12.973198839591415"><ele>284.6666666666667</ele><time>2026-04-04T16:01:01Z</time></trkpt><trkpt lat="43.3204253567579" lon="12.973233013866349"><ele>284.33333333333337</ele><time>2026-04-04T16:01:02Z</time></trkpt><trkpt lat="43.32021807773853" lon="12.973262923886514"><ele>284.0</ele><time>2026-04-04T16:01:03Z</time></trkpt><trkpt lat="43.32000960822827" lon="12.973295033258948"><ele>284.0</ele><time>2026-04-04T16:01:04Z</time></trkpt><trkpt lat="43.31979974758033" lon="12.973328907739553"><ele>284.0</ele><time>2026-04-04T16:01:05Z</time></trkpt><trkpt lat="43.319588402652414" lon="12.97335985540052"><ele>284.0</ele><time>2026-04-04T16:01:06Z</time></trkpt><trkpt lat="43.31937576586532" lon="12.973394274815053"><ele>281.33333333333337</ele><time>2026-04-04T16:01:07Z</time></trkpt><trkpt lat="43.319159979231834" lon="12.973427143728719"><ele>278.6666666666667</ele><time>2026-04-04T16:01:08Z</time></trkpt><trkpt lat="43.3189419534815" lon="12.9734605281658"><ele>276.0</ele><time>2026-04-04T16:01:09Z</time></trkpt><trkpt lat="43.318726150837314" lon="12.973494906162326"><ele>276.0</ele><time>2026-04-04T16:01:10Z</time></trkpt><trkpt lat="43.31850913691039" lon="12.973530990847804"><ele>276.0</ele><time>2026-04-04T16:01:11Z</time></trkpt><trkpt lat="43.31828806615538" lon="12.973564007023326"><ele>276.0</ele><time>2026-04-04T16:01:12Z</time></trkpt><trkpt lat="43.31806805907203" lon="12.973597296793459"><ele>276.0</ele><time>2026-04-04T16:01:13Z</time></trkpt><trkpt lat="43.317846591755455" lon="12.973632765786132"><ele>276.0</ele><time>2026-04-04T16:01:14Z</time></trkpt><trkpt lat="43.3176227813499" lon="12.973666360786012"><ele>276.0</ele><time>2026-04-04T16:01:15Z</time></trkpt><trkpt lat="43.31740130291466" lon="12.973700667320017"><ele>274.6666666666667</ele><time>2026-04-04T16:01:16Z</time></trkpt><trkpt lat="43.31717954983204" lon="12.97373745921702"><ele>273.33333333333337</ele><time>2026-04-04T16:01:17Z</time></trkpt><trkpt lat="43.31695928407155" lon="12.973773937599063"><ele>272.0</ele><time>2026-04-04T16:01:18Z</time></trkpt><trkpt lat="43.31674121995751" lon="12.97381041775739"><ele>272.0</ele><time>2026-04-04T16:01:19Z</time></trkpt><trkpt lat="43.31652407701917" lon="12.973843941865425"><ele>272.0</ele><time>2026-04-04T16:01:20Z</time></trkpt><trkpt lat="43.316306544261046" lon="12.97387930098473"><ele>272.0</ele><time>2026-04-04T16:01:21Z</time></trkpt><trkpt lat="43.31609043157226" lon="12.973911657731552"><ele>272.0</ele><time>2026-04-04T16:01:22Z</time></trkpt><trkpt lat="43.315876574543175" lon="12.973941767980644"><ele>272.0</ele><time>2026-04-04T16:01:23Z</time></trkpt><trkpt lat="43.31566212578246" lon="12.973975976263787"><ele>272.0</ele><time>2026-04-04T16:01:24Z</time></trkpt><trkpt lat="43.315447128558624" lon="12.974008260702131"><ele>272.0</ele><time>2026-04-04T16:01:25Z</time></trkpt><trkpt lat="43.315231357470594" lon="12.974040842344829"><ele>272.0</ele><time>2026-04-04T16:01:26Z</time></trkpt><trkpt lat="43.31501487575512" lon="12.974072606643354"><ele>272.0</ele><time>2026-04-04T16:01:27Z</time></trkpt><trkpt lat="43.314799599732005" lon="12.974104424374708"><ele>272.0</ele><time>2026-04-04T16:01:28Z</time></trkpt><trkpt lat="43.31458341189569" lon="12.974136369686649"><ele>272.0</ele><time>2026-04-04T16:01:29Z</time></trkpt><trkpt lat="43.314365815994705" lon="12.974168820383142"><ele>272.0</ele><time>2026-04-04T16:01:30Z</time></trkpt><trkpt lat="43.314148820436756" lon="12.97420412153226"><ele>273.0</ele><time>2026-04-04T16:01:31Z</time></trkpt><trkpt lat="43.31392786696308" lon="12.974237137781495"><ele>274.0</ele><time>2026-04-04T16:01:32Z</time></trkpt><trkpt lat="43.31370785450627" lon="12.974268952311071"><ele>275.0</ele><time>2026-04-04T16:01:33Z</time></trkpt><trkpt lat="43.3134858916202" lon="12.974303496595468"><ele>275.0</ele><time>2026-04-04T16:01:34Z</time></trkpt><trkpt lat="43.31326296144505" lon="12.974340195920655"><ele>275.0</ele><time>2026-04-04T16:01:35Z</time></trkpt><trkpt lat="43.31304037601699" lon="12.97437792902416"><ele>275.0</ele><time>2026-04-04T16:01:36Z</time></trkpt><trkpt lat="43.312816255279316" lon="12.974414838735633"><ele>275.0</ele><time>2026-04-04T16:01:37Z</time></trkpt><trkpt lat="43.312590039048196" lon="12.974453539410801"><ele>275.0</ele><time>2026-04-04T16:01:38Z</time></trkpt><trkpt lat="43.312366154197356" lon="12.974486383289365"><ele>275.0</ele><time>2026-04-04T16:01:39Z</time></trkpt><trkpt lat="43.31214443114631" lon="12.974523877607371"><ele>275.0</ele><time>2026-04-04T16:01:40Z</time></trkpt><trkpt lat="43.31192478568973" lon="12.974561778978286"><ele>275.0</ele><time>2026-04-04T16:01:41Z</time></trkpt><trkpt lat="43.31170677917452" lon="12.974602537186243"><ele>275.0</ele><time>2026-04-04T16:01:42.001Z</time></trkpt><trkpt lat="43.31149175599308" lon="12.97464378433501"><ele>275.0</ele><time>2026-04-04T16:01:43.001Z</time></trkpt><trkpt lat="43.311275161551954" lon="12.9746839969797"><ele>275.0</ele><time>2026-04-04T16:01:44.001Z</time></trkpt><trkpt lat="43.31105781836502" lon="12.974729508387835"><ele>275.0</ele><time>2026-04-04T16:01:45.001Z</time></trkpt><trkpt lat="43.31083973205312" lon="12.974774799366356"><ele>275.0</ele><time>2026-04-04T16:01:46.001Z</time></trkpt><trkpt lat="43.31062405697439" lon="12.974822394459713"><ele>275.0</ele><time>2026-04-04T16:01:47.001Z</time></trkpt><trkpt lat="43.31040939930553" lon="12.9748732861514"><ele>275.33333333333337</ele><time>2026-04-04T16:01:48.001Z</time></trkpt><trkpt lat="43.31019526044667" lon="12.9749296444745"><ele>275.6666666666667</ele><time>2026-04-04T16:01:49.001Z</time></trkpt><trkpt lat="43.309981441552914" lon="12.974988740774885"><ele>276.0</ele><time>2026-04-04T16:01:50.001Z</time></trkpt><trkpt lat="43.30976988555324" lon="12.975047280244633"><ele>275.3333333333333</ele><time>2026-04-04T16:01:51.001Z</time></trkpt><trkpt lat="43.30955586050531" lon="12.975110563905645"><ele>274.66666666666663</ele><time>2026-04-04T16:01:52.001Z</time></trkpt><trkpt lat="43.30934577039564" lon="12.975169839290196"><ele>274.0</ele><time>2026-04-04T16:01:53.001Z</time></trkpt><trkpt lat="43.309132962004256" lon="12.975235485934524"><ele>274.0</ele><time>2026-04-04T16:01:54.001Z</time></trkpt><trkpt lat="43.30891954577784" lon="12.975301888311131"><ele>274.0</ele><time>2026-04-04T16:01:55.001Z</time></trkpt><trkpt lat="43.30870555492778" lon="12.975373530241498"><ele>274.0</ele><time>2026-04-04T16:01:56.001Z</time></trkpt><trkpt lat="43.30848845590857" lon="12.975447713064678"><ele>275.3333333333333</ele><time>2026-04-04T16:01:57.001Z</time></trkpt><trkpt lat="43.30827189075082" lon="12.975524714410197"><ele>276.6666666666667</ele><time>2026-04-04T16:01:58.001Z</time></trkpt><trkpt lat="43.308054430425784" lon="12.975601440615952"><ele>278.0</ele><time>2026-04-04T16:01:59.001Z</time></trkpt><trkpt lat="43.3078357805441" lon="12.975679244854684"><ele>279.0</ele><time>2026-04-04T16:02:00.001Z</time></trkpt><trkpt lat="43.30761595767634" lon="12.975757833595662"><ele>280.0</ele><time>2026-04-04T16:02:01.001Z</time></trkpt><trkpt lat="43.30739752198906" lon="12.975836820747844"><ele>276.5</ele><time>2026-04-04T16:02:02.001Z</time></trkpt><trkpt lat="43.30718036659691" lon="12.975916885062064"><ele>273.0</ele><time>2026-04-04T16:02:03.001Z</time></trkpt><trkpt lat="43.30696332965978" lon="12.975997318773707"><ele>273.0</ele><time>2026-04-04T16:02:04.001Z</time></trkpt><trkpt lat="43.30675020451361" lon="12.97606914831167"><ele>273.0</ele><time>2026-04-04T16:02:05.001Z</time></trkpt><trkpt lat="43.30653092035519" lon="12.976151354839025"><ele>273.0</ele><time>2026-04-04T16:02:06.001Z</time></trkpt><trkpt lat="43.30631817499099" lon="12.976231182235967"><ele>275.5</ele><time>2026-04-04T16:02:07.001Z</time></trkpt><trkpt lat="43.30609302394953" lon="12.976314436987826"><ele>278.0</ele><time>2026-04-04T16:02:08.001Z</time></trkpt><trkpt lat="43.305875185709965" lon="12.976397764263613"><ele>278.0</ele><time>2026-04-04T16:02:09.001Z</time></trkpt><trkpt lat="43.30565881883914" lon="12.976479093109925"><ele>278.0</ele><time>2026-04-04T16:02:10.001Z</time></trkpt><trkpt lat="43.30544399791618" lon="12.976560990301095"><ele>278.0</ele><time>2026-04-04T16:02:11.001Z</time></trkpt><trkpt lat="43.3052271514527" lon="12.97664303362528"><ele>279.33333333333337</ele><time>2026-04-04T16:02:12.001Z</time></trkpt><trkpt lat="43.30501089340728" lon="12.976721725895239"><ele>280.6666666666667</ele><time>2026-04-04T16:02:13.001Z</time></trkpt><trkpt lat="43.304796337087595" lon="12.976799648393166"><ele>282.0</ele><time>2026-04-04T16:02:14.001Z</time></trkpt><trkpt lat="43.30458225774999" lon="12.976877519806072"><ele>282.3333333333333</ele><time>2026-04-04T16:02:15.001Z</time></trkpt><trkpt lat="43.3043681798237" lon="12.976955214904917"><ele>282.66666666666663</ele><time>2026-04-04T16:02:16.001Z</time></trkpt><trkpt lat="43.30415606472964" lon="12.977034689163421"><ele>283.0</ele><time>2026-04-04T16:02:17.001Z</time></trkpt><trkpt lat="43.30394364571665" lon="12.977115281555818"><ele>284.0</ele><time>2026-04-04T16:02:18.001Z</time></trkpt><trkpt lat="43.303733969519335" lon="12.977194081493842"><ele>285.0</ele><time>2026-04-04T16:02:19.001Z</time></trkpt><trkpt lat="43.303528012835685" lon="12.977272347626215"><ele>286.0</ele><time>2026-04-04T16:02:20.001Z</time></trkpt><trkpt lat="43.30332164015352" lon="12.977346213775567"><ele>286.0</ele><time>2026-04-04T16:02:21.001Z</time></trkpt><trkpt lat="43.303110871389876" lon="12.977420685730387"><ele>286.0</ele><time>2026-04-04T16:02:22.001Z</time></trkpt><trkpt lat="43.30290715757592" lon="12.97749574848707"><ele>286.0</ele><time>2026-04-04T16:02:23.001Z</time></trkpt><trkpt lat="43.30270196053293" lon="12.977571934266933"><ele>285.0</ele><time>2026-04-04T16:02:24.001Z</time></trkpt><trkpt lat="43.302495045786344" lon="12.977646046641011"><ele>284.0</ele><time>2026-04-04T16:02:25.001Z</time></trkpt><trkpt lat="43.302289606321395" lon="12.977723578757919"><ele>283.0</ele><time>2026-04-04T16:02:26.001Z</time></trkpt><trkpt lat="43.30208221284914" lon="12.977800699040394"><ele>283.0</ele><time>2026-04-04T16:02:27.001Z</time></trkpt><trkpt lat="43.30187593755597" lon="12.977880466569276"><ele>283.0</ele><time>2026-04-04T16:02:28.001Z</time></trkpt><trkpt lat="43.30166425615482" lon="12.977959151782066"><ele>283.0</ele><time>2026-04-04T16:02:29.001Z</time></trkpt><trkpt lat="43.30145247809359" lon="12.978042561870765"><ele>284.3333333333333</ele><time>2026-04-04T16:02:30.001Z</time></trkpt><trkpt lat="43.30123811764879" lon="12.978123179059226"><ele>285.6666666666667</ele><time>2026-04-04T16:02:31.001Z</time></trkpt><trkpt lat="43.30102427215669" lon="12.978203385280215"><ele>287.0</ele><time>2026-04-04T16:02:32.001Z</time></trkpt><trkpt lat="43.30081101371202" lon="12.978281095004663"><ele>286.33333333333337</ele><time>2026-04-04T16:02:33.001Z</time></trkpt><trkpt lat="43.30059585249581" lon="12.978361531237166"><ele>285.6666666666667</ele><time>2026-04-04T16:02:34.001Z</time></trkpt><trkpt lat="43.30037974855302" lon="12.978443678792182"><ele>285.0</ele><time>2026-04-04T16:02:35.001Z</time></trkpt><trkpt lat="43.30016068125944" lon="12.978530077081354"><ele>285.0</ele><time>2026-04-04T16:02:36.001Z</time></trkpt><trkpt lat="43.299941723130935" lon="12.97861947146256"><ele>285.0</ele><time>2026-04-04T16:02:37.001Z</time></trkpt><trkpt lat="43.299725700619824" lon="12.978707185557756"><ele>286.0</ele><time>2026-04-04T16:02:38.001Z</time></trkpt><trkpt lat="43.29950521605166" lon="12.978787162783075"><ele>287.0</ele><time>2026-04-04T16:02:39.001Z</time></trkpt><trkpt lat="43.29928493959142" lon="12.978867672540947"><ele>287.0</ele><time>2026-04-04T16:02:40.001Z</time></trkpt><trkpt lat="43.29906187028131" lon="12.9789421500646"><ele>287.0</ele><time>2026-04-04T16:02:41.001Z</time></trkpt><trkpt lat="43.298839946235546" lon="12.979020863408614"><ele>292.0</ele><time>2026-04-04T16:02:42.001Z</time></trkpt><trkpt lat="43.2986175319768" lon="12.979101423456333"><ele>297.0</ele><time>2026-04-04T16:02:43.001Z</time></trkpt><trkpt lat="43.298395106310046" lon="12.979181444852397"><ele>293.5</ele><time>2026-04-04T16:02:44.001Z</time></trkpt><trkpt lat="43.298169871534874" lon="12.979258403707162"><ele>290.0</ele><time>2026-04-04T16:02:45.001Z</time></trkpt><trkpt lat="43.297948509224625" lon="12.979337168087644"><ele>290.0</ele><time>2026-04-04T16:02:46.001Z</time></trkpt><trkpt lat="43.297727262074915" lon="12.979421801268202"><ele>290.0</ele><time>2026-04-04T16:02:47Z</time></trkpt><trkpt lat="43.29750790827626" lon="12.979503900918333"><ele>290.0</ele><time>2026-04-04T16:02:48Z</time></trkpt><trkpt lat="43.29728899875782" lon="12.979586015637967"><ele>290.0</ele><time>2026-04-04T16:02:49Z</time></trkpt><trkpt lat="43.29707177657948" lon="12.979667296594736"><ele>290.6666666666667</ele><time>2026-04-04T16:02:50Z</time></trkpt><trkpt lat="43.296855523038275" lon="12.97974761911161"><ele>291.3333333333333</ele><time>2026-04-04T16:02:51Z</time></trkpt><trkpt lat="43.29663811571588" lon="12.9798293117507"><ele>292.0</ele><time>2026-04-04T16:02:52Z</time></trkpt><trkpt lat="43.29641917910818" lon="12.979912515227356"><ele>291.3333333333333</ele><time>2026-04-04T16:02:53Z</time></trkpt><trkpt lat="43.296203252935186" lon="12.979993314483423"><ele>290.6666666666667</ele><time>2026-04-04T16:02:54Z</time></trkpt><trkpt lat="43.29598844374773" lon="12.980075632550404"><ele>290.0</ele><time>2026-04-04T16:02:55Z</time></trkpt><trkpt lat="43.29577056048049" lon="12.980156871515893"><ele>290.0</ele><time>2026-04-04T16:02:56Z</time></trkpt><trkpt lat="43.29555173525642" lon="12.980236432949944"><ele>290.0</ele><time>2026-04-04T16:02:57Z</time></trkpt><trkpt lat="43.29533369304002" lon="12.980312129686302"><ele>290.0</ele><time>2026-04-04T16:02:58Z</time></trkpt><trkpt lat="43.29511685677959" lon="12.980387218665447"><ele>290.0</ele><time>2026-04-04T16:02:59Z</time></trkpt><trkpt lat="43.29490271924179" lon="12.980466592208055"><ele>290.0</ele><time>2026-04-04T16:03:00Z</time></trkpt><trkpt lat="43.29468745374644" lon="12.980545276629247"><ele>291.33333333333337</ele><time>2026-04-04T16:03:01Z</time></trkpt><trkpt lat="43.294471844061334" lon="12.98062382719781"><ele>292.6666666666667</ele><time>2026-04-04T16:03:02Z</time></trkpt><trkpt lat="43.2942555208736" lon="12.980704070993301"><ele>294.0</ele><time>2026-04-04T16:03:03Z</time></trkpt><trkpt lat="43.29403767396893" lon="12.980785615229205"><ele>291.0</ele><time>2026-04-04T16:03:04Z</time></trkpt><trkpt lat="43.293824171955784" lon="12.980869696676493"><ele>288.0</ele><time>2026-04-04T16:03:05Z</time></trkpt><trkpt lat="43.2936098332648" lon="12.980953973967027"><ele>285.0</ele><time>2026-04-04T16:03:06Z</time></trkpt><trkpt lat="43.293394518923144" lon="12.981039899603028"><ele>285.0</ele><time>2026-04-04T16:03:07Z</time></trkpt><trkpt lat="43.2931797682605" lon="12.981129867595637"><ele>285.0</ele><time>2026-04-04T16:03:08Z</time></trkpt><trkpt lat="43.292967053959735" lon="12.981224586750086"><ele>285.0</ele><time>2026-04-04T16:03:09Z</time></trkpt><trkpt lat="43.29275610553982" lon="12.9813212109527"><ele>285.0</ele><time>2026-04-04T16:03:10Z</time></trkpt><trkpt lat="43.29254812539343" lon="12.98141990316409"><ele>285.0</ele><time>2026-04-04T16:03:11Z</time></trkpt><trkpt lat="43.29233886706755" lon="12.981523288409232"><ele>285.0</ele><time>2026-04-04T16:03:12Z</time></trkpt><trkpt lat="43.29212867465911" lon="12.981632028547503"><ele>287.3333333333333</ele><time>2026-04-04T16:03:13Z</time></trkpt><trkpt lat="43.2919205392724" lon="12.981740439649222"><ele>289.66666666666663</ele><time>2026-04-04T16:03:14Z</time></trkpt><trkpt lat="43.291715305859064" lon="12.981851648952917"><ele>292.0</ele><time>2026-04-04T16:03:15Z</time></trkpt><trkpt lat="43.291510437565044" lon="12.9819679486078"><ele>293.0</ele><time>2026-04-04T16:03:16Z</time></trkpt><trkpt lat="43.29130778717562" lon="12.982083314843159"><ele>294.0</ele><time>2026-04-04T16:03:17Z</time></trkpt><trkpt lat="43.29110037893908" lon="12.982203950004243"><ele>295.0</ele><time>2026-04-04T16:03:18Z</time></trkpt><trkpt lat="43.290895353525855" lon="12.982321066010645"><ele>295.0</ele><time>2026-04-04T16:03:19Z</time></trkpt><trkpt lat="43.29069096545743" lon="12.98243639733187"><ele>295.0</ele><time>2026-04-04T16:03:20Z</time></trkpt><trkpt lat="43.290483727100664" lon="12.98254858333713"><ele>295.0</ele><time>2026-04-04T16:03:21Z</time></trkpt><trkpt lat="43.29027721429398" lon="12.982660143478652"><ele>295.3333333333333</ele><time>2026-04-04T16:03:22Z</time></trkpt><trkpt lat="43.29007232362864" lon="12.982768942514031"><ele>295.6666666666667</ele><time>2026-04-04T16:03:23Z</time></trkpt><trkpt lat="43.289867947730606" lon="12.982873500708797"><ele>296.0</ele><time>2026-04-04T16:03:24Z</time></trkpt><trkpt lat="43.28966241959561" lon="12.982976694702812"><ele>297.0</ele><time>2026-04-04T16:03:25Z</time></trkpt><trkpt lat="43.289457063138876" lon="12.98307389968534"><ele>298.0</ele><time>2026-04-04T16:03:26Z</time></trkpt><trkpt lat="43.28925465796599" lon="12.983163655729715"><ele>299.0</ele><time>2026-04-04T16:03:27Z</time></trkpt><trkpt lat="43.28905268171247" lon="12.983247837487852"><ele>300.0</ele><time>2026-04-04T16:03:28Z</time></trkpt><trkpt lat="43.28885006079008" lon="12.983329002337458"><ele>301.0</ele><time>2026-04-04T16:03:29Z</time></trkpt><trkpt lat="43.28864789080402" lon="12.983407475342217"><ele>302.0</ele><time>2026-04-04T16:03:30Z</time></trkpt><trkpt lat="43.28844605343126" lon="12.983480899194998"><ele>302.0</ele><time>2026-04-04T16:03:31Z</time></trkpt><trkpt lat="43.28824160958349" lon="12.983548721066901"><ele>302.0</ele><time>2026-04-04T16:03:32Z</time></trkpt><trkpt lat="43.2880369827365" lon="12.983610069028927"><ele>302.0</ele><time>2026-04-04T16:03:33Z</time></trkpt><trkpt lat="43.28782969601683" lon="12.983669146611126"><ele>304.0</ele><time>2026-04-04T16:03:34Z</time></trkpt><trkpt lat="43.28762041776473" lon="12.983725915014562"><ele>306.0</ele><time>2026-04-04T16:03:35Z</time></trkpt><trkpt lat="43.287410124373125" lon="12.983778572504125"><ele>308.0</ele><time>2026-04-04T16:03:36Z</time></trkpt><trkpt lat="43.28719837979379" lon="12.983830264352347"><ele>310.33333333333337</ele><time>2026-04-04T16:03:37Z</time></trkpt><trkpt lat="43.28698487651568" lon="12.983877138885404"><ele>312.6666666666667</ele><time>2026-04-04T16:03:38Z</time></trkpt><trkpt lat="43.28677089797206" lon="12.983918403626728"><ele>315.0</ele><time>2026-04-04T16:03:39Z</time></trkpt><trkpt lat="43.286557752503825" lon="12.983961262675496"><ele>318.6666666666667</ele><time>2026-04-04T16:03:40Z</time></trkpt><trkpt lat="43.286342666844384" lon="12.984002370605417"><ele>322.33333333333337</ele><time>2026-04-04T16:03:41Z</time></trkpt><trkpt lat="43.28612800386997" lon="12.984040557636773"><ele>326.0</ele><time>2026-04-04T16:03:42Z</time></trkpt><trkpt lat="43.28591360164287" lon="12.984079780659556"><ele>326.0</ele><time>2026-04-04T16:03:43Z</time></trkpt><trkpt lat="43.28570343920232" lon="12.984121461137255"><ele>326.0</ele><time>2026-04-04T16:03:44Z</time></trkpt><trkpt lat="43.285495651811814" lon="12.98416093677376"><ele>326.0</ele><time>2026-04-04T16:03:45.001Z</time></trkpt><trkpt lat="43.28528840515379" lon="12.984202575207311"><ele>324.6666666666667</ele><time>2026-04-04T16:03:46.001Z</time></trkpt><trkpt lat="43.285083747340835" lon="12.984246287960358"><ele>323.3333333333333</ele><time>2026-04-04T16:03:47.001Z</time></trkpt><trkpt lat="43.2848787939975" lon="12.984296331766783"><ele>322.0</ele><time>2026-04-04T16:03:48.001Z</time></trkpt><trkpt lat="43.28467283972413" lon="12.984349507364485"><ele>322.0</ele><time>2026-04-04T16:03:49.001Z</time></trkpt><trkpt lat="43.28446442031172" lon="12.984410666523717"><ele>322.0</ele><time>2026-04-04T16:03:50.001Z</time></trkpt><trkpt lat="43.28426051333184" lon="12.984473699375398"><ele>322.0</ele><time>2026-04-04T16:03:51.001Z</time></trkpt><trkpt lat="43.28405384476911" lon="12.984547146348604"><ele>323.3333333333333</ele><time>2026-04-04T16:03:52.001Z</time></trkpt><trkpt lat="43.2838457807795" lon="12.984624379287661"><ele>324.6666666666667</ele><time>2026-04-04T16:03:53.001Z</time></trkpt><trkpt lat="43.28363833153617" lon="12.984704173872428"><ele>326.0</ele><time>2026-04-04T16:03:54.001Z</time></trkpt><trkpt lat="43.28343476507816" lon="12.984784740172708"><ele>326.0</ele><time>2026-04-04T16:03:55.001Z</time></trkpt><trkpt lat="43.28322981318717" lon="12.984876990759028"><ele>326.0</ele><time>2026-04-04T16:03:56.001Z</time></trkpt><trkpt lat="43.28302286263739" lon="12.984972425599063"><ele>326.0</ele><time>2026-04-04T16:03:57.001Z</time></trkpt><trkpt lat="43.28281489630687" lon="12.985076790671837"><ele>326.0</ele><time>2026-04-04T16:03:58.001Z</time></trkpt><trkpt lat="43.2826053401728" lon="12.985178121259448"><ele>326.0</ele><time>2026-04-04T16:03:59.001Z</time></trkpt><trkpt lat="43.282396724782316" lon="12.985287263315339"><ele>326.0</ele><time>2026-04-04T16:04:00.001Z</time></trkpt><trkpt lat="43.282188588556245" lon="12.98540084553845"><ele>328.0</ele><time>2026-04-04T16:04:01.001Z</time></trkpt><trkpt lat="43.28198058882163" lon="12.985512528457157"><ele>330.0</ele><time>2026-04-04T16:04:02.001Z</time></trkpt><trkpt lat="43.2817763841904" lon="12.985630777388726"><ele>332.0</ele><time>2026-04-04T16:04:03.001Z</time></trkpt><trkpt lat="43.28157309409193" lon="12.985750863291216"><ele>331.6666666666667</ele><time>2026-04-04T16:04:04.001Z</time></trkpt><trkpt lat="43.28137101205556" lon="12.985870231026796"><ele>331.3333333333333</ele><time>2026-04-04T16:04:05.001Z</time></trkpt><trkpt lat="43.281170622573036" lon="12.985991367710364"><ele>331.0</ele><time>2026-04-04T16:04:06.001Z</time></trkpt><trkpt lat="43.28097013394464" lon="12.986118122576032"><ele>331.0</ele><time>2026-04-04T16:04:07.001Z</time></trkpt><trkpt lat="43.280769160766035" lon="12.986237124866566"><ele>331.0</ele><time>2026-04-04T16:04:08.001Z</time></trkpt><trkpt lat="43.280569367091424" lon="12.986359536709626"><ele>331.0</ele><time>2026-04-04T16:04:09.001Z</time></trkpt><trkpt lat="43.2803697794594" lon="12.98647998285081"><ele>330.66666666666663</ele><time>2026-04-04T16:04:10.001Z</time></trkpt><trkpt lat="43.280170740065635" lon="12.986600095893353"><ele>330.3333333333333</ele><time>2026-04-04T16:04:11.001Z</time></trkpt><trkpt lat="43.27997184071342" lon="12.986724710913705"><ele>330.0</ele><time>2026-04-04T16:04:12.001Z</time></trkpt><trkpt lat="43.27977308417861" lon="12.986842490298054"><ele>329.3333333333333</ele><time>2026-04-04T16:04:13.001Z</time></trkpt><trkpt lat="43.2795715997103" lon="12.986964375408832"><ele>328.66666666666663</ele><time>2026-04-04T16:04:14.001Z</time></trkpt><trkpt lat="43.27936792030486" lon="12.987085370517933"><ele>328.0</ele><time>2026-04-04T16:04:15.001Z</time></trkpt><trkpt lat="43.279166577475266" lon="12.987201317473536"><ele>328.0</ele><time>2026-04-04T16:04:16.001Z</time></trkpt><trkpt lat="43.27896503838855" lon="12.987316905700487"><ele>328.0</ele><time>2026-04-04T16:04:17.001Z</time></trkpt><trkpt lat="43.27875999387223" lon="12.987439331251233"><ele>328.0</ele><time>2026-04-04T16:04:18.001Z</time></trkpt><trkpt lat="43.27854948036803" lon="12.987568075175577"><ele>324.0</ele><time>2026-04-04T16:04:19.001Z</time></trkpt><trkpt lat="43.278339859414324" lon="12.987693644995641"><ele>320.0</ele><time>2026-04-04T16:04:20.001Z</time></trkpt><trkpt lat="43.278131559702956" lon="12.987821052541943"><ele>320.5</ele><time>2026-04-04T16:04:21.001Z</time></trkpt><trkpt lat="43.27792273180984" lon="12.98795101153842"><ele>321.0</ele><time>2026-04-04T16:04:22.001Z</time></trkpt><trkpt lat="43.277712945740625" lon="12.98807424837765"><ele>321.0</ele><time>2026-04-04T16:04:23.001Z</time></trkpt><trkpt lat="43.27750093830434" lon="12.988195528898114"><ele>321.0</ele><time>2026-04-04T16:04:24.001Z</time></trkpt><trkpt lat="43.277289749598644" lon="12.988316275933286"><ele>320.0</ele><time>2026-04-04T16:04:25.001Z</time></trkpt><trkpt lat="43.277076659770906" lon="12.988435943844237"><ele>319.0</ele><time>2026-04-04T16:04:26.001Z</time></trkpt><trkpt lat="43.27686266809174" lon="12.98855377223037"><ele>319.0</ele><time>2026-04-04T16:04:27.001Z</time></trkpt><trkpt lat="43.27664717099652" lon="12.988664649028582"><ele>319.0</ele><time>2026-04-04T16:04:28.001Z</time></trkpt><trkpt lat="43.27643053251858" lon="12.988771847876189"><ele>320.0</ele><time>2026-04-04T16:04:29.001Z</time></trkpt><trkpt lat="43.27621299438053" lon="12.988872545877369"><ele>321.0</ele><time>2026-04-04T16:04:30.001Z</time></trkpt><trkpt lat="43.275994780493534" lon="12.98896792403618"><ele>321.0</ele><time>2026-04-04T16:04:31.001Z</time></trkpt><trkpt lat="43.27577464540345" lon="12.9890567141811"><ele>321.0</ele><time>2026-04-04T16:04:32.001Z</time></trkpt><trkpt lat="43.27555141302644" lon="12.989146151373202"><ele>319.5</ele><time>2026-04-04T16:04:33.001Z</time></trkpt><trkpt lat="43.27532877248366" lon="12.989217375959054"><ele>318.0</ele><time>2026-04-04T16:04:34.001Z</time></trkpt><trkpt lat="43.27510449511558" lon="12.98928195811021"><ele>318.0</ele><time>2026-04-04T16:04:35.001Z</time></trkpt><trkpt lat="43.27487931348394" lon="12.989341237355731"><ele>318.0</ele><time>2026-04-04T16:04:36.001Z</time></trkpt><trkpt lat="43.27465383465025" lon="12.989393400747403"><ele>319.5</ele><time>2026-04-04T16:04:37.001Z</time></trkpt><trkpt lat="43.27442829464236" lon="12.989437658502816"><ele>321.0</ele><time>2026-04-04T16:04:38.001Z</time></trkpt><trkpt lat="43.27420183135294" lon="12.989471760959251"><ele>321.0</ele><time>2026-04-04T16:04:39.001Z</time></trkpt><trkpt lat="43.27397631831726" lon="12.98950068896027"><ele>321.0</ele><time>2026-04-04T16:04:40.001Z</time></trkpt><trkpt lat="43.27375042870989" lon="12.989521762620424"><ele>320.0</ele><time>2026-04-04T16:04:41.001Z</time></trkpt><trkpt lat="43.27352587151254" lon="12.989536855433483"><ele>319.0</ele><time>2026-04-04T16:04:42.001Z</time></trkpt><trkpt lat="43.27330103408549" lon="12.989543150645266"><ele>320.0</ele><time>2026-04-04T16:04:43.001Z</time></trkpt><trkpt lat="43.27307741418362" lon="12.98954316887922"><ele>321.0</ele><time>2026-04-04T16:04:44.001Z</time></trkpt><trkpt lat="43.27285533134183" lon="12.989539085386753"><ele>322.0</ele><time>2026-04-04T16:04:45.001Z</time></trkpt><trkpt lat="43.27263621987818" lon="12.989531211659903"><ele>322.0</ele><time>2026-04-04T16:04:46.001Z</time></trkpt><trkpt lat="43.272418404823654" lon="12.989518932438367"><ele>322.0</ele><time>2026-04-04T16:04:47.001Z</time></trkpt><trkpt lat="43.27220113816991" lon="12.989497314908261"><ele>322.0</ele><time>2026-04-04T16:04:48.001Z</time></trkpt><trkpt lat="43.27198411133356" lon="12.989465214310814"><ele>322.66666666666663</ele><time>2026-04-04T16:04:49.001Z</time></trkpt><trkpt lat="43.271767366636276" lon="12.98942768834492"><ele>323.3333333333333</ele><time>2026-04-04T16:04:50.001Z</time></trkpt><trkpt lat="43.27155558437403" lon="12.989380913767722"><ele>324.0</ele><time>2026-04-04T16:04:51.001Z</time></trkpt><trkpt lat="43.271349234750055" lon="12.989330460050466"><ele>323.6666666666667</ele><time>2026-04-04T16:04:52.001Z</time></trkpt><trkpt lat="43.27114366444116" lon="12.989273959682317"><ele>323.33333333333337</ele><time>2026-04-04T16:04:53Z</time></trkpt><trkpt lat="43.270935682991464" lon="12.989206349867313"><ele>323.0</ele><time>2026-04-04T16:04:54Z</time></trkpt><trkpt lat="43.27072964537557" lon="12.989137302986308"><ele>325.33333333333337</ele><time>2026-04-04T16:04:55Z</time></trkpt><trkpt lat="43.27052816943153" lon="12.989064076808184"><ele>327.6666666666667</ele><time>2026-04-04T16:04:56Z</time></trkpt><trkpt lat="43.27032746001272" lon="12.988983235101262"><ele>330.0</ele><time>2026-04-04T16:04:57Z</time></trkpt><trkpt lat="43.27012681548612" lon="12.988899090744807"><ele>330.0</ele><time>2026-04-04T16:04:58Z</time></trkpt><trkpt lat="43.26992843036976" lon="12.988811380509574"><ele>330.0</ele><time>2026-04-04T16:04:59Z</time></trkpt><trkpt lat="43.26973079821101" lon="12.988718817450478"><ele>330.0</ele><time>2026-04-04T16:05:00Z</time></trkpt><trkpt lat="43.26953493309853" lon="12.988624116293458"><ele>330.0</ele><time>2026-04-04T16:05:01Z</time></trkpt><trkpt lat="43.26933746871512" lon="12.988526195664202"><ele>330.0</ele><time>2026-04-04T16:05:02Z</time></trkpt><trkpt lat="43.269139734175354" lon="12.988426697550834"><ele>330.0</ele><time>2026-04-04T16:05:03Z</time></trkpt><trkpt lat="43.26894320057743" lon="12.988330209841779"><ele>333.3333333333333</ele><time>2026-04-04T16:05:04Z</time></trkpt><trkpt lat="43.268746873366865" lon="12.988232109347564"><ele>336.66666666666663</ele><time>2026-04-04T16:05:05Z</time></trkpt><trkpt lat="43.26854992087822" lon="12.988135708098238"><ele>340.0</ele><time>2026-04-04T16:05:06Z</time></trkpt><trkpt lat="43.26835092532919" lon="12.988040670077806"><ele>340.0</ele><time>2026-04-04T16:05:07Z</time></trkpt><trkpt lat="43.26815027803957" lon="12.987947706147706"><ele>340.0</ele><time>2026-04-04T16:05:08Z</time></trkpt><trkpt lat="43.26794971492492" lon="12.987852795583994"><ele>340.0</ele><time>2026-04-04T16:05:09Z</time></trkpt><trkpt lat="43.26775031210421" lon="12.987754937283487"><ele>339.3333333333333</ele><time>2026-04-04T16:05:10Z</time></trkpt><trkpt lat="43.26754806910482" lon="12.987662938563869"><ele>338.6666666666667</ele><time>2026-04-04T16:05:11Z</time></trkpt><trkpt lat="43.267345438718884" lon="12.98757316557213"><ele>338.0</ele><time>2026-04-04T16:05:12Z</time></trkpt><trkpt lat="43.267139528282485" lon="12.987488508145274"><ele>338.0</ele><time>2026-04-04T16:05:13Z</time></trkpt><trkpt lat="43.26693390058152" lon="12.987410043609094"><ele>338.0</ele><time>2026-04-04T16:05:14Z</time></trkpt><trkpt lat="43.266727478669544" lon="12.98733397750029"><ele>338.0</ele><time>2026-04-04T16:05:15Z</time></trkpt><trkpt lat="43.26652132692659" lon="12.987260009908788"><ele>339.0</ele><time>2026-04-04T16:05:16Z</time></trkpt><trkpt lat="43.266317427626554" lon="12.987191760290308"><ele>340.0</ele><time>2026-04-04T16:05:17Z</time></trkpt><trkpt lat="43.266111678472626" lon="12.987128118112206"><ele>341.0</ele><time>2026-04-04T16:05:18Z</time></trkpt><trkpt lat="43.26590751486951" lon="12.987062528524577"><ele>341.0</ele><time>2026-04-04T16:05:19Z</time></trkpt><trkpt lat="43.26570396066209" lon="12.987004451773261"><ele>341.0</ele><time>2026-04-04T16:05:20Z</time></trkpt><trkpt lat="43.26549743659989" lon="12.986952226112557"><ele>341.0</ele><time>2026-04-04T16:05:21Z</time></trkpt><trkpt lat="43.265289852649985" lon="12.986900840857937"><ele>344.33333333333337</ele><time>2026-04-04T16:05:22Z</time></trkpt><trkpt lat="43.26508263989802" lon="12.98686028748413"><ele>347.6666666666667</ele><time>2026-04-04T16:05:23Z</time></trkpt><trkpt lat="43.264875390108706" lon="12.986819424275922"><ele>351.0</ele><time>2026-04-04T16:05:24Z</time></trkpt><trkpt lat="43.264666770740355" lon="12.986779592776937"><ele>354.0</ele><time>2026-04-04T16:05:25Z</time></trkpt><trkpt lat="43.264454754915015" lon="12.986740413102666"><ele>357.0</ele><time>2026-04-04T16:05:26Z</time></trkpt><trkpt lat="43.26425393945064" lon="12.986707611660083"><ele>360.0</ele><time>2026-04-04T16:05:27Z</time></trkpt><trkpt lat="43.264042812485755" lon="12.986682508621763"><ele>355.6666666666667</ele><time>2026-04-04T16:05:28Z</time></trkpt><trkpt lat="43.263828778728005" lon="12.986661440715551"><ele>351.33333333333337</ele><time>2026-04-04T16:05:29Z</time></trkpt><trkpt lat="43.26361363763797" lon="12.986641850382092"><ele>347.0</ele><time>2026-04-04T16:05:30Z</time></trkpt><trkpt lat="43.26339810650204" lon="12.986626755531855"><ele>347.0</ele><time>2026-04-04T16:05:31Z</time></trkpt><trkpt lat="43.26318272680923" lon="12.986615137116667"><ele>347.0</ele><time>2026-04-04T16:05:32Z</time></trkpt><trkpt lat="43.262966680879835" lon="12.986604139368973"><ele>347.0</ele><time>2026-04-04T16:05:33Z</time></trkpt><trkpt lat="43.26275202333715" lon="12.986595269159857"><ele>347.6666666666667</ele><time>2026-04-04T16:05:34Z</time></trkpt><trkpt lat="43.26253857456413" lon="12.98659370012572"><ele>348.3333333333333</ele><time>2026-04-04T16:05:35Z</time></trkpt><trkpt lat="43.26232345398355" lon="12.986597431167896"><ele>349.0</ele><time>2026-04-04T16:05:36Z</time></trkpt><trkpt lat="43.26210867986253" lon="12.986600782682219"><ele>353.0</ele><time>2026-04-04T16:05:37Z</time></trkpt><trkpt lat="43.2618968036336" lon="12.986604287590762"><ele>357.0</ele><time>2026-04-04T16:05:38Z</time></trkpt><trkpt lat="43.26167950703057" lon="12.986613101048022"><ele>361.0</ele><time>2026-04-04T16:05:39.001Z</time></trkpt><trkpt lat="43.26146639135726" lon="12.986625780884143"><ele>365.0</ele><time>2026-04-04T16:05:40.001Z</time></trkpt><trkpt lat="43.26124939942967" lon="12.986635811978362"><ele>369.0</ele><time>2026-04-04T16:05:41.001Z</time></trkpt><trkpt lat="43.26102960871043" lon="12.986646498650096"><ele>373.0</ele><time>2026-04-04T16:05:42.001Z</time></trkpt><trkpt lat="43.26079704889175" lon="12.986662370091274"><ele>379.5</ele><time>2026-04-04T16:05:43.019Z</time></trkpt><trkpt lat="43.26056906246645" lon="12.98667416745326"><ele>386.0</ele><time>2026-04-04T16:05:44.014Z</time></trkpt><trkpt lat="43.260337520277325" lon="12.986685031615949"><ele>386.0</ele><time>2026-04-04T16:05:45.019Z</time></trkpt><trkpt lat="43.260106007090705" lon="12.986692822553778"><ele>386.0</ele><time>2026-04-04T16:05:46.016Z</time></trkpt><trkpt lat="43.24777278121863" lon="12.987424107280548"><ele>380.0</ele><time>2026-04-04T16:06:39.001Z</time></trkpt><trkpt lat="43.247557388682694" lon="12.987438582643717"><ele>374.0</ele><time>2026-04-04T16:06:40.001Z</time></trkpt><trkpt lat="43.24730503672257" lon="12.98741658077983"><ele>374.33333333333337</ele><time>2026-04-04T16:06:41.001Z</time></trkpt><trkpt lat="43.247097934243975" lon="12.987438581768966"><ele>374.6666666666667</ele><time>2026-04-04T16:06:42.001Z</time></trkpt><trkpt lat="43.24688204226216" lon="12.987471198288407"><ele>375.0</ele><time>2026-04-04T16:06:43.001Z</time></trkpt><trkpt lat="43.246666979969596" lon="12.987499842606859"><ele>378.33333333333337</ele><time>2026-04-04T16:06:44.001Z</time></trkpt><trkpt lat="43.24645337719366" lon="12.987529158332846"><ele>381.6666666666667</ele><time>2026-04-04T16:06:45.001Z</time></trkpt><trkpt lat="43.24624295418306" lon="12.987586048086087"><ele>385.0</ele><time>2026-04-04T16:06:46.001Z</time></trkpt><trkpt lat="43.24603811327035" lon="12.98763929731821"><ele>385.0</ele><time>2026-04-04T16:06:47.001Z</time></trkpt><trkpt lat="43.24583184770457" lon="12.987688899806491"><ele>385.0</ele><time>2026-04-04T16:06:48.001Z</time></trkpt><trkpt lat="43.24562970508999" lon="12.987744950803691"><ele>385.0</ele><time>2026-04-04T16:06:49.001Z</time></trkpt><trkpt lat="43.24542796545757" lon="12.987806951514683"><ele>385.33333333333337</ele><time>2026-04-04T16:06:50.001Z</time></trkpt><trkpt lat="43.24523097135708" lon="12.98787492103311"><ele>385.66666666666663</ele><time>2026-04-04T16:06:51.001Z</time></trkpt><trkpt lat="43.24503600179155" lon="12.987954558314746"><ele>386.0</ele><time>2026-04-04T16:06:52.001Z</time></trkpt><trkpt lat="43.24484392553245" lon="12.988037417495189"><ele>386.0</ele><time>2026-04-04T16:06:53.001Z</time></trkpt><trkpt lat="43.24465646038087" lon="12.988125374670922"><ele>386.0</ele><time>2026-04-04T16:06:54.001Z</time></trkpt><trkpt lat="43.244473606133724" lon="12.98821798525344"><ele>386.0</ele><time>2026-04-04T16:06:55.001Z</time></trkpt><trkpt lat="43.24430266858432" lon="12.988304941641301"><ele>386.3333333333333</ele><time>2026-04-04T16:06:56.001Z</time></trkpt><trkpt lat="43.244121915037965" lon="12.988413887343938"><ele>386.66666666666663</ele><time>2026-04-04T16:06:57.001Z</time></trkpt><trkpt lat="43.243945555296285" lon="12.988517965991853"><ele>387.0</ele><time>2026-04-04T16:06:58.001Z</time></trkpt><trkpt lat="43.24377024293376" lon="12.988628541569337"><ele>387.0</ele><time>2026-04-04T16:06:59Z</time></trkpt><trkpt lat="43.2435974998838" lon="12.98874869931264"><ele>387.0</ele><time>2026-04-04T16:07:00Z</time></trkpt><trkpt lat="43.24342827039164" lon="12.988872132061326"><ele>387.0</ele><time>2026-04-04T16:07:01Z</time></trkpt><trkpt lat="43.24325809310406" lon="12.989003399612852"><ele>387.66666666666663</ele><time>2026-04-04T16:07:02Z</time></trkpt><trkpt lat="43.24308964574729" lon="12.98914249981918"><ele>388.3333333333333</ele><time>2026-04-04T16:07:03Z</time></trkpt><trkpt lat="43.24291979019711" lon="12.989287638705477"><ele>389.0</ele><time>2026-04-04T16:07:04Z</time></trkpt><trkpt lat="43.24275130513745" lon="12.98944760355069"><ele>389.0</ele><time>2026-04-04T16:07:05Z</time></trkpt><trkpt lat="43.2425863689465" lon="12.989614680213464"><ele>389.0</ele><time>2026-04-04T16:07:06Z</time></trkpt><trkpt lat="43.2424197165818" lon="12.989789591793707"><ele>389.0</ele><time>2026-04-04T16:07:07Z</time></trkpt><trkpt lat="43.24225662861939" lon="12.989970732478488"><ele>389.3333333333333</ele><time>2026-04-04T16:07:08Z</time></trkpt><trkpt lat="43.24209564254451" lon="12.990161962574941"><ele>389.66666666666663</ele><time>2026-04-04T16:07:09Z</time></trkpt><trkpt lat="43.24193929606879" lon="12.990358818355793"><ele>390.0</ele><time>2026-04-04T16:07:10Z</time></trkpt><trkpt lat="43.24178182859802" lon="12.990560836241578"><ele>390.0</ele><time>2026-04-04T16:07:11Z</time></trkpt><trkpt lat="43.241630637892136" lon="12.990773247245015"><ele>390.0</ele><time>2026-04-04T16:07:12Z</time></trkpt><trkpt lat="43.24148396247284" lon="12.990992340002704"><ele>390.0</ele><time>2026-04-04T16:07:13Z</time></trkpt><trkpt lat="43.24133860636944" lon="12.991212511224123"><ele>390.0</ele><time>2026-04-04T16:07:14Z</time></trkpt><trkpt lat="43.24119653405233" lon="12.99143548306097"><ele>390.0</ele><time>2026-04-04T16:07:15Z</time></trkpt><trkpt lat="43.241061429694675" lon="12.991660248758839"><ele>390.0</ele><time>2026-04-04T16:07:16Z</time></trkpt><trkpt lat="43.240925249697" lon="12.991890671379863"><ele>389.0</ele><time>2026-04-04T16:07:17Z</time></trkpt><trkpt lat="43.24079917479133" lon="12.992128011060814"><ele>388.0</ele><time>2026-04-04T16:07:18Z</time></trkpt><trkpt lat="43.24068025254199" lon="12.992363057994575"><ele>387.0</ele><time>2026-04-04T16:07:19Z</time></trkpt><trkpt lat="43.240567067011234" lon="12.99259415581814"><ele>390.66666666666663</ele><time>2026-04-04T16:07:20Z</time></trkpt><trkpt lat="43.24046500035393" lon="12.992818564089884"><ele>394.3333333333333</ele><time>2026-04-04T16:07:21Z</time></trkpt><trkpt lat="43.24037410770817" lon="12.993031543116988"><ele>398.0</ele><time>2026-04-04T16:07:22Z</time></trkpt><trkpt lat="43.24028893488489" lon="12.993241591263924"><ele>401.3333333333333</ele><time>2026-04-04T16:07:23Z</time></trkpt><trkpt lat="43.240207882891255" lon="12.993443892740455"><ele>404.66666666666663</ele><time>2026-04-04T16:07:24Z</time></trkpt><trkpt lat="43.240132397767574" lon="12.993645103418249"><ele>408.0</ele><time>2026-04-04T16:07:25Z</time></trkpt><trkpt lat="43.24006232416888" lon="12.99384429110961"><ele>408.0</ele><time>2026-04-04T16:07:26Z</time></trkpt><trkpt lat="43.239998218300485" lon="12.994044748832442"><ele>408.0</ele><time>2026-04-04T16:07:27Z</time></trkpt><trkpt lat="43.23993669420998" lon="12.99424095546506"><ele>408.0</ele><time>2026-04-04T16:07:28Z</time></trkpt><trkpt lat="43.23988168084758" lon="12.994421111165005"><ele>408.25</ele><time>2026-04-04T16:07:29Z</time></trkpt><trkpt lat="43.2398316067626" lon="12.994591533586659"><ele>408.5</ele><time>2026-04-04T16:07:30Z</time></trkpt><trkpt lat="43.23978548303646" lon="12.994756655568859"><ele>408.75</ele><time>2026-04-04T16:07:31Z</time></trkpt><trkpt lat="43.23974398838192" lon="12.994912356628548"><ele>409.0</ele><time>2026-04-04T16:07:32Z</time></trkpt><trkpt lat="43.23970635519172" lon="12.995052371137065"><ele>410.1666666666667</ele><time>2026-04-04T16:07:33Z</time></trkpt><trkpt lat="43.23967436514305" lon="12.99517600095438"><ele>411.33333333333337</ele><time>2026-04-04T16:07:34Z</time></trkpt><trkpt lat="43.239664313207975" lon="12.995298314471414"><ele>412.5</ele><time>2026-04-04T16:07:35Z</time></trkpt><trkpt lat="43.23963802936429" lon="12.995401272110756"><ele>413.66666666666663</ele><time>2026-04-04T16:07:36Z</time></trkpt><trkpt lat="43.239611999669314" lon="12.995499903787351"><ele>414.8333333333333</ele><time>2026-04-04T16:07:37Z</time></trkpt><trkpt lat="43.239588301233304" lon="12.995595970735716"><ele>416.0</ele><time>2026-04-04T16:07:38Z</time></trkpt><trkpt lat="43.23956795198703" lon="12.995685527528446"><ele>416.0</ele><time>2026-04-04T16:07:39Z</time></trkpt><trkpt lat="43.239547565903926" lon="12.99577355827222"><ele>416.0</ele><time>2026-04-04T16:07:40Z</time></trkpt><trkpt lat="43.23952839661929" lon="12.995857724918377"><ele>416.0</ele><time>2026-04-04T16:07:41Z</time></trkpt><trkpt lat="43.23951266363027" lon="12.995943307097559"><ele>416.0</ele><time>2026-04-04T16:07:42Z</time></trkpt><trkpt lat="43.23949415810343" lon="12.99602641350688"><ele>416.0</ele><time>2026-04-04T16:07:43Z</time></trkpt><trkpt lat="43.23947883070125" lon="12.996110369111792"><ele>416.0</ele><time>2026-04-04T16:07:44Z</time></trkpt><trkpt lat="43.2394574835033" lon="12.996196146031366"><ele>416.0</ele><time>2026-04-04T16:07:45Z</time></trkpt><trkpt lat="43.239439387739054" lon="12.996280432896059"><ele>415.49999999999994</ele><time>2026-04-04T16:07:46Z</time></trkpt><trkpt lat="43.23941776789175" lon="12.996370502222831"><ele>415.0</ele><time>2026-04-04T16:07:47Z</time></trkpt><trkpt lat="43.23940084926426" lon="12.996455934543981"><ele>414.5</ele><time>2026-04-04T16:07:48Z</time></trkpt><trkpt lat="43.23936539869115" lon="12.99662757562352"><ele>414.0</ele><time>2026-04-04T16:07:50Z</time></trkpt><trkpt lat="43.239347240326026" lon="12.996717624195876"><ele>413.49999999999994</ele><time>2026-04-04T16:07:51Z</time></trkpt><trkpt lat="43.239325718584205" lon="12.996812877982059"><ele>413.0</ele><time>2026-04-04T16:07:52Z</time></trkpt><trkpt lat="43.2393052765767" lon="12.996904554471177"><ele>413.0</ele><time>2026-04-04T16:07:53Z</time></trkpt><trkpt lat="43.23928525709931" lon="12.996995150596836"><ele>413.0</ele><time>2026-04-04T16:07:54.001Z</time></trkpt><trkpt lat="43.23926322376809" lon="12.997088333725399"><ele>413.0</ele><time>2026-04-04T16:07:55.001Z</time></trkpt><trkpt lat="43.23924320306191" lon="12.99718021767342"><ele>413.0</ele><time>2026-04-04T16:07:56.001Z</time></trkpt><trkpt lat="43.2392265417552" lon="12.997273573991736"><ele>413.0</ele><time>2026-04-04T16:07:57.001Z</time></trkpt><trkpt lat="43.2392084636429" lon="12.997363301259895"><ele>413.0</ele><time>2026-04-04T16:07:58.001Z</time></trkpt><trkpt lat="43.23918951162525" lon="12.997452978282489"><ele>413.0</ele><time>2026-04-04T16:07:59.001Z</time></trkpt><trkpt lat="43.239167870679125" lon="12.997548257128665"><ele>412.85714285714283</ele><time>2026-04-04T16:08:00.001Z</time></trkpt><trkpt lat="43.23914913344911" lon="12.997643727763448"><ele>412.7142857142857</ele><time>2026-04-04T16:08:01.001Z</time></trkpt><trkpt lat="43.23912855589954" lon="12.99773804280009"><ele>412.57142857142856</ele><time>2026-04-04T16:08:02.001Z</time></trkpt><trkpt lat="43.239104051028946" lon="12.997839667187145"><ele>412.42857142857144</ele><time>2026-04-04T16:08:03.001Z</time></trkpt><trkpt lat="43.23908200008867" lon="12.997936125605062"><ele>412.2857142857143</ele><time>2026-04-04T16:08:04.001Z</time></trkpt><trkpt lat="43.23905936621714" lon="12.99803103025735"><ele>412.1428571428571</ele><time>2026-04-04T16:08:05.001Z</time></trkpt><trkpt lat="43.23903991430801" lon="12.998132140268895"><ele>412.0</ele><time>2026-04-04T16:08:06.001Z</time></trkpt><trkpt lat="43.23901632162348" lon="12.998248317389198"><ele>411.0</ele><time>2026-04-04T16:08:07.001Z</time></trkpt><trkpt lat="43.23899525417169" lon="12.99836963270301"><ele>410.0</ele><time>2026-04-04T16:08:08.001Z</time></trkpt><trkpt lat="43.238965891269736" lon="12.998503824725086"><ele>409.0</ele><time>2026-04-04T16:08:09.001Z</time></trkpt><trkpt lat="43.23893570842018" lon="12.99863996293774"><ele>408.0</ele><time>2026-04-04T16:08:10.001Z</time></trkpt><trkpt lat="43.23890667311889" lon="12.998770485057811"><ele>407.0</ele><time>2026-04-04T16:08:11.001Z</time></trkpt><trkpt lat="43.238879411068815" lon="12.998901282376266"><ele>409.40000000000003</ele><time>2026-04-04T16:08:12.001Z</time></trkpt><trkpt lat="43.23885141136229" lon="12.99902954519261"><ele>411.8</ele><time>2026-04-04T16:08:13.001Z</time></trkpt><trkpt lat="43.23882391053976" lon="12.99916121286446"><ele>414.2</ele><time>2026-04-04T16:08:14.001Z</time></trkpt><trkpt lat="43.238798242468654" lon="12.999290870399468"><ele>416.6</ele><time>2026-04-04T16:08:15.001Z</time></trkpt><trkpt lat="43.23877355925848" lon="12.99941963071842"><ele>419.0</ele><time>2026-04-04T16:08:16.001Z</time></trkpt><trkpt lat="43.23874706918363" lon="12.999548402925017"><ele>419.0</ele><time>2026-04-04T16:08:17.001Z</time></trkpt><trkpt lat="43.23872050665128" lon="12.999688806033651"><ele>419.0</ele><time>2026-04-04T16:08:18.001Z</time></trkpt><trkpt lat="43.23869354214984" lon="12.999830933491044"><ele>419.0</ele><time>2026-04-04T16:08:19.001Z</time></trkpt><trkpt lat="43.238666085875" lon="12.999979019428936"><ele>419.0</ele><time>2026-04-04T16:08:20.001Z</time></trkpt><trkpt lat="43.23863664740679" lon="13.000132331834946"><ele>419.0</ele><time>2026-04-04T16:08:21.001Z</time></trkpt><trkpt lat="43.2386083392496" lon="13.000295874909371"><ele>419.0</ele><time>2026-04-04T16:08:22.001Z</time></trkpt><trkpt lat="43.23858194124461" lon="13.000466265906867"><ele>419.0</ele><time>2026-04-04T16:08:23.001Z</time></trkpt><trkpt lat="43.23855582156705" lon="13.000650796894487"><ele>419.0</ele><time>2026-04-04T16:08:24.001Z</time></trkpt><trkpt lat="43.238529605880174" lon="13.000846738341355"><ele>419.0</ele><time>2026-04-04T16:08:25.001Z</time></trkpt><trkpt lat="43.238506562459335" lon="13.001048601401449"><ele>420.66666666666663</ele><time>2026-04-04T16:08:26.001Z</time></trkpt><trkpt lat="43.23848252054631" lon="13.001260431954913"><ele>422.33333333333337</ele><time>2026-04-04T16:08:27.001Z</time></trkpt><trkpt lat="43.23846261057186" lon="13.001484734435902"><ele>424.0</ele><time>2026-04-04T16:08:28.001Z</time></trkpt><trkpt lat="43.23840930796426" lon="13.001718367985205"><ele>426.6666666666667</ele><time>2026-04-04T16:08:29.001Z</time></trkpt><trkpt lat="43.238393541348685" lon="13.001973861920936"><ele>429.33333333333337</ele><time>2026-04-04T16:08:30.019Z</time></trkpt><trkpt lat="43.2383809521334" lon="13.002233130347326"><ele>432.0</ele><time>2026-04-04T16:08:31.019Z</time></trkpt><trkpt lat="43.238370923861446" lon="13.002501119638042"><ele>432.0</ele><time>2026-04-04T16:08:32.02Z</time></trkpt><trkpt lat="43.23836743239197" lon="13.002780436935348"><ele>432.0</ele><time>2026-04-04T16:08:33.02Z</time></trkpt><trkpt lat="43.238365275864766" lon="13.003074191906174"><ele>432.0</ele><time>2026-04-04T16:08:34.02Z</time></trkpt><trkpt lat="43.23837171608213" lon="13.003372944131314"><ele>417.0</ele><time>2026-04-04T16:08:35.017Z</time></trkpt><trkpt lat="43.23844414208386" lon="13.004631735396575"><ele>417.0</ele><time>2026-04-04T16:08:39.001Z</time></trkpt><trkpt lat="43.23847344850436" lon="13.004941100625459"><ele>417.0</ele><time>2026-04-04T16:08:40.001Z</time></trkpt><trkpt lat="43.23852048708151" lon="13.005232595898674"><ele>417.0</ele><time>2026-04-04T16:08:41.001Z</time></trkpt><trkpt lat="43.23855787877687" lon="13.005543457742776"><ele>411.0</ele><time>2026-04-04T16:08:42.001Z</time></trkpt><trkpt lat="43.23860145828393" lon="13.005852801414608"><ele>405.0</ele><time>2026-04-04T16:08:43.001Z</time></trkpt><trkpt lat="43.238654014352115" lon="13.006155076026918"><ele>405.0</ele><time>2026-04-04T16:08:44.001Z</time></trkpt><trkpt lat="43.23869816804426" lon="13.006485166962259"><ele>405.0</ele><time>2026-04-04T16:08:45.001Z</time></trkpt><trkpt lat="43.238746733110254" lon="13.006794743102237"><ele>401.5</ele><time>2026-04-04T16:08:46.001Z</time></trkpt><trkpt lat="43.23879791807325" lon="13.007110863262213"><ele>398.0</ele><time>2026-04-04T16:08:47.001Z</time></trkpt><trkpt lat="43.23884338704123" lon="13.007428362996905"><ele>395.0</ele><time>2026-04-04T16:08:48.001Z</time></trkpt><trkpt lat="43.238879293999794" lon="13.007751909936024"><ele>392.0</ele><time>2026-04-04T16:08:49.001Z</time></trkpt><trkpt lat="43.23891052313796" lon="13.008071046420172"><ele>392.5</ele><time>2026-04-04T16:08:50.001Z</time></trkpt><trkpt lat="43.23894067773474" lon="13.008388428036389"><ele>393.0</ele><time>2026-04-04T16:08:51.001Z</time></trkpt><trkpt lat="43.238963985098884" lon="13.008707606625233"><ele>391.5</ele><time>2026-04-04T16:08:52.001Z</time></trkpt><trkpt lat="43.23898091615078" lon="13.00902264200057"><ele>390.0</ele><time>2026-04-04T16:08:53.001Z</time></trkpt><trkpt lat="43.23899037998181" lon="13.009334944668147"><ele>390.0</ele><time>2026-04-04T16:08:54.001Z</time></trkpt><trkpt lat="43.23899416632264" lon="13.009644072474718"><ele>390.0</ele><time>2026-04-04T16:08:55.001Z</time></trkpt><trkpt lat="43.23899254088873" lon="13.00994634988808"><ele>390.0</ele><time>2026-04-04T16:08:56.001Z</time></trkpt><trkpt lat="43.23898213329605" lon="13.010243579799184"><ele>389.66666666666663</ele><time>2026-04-04T16:08:57.001Z</time></trkpt><trkpt lat="43.238967841833116" lon="13.010530130889409"><ele>389.3333333333333</ele><time>2026-04-04T16:08:58.001Z</time></trkpt><trkpt lat="43.238940972092934" lon="13.010807120417942"><ele>389.0</ele><time>2026-04-04T16:08:59.001Z</time></trkpt><trkpt lat="43.238907544839016" lon="13.01107934790255"><ele>389.66666666666663</ele><time>2026-04-04T16:09:00.001Z</time></trkpt><trkpt lat="43.23887933627801" lon="13.011346821541458"><ele>390.33333333333337</ele><time>2026-04-04T16:09:01.001Z</time></trkpt><trkpt lat="43.23884676726213" lon="13.011613711366817"><ele>391.0</ele><time>2026-04-04T16:09:02.001Z</time></trkpt><trkpt lat="43.238806907769536" lon="13.011876745840667"><ele>391.0</ele><time>2026-04-04T16:09:03.001Z</time></trkpt><trkpt lat="43.23878068049101" lon="13.012137825532555"><ele>391.0</ele><time>2026-04-04T16:09:04.001Z</time></trkpt><trkpt lat="43.238734619389916" lon="13.012393266269582"><ele>391.0</ele><time>2026-04-04T16:09:05Z</time></trkpt><trkpt lat="43.23868035882036" lon="13.01264824146818"><ele>390.6666666666667</ele><time>2026-04-04T16:09:06Z</time></trkpt><trkpt lat="43.23862368396405" lon="13.012900951826506"><ele>390.33333333333337</ele><time>2026-04-04T16:09:07Z</time></trkpt><trkpt lat="43.23856592172235" lon="13.01314985501998"><ele>390.0</ele><time>2026-04-04T16:09:08Z</time></trkpt><trkpt lat="43.23850661549268" lon="13.013392405358148"><ele>391.33333333333337</ele><time>2026-04-04T16:09:09Z</time></trkpt><trkpt lat="43.23844803884461" lon="13.013611648204039"><ele>392.6666666666667</ele><time>2026-04-04T16:09:10Z</time></trkpt><trkpt lat="43.238392790133936" lon="13.013810502192971"><ele>394.0</ele><time>2026-04-04T16:09:11Z</time></trkpt><trkpt lat="43.23834042947085" lon="13.01399156680923"><ele>393.5</ele><time>2026-04-04T16:09:12Z</time></trkpt><trkpt lat="43.238290997489806" lon="13.014155516761965"><ele>393.0</ele><time>2026-04-04T16:09:13Z</time></trkpt><trkpt lat="43.23824465988432" lon="13.01430705613041"><ele>392.5</ele><time>2026-04-04T16:09:14Z</time></trkpt><trkpt lat="43.2381976804026" lon="13.01444841240533"><ele>392.0</ele><time>2026-04-04T16:09:15Z</time></trkpt><trkpt lat="43.238035883791895" lon="13.014494658878247"><ele>391.25</ele><time>2026-04-04T16:09:16Z</time></trkpt><trkpt lat="43.23793796693095" lon="13.014565812951416"><ele>390.5</ele><time>2026-04-04T16:09:17Z</time></trkpt><trkpt lat="43.23782529474135" lon="13.014609246399374"><ele>389.75</ele><time>2026-04-04T16:09:18Z</time></trkpt><trkpt lat="43.23770189989533" lon="13.0146187823384"><ele>389.0</ele><time>2026-04-04T16:09:19Z</time></trkpt><trkpt lat="43.23757913337932" lon="13.014596884649238"><ele>389.0</ele><time>2026-04-04T16:09:20Z</time></trkpt><trkpt lat="43.237461881449995" lon="13.014568016522116"><ele>389.0</ele><time>2026-04-04T16:09:21Z</time></trkpt><trkpt lat="43.23735108830919" lon="13.014572360954327"><ele>389.0</ele><time>2026-04-04T16:09:22Z</time></trkpt><trkpt lat="43.23724540637624" lon="13.014620515123225"><ele>389.0</ele><time>2026-04-04T16:09:23Z</time></trkpt><trkpt lat="43.237153302042756" lon="13.014707004210722"><ele>389.25</ele><time>2026-04-04T16:09:24Z</time></trkpt><trkpt lat="43.237078307596285" lon="13.014825386981515"><ele>389.5</ele><time>2026-04-04T16:09:25Z</time></trkpt><trkpt lat="43.23702497585676" lon="13.01497256513129"><ele>389.75</ele><time>2026-04-04T16:09:26Z</time></trkpt><trkpt lat="43.23699645561629" lon="13.015129915834137"><ele>390.0</ele><time>2026-04-04T16:09:27Z</time></trkpt><trkpt lat="43.237005043930445" lon="13.015294424837291"><ele>390.0</ele><time>2026-04-04T16:09:28Z</time></trkpt><trkpt lat="43.237046756003835" lon="13.015456273421089"><ele>390.0</ele><time>2026-04-04T16:09:29Z</time></trkpt><trkpt lat="43.237109711646134" lon="13.015612241928936"><ele>390.0</ele><time>2026-04-04T16:09:30Z</time></trkpt><trkpt lat="43.23717618257724" lon="13.015768502322878"><ele>390.0</ele><time>2026-04-04T16:09:31Z</time></trkpt><trkpt lat="43.23724034825424" lon="13.015934822352351"><ele>389.0</ele><time>2026-04-04T16:09:32Z</time></trkpt><trkpt lat="43.23730657978728" lon="13.016106430987692"><ele>388.0</ele><time>2026-04-04T16:09:33Z</time></trkpt><trkpt lat="43.23737770646835" lon="13.016278467926782"><ele>387.0</ele><time>2026-04-04T16:09:34Z</time></trkpt><trkpt lat="43.23744993806311" lon="13.016452454009091"><ele>386.0</ele><time>2026-04-04T16:09:35Z</time></trkpt><trkpt lat="43.23752246633364" lon="13.016629002930607"><ele>385.5</ele><time>2026-04-04T16:09:36Z</time></trkpt><trkpt lat="43.23759787965307" lon="13.016806965908252"><ele>385.0</ele><time>2026-04-04T16:09:37Z</time></trkpt><trkpt lat="43.23766551331706" lon="13.016982561440402"><ele>384.5</ele><time>2026-04-04T16:09:38Z</time></trkpt><trkpt lat="43.23773399805421" lon="13.01715651843319"><ele>384.0</ele><time>2026-04-04T16:09:39Z</time></trkpt><trkpt lat="43.237801715654534" lon="13.017330569899212"><ele>383.75</ele><time>2026-04-04T16:09:40Z</time></trkpt><trkpt lat="43.237870892308266" lon="13.017507554815129"><ele>383.5</ele><time>2026-04-04T16:09:41Z</time></trkpt><trkpt lat="43.237938431674685" lon="13.017683548205573"><ele>383.25</ele><time>2026-04-04T16:09:42Z</time></trkpt><trkpt lat="43.23800185562621" lon="13.017843802427489"><ele>383.0</ele><time>2026-04-04T16:09:43Z</time></trkpt><trkpt lat="43.23805847366646" lon="13.017987682051228"><ele>383.0</ele><time>2026-04-04T16:09:44Z</time></trkpt><trkpt lat="43.238100577699456" lon="13.01812425459504"><ele>383.0</ele><time>2026-04-04T16:09:45Z</time></trkpt><trkpt lat="43.23814763920085" lon="13.018227435262842"><ele>383.0</ele><time>2026-04-04T16:09:46Z</time></trkpt><trkpt lat="43.23818102264771" lon="13.018315263324014"><ele>383.0</ele><time>2026-04-04T16:09:47Z</time></trkpt><trkpt lat="43.23821021990859" lon="13.018392078055298"><ele>383.0</ele><time>2026-04-04T16:09:49Z</time></trkpt><trkpt lat="43.23824515234362" lon="13.018483981402678"><ele>383.0</ele><time>2026-04-04T16:09:52Z</time></trkpt><trkpt lat="43.23833610601558" lon="13.018506569626242"><ele>382.1666666666667</ele><time>2026-04-04T16:09:54Z</time></trkpt><trkpt lat="43.23840675647691" lon="13.018481563948633"><ele>381.33333333333337</ele><time>2026-04-04T16:09:55Z</time></trkpt><trkpt lat="43.23848512752535" lon="13.018471615765321"><ele>380.5</ele><time>2026-04-04T16:09:56Z</time></trkpt><trkpt lat="43.23856463948104" lon="13.018463859287985"><ele>379.6666666666667</ele><time>2026-04-04T16:09:57Z</time></trkpt><trkpt lat="43.23864622389536" lon="13.018454865768526"><ele>378.8333333333333</ele><time>2026-04-04T16:09:58Z</time></trkpt><trkpt lat="43.23873885808131" lon="13.018439402070374"><ele>378.0</ele><time>2026-04-04T16:09:59.001Z</time></trkpt><trkpt lat="43.238838415437485" lon="13.018416601846843"><ele>378.0</ele><time>2026-04-04T16:10:00.001Z</time></trkpt><trkpt lat="43.238941861574766" lon="13.018394312587157"><ele>378.0</ele><time>2026-04-04T16:10:01.001Z</time></trkpt><trkpt lat="43.23904568596981" lon="13.018372461279633"><ele>378.0</ele><time>2026-04-04T16:10:02.001Z</time></trkpt><trkpt lat="43.239153722638825" lon="13.018349846756504"><ele>378.0</ele><time>2026-04-04T16:10:03.001Z</time></trkpt><trkpt lat="43.239264494533415" lon="13.018323788479549"><ele>378.0</ele><time>2026-04-04T16:10:04.001Z</time></trkpt><trkpt lat="43.239380312352196" lon="13.018289744726045"><ele>377.5</ele><time>2026-04-04T16:10:05.001Z</time></trkpt><trkpt lat="43.2394976731763" lon="13.01824034763356"><ele>377.0</ele><time>2026-04-04T16:10:06.001Z</time></trkpt><trkpt lat="43.23961374147016" lon="13.018172154331268"><ele>376.5</ele><time>2026-04-04T16:10:07.001Z</time></trkpt><trkpt lat="43.23973238224968" lon="13.0180945279782"><ele>376.0</ele><time>2026-04-04T16:10:08.001Z</time></trkpt><trkpt lat="43.23984913147647" lon="13.018012983872696"><ele>376.0</ele><time>2026-04-04T16:10:09.001Z</time></trkpt><trkpt lat="43.239967099733256" lon="13.017919167967705"><ele>376.0</ele><time>2026-04-04T16:10:10.001Z</time></trkpt><trkpt lat="43.24008528433903" lon="13.017816195440938"><ele>376.0</ele><time>2026-04-04T16:10:11.001Z</time></trkpt><trkpt lat="43.24020898068063" lon="13.017709907275526"><ele>376.0</ele><time>2026-04-04T16:10:12.001Z</time></trkpt><trkpt lat="43.24033748389527" lon="13.017598624885471"><ele>376.0</ele><time>2026-04-04T16:10:13.001Z</time></trkpt><trkpt lat="43.240470174080784" lon="13.017484036006502"><ele>376.0</ele><time>2026-04-04T16:10:14.001Z</time></trkpt><trkpt lat="43.24060604485234" lon="13.017366496126344"><ele>376.0</ele><time>2026-04-04T16:10:15.001Z</time></trkpt><trkpt lat="43.2407433372652" lon="13.017242964443339"><ele>376.0</ele><time>2026-04-04T16:10:16.001Z</time></trkpt><trkpt lat="43.24088329785855" lon="13.017112325526512"><ele>376.0</ele><time>2026-04-04T16:10:17.001Z</time></trkpt><trkpt lat="43.241021718149014" lon="13.016984909934418"><ele>376.0</ele><time>2026-04-04T16:10:18.001Z</time></trkpt><trkpt lat="43.241160261969746" lon="13.016858092740815"><ele>376.0</ele><time>2026-04-04T16:10:19.001Z</time></trkpt><trkpt lat="43.24129711778805" lon="13.016725554390923"><ele>376.0</ele><time>2026-04-04T16:10:20.001Z</time></trkpt><trkpt lat="43.24143336292848" lon="13.016583304591958"><ele>376.0</ele><time>2026-04-04T16:10:21.001Z</time></trkpt><trkpt lat="43.24156457444038" lon="13.016435915294771"><ele>376.66666666666663</ele><time>2026-04-04T16:10:22.001Z</time></trkpt><trkpt lat="43.241690166321966" lon="13.016282868094706"><ele>377.3333333333333</ele><time>2026-04-04T16:10:23.001Z</time></trkpt><trkpt lat="43.24181719092821" lon="13.016127334113072"><ele>378.0</ele><time>2026-04-04T16:10:24.001Z</time></trkpt><trkpt lat="43.24194932596146" lon="13.015971539356237"><ele>378.0</ele><time>2026-04-04T16:10:25.001Z</time></trkpt><trkpt lat="43.24209022090566" lon="13.01582866184032"><ele>378.0</ele><time>2026-04-04T16:10:26.001Z</time></trkpt><trkpt lat="43.242233747068056" lon="13.015684382010129"><ele>378.0</ele><time>2026-04-04T16:10:27.001Z</time></trkpt><trkpt lat="43.24237759429967" lon="13.01553173553878"><ele>377.6666666666667</ele><time>2026-04-04T16:10:28.001Z</time></trkpt><trkpt lat="43.24252445222212" lon="13.015376257417527"><ele>377.33333333333337</ele><time>2026-04-04T16:10:29.001Z</time></trkpt><trkpt lat="43.242671232753125" lon="13.015219518078071"><ele>377.0</ele><time>2026-04-04T16:10:30.001Z</time></trkpt><trkpt lat="43.24281707899693" lon="13.015063168597806"><ele>376.6666666666667</ele><time>2026-04-04T16:10:31.001Z</time></trkpt><trkpt lat="43.24296115511791" lon="13.014907183449703"><ele>376.3333333333333</ele><time>2026-04-04T16:10:32.001Z</time></trkpt><trkpt lat="43.24310051259922" lon="13.014755072578216"><ele>376.0</ele><time>2026-04-04T16:10:33.001Z</time></trkpt><trkpt lat="43.24323814958827" lon="13.014609468709583"><ele>375.66666666666663</ele><time>2026-04-04T16:10:34.001Z</time></trkpt><trkpt lat="43.24337292579742" lon="13.014472435526825"><ele>375.3333333333333</ele><time>2026-04-04T16:10:35.001Z</time></trkpt><trkpt lat="43.24350921483145" lon="13.014347346728336"><ele>375.0</ele><time>2026-04-04T16:10:36.001Z</time></trkpt><trkpt lat="43.2436538250007" lon="13.01423593318314"><ele>374.3333333333333</ele><time>2026-04-04T16:10:37.001Z</time></trkpt><trkpt lat="43.24380431855381" lon="13.014141936103108"><ele>373.66666666666663</ele><time>2026-04-04T16:10:38.001Z</time></trkpt><trkpt lat="43.24395546676051" lon="13.01404521282087"><ele>373.0</ele><time>2026-04-04T16:10:39.001Z</time></trkpt><trkpt lat="43.24410738143774" lon="13.01395862512846"><ele>373.0</ele><time>2026-04-04T16:10:40.001Z</time></trkpt><trkpt lat="43.24425814521312" lon="13.013871924297833"><ele>373.0</ele><time>2026-04-04T16:10:41.001Z</time></trkpt><trkpt lat="43.24440525751778" lon="13.013787456602266"><ele>373.0</ele><time>2026-04-04T16:10:42.001Z</time></trkpt><trkpt lat="43.24455256350247" lon="13.013708943908274"><ele>373.0</ele><time>2026-04-04T16:10:43.001Z</time></trkpt><trkpt lat="43.244697283182475" lon="13.013632552891977"><ele>373.0</ele><time>2026-04-04T16:10:44.001Z</time></trkpt><trkpt lat="43.24484577705702" lon="13.01355471839894"><ele>373.0</ele><time>2026-04-04T16:10:45.001Z</time></trkpt><trkpt lat="43.24499146722705" lon="13.013474533805855"><ele>372.0</ele><time>2026-04-04T16:10:46.001Z</time></trkpt><trkpt lat="43.24513311516692" lon="13.013394532703266"><ele>371.0</ele><time>2026-04-04T16:10:47.001Z</time></trkpt><trkpt lat="43.24527300770435" lon="13.01331259384088"><ele>370.0</ele><time>2026-04-04T16:10:48.001Z</time></trkpt><trkpt lat="43.24541221708901" lon="13.013230309188272"><ele>369.0</ele><time>2026-04-04T16:10:49.001Z</time></trkpt><trkpt lat="43.24554576107802" lon="13.013155749663882"><ele>368.0</ele><time>2026-04-04T16:10:50.001Z</time></trkpt><trkpt lat="43.24566929627932" lon="13.013080447324183"><ele>367.0</ele><time>2026-04-04T16:10:51.001Z</time></trkpt><trkpt lat="43.245779161042506" lon="13.013006390362419"><ele>366.0</ele><time>2026-04-04T16:10:52.001Z</time></trkpt><trkpt lat="43.245872199226845" lon="13.01292993397016"><ele>365.6666666666667</ele><time>2026-04-04T16:10:53.001Z</time></trkpt><trkpt lat="43.24594597758981" lon="13.01285646951295"><ele>365.3333333333333</ele><time>2026-04-04T16:10:54.001Z</time></trkpt><trkpt lat="43.24600884759277" lon="13.01279535426439"><ele>365.0</ele><time>2026-04-04T16:10:55.001Z</time></trkpt><trkpt lat="43.246069494238846" lon="13.012738182148961"><ele>364.66666666666663</ele><time>2026-04-04T16:10:56.001Z</time></trkpt><trkpt lat="43.24612547517916" lon="13.012683894557654"><ele>364.3333333333333</ele><time>2026-04-04T16:10:57.001Z</time></trkpt><trkpt lat="43.24617984739365" lon="13.012628055779343"><ele>364.0</ele><time>2026-04-04T16:10:58.001Z</time></trkpt><trkpt lat="43.246238029629644" lon="13.012566509578928"><ele>364.0</ele><time>2026-04-04T16:10:59.001Z</time></trkpt><trkpt lat="43.246292719252274" lon="13.012504473026324"><ele>364.0</ele><time>2026-04-04T16:11:00.001Z</time></trkpt><trkpt lat="43.2463502760071" lon="13.012436492627213"><ele>364.0</ele><time>2026-04-04T16:11:01.001Z</time></trkpt><trkpt lat="43.24640892411642" lon="13.012373598046816"><ele>364.0</ele><time>2026-04-04T16:11:02.001Z</time></trkpt><trkpt lat="43.246465356689036" lon="13.012306115743156"><ele>364.0</ele><time>2026-04-04T16:11:03.001Z</time></trkpt><trkpt lat="43.246520129578315" lon="13.01223941473097"><ele>364.0</ele><time>2026-04-04T16:11:04.001Z</time></trkpt><trkpt lat="43.24657665201367" lon="13.01217786946625"><ele>364.0</ele><time>2026-04-04T16:11:05.001Z</time></trkpt><trkpt lat="43.24663043565275" lon="13.012110645610246"><ele>364.5</ele><time>2026-04-04T16:11:06.001Z</time></trkpt><trkpt lat="43.24668800799074" lon="13.012043468765809"><ele>365.0</ele><time>2026-04-04T16:11:07.001Z</time></trkpt><trkpt lat="43.246742653070655" lon="13.011970237778835"><ele>365.5</ele><time>2026-04-04T16:11:08.001Z</time></trkpt><trkpt lat="43.2468003209244" lon="13.011897075072575"><ele>366.0</ele><time>2026-04-04T16:11:09.001Z</time></trkpt><trkpt lat="43.24686077621772" lon="13.011819691283533"><ele>366.5</ele><time>2026-04-04T16:11:10.001Z</time></trkpt><trkpt lat="43.24692205957746" lon="13.011744384339748"><ele>367.0</ele><time>2026-04-04T16:11:11Z</time></trkpt><trkpt lat="43.24698597162056" lon="13.011667186939741"><ele>366.8333333333333</ele><time>2026-04-04T16:11:12Z</time></trkpt><trkpt lat="43.24705188020831" lon="13.01158896469031"><ele>366.66666666666663</ele><time>2026-04-04T16:11:13Z</time></trkpt><trkpt lat="43.247117940156826" lon="13.011509253983721"><ele>366.5</ele><time>2026-04-04T16:11:14Z</time></trkpt><trkpt lat="43.247185607960795" lon="13.01143060610732"><ele>366.3333333333333</ele><time>2026-04-04T16:11:15Z</time></trkpt><trkpt lat="43.24725739137698" lon="13.011350588211492"><ele>366.1666666666667</ele><time>2026-04-04T16:11:16Z</time></trkpt><trkpt lat="43.24732753581771" lon="13.011274171923025"><ele>366.0</ele><time>2026-04-04T16:11:17Z</time></trkpt><trkpt lat="43.247401474527976" lon="13.011202539817866"><ele>366.0</ele><time>2026-04-04T16:11:18Z</time></trkpt><trkpt lat="43.24747725480884" lon="13.011135629393456"><ele>366.0</ele><time>2026-04-04T16:11:19Z</time></trkpt><trkpt lat="43.247554649019214" lon="13.011075732149651"><ele>366.0</ele><time>2026-04-04T16:11:20Z</time></trkpt><trkpt lat="43.24763137758584" lon="13.011015756365362"><ele>366.0</ele><time>2026-04-04T16:11:21Z</time></trkpt><trkpt lat="43.247704214269525" lon="13.010955315540665"><ele>366.0</ele><time>2026-04-04T16:11:22Z</time></trkpt><trkpt lat="43.2477762945309" lon="13.01089916671756"><ele>366.0</ele><time>2026-04-04T16:11:23Z</time></trkpt><trkpt lat="43.247844268062195" lon="13.010844719314953"><ele>366.0</ele><time>2026-04-04T16:11:24Z</time></trkpt><trkpt lat="43.2479048366457" lon="13.010796806012738"><ele>366.0</ele><time>2026-04-04T16:11:25Z</time></trkpt><trkpt lat="43.2479598384896" lon="13.010748742951263"><ele>366.0</ele><time>2026-04-04T16:11:26Z</time></trkpt><trkpt lat="43.248056181352446" lon="13.010656637507227"><ele>366.0</ele><time>2026-04-04T16:11:28Z</time></trkpt><trkpt lat="43.24815733988868" lon="13.010585484965052"><ele>366.0</ele><time>2026-04-04T16:11:30Z</time></trkpt><trkpt lat="43.24822686629986" lon="13.010490023504072"><ele>366.0</ele><time>2026-04-04T16:11:32Z</time></trkpt><trkpt lat="43.2481879275071" lon="13.01034823554256"><ele>366.0</ele><time>2026-04-04T16:11:34Z</time></trkpt><trkpt lat="43.248136941780466" lon="13.010293186965043"><ele>366.0</ele><time>2026-04-04T16:11:35Z</time></trkpt><trkpt lat="43.24808059415384" lon="13.010223200113499"><ele>366.0</ele><time>2026-04-04T16:11:36Z</time></trkpt><trkpt lat="43.24803313724614" lon="13.01012520138419"><ele>366.0</ele><time>2026-04-04T16:11:37Z</time></trkpt><trkpt lat="43.24798869667849" lon="13.01001054078861"><ele>366.0</ele><time>2026-04-04T16:11:38Z</time></trkpt><trkpt lat="43.2479398816329" lon="13.009888464440175"><ele>365.5</ele><time>2026-04-04T16:11:39Z</time></trkpt><trkpt lat="43.24788490788017" lon="13.009759299276928"><ele>365.0</ele><time>2026-04-04T16:11:40Z</time></trkpt><trkpt lat="43.2478336775918" lon="13.009620288157226"><ele>364.5</ele><time>2026-04-04T16:11:41Z</time></trkpt><trkpt lat="43.2477860216855" lon="13.009472615685379"><ele>364.0</ele><time>2026-04-04T16:11:42Z</time></trkpt><trkpt lat="43.24774075689095" lon="13.009322482923183"><ele>364.0</ele><time>2026-04-04T16:11:43Z</time></trkpt><trkpt lat="43.24770055035365" lon="13.009170846374145"><ele>364.0</ele><time>2026-04-04T16:11:44Z</time></trkpt><trkpt lat="43.24766424467317" lon="13.00902037603904"><ele>364.0</ele><time>2026-04-04T16:11:45Z</time></trkpt><trkpt lat="43.24762690257018" lon="13.00886902753517"><ele>364.0</ele><time>2026-04-04T16:11:46Z</time></trkpt><trkpt lat="43.2475990519428" lon="13.00873940824091"><ele>364.0</ele><time>2026-04-04T16:11:47Z</time></trkpt><trkpt lat="43.2475766621283" lon="13.008627148821283"><ele>364.0</ele><time>2026-04-04T16:11:48Z</time></trkpt><trkpt lat="43.24755514751793" lon="13.00852268668457"><ele>364.0</ele><time>2026-04-04T16:11:49Z</time></trkpt><trkpt lat="43.2475195905565" lon="13.008400465723646"><ele>364.0</ele><time>2026-04-04T16:11:51Z</time></trkpt><trkpt lat="43.24748594963061" lon="13.008309404426535"><ele>364.0</ele><time>2026-04-04T16:12:27.001Z</time></trkpt><trkpt lat="43.247463991608974" lon="13.00818316017116"><ele>364.0</ele><time>2026-04-04T16:12:29.001Z</time></trkpt><trkpt lat="43.24742636171203" lon="13.008019639547966"><ele>364.0</ele><time>2026-04-04T16:12:31.001Z</time></trkpt><trkpt lat="43.24740479853207" lon="13.007926982574931"><ele>364.0</ele><time>2026-04-04T16:12:32.001Z</time></trkpt><trkpt lat="43.24738103530387" lon="13.007824872074309"><ele>364.0</ele><time>2026-04-04T16:12:33.001Z</time></trkpt><trkpt lat="43.24735674741586" lon="13.007715326322362"><ele>364.0</ele><time>2026-04-04T16:12:34.001Z</time></trkpt><trkpt lat="43.24733080280843" lon="13.007598354327744"><ele>364.0</ele><time>2026-04-04T16:12:35.001Z</time></trkpt><trkpt lat="43.2473015122832" lon="13.007472370231405"><ele>364.0</ele><time>2026-04-04T16:12:36.001Z</time></trkpt><trkpt lat="43.24725805025628" lon="13.007362583573512"><ele>364.2</ele><time>2026-04-04T16:12:37.001Z</time></trkpt><trkpt lat="43.247233843840064" lon="13.007233960691334"><ele>364.4</ele><time>2026-04-04T16:12:38.001Z</time></trkpt><trkpt lat="43.24721781233657" lon="13.007109384373715"><ele>364.6</ele><time>2026-04-04T16:12:39.001Z</time></trkpt><trkpt lat="43.24719983222313" lon="13.006985017880494"><ele>364.8</ele><time>2026-04-04T16:12:40.001Z</time></trkpt><trkpt lat="43.24718147069006" lon="13.006859720009512"><ele>365.0</ele><time>2026-04-04T16:12:41.001Z</time></trkpt><trkpt lat="43.24716775108138" lon="13.006733647004308"><ele>364.8</ele><time>2026-04-04T16:12:42.001Z</time></trkpt><trkpt lat="43.2471670132815" lon="13.00660870946232"><ele>364.6</ele><time>2026-04-04T16:12:43.001Z</time></trkpt><trkpt lat="43.24717451485647" lon="13.006481429187794"><ele>364.4</ele><time>2026-04-04T16:12:44.001Z</time></trkpt><trkpt lat="43.247184782463016" lon="13.006349466714095"><ele>364.2</ele><time>2026-04-04T16:12:45.001Z</time></trkpt><trkpt lat="43.247195468677155" lon="13.006217828270412"><ele>364.0</ele><time>2026-04-04T16:12:46.001Z</time></trkpt><trkpt lat="43.24720837132436" lon="13.00608131510192"><ele>364.0</ele><time>2026-04-04T16:12:47.001Z</time></trkpt><trkpt lat="43.24722380960752" lon="13.00594049809479"><ele>364.0</ele><time>2026-04-04T16:12:48.001Z</time></trkpt><trkpt lat="43.24723801965631" lon="13.005789963277033"><ele>364.0</ele><time>2026-04-04T16:12:49.001Z</time></trkpt><trkpt lat="43.247248134637516" lon="13.005652761527868"><ele>364.0</ele><time>2026-04-04T16:12:50.001Z</time></trkpt><trkpt lat="43.24725726733676" lon="13.00552603397165"><ele>364.0</ele><time>2026-04-04T16:12:51.001Z</time></trkpt><trkpt lat="43.24726559406389" lon="13.005410380070636"><ele>364.16666666666663</ele><time>2026-04-04T16:12:52.001Z</time></trkpt><trkpt lat="43.24727110375778" lon="13.00530315549873"><ele>364.3333333333333</ele><time>2026-04-04T16:12:53.001Z</time></trkpt><trkpt lat="43.24727665322512" lon="13.005206813583797"><ele>364.5</ele><time>2026-04-04T16:12:54.001Z</time></trkpt><trkpt lat="43.247275537769795" lon="13.005111477684594"><ele>364.6666666666667</ele><time>2026-04-04T16:12:55.001Z</time></trkpt><trkpt lat="43.24728083020838" lon="13.005023723937732"><ele>364.83333333333337</ele><time>2026-04-04T16:12:56.001Z</time></trkpt><trkpt lat="43.24734399078432" lon="13.004891909885469"><ele>365.0</ele><time>2026-04-04T16:12:58.001Z</time></trkpt><trkpt lat="43.247389603620896" lon="13.004766626834899"><ele>365.0</ele><time>2026-04-04T16:13:00.001Z</time></trkpt><trkpt lat="43.247409155351626" lon="13.004676170324993"><ele>365.0</ele><time>2026-04-04T16:13:01.001Z</time></trkpt><trkpt lat="43.247330007596055" lon="13.004621357910043"><ele>365.0</ele><time>2026-04-04T16:13:02.001Z</time></trkpt><trkpt lat="43.247268485303465" lon="13.004574114506138"><ele>365.0</ele><time>2026-04-04T16:13:03.001Z</time></trkpt><trkpt lat="43.247208202564146" lon="13.004514780388291"><ele>365.0</ele><time>2026-04-04T16:13:04.001Z</time></trkpt><trkpt lat="43.24715657961853" lon="13.004424426802915"><ele>365.0</ele><time>2026-04-04T16:13:05.001Z</time></trkpt><trkpt lat="43.24710856113335" lon="13.004312630305327"><ele>365.4</ele><time>2026-04-04T16:13:06.001Z</time></trkpt><trkpt lat="43.24706010967553" lon="13.004192774956302"><ele>365.8</ele><time>2026-04-04T16:13:07.001Z</time></trkpt><trkpt lat="43.247006638338114" lon="13.004068991823438"><ele>366.20000000000005</ele><time>2026-04-04T16:13:08.001Z</time></trkpt><trkpt lat="43.24694498608593" lon="13.003944812155483"><ele>366.6</ele><time>2026-04-04T16:13:09.001Z</time></trkpt><trkpt lat="43.246886680547064" lon="13.003807163571917"><ele>367.0</ele><time>2026-04-04T16:13:10.001Z</time></trkpt><trkpt lat="43.24682440819595" lon="13.003664480139502"><ele>367.5</ele><time>2026-04-04T16:13:11.001Z</time></trkpt><trkpt lat="43.24675918987002" lon="13.00351837168969"><ele>368.0</ele><time>2026-04-04T16:13:12.001Z</time></trkpt><trkpt lat="43.24669515389327" lon="13.003373959273512"><ele>368.5</ele><time>2026-04-04T16:13:13.001Z</time></trkpt><trkpt lat="43.246627480540084" lon="13.003223811169"><ele>369.0</ele><time>2026-04-04T16:13:14.001Z</time></trkpt><trkpt lat="43.246557140402956" lon="13.003073947611643"><ele>369.0</ele><time>2026-04-04T16:13:15.001Z</time></trkpt><trkpt lat="43.24648762357587" lon="13.002917202431846"><ele>369.0</ele><time>2026-04-04T16:13:16.001Z</time></trkpt><trkpt lat="43.246418567543586" lon="13.002761759537025"><ele>369.0</ele><time>2026-04-04T16:13:17Z</time></trkpt><trkpt lat="43.24635088437208" lon="13.002604128681984"><ele>369.0</ele><time>2026-04-04T16:13:18Z</time></trkpt><trkpt lat="43.24628252323735" lon="13.002443886501212"><ele>369.0</ele><time>2026-04-04T16:13:19Z</time></trkpt><trkpt lat="43.2462146040845" lon="13.002281994520558"><ele>369.0</ele><time>2026-04-04T16:13:20Z</time></trkpt><trkpt lat="43.24614267832038" lon="13.002121174666934"><ele>369.0</ele><time>2026-04-04T16:13:21Z</time></trkpt><trkpt lat="43.24606847208556" lon="13.001961996492753"><ele>369.0</ele><time>2026-04-04T16:13:22Z</time></trkpt><trkpt lat="43.2459945349831" lon="13.001800119403848"><ele>369.5</ele><time>2026-04-04T16:13:23Z</time></trkpt><trkpt lat="43.245920887619526" lon="13.001635018038156"><ele>370.0</ele><time>2026-04-04T16:13:24Z</time></trkpt><trkpt lat="43.24584530332793" lon="13.001468649067467"><ele>370.5</ele><time>2026-04-04T16:13:25Z</time></trkpt><trkpt lat="43.24576978033555" lon="13.001301258739542"><ele>371.0</ele><time>2026-04-04T16:13:26Z</time></trkpt><trkpt lat="43.245691543629476" lon="13.00113017170987"><ele>371.25</ele><time>2026-04-04T16:13:27Z</time></trkpt><trkpt lat="43.2456173268512" lon="13.00096082561304"><ele>371.5</ele><time>2026-04-04T16:13:28Z</time></trkpt><trkpt lat="43.24554354110893" lon="13.000785099454824"><ele>371.75</ele><time>2026-04-04T16:13:29Z</time></trkpt><trkpt lat="43.2454643252402" lon="13.00060691074909"><ele>372.0</ele><time>2026-04-04T16:13:30Z</time></trkpt><trkpt lat="43.2454009670646" lon="13.000444324852195"><ele>372.25</ele><time>2026-04-04T16:13:31Z</time></trkpt><trkpt lat="43.2453345173285" lon="13.000301538639297"><ele>372.5</ele><time>2026-04-04T16:13:32Z</time></trkpt><trkpt lat="43.245263453758035" lon="13.000143370776259"><ele>372.75</ele><time>2026-04-04T16:13:33Z</time></trkpt><trkpt lat="43.2451958465695" lon="12.999997569080096"><ele>373.0</ele><time>2026-04-04T16:13:34Z</time></trkpt><trkpt lat="43.24513835380952" lon="12.999860209338266"><ele>373.0</ele><time>2026-04-04T16:13:35Z</time></trkpt><trkpt lat="43.24509019833615" lon="12.99973042979439"><ele>373.0</ele><time>2026-04-04T16:13:36Z</time></trkpt><trkpt lat="43.245057018942106" lon="12.99959788918102"><ele>373.0</ele><time>2026-04-04T16:13:37Z</time></trkpt><trkpt lat="43.24504212200523" lon="12.999468374197594"><ele>373.0</ele><time>2026-04-04T16:13:38Z</time></trkpt><trkpt lat="43.24501776983645" lon="12.999343540184565"><ele>373.0</ele><time>2026-04-04T16:13:39Z</time></trkpt><trkpt lat="43.24491825753779" lon="12.999254524887792"><ele>373.0</ele><time>2026-04-04T16:13:40Z</time></trkpt><trkpt lat="43.24483286050398" lon="12.999148793378486"><ele>373.0</ele><time>2026-04-04T16:13:41Z</time></trkpt><trkpt lat="43.244755827439434" lon="12.999017963608535"><ele>373.0</ele><time>2026-04-04T16:13:42Z</time></trkpt><trkpt lat="43.24469368204112" lon="12.99886479224729"><ele>373.0</ele><time>2026-04-04T16:13:43Z</time></trkpt><trkpt lat="43.24462532673746" lon="12.998705697354435"><ele>373.0</ele><time>2026-04-04T16:13:44Z</time></trkpt><trkpt lat="43.24455144417954" lon="12.99853978557821"><ele>373.0</ele><time>2026-04-04T16:13:45Z</time></trkpt><trkpt lat="43.244478239546886" lon="12.998375719332675"><ele>373.0</ele><time>2026-04-04T16:13:46Z</time></trkpt><trkpt lat="43.2444034763362" lon="12.998207046220632"><ele>373.0</ele><time>2026-04-04T16:13:47Z</time></trkpt><trkpt lat="43.244332586635736" lon="12.998040878898165"><ele>373.0</ele><time>2026-04-04T16:13:48Z</time></trkpt><trkpt lat="43.24426197000738" lon="12.997877285086775"><ele>373.0</ele><time>2026-04-04T16:13:49Z</time></trkpt><trkpt lat="43.24419266533731" lon="12.997718567900547"><ele>373.0</ele><time>2026-04-04T16:13:50Z</time></trkpt><trkpt lat="43.24413022467117" lon="12.997567046323073"><ele>373.0</ele><time>2026-04-04T16:13:51Z</time></trkpt><trkpt lat="43.24407198204153" lon="12.997439069749372"><ele>373.0</ele><time>2026-04-04T16:13:52Z</time></trkpt><trkpt lat="43.2440236853159" lon="12.997326838746742"><ele>373.0</ele><time>2026-04-04T16:13:53Z</time></trkpt><trkpt lat="43.24398053911538" lon="12.99722863857475"><ele>373.0</ele><time>2026-04-04T16:13:54Z</time></trkpt><trkpt lat="43.243946141073884" lon="12.997154128556193"><ele>373.0</ele><time>2026-04-04T16:13:55Z</time></trkpt><trkpt lat="43.24390237580061" lon="12.997039710340195"><ele>373.0</ele><time>2026-04-04T16:13:57Z</time></trkpt><trkpt lat="43.24380582092258" lon="12.997065029623919"><ele>373.0</ele><time>2026-04-04T16:13:58Z</time></trkpt><trkpt lat="43.243737273397606" lon="12.997084528684212"><ele>373.4</ele><time>2026-04-04T16:13:59Z</time></trkpt><trkpt lat="43.243658540791614" lon="12.997084143316815"><ele>373.79999999999995</ele><time>2026-04-04T16:14:00Z</time></trkpt><trkpt lat="43.24357358647583" lon="12.997077886124696"><ele>374.2</ele><time>2026-04-04T16:14:01Z</time></trkpt><trkpt lat="43.243476568993074" lon="12.997067887007118"><ele>374.6</ele><time>2026-04-04T16:14:02Z</time></trkpt><trkpt lat="43.243370371569995" lon="12.997058994024156"><ele>375.0</ele><time>2026-04-04T16:14:03Z</time></trkpt><trkpt lat="43.24326083492177" lon="12.99705306468361"><ele>375.0</ele><time>2026-04-04T16:14:04Z</time></trkpt><trkpt lat="43.24314689075934" lon="12.997042082127646"><ele>375.0</ele><time>2026-04-04T16:14:05Z</time></trkpt><trkpt lat="43.24302425884966" lon="12.997038188240433"><ele>375.0</ele><time>2026-04-04T16:14:06Z</time></trkpt><trkpt lat="43.2428964632066" lon="12.997036978557011"><ele>375.0</ele><time>2026-04-04T16:14:07Z</time></trkpt><trkpt lat="43.24276564522909" lon="12.997006024375123"><ele>375.75</ele><time>2026-04-04T16:14:08Z</time></trkpt><trkpt lat="43.242627877987296" lon="12.99701968056847"><ele>376.5</ele><time>2026-04-04T16:14:09Z</time></trkpt><trkpt lat="43.242489224212434" lon="12.996989522650708"><ele>377.25</ele><time>2026-04-04T16:14:10Z</time></trkpt><trkpt lat="43.24234343219971" lon="12.996998546288784"><ele>378.0</ele><time>2026-04-04T16:14:11Z</time></trkpt><trkpt lat="43.24220018088321" lon="12.996982151500369"><ele>380.0</ele><time>2026-04-04T16:14:12Z</time></trkpt><trkpt lat="43.24206181027802" lon="12.996977204446999"><ele>382.0</ele><time>2026-04-04T16:14:13Z</time></trkpt><trkpt lat="43.24192601841039" lon="12.996973909151965"><ele>384.0</ele><time>2026-04-04T16:14:14Z</time></trkpt><trkpt lat="43.24178857121281" lon="12.996968474515002"><ele>386.0</ele><time>2026-04-04T16:14:15Z</time></trkpt><trkpt lat="43.24165242718413" lon="12.996959193497695"><ele>386.0</ele><time>2026-04-04T16:14:16Z</time></trkpt><trkpt lat="43.2415200107349" lon="12.99694711737001"><ele>386.0</ele><time>2026-04-04T16:14:17Z</time></trkpt><trkpt lat="43.241398467941934" lon="12.996925663283973"><ele>386.0</ele><time>2026-04-04T16:14:18Z</time></trkpt><trkpt lat="43.24128766126325" lon="12.996898582168617"><ele>386.0</ele><time>2026-04-04T16:14:19Z</time></trkpt><trkpt lat="43.24118360807213" lon="12.996868616074758"><ele>387.8</ele><time>2026-04-04T16:14:20Z</time></trkpt><trkpt lat="43.241082608729116" lon="12.996834307659649"><ele>389.6</ele><time>2026-04-04T16:14:21.001Z</time></trkpt><trkpt lat="43.2409817426421" lon="12.99677494081889"><ele>391.4</ele><time>2026-04-04T16:14:22.001Z</time></trkpt><trkpt lat="43.240879625398584" lon="12.99670188347669"><ele>393.2</ele><time>2026-04-04T16:14:23.001Z</time></trkpt><trkpt lat="43.240775744960416" lon="12.996625301480693"><ele>395.0</ele><time>2026-04-04T16:14:24.001Z</time></trkpt><trkpt lat="43.24067024980517" lon="12.996543287764904"><ele>396.5</ele><time>2026-04-04T16:14:25.001Z</time></trkpt><trkpt lat="43.24056405254047" lon="12.996460042732737"><ele>398.0</ele><time>2026-04-04T16:14:26.001Z</time></trkpt><trkpt lat="43.24046573020397" lon="12.996355479113962"><ele>399.5</ele><time>2026-04-04T16:14:27.001Z</time></trkpt><trkpt lat="43.24035122200105" lon="12.9962880144531"><ele>401.0</ele><time>2026-04-04T16:14:28.001Z</time></trkpt><trkpt lat="43.24024466899782" lon="12.996202952649254"><ele>401.0</ele><time>2026-04-04T16:14:29.001Z</time></trkpt><trkpt lat="43.240139996309814" lon="12.996114780926296"><ele>401.0</ele><time>2026-04-04T16:14:30.001Z</time></trkpt><trkpt lat="43.240037329705295" lon="12.996033083228445"><ele>401.0</ele><time>2026-04-04T16:14:31.001Z</time></trkpt><trkpt lat="43.23994205243715" lon="12.995960041288713"><ele>401.0</ele><time>2026-04-04T16:14:32.001Z</time></trkpt><trkpt lat="43.239860257944635" lon="12.995892375034192"><ele>401.0</ele><time>2026-04-04T16:14:33.001Z</time></trkpt><trkpt lat="43.23980156635212" lon="12.995812079913856"><ele>401.49999999999994</ele><time>2026-04-04T16:14:34.001Z</time></trkpt><trkpt lat="43.23977218815484" lon="12.99572174400851"><ele>402.0</ele><time>2026-04-04T16:14:35.001Z</time></trkpt><trkpt lat="43.23982709836763" lon="12.995633430283501"><ele>402.5</ele><time>2026-04-04T16:14:36.001Z</time></trkpt><trkpt lat="43.23986971422259" lon="12.995543385004867"><ele>403.0</ele><time>2026-04-04T16:14:37.001Z</time></trkpt><trkpt lat="43.23990922531399" lon="12.99543575991181"><ele>403.49999999999994</ele><time>2026-04-04T16:14:38.001Z</time></trkpt><trkpt lat="43.239961399023436" lon="12.99532024709841"><ele>404.0</ele><time>2026-04-04T16:14:39.001Z</time></trkpt><trkpt lat="43.2400001438333" lon="12.99520137099513"><ele>404.0</ele><time>2026-04-04T16:14:40.001Z</time></trkpt><trkpt lat="43.2400260881237" lon="12.99506823546248"><ele>404.0</ele><time>2026-04-04T16:14:41.001Z</time></trkpt><trkpt lat="43.240013324087215" lon="12.994933300137314"><ele>404.0</ele><time>2026-04-04T16:14:42.001Z</time></trkpt><trkpt lat="43.239961498791665" lon="12.994823084498936"><ele>404.0</ele><time>2026-04-04T16:14:43.001Z</time></trkpt><trkpt lat="43.23989648747898" lon="12.994750046367075"><ele>404.0</ele><time>2026-04-04T16:14:44.001Z</time></trkpt><trkpt lat="43.23980542604103" lon="12.994734225143171"><ele>405.99999999999994</ele><time>2026-04-04T16:14:45.001Z</time></trkpt><trkpt lat="43.23972587630871" lon="12.994714810274024"><ele>408.0</ele><time>2026-04-04T16:14:46.001Z</time></trkpt><trkpt lat="43.23966774404057" lon="12.99467303666595"><ele>410.0</ele><time>2026-04-04T16:14:47.001Z</time></trkpt><trkpt lat="43.23959874336648" lon="12.994767234705726"><ele>412.0</ele><time>2026-04-04T16:14:48.001Z</time></trkpt><trkpt lat="43.23956189463312" lon="12.994845722484744"><ele>413.99999999999994</ele><time>2026-04-04T16:14:49.001Z</time></trkpt><trkpt lat="43.23954398527334" lon="12.994947985471079"><ele>416.0</ele><time>2026-04-04T16:14:50.001Z</time></trkpt><trkpt lat="43.23952428439682" lon="12.995056030324132"><ele>415.99999999999994</ele><time>2026-04-04T16:14:51.001Z</time></trkpt><trkpt lat="43.23950244507094" lon="12.995143705773373"><ele>416.0</ele><time>2026-04-04T16:14:52.001Z</time></trkpt><trkpt lat="43.239470737686275" lon="12.995219685787742"><ele>416.0</ele><time>2026-04-04T16:14:54.001Z</time></trkpt><trkpt lat="43.23934681532368" lon="12.995195821745407"><ele>416.0</ele><time>2026-04-04T16:14:59.001Z</time></trkpt><trkpt lat="43.239292562658" lon="12.995134088252863"><ele>415.99999999999994</ele><time>2026-04-04T16:15:01.001Z</time></trkpt><trkpt lat="43.23924967271998" lon="12.995063827276718"><ele>416.0</ele><time>2026-04-04T16:15:47Z</time></trkpt><trkpt lat="43.23919123053406" lon="12.99497529566693"><ele>416.16666666666663</ele><time>2026-04-04T16:19:06Z</time></trkpt><trkpt lat="43.2391553850329" lon="12.99490371711738"><ele>416.3333333333333</ele><time>2026-04-04T16:19:08Z</time></trkpt><trkpt lat="43.23910023422779" lon="12.994823288935368"><ele>416.5</ele><time>2026-04-04T16:19:10.001Z</time></trkpt><trkpt lat="43.239036052627256" lon="12.994780048010043"><ele>416.66666666666663</ele><time>2026-04-04T16:19:12.001Z</time></trkpt><trkpt lat="43.238947062864625" lon="12.994748241913232"><ele>416.8333333333333</ele><time>2026-04-04T16:19:14.001Z</time></trkpt><trkpt lat="43.23887218487812" lon="12.994733612647584"><ele>417.0</ele><time>2026-04-04T16:19:16.001Z</time></trkpt><trkpt lat="43.238787040372195" lon="12.994718175155999"><ele>419.8333333333333</ele><time>2026-04-04T16:19:18.001Z</time></trkpt><trkpt lat="43.23870286728028" lon="12.994672053320745"><ele>422.66666666666663</ele><time>2026-04-04T16:19:20.001Z</time></trkpt><trkpt lat="43.23862108122387" lon="12.99464552854132"><ele>425.5</ele><time>2026-04-04T16:19:22.001Z</time></trkpt><trkpt lat="43.238526942634145" lon="12.994614998251919"><ele>428.3333333333333</ele><time>2026-04-04T16:19:24.001Z</time></trkpt><trkpt lat="43.23843756505644" lon="12.994605759241907"><ele>431.16666666666663</ele><time>2026-04-04T16:19:26.001Z</time></trkpt><trkpt lat="43.23835419148145" lon="12.994613250097977"><ele>434.0</ele><time>2026-04-04T16:19:28.001Z</time></trkpt><trkpt lat="43.23825869126125" lon="12.994643018574912"><ele>433.99999999999994</ele><time>2026-04-04T16:19:30.001Z</time></trkpt><trkpt lat="43.23818323118933" lon="12.994718557347266"><ele>434.0</ele><time>2026-04-04T16:19:32.001Z</time></trkpt><trkpt lat="43.23810228596335" lon="12.994791308039323"><ele>434.0</ele><time>2026-04-04T16:19:34.001Z</time></trkpt><trkpt lat="43.238038587110566" lon="12.994880200040036"><ele>434.0</ele><time>2026-04-04T16:19:35.998Z</time></trkpt><trkpt lat="43.237982415128634" lon="12.99496366787937"><ele>433.99999999999994</ele><time>2026-04-04T16:19:37.999Z</time></trkpt><trkpt lat="43.23792040258962" lon="12.995024128271803"><ele>434.0</ele><time>2026-04-04T16:19:39.999Z</time></trkpt><trkpt lat="43.23786190400321" lon="12.995107327957175"><ele>435.66666666666663</ele><time>2026-04-04T16:19:41.999Z</time></trkpt><trkpt lat="43.237806614323354" lon="12.995191886900466"><ele>437.3333333333333</ele><time>2026-04-04T16:19:43.999Z</time></trkpt><trkpt lat="43.2377314417361" lon="12.99526952496816"><ele>439.0</ele><time>2026-04-04T16:19:45.999Z</time></trkpt><trkpt lat="43.23765321323277" lon="12.995327531543028"><ele>440.66666666666663</ele><time>2026-04-04T16:19:47.999Z</time></trkpt><trkpt lat="43.23760448614152" lon="12.995402877845205"><ele>442.3333333333333</ele><time>2026-04-04T16:19:49.999Z</time></trkpt><trkpt lat="43.237575232399536" lon="12.995482018682772"><ele>444.0</ele><time>2026-04-04T16:19:51.999Z</time></trkpt><trkpt lat="43.237657373327544" lon="12.99547127899892"><ele>444.0</ele><time>2026-04-04T16:19:54.999Z</time></trkpt><trkpt lat="43.23760357730886" lon="12.99552341798746"><ele>444.0</ele><time>2026-04-04T16:22:42.001Z</time></trkpt><trkpt lat="43.23753031428175" lon="12.995541204289488"><ele>444.0</ele><time>2026-04-04T16:26:49.001Z</time></trkpt><trkpt lat="43.237463124940476" lon="12.995527861619877"><ele>444.0</ele><time>2026-04-04T16:26:57.001Z</time></trkpt><trkpt lat="43.23740841083435" lon="12.995582366389927"><ele>444.0</ele><time>2026-04-04T16:27:05.001Z</time></trkpt><trkpt lat="43.23736122358185" lon="12.995640287566225"><ele>444.0</ele><time>2026-04-04T16:27:11.001Z</time></trkpt><trkpt lat="43.2373520470191" lon="12.995731662275153"><ele>444.0</ele><time>2026-04-04T16:27:20.001Z</time></trkpt><trkpt lat="43.23739120334299" lon="12.995802651488903"><ele>444.1666666666667</ele><time>2026-04-04T16:27:27.001Z</time></trkpt><trkpt lat="43.23742585124176" lon="12.995878469384053"><ele>444.33333333333337</ele><time>2026-04-04T16:27:35.001Z</time></trkpt><trkpt lat="43.237444710441856" lon="12.99596455682558"><ele>444.5</ele><time>2026-04-04T16:27:44.001Z</time></trkpt><trkpt lat="43.237447929811786" lon="12.996053483970071"><ele>444.6666666666667</ele><time>2026-04-04T16:27:53.001Z</time></trkpt><trkpt lat="43.23745926561267" lon="12.996147002700317"><ele>444.83333333333337</ele><time>2026-04-04T16:28:21.001Z</time></trkpt><trkpt lat="43.237447009745196" lon="12.996232027071281"><ele>445.0</ele><time>2026-04-04T16:28:47.001Z</time></trkpt><trkpt lat="43.23758151938406" lon="12.996241204691707"><ele>445.0</ele><time>2026-04-04T16:29:24.001Z</time></trkpt><trkpt lat="43.237513353702134" lon="12.996240417524763"><ele>445.0</ele><time>2026-04-04T16:29:35.001Z</time></trkpt></trkseg></trk></gpx>